<?xml version="1.0" encoding="UTF-8" standalone="no" ?>
<gpx xmlns="http://www.topografix.com/GPX/1/1" xmlns:xsi="http://www.w3.org/2001/XMLSchema-instance" xsi:schemaLocation="http://www.topografix.com/GPX/1/1 http://www.topografix.com/GPX/1/1/gpx.xsd" version="1.1" creator="VisuGPX - https://www.visugpx.com">
  <metadata>
    <name>GR52 / GR5 par Menton</name>
    <desc><![CDATA[Randonnée de 7 jours par le GR5 de Menton en direction du Nord en traversant notamment le parc du Mercantour.Enorme variété de paysages dès le départ et vues imprenables dès les premières heures, on est tout de suite dans le bain. Altitude max 2800 m mais encore pas mal de névés à cette période surtout à la descente vers le refuge de Nice. Comme d'habitude nous avons préféré les bivouacs "into the wild" et nous n'avons pas été déçus ! Terrain correct cependant les 2 premiers jours nécessitent de pouvoir enquiller beaucoup de D+.]]></desc>
  </metadata>
  <wpt lat="43.72679" lon="6.51125">
    <ele>955.9</ele>
    <name><![CDATA[xXSNAjco--.1.3gp]]></name>
  </wpt>
  <wpt lat="43.72679" lon="6.51125">
    <ele>955.9</ele>
    <name><![CDATA[xXSNAjco--.1.3gp]]></name>
  </wpt>
  <trk>
    <name><![CDATA[GR52 / GR5 par Menton_1]]></name>
    <trkseg>
      <trkpt lat="43.77422" lon="7.5013">
        <ele>71.782</ele>
        <time>2020-06-24T05:41:18Z</time>
      </trkpt>
      <trkpt lat="43.77425" lon="7.50132">
        <ele>74.704</ele>
        <time>2020-06-24T05:41:33Z</time>
      </trkpt>
      <trkpt lat="43.77413" lon="7.50149">
        <ele>76.264</ele>
        <time>2020-06-24T05:41:50Z</time>
      </trkpt>
      <trkpt lat="43.77379" lon="7.50152">
        <ele>73.36</ele>
        <time>2020-06-24T05:42:05Z</time>
      </trkpt>
      <trkpt lat="43.77375" lon="7.50149">
        <ele>72.032</ele>
        <time>2020-06-24T05:42:21Z</time>
      </trkpt>
      <trkpt lat="43.77376" lon="7.50146">
        <ele>70.444</ele>
        <time>2020-06-24T05:42:37Z</time>
      </trkpt>
      <trkpt lat="43.77376" lon="7.50146">
        <ele>70.444</ele>
        <time>2020-06-24T05:42:52Z</time>
      </trkpt>
      <trkpt lat="43.77368" lon="7.50151">
        <ele>70.846</ele>
        <time>2020-06-24T05:43:07Z</time>
      </trkpt>
      <trkpt lat="43.77378" lon="7.50185">
        <ele>61.255</ele>
        <time>2020-06-24T05:43:23Z</time>
      </trkpt>
      <trkpt lat="43.77384" lon="7.50212">
        <ele>58.791</ele>
        <time>2020-06-24T05:43:38Z</time>
      </trkpt>
      <trkpt lat="43.7739" lon="7.50235">
        <ele>58.649</ele>
        <time>2020-06-24T05:43:54Z</time>
      </trkpt>
      <trkpt lat="43.77394" lon="7.50263">
        <ele>59.617</ele>
        <time>2020-06-24T05:44:10Z</time>
      </trkpt>
      <trkpt lat="43.77406" lon="7.50289">
        <ele>57.624</ele>
        <time>2020-06-24T05:44:25Z</time>
      </trkpt>
      <trkpt lat="43.77414" lon="7.50314">
        <ele>54.237</ele>
        <time>2020-06-24T05:44:41Z</time>
      </trkpt>
      <trkpt lat="43.77421" lon="7.50339">
        <ele>54.968</ele>
        <time>2020-06-24T05:44:56Z</time>
      </trkpt>
      <trkpt lat="43.77426" lon="7.50368">
        <ele>58.047</ele>
        <time>2020-06-24T05:45:11Z</time>
      </trkpt>
      <trkpt lat="43.77435" lon="7.50402">
        <ele>58.334</ele>
        <time>2020-06-24T05:45:27Z</time>
      </trkpt>
      <trkpt lat="43.77443" lon="7.50428">
        <ele>58.987</ele>
        <time>2020-06-24T05:45:43Z</time>
      </trkpt>
      <trkpt lat="43.77452" lon="7.50449">
        <ele>59.113</ele>
        <time>2020-06-24T05:45:59Z</time>
      </trkpt>
      <trkpt lat="43.77458" lon="7.50475">
        <ele>60.356</ele>
        <time>2020-06-24T05:46:14Z</time>
      </trkpt>
      <trkpt lat="43.77462" lon="7.50503">
        <ele>60.69</ele>
        <time>2020-06-24T05:46:30Z</time>
      </trkpt>
      <trkpt lat="43.77457" lon="7.50529">
        <ele>61.677</ele>
        <time>2020-06-24T05:46:45Z</time>
      </trkpt>
      <trkpt lat="43.77451" lon="7.50552">
        <ele>60.795</ele>
        <time>2020-06-24T05:47:01Z</time>
      </trkpt>
      <trkpt lat="43.77441" lon="7.50581">
        <ele>54.477</ele>
        <time>2020-06-24T05:47:16Z</time>
      </trkpt>
      <trkpt lat="43.77434" lon="7.50606">
        <ele>51.553</ele>
        <time>2020-06-24T05:47:31Z</time>
      </trkpt>
      <trkpt lat="43.7743" lon="7.50634">
        <ele>50.836</ele>
        <time>2020-06-24T05:47:47Z</time>
      </trkpt>
      <trkpt lat="43.77431" lon="7.50658">
        <ele>49.375</ele>
        <time>2020-06-24T05:48:02Z</time>
      </trkpt>
      <trkpt lat="43.77435" lon="7.50692">
        <ele>49.607</ele>
        <time>2020-06-24T05:48:18Z</time>
      </trkpt>
      <trkpt lat="43.77438" lon="7.50707">
        <ele>48.405</ele>
        <time>2020-06-24T05:48:33Z</time>
      </trkpt>
      <trkpt lat="43.77441" lon="7.50712">
        <ele>49.256</ele>
        <time>2020-06-24T05:48:49Z</time>
      </trkpt>
      <trkpt lat="43.77447" lon="7.50737">
        <ele>51.215</ele>
        <time>2020-06-24T05:49:05Z</time>
      </trkpt>
      <trkpt lat="43.77457" lon="7.50761">
        <ele>52.654</ele>
        <time>2020-06-24T05:49:20Z</time>
      </trkpt>
      <trkpt lat="43.77469" lon="7.50784">
        <ele>52.477</ele>
        <time>2020-06-24T05:49:36Z</time>
      </trkpt>
      <trkpt lat="43.77481" lon="7.50812">
        <ele>52.928</ele>
        <time>2020-06-24T05:49:52Z</time>
      </trkpt>
      <trkpt lat="43.7749" lon="7.50827">
        <ele>54.719</ele>
        <time>2020-06-24T05:50:07Z</time>
      </trkpt>
      <trkpt lat="43.77493" lon="7.50853">
        <ele>52.565</ele>
        <time>2020-06-24T05:50:22Z</time>
      </trkpt>
      <trkpt lat="43.77511" lon="7.50865">
        <ele>51.269</ele>
        <time>2020-06-24T05:50:38Z</time>
      </trkpt>
      <trkpt lat="43.77522" lon="7.50862">
        <ele>49.243</ele>
        <time>2020-06-24T05:50:53Z</time>
      </trkpt>
      <trkpt lat="43.77544" lon="7.50864">
        <ele>49.42</ele>
        <time>2020-06-24T05:51:08Z</time>
      </trkpt>
      <trkpt lat="43.77562" lon="7.5087">
        <ele>52.025</ele>
        <time>2020-06-24T05:51:24Z</time>
      </trkpt>
      <trkpt lat="43.77583" lon="7.50874">
        <ele>55.4</ele>
        <time>2020-06-24T05:51:40Z</time>
      </trkpt>
      <trkpt lat="43.77604" lon="7.50867">
        <ele>51.649</ele>
        <time>2020-06-24T05:51:56Z</time>
      </trkpt>
      <trkpt lat="43.77623" lon="7.50854">
        <ele>46.369</ele>
        <time>2020-06-24T05:52:12Z</time>
      </trkpt>
      <trkpt lat="43.77642" lon="7.50845">
        <ele>48.414</ele>
        <time>2020-06-24T05:52:27Z</time>
      </trkpt>
      <trkpt lat="43.77661" lon="7.50836">
        <ele>50.058</ele>
        <time>2020-06-24T05:52:42Z</time>
      </trkpt>
      <trkpt lat="43.77673" lon="7.50821">
        <ele>51.778</ele>
        <time>2020-06-24T05:52:58Z</time>
      </trkpt>
      <trkpt lat="43.77694" lon="7.50813">
        <ele>56.069</ele>
        <time>2020-06-24T05:53:14Z</time>
      </trkpt>
      <trkpt lat="43.77715" lon="7.50803">
        <ele>58.001</ele>
        <time>2020-06-24T05:53:29Z</time>
      </trkpt>
      <trkpt lat="43.77734" lon="7.50792">
        <ele>57.77</ele>
        <time>2020-06-24T05:53:45Z</time>
      </trkpt>
      <trkpt lat="43.77752" lon="7.50783">
        <ele>55.086</ele>
        <time>2020-06-24T05:54:01Z</time>
      </trkpt>
      <trkpt lat="43.77772" lon="7.50774">
        <ele>53.866</ele>
        <time>2020-06-24T05:54:16Z</time>
      </trkpt>
      <trkpt lat="43.77793" lon="7.50768">
        <ele>52.969</ele>
        <time>2020-06-24T05:54:32Z</time>
      </trkpt>
      <trkpt lat="43.77813" lon="7.5076">
        <ele>53.654</ele>
        <time>2020-06-24T05:54:47Z</time>
      </trkpt>
      <trkpt lat="43.77834" lon="7.50754">
        <ele>54.097</ele>
        <time>2020-06-24T05:55:03Z</time>
      </trkpt>
      <trkpt lat="43.77853" lon="7.50752">
        <ele>56.676</ele>
        <time>2020-06-24T05:55:19Z</time>
      </trkpt>
      <trkpt lat="43.77875" lon="7.50757">
        <ele>58.112</ele>
        <time>2020-06-24T05:55:35Z</time>
      </trkpt>
      <trkpt lat="43.77894" lon="7.50769">
        <ele>57.019</ele>
        <time>2020-06-24T05:55:51Z</time>
      </trkpt>
      <trkpt lat="43.77909" lon="7.50783">
        <ele>58.098</ele>
        <time>2020-06-24T05:56:06Z</time>
      </trkpt>
      <trkpt lat="43.77912" lon="7.50784">
        <ele>56.788</ele>
        <time>2020-06-24T05:56:22Z</time>
      </trkpt>
      <trkpt lat="43.77921" lon="7.50793">
        <ele>57.08</ele>
        <time>2020-06-24T05:56:38Z</time>
      </trkpt>
      <trkpt lat="43.77939" lon="7.5081">
        <ele>53.035</ele>
        <time>2020-06-24T05:56:53Z</time>
      </trkpt>
      <trkpt lat="43.77956" lon="7.50824">
        <ele>52.851</ele>
        <time>2020-06-24T05:57:09Z</time>
      </trkpt>
      <trkpt lat="43.77973" lon="7.50839">
        <ele>50.445</ele>
        <time>2020-06-24T05:57:25Z</time>
      </trkpt>
      <trkpt lat="43.77991" lon="7.50857">
        <ele>49.84</ele>
        <time>2020-06-24T05:57:41Z</time>
      </trkpt>
      <trkpt lat="43.78007" lon="7.50876">
        <ele>49.223</ele>
        <time>2020-06-24T05:57:57Z</time>
      </trkpt>
      <trkpt lat="43.78022" lon="7.50895">
        <ele>49.949</ele>
        <time>2020-06-24T05:58:12Z</time>
      </trkpt>
      <trkpt lat="43.78036" lon="7.50913">
        <ele>49.632</ele>
        <time>2020-06-24T05:58:27Z</time>
      </trkpt>
      <trkpt lat="43.78056" lon="7.50925">
        <ele>49.229</ele>
        <time>2020-06-24T05:58:42Z</time>
      </trkpt>
      <trkpt lat="43.78072" lon="7.50941">
        <ele>49.555</ele>
        <time>2020-06-24T05:58:58Z</time>
      </trkpt>
      <trkpt lat="43.78089" lon="7.50957">
        <ele>48.889</ele>
        <time>2020-06-24T05:59:13Z</time>
      </trkpt>
      <trkpt lat="43.78105" lon="7.50974">
        <ele>49.819</ele>
        <time>2020-06-24T05:59:28Z</time>
      </trkpt>
      <trkpt lat="43.7812" lon="7.50995">
        <ele>52.799</ele>
        <time>2020-06-24T05:59:44Z</time>
      </trkpt>
      <trkpt lat="43.78133" lon="7.51017">
        <ele>51.875</ele>
        <time>2020-06-24T05:59:59Z</time>
      </trkpt>
      <trkpt lat="43.78148" lon="7.51036">
        <ele>51.729</ele>
        <time>2020-06-24T06:00:15Z</time>
      </trkpt>
      <trkpt lat="43.78164" lon="7.51059">
        <ele>51.78</ele>
        <time>2020-06-24T06:00:31Z</time>
      </trkpt>
      <trkpt lat="43.78174" lon="7.51084">
        <ele>53.528</ele>
        <time>2020-06-24T06:00:46Z</time>
      </trkpt>
      <trkpt lat="43.78185" lon="7.51106">
        <ele>52.502</ele>
        <time>2020-06-24T06:01:02Z</time>
      </trkpt>
      <trkpt lat="43.78196" lon="7.51128">
        <ele>50.706</ele>
        <time>2020-06-24T06:01:17Z</time>
      </trkpt>
      <trkpt lat="43.78206" lon="7.51156">
        <ele>51.178</ele>
        <time>2020-06-24T06:01:33Z</time>
      </trkpt>
      <trkpt lat="43.78218" lon="7.51181">
        <ele>50.716</ele>
        <time>2020-06-24T06:01:48Z</time>
      </trkpt>
      <trkpt lat="43.78228" lon="7.51202">
        <ele>48.692</ele>
        <time>2020-06-24T06:02:03Z</time>
      </trkpt>
      <trkpt lat="43.78239" lon="7.51228">
        <ele>48.943</ele>
        <time>2020-06-24T06:02:19Z</time>
      </trkpt>
      <trkpt lat="43.78253" lon="7.5125">
        <ele>52.468</ele>
        <time>2020-06-24T06:02:34Z</time>
      </trkpt>
      <trkpt lat="43.78265" lon="7.51272">
        <ele>54.322</ele>
        <time>2020-06-24T06:02:50Z</time>
      </trkpt>
      <trkpt lat="43.78273" lon="7.51301">
        <ele>55.403</ele>
        <time>2020-06-24T06:03:06Z</time>
      </trkpt>
      <trkpt lat="43.78283" lon="7.51325">
        <ele>55.879</ele>
        <time>2020-06-24T06:03:22Z</time>
      </trkpt>
      <trkpt lat="43.78291" lon="7.51349">
        <ele>55.563</ele>
        <time>2020-06-24T06:03:37Z</time>
      </trkpt>
      <trkpt lat="43.783" lon="7.51375">
        <ele>52.225</ele>
        <time>2020-06-24T06:03:53Z</time>
      </trkpt>
      <trkpt lat="43.78311" lon="7.51403">
        <ele>51.223</ele>
        <time>2020-06-24T06:04:09Z</time>
      </trkpt>
      <trkpt lat="43.7832" lon="7.51429">
        <ele>53.214</ele>
        <time>2020-06-24T06:04:25Z</time>
      </trkpt>
      <trkpt lat="43.78324" lon="7.51454">
        <ele>54.634</ele>
        <time>2020-06-24T06:04:40Z</time>
      </trkpt>
      <trkpt lat="43.78332" lon="7.51474">
        <ele>51.661</ele>
        <time>2020-06-24T06:04:55Z</time>
      </trkpt>
      <trkpt lat="43.7834" lon="7.51497">
        <ele>48.478</ele>
        <time>2020-06-24T06:05:11Z</time>
      </trkpt>
      <trkpt lat="43.78344" lon="7.51527">
        <ele>49.809</ele>
        <time>2020-06-24T06:05:26Z</time>
      </trkpt>
      <trkpt lat="43.78349" lon="7.51556">
        <ele>54.986</ele>
        <time>2020-06-24T06:05:42Z</time>
      </trkpt>
      <trkpt lat="43.78356" lon="7.51582">
        <ele>53.873</ele>
        <time>2020-06-24T06:05:57Z</time>
      </trkpt>
      <trkpt lat="43.78364" lon="7.51613">
        <ele>55.016</ele>
        <time>2020-06-24T06:06:13Z</time>
      </trkpt>
      <trkpt lat="43.7837" lon="7.51633">
        <ele>49.968</ele>
        <time>2020-06-24T06:06:29Z</time>
      </trkpt>
      <trkpt lat="43.78374" lon="7.51657">
        <ele>49.785</ele>
        <time>2020-06-24T06:06:44Z</time>
      </trkpt>
      <trkpt lat="43.78377" lon="7.51681">
        <ele>52.039</ele>
        <time>2020-06-24T06:07:00Z</time>
      </trkpt>
      <trkpt lat="43.78381" lon="7.51706">
        <ele>51.914</ele>
        <time>2020-06-24T06:07:15Z</time>
      </trkpt>
      <trkpt lat="43.78389" lon="7.51735">
        <ele>52.304</ele>
        <time>2020-06-24T06:07:30Z</time>
      </trkpt>
      <trkpt lat="43.78395" lon="7.51755">
        <ele>52.186</ele>
        <time>2020-06-24T06:07:46Z</time>
      </trkpt>
      <trkpt lat="43.78399" lon="7.51782">
        <ele>52.43</ele>
        <time>2020-06-24T06:08:02Z</time>
      </trkpt>
      <trkpt lat="43.78406" lon="7.51806">
        <ele>52.425</ele>
        <time>2020-06-24T06:08:18Z</time>
      </trkpt>
      <trkpt lat="43.78414" lon="7.51829">
        <ele>54.116</ele>
        <time>2020-06-24T06:08:33Z</time>
      </trkpt>
      <trkpt lat="43.78417" lon="7.5184">
        <ele>51.986</ele>
        <time>2020-06-24T06:08:48Z</time>
      </trkpt>
      <trkpt lat="43.78422" lon="7.51851">
        <ele>49.082</ele>
        <time>2020-06-24T06:09:03Z</time>
      </trkpt>
      <trkpt lat="43.78426" lon="7.51871">
        <ele>45.904</ele>
        <time>2020-06-24T06:09:19Z</time>
      </trkpt>
      <trkpt lat="43.78433" lon="7.51895">
        <ele>45.167</ele>
        <time>2020-06-24T06:09:34Z</time>
      </trkpt>
      <trkpt lat="43.78447" lon="7.51897">
        <ele>48.438</ele>
        <time>2020-06-24T06:09:50Z</time>
      </trkpt>
      <trkpt lat="43.78452" lon="7.51899">
        <ele>48.726</ele>
        <time>2020-06-24T06:10:06Z</time>
      </trkpt>
      <trkpt lat="43.78453" lon="7.51898">
        <ele>48.691</ele>
        <time>2020-06-24T06:10:21Z</time>
      </trkpt>
      <trkpt lat="43.7847" lon="7.51892">
        <ele>52.419</ele>
        <time>2020-06-24T06:10:37Z</time>
      </trkpt>
      <trkpt lat="43.78488" lon="7.51882">
        <ele>57.791</ele>
        <time>2020-06-24T06:10:53Z</time>
      </trkpt>
      <trkpt lat="43.78501" lon="7.51872">
        <ele>62.412</ele>
        <time>2020-06-24T06:11:08Z</time>
      </trkpt>
      <trkpt lat="43.78519" lon="7.51874">
        <ele>64.088</ele>
        <time>2020-06-24T06:11:23Z</time>
      </trkpt>
      <trkpt lat="43.78537" lon="7.51863">
        <ele>64.86</ele>
        <time>2020-06-24T06:11:39Z</time>
      </trkpt>
      <trkpt lat="43.78552" lon="7.51868">
        <ele>68.589</ele>
        <time>2020-06-24T06:11:55Z</time>
      </trkpt>
      <trkpt lat="43.7856" lon="7.51878">
        <ele>70.236</ele>
        <time>2020-06-24T06:12:11Z</time>
      </trkpt>
      <trkpt lat="43.78575" lon="7.5186">
        <ele>75.743</ele>
        <time>2020-06-24T06:12:26Z</time>
      </trkpt>
      <trkpt lat="43.78584" lon="7.51838">
        <ele>76.613</ele>
        <time>2020-06-24T06:12:42Z</time>
      </trkpt>
      <trkpt lat="43.78587" lon="7.51825">
        <ele>74.68</ele>
        <time>2020-06-24T06:12:57Z</time>
      </trkpt>
      <trkpt lat="43.7859" lon="7.51819">
        <ele>73.458</ele>
        <time>2020-06-24T06:13:12Z</time>
      </trkpt>
      <trkpt lat="43.78593" lon="7.51816">
        <ele>71.01</ele>
        <time>2020-06-24T06:13:28Z</time>
      </trkpt>
      <trkpt lat="43.78593" lon="7.51816">
        <ele>71.01</ele>
        <time>2020-06-24T06:13:44Z</time>
      </trkpt>
      <trkpt lat="43.78597" lon="7.51817">
        <ele>71.182</ele>
        <time>2020-06-24T06:13:59Z</time>
      </trkpt>
      <trkpt lat="43.78598" lon="7.51814">
        <ele>71.467</ele>
        <time>2020-06-24T06:14:15Z</time>
      </trkpt>
      <trkpt lat="43.786" lon="7.51807">
        <ele>71.409</ele>
        <time>2020-06-24T06:14:31Z</time>
      </trkpt>
      <trkpt lat="43.78606" lon="7.51796">
        <ele>74.593</ele>
        <time>2020-06-24T06:14:47Z</time>
      </trkpt>
      <trkpt lat="43.78613" lon="7.51786">
        <ele>77.65</ele>
        <time>2020-06-24T06:15:03Z</time>
      </trkpt>
      <trkpt lat="43.78607" lon="7.51778">
        <ele>85.01</ele>
        <time>2020-06-24T06:15:18Z</time>
      </trkpt>
      <trkpt lat="43.78611" lon="7.51779">
        <ele>85.599</ele>
        <time>2020-06-24T06:15:34Z</time>
      </trkpt>
      <trkpt lat="43.78611" lon="7.51779">
        <ele>85.599</ele>
        <time>2020-06-24T06:15:49Z</time>
      </trkpt>
      <trkpt lat="43.78615" lon="7.5178">
        <ele>86.405</ele>
        <time>2020-06-24T06:16:05Z</time>
      </trkpt>
      <trkpt lat="43.78619" lon="7.51769">
        <ele>92.179</ele>
        <time>2020-06-24T06:16:21Z</time>
      </trkpt>
      <trkpt lat="43.78612" lon="7.51753">
        <ele>95.095</ele>
        <time>2020-06-24T06:16:37Z</time>
      </trkpt>
      <trkpt lat="43.78622" lon="7.51756">
        <ele>95.478</ele>
        <time>2020-06-24T06:16:52Z</time>
      </trkpt>
      <trkpt lat="43.78628" lon="7.51756">
        <ele>96.021</ele>
        <time>2020-06-24T06:17:08Z</time>
      </trkpt>
      <trkpt lat="43.7863" lon="7.51757">
        <ele>98.625</ele>
        <time>2020-06-24T06:17:24Z</time>
      </trkpt>
      <trkpt lat="43.78631" lon="7.5175">
        <ele>99.016</ele>
        <time>2020-06-24T06:17:39Z</time>
      </trkpt>
      <trkpt lat="43.78639" lon="7.5174">
        <ele>100.317</ele>
        <time>2020-06-24T06:17:54Z</time>
      </trkpt>
      <trkpt lat="43.78643" lon="7.51722">
        <ele>100.857</ele>
        <time>2020-06-24T06:18:10Z</time>
      </trkpt>
      <trkpt lat="43.7865" lon="7.5171">
        <ele>100.962</ele>
        <time>2020-06-24T06:18:25Z</time>
      </trkpt>
      <trkpt lat="43.78661" lon="7.51708">
        <ele>100.063</ele>
        <time>2020-06-24T06:18:41Z</time>
      </trkpt>
      <trkpt lat="43.78674" lon="7.5171">
        <ele>103.265</ele>
        <time>2020-06-24T06:18:56Z</time>
      </trkpt>
      <trkpt lat="43.7868" lon="7.51715">
        <ele>118.925</ele>
        <time>2020-06-24T06:19:12Z</time>
      </trkpt>
      <trkpt lat="43.78691" lon="7.517">
        <ele>126.23</ele>
        <time>2020-06-24T06:19:28Z</time>
      </trkpt>
      <trkpt lat="43.78701" lon="7.51698">
        <ele>124.638</ele>
        <time>2020-06-24T06:19:43Z</time>
      </trkpt>
      <trkpt lat="43.78709" lon="7.51687">
        <ele>120.401</ele>
        <time>2020-06-24T06:19:58Z</time>
      </trkpt>
      <trkpt lat="43.78711" lon="7.51688">
        <ele>128.509</ele>
        <time>2020-06-24T06:20:13Z</time>
      </trkpt>
      <trkpt lat="43.78724" lon="7.51672">
        <ele>124.926</ele>
        <time>2020-06-24T06:20:29Z</time>
      </trkpt>
      <trkpt lat="43.78736" lon="7.51659">
        <ele>120.729</ele>
        <time>2020-06-24T06:20:45Z</time>
      </trkpt>
      <trkpt lat="43.78742" lon="7.51644">
        <ele>119.995</ele>
        <time>2020-06-24T06:21:00Z</time>
      </trkpt>
      <trkpt lat="43.78755" lon="7.51635">
        <ele>119.283</ele>
        <time>2020-06-24T06:21:15Z</time>
      </trkpt>
      <trkpt lat="43.78763" lon="7.51628">
        <ele>123.695</ele>
        <time>2020-06-24T06:21:30Z</time>
      </trkpt>
      <trkpt lat="43.78771" lon="7.51623">
        <ele>121.851</ele>
        <time>2020-06-24T06:21:46Z</time>
      </trkpt>
      <trkpt lat="43.78779" lon="7.51624">
        <ele>125.778</ele>
        <time>2020-06-24T06:22:02Z</time>
      </trkpt>
      <trkpt lat="43.78793" lon="7.51625">
        <ele>134.795</ele>
        <time>2020-06-24T06:22:18Z</time>
      </trkpt>
      <trkpt lat="43.78802" lon="7.51634">
        <ele>136.536</ele>
        <time>2020-06-24T06:22:34Z</time>
      </trkpt>
      <trkpt lat="43.78804" lon="7.51651">
        <ele>139.889</ele>
        <time>2020-06-24T06:22:49Z</time>
      </trkpt>
      <trkpt lat="43.7881" lon="7.5167">
        <ele>142.215</ele>
        <time>2020-06-24T06:23:04Z</time>
      </trkpt>
      <trkpt lat="43.78811" lon="7.5169">
        <ele>152.461</ele>
        <time>2020-06-24T06:23:20Z</time>
      </trkpt>
      <trkpt lat="43.78817" lon="7.5171">
        <ele>153.864</ele>
        <time>2020-06-24T06:23:35Z</time>
      </trkpt>
      <trkpt lat="43.7882" lon="7.51711">
        <ele>151.883</ele>
        <time>2020-06-24T06:23:50Z</time>
      </trkpt>
      <trkpt lat="43.78824" lon="7.51731">
        <ele>153.714</ele>
        <time>2020-06-24T06:24:06Z</time>
      </trkpt>
      <trkpt lat="43.78831" lon="7.51749">
        <ele>153.472</ele>
        <time>2020-06-24T06:24:21Z</time>
      </trkpt>
      <trkpt lat="43.78833" lon="7.51756">
        <ele>149.99</ele>
        <time>2020-06-24T06:24:37Z</time>
      </trkpt>
      <trkpt lat="43.7884" lon="7.51758">
        <ele>149.223</ele>
        <time>2020-06-24T06:24:52Z</time>
      </trkpt>
      <trkpt lat="43.7884" lon="7.51758">
        <ele>148.824</ele>
        <time>2020-06-24T06:25:07Z</time>
      </trkpt>
      <trkpt lat="43.78831" lon="7.51767">
        <ele>151.403</ele>
        <time>2020-06-24T06:25:23Z</time>
      </trkpt>
      <trkpt lat="43.78824" lon="7.51779">
        <ele>156.597</ele>
        <time>2020-06-24T06:25:39Z</time>
      </trkpt>
      <trkpt lat="43.78825" lon="7.518">
        <ele>149.323</ele>
        <time>2020-06-24T06:25:55Z</time>
      </trkpt>
      <trkpt lat="43.78819" lon="7.51815">
        <ele>148.969</ele>
        <time>2020-06-24T06:26:11Z</time>
      </trkpt>
      <trkpt lat="43.78818" lon="7.51819">
        <ele>151.022</ele>
        <time>2020-06-24T06:26:26Z</time>
      </trkpt>
      <trkpt lat="43.78826" lon="7.51816">
        <ele>154.433</ele>
        <time>2020-06-24T06:26:41Z</time>
      </trkpt>
      <trkpt lat="43.7882" lon="7.51818">
        <ele>159.331</ele>
        <time>2020-06-24T06:26:57Z</time>
      </trkpt>
      <trkpt lat="43.78828" lon="7.51818">
        <ele>162.596</ele>
        <time>2020-06-24T06:27:13Z</time>
      </trkpt>
      <trkpt lat="43.78831" lon="7.51825">
        <ele>169.443</ele>
        <time>2020-06-24T06:27:28Z</time>
      </trkpt>
      <trkpt lat="43.78834" lon="7.51835">
        <ele>174.367</ele>
        <time>2020-06-24T06:27:44Z</time>
      </trkpt>
      <trkpt lat="43.78843" lon="7.51836">
        <ele>167.54</ele>
        <time>2020-06-24T06:27:59Z</time>
      </trkpt>
      <trkpt lat="43.78844" lon="7.51829">
        <ele>169.088</ele>
        <time>2020-06-24T06:28:15Z</time>
      </trkpt>
      <trkpt lat="43.78848" lon="7.51815">
        <ele>171.887</ele>
        <time>2020-06-24T06:28:31Z</time>
      </trkpt>
      <trkpt lat="43.7885" lon="7.5181">
        <ele>172.654</ele>
        <time>2020-06-24T06:28:46Z</time>
      </trkpt>
      <trkpt lat="43.78856" lon="7.51807">
        <ele>175.006</ele>
        <time>2020-06-24T06:29:02Z</time>
      </trkpt>
      <trkpt lat="43.78861" lon="7.51801">
        <ele>176.139</ele>
        <time>2020-06-24T06:29:18Z</time>
      </trkpt>
      <trkpt lat="43.78871" lon="7.51788">
        <ele>176.294</ele>
        <time>2020-06-24T06:29:34Z</time>
      </trkpt>
      <trkpt lat="43.78883" lon="7.51786">
        <ele>183.592</ele>
        <time>2020-06-24T06:29:49Z</time>
      </trkpt>
      <trkpt lat="43.78889" lon="7.51804">
        <ele>182.963</ele>
        <time>2020-06-24T06:30:05Z</time>
      </trkpt>
      <trkpt lat="43.78895" lon="7.51816">
        <ele>181.748</ele>
        <time>2020-06-24T06:30:21Z</time>
      </trkpt>
      <trkpt lat="43.78903" lon="7.51834">
        <ele>181.884</ele>
        <time>2020-06-24T06:30:37Z</time>
      </trkpt>
      <trkpt lat="43.78914" lon="7.51836">
        <ele>185.951</ele>
        <time>2020-06-24T06:30:53Z</time>
      </trkpt>
      <trkpt lat="43.7893" lon="7.51844">
        <ele>184.063</ele>
        <time>2020-06-24T06:31:08Z</time>
      </trkpt>
      <trkpt lat="43.78931" lon="7.51832">
        <ele>190.947</ele>
        <time>2020-06-24T06:31:23Z</time>
      </trkpt>
      <trkpt lat="43.78926" lon="7.51812">
        <ele>189.641</ele>
        <time>2020-06-24T06:31:39Z</time>
      </trkpt>
      <trkpt lat="43.78917" lon="7.51795">
        <ele>192.354</ele>
        <time>2020-06-24T06:31:54Z</time>
      </trkpt>
      <trkpt lat="43.78914" lon="7.51778">
        <ele>194.091</ele>
        <time>2020-06-24T06:32:10Z</time>
      </trkpt>
      <trkpt lat="43.78918" lon="7.51767">
        <ele>194.052</ele>
        <time>2020-06-24T06:32:25Z</time>
      </trkpt>
      <trkpt lat="43.78919" lon="7.51768">
        <ele>198.941</ele>
        <time>2020-06-24T06:32:41Z</time>
      </trkpt>
      <trkpt lat="43.78916" lon="7.51774">
        <ele>197.814</ele>
        <time>2020-06-24T06:32:56Z</time>
      </trkpt>
      <trkpt lat="43.78923" lon="7.51767">
        <ele>198.003</ele>
        <time>2020-06-24T06:33:11Z</time>
      </trkpt>
      <trkpt lat="43.78926" lon="7.51764">
        <ele>198.467</ele>
        <time>2020-06-24T06:33:27Z</time>
      </trkpt>
      <trkpt lat="43.78935" lon="7.51768">
        <ele>198.202</ele>
        <time>2020-06-24T06:33:42Z</time>
      </trkpt>
      <trkpt lat="43.78943" lon="7.51767">
        <ele>199.134</ele>
        <time>2020-06-24T06:33:58Z</time>
      </trkpt>
      <trkpt lat="43.78947" lon="7.51771">
        <ele>203.041</ele>
        <time>2020-06-24T06:34:13Z</time>
      </trkpt>
      <trkpt lat="43.78948" lon="7.5177">
        <ele>204.823</ele>
        <time>2020-06-24T06:34:29Z</time>
      </trkpt>
      <trkpt lat="43.78956" lon="7.51759">
        <ele>206.263</ele>
        <time>2020-06-24T06:34:44Z</time>
      </trkpt>
      <trkpt lat="43.78962" lon="7.51756">
        <ele>207.375</ele>
        <time>2020-06-24T06:35:00Z</time>
      </trkpt>
      <trkpt lat="43.78966" lon="7.51758">
        <ele>208.743</ele>
        <time>2020-06-24T06:35:16Z</time>
      </trkpt>
      <trkpt lat="43.78971" lon="7.51756">
        <ele>215.333</ele>
        <time>2020-06-24T06:35:31Z</time>
      </trkpt>
      <trkpt lat="43.78975" lon="7.51742">
        <ele>217.192</ele>
        <time>2020-06-24T06:35:47Z</time>
      </trkpt>
      <trkpt lat="43.78974" lon="7.51741">
        <ele>218.195</ele>
        <time>2020-06-24T06:36:03Z</time>
      </trkpt>
      <trkpt lat="43.78974" lon="7.51741">
        <ele>218.195</ele>
        <time>2020-06-24T06:36:18Z</time>
      </trkpt>
      <trkpt lat="43.78974" lon="7.51741">
        <ele>218.195</ele>
        <time>2020-06-24T06:36:33Z</time>
      </trkpt>
      <trkpt lat="43.78974" lon="7.51741">
        <ele>218.195</ele>
        <time>2020-06-24T06:36:49Z</time>
      </trkpt>
      <trkpt lat="43.78974" lon="7.51741">
        <ele>218.195</ele>
        <time>2020-06-24T06:37:05Z</time>
      </trkpt>
      <trkpt lat="43.78974" lon="7.51741">
        <ele>218.195</ele>
        <time>2020-06-24T06:37:20Z</time>
      </trkpt>
      <trkpt lat="43.78976" lon="7.51736">
        <ele>217.139</ele>
        <time>2020-06-24T06:37:36Z</time>
      </trkpt>
      <trkpt lat="43.78975" lon="7.51737">
        <ele>216.735</ele>
        <time>2020-06-24T06:37:52Z</time>
      </trkpt>
      <trkpt lat="43.78975" lon="7.51746">
        <ele>221.794</ele>
        <time>2020-06-24T06:38:08Z</time>
      </trkpt>
      <trkpt lat="43.78979" lon="7.51753">
        <ele>225.195</ele>
        <time>2020-06-24T06:38:24Z</time>
      </trkpt>
      <trkpt lat="43.78987" lon="7.51769">
        <ele>230.068</ele>
        <time>2020-06-24T06:38:40Z</time>
      </trkpt>
      <trkpt lat="43.78996" lon="7.51771">
        <ele>228.433</ele>
        <time>2020-06-24T06:38:56Z</time>
      </trkpt>
      <trkpt lat="43.79005" lon="7.51753">
        <ele>227.878</ele>
        <time>2020-06-24T06:39:12Z</time>
      </trkpt>
      <trkpt lat="43.79008" lon="7.51751">
        <ele>234.448</ele>
        <time>2020-06-24T06:39:27Z</time>
      </trkpt>
      <trkpt lat="43.7901" lon="7.51732">
        <ele>239.72</ele>
        <time>2020-06-24T06:39:42Z</time>
      </trkpt>
      <trkpt lat="43.79013" lon="7.51709">
        <ele>241.937</ele>
        <time>2020-06-24T06:39:58Z</time>
      </trkpt>
      <trkpt lat="43.79016" lon="7.51685">
        <ele>244.595</ele>
        <time>2020-06-24T06:40:13Z</time>
      </trkpt>
      <trkpt lat="43.79015" lon="7.51662">
        <ele>245.457</ele>
        <time>2020-06-24T06:40:28Z</time>
      </trkpt>
      <trkpt lat="43.7902" lon="7.51635">
        <ele>245.487</ele>
        <time>2020-06-24T06:40:44Z</time>
      </trkpt>
      <trkpt lat="43.79027" lon="7.51609">
        <ele>243.833</ele>
        <time>2020-06-24T06:40:59Z</time>
      </trkpt>
      <trkpt lat="43.79033" lon="7.51583">
        <ele>246.464</ele>
        <time>2020-06-24T06:41:14Z</time>
      </trkpt>
      <trkpt lat="43.79039" lon="7.51558">
        <ele>241.242</ele>
        <time>2020-06-24T06:41:30Z</time>
      </trkpt>
      <trkpt lat="43.79042" lon="7.5155">
        <ele>239.705</ele>
        <time>2020-06-24T06:41:45Z</time>
      </trkpt>
      <trkpt lat="43.79047" lon="7.51561">
        <ele>238.061</ele>
        <time>2020-06-24T06:42:00Z</time>
      </trkpt>
      <trkpt lat="43.79064" lon="7.51585">
        <ele>234.233</ele>
        <time>2020-06-24T06:42:16Z</time>
      </trkpt>
      <trkpt lat="43.79072" lon="7.51598">
        <ele>236.736</ele>
        <time>2020-06-24T06:42:32Z</time>
      </trkpt>
      <trkpt lat="43.79083" lon="7.51614">
        <ele>239.903</ele>
        <time>2020-06-24T06:42:47Z</time>
      </trkpt>
      <trkpt lat="43.79096" lon="7.51617">
        <ele>243.922</ele>
        <time>2020-06-24T06:43:02Z</time>
      </trkpt>
      <trkpt lat="43.79119" lon="7.51608">
        <ele>245.86</ele>
        <time>2020-06-24T06:43:18Z</time>
      </trkpt>
      <trkpt lat="43.79125" lon="7.51585">
        <ele>247.595</ele>
        <time>2020-06-24T06:43:33Z</time>
      </trkpt>
      <trkpt lat="43.79131" lon="7.51565">
        <ele>246.186</ele>
        <time>2020-06-24T06:43:49Z</time>
      </trkpt>
      <trkpt lat="43.79139" lon="7.51548">
        <ele>250.671</ele>
        <time>2020-06-24T06:44:05Z</time>
      </trkpt>
      <trkpt lat="43.79146" lon="7.51546">
        <ele>251.49</ele>
        <time>2020-06-24T06:44:21Z</time>
      </trkpt>
      <trkpt lat="43.79134" lon="7.51556">
        <ele>255.126</ele>
        <time>2020-06-24T06:44:37Z</time>
      </trkpt>
      <trkpt lat="43.79125" lon="7.51579">
        <ele>251.937</ele>
        <time>2020-06-24T06:44:52Z</time>
      </trkpt>
      <trkpt lat="43.79122" lon="7.51599">
        <ele>249.131</ele>
        <time>2020-06-24T06:45:08Z</time>
      </trkpt>
      <trkpt lat="43.79122" lon="7.51627">
        <ele>249.541</ele>
        <time>2020-06-24T06:45:24Z</time>
      </trkpt>
      <trkpt lat="43.79115" lon="7.51651">
        <ele>251.239</ele>
        <time>2020-06-24T06:45:40Z</time>
      </trkpt>
      <trkpt lat="43.79106" lon="7.51656">
        <ele>254.034</ele>
        <time>2020-06-24T06:45:56Z</time>
      </trkpt>
      <trkpt lat="43.79106" lon="7.51656">
        <ele>254.034</ele>
        <time>2020-06-24T06:46:11Z</time>
      </trkpt>
      <trkpt lat="43.79105" lon="7.51656">
        <ele>258.006</ele>
        <time>2020-06-24T06:46:27Z</time>
      </trkpt>
      <trkpt lat="43.79111" lon="7.5166">
        <ele>259.698</ele>
        <time>2020-06-24T06:46:43Z</time>
      </trkpt>
      <trkpt lat="43.7911" lon="7.51661">
        <ele>261.041</ele>
        <time>2020-06-24T06:46:58Z</time>
      </trkpt>
      <trkpt lat="43.79111" lon="7.51663">
        <ele>261.714</ele>
        <time>2020-06-24T06:47:13Z</time>
      </trkpt>
      <trkpt lat="43.79115" lon="7.51668">
        <ele>264.943</ele>
        <time>2020-06-24T06:47:29Z</time>
      </trkpt>
      <trkpt lat="43.79108" lon="7.51671">
        <ele>269.295</ele>
        <time>2020-06-24T06:47:44Z</time>
      </trkpt>
      <trkpt lat="43.79102" lon="7.51653">
        <ele>282.124</ele>
        <time>2020-06-24T06:47:59Z</time>
      </trkpt>
      <trkpt lat="43.79095" lon="7.51659">
        <ele>282.227</ele>
        <time>2020-06-24T06:48:15Z</time>
      </trkpt>
      <trkpt lat="43.79098" lon="7.51663">
        <ele>280.162</ele>
        <time>2020-06-24T06:48:31Z</time>
      </trkpt>
      <trkpt lat="43.79115" lon="7.51684">
        <ele>276.633</ele>
        <time>2020-06-24T06:48:47Z</time>
      </trkpt>
      <trkpt lat="43.79121" lon="7.51691">
        <ele>278.192</ele>
        <time>2020-06-24T06:49:02Z</time>
      </trkpt>
      <trkpt lat="43.79123" lon="7.51697">
        <ele>280.268</ele>
        <time>2020-06-24T06:49:18Z</time>
      </trkpt>
      <trkpt lat="43.79133" lon="7.51705">
        <ele>285.91</ele>
        <time>2020-06-24T06:49:34Z</time>
      </trkpt>
      <trkpt lat="43.79131" lon="7.51709">
        <ele>285.514</ele>
        <time>2020-06-24T06:49:49Z</time>
      </trkpt>
      <trkpt lat="43.79136" lon="7.51719">
        <ele>282.476</ele>
        <time>2020-06-24T06:50:05Z</time>
      </trkpt>
      <trkpt lat="43.79141" lon="7.51728">
        <ele>284.501</ele>
        <time>2020-06-24T06:50:20Z</time>
      </trkpt>
      <trkpt lat="43.79143" lon="7.51733">
        <ele>284.539</ele>
        <time>2020-06-24T06:50:35Z</time>
      </trkpt>
      <trkpt lat="43.79144" lon="7.51742">
        <ele>284.643</ele>
        <time>2020-06-24T06:50:51Z</time>
      </trkpt>
      <trkpt lat="43.79147" lon="7.51748">
        <ele>285.917</ele>
        <time>2020-06-24T06:51:07Z</time>
      </trkpt>
      <trkpt lat="43.79147" lon="7.51754">
        <ele>286.515</ele>
        <time>2020-06-24T06:51:23Z</time>
      </trkpt>
      <trkpt lat="43.7915" lon="7.51758">
        <ele>288.034</ele>
        <time>2020-06-24T06:51:39Z</time>
      </trkpt>
      <trkpt lat="43.79157" lon="7.51764">
        <ele>291.263</ele>
        <time>2020-06-24T06:51:55Z</time>
      </trkpt>
      <trkpt lat="43.79162" lon="7.51769">
        <ele>293.225</ele>
        <time>2020-06-24T06:52:11Z</time>
      </trkpt>
      <trkpt lat="43.79163" lon="7.51769">
        <ele>294.931</ele>
        <time>2020-06-24T06:52:26Z</time>
      </trkpt>
      <trkpt lat="43.79172" lon="7.51772">
        <ele>302.08</ele>
        <time>2020-06-24T06:52:42Z</time>
      </trkpt>
      <trkpt lat="43.79177" lon="7.51776">
        <ele>303.988</ele>
        <time>2020-06-24T06:52:58Z</time>
      </trkpt>
      <trkpt lat="43.79177" lon="7.51776">
        <ele>303.813</ele>
        <time>2020-06-24T06:53:13Z</time>
      </trkpt>
      <trkpt lat="43.79178" lon="7.51777">
        <ele>304.942</ele>
        <time>2020-06-24T06:53:28Z</time>
      </trkpt>
      <trkpt lat="43.79177" lon="7.51776">
        <ele>305.377</ele>
        <time>2020-06-24T06:53:43Z</time>
      </trkpt>
      <trkpt lat="43.79179" lon="7.51779">
        <ele>305.456</ele>
        <time>2020-06-24T06:53:59Z</time>
      </trkpt>
      <trkpt lat="43.79183" lon="7.51783">
        <ele>304.709</ele>
        <time>2020-06-24T06:54:14Z</time>
      </trkpt>
      <trkpt lat="43.79178" lon="7.5179">
        <ele>308.783</ele>
        <time>2020-06-24T06:54:30Z</time>
      </trkpt>
      <trkpt lat="43.79179" lon="7.5179">
        <ele>309.711</ele>
        <time>2020-06-24T06:54:45Z</time>
      </trkpt>
      <trkpt lat="43.79179" lon="7.5179">
        <ele>309.711</ele>
        <time>2020-06-24T06:55:00Z</time>
      </trkpt>
      <trkpt lat="43.79179" lon="7.51789">
        <ele>310.099</ele>
        <time>2020-06-24T06:55:16Z</time>
      </trkpt>
      <trkpt lat="43.79178" lon="7.5179">
        <ele>308.582</ele>
        <time>2020-06-24T06:55:31Z</time>
      </trkpt>
      <trkpt lat="43.79178" lon="7.5179">
        <ele>308.582</ele>
        <time>2020-06-24T06:55:46Z</time>
      </trkpt>
      <trkpt lat="43.79178" lon="7.5179">
        <ele>308.582</ele>
        <time>2020-06-24T06:56:02Z</time>
      </trkpt>
      <trkpt lat="43.79181" lon="7.51794">
        <ele>311.125</ele>
        <time>2020-06-24T06:56:17Z</time>
      </trkpt>
      <trkpt lat="43.79186" lon="7.518">
        <ele>316.021</ele>
        <time>2020-06-24T06:56:33Z</time>
      </trkpt>
      <trkpt lat="43.79189" lon="7.51802">
        <ele>315.208</ele>
        <time>2020-06-24T06:56:48Z</time>
      </trkpt>
      <trkpt lat="43.79194" lon="7.51803">
        <ele>317.48</ele>
        <time>2020-06-24T06:57:03Z</time>
      </trkpt>
      <trkpt lat="43.79196" lon="7.51801">
        <ele>317.263</ele>
        <time>2020-06-24T06:57:19Z</time>
      </trkpt>
      <trkpt lat="43.79202" lon="7.51803">
        <ele>320.77</ele>
        <time>2020-06-24T06:57:34Z</time>
      </trkpt>
      <trkpt lat="43.79205" lon="7.51811">
        <ele>327.494</ele>
        <time>2020-06-24T06:57:50Z</time>
      </trkpt>
      <trkpt lat="43.79204" lon="7.51811">
        <ele>329.559</ele>
        <time>2020-06-24T06:58:05Z</time>
      </trkpt>
      <trkpt lat="43.79205" lon="7.51815">
        <ele>330.346</ele>
        <time>2020-06-24T06:58:21Z</time>
      </trkpt>
      <trkpt lat="43.79209" lon="7.51816">
        <ele>331.076</ele>
        <time>2020-06-24T06:58:36Z</time>
      </trkpt>
      <trkpt lat="43.79212" lon="7.51819">
        <ele>331.201</ele>
        <time>2020-06-24T06:58:52Z</time>
      </trkpt>
      <trkpt lat="43.79216" lon="7.51823">
        <ele>333.946</ele>
        <time>2020-06-24T06:59:08Z</time>
      </trkpt>
      <trkpt lat="43.79215" lon="7.51829">
        <ele>338.019</ele>
        <time>2020-06-24T06:59:24Z</time>
      </trkpt>
      <trkpt lat="43.79225" lon="7.51831">
        <ele>344.233</ele>
        <time>2020-06-24T06:59:39Z</time>
      </trkpt>
      <trkpt lat="43.79234" lon="7.51825">
        <ele>348.68</ele>
        <time>2020-06-24T06:59:55Z</time>
      </trkpt>
      <trkpt lat="43.79232" lon="7.51832">
        <ele>347.616</ele>
        <time>2020-06-24T07:00:10Z</time>
      </trkpt>
      <trkpt lat="43.7923" lon="7.51837">
        <ele>352.877</ele>
        <time>2020-06-24T07:00:25Z</time>
      </trkpt>
      <trkpt lat="43.79229" lon="7.51843">
        <ele>355.127</ele>
        <time>2020-06-24T07:00:41Z</time>
      </trkpt>
      <trkpt lat="43.79232" lon="7.51854">
        <ele>354.846</ele>
        <time>2020-06-24T07:00:57Z</time>
      </trkpt>
      <trkpt lat="43.79238" lon="7.5186">
        <ele>356.25</ele>
        <time>2020-06-24T07:01:13Z</time>
      </trkpt>
      <trkpt lat="43.79241" lon="7.51868">
        <ele>355.039</ele>
        <time>2020-06-24T07:01:29Z</time>
      </trkpt>
      <trkpt lat="43.79242" lon="7.51875">
        <ele>354.473</ele>
        <time>2020-06-24T07:01:44Z</time>
      </trkpt>
      <trkpt lat="43.79241" lon="7.51877">
        <ele>354.497</ele>
        <time>2020-06-24T07:02:00Z</time>
      </trkpt>
      <trkpt lat="43.79243" lon="7.5188">
        <ele>355.609</ele>
        <time>2020-06-24T07:02:15Z</time>
      </trkpt>
      <trkpt lat="43.79246" lon="7.51892">
        <ele>362.198</ele>
        <time>2020-06-24T07:02:30Z</time>
      </trkpt>
      <trkpt lat="43.7925" lon="7.51893">
        <ele>365.563</ele>
        <time>2020-06-24T07:02:46Z</time>
      </trkpt>
      <trkpt lat="43.79258" lon="7.51894">
        <ele>368.115</ele>
        <time>2020-06-24T07:03:02Z</time>
      </trkpt>
      <trkpt lat="43.79262" lon="7.51902">
        <ele>371.325</ele>
        <time>2020-06-24T07:03:18Z</time>
      </trkpt>
      <trkpt lat="43.7926" lon="7.51908">
        <ele>374.157</ele>
        <time>2020-06-24T07:03:33Z</time>
      </trkpt>
      <trkpt lat="43.7926" lon="7.51908">
        <ele>374.157</ele>
        <time>2020-06-24T07:03:48Z</time>
      </trkpt>
      <trkpt lat="43.7926" lon="7.51909">
        <ele>373.323</ele>
        <time>2020-06-24T07:04:04Z</time>
      </trkpt>
      <trkpt lat="43.7926" lon="7.51909">
        <ele>373.323</ele>
        <time>2020-06-24T07:04:20Z</time>
      </trkpt>
      <trkpt lat="43.79265" lon="7.51923">
        <ele>374.725</ele>
        <time>2020-06-24T07:04:36Z</time>
      </trkpt>
      <trkpt lat="43.79268" lon="7.51925">
        <ele>376.336</ele>
        <time>2020-06-24T07:04:52Z</time>
      </trkpt>
      <trkpt lat="43.79282" lon="7.51926">
        <ele>383.359</ele>
        <time>2020-06-24T07:05:08Z</time>
      </trkpt>
      <trkpt lat="43.79285" lon="7.51932">
        <ele>384.591</ele>
        <time>2020-06-24T07:05:24Z</time>
      </trkpt>
      <trkpt lat="43.79291" lon="7.51935">
        <ele>390.366</ele>
        <time>2020-06-24T07:05:39Z</time>
      </trkpt>
      <trkpt lat="43.79294" lon="7.51937">
        <ele>391.472</ele>
        <time>2020-06-24T07:05:55Z</time>
      </trkpt>
      <trkpt lat="43.793" lon="7.51951">
        <ele>390.623</ele>
        <time>2020-06-24T07:06:10Z</time>
      </trkpt>
      <trkpt lat="43.793" lon="7.51954">
        <ele>390.572</ele>
        <time>2020-06-24T07:06:26Z</time>
      </trkpt>
      <trkpt lat="43.793" lon="7.51961">
        <ele>391.835</ele>
        <time>2020-06-24T07:06:42Z</time>
      </trkpt>
      <trkpt lat="43.79302" lon="7.51974">
        <ele>396.071</ele>
        <time>2020-06-24T07:06:57Z</time>
      </trkpt>
      <trkpt lat="43.79302" lon="7.51991">
        <ele>394.585</ele>
        <time>2020-06-24T07:07:13Z</time>
      </trkpt>
      <trkpt lat="43.79306" lon="7.52007">
        <ele>393.673</ele>
        <time>2020-06-24T07:07:29Z</time>
      </trkpt>
      <trkpt lat="43.79314" lon="7.52021">
        <ele>391.625</ele>
        <time>2020-06-24T07:07:45Z</time>
      </trkpt>
      <trkpt lat="43.79318" lon="7.52025">
        <ele>395.998</ele>
        <time>2020-06-24T07:08:01Z</time>
      </trkpt>
      <trkpt lat="43.79322" lon="7.52027">
        <ele>397.849</ele>
        <time>2020-06-24T07:08:16Z</time>
      </trkpt>
      <trkpt lat="43.79326" lon="7.5203">
        <ele>401.97</ele>
        <time>2020-06-24T07:08:31Z</time>
      </trkpt>
      <trkpt lat="43.79333" lon="7.52035">
        <ele>405.313</ele>
        <time>2020-06-24T07:08:47Z</time>
      </trkpt>
      <trkpt lat="43.79339" lon="7.52035">
        <ele>408.248</ele>
        <time>2020-06-24T07:09:02Z</time>
      </trkpt>
      <trkpt lat="43.79341" lon="7.52034">
        <ele>409.035</ele>
        <time>2020-06-24T07:09:18Z</time>
      </trkpt>
      <trkpt lat="43.79345" lon="7.52038">
        <ele>409.447</ele>
        <time>2020-06-24T07:09:33Z</time>
      </trkpt>
      <trkpt lat="43.79351" lon="7.5204">
        <ele>413.229</ele>
        <time>2020-06-24T07:09:49Z</time>
      </trkpt>
      <trkpt lat="43.79355" lon="7.52044">
        <ele>424.06</ele>
        <time>2020-06-24T07:10:04Z</time>
      </trkpt>
      <trkpt lat="43.79365" lon="7.52042">
        <ele>423.206</ele>
        <time>2020-06-24T07:10:20Z</time>
      </trkpt>
      <trkpt lat="43.7937" lon="7.52045">
        <ele>422.204</ele>
        <time>2020-06-24T07:10:36Z</time>
      </trkpt>
      <trkpt lat="43.79375" lon="7.52049">
        <ele>422.408</ele>
        <time>2020-06-24T07:10:51Z</time>
      </trkpt>
      <trkpt lat="43.79381" lon="7.52061">
        <ele>423.853</ele>
        <time>2020-06-24T07:11:07Z</time>
      </trkpt>
      <trkpt lat="43.79388" lon="7.52068">
        <ele>429.316</ele>
        <time>2020-06-24T07:11:23Z</time>
      </trkpt>
      <trkpt lat="43.79388" lon="7.52065">
        <ele>431.351</ele>
        <time>2020-06-24T07:11:38Z</time>
      </trkpt>
      <trkpt lat="43.79396" lon="7.52071">
        <ele>433.139</ele>
        <time>2020-06-24T07:11:53Z</time>
      </trkpt>
      <trkpt lat="43.79397" lon="7.52075">
        <ele>433.461</ele>
        <time>2020-06-24T07:12:08Z</time>
      </trkpt>
      <trkpt lat="43.79405" lon="7.52079">
        <ele>435.439</ele>
        <time>2020-06-24T07:12:24Z</time>
      </trkpt>
      <trkpt lat="43.79406" lon="7.52082">
        <ele>438.492</ele>
        <time>2020-06-24T07:12:39Z</time>
      </trkpt>
      <trkpt lat="43.79408" lon="7.5208">
        <ele>444.464</ele>
        <time>2020-06-24T07:12:55Z</time>
      </trkpt>
      <trkpt lat="43.79413" lon="7.52087">
        <ele>449.173</ele>
        <time>2020-06-24T07:13:10Z</time>
      </trkpt>
      <trkpt lat="43.79416" lon="7.52088">
        <ele>451.11</ele>
        <time>2020-06-24T07:13:25Z</time>
      </trkpt>
      <trkpt lat="43.79418" lon="7.52093">
        <ele>451.423</ele>
        <time>2020-06-24T07:13:41Z</time>
      </trkpt>
      <trkpt lat="43.79424" lon="7.52105">
        <ele>456.9</ele>
        <time>2020-06-24T07:13:56Z</time>
      </trkpt>
      <trkpt lat="43.79426" lon="7.52106">
        <ele>458.027</ele>
        <time>2020-06-24T07:14:12Z</time>
      </trkpt>
      <trkpt lat="43.79433" lon="7.52116">
        <ele>458.426</ele>
        <time>2020-06-24T07:14:27Z</time>
      </trkpt>
      <trkpt lat="43.79433" lon="7.52116">
        <ele>458.426</ele>
        <time>2020-06-24T07:14:43Z</time>
      </trkpt>
      <trkpt lat="43.79438" lon="7.52115">
        <ele>460.483</ele>
        <time>2020-06-24T07:14:58Z</time>
      </trkpt>
      <trkpt lat="43.79447" lon="7.52123">
        <ele>463.203</ele>
        <time>2020-06-24T07:15:13Z</time>
      </trkpt>
      <trkpt lat="43.79447" lon="7.52123">
        <ele>463.203</ele>
        <time>2020-06-24T07:15:29Z</time>
      </trkpt>
      <trkpt lat="43.79455" lon="7.52129">
        <ele>466.096</ele>
        <time>2020-06-24T07:15:44Z</time>
      </trkpt>
      <trkpt lat="43.79455" lon="7.52129">
        <ele>466.096</ele>
        <time>2020-06-24T07:15:59Z</time>
      </trkpt>
      <trkpt lat="43.79455" lon="7.52129">
        <ele>466.096</ele>
        <time>2020-06-24T07:16:15Z</time>
      </trkpt>
      <trkpt lat="43.79455" lon="7.52129">
        <ele>466.096</ele>
        <time>2020-06-24T07:16:31Z</time>
      </trkpt>
      <trkpt lat="43.79455" lon="7.52129">
        <ele>466.096</ele>
        <time>2020-06-24T07:16:46Z</time>
      </trkpt>
      <trkpt lat="43.79455" lon="7.52129">
        <ele>466.096</ele>
        <time>2020-06-24T07:17:02Z</time>
      </trkpt>
      <trkpt lat="43.79455" lon="7.52129">
        <ele>466.096</ele>
        <time>2020-06-24T07:17:18Z</time>
      </trkpt>
      <trkpt lat="43.79455" lon="7.52129">
        <ele>466.096</ele>
        <time>2020-06-24T07:17:34Z</time>
      </trkpt>
      <trkpt lat="43.79455" lon="7.52129">
        <ele>466.096</ele>
        <time>2020-06-24T07:17:49Z</time>
      </trkpt>
      <trkpt lat="43.79455" lon="7.52129">
        <ele>466.096</ele>
        <time>2020-06-24T07:18:04Z</time>
      </trkpt>
      <trkpt lat="43.79455" lon="7.5213">
        <ele>467.122</ele>
        <time>2020-06-24T07:18:20Z</time>
      </trkpt>
      <trkpt lat="43.79455" lon="7.5213">
        <ele>467.122</ele>
        <time>2020-06-24T07:18:36Z</time>
      </trkpt>
      <trkpt lat="43.79455" lon="7.5213">
        <ele>467.122</ele>
        <time>2020-06-24T07:18:51Z</time>
      </trkpt>
      <trkpt lat="43.79455" lon="7.5213">
        <ele>467.122</ele>
        <time>2020-06-24T07:19:07Z</time>
      </trkpt>
      <trkpt lat="43.79459" lon="7.52125">
        <ele>469.046</ele>
        <time>2020-06-24T07:19:22Z</time>
      </trkpt>
      <trkpt lat="43.7946" lon="7.52125">
        <ele>469.605</ele>
        <time>2020-06-24T07:19:38Z</time>
      </trkpt>
      <trkpt lat="43.79465" lon="7.52119">
        <ele>473.356</ele>
        <time>2020-06-24T07:19:54Z</time>
      </trkpt>
      <trkpt lat="43.79468" lon="7.52114">
        <ele>476.025</ele>
        <time>2020-06-24T07:20:10Z</time>
      </trkpt>
      <trkpt lat="43.79474" lon="7.52125">
        <ele>475.275</ele>
        <time>2020-06-24T07:20:25Z</time>
      </trkpt>
      <trkpt lat="43.79482" lon="7.52135">
        <ele>483.579</ele>
        <time>2020-06-24T07:20:41Z</time>
      </trkpt>
      <trkpt lat="43.7949" lon="7.5214">
        <ele>487.002</ele>
        <time>2020-06-24T07:20:56Z</time>
      </trkpt>
      <trkpt lat="43.79493" lon="7.52144">
        <ele>490.894</ele>
        <time>2020-06-24T07:21:11Z</time>
      </trkpt>
      <trkpt lat="43.79498" lon="7.52145">
        <ele>496.084</ele>
        <time>2020-06-24T07:21:27Z</time>
      </trkpt>
      <trkpt lat="43.79501" lon="7.52146">
        <ele>498.472</ele>
        <time>2020-06-24T07:21:42Z</time>
      </trkpt>
      <trkpt lat="43.79507" lon="7.5216">
        <ele>496.576</ele>
        <time>2020-06-24T07:21:58Z</time>
      </trkpt>
      <trkpt lat="43.7951" lon="7.5216">
        <ele>497.415</ele>
        <time>2020-06-24T07:22:14Z</time>
      </trkpt>
      <trkpt lat="43.79514" lon="7.52165">
        <ele>497.096</ele>
        <time>2020-06-24T07:22:29Z</time>
      </trkpt>
      <trkpt lat="43.79518" lon="7.52172">
        <ele>500.19</ele>
        <time>2020-06-24T07:22:45Z</time>
      </trkpt>
      <trkpt lat="43.79522" lon="7.52171">
        <ele>501.417</ele>
        <time>2020-06-24T07:23:00Z</time>
      </trkpt>
      <trkpt lat="43.79525" lon="7.52178">
        <ele>501.894</ele>
        <time>2020-06-24T07:23:16Z</time>
      </trkpt>
      <trkpt lat="43.79531" lon="7.52187">
        <ele>507.735</ele>
        <time>2020-06-24T07:23:31Z</time>
      </trkpt>
      <trkpt lat="43.79531" lon="7.52187">
        <ele>507.735</ele>
        <time>2020-06-24T07:23:47Z</time>
      </trkpt>
      <trkpt lat="43.79532" lon="7.5219">
        <ele>507.856</ele>
        <time>2020-06-24T07:24:02Z</time>
      </trkpt>
      <trkpt lat="43.7954" lon="7.52193">
        <ele>511.418</ele>
        <time>2020-06-24T07:24:18Z</time>
      </trkpt>
      <trkpt lat="43.79542" lon="7.52195">
        <ele>512.728</ele>
        <time>2020-06-24T07:24:33Z</time>
      </trkpt>
      <trkpt lat="43.79542" lon="7.52197">
        <ele>514.299</ele>
        <time>2020-06-24T07:24:49Z</time>
      </trkpt>
      <trkpt lat="43.79541" lon="7.52207">
        <ele>517.868</ele>
        <time>2020-06-24T07:25:04Z</time>
      </trkpt>
      <trkpt lat="43.79541" lon="7.52207">
        <ele>517.868</ele>
        <time>2020-06-24T07:25:20Z</time>
      </trkpt>
      <trkpt lat="43.79541" lon="7.52209">
        <ele>518.063</ele>
        <time>2020-06-24T07:25:36Z</time>
      </trkpt>
      <trkpt lat="43.79541" lon="7.52209">
        <ele>519.526</ele>
        <time>2020-06-24T07:25:52Z</time>
      </trkpt>
      <trkpt lat="43.79541" lon="7.52209">
        <ele>519.526</ele>
        <time>2020-06-24T07:26:07Z</time>
      </trkpt>
      <trkpt lat="43.79541" lon="7.52209">
        <ele>519.526</ele>
        <time>2020-06-24T07:26:23Z</time>
      </trkpt>
      <trkpt lat="43.79541" lon="7.52209">
        <ele>519.526</ele>
        <time>2020-06-24T07:26:38Z</time>
      </trkpt>
      <trkpt lat="43.7954" lon="7.52209">
        <ele>520.125</ele>
        <time>2020-06-24T07:26:54Z</time>
      </trkpt>
      <trkpt lat="43.79541" lon="7.52207">
        <ele>520.771</ele>
        <time>2020-06-24T07:27:09Z</time>
      </trkpt>
      <trkpt lat="43.79543" lon="7.52215">
        <ele>522.453</ele>
        <time>2020-06-24T07:27:25Z</time>
      </trkpt>
      <trkpt lat="43.7955" lon="7.52218">
        <ele>527.216</ele>
        <time>2020-06-24T07:27:41Z</time>
      </trkpt>
      <trkpt lat="43.79554" lon="7.52218">
        <ele>528.94</ele>
        <time>2020-06-24T07:27:56Z</time>
      </trkpt>
      <trkpt lat="43.7956" lon="7.52216">
        <ele>534.219</ele>
        <time>2020-06-24T07:28:11Z</time>
      </trkpt>
      <trkpt lat="43.79561" lon="7.52211">
        <ele>536.906</ele>
        <time>2020-06-24T07:28:27Z</time>
      </trkpt>
      <trkpt lat="43.79566" lon="7.52201">
        <ele>538.428</ele>
        <time>2020-06-24T07:28:42Z</time>
      </trkpt>
      <trkpt lat="43.79571" lon="7.52197">
        <ele>540.66</ele>
        <time>2020-06-24T07:28:57Z</time>
      </trkpt>
      <trkpt lat="43.79572" lon="7.52199">
        <ele>541.559</ele>
        <time>2020-06-24T07:29:12Z</time>
      </trkpt>
      <trkpt lat="43.79573" lon="7.52199">
        <ele>541.906</ele>
        <time>2020-06-24T07:29:28Z</time>
      </trkpt>
      <trkpt lat="43.79579" lon="7.52206">
        <ele>544.198</ele>
        <time>2020-06-24T07:29:43Z</time>
      </trkpt>
      <trkpt lat="43.79582" lon="7.52209">
        <ele>548.204</ele>
        <time>2020-06-24T07:29:59Z</time>
      </trkpt>
      <trkpt lat="43.79583" lon="7.5221">
        <ele>548.395</ele>
        <time>2020-06-24T07:30:15Z</time>
      </trkpt>
      <trkpt lat="43.79583" lon="7.5221">
        <ele>548.395</ele>
        <time>2020-06-24T07:30:30Z</time>
      </trkpt>
      <trkpt lat="43.79582" lon="7.52218">
        <ele>552.765</ele>
        <time>2020-06-24T07:30:45Z</time>
      </trkpt>
      <trkpt lat="43.79584" lon="7.52233">
        <ele>553.657</ele>
        <time>2020-06-24T07:31:01Z</time>
      </trkpt>
      <trkpt lat="43.79585" lon="7.52235">
        <ele>554.715</ele>
        <time>2020-06-24T07:31:17Z</time>
      </trkpt>
      <trkpt lat="43.79584" lon="7.52236">
        <ele>556.93</ele>
        <time>2020-06-24T07:31:33Z</time>
      </trkpt>
      <trkpt lat="43.79584" lon="7.52236">
        <ele>556.93</ele>
        <time>2020-06-24T07:31:48Z</time>
      </trkpt>
      <trkpt lat="43.79584" lon="7.52243">
        <ele>558.882</ele>
        <time>2020-06-24T07:32:03Z</time>
      </trkpt>
      <trkpt lat="43.79587" lon="7.52246">
        <ele>563.227</ele>
        <time>2020-06-24T07:32:19Z</time>
      </trkpt>
      <trkpt lat="43.79591" lon="7.52245">
        <ele>564.732</ele>
        <time>2020-06-24T07:32:34Z</time>
      </trkpt>
      <trkpt lat="43.79596" lon="7.52248">
        <ele>569.014</ele>
        <time>2020-06-24T07:32:50Z</time>
      </trkpt>
      <trkpt lat="43.79598" lon="7.52248">
        <ele>569.935</ele>
        <time>2020-06-24T07:33:05Z</time>
      </trkpt>
      <trkpt lat="43.79598" lon="7.52248">
        <ele>569.935</ele>
        <time>2020-06-24T07:33:21Z</time>
      </trkpt>
      <trkpt lat="43.79601" lon="7.52248">
        <ele>569.91</ele>
        <time>2020-06-24T07:33:37Z</time>
      </trkpt>
      <trkpt lat="43.7961" lon="7.52245">
        <ele>572.836</ele>
        <time>2020-06-24T07:33:52Z</time>
      </trkpt>
      <trkpt lat="43.79613" lon="7.52244">
        <ele>574.176</ele>
        <time>2020-06-24T07:34:08Z</time>
      </trkpt>
      <trkpt lat="43.79613" lon="7.52244">
        <ele>574.176</ele>
        <time>2020-06-24T07:34:24Z</time>
      </trkpt>
      <trkpt lat="43.79613" lon="7.52245">
        <ele>574.729</ele>
        <time>2020-06-24T07:34:40Z</time>
      </trkpt>
      <trkpt lat="43.79614" lon="7.52246">
        <ele>574.983</ele>
        <time>2020-06-24T07:34:56Z</time>
      </trkpt>
      <trkpt lat="43.79614" lon="7.52246">
        <ele>574.983</ele>
        <time>2020-06-24T07:35:12Z</time>
      </trkpt>
      <trkpt lat="43.79609" lon="7.52245">
        <ele>575.034</ele>
        <time>2020-06-24T07:35:28Z</time>
      </trkpt>
      <trkpt lat="43.79615" lon="7.5224">
        <ele>574.365</ele>
        <time>2020-06-24T07:35:43Z</time>
      </trkpt>
      <trkpt lat="43.7962" lon="7.52237">
        <ele>573.867</ele>
        <time>2020-06-24T07:35:59Z</time>
      </trkpt>
      <trkpt lat="43.79626" lon="7.52235">
        <ele>576.333</ele>
        <time>2020-06-24T07:36:15Z</time>
      </trkpt>
      <trkpt lat="43.79632" lon="7.52226">
        <ele>579.811</ele>
        <time>2020-06-24T07:36:31Z</time>
      </trkpt>
      <trkpt lat="43.79637" lon="7.52225">
        <ele>580.849</ele>
        <time>2020-06-24T07:36:47Z</time>
      </trkpt>
      <trkpt lat="43.79641" lon="7.52219">
        <ele>586.156</ele>
        <time>2020-06-24T07:37:02Z</time>
      </trkpt>
      <trkpt lat="43.79646" lon="7.52216">
        <ele>590.104</ele>
        <time>2020-06-24T07:37:18Z</time>
      </trkpt>
      <trkpt lat="43.79651" lon="7.52216">
        <ele>592.797</ele>
        <time>2020-06-24T07:37:33Z</time>
      </trkpt>
      <trkpt lat="43.79652" lon="7.52215">
        <ele>593.603</ele>
        <time>2020-06-24T07:37:48Z</time>
      </trkpt>
      <trkpt lat="43.79655" lon="7.52217">
        <ele>594.691</ele>
        <time>2020-06-24T07:38:03Z</time>
      </trkpt>
      <trkpt lat="43.79659" lon="7.52217">
        <ele>595.695</ele>
        <time>2020-06-24T07:38:19Z</time>
      </trkpt>
      <trkpt lat="43.79666" lon="7.52207">
        <ele>598.303</ele>
        <time>2020-06-24T07:38:35Z</time>
      </trkpt>
      <trkpt lat="43.79673" lon="7.52209">
        <ele>598.766</ele>
        <time>2020-06-24T07:38:51Z</time>
      </trkpt>
      <trkpt lat="43.79682" lon="7.52209">
        <ele>603.072</ele>
        <time>2020-06-24T07:39:06Z</time>
      </trkpt>
      <trkpt lat="43.79686" lon="7.52206">
        <ele>605.252</ele>
        <time>2020-06-24T07:39:21Z</time>
      </trkpt>
      <trkpt lat="43.79693" lon="7.52215">
        <ele>606.702</ele>
        <time>2020-06-24T07:39:37Z</time>
      </trkpt>
      <trkpt lat="43.79696" lon="7.52211">
        <ele>610.153</ele>
        <time>2020-06-24T07:39:52Z</time>
      </trkpt>
      <trkpt lat="43.79703" lon="7.52206">
        <ele>613.854</ele>
        <time>2020-06-24T07:40:08Z</time>
      </trkpt>
      <trkpt lat="43.79707" lon="7.52199">
        <ele>617.227</ele>
        <time>2020-06-24T07:40:23Z</time>
      </trkpt>
      <trkpt lat="43.79712" lon="7.52195">
        <ele>617.635</ele>
        <time>2020-06-24T07:40:38Z</time>
      </trkpt>
      <trkpt lat="43.79717" lon="7.52191">
        <ele>619.176</ele>
        <time>2020-06-24T07:40:53Z</time>
      </trkpt>
      <trkpt lat="43.79724" lon="7.52184">
        <ele>621.401</ele>
        <time>2020-06-24T07:41:09Z</time>
      </trkpt>
      <trkpt lat="43.7973" lon="7.52175">
        <ele>623.553</ele>
        <time>2020-06-24T07:41:24Z</time>
      </trkpt>
      <trkpt lat="43.7974" lon="7.52164">
        <ele>627.095</ele>
        <time>2020-06-24T07:41:39Z</time>
      </trkpt>
      <trkpt lat="43.79745" lon="7.52155">
        <ele>630.567</ele>
        <time>2020-06-24T07:41:55Z</time>
      </trkpt>
      <trkpt lat="43.7975" lon="7.52146">
        <ele>634.411</ele>
        <time>2020-06-24T07:42:10Z</time>
      </trkpt>
      <trkpt lat="43.79753" lon="7.52142">
        <ele>635.159</ele>
        <time>2020-06-24T07:42:25Z</time>
      </trkpt>
      <trkpt lat="43.79763" lon="7.52132">
        <ele>635.315</ele>
        <time>2020-06-24T07:42:41Z</time>
      </trkpt>
      <trkpt lat="43.7977" lon="7.5212">
        <ele>635.221</ele>
        <time>2020-06-24T07:42:57Z</time>
      </trkpt>
      <trkpt lat="43.7978" lon="7.52114">
        <ele>638.718</ele>
        <time>2020-06-24T07:43:13Z</time>
      </trkpt>
      <trkpt lat="43.79786" lon="7.52112">
        <ele>641.71</ele>
        <time>2020-06-24T07:43:28Z</time>
      </trkpt>
      <trkpt lat="43.79794" lon="7.52103">
        <ele>645.643</ele>
        <time>2020-06-24T07:43:44Z</time>
      </trkpt>
      <trkpt lat="43.79803" lon="7.52091">
        <ele>648.901</ele>
        <time>2020-06-24T07:43:59Z</time>
      </trkpt>
      <trkpt lat="43.79808" lon="7.5208">
        <ele>649.019</ele>
        <time>2020-06-24T07:44:15Z</time>
      </trkpt>
      <trkpt lat="43.79807" lon="7.5208">
        <ele>648.868</ele>
        <time>2020-06-24T07:44:31Z</time>
      </trkpt>
      <trkpt lat="43.79807" lon="7.5208">
        <ele>648.868</ele>
        <time>2020-06-24T07:44:47Z</time>
      </trkpt>
      <trkpt lat="43.79814" lon="7.52065">
        <ele>651.096</ele>
        <time>2020-06-24T07:45:02Z</time>
      </trkpt>
      <trkpt lat="43.79824" lon="7.52053">
        <ele>654.055</ele>
        <time>2020-06-24T07:45:18Z</time>
      </trkpt>
      <trkpt lat="43.79831" lon="7.5204">
        <ele>657.575</ele>
        <time>2020-06-24T07:45:34Z</time>
      </trkpt>
      <trkpt lat="43.79839" lon="7.52028">
        <ele>659.003</ele>
        <time>2020-06-24T07:45:50Z</time>
      </trkpt>
      <trkpt lat="43.79844" lon="7.52025">
        <ele>658.095</ele>
        <time>2020-06-24T07:46:05Z</time>
      </trkpt>
      <trkpt lat="43.79853" lon="7.52016">
        <ele>660.812</ele>
        <time>2020-06-24T07:46:21Z</time>
      </trkpt>
      <trkpt lat="43.79862" lon="7.52006">
        <ele>666.929</ele>
        <time>2020-06-24T07:46:36Z</time>
      </trkpt>
      <trkpt lat="43.7987" lon="7.52">
        <ele>668.826</ele>
        <time>2020-06-24T07:46:51Z</time>
      </trkpt>
      <trkpt lat="43.79875" lon="7.51996">
        <ele>670.179</ele>
        <time>2020-06-24T07:47:07Z</time>
      </trkpt>
      <trkpt lat="43.79881" lon="7.51984">
        <ele>672.21</ele>
        <time>2020-06-24T07:47:22Z</time>
      </trkpt>
      <trkpt lat="43.79888" lon="7.51976">
        <ele>675.325</ele>
        <time>2020-06-24T07:47:38Z</time>
      </trkpt>
      <trkpt lat="43.79899" lon="7.51962">
        <ele>679.638</ele>
        <time>2020-06-24T07:47:54Z</time>
      </trkpt>
      <trkpt lat="43.79908" lon="7.51953">
        <ele>679.361</ele>
        <time>2020-06-24T07:48:09Z</time>
      </trkpt>
      <trkpt lat="43.79915" lon="7.5194">
        <ele>681.963</ele>
        <time>2020-06-24T07:48:25Z</time>
      </trkpt>
      <trkpt lat="43.7992" lon="7.51933">
        <ele>684.414</ele>
        <time>2020-06-24T07:48:40Z</time>
      </trkpt>
      <trkpt lat="43.79926" lon="7.51926">
        <ele>686.141</ele>
        <time>2020-06-24T07:48:56Z</time>
      </trkpt>
      <trkpt lat="43.79932" lon="7.51922">
        <ele>688.072</ele>
        <time>2020-06-24T07:49:12Z</time>
      </trkpt>
      <trkpt lat="43.79934" lon="7.51944">
        <ele>647.4</ele>
      </trkpt>
      <trkpt lat="43.79941" lon="7.51955">
        <ele>651.2</ele>
      </trkpt>
      <trkpt lat="43.79953" lon="7.51959">
        <ele>654.5</ele>
      </trkpt>
      <trkpt lat="43.79972" lon="7.51948">
        <ele>658.4</ele>
      </trkpt>
      <trkpt lat="43.7998" lon="7.51943">
        <ele>660</ele>
      </trkpt>
      <trkpt lat="43.79993" lon="7.51934">
        <ele>662.5</ele>
      </trkpt>
      <trkpt lat="43.80005" lon="7.51923">
        <ele>676.8</ele>
      </trkpt>
      <trkpt lat="43.80024" lon="7.51912">
        <ele>678.5</ele>
      </trkpt>
      <trkpt lat="43.80048" lon="7.51892">
        <ele>685.9</ele>
      </trkpt>
      <trkpt lat="43.80066" lon="7.51876">
        <ele>688.4</ele>
      </trkpt>
      <trkpt lat="43.80074" lon="7.51885">
        <ele>691.7</ele>
      </trkpt>
      <trkpt lat="43.80079" lon="7.51888">
        <ele>693.7</ele>
      </trkpt>
      <trkpt lat="43.8009" lon="7.51876">
        <ele>718.4</ele>
      </trkpt>
      <trkpt lat="43.80099" lon="7.51888">
        <ele>720.8</ele>
      </trkpt>
      <trkpt lat="43.80111" lon="7.51885">
        <ele>723</ele>
      </trkpt>
      <trkpt lat="43.80137" lon="7.5185">
        <ele>727.4</ele>
      </trkpt>
      <trkpt lat="43.80176" lon="7.51802">
        <ele>743.8</ele>
      </trkpt>
      <trkpt lat="43.80191" lon="7.51772">
        <ele>814.239</ele>
        <time>2020-06-24T08:05:14Z</time>
      </trkpt>
      <trkpt lat="43.80191" lon="7.51772">
        <ele>814.239</ele>
        <time>2020-06-24T08:05:29Z</time>
      </trkpt>
      <trkpt lat="43.80191" lon="7.51772">
        <ele>814.239</ele>
        <time>2020-06-24T08:05:45Z</time>
      </trkpt>
      <trkpt lat="43.80183" lon="7.51791">
        <ele>806.854</ele>
        <time>2020-06-24T08:06:01Z</time>
      </trkpt>
      <trkpt lat="43.80183" lon="7.51794">
        <ele>805.845</ele>
        <time>2020-06-24T08:06:17Z</time>
      </trkpt>
      <trkpt lat="43.80183" lon="7.51794">
        <ele>805.845</ele>
        <time>2020-06-24T08:06:32Z</time>
      </trkpt>
      <trkpt lat="43.80183" lon="7.51793">
        <ele>803.589</ele>
        <time>2020-06-24T08:06:48Z</time>
      </trkpt>
      <trkpt lat="43.80194" lon="7.51782">
        <ele>797.636</ele>
        <time>2020-06-24T08:07:04Z</time>
      </trkpt>
      <trkpt lat="43.80196" lon="7.51782">
        <ele>795.722</ele>
        <time>2020-06-24T08:07:19Z</time>
      </trkpt>
      <trkpt lat="43.80201" lon="7.51774">
        <ele>791.339</ele>
        <time>2020-06-24T08:07:34Z</time>
      </trkpt>
      <trkpt lat="43.80208" lon="7.51759">
        <ele>789.568</ele>
        <time>2020-06-24T08:07:49Z</time>
      </trkpt>
      <trkpt lat="43.8022" lon="7.51743">
        <ele>790.267</ele>
        <time>2020-06-24T08:08:05Z</time>
      </trkpt>
      <trkpt lat="43.80231" lon="7.51732">
        <ele>790.52</ele>
        <time>2020-06-24T08:08:21Z</time>
      </trkpt>
      <trkpt lat="43.8024" lon="7.51716">
        <ele>785.982</ele>
        <time>2020-06-24T08:08:37Z</time>
      </trkpt>
      <trkpt lat="43.8025" lon="7.51707">
        <ele>782.497</ele>
        <time>2020-06-24T08:08:52Z</time>
      </trkpt>
      <trkpt lat="43.80256" lon="7.51692">
        <ele>780.461</ele>
        <time>2020-06-24T08:09:07Z</time>
      </trkpt>
      <trkpt lat="43.80261" lon="7.51683">
        <ele>777.532</ele>
        <time>2020-06-24T08:09:23Z</time>
      </trkpt>
      <trkpt lat="43.80261" lon="7.51683">
        <ele>777.532</ele>
        <time>2020-06-24T08:09:39Z</time>
      </trkpt>
      <trkpt lat="43.80266" lon="7.51683">
        <ele>776.309</ele>
        <time>2020-06-24T08:09:54Z</time>
      </trkpt>
      <trkpt lat="43.8027" lon="7.51668">
        <ele>775.426</ele>
        <time>2020-06-24T08:10:10Z</time>
      </trkpt>
      <trkpt lat="43.80283" lon="7.51651">
        <ele>771.924</ele>
        <time>2020-06-24T08:10:25Z</time>
      </trkpt>
      <trkpt lat="43.80297" lon="7.51642">
        <ele>771.871</ele>
        <time>2020-06-24T08:10:41Z</time>
      </trkpt>
      <trkpt lat="43.80309" lon="7.51626">
        <ele>772.857</ele>
        <time>2020-06-24T08:10:57Z</time>
      </trkpt>
      <trkpt lat="43.80318" lon="7.51607">
        <ele>770.763</ele>
        <time>2020-06-24T08:11:12Z</time>
      </trkpt>
      <trkpt lat="43.8032" lon="7.51596">
        <ele>766.54</ele>
        <time>2020-06-24T08:11:28Z</time>
      </trkpt>
      <trkpt lat="43.80337" lon="7.51576">
        <ele>768.344</ele>
        <time>2020-06-24T08:11:44Z</time>
      </trkpt>
      <trkpt lat="43.80352" lon="7.51563">
        <ele>766.865</ele>
        <time>2020-06-24T08:12:00Z</time>
      </trkpt>
      <trkpt lat="43.80368" lon="7.51547">
        <ele>767.697</ele>
        <time>2020-06-24T08:12:16Z</time>
      </trkpt>
      <trkpt lat="43.80379" lon="7.51525">
        <ele>766.051</ele>
        <time>2020-06-24T08:12:32Z</time>
      </trkpt>
      <trkpt lat="43.80398" lon="7.51521">
        <ele>763.709</ele>
        <time>2020-06-24T08:12:48Z</time>
      </trkpt>
      <trkpt lat="43.80412" lon="7.51505">
        <ele>765.03</ele>
        <time>2020-06-24T08:13:03Z</time>
      </trkpt>
      <trkpt lat="43.80423" lon="7.51483">
        <ele>763.718</ele>
        <time>2020-06-24T08:13:19Z</time>
      </trkpt>
      <trkpt lat="43.80442" lon="7.5147">
        <ele>764.967</ele>
        <time>2020-06-24T08:13:35Z</time>
      </trkpt>
      <trkpt lat="43.80458" lon="7.51455">
        <ele>766.591</ele>
        <time>2020-06-24T08:13:51Z</time>
      </trkpt>
      <trkpt lat="43.80477" lon="7.5144">
        <ele>766.891</ele>
        <time>2020-06-24T08:14:07Z</time>
      </trkpt>
      <trkpt lat="43.80488" lon="7.51441">
        <ele>769.987</ele>
        <time>2020-06-24T08:14:22Z</time>
      </trkpt>
      <trkpt lat="43.80498" lon="7.51434">
        <ele>771.684</ele>
        <time>2020-06-24T08:14:37Z</time>
      </trkpt>
      <trkpt lat="43.80509" lon="7.51437">
        <ele>771.378</ele>
        <time>2020-06-24T08:14:53Z</time>
      </trkpt>
      <trkpt lat="43.80521" lon="7.51438">
        <ele>769.089</ele>
        <time>2020-06-24T08:15:09Z</time>
      </trkpt>
      <trkpt lat="43.80542" lon="7.51452">
        <ele>765.598</ele>
        <time>2020-06-24T08:15:25Z</time>
      </trkpt>
      <trkpt lat="43.80558" lon="7.51464">
        <ele>762.448</ele>
        <time>2020-06-24T08:15:41Z</time>
      </trkpt>
      <trkpt lat="43.80575" lon="7.51468">
        <ele>761.802</ele>
        <time>2020-06-24T08:15:57Z</time>
      </trkpt>
      <trkpt lat="43.80592" lon="7.51466">
        <ele>768.426</ele>
        <time>2020-06-24T08:16:12Z</time>
      </trkpt>
      <trkpt lat="43.80614" lon="7.5147">
        <ele>772.85</ele>
        <time>2020-06-24T08:16:28Z</time>
      </trkpt>
      <trkpt lat="43.8063" lon="7.51475">
        <ele>772.218</ele>
        <time>2020-06-24T08:16:44Z</time>
      </trkpt>
      <trkpt lat="43.80646" lon="7.51479">
        <ele>770.84</ele>
        <time>2020-06-24T08:16:59Z</time>
      </trkpt>
      <trkpt lat="43.80662" lon="7.51472">
        <ele>766.201</ele>
        <time>2020-06-24T08:17:15Z</time>
      </trkpt>
      <trkpt lat="43.80676" lon="7.51467">
        <ele>766.816</ele>
        <time>2020-06-24T08:17:30Z</time>
      </trkpt>
      <trkpt lat="43.8069" lon="7.51463">
        <ele>765.978</ele>
        <time>2020-06-24T08:17:46Z</time>
      </trkpt>
      <trkpt lat="43.8069" lon="7.51463">
        <ele>765.978</ele>
        <time>2020-06-24T08:18:02Z</time>
      </trkpt>
      <trkpt lat="43.8069" lon="7.51463">
        <ele>765.978</ele>
        <time>2020-06-24T08:18:17Z</time>
      </trkpt>
      <trkpt lat="43.8069" lon="7.51463">
        <ele>765.978</ele>
        <time>2020-06-24T08:18:33Z</time>
      </trkpt>
      <trkpt lat="43.8069" lon="7.51463">
        <ele>765.978</ele>
        <time>2020-06-24T08:18:48Z</time>
      </trkpt>
      <trkpt lat="43.8069" lon="7.51463">
        <ele>765.978</ele>
        <time>2020-06-24T08:19:03Z</time>
      </trkpt>
      <trkpt lat="43.80701" lon="7.51454">
        <ele>762.228</ele>
        <time>2020-06-24T08:19:19Z</time>
      </trkpt>
      <trkpt lat="43.8072" lon="7.51443">
        <ele>759.468</ele>
        <time>2020-06-24T08:19:35Z</time>
      </trkpt>
      <trkpt lat="43.80739" lon="7.51433">
        <ele>758.192</ele>
        <time>2020-06-24T08:19:51Z</time>
      </trkpt>
      <trkpt lat="43.80747" lon="7.51425">
        <ele>758.918</ele>
        <time>2020-06-24T08:20:06Z</time>
      </trkpt>
      <trkpt lat="43.80752" lon="7.51424">
        <ele>758.567</ele>
        <time>2020-06-24T08:20:22Z</time>
      </trkpt>
      <trkpt lat="43.80752" lon="7.51424">
        <ele>758.567</ele>
        <time>2020-06-24T08:20:38Z</time>
      </trkpt>
      <trkpt lat="43.80752" lon="7.51424">
        <ele>758.567</ele>
        <time>2020-06-24T08:20:53Z</time>
      </trkpt>
      <trkpt lat="43.80752" lon="7.51424">
        <ele>758.567</ele>
        <time>2020-06-24T08:21:09Z</time>
      </trkpt>
      <trkpt lat="43.80752" lon="7.51424">
        <ele>758.567</ele>
        <time>2020-06-24T08:21:24Z</time>
      </trkpt>
      <trkpt lat="43.80752" lon="7.51424">
        <ele>758.567</ele>
        <time>2020-06-24T08:21:39Z</time>
      </trkpt>
      <trkpt lat="43.80752" lon="7.51424">
        <ele>758.567</ele>
        <time>2020-06-24T08:21:54Z</time>
      </trkpt>
      <trkpt lat="43.80752" lon="7.51424">
        <ele>758.567</ele>
        <time>2020-06-24T08:22:10Z</time>
      </trkpt>
      <trkpt lat="43.80752" lon="7.51424">
        <ele>758.567</ele>
        <time>2020-06-24T08:22:25Z</time>
      </trkpt>
      <trkpt lat="43.80752" lon="7.51424">
        <ele>758.567</ele>
        <time>2020-06-24T08:22:40Z</time>
      </trkpt>
      <trkpt lat="43.80752" lon="7.51424">
        <ele>758.567</ele>
        <time>2020-06-24T08:22:55Z</time>
      </trkpt>
      <trkpt lat="43.80752" lon="7.51424">
        <ele>758.567</ele>
        <time>2020-06-24T08:23:11Z</time>
      </trkpt>
      <trkpt lat="43.80752" lon="7.51424">
        <ele>758.567</ele>
        <time>2020-06-24T08:23:26Z</time>
      </trkpt>
      <trkpt lat="43.80752" lon="7.51427">
        <ele>758.458</ele>
        <time>2020-06-24T08:23:41Z</time>
      </trkpt>
      <trkpt lat="43.80752" lon="7.51427">
        <ele>758.458</ele>
        <time>2020-06-24T08:23:57Z</time>
      </trkpt>
      <trkpt lat="43.80752" lon="7.51427">
        <ele>758.458</ele>
        <time>2020-06-24T08:24:12Z</time>
      </trkpt>
      <trkpt lat="43.80752" lon="7.51427">
        <ele>758.458</ele>
        <time>2020-06-24T08:24:28Z</time>
      </trkpt>
      <trkpt lat="43.80757" lon="7.51431">
        <ele>758.5</ele>
        <time>2020-06-24T08:24:44Z</time>
      </trkpt>
      <trkpt lat="43.80757" lon="7.51431">
        <ele>758.5</ele>
        <time>2020-06-24T08:25:00Z</time>
      </trkpt>
      <trkpt lat="43.80753" lon="7.51428">
        <ele>758.634</ele>
        <time>2020-06-24T08:25:15Z</time>
      </trkpt>
      <trkpt lat="43.80753" lon="7.51428">
        <ele>758.634</ele>
        <time>2020-06-24T08:25:31Z</time>
      </trkpt>
      <trkpt lat="43.80753" lon="7.51428">
        <ele>758.634</ele>
        <time>2020-06-24T08:25:46Z</time>
      </trkpt>
      <trkpt lat="43.80753" lon="7.51428">
        <ele>758.634</ele>
        <time>2020-06-24T08:26:01Z</time>
      </trkpt>
      <trkpt lat="43.80755" lon="7.51427">
        <ele>759.999</ele>
        <time>2020-06-24T08:26:17Z</time>
      </trkpt>
      <trkpt lat="43.80764" lon="7.51417">
        <ele>761.618</ele>
        <time>2020-06-24T08:26:33Z</time>
      </trkpt>
      <trkpt lat="43.80775" lon="7.51412">
        <ele>762.485</ele>
        <time>2020-06-24T08:26:48Z</time>
      </trkpt>
      <trkpt lat="43.80782" lon="7.51409">
        <ele>766.993</ele>
        <time>2020-06-24T08:27:04Z</time>
      </trkpt>
      <trkpt lat="43.80783" lon="7.51408">
        <ele>767.71</ele>
        <time>2020-06-24T08:27:20Z</time>
      </trkpt>
      <trkpt lat="43.80788" lon="7.51408">
        <ele>768.662</ele>
        <time>2020-06-24T08:27:36Z</time>
      </trkpt>
      <trkpt lat="43.8079" lon="7.51415">
        <ele>770.245</ele>
        <time>2020-06-24T08:27:52Z</time>
      </trkpt>
      <trkpt lat="43.80796" lon="7.51425">
        <ele>771.235</ele>
        <time>2020-06-24T08:28:07Z</time>
      </trkpt>
      <trkpt lat="43.80796" lon="7.51437">
        <ele>772.665</ele>
        <time>2020-06-24T08:28:23Z</time>
      </trkpt>
      <trkpt lat="43.80795" lon="7.51451">
        <ele>777.284</ele>
        <time>2020-06-24T08:28:38Z</time>
      </trkpt>
      <trkpt lat="43.80791" lon="7.51466">
        <ele>782.395</ele>
        <time>2020-06-24T08:28:54Z</time>
      </trkpt>
      <trkpt lat="43.80784" lon="7.51478">
        <ele>785.205</ele>
        <time>2020-06-24T08:29:09Z</time>
      </trkpt>
      <trkpt lat="43.80784" lon="7.51478">
        <ele>785.205</ele>
        <time>2020-06-24T08:29:25Z</time>
      </trkpt>
      <trkpt lat="43.80789" lon="7.51483">
        <ele>789.531</ele>
        <time>2020-06-24T08:29:41Z</time>
      </trkpt>
      <trkpt lat="43.80795" lon="7.51488">
        <ele>792.422</ele>
        <time>2020-06-24T08:29:56Z</time>
      </trkpt>
      <trkpt lat="43.80801" lon="7.51488">
        <ele>798.402</ele>
        <time>2020-06-24T08:30:12Z</time>
      </trkpt>
      <trkpt lat="43.80806" lon="7.51487">
        <ele>799.351</ele>
        <time>2020-06-24T08:30:27Z</time>
      </trkpt>
      <trkpt lat="43.80814" lon="7.51489">
        <ele>802.173</ele>
        <time>2020-06-24T08:30:42Z</time>
      </trkpt>
      <trkpt lat="43.80825" lon="7.5149">
        <ele>803.993</ele>
        <time>2020-06-24T08:30:58Z</time>
      </trkpt>
      <trkpt lat="43.80828" lon="7.51491">
        <ele>804.593</ele>
        <time>2020-06-24T08:31:14Z</time>
      </trkpt>
      <trkpt lat="43.80832" lon="7.51494">
        <ele>805.906</ele>
        <time>2020-06-24T08:31:30Z</time>
      </trkpt>
      <trkpt lat="43.80833" lon="7.51499">
        <ele>806.297</ele>
        <time>2020-06-24T08:31:46Z</time>
      </trkpt>
      <trkpt lat="43.8084" lon="7.51504">
        <ele>809.354</ele>
        <time>2020-06-24T08:32:02Z</time>
      </trkpt>
      <trkpt lat="43.80844" lon="7.51504">
        <ele>810.943</ele>
        <time>2020-06-24T08:32:17Z</time>
      </trkpt>
      <trkpt lat="43.80848" lon="7.51502">
        <ele>813.163</ele>
        <time>2020-06-24T08:32:32Z</time>
      </trkpt>
      <trkpt lat="43.80849" lon="7.51502">
        <ele>813.647</ele>
        <time>2020-06-24T08:32:48Z</time>
      </trkpt>
      <trkpt lat="43.80849" lon="7.51502">
        <ele>813.647</ele>
        <time>2020-06-24T08:33:04Z</time>
      </trkpt>
      <trkpt lat="43.80849" lon="7.51502">
        <ele>813.647</ele>
        <time>2020-06-24T08:33:20Z</time>
      </trkpt>
      <trkpt lat="43.80849" lon="7.51502">
        <ele>813.647</ele>
        <time>2020-06-24T08:33:36Z</time>
      </trkpt>
      <trkpt lat="43.80849" lon="7.51502">
        <ele>813.647</ele>
        <time>2020-06-24T08:33:51Z</time>
      </trkpt>
      <trkpt lat="43.80853" lon="7.51504">
        <ele>814.441</ele>
        <time>2020-06-24T08:34:07Z</time>
      </trkpt>
      <trkpt lat="43.80864" lon="7.51505">
        <ele>816.232</ele>
        <time>2020-06-24T08:34:23Z</time>
      </trkpt>
      <trkpt lat="43.80864" lon="7.51505">
        <ele>816.232</ele>
        <time>2020-06-24T08:34:39Z</time>
      </trkpt>
      <trkpt lat="43.80864" lon="7.51505">
        <ele>816.232</ele>
        <time>2020-06-24T08:34:54Z</time>
      </trkpt>
      <trkpt lat="43.80871" lon="7.51511">
        <ele>818.137</ele>
        <time>2020-06-24T08:35:10Z</time>
      </trkpt>
      <trkpt lat="43.80885" lon="7.51512">
        <ele>820.867</ele>
        <time>2020-06-24T08:35:25Z</time>
      </trkpt>
      <trkpt lat="43.80894" lon="7.51515">
        <ele>824.601</ele>
        <time>2020-06-24T08:35:41Z</time>
      </trkpt>
      <trkpt lat="43.80898" lon="7.51515">
        <ele>826.208</ele>
        <time>2020-06-24T08:35:56Z</time>
      </trkpt>
      <trkpt lat="43.80903" lon="7.5151">
        <ele>829.156</ele>
        <time>2020-06-24T08:36:12Z</time>
      </trkpt>
      <trkpt lat="43.80913" lon="7.515">
        <ele>833.313</ele>
        <time>2020-06-24T08:36:27Z</time>
      </trkpt>
      <trkpt lat="43.80927" lon="7.51498">
        <ele>837.814</ele>
        <time>2020-06-24T08:36:42Z</time>
      </trkpt>
      <trkpt lat="43.8093" lon="7.51497">
        <ele>838.564</ele>
        <time>2020-06-24T08:36:58Z</time>
      </trkpt>
      <trkpt lat="43.80932" lon="7.51496">
        <ele>839.41</ele>
        <time>2020-06-24T08:37:14Z</time>
      </trkpt>
      <trkpt lat="43.80944" lon="7.5149">
        <ele>841.431</ele>
        <time>2020-06-24T08:37:30Z</time>
      </trkpt>
      <trkpt lat="43.80951" lon="7.51485">
        <ele>844.099</ele>
        <time>2020-06-24T08:37:46Z</time>
      </trkpt>
      <trkpt lat="43.80958" lon="7.51483">
        <ele>846.103</ele>
        <time>2020-06-24T08:38:02Z</time>
      </trkpt>
      <trkpt lat="43.80958" lon="7.51483">
        <ele>846.103</ele>
        <time>2020-06-24T08:38:18Z</time>
      </trkpt>
      <trkpt lat="43.80962" lon="7.51478">
        <ele>848.414</ele>
        <time>2020-06-24T08:38:34Z</time>
      </trkpt>
      <trkpt lat="43.80962" lon="7.51478">
        <ele>848.414</ele>
        <time>2020-06-24T08:38:50Z</time>
      </trkpt>
      <trkpt lat="43.80962" lon="7.51478">
        <ele>848.414</ele>
        <time>2020-06-24T08:39:06Z</time>
      </trkpt>
      <trkpt lat="43.80962" lon="7.51478">
        <ele>848.414</ele>
        <time>2020-06-24T08:39:22Z</time>
      </trkpt>
      <trkpt lat="43.80976" lon="7.51472">
        <ele>849.194</ele>
        <time>2020-06-24T08:39:38Z</time>
      </trkpt>
      <trkpt lat="43.80986" lon="7.51467">
        <ele>850.427</ele>
        <time>2020-06-24T08:39:53Z</time>
      </trkpt>
      <trkpt lat="43.80989" lon="7.51465">
        <ele>851.643</ele>
        <time>2020-06-24T08:40:09Z</time>
      </trkpt>
      <trkpt lat="43.80989" lon="7.51465">
        <ele>851.643</ele>
        <time>2020-06-24T08:40:25Z</time>
      </trkpt>
      <trkpt lat="43.80999" lon="7.51458">
        <ele>853.858</ele>
        <time>2020-06-24T08:40:41Z</time>
      </trkpt>
      <trkpt lat="43.81009" lon="7.51453">
        <ele>855.43</ele>
        <time>2020-06-24T08:40:57Z</time>
      </trkpt>
      <trkpt lat="43.81021" lon="7.5145">
        <ele>861.815</ele>
        <time>2020-06-24T08:41:13Z</time>
      </trkpt>
      <trkpt lat="43.81023" lon="7.5145">
        <ele>863.93</ele>
        <time>2020-06-24T08:41:28Z</time>
      </trkpt>
      <trkpt lat="43.81025" lon="7.5145">
        <ele>865.766</ele>
        <time>2020-06-24T08:41:44Z</time>
      </trkpt>
      <trkpt lat="43.81025" lon="7.5145">
        <ele>865.766</ele>
        <time>2020-06-24T08:41:59Z</time>
      </trkpt>
      <trkpt lat="43.81025" lon="7.5145">
        <ele>865.766</ele>
        <time>2020-06-24T08:42:15Z</time>
      </trkpt>
      <trkpt lat="43.8103" lon="7.51448">
        <ele>866.681</ele>
        <time>2020-06-24T08:42:31Z</time>
      </trkpt>
      <trkpt lat="43.81035" lon="7.51444">
        <ele>870.618</ele>
        <time>2020-06-24T08:42:46Z</time>
      </trkpt>
      <trkpt lat="43.81037" lon="7.51446">
        <ele>871.286</ele>
        <time>2020-06-24T08:43:02Z</time>
      </trkpt>
      <trkpt lat="43.81039" lon="7.51448">
        <ele>872.967</ele>
        <time>2020-06-24T08:43:18Z</time>
      </trkpt>
      <trkpt lat="43.81047" lon="7.51453">
        <ele>879.384</ele>
        <time>2020-06-24T08:43:33Z</time>
      </trkpt>
      <trkpt lat="43.81047" lon="7.51453">
        <ele>880.22</ele>
        <time>2020-06-24T08:43:49Z</time>
      </trkpt>
      <trkpt lat="43.81047" lon="7.51453">
        <ele>880.22</ele>
        <time>2020-06-24T08:44:04Z</time>
      </trkpt>
      <trkpt lat="43.81047" lon="7.51453">
        <ele>880.22</ele>
        <time>2020-06-24T08:44:19Z</time>
      </trkpt>
      <trkpt lat="43.81062" lon="7.5145">
        <ele>884.907</ele>
        <time>2020-06-24T08:44:35Z</time>
      </trkpt>
      <trkpt lat="43.81064" lon="7.51448">
        <ele>886.266</ele>
        <time>2020-06-24T08:44:50Z</time>
      </trkpt>
      <trkpt lat="43.81067" lon="7.51444">
        <ele>889.169</ele>
        <time>2020-06-24T08:45:05Z</time>
      </trkpt>
      <trkpt lat="43.81073" lon="7.51439">
        <ele>889.947</ele>
        <time>2020-06-24T08:45:21Z</time>
      </trkpt>
      <trkpt lat="43.81079" lon="7.5143">
        <ele>896.277</ele>
        <time>2020-06-24T08:45:37Z</time>
      </trkpt>
      <trkpt lat="43.81084" lon="7.51427">
        <ele>899.906</ele>
        <time>2020-06-24T08:45:52Z</time>
      </trkpt>
      <trkpt lat="43.81086" lon="7.51427">
        <ele>900.088</ele>
        <time>2020-06-24T08:46:07Z</time>
      </trkpt>
      <trkpt lat="43.81086" lon="7.51427">
        <ele>900.088</ele>
        <time>2020-06-24T08:46:23Z</time>
      </trkpt>
      <trkpt lat="43.81091" lon="7.51424">
        <ele>902.101</ele>
        <time>2020-06-24T08:46:38Z</time>
      </trkpt>
      <trkpt lat="43.81099" lon="7.51425">
        <ele>904.495</ele>
        <time>2020-06-24T08:46:53Z</time>
      </trkpt>
      <trkpt lat="43.81104" lon="7.51433">
        <ele>906.23</ele>
        <time>2020-06-24T08:47:09Z</time>
      </trkpt>
      <trkpt lat="43.81106" lon="7.51432">
        <ele>909.278</ele>
        <time>2020-06-24T08:47:24Z</time>
      </trkpt>
      <trkpt lat="43.81106" lon="7.51432">
        <ele>909.278</ele>
        <time>2020-06-24T08:47:40Z</time>
      </trkpt>
      <trkpt lat="43.81106" lon="7.51432">
        <ele>909.278</ele>
        <time>2020-06-24T08:47:56Z</time>
      </trkpt>
      <trkpt lat="43.81106" lon="7.51432">
        <ele>909.278</ele>
        <time>2020-06-24T08:48:11Z</time>
      </trkpt>
      <trkpt lat="43.81106" lon="7.51432">
        <ele>909.278</ele>
        <time>2020-06-24T08:48:27Z</time>
      </trkpt>
      <trkpt lat="43.81106" lon="7.51432">
        <ele>909.278</ele>
        <time>2020-06-24T08:48:43Z</time>
      </trkpt>
      <trkpt lat="43.81106" lon="7.51432">
        <ele>909.278</ele>
        <time>2020-06-24T08:48:59Z</time>
      </trkpt>
      <trkpt lat="43.81106" lon="7.51432">
        <ele>909.278</ele>
        <time>2020-06-24T08:49:14Z</time>
      </trkpt>
      <trkpt lat="43.81106" lon="7.51432">
        <ele>909.278</ele>
        <time>2020-06-24T08:49:30Z</time>
      </trkpt>
      <trkpt lat="43.81106" lon="7.51432">
        <ele>909.278</ele>
        <time>2020-06-24T08:49:46Z</time>
      </trkpt>
      <trkpt lat="43.81106" lon="7.51432">
        <ele>909.278</ele>
        <time>2020-06-24T08:50:02Z</time>
      </trkpt>
      <trkpt lat="43.81106" lon="7.51432">
        <ele>909.278</ele>
        <time>2020-06-24T08:50:17Z</time>
      </trkpt>
      <trkpt lat="43.81106" lon="7.51432">
        <ele>909.278</ele>
        <time>2020-06-24T08:50:33Z</time>
      </trkpt>
      <trkpt lat="43.81106" lon="7.51432">
        <ele>909.278</ele>
        <time>2020-06-24T08:50:48Z</time>
      </trkpt>
      <trkpt lat="43.81106" lon="7.51432">
        <ele>909.278</ele>
        <time>2020-06-24T08:51:03Z</time>
      </trkpt>
      <trkpt lat="43.81111" lon="7.51433">
        <ele>911.939</ele>
        <time>2020-06-24T08:51:19Z</time>
      </trkpt>
      <trkpt lat="43.81111" lon="7.51433">
        <ele>911.939</ele>
        <time>2020-06-24T08:51:34Z</time>
      </trkpt>
      <trkpt lat="43.81117" lon="7.51431">
        <ele>913.134</ele>
        <time>2020-06-24T08:51:49Z</time>
      </trkpt>
      <trkpt lat="43.81126" lon="7.51425">
        <ele>915.707</ele>
        <time>2020-06-24T08:52:05Z</time>
      </trkpt>
      <trkpt lat="43.8113" lon="7.51423">
        <ele>915.997</ele>
        <time>2020-06-24T08:52:21Z</time>
      </trkpt>
      <trkpt lat="43.81138" lon="7.51428">
        <ele>918</ele>
        <time>2020-06-24T08:52:37Z</time>
      </trkpt>
      <trkpt lat="43.81143" lon="7.51439">
        <ele>925.07</ele>
        <time>2020-06-24T08:52:52Z</time>
      </trkpt>
      <trkpt lat="43.81143" lon="7.5144">
        <ele>926.002</ele>
        <time>2020-06-24T08:53:07Z</time>
      </trkpt>
      <trkpt lat="43.81143" lon="7.5144">
        <ele>926.002</ele>
        <time>2020-06-24T08:53:23Z</time>
      </trkpt>
      <trkpt lat="43.81143" lon="7.5144">
        <ele>926.002</ele>
        <time>2020-06-24T08:53:38Z</time>
      </trkpt>
      <trkpt lat="43.81143" lon="7.5144">
        <ele>926.002</ele>
        <time>2020-06-24T08:53:54Z</time>
      </trkpt>
      <trkpt lat="43.81143" lon="7.5144">
        <ele>927.561</ele>
        <time>2020-06-24T08:54:10Z</time>
      </trkpt>
      <trkpt lat="43.81143" lon="7.5144">
        <ele>927.561</ele>
        <time>2020-06-24T08:54:25Z</time>
      </trkpt>
      <trkpt lat="43.81144" lon="7.51446">
        <ele>936.068</ele>
        <time>2020-06-24T08:54:41Z</time>
      </trkpt>
      <trkpt lat="43.81152" lon="7.51443">
        <ele>943.085</ele>
        <time>2020-06-24T08:54:57Z</time>
      </trkpt>
      <trkpt lat="43.81155" lon="7.51438">
        <ele>946.463</ele>
        <time>2020-06-24T08:55:12Z</time>
      </trkpt>
      <trkpt lat="43.81159" lon="7.51431">
        <ele>947.251</ele>
        <time>2020-06-24T08:55:28Z</time>
      </trkpt>
      <trkpt lat="43.8116" lon="7.51436">
        <ele>948.81</ele>
        <time>2020-06-24T08:55:43Z</time>
      </trkpt>
      <trkpt lat="43.81164" lon="7.51437">
        <ele>949.948</ele>
        <time>2020-06-24T08:55:59Z</time>
      </trkpt>
      <trkpt lat="43.81164" lon="7.51437">
        <ele>949.948</ele>
        <time>2020-06-24T08:56:14Z</time>
      </trkpt>
      <trkpt lat="43.81169" lon="7.51437">
        <ele>950.542</ele>
        <time>2020-06-24T08:56:29Z</time>
      </trkpt>
      <trkpt lat="43.81179" lon="7.51442">
        <ele>955.436</ele>
        <time>2020-06-24T08:56:45Z</time>
      </trkpt>
      <trkpt lat="43.81181" lon="7.51441">
        <ele>956.647</ele>
        <time>2020-06-24T08:57:00Z</time>
      </trkpt>
      <trkpt lat="43.8119" lon="7.51433">
        <ele>957.597</ele>
        <time>2020-06-24T08:57:15Z</time>
      </trkpt>
      <trkpt lat="43.8119" lon="7.51433">
        <ele>957.597</ele>
        <time>2020-06-24T08:57:31Z</time>
      </trkpt>
      <trkpt lat="43.81195" lon="7.51424">
        <ele>959.398</ele>
        <time>2020-06-24T08:57:46Z</time>
      </trkpt>
      <trkpt lat="43.81196" lon="7.51425">
        <ele>959.443</ele>
        <time>2020-06-24T08:58:02Z</time>
      </trkpt>
      <trkpt lat="43.81202" lon="7.51426">
        <ele>961.475</ele>
        <time>2020-06-24T08:58:18Z</time>
      </trkpt>
      <trkpt lat="43.81202" lon="7.51426">
        <ele>961.475</ele>
        <time>2020-06-24T08:58:33Z</time>
      </trkpt>
      <trkpt lat="43.81202" lon="7.51426">
        <ele>961.475</ele>
        <time>2020-06-24T08:58:49Z</time>
      </trkpt>
      <trkpt lat="43.81202" lon="7.51426">
        <ele>961.475</ele>
        <time>2020-06-24T08:59:04Z</time>
      </trkpt>
      <trkpt lat="43.81202" lon="7.51426">
        <ele>961.475</ele>
        <time>2020-06-24T08:59:20Z</time>
      </trkpt>
      <trkpt lat="43.81206" lon="7.51425">
        <ele>964.889</ele>
        <time>2020-06-24T08:59:35Z</time>
      </trkpt>
      <trkpt lat="43.8121" lon="7.51421">
        <ele>971.981</ele>
        <time>2020-06-24T08:59:51Z</time>
      </trkpt>
      <trkpt lat="43.81213" lon="7.5142">
        <ele>972.003</ele>
        <time>2020-06-24T09:00:06Z</time>
      </trkpt>
      <trkpt lat="43.81217" lon="7.51423">
        <ele>972.976</ele>
        <time>2020-06-24T09:00:22Z</time>
      </trkpt>
      <trkpt lat="43.81223" lon="7.51418">
        <ele>979.42</ele>
        <time>2020-06-24T09:00:38Z</time>
      </trkpt>
      <trkpt lat="43.81226" lon="7.51417">
        <ele>980.744</ele>
        <time>2020-06-24T09:00:54Z</time>
      </trkpt>
      <trkpt lat="43.8123" lon="7.51412">
        <ele>981.956</ele>
        <time>2020-06-24T09:01:09Z</time>
      </trkpt>
      <trkpt lat="43.81241" lon="7.51406">
        <ele>982.434</ele>
        <time>2020-06-24T09:01:25Z</time>
      </trkpt>
      <trkpt lat="43.81244" lon="7.51399">
        <ele>987.761</ele>
        <time>2020-06-24T09:01:41Z</time>
      </trkpt>
      <trkpt lat="43.81246" lon="7.51393">
        <ele>990.403</ele>
        <time>2020-06-24T09:01:57Z</time>
      </trkpt>
      <trkpt lat="43.81246" lon="7.51393">
        <ele>990.403</ele>
        <time>2020-06-24T09:02:12Z</time>
      </trkpt>
      <trkpt lat="43.81246" lon="7.51393">
        <ele>990.403</ele>
        <time>2020-06-24T09:02:28Z</time>
      </trkpt>
      <trkpt lat="43.81251" lon="7.51388">
        <ele>990.908</ele>
        <time>2020-06-24T09:02:43Z</time>
      </trkpt>
      <trkpt lat="43.81251" lon="7.51388">
        <ele>990.908</ele>
        <time>2020-06-24T09:02:58Z</time>
      </trkpt>
      <trkpt lat="43.81251" lon="7.51389">
        <ele>991.584</ele>
        <time>2020-06-24T09:03:13Z</time>
      </trkpt>
      <trkpt lat="43.81253" lon="7.51394">
        <ele>992.867</ele>
        <time>2020-06-24T09:03:28Z</time>
      </trkpt>
      <trkpt lat="43.81256" lon="7.51397">
        <ele>995.703</ele>
        <time>2020-06-24T09:03:44Z</time>
      </trkpt>
      <trkpt lat="43.81257" lon="7.51398">
        <ele>997.389</ele>
        <time>2020-06-24T09:04:00Z</time>
      </trkpt>
      <trkpt lat="43.81264" lon="7.51405">
        <ele>997.431</ele>
        <time>2020-06-24T09:04:16Z</time>
      </trkpt>
      <trkpt lat="43.81264" lon="7.51406">
        <ele>997.529</ele>
        <time>2020-06-24T09:04:32Z</time>
      </trkpt>
      <trkpt lat="43.81268" lon="7.51414">
        <ele>998.175</ele>
        <time>2020-06-24T09:04:48Z</time>
      </trkpt>
      <trkpt lat="43.81271" lon="7.51422">
        <ele>1002.054</ele>
        <time>2020-06-24T09:05:04Z</time>
      </trkpt>
      <trkpt lat="43.81275" lon="7.51433">
        <ele>1008.932</ele>
        <time>2020-06-24T09:05:20Z</time>
      </trkpt>
      <trkpt lat="43.8128" lon="7.51438">
        <ele>1008.931</ele>
        <time>2020-06-24T09:05:35Z</time>
      </trkpt>
      <trkpt lat="43.81281" lon="7.51439">
        <ele>1009.942</ele>
        <time>2020-06-24T09:05:51Z</time>
      </trkpt>
      <trkpt lat="43.81283" lon="7.51438">
        <ele>1011.059</ele>
        <time>2020-06-24T09:06:06Z</time>
      </trkpt>
      <trkpt lat="43.81284" lon="7.51438">
        <ele>1011.928</ele>
        <time>2020-06-24T09:06:22Z</time>
      </trkpt>
      <trkpt lat="43.81288" lon="7.51436">
        <ele>1013.195</ele>
        <time>2020-06-24T09:06:37Z</time>
      </trkpt>
      <trkpt lat="43.8129" lon="7.51435">
        <ele>1013.692</ele>
        <time>2020-06-24T09:06:52Z</time>
      </trkpt>
      <trkpt lat="43.8129" lon="7.51435">
        <ele>1013.692</ele>
        <time>2020-06-24T09:07:07Z</time>
      </trkpt>
      <trkpt lat="43.81296" lon="7.51434">
        <ele>1013.933</ele>
        <time>2020-06-24T09:07:23Z</time>
      </trkpt>
      <trkpt lat="43.81303" lon="7.51434">
        <ele>1014.039</ele>
        <time>2020-06-24T09:07:39Z</time>
      </trkpt>
      <trkpt lat="43.8131" lon="7.51429">
        <ele>1015.66</ele>
        <time>2020-06-24T09:07:54Z</time>
      </trkpt>
      <trkpt lat="43.8131" lon="7.51429">
        <ele>1015.66</ele>
        <time>2020-06-24T09:08:10Z</time>
      </trkpt>
      <trkpt lat="43.8131" lon="7.51429">
        <ele>1015.66</ele>
        <time>2020-06-24T09:08:25Z</time>
      </trkpt>
      <trkpt lat="43.8131" lon="7.51429">
        <ele>1015.66</ele>
        <time>2020-06-24T09:08:41Z</time>
      </trkpt>
      <trkpt lat="43.81315" lon="7.51428">
        <ele>1015.107</ele>
        <time>2020-06-24T09:08:56Z</time>
      </trkpt>
      <trkpt lat="43.8132" lon="7.51432">
        <ele>1022.899</ele>
        <time>2020-06-24T09:09:11Z</time>
      </trkpt>
      <trkpt lat="43.81323" lon="7.5143">
        <ele>1028.627</ele>
        <time>2020-06-24T09:09:26Z</time>
      </trkpt>
      <trkpt lat="43.81325" lon="7.51426">
        <ele>1031.24</ele>
        <time>2020-06-24T09:09:42Z</time>
      </trkpt>
      <trkpt lat="43.81329" lon="7.51424">
        <ele>1032.673</ele>
        <time>2020-06-24T09:09:58Z</time>
      </trkpt>
      <trkpt lat="43.81333" lon="7.5142">
        <ele>1036.894</ele>
        <time>2020-06-24T09:10:14Z</time>
      </trkpt>
      <trkpt lat="43.81333" lon="7.5142">
        <ele>1036.894</ele>
        <time>2020-06-24T09:10:29Z</time>
      </trkpt>
      <trkpt lat="43.81339" lon="7.51417">
        <ele>1037.782</ele>
        <time>2020-06-24T09:10:45Z</time>
      </trkpt>
      <trkpt lat="43.81353" lon="7.51409">
        <ele>1041.167</ele>
        <time>2020-06-24T09:11:01Z</time>
      </trkpt>
      <trkpt lat="43.81353" lon="7.51409">
        <ele>1041.167</ele>
        <time>2020-06-24T09:11:16Z</time>
      </trkpt>
      <trkpt lat="43.81353" lon="7.51409">
        <ele>1041.167</ele>
        <time>2020-06-24T09:11:31Z</time>
      </trkpt>
      <trkpt lat="43.81353" lon="7.51409">
        <ele>1041.167</ele>
        <time>2020-06-24T09:11:47Z</time>
      </trkpt>
      <trkpt lat="43.81356" lon="7.51404">
        <ele>1041.995</ele>
        <time>2020-06-24T09:12:03Z</time>
      </trkpt>
      <trkpt lat="43.81363" lon="7.5139">
        <ele>1050.891</ele>
        <time>2020-06-24T09:12:19Z</time>
      </trkpt>
      <trkpt lat="43.81369" lon="7.51387">
        <ele>1052.54</ele>
        <time>2020-06-24T09:12:35Z</time>
      </trkpt>
      <trkpt lat="43.81369" lon="7.51387">
        <ele>1052.54</ele>
        <time>2020-06-24T09:12:50Z</time>
      </trkpt>
      <trkpt lat="43.81373" lon="7.51382">
        <ele>1053.203</ele>
        <time>2020-06-24T09:13:06Z</time>
      </trkpt>
      <trkpt lat="43.81377" lon="7.51358">
        <ele>1056.925</ele>
        <time>2020-06-24T09:13:22Z</time>
      </trkpt>
      <trkpt lat="43.81372" lon="7.51329">
        <ele>1067.562</ele>
        <time>2020-06-24T09:13:38Z</time>
      </trkpt>
      <trkpt lat="43.81372" lon="7.51315">
        <ele>1073.527</ele>
        <time>2020-06-24T09:13:53Z</time>
      </trkpt>
      <trkpt lat="43.81375" lon="7.51307">
        <ele>1075.426</ele>
        <time>2020-06-24T09:14:09Z</time>
      </trkpt>
      <trkpt lat="43.81369" lon="7.51289">
        <ele>1084.551</ele>
        <time>2020-06-24T09:14:25Z</time>
      </trkpt>
      <trkpt lat="43.81366" lon="7.51277">
        <ele>1090.611</ele>
        <time>2020-06-24T09:14:40Z</time>
      </trkpt>
      <trkpt lat="43.81366" lon="7.51277">
        <ele>1090.611</ele>
        <time>2020-06-24T09:14:55Z</time>
      </trkpt>
      <trkpt lat="43.81365" lon="7.51275">
        <ele>1093.143</ele>
        <time>2020-06-24T09:15:11Z</time>
      </trkpt>
      <trkpt lat="43.81368" lon="7.51268">
        <ele>1091.705</ele>
        <time>2020-06-24T09:15:26Z</time>
      </trkpt>
      <trkpt lat="43.8138" lon="7.51263">
        <ele>1090.02</ele>
        <time>2020-06-24T09:15:42Z</time>
      </trkpt>
      <trkpt lat="43.81386" lon="7.51257">
        <ele>1090.56</ele>
        <time>2020-06-24T09:15:57Z</time>
      </trkpt>
      <trkpt lat="43.81389" lon="7.51255">
        <ele>1091.338</ele>
        <time>2020-06-24T09:16:13Z</time>
      </trkpt>
      <trkpt lat="43.81387" lon="7.51254">
        <ele>1094.817</ele>
        <time>2020-06-24T09:16:29Z</time>
      </trkpt>
      <trkpt lat="43.81387" lon="7.51254">
        <ele>1094.817</ele>
        <time>2020-06-24T09:16:45Z</time>
      </trkpt>
      <trkpt lat="43.81387" lon="7.51254">
        <ele>1094.817</ele>
        <time>2020-06-24T09:17:00Z</time>
      </trkpt>
      <trkpt lat="43.81389" lon="7.51254">
        <ele>1095.853</ele>
        <time>2020-06-24T09:17:15Z</time>
      </trkpt>
      <trkpt lat="43.81393" lon="7.51253">
        <ele>1097.171</ele>
        <time>2020-06-24T09:17:31Z</time>
      </trkpt>
      <trkpt lat="43.81403" lon="7.51255">
        <ele>1100.399</ele>
        <time>2020-06-24T09:17:46Z</time>
      </trkpt>
      <trkpt lat="43.81408" lon="7.5126">
        <ele>1107.462</ele>
        <time>2020-06-24T09:18:02Z</time>
      </trkpt>
      <trkpt lat="43.81417" lon="7.5126">
        <ele>1108.696</ele>
        <time>2020-06-24T09:18:17Z</time>
      </trkpt>
      <trkpt lat="43.81419" lon="7.51261">
        <ele>1109.279</ele>
        <time>2020-06-24T09:18:33Z</time>
      </trkpt>
      <trkpt lat="43.81428" lon="7.51263">
        <ele>1110.736</ele>
        <time>2020-06-24T09:18:48Z</time>
      </trkpt>
      <trkpt lat="43.81428" lon="7.51263">
        <ele>1110.736</ele>
        <time>2020-06-24T09:19:04Z</time>
      </trkpt>
      <trkpt lat="43.81433" lon="7.51263">
        <ele>1111.562</ele>
        <time>2020-06-24T09:19:20Z</time>
      </trkpt>
      <trkpt lat="43.81433" lon="7.51263">
        <ele>1111.562</ele>
        <time>2020-06-24T09:19:35Z</time>
      </trkpt>
      <trkpt lat="43.81437" lon="7.51263">
        <ele>1111.833</ele>
        <time>2020-06-24T09:19:50Z</time>
      </trkpt>
      <trkpt lat="43.81438" lon="7.51263">
        <ele>1111.893</ele>
        <time>2020-06-24T09:20:05Z</time>
      </trkpt>
      <trkpt lat="43.81451" lon="7.51261">
        <ele>1114.116</ele>
        <time>2020-06-24T09:20:21Z</time>
      </trkpt>
      <trkpt lat="43.81464" lon="7.51278">
        <ele>1118.705</ele>
        <time>2020-06-24T09:20:36Z</time>
      </trkpt>
      <trkpt lat="43.81477" lon="7.51295">
        <ele>1122.074</ele>
        <time>2020-06-24T09:20:52Z</time>
      </trkpt>
      <trkpt lat="43.81477" lon="7.51299">
        <ele>1122.918</ele>
        <time>2020-06-24T09:21:08Z</time>
      </trkpt>
      <trkpt lat="43.81477" lon="7.51299">
        <ele>1122.918</ele>
        <time>2020-06-24T09:21:24Z</time>
      </trkpt>
      <trkpt lat="43.81478" lon="7.51298">
        <ele>1123.015</ele>
        <time>2020-06-24T09:21:39Z</time>
      </trkpt>
      <trkpt lat="43.81478" lon="7.51298">
        <ele>1123.015</ele>
        <time>2020-06-24T09:21:55Z</time>
      </trkpt>
      <trkpt lat="43.81478" lon="7.51298">
        <ele>1123.015</ele>
        <time>2020-06-24T09:22:10Z</time>
      </trkpt>
      <trkpt lat="43.81478" lon="7.51298">
        <ele>1123.015</ele>
        <time>2020-06-24T09:22:26Z</time>
      </trkpt>
      <trkpt lat="43.81478" lon="7.51298">
        <ele>1123.015</ele>
        <time>2020-06-24T09:22:41Z</time>
      </trkpt>
      <trkpt lat="43.81478" lon="7.51298">
        <ele>1123.015</ele>
        <time>2020-06-24T09:22:57Z</time>
      </trkpt>
      <trkpt lat="43.81478" lon="7.51298">
        <ele>1123.015</ele>
        <time>2020-06-24T09:23:13Z</time>
      </trkpt>
      <trkpt lat="43.81478" lon="7.51298">
        <ele>1123.015</ele>
        <time>2020-06-24T09:23:29Z</time>
      </trkpt>
      <trkpt lat="43.81478" lon="7.51298">
        <ele>1123.015</ele>
        <time>2020-06-24T09:23:44Z</time>
      </trkpt>
      <trkpt lat="43.81479" lon="7.51297">
        <ele>1123.459</ele>
        <time>2020-06-24T09:24:00Z</time>
      </trkpt>
      <trkpt lat="43.81479" lon="7.51297">
        <ele>1123.459</ele>
        <time>2020-06-24T09:24:15Z</time>
      </trkpt>
      <trkpt lat="43.81481" lon="7.51297">
        <ele>1122.794</ele>
        <time>2020-06-24T09:24:31Z</time>
      </trkpt>
      <trkpt lat="43.81492" lon="7.5129">
        <ele>1124.586</ele>
        <time>2020-06-24T09:24:47Z</time>
      </trkpt>
      <trkpt lat="43.81501" lon="7.5129">
        <ele>1124.78</ele>
        <time>2020-06-24T09:25:02Z</time>
      </trkpt>
      <trkpt lat="43.81501" lon="7.5129">
        <ele>1124.78</ele>
        <time>2020-06-24T09:25:17Z</time>
      </trkpt>
      <trkpt lat="43.81501" lon="7.5129">
        <ele>1124.78</ele>
        <time>2020-06-24T09:25:33Z</time>
      </trkpt>
      <trkpt lat="43.81501" lon="7.5129">
        <ele>1124.78</ele>
        <time>2020-06-24T09:25:49Z</time>
      </trkpt>
      <trkpt lat="43.81501" lon="7.5129">
        <ele>1124.78</ele>
        <time>2020-06-24T09:26:05Z</time>
      </trkpt>
      <trkpt lat="43.81501" lon="7.5129">
        <ele>1124.78</ele>
        <time>2020-06-24T09:26:21Z</time>
      </trkpt>
      <trkpt lat="43.81501" lon="7.5129">
        <ele>1124.78</ele>
        <time>2020-06-24T09:26:37Z</time>
      </trkpt>
      <trkpt lat="43.81501" lon="7.5129">
        <ele>1124.78</ele>
        <time>2020-06-24T09:26:53Z</time>
      </trkpt>
      <trkpt lat="43.81502" lon="7.51292">
        <ele>1124.774</ele>
        <time>2020-06-24T09:27:09Z</time>
      </trkpt>
      <trkpt lat="43.81502" lon="7.51292">
        <ele>1124.774</ele>
        <time>2020-06-24T09:27:25Z</time>
      </trkpt>
      <trkpt lat="43.81502" lon="7.51292">
        <ele>1124.774</ele>
        <time>2020-06-24T09:27:41Z</time>
      </trkpt>
      <trkpt lat="43.81502" lon="7.51292">
        <ele>1124.774</ele>
        <time>2020-06-24T09:27:56Z</time>
      </trkpt>
      <trkpt lat="43.81501" lon="7.51293">
        <ele>1124.988</ele>
        <time>2020-06-24T09:28:12Z</time>
      </trkpt>
      <trkpt lat="43.81501" lon="7.51293">
        <ele>1124.988</ele>
        <time>2020-06-24T09:28:28Z</time>
      </trkpt>
      <trkpt lat="43.81501" lon="7.51293">
        <ele>1124.988</ele>
        <time>2020-06-24T09:28:44Z</time>
      </trkpt>
      <trkpt lat="43.81501" lon="7.51293">
        <ele>1124.988</ele>
        <time>2020-06-24T09:28:59Z</time>
      </trkpt>
      <trkpt lat="43.81501" lon="7.51293">
        <ele>1124.988</ele>
        <time>2020-06-24T09:29:14Z</time>
      </trkpt>
      <trkpt lat="43.81501" lon="7.51293">
        <ele>1124.988</ele>
        <time>2020-06-24T09:29:30Z</time>
      </trkpt>
      <trkpt lat="43.81501" lon="7.51293">
        <ele>1124.988</ele>
        <time>2020-06-24T09:29:45Z</time>
      </trkpt>
      <trkpt lat="43.81498" lon="7.51296">
        <ele>1124.998</ele>
        <time>2020-06-24T09:30:00Z</time>
      </trkpt>
      <trkpt lat="43.81491" lon="7.51294">
        <ele>1128.24</ele>
        <time>2020-06-24T09:30:16Z</time>
      </trkpt>
      <trkpt lat="43.81491" lon="7.51294">
        <ele>1128.24</ele>
        <time>2020-06-24T09:30:32Z</time>
      </trkpt>
      <trkpt lat="43.81491" lon="7.51294">
        <ele>1128.24</ele>
        <time>2020-06-24T09:30:48Z</time>
      </trkpt>
      <trkpt lat="43.81491" lon="7.51294">
        <ele>1128.24</ele>
        <time>2020-06-24T09:31:03Z</time>
      </trkpt>
      <trkpt lat="43.81486" lon="7.51302">
        <ele>1134.129</ele>
        <time>2020-06-24T09:31:18Z</time>
      </trkpt>
      <trkpt lat="43.81484" lon="7.51301">
        <ele>1132.77</ele>
        <time>2020-06-24T09:31:34Z</time>
      </trkpt>
      <trkpt lat="43.81484" lon="7.51301">
        <ele>1132.77</ele>
        <time>2020-06-24T09:31:50Z</time>
      </trkpt>
      <trkpt lat="43.81484" lon="7.51301">
        <ele>1132.77</ele>
        <time>2020-06-24T09:32:05Z</time>
      </trkpt>
      <trkpt lat="43.81484" lon="7.51301">
        <ele>1132.77</ele>
        <time>2020-06-24T09:32:21Z</time>
      </trkpt>
      <trkpt lat="43.81484" lon="7.51301">
        <ele>1132.77</ele>
        <time>2020-06-24T09:32:36Z</time>
      </trkpt>
      <trkpt lat="43.81484" lon="7.51301">
        <ele>1132.77</ele>
        <time>2020-06-24T09:32:52Z</time>
      </trkpt>
      <trkpt lat="43.81484" lon="7.51301">
        <ele>1132.77</ele>
        <time>2020-06-24T09:33:07Z</time>
      </trkpt>
      <trkpt lat="43.81484" lon="7.51301">
        <ele>1132.77</ele>
        <time>2020-06-24T09:33:23Z</time>
      </trkpt>
      <trkpt lat="43.81485" lon="7.51302">
        <ele>1131.658</ele>
        <time>2020-06-24T09:33:38Z</time>
      </trkpt>
      <trkpt lat="43.81497" lon="7.51299">
        <ele>1133.326</ele>
        <time>2020-06-24T09:33:53Z</time>
      </trkpt>
      <trkpt lat="43.815" lon="7.51297">
        <ele>1132.499</ele>
        <time>2020-06-24T09:34:09Z</time>
      </trkpt>
      <trkpt lat="43.815" lon="7.51297">
        <ele>1132.499</ele>
        <time>2020-06-24T09:34:24Z</time>
      </trkpt>
      <trkpt lat="43.815" lon="7.51297">
        <ele>1132.499</ele>
        <time>2020-06-24T09:34:40Z</time>
      </trkpt>
      <trkpt lat="43.815" lon="7.51297">
        <ele>1132.499</ele>
        <time>2020-06-24T09:34:55Z</time>
      </trkpt>
      <trkpt lat="43.815" lon="7.51297">
        <ele>1132.499</ele>
        <time>2020-06-24T09:35:10Z</time>
      </trkpt>
      <trkpt lat="43.815" lon="7.51297">
        <ele>1132.499</ele>
        <time>2020-06-24T09:35:25Z</time>
      </trkpt>
      <trkpt lat="43.815" lon="7.51297">
        <ele>1132.499</ele>
        <time>2020-06-24T09:35:41Z</time>
      </trkpt>
      <trkpt lat="43.815" lon="7.51297">
        <ele>1132.499</ele>
        <time>2020-06-24T09:35:57Z</time>
      </trkpt>
      <trkpt lat="43.815" lon="7.51297">
        <ele>1132.499</ele>
        <time>2020-06-24T09:36:13Z</time>
      </trkpt>
      <trkpt lat="43.815" lon="7.51297">
        <ele>1132.499</ele>
        <time>2020-06-24T09:36:28Z</time>
      </trkpt>
      <trkpt lat="43.815" lon="7.51297">
        <ele>1132.499</ele>
        <time>2020-06-24T09:36:44Z</time>
      </trkpt>
      <trkpt lat="43.815" lon="7.51297">
        <ele>1132.499</ele>
        <time>2020-06-24T09:36:59Z</time>
      </trkpt>
      <trkpt lat="43.815" lon="7.51297">
        <ele>1132.499</ele>
        <time>2020-06-24T09:37:15Z</time>
      </trkpt>
      <trkpt lat="43.815" lon="7.51297">
        <ele>1132.499</ele>
        <time>2020-06-24T09:37:31Z</time>
      </trkpt>
      <trkpt lat="43.815" lon="7.51297">
        <ele>1132.499</ele>
        <time>2020-06-24T09:37:47Z</time>
      </trkpt>
      <trkpt lat="43.815" lon="7.51297">
        <ele>1132.499</ele>
        <time>2020-06-24T09:38:03Z</time>
      </trkpt>
      <trkpt lat="43.815" lon="7.51297">
        <ele>1132.499</ele>
        <time>2020-06-24T09:38:19Z</time>
      </trkpt>
      <trkpt lat="43.815" lon="7.51297">
        <ele>1132.499</ele>
        <time>2020-06-24T09:38:34Z</time>
      </trkpt>
      <trkpt lat="43.815" lon="7.51297">
        <ele>1132.499</ele>
        <time>2020-06-24T09:38:50Z</time>
      </trkpt>
      <trkpt lat="43.815" lon="7.51297">
        <ele>1132.499</ele>
        <time>2020-06-24T09:39:05Z</time>
      </trkpt>
      <trkpt lat="43.815" lon="7.51297">
        <ele>1132.499</ele>
        <time>2020-06-24T09:39:21Z</time>
      </trkpt>
      <trkpt lat="43.815" lon="7.51297">
        <ele>1132.499</ele>
        <time>2020-06-24T09:39:37Z</time>
      </trkpt>
      <trkpt lat="43.815" lon="7.51297">
        <ele>1132.499</ele>
        <time>2020-06-24T09:39:52Z</time>
      </trkpt>
      <trkpt lat="43.815" lon="7.51297">
        <ele>1132.499</ele>
        <time>2020-06-24T09:40:08Z</time>
      </trkpt>
      <trkpt lat="43.815" lon="7.51297">
        <ele>1132.499</ele>
        <time>2020-06-24T09:40:24Z</time>
      </trkpt>
      <trkpt lat="43.815" lon="7.51297">
        <ele>1132.499</ele>
        <time>2020-06-24T09:40:39Z</time>
      </trkpt>
      <trkpt lat="43.815" lon="7.51297">
        <ele>1132.499</ele>
        <time>2020-06-24T09:40:55Z</time>
      </trkpt>
      <trkpt lat="43.815" lon="7.51297">
        <ele>1132.499</ele>
        <time>2020-06-24T09:41:10Z</time>
      </trkpt>
      <trkpt lat="43.815" lon="7.51297">
        <ele>1132.499</ele>
        <time>2020-06-24T09:41:25Z</time>
      </trkpt>
      <trkpt lat="43.815" lon="7.51297">
        <ele>1132.499</ele>
        <time>2020-06-24T09:41:41Z</time>
      </trkpt>
      <trkpt lat="43.815" lon="7.51297">
        <ele>1132.499</ele>
        <time>2020-06-24T09:41:56Z</time>
      </trkpt>
      <trkpt lat="43.815" lon="7.51297">
        <ele>1132.499</ele>
        <time>2020-06-24T09:42:12Z</time>
      </trkpt>
      <trkpt lat="43.815" lon="7.51297">
        <ele>1132.499</ele>
        <time>2020-06-24T09:42:28Z</time>
      </trkpt>
      <trkpt lat="43.815" lon="7.51297">
        <ele>1132.499</ele>
        <time>2020-06-24T09:42:43Z</time>
      </trkpt>
      <trkpt lat="43.815" lon="7.51297">
        <ele>1132.499</ele>
        <time>2020-06-24T09:42:59Z</time>
      </trkpt>
      <trkpt lat="43.815" lon="7.51297">
        <ele>1132.499</ele>
        <time>2020-06-24T09:43:14Z</time>
      </trkpt>
      <trkpt lat="43.815" lon="7.51297">
        <ele>1132.499</ele>
        <time>2020-06-24T09:43:29Z</time>
      </trkpt>
      <trkpt lat="43.815" lon="7.51297">
        <ele>1132.499</ele>
        <time>2020-06-24T09:43:44Z</time>
      </trkpt>
      <trkpt lat="43.815" lon="7.51297">
        <ele>1132.499</ele>
        <time>2020-06-24T09:44:00Z</time>
      </trkpt>
      <trkpt lat="43.815" lon="7.51297">
        <ele>1132.499</ele>
        <time>2020-06-24T09:44:15Z</time>
      </trkpt>
      <trkpt lat="43.815" lon="7.51296">
        <ele>1132.532</ele>
        <time>2020-06-24T09:44:31Z</time>
      </trkpt>
      <trkpt lat="43.81499" lon="7.51298">
        <ele>1133.285</ele>
        <time>2020-06-24T09:44:47Z</time>
      </trkpt>
      <trkpt lat="43.81499" lon="7.51298">
        <ele>1133.285</ele>
        <time>2020-06-24T09:45:02Z</time>
      </trkpt>
      <trkpt lat="43.81499" lon="7.51298">
        <ele>1133.285</ele>
        <time>2020-06-24T09:45:17Z</time>
      </trkpt>
      <trkpt lat="43.81499" lon="7.51298">
        <ele>1133.285</ele>
        <time>2020-06-24T09:45:33Z</time>
      </trkpt>
      <trkpt lat="43.81499" lon="7.51298">
        <ele>1133.285</ele>
        <time>2020-06-24T09:45:49Z</time>
      </trkpt>
      <trkpt lat="43.81499" lon="7.51298">
        <ele>1133.285</ele>
        <time>2020-06-24T09:46:04Z</time>
      </trkpt>
      <trkpt lat="43.81499" lon="7.51298">
        <ele>1133.285</ele>
        <time>2020-06-24T09:46:20Z</time>
      </trkpt>
      <trkpt lat="43.81499" lon="7.51298">
        <ele>1133.285</ele>
        <time>2020-06-24T09:46:35Z</time>
      </trkpt>
      <trkpt lat="43.81499" lon="7.51298">
        <ele>1133.285</ele>
        <time>2020-06-24T09:46:50Z</time>
      </trkpt>
      <trkpt lat="43.81499" lon="7.51298">
        <ele>1133.285</ele>
        <time>2020-06-24T09:47:05Z</time>
      </trkpt>
      <trkpt lat="43.81499" lon="7.51298">
        <ele>1133.285</ele>
        <time>2020-06-24T09:47:20Z</time>
      </trkpt>
      <trkpt lat="43.81499" lon="7.51298">
        <ele>1133.285</ele>
        <time>2020-06-24T09:47:36Z</time>
      </trkpt>
      <trkpt lat="43.81499" lon="7.51298">
        <ele>1133.285</ele>
        <time>2020-06-24T09:47:52Z</time>
      </trkpt>
      <trkpt lat="43.81499" lon="7.51298">
        <ele>1133.285</ele>
        <time>2020-06-24T09:48:07Z</time>
      </trkpt>
      <trkpt lat="43.81499" lon="7.51298">
        <ele>1133.285</ele>
        <time>2020-06-24T09:48:23Z</time>
      </trkpt>
      <trkpt lat="43.81499" lon="7.51298">
        <ele>1133.285</ele>
        <time>2020-06-24T09:48:38Z</time>
      </trkpt>
      <trkpt lat="43.815" lon="7.51299">
        <ele>1135.839</ele>
        <time>2020-06-24T09:48:53Z</time>
      </trkpt>
      <trkpt lat="43.81501" lon="7.513">
        <ele>1136.781</ele>
        <time>2020-06-24T09:49:09Z</time>
      </trkpt>
      <trkpt lat="43.81501" lon="7.513">
        <ele>1136.781</ele>
        <time>2020-06-24T09:49:24Z</time>
      </trkpt>
      <trkpt lat="43.815" lon="7.51301">
        <ele>1137.403</ele>
        <time>2020-06-24T09:49:39Z</time>
      </trkpt>
      <trkpt lat="43.815" lon="7.51301">
        <ele>1137.403</ele>
        <time>2020-06-24T09:49:55Z</time>
      </trkpt>
      <trkpt lat="43.815" lon="7.51301">
        <ele>1137.403</ele>
        <time>2020-06-24T09:50:10Z</time>
      </trkpt>
      <trkpt lat="43.815" lon="7.51301">
        <ele>1137.403</ele>
        <time>2020-06-24T09:50:26Z</time>
      </trkpt>
      <trkpt lat="43.815" lon="7.51301">
        <ele>1137.403</ele>
        <time>2020-06-24T09:50:41Z</time>
      </trkpt>
      <trkpt lat="43.815" lon="7.51301">
        <ele>1137.403</ele>
        <time>2020-06-24T09:50:56Z</time>
      </trkpt>
      <trkpt lat="43.815" lon="7.51301">
        <ele>1137.403</ele>
        <time>2020-06-24T09:51:12Z</time>
      </trkpt>
      <trkpt lat="43.815" lon="7.51301">
        <ele>1137.403</ele>
        <time>2020-06-24T09:51:27Z</time>
      </trkpt>
      <trkpt lat="43.815" lon="7.51301">
        <ele>1137.403</ele>
        <time>2020-06-24T09:51:43Z</time>
      </trkpt>
      <trkpt lat="43.815" lon="7.51301">
        <ele>1137.403</ele>
        <time>2020-06-24T09:51:59Z</time>
      </trkpt>
      <trkpt lat="43.81504" lon="7.513">
        <ele>1137.438</ele>
        <time>2020-06-24T09:52:15Z</time>
      </trkpt>
      <trkpt lat="43.81499" lon="7.51296">
        <ele>1138.728</ele>
        <time>2020-06-24T09:52:30Z</time>
      </trkpt>
      <trkpt lat="43.81499" lon="7.51296">
        <ele>1138.728</ele>
        <time>2020-06-24T09:52:45Z</time>
      </trkpt>
      <trkpt lat="43.81499" lon="7.51296">
        <ele>1138.728</ele>
        <time>2020-06-24T09:53:01Z</time>
      </trkpt>
      <trkpt lat="43.81499" lon="7.51296">
        <ele>1138.728</ele>
        <time>2020-06-24T09:53:17Z</time>
      </trkpt>
      <trkpt lat="43.81499" lon="7.51301">
        <ele>1138.005</ele>
        <time>2020-06-24T09:53:33Z</time>
      </trkpt>
      <trkpt lat="43.81503" lon="7.51318">
        <ele>1136.137</ele>
        <time>2020-06-24T09:53:48Z</time>
      </trkpt>
      <trkpt lat="43.81504" lon="7.51324">
        <ele>1136.904</ele>
        <time>2020-06-24T09:54:03Z</time>
      </trkpt>
      <trkpt lat="43.81503" lon="7.51324">
        <ele>1136.956</ele>
        <time>2020-06-24T09:54:19Z</time>
      </trkpt>
      <trkpt lat="43.81501" lon="7.51331">
        <ele>1137.496</ele>
        <time>2020-06-24T09:54:34Z</time>
      </trkpt>
      <trkpt lat="43.815" lon="7.51342">
        <ele>1140.04</ele>
        <time>2020-06-24T09:54:49Z</time>
      </trkpt>
      <trkpt lat="43.815" lon="7.51342">
        <ele>1140.04</ele>
        <time>2020-06-24T09:55:05Z</time>
      </trkpt>
      <trkpt lat="43.815" lon="7.51342">
        <ele>1140.04</ele>
        <time>2020-06-24T09:55:20Z</time>
      </trkpt>
      <trkpt lat="43.81501" lon="7.51353">
        <ele>1141.694</ele>
        <time>2020-06-24T09:55:36Z</time>
      </trkpt>
      <trkpt lat="43.81497" lon="7.51368">
        <ele>1149.056</ele>
        <time>2020-06-24T09:55:51Z</time>
      </trkpt>
      <trkpt lat="43.81504" lon="7.51373">
        <ele>1151.611</ele>
        <time>2020-06-24T09:56:06Z</time>
      </trkpt>
      <trkpt lat="43.81501" lon="7.51382">
        <ele>1154.408</ele>
        <time>2020-06-24T09:56:21Z</time>
      </trkpt>
      <trkpt lat="43.81498" lon="7.51392">
        <ele>1157.467</ele>
        <time>2020-06-24T09:56:37Z</time>
      </trkpt>
      <trkpt lat="43.81495" lon="7.51404">
        <ele>1161.206</ele>
        <time>2020-06-24T09:56:53Z</time>
      </trkpt>
      <trkpt lat="43.81491" lon="7.51419">
        <ele>1165.115</ele>
        <time>2020-06-24T09:57:09Z</time>
      </trkpt>
      <trkpt lat="43.81485" lon="7.51432">
        <ele>1169.373</ele>
        <time>2020-06-24T09:57:25Z</time>
      </trkpt>
      <trkpt lat="43.81489" lon="7.51433">
        <ele>1170.313</ele>
        <time>2020-06-24T09:57:40Z</time>
      </trkpt>
      <trkpt lat="43.81497" lon="7.51437">
        <ele>1172.219</ele>
        <time>2020-06-24T09:57:55Z</time>
      </trkpt>
      <trkpt lat="43.81495" lon="7.51449">
        <ele>1175.672</ele>
        <time>2020-06-24T09:58:11Z</time>
      </trkpt>
      <trkpt lat="43.81494" lon="7.51457">
        <ele>1177.678</ele>
        <time>2020-06-24T09:58:26Z</time>
      </trkpt>
      <trkpt lat="43.81493" lon="7.51467">
        <ele>1178.89</ele>
        <time>2020-06-24T09:58:41Z</time>
      </trkpt>
      <trkpt lat="43.81493" lon="7.51467">
        <ele>1178.89</ele>
        <time>2020-06-24T09:58:57Z</time>
      </trkpt>
      <trkpt lat="43.81496" lon="7.51468">
        <ele>1179.942</ele>
        <time>2020-06-24T09:59:13Z</time>
      </trkpt>
      <trkpt lat="43.81499" lon="7.51475">
        <ele>1182.198</ele>
        <time>2020-06-24T09:59:29Z</time>
      </trkpt>
      <trkpt lat="43.815" lon="7.51472">
        <ele>1182.973</ele>
        <time>2020-06-24T09:59:44Z</time>
      </trkpt>
      <trkpt lat="43.81511" lon="7.5147">
        <ele>1184.575</ele>
        <time>2020-06-24T10:00:00Z</time>
      </trkpt>
      <trkpt lat="43.81511" lon="7.51466">
        <ele>1186.837</ele>
        <time>2020-06-24T10:00:16Z</time>
      </trkpt>
      <trkpt lat="43.81511" lon="7.51465">
        <ele>1188.065</ele>
        <time>2020-06-24T10:00:32Z</time>
      </trkpt>
      <trkpt lat="43.81511" lon="7.51465">
        <ele>1188.065</ele>
        <time>2020-06-24T10:00:47Z</time>
      </trkpt>
      <trkpt lat="43.81509" lon="7.51465">
        <ele>1189.955</ele>
        <time>2020-06-24T10:01:03Z</time>
      </trkpt>
      <trkpt lat="43.8151" lon="7.51464">
        <ele>1190.107</ele>
        <time>2020-06-24T10:01:19Z</time>
      </trkpt>
      <trkpt lat="43.81511" lon="7.51464">
        <ele>1191.263</ele>
        <time>2020-06-24T10:01:34Z</time>
      </trkpt>
      <trkpt lat="43.81511" lon="7.51466">
        <ele>1191.739</ele>
        <time>2020-06-24T10:01:50Z</time>
      </trkpt>
      <trkpt lat="43.8151" lon="7.51465">
        <ele>1191.717</ele>
        <time>2020-06-24T10:02:06Z</time>
      </trkpt>
      <trkpt lat="43.8151" lon="7.51465">
        <ele>1191.717</ele>
        <time>2020-06-24T10:02:22Z</time>
      </trkpt>
      <trkpt lat="43.8151" lon="7.51465">
        <ele>1191.717</ele>
        <time>2020-06-24T10:02:37Z</time>
      </trkpt>
      <trkpt lat="43.8151" lon="7.51465">
        <ele>1191.717</ele>
        <time>2020-06-24T10:02:52Z</time>
      </trkpt>
      <trkpt lat="43.8151" lon="7.51465">
        <ele>1191.717</ele>
        <time>2020-06-24T10:03:08Z</time>
      </trkpt>
      <trkpt lat="43.8151" lon="7.51465">
        <ele>1191.717</ele>
        <time>2020-06-24T10:03:24Z</time>
      </trkpt>
      <trkpt lat="43.8151" lon="7.51465">
        <ele>1191.717</ele>
        <time>2020-06-24T10:03:40Z</time>
      </trkpt>
      <trkpt lat="43.8151" lon="7.51465">
        <ele>1191.717</ele>
        <time>2020-06-24T10:03:55Z</time>
      </trkpt>
      <trkpt lat="43.8151" lon="7.51465">
        <ele>1191.717</ele>
        <time>2020-06-24T10:04:11Z</time>
      </trkpt>
      <trkpt lat="43.8151" lon="7.51465">
        <ele>1191.717</ele>
        <time>2020-06-24T10:04:27Z</time>
      </trkpt>
      <trkpt lat="43.8151" lon="7.51465">
        <ele>1191.717</ele>
        <time>2020-06-24T10:04:42Z</time>
      </trkpt>
      <trkpt lat="43.8151" lon="7.51465">
        <ele>1191.717</ele>
        <time>2020-06-24T10:04:58Z</time>
      </trkpt>
      <trkpt lat="43.8151" lon="7.51465">
        <ele>1191.717</ele>
        <time>2020-06-24T10:05:14Z</time>
      </trkpt>
      <trkpt lat="43.8151" lon="7.51465">
        <ele>1191.717</ele>
        <time>2020-06-24T10:05:29Z</time>
      </trkpt>
      <trkpt lat="43.8151" lon="7.51465">
        <ele>1191.717</ele>
        <time>2020-06-24T10:05:45Z</time>
      </trkpt>
      <trkpt lat="43.8151" lon="7.51465">
        <ele>1191.717</ele>
        <time>2020-06-24T10:06:00Z</time>
      </trkpt>
      <trkpt lat="43.8151" lon="7.51465">
        <ele>1191.717</ele>
        <time>2020-06-24T10:06:15Z</time>
      </trkpt>
      <trkpt lat="43.8151" lon="7.51465">
        <ele>1191.717</ele>
        <time>2020-06-24T10:06:31Z</time>
      </trkpt>
      <trkpt lat="43.8151" lon="7.51465">
        <ele>1191.717</ele>
        <time>2020-06-24T10:06:46Z</time>
      </trkpt>
      <trkpt lat="43.8151" lon="7.51465">
        <ele>1191.717</ele>
        <time>2020-06-24T10:07:02Z</time>
      </trkpt>
      <trkpt lat="43.8151" lon="7.51465">
        <ele>1191.717</ele>
        <time>2020-06-24T10:07:17Z</time>
      </trkpt>
      <trkpt lat="43.8151" lon="7.51465">
        <ele>1191.717</ele>
        <time>2020-06-24T10:07:32Z</time>
      </trkpt>
      <trkpt lat="43.8151" lon="7.51465">
        <ele>1191.717</ele>
        <time>2020-06-24T10:07:47Z</time>
      </trkpt>
      <trkpt lat="43.8151" lon="7.51465">
        <ele>1191.717</ele>
        <time>2020-06-24T10:08:02Z</time>
      </trkpt>
      <trkpt lat="43.8151" lon="7.51465">
        <ele>1191.717</ele>
        <time>2020-06-24T10:08:18Z</time>
      </trkpt>
      <trkpt lat="43.8151" lon="7.51465">
        <ele>1191.717</ele>
        <time>2020-06-24T10:08:34Z</time>
      </trkpt>
      <trkpt lat="43.81512" lon="7.51463">
        <ele>1191.23</ele>
        <time>2020-06-24T10:08:49Z</time>
      </trkpt>
      <trkpt lat="43.81512" lon="7.5146">
        <ele>1190.569</ele>
        <time>2020-06-24T10:09:04Z</time>
      </trkpt>
      <trkpt lat="43.81511" lon="7.51459">
        <ele>1189.872</ele>
        <time>2020-06-24T10:09:20Z</time>
      </trkpt>
      <trkpt lat="43.81507" lon="7.51459">
        <ele>1188.156</ele>
        <time>2020-06-24T10:09:35Z</time>
      </trkpt>
      <trkpt lat="43.81503" lon="7.51451">
        <ele>1186.462</ele>
        <time>2020-06-24T10:09:51Z</time>
      </trkpt>
      <trkpt lat="43.815" lon="7.51445">
        <ele>1184.306</ele>
        <time>2020-06-24T10:10:06Z</time>
      </trkpt>
      <trkpt lat="43.81486" lon="7.51432">
        <ele>1178.547</ele>
        <time>2020-06-24T10:10:22Z</time>
      </trkpt>
      <trkpt lat="43.8149" lon="7.51425">
        <ele>1176.009</ele>
        <time>2020-06-24T10:10:37Z</time>
      </trkpt>
      <trkpt lat="43.81496" lon="7.51409">
        <ele>1171.261</ele>
        <time>2020-06-24T10:10:52Z</time>
      </trkpt>
      <trkpt lat="43.81498" lon="7.51396">
        <ele>1165.887</ele>
        <time>2020-06-24T10:11:08Z</time>
      </trkpt>
      <trkpt lat="43.81504" lon="7.51382">
        <ele>1161.229</ele>
        <time>2020-06-24T10:11:24Z</time>
      </trkpt>
      <trkpt lat="43.81501" lon="7.51373">
        <ele>1157.001</ele>
        <time>2020-06-24T10:11:39Z</time>
      </trkpt>
      <trkpt lat="43.81501" lon="7.51365">
        <ele>1153.921</ele>
        <time>2020-06-24T10:11:55Z</time>
      </trkpt>
      <trkpt lat="43.81501" lon="7.51351">
        <ele>1149.322</ele>
        <time>2020-06-24T10:12:11Z</time>
      </trkpt>
      <trkpt lat="43.81502" lon="7.51342">
        <ele>1147.106</ele>
        <time>2020-06-24T10:12:26Z</time>
      </trkpt>
      <trkpt lat="43.81507" lon="7.51332">
        <ele>1144.357</ele>
        <time>2020-06-24T10:12:42Z</time>
      </trkpt>
      <trkpt lat="43.81505" lon="7.51319">
        <ele>1140.885</ele>
        <time>2020-06-24T10:12:58Z</time>
      </trkpt>
      <trkpt lat="43.81507" lon="7.51298">
        <ele>1138.697</ele>
        <time>2020-06-24T10:13:13Z</time>
      </trkpt>
      <trkpt lat="43.81509" lon="7.51297">
        <ele>1139.017</ele>
        <time>2020-06-24T10:13:29Z</time>
      </trkpt>
      <trkpt lat="43.81509" lon="7.51297">
        <ele>1139.017</ele>
        <time>2020-06-24T10:13:45Z</time>
      </trkpt>
      <trkpt lat="43.81509" lon="7.51297">
        <ele>1139.017</ele>
        <time>2020-06-24T10:14:01Z</time>
      </trkpt>
      <trkpt lat="43.81509" lon="7.51297">
        <ele>1139.017</ele>
        <time>2020-06-24T10:14:17Z</time>
      </trkpt>
      <trkpt lat="43.81508" lon="7.51304">
        <ele>1137.672</ele>
        <time>2020-06-24T10:14:33Z</time>
      </trkpt>
      <trkpt lat="43.81508" lon="7.51304">
        <ele>1137.672</ele>
        <time>2020-06-24T10:14:48Z</time>
      </trkpt>
      <trkpt lat="43.81508" lon="7.51304">
        <ele>1137.672</ele>
        <time>2020-06-24T10:15:03Z</time>
      </trkpt>
      <trkpt lat="43.81508" lon="7.51304">
        <ele>1137.672</ele>
        <time>2020-06-24T10:15:19Z</time>
      </trkpt>
      <trkpt lat="43.81508" lon="7.51304">
        <ele>1137.672</ele>
        <time>2020-06-24T10:15:35Z</time>
      </trkpt>
      <trkpt lat="43.81508" lon="7.51304">
        <ele>1137.672</ele>
        <time>2020-06-24T10:15:51Z</time>
      </trkpt>
      <trkpt lat="43.81509" lon="7.51303">
        <ele>1137.669</ele>
        <time>2020-06-24T10:16:06Z</time>
      </trkpt>
      <trkpt lat="43.81509" lon="7.51303">
        <ele>1137.669</ele>
        <time>2020-06-24T10:16:21Z</time>
      </trkpt>
      <trkpt lat="43.81509" lon="7.51303">
        <ele>1137.669</ele>
        <time>2020-06-24T10:16:37Z</time>
      </trkpt>
      <trkpt lat="43.81509" lon="7.51303">
        <ele>1137.669</ele>
        <time>2020-06-24T10:16:53Z</time>
      </trkpt>
      <trkpt lat="43.81509" lon="7.51304">
        <ele>1137.151</ele>
        <time>2020-06-24T10:17:08Z</time>
      </trkpt>
      <trkpt lat="43.81509" lon="7.51304">
        <ele>1137.256</ele>
        <time>2020-06-24T10:17:24Z</time>
      </trkpt>
      <trkpt lat="43.81509" lon="7.51304">
        <ele>1137.256</ele>
        <time>2020-06-24T10:17:39Z</time>
      </trkpt>
      <trkpt lat="43.8151" lon="7.51303">
        <ele>1137.296</ele>
        <time>2020-06-24T10:17:55Z</time>
      </trkpt>
      <trkpt lat="43.81522" lon="7.51293">
        <ele>1136.124</ele>
        <time>2020-06-24T10:18:11Z</time>
      </trkpt>
      <trkpt lat="43.81529" lon="7.51291">
        <ele>1137.048</ele>
        <time>2020-06-24T10:18:26Z</time>
      </trkpt>
      <trkpt lat="43.81535" lon="7.51279">
        <ele>1134.435</ele>
        <time>2020-06-24T10:18:41Z</time>
      </trkpt>
      <trkpt lat="43.81537" lon="7.51272">
        <ele>1133.107</ele>
        <time>2020-06-24T10:18:56Z</time>
      </trkpt>
      <trkpt lat="43.81547" lon="7.5127">
        <ele>1130.967</ele>
        <time>2020-06-24T10:19:12Z</time>
      </trkpt>
      <trkpt lat="43.81547" lon="7.5127">
        <ele>1130.967</ele>
        <time>2020-06-24T10:19:27Z</time>
      </trkpt>
      <trkpt lat="43.81559" lon="7.51261">
        <ele>1126.785</ele>
        <time>2020-06-24T10:19:43Z</time>
      </trkpt>
      <trkpt lat="43.81563" lon="7.51258">
        <ele>1125.709</ele>
        <time>2020-06-24T10:19:58Z</time>
      </trkpt>
      <trkpt lat="43.81573" lon="7.51256">
        <ele>1124.549</ele>
        <time>2020-06-24T10:20:13Z</time>
      </trkpt>
      <trkpt lat="43.81588" lon="7.51267">
        <ele>1119.169</ele>
        <time>2020-06-24T10:20:28Z</time>
      </trkpt>
      <trkpt lat="43.81593" lon="7.51266">
        <ele>1117.463</ele>
        <time>2020-06-24T10:20:44Z</time>
      </trkpt>
      <trkpt lat="43.81599" lon="7.51255">
        <ele>1112.606</ele>
        <time>2020-06-24T10:21:00Z</time>
      </trkpt>
      <trkpt lat="43.81605" lon="7.51252">
        <ele>1110.804</ele>
        <time>2020-06-24T10:21:16Z</time>
      </trkpt>
      <trkpt lat="43.81622" lon="7.51245">
        <ele>1107.875</ele>
        <time>2020-06-24T10:21:32Z</time>
      </trkpt>
      <trkpt lat="43.81641" lon="7.51259">
        <ele>1094.951</ele>
        <time>2020-06-24T10:21:47Z</time>
      </trkpt>
      <trkpt lat="43.81658" lon="7.51272">
        <ele>1089.797</ele>
        <time>2020-06-24T10:22:03Z</time>
      </trkpt>
      <trkpt lat="43.81674" lon="7.51266">
        <ele>1089.18</ele>
        <time>2020-06-24T10:22:19Z</time>
      </trkpt>
      <trkpt lat="43.81692" lon="7.51257">
        <ele>1089.787</ele>
        <time>2020-06-24T10:22:34Z</time>
      </trkpt>
      <trkpt lat="43.81711" lon="7.51253">
        <ele>1088.334</ele>
        <time>2020-06-24T10:22:50Z</time>
      </trkpt>
      <trkpt lat="43.81729" lon="7.51252">
        <ele>1084.85</ele>
        <time>2020-06-24T10:23:05Z</time>
      </trkpt>
      <trkpt lat="43.8174" lon="7.51247">
        <ele>1080.129</ele>
        <time>2020-06-24T10:23:21Z</time>
      </trkpt>
      <trkpt lat="43.81745" lon="7.51242">
        <ele>1077.999</ele>
        <time>2020-06-24T10:23:36Z</time>
      </trkpt>
      <trkpt lat="43.81754" lon="7.51234">
        <ele>1076.196</ele>
        <time>2020-06-24T10:23:52Z</time>
      </trkpt>
      <trkpt lat="43.81758" lon="7.51226">
        <ele>1074.561</ele>
        <time>2020-06-24T10:24:07Z</time>
      </trkpt>
      <trkpt lat="43.81778" lon="7.51221">
        <ele>1071.128</ele>
        <time>2020-06-24T10:24:22Z</time>
      </trkpt>
      <trkpt lat="43.81792" lon="7.51224">
        <ele>1068.505</ele>
        <time>2020-06-24T10:24:37Z</time>
      </trkpt>
      <trkpt lat="43.81808" lon="7.51216">
        <ele>1064.729</ele>
        <time>2020-06-24T10:24:53Z</time>
      </trkpt>
      <trkpt lat="43.81826" lon="7.51208">
        <ele>1062.302</ele>
        <time>2020-06-24T10:25:09Z</time>
      </trkpt>
      <trkpt lat="43.81838" lon="7.51193">
        <ele>1058.909</ele>
        <time>2020-06-24T10:25:25Z</time>
      </trkpt>
      <trkpt lat="43.81851" lon="7.51189">
        <ele>1055.11</ele>
        <time>2020-06-24T10:25:40Z</time>
      </trkpt>
      <trkpt lat="43.81857" lon="7.51179">
        <ele>1053.758</ele>
        <time>2020-06-24T10:25:56Z</time>
      </trkpt>
      <trkpt lat="43.81859" lon="7.5117">
        <ele>1052.953</ele>
        <time>2020-06-24T10:26:11Z</time>
      </trkpt>
      <trkpt lat="43.81857" lon="7.51162">
        <ele>1050.419</ele>
        <time>2020-06-24T10:26:27Z</time>
      </trkpt>
      <trkpt lat="43.81865" lon="7.51151">
        <ele>1048.732</ele>
        <time>2020-06-24T10:26:43Z</time>
      </trkpt>
      <trkpt lat="43.81865" lon="7.51144">
        <ele>1046.031</ele>
        <time>2020-06-24T10:26:58Z</time>
      </trkpt>
      <trkpt lat="43.81857" lon="7.51137">
        <ele>1043.313</ele>
        <time>2020-06-24T10:27:13Z</time>
      </trkpt>
      <trkpt lat="43.81846" lon="7.51132">
        <ele>1040.325</ele>
        <time>2020-06-24T10:27:28Z</time>
      </trkpt>
      <trkpt lat="43.81844" lon="7.51131">
        <ele>1039.494</ele>
        <time>2020-06-24T10:27:43Z</time>
      </trkpt>
      <trkpt lat="43.81835" lon="7.51115">
        <ele>1039.115</ele>
        <time>2020-06-24T10:27:59Z</time>
      </trkpt>
      <trkpt lat="43.81832" lon="7.51107">
        <ele>1037.808</ele>
        <time>2020-06-24T10:28:14Z</time>
      </trkpt>
      <trkpt lat="43.8183" lon="7.51098">
        <ele>1035.173</ele>
        <time>2020-06-24T10:28:29Z</time>
      </trkpt>
      <trkpt lat="43.81828" lon="7.51093">
        <ele>1034.251</ele>
        <time>2020-06-24T10:28:45Z</time>
      </trkpt>
      <trkpt lat="43.81816" lon="7.51066">
        <ele>1031.875</ele>
        <time>2020-06-24T10:29:00Z</time>
      </trkpt>
      <trkpt lat="43.81814" lon="7.51061">
        <ele>1030.703</ele>
        <time>2020-06-24T10:29:16Z</time>
      </trkpt>
      <trkpt lat="43.81805" lon="7.51044">
        <ele>1024.854</ele>
        <time>2020-06-24T10:29:32Z</time>
      </trkpt>
      <trkpt lat="43.81801" lon="7.51043">
        <ele>1024.488</ele>
        <time>2020-06-24T10:29:47Z</time>
      </trkpt>
      <trkpt lat="43.81791" lon="7.51029">
        <ele>1021.825</ele>
        <time>2020-06-24T10:30:02Z</time>
      </trkpt>
      <trkpt lat="43.81781" lon="7.51022">
        <ele>1019.448</ele>
        <time>2020-06-24T10:30:18Z</time>
      </trkpt>
      <trkpt lat="43.81784" lon="7.51009">
        <ele>1016.01</ele>
        <time>2020-06-24T10:30:33Z</time>
      </trkpt>
      <trkpt lat="43.81786" lon="7.50998">
        <ele>1014.784</ele>
        <time>2020-06-24T10:30:49Z</time>
      </trkpt>
      <trkpt lat="43.81801" lon="7.50987">
        <ele>1012.427</ele>
        <time>2020-06-24T10:31:04Z</time>
      </trkpt>
      <trkpt lat="43.81815" lon="7.50985">
        <ele>1009.02</ele>
        <time>2020-06-24T10:31:20Z</time>
      </trkpt>
      <trkpt lat="43.81828" lon="7.50978">
        <ele>1002.932</ele>
        <time>2020-06-24T10:31:36Z</time>
      </trkpt>
      <trkpt lat="43.81839" lon="7.50976">
        <ele>999.39</ele>
        <time>2020-06-24T10:31:51Z</time>
      </trkpt>
      <trkpt lat="43.8185" lon="7.5097">
        <ele>994.413</ele>
        <time>2020-06-24T10:32:07Z</time>
      </trkpt>
      <trkpt lat="43.81853" lon="7.50959">
        <ele>989.835</ele>
        <time>2020-06-24T10:32:23Z</time>
      </trkpt>
      <trkpt lat="43.81853" lon="7.50957">
        <ele>990.146</ele>
        <time>2020-06-24T10:32:38Z</time>
      </trkpt>
      <trkpt lat="43.81855" lon="7.50956">
        <ele>989.179</ele>
        <time>2020-06-24T10:32:54Z</time>
      </trkpt>
      <trkpt lat="43.81863" lon="7.50934">
        <ele>985.263</ele>
        <time>2020-06-24T10:33:09Z</time>
      </trkpt>
      <trkpt lat="43.81874" lon="7.50918">
        <ele>982.316</ele>
        <time>2020-06-24T10:33:24Z</time>
      </trkpt>
      <trkpt lat="43.81879" lon="7.5091">
        <ele>978.601</ele>
        <time>2020-06-24T10:33:40Z</time>
      </trkpt>
      <trkpt lat="43.81883" lon="7.50898">
        <ele>974.723</ele>
        <time>2020-06-24T10:33:56Z</time>
      </trkpt>
      <trkpt lat="43.81891" lon="7.50883">
        <ele>972.071</ele>
        <time>2020-06-24T10:34:11Z</time>
      </trkpt>
      <trkpt lat="43.81901" lon="7.50872">
        <ele>970.447</ele>
        <time>2020-06-24T10:34:26Z</time>
      </trkpt>
      <trkpt lat="43.81903" lon="7.50865">
        <ele>969.298</ele>
        <time>2020-06-24T10:34:41Z</time>
      </trkpt>
      <trkpt lat="43.81907" lon="7.50851">
        <ele>964.678</ele>
        <time>2020-06-24T10:34:57Z</time>
      </trkpt>
      <trkpt lat="43.81911" lon="7.50844">
        <ele>963.164</ele>
        <time>2020-06-24T10:35:13Z</time>
      </trkpt>
      <trkpt lat="43.81916" lon="7.50842">
        <ele>961.948</ele>
        <time>2020-06-24T10:35:28Z</time>
      </trkpt>
      <trkpt lat="43.8192" lon="7.50832">
        <ele>959.057</ele>
        <time>2020-06-24T10:35:44Z</time>
      </trkpt>
      <trkpt lat="43.8192" lon="7.50826">
        <ele>959.161</ele>
        <time>2020-06-24T10:36:00Z</time>
      </trkpt>
      <trkpt lat="43.8192" lon="7.50822">
        <ele>958.479</ele>
        <time>2020-06-24T10:36:16Z</time>
      </trkpt>
      <trkpt lat="43.81924" lon="7.5081">
        <ele>956.026</ele>
        <time>2020-06-24T10:36:32Z</time>
      </trkpt>
      <trkpt lat="43.81935" lon="7.50787">
        <ele>952.17</ele>
        <time>2020-06-24T10:36:48Z</time>
      </trkpt>
      <trkpt lat="43.81944" lon="7.50777">
        <ele>949.697</ele>
        <time>2020-06-24T10:37:03Z</time>
      </trkpt>
      <trkpt lat="43.81951" lon="7.50758">
        <ele>945.604</ele>
        <time>2020-06-24T10:37:19Z</time>
      </trkpt>
      <trkpt lat="43.81951" lon="7.50758">
        <ele>945.633</ele>
        <time>2020-06-24T10:37:34Z</time>
      </trkpt>
      <trkpt lat="43.81956" lon="7.5074">
        <ele>943.787</ele>
        <time>2020-06-24T10:37:50Z</time>
      </trkpt>
      <trkpt lat="43.81969" lon="7.50738">
        <ele>942.581</ele>
        <time>2020-06-24T10:38:06Z</time>
      </trkpt>
      <trkpt lat="43.81975" lon="7.50737">
        <ele>938.818</ele>
        <time>2020-06-24T10:38:21Z</time>
      </trkpt>
      <trkpt lat="43.81979" lon="7.50732">
        <ele>938.29</ele>
        <time>2020-06-24T10:38:37Z</time>
      </trkpt>
      <trkpt lat="43.8198" lon="7.50726">
        <ele>935.816</ele>
        <time>2020-06-24T10:38:53Z</time>
      </trkpt>
      <trkpt lat="43.81983" lon="7.50719">
        <ele>929.195</ele>
        <time>2020-06-24T10:39:08Z</time>
      </trkpt>
      <trkpt lat="43.81982" lon="7.50701">
        <ele>924.138</ele>
        <time>2020-06-24T10:39:24Z</time>
      </trkpt>
      <trkpt lat="43.81983" lon="7.50689">
        <ele>924.049</ele>
        <time>2020-06-24T10:39:40Z</time>
      </trkpt>
      <trkpt lat="43.81985" lon="7.50679">
        <ele>921.461</ele>
        <time>2020-06-24T10:39:56Z</time>
      </trkpt>
      <trkpt lat="43.81982" lon="7.50663">
        <ele>915.985</ele>
        <time>2020-06-24T10:40:11Z</time>
      </trkpt>
      <trkpt lat="43.81981" lon="7.5065">
        <ele>912.563</ele>
        <time>2020-06-24T10:40:27Z</time>
      </trkpt>
      <trkpt lat="43.81991" lon="7.50637">
        <ele>910.579</ele>
        <time>2020-06-24T10:40:43Z</time>
      </trkpt>
      <trkpt lat="43.81996" lon="7.50636">
        <ele>909.526</ele>
        <time>2020-06-24T10:40:58Z</time>
      </trkpt>
      <trkpt lat="43.8201" lon="7.50631">
        <ele>908.341</ele>
        <time>2020-06-24T10:41:13Z</time>
      </trkpt>
      <trkpt lat="43.8202" lon="7.50627">
        <ele>904.685</ele>
        <time>2020-06-24T10:41:29Z</time>
      </trkpt>
      <trkpt lat="43.82025" lon="7.50624">
        <ele>901.845</ele>
        <time>2020-06-24T10:41:45Z</time>
      </trkpt>
      <trkpt lat="43.82042" lon="7.50613">
        <ele>899.951</ele>
        <time>2020-06-24T10:42:01Z</time>
      </trkpt>
      <trkpt lat="43.82053" lon="7.50609">
        <ele>897.205</ele>
        <time>2020-06-24T10:42:16Z</time>
      </trkpt>
      <trkpt lat="43.82071" lon="7.50603">
        <ele>896.639</ele>
        <time>2020-06-24T10:42:32Z</time>
      </trkpt>
      <trkpt lat="43.8209" lon="7.50593">
        <ele>894.27</ele>
        <time>2020-06-24T10:42:48Z</time>
      </trkpt>
      <trkpt lat="43.82099" lon="7.50586">
        <ele>891.758</ele>
        <time>2020-06-24T10:43:03Z</time>
      </trkpt>
      <trkpt lat="43.82105" lon="7.50582">
        <ele>888.884</ele>
        <time>2020-06-24T10:43:19Z</time>
      </trkpt>
      <trkpt lat="43.8212" lon="7.50584">
        <ele>884.857</ele>
        <time>2020-06-24T10:43:35Z</time>
      </trkpt>
      <trkpt lat="43.82124" lon="7.50597">
        <ele>883.589</ele>
        <time>2020-06-24T10:43:51Z</time>
      </trkpt>
      <trkpt lat="43.82129" lon="7.50594">
        <ele>883.628</ele>
        <time>2020-06-24T10:44:07Z</time>
      </trkpt>
      <trkpt lat="43.82137" lon="7.50591">
        <ele>883.427</ele>
        <time>2020-06-24T10:44:22Z</time>
      </trkpt>
      <trkpt lat="43.82152" lon="7.50576">
        <ele>883.662</ele>
        <time>2020-06-24T10:44:37Z</time>
      </trkpt>
      <trkpt lat="43.82168" lon="7.50565">
        <ele>880.298</ele>
        <time>2020-06-24T10:44:53Z</time>
      </trkpt>
      <trkpt lat="43.82171" lon="7.50546">
        <ele>874.003</ele>
        <time>2020-06-24T10:45:08Z</time>
      </trkpt>
      <trkpt lat="43.82161" lon="7.50532">
        <ele>873.878</ele>
        <time>2020-06-24T10:45:24Z</time>
      </trkpt>
      <trkpt lat="43.82167" lon="7.50503">
        <ele>868.721</ele>
        <time>2020-06-24T10:45:40Z</time>
      </trkpt>
      <trkpt lat="43.82173" lon="7.5049">
        <ele>867.51</ele>
        <time>2020-06-24T10:45:55Z</time>
      </trkpt>
      <trkpt lat="43.82173" lon="7.5049">
        <ele>867.51</ele>
        <time>2020-06-24T10:46:11Z</time>
      </trkpt>
      <trkpt lat="43.82175" lon="7.50479">
        <ele>865.792</ele>
        <time>2020-06-24T10:46:27Z</time>
      </trkpt>
      <trkpt lat="43.82175" lon="7.50479">
        <ele>865.792</ele>
        <time>2020-06-24T10:46:43Z</time>
      </trkpt>
      <trkpt lat="43.82175" lon="7.50479">
        <ele>865.792</ele>
        <time>2020-06-24T10:46:59Z</time>
      </trkpt>
      <trkpt lat="43.82175" lon="7.50479">
        <ele>865.792</ele>
        <time>2020-06-24T10:47:16Z</time>
      </trkpt>
      <trkpt lat="43.82175" lon="7.50479">
        <ele>865.792</ele>
        <time>2020-06-24T10:47:31Z</time>
      </trkpt>
      <trkpt lat="43.8218" lon="7.50463">
        <ele>863.003</ele>
        <time>2020-06-24T10:47:46Z</time>
      </trkpt>
      <trkpt lat="43.82188" lon="7.50446">
        <ele>860.55</ele>
        <time>2020-06-24T10:48:02Z</time>
      </trkpt>
      <trkpt lat="43.82191" lon="7.50448">
        <ele>860.302</ele>
        <time>2020-06-24T10:48:17Z</time>
      </trkpt>
      <trkpt lat="43.82191" lon="7.50448">
        <ele>860.302</ele>
        <time>2020-06-24T10:48:33Z</time>
      </trkpt>
      <trkpt lat="43.82192" lon="7.5045">
        <ele>859.27</ele>
        <time>2020-06-24T10:48:48Z</time>
      </trkpt>
      <trkpt lat="43.82195" lon="7.5045">
        <ele>858.49</ele>
        <time>2020-06-24T10:49:04Z</time>
      </trkpt>
      <trkpt lat="43.82195" lon="7.5045">
        <ele>858.49</ele>
        <time>2020-06-24T10:49:19Z</time>
      </trkpt>
      <trkpt lat="43.82195" lon="7.50449">
        <ele>858.192</ele>
        <time>2020-06-24T10:49:35Z</time>
      </trkpt>
      <trkpt lat="43.82195" lon="7.50449">
        <ele>858.192</ele>
        <time>2020-06-24T10:49:51Z</time>
      </trkpt>
      <trkpt lat="43.82195" lon="7.50449">
        <ele>858.192</ele>
        <time>2020-06-24T10:50:06Z</time>
      </trkpt>
      <trkpt lat="43.82195" lon="7.50449">
        <ele>858.192</ele>
        <time>2020-06-24T10:50:21Z</time>
      </trkpt>
      <trkpt lat="43.82195" lon="7.50449">
        <ele>858.192</ele>
        <time>2020-06-24T10:50:36Z</time>
      </trkpt>
      <trkpt lat="43.82195" lon="7.50449">
        <ele>858.192</ele>
        <time>2020-06-24T10:50:52Z</time>
      </trkpt>
      <trkpt lat="43.82195" lon="7.50449">
        <ele>858.192</ele>
        <time>2020-06-24T10:51:07Z</time>
      </trkpt>
      <trkpt lat="43.82195" lon="7.50449">
        <ele>858.192</ele>
        <time>2020-06-24T10:51:23Z</time>
      </trkpt>
      <trkpt lat="43.82195" lon="7.50449">
        <ele>858.192</ele>
        <time>2020-06-24T10:51:39Z</time>
      </trkpt>
      <trkpt lat="43.82194" lon="7.50448">
        <ele>857.852</ele>
        <time>2020-06-24T10:51:55Z</time>
      </trkpt>
      <trkpt lat="43.82194" lon="7.50448">
        <ele>857.852</ele>
        <time>2020-06-24T10:52:10Z</time>
      </trkpt>
      <trkpt lat="43.82194" lon="7.50448">
        <ele>857.852</ele>
        <time>2020-06-24T10:52:26Z</time>
      </trkpt>
      <trkpt lat="43.82194" lon="7.50448">
        <ele>857.852</ele>
        <time>2020-06-24T10:52:42Z</time>
      </trkpt>
      <trkpt lat="43.82194" lon="7.50448">
        <ele>857.852</ele>
        <time>2020-06-24T10:52:58Z</time>
      </trkpt>
      <trkpt lat="43.82194" lon="7.50448">
        <ele>857.852</ele>
        <time>2020-06-24T10:53:13Z</time>
      </trkpt>
      <trkpt lat="43.82194" lon="7.50448">
        <ele>857.852</ele>
        <time>2020-06-24T10:53:29Z</time>
      </trkpt>
      <trkpt lat="43.82194" lon="7.50448">
        <ele>857.852</ele>
        <time>2020-06-24T10:53:45Z</time>
      </trkpt>
      <trkpt lat="43.82194" lon="7.50448">
        <ele>857.852</ele>
        <time>2020-06-24T10:54:00Z</time>
      </trkpt>
      <trkpt lat="43.82194" lon="7.50445">
        <ele>859.095</ele>
        <time>2020-06-24T10:54:15Z</time>
      </trkpt>
      <trkpt lat="43.82194" lon="7.50445">
        <ele>859.095</ele>
        <time>2020-06-24T10:54:30Z</time>
      </trkpt>
      <trkpt lat="43.82194" lon="7.50445">
        <ele>859.095</ele>
        <time>2020-06-24T10:54:46Z</time>
      </trkpt>
      <trkpt lat="43.82194" lon="7.50445">
        <ele>859.095</ele>
        <time>2020-06-24T10:55:01Z</time>
      </trkpt>
      <trkpt lat="43.82194" lon="7.50445">
        <ele>859.095</ele>
        <time>2020-06-24T10:55:17Z</time>
      </trkpt>
      <trkpt lat="43.82194" lon="7.50445">
        <ele>859.095</ele>
        <time>2020-06-24T10:55:32Z</time>
      </trkpt>
      <trkpt lat="43.82194" lon="7.50445">
        <ele>859.095</ele>
        <time>2020-06-24T10:55:48Z</time>
      </trkpt>
      <trkpt lat="43.82194" lon="7.50445">
        <ele>859.095</ele>
        <time>2020-06-24T10:56:04Z</time>
      </trkpt>
      <trkpt lat="43.82194" lon="7.50445">
        <ele>859.095</ele>
        <time>2020-06-24T10:56:20Z</time>
      </trkpt>
      <trkpt lat="43.82194" lon="7.50445">
        <ele>859.095</ele>
        <time>2020-06-24T10:56:35Z</time>
      </trkpt>
      <trkpt lat="43.82194" lon="7.50445">
        <ele>859.095</ele>
        <time>2020-06-24T10:56:51Z</time>
      </trkpt>
      <trkpt lat="43.82194" lon="7.50445">
        <ele>859.095</ele>
        <time>2020-06-24T10:57:07Z</time>
      </trkpt>
      <trkpt lat="43.82194" lon="7.50445">
        <ele>859.095</ele>
        <time>2020-06-24T10:57:23Z</time>
      </trkpt>
      <trkpt lat="43.82194" lon="7.50445">
        <ele>859.095</ele>
        <time>2020-06-24T10:57:39Z</time>
      </trkpt>
      <trkpt lat="43.82194" lon="7.50445">
        <ele>859.095</ele>
        <time>2020-06-24T10:57:54Z</time>
      </trkpt>
      <trkpt lat="43.82193" lon="7.50445">
        <ele>858.835</ele>
        <time>2020-06-24T10:58:09Z</time>
      </trkpt>
      <trkpt lat="43.82193" lon="7.50446">
        <ele>858.872</ele>
        <time>2020-06-24T10:58:25Z</time>
      </trkpt>
      <trkpt lat="43.82193" lon="7.50446">
        <ele>858.872</ele>
        <time>2020-06-24T10:58:41Z</time>
      </trkpt>
      <trkpt lat="43.82193" lon="7.50446">
        <ele>858.872</ele>
        <time>2020-06-24T10:58:57Z</time>
      </trkpt>
      <trkpt lat="43.82193" lon="7.50446">
        <ele>858.872</ele>
        <time>2020-06-24T10:59:12Z</time>
      </trkpt>
      <trkpt lat="43.82193" lon="7.50446">
        <ele>858.872</ele>
        <time>2020-06-24T10:59:28Z</time>
      </trkpt>
      <trkpt lat="43.82193" lon="7.50446">
        <ele>858.872</ele>
        <time>2020-06-24T10:59:44Z</time>
      </trkpt>
      <trkpt lat="43.82193" lon="7.50446">
        <ele>858.872</ele>
        <time>2020-06-24T10:59:59Z</time>
      </trkpt>
      <trkpt lat="43.82193" lon="7.50446">
        <ele>858.872</ele>
        <time>2020-06-24T11:00:15Z</time>
      </trkpt>
      <trkpt lat="43.82193" lon="7.50446">
        <ele>858.872</ele>
        <time>2020-06-24T11:00:30Z</time>
      </trkpt>
      <trkpt lat="43.82193" lon="7.50446">
        <ele>858.872</ele>
        <time>2020-06-24T11:00:45Z</time>
      </trkpt>
      <trkpt lat="43.82193" lon="7.50448">
        <ele>859.249</ele>
        <time>2020-06-24T11:01:00Z</time>
      </trkpt>
      <trkpt lat="43.82193" lon="7.50448">
        <ele>859.249</ele>
        <time>2020-06-24T11:01:16Z</time>
      </trkpt>
      <trkpt lat="43.82193" lon="7.50448">
        <ele>859.249</ele>
        <time>2020-06-24T11:01:31Z</time>
      </trkpt>
      <trkpt lat="43.8219" lon="7.50447">
        <ele>858.371</ele>
        <time>2020-06-24T11:01:46Z</time>
      </trkpt>
      <trkpt lat="43.8219" lon="7.50447">
        <ele>858.516</ele>
        <time>2020-06-24T11:02:02Z</time>
      </trkpt>
      <trkpt lat="43.8219" lon="7.50447">
        <ele>858.516</ele>
        <time>2020-06-24T11:02:18Z</time>
      </trkpt>
      <trkpt lat="43.8219" lon="7.50447">
        <ele>858.516</ele>
        <time>2020-06-24T11:02:33Z</time>
      </trkpt>
      <trkpt lat="43.8219" lon="7.50447">
        <ele>858.516</ele>
        <time>2020-06-24T11:02:49Z</time>
      </trkpt>
      <trkpt lat="43.8219" lon="7.50447">
        <ele>858.516</ele>
        <time>2020-06-24T11:03:05Z</time>
      </trkpt>
      <trkpt lat="43.8219" lon="7.50447">
        <ele>858.516</ele>
        <time>2020-06-24T11:03:21Z</time>
      </trkpt>
      <trkpt lat="43.8219" lon="7.50447">
        <ele>858.516</ele>
        <time>2020-06-24T11:03:37Z</time>
      </trkpt>
      <trkpt lat="43.8219" lon="7.50447">
        <ele>858.516</ele>
        <time>2020-06-24T11:03:52Z</time>
      </trkpt>
      <trkpt lat="43.8219" lon="7.50447">
        <ele>858.516</ele>
        <time>2020-06-24T11:04:07Z</time>
      </trkpt>
      <trkpt lat="43.8219" lon="7.50447">
        <ele>858.516</ele>
        <time>2020-06-24T11:04:23Z</time>
      </trkpt>
      <trkpt lat="43.8219" lon="7.50447">
        <ele>858.516</ele>
        <time>2020-06-24T11:04:38Z</time>
      </trkpt>
      <trkpt lat="43.8219" lon="7.50447">
        <ele>858.516</ele>
        <time>2020-06-24T11:04:53Z</time>
      </trkpt>
      <trkpt lat="43.8219" lon="7.50447">
        <ele>858.516</ele>
        <time>2020-06-24T11:05:09Z</time>
      </trkpt>
      <trkpt lat="43.8219" lon="7.50447">
        <ele>858.516</ele>
        <time>2020-06-24T11:05:24Z</time>
      </trkpt>
      <trkpt lat="43.8219" lon="7.50447">
        <ele>858.516</ele>
        <time>2020-06-24T11:05:39Z</time>
      </trkpt>
      <trkpt lat="43.8219" lon="7.50447">
        <ele>858.516</ele>
        <time>2020-06-24T11:05:55Z</time>
      </trkpt>
      <trkpt lat="43.8219" lon="7.50447">
        <ele>858.516</ele>
        <time>2020-06-24T11:06:11Z</time>
      </trkpt>
      <trkpt lat="43.8219" lon="7.50446">
        <ele>858.279</ele>
        <time>2020-06-24T11:06:27Z</time>
      </trkpt>
      <trkpt lat="43.8219" lon="7.50446">
        <ele>858.279</ele>
        <time>2020-06-24T11:06:42Z</time>
      </trkpt>
      <trkpt lat="43.8219" lon="7.50446">
        <ele>858.279</ele>
        <time>2020-06-24T11:06:58Z</time>
      </trkpt>
      <trkpt lat="43.82191" lon="7.50446">
        <ele>857.478</ele>
        <time>2020-06-24T11:07:13Z</time>
      </trkpt>
      <trkpt lat="43.82192" lon="7.50445">
        <ele>856.912</ele>
        <time>2020-06-24T11:07:28Z</time>
      </trkpt>
      <trkpt lat="43.82192" lon="7.50445">
        <ele>856.912</ele>
        <time>2020-06-24T11:07:43Z</time>
      </trkpt>
      <trkpt lat="43.82192" lon="7.50445">
        <ele>856.912</ele>
        <time>2020-06-24T11:07:59Z</time>
      </trkpt>
      <trkpt lat="43.82192" lon="7.50445">
        <ele>856.976</ele>
        <time>2020-06-24T11:08:14Z</time>
      </trkpt>
      <trkpt lat="43.82193" lon="7.50447">
        <ele>856.1</ele>
        <time>2020-06-24T11:08:29Z</time>
      </trkpt>
      <trkpt lat="43.82193" lon="7.50447">
        <ele>856.1</ele>
        <time>2020-06-24T11:08:45Z</time>
      </trkpt>
      <trkpt lat="43.82191" lon="7.50449">
        <ele>872.98</ele>
        <time>2020-06-24T11:14:40Z</time>
      </trkpt>
      <trkpt lat="43.8219" lon="7.50446">
        <ele>843.462</ele>
        <time>2020-06-24T11:14:55Z</time>
      </trkpt>
      <trkpt lat="43.82193" lon="7.50447">
        <ele>840.203</ele>
        <time>2020-06-24T11:15:10Z</time>
      </trkpt>
      <trkpt lat="43.82193" lon="7.50447">
        <ele>840.203</ele>
        <time>2020-06-24T11:15:26Z</time>
      </trkpt>
      <trkpt lat="43.82193" lon="7.50447">
        <ele>840.203</ele>
        <time>2020-06-24T11:15:41Z</time>
      </trkpt>
      <trkpt lat="43.82193" lon="7.50447">
        <ele>840.203</ele>
        <time>2020-06-24T11:15:57Z</time>
      </trkpt>
      <trkpt lat="43.82193" lon="7.50447">
        <ele>840.203</ele>
        <time>2020-06-24T11:16:12Z</time>
      </trkpt>
      <trkpt lat="43.82193" lon="7.50447">
        <ele>840.203</ele>
        <time>2020-06-24T11:16:28Z</time>
      </trkpt>
      <trkpt lat="43.82193" lon="7.50447">
        <ele>840.203</ele>
        <time>2020-06-24T11:16:43Z</time>
      </trkpt>
      <trkpt lat="43.82193" lon="7.50447">
        <ele>840.203</ele>
        <time>2020-06-24T11:16:59Z</time>
      </trkpt>
      <trkpt lat="43.82193" lon="7.50447">
        <ele>840.203</ele>
        <time>2020-06-24T11:17:15Z</time>
      </trkpt>
      <trkpt lat="43.82195" lon="7.50449">
        <ele>840.412</ele>
        <time>2020-06-24T11:17:31Z</time>
      </trkpt>
      <trkpt lat="43.82195" lon="7.50449">
        <ele>840.412</ele>
        <time>2020-06-24T11:17:47Z</time>
      </trkpt>
      <trkpt lat="43.82195" lon="7.50449">
        <ele>840.412</ele>
        <time>2020-06-24T11:18:02Z</time>
      </trkpt>
      <trkpt lat="43.82199" lon="7.50452">
        <ele>841.315</ele>
        <time>2020-06-24T11:18:18Z</time>
      </trkpt>
      <trkpt lat="43.82216" lon="7.50465">
        <ele>841.8</ele>
        <time>2020-06-24T11:18:34Z</time>
      </trkpt>
      <trkpt lat="43.82228" lon="7.50483">
        <ele>839.936</ele>
        <time>2020-06-24T11:18:49Z</time>
      </trkpt>
      <trkpt lat="43.82235" lon="7.50495">
        <ele>840.775</ele>
        <time>2020-06-24T11:19:05Z</time>
      </trkpt>
      <trkpt lat="43.82243" lon="7.50509">
        <ele>843.041</ele>
        <time>2020-06-24T11:19:21Z</time>
      </trkpt>
      <trkpt lat="43.8225" lon="7.50517">
        <ele>844.938</ele>
        <time>2020-06-24T11:19:37Z</time>
      </trkpt>
      <trkpt lat="43.8225" lon="7.50517">
        <ele>844.938</ele>
        <time>2020-06-24T11:19:52Z</time>
      </trkpt>
      <trkpt lat="43.82268" lon="7.5054">
        <ele>845.385</ele>
        <time>2020-06-24T11:20:07Z</time>
      </trkpt>
      <trkpt lat="43.82275" lon="7.50549">
        <ele>845.215</ele>
        <time>2020-06-24T11:20:22Z</time>
      </trkpt>
      <trkpt lat="43.82285" lon="7.50562">
        <ele>845.851</ele>
        <time>2020-06-24T11:20:38Z</time>
      </trkpt>
      <trkpt lat="43.82296" lon="7.50573">
        <ele>851.685</ele>
        <time>2020-06-24T11:20:53Z</time>
      </trkpt>
      <trkpt lat="43.82312" lon="7.50591">
        <ele>855.378</ele>
        <time>2020-06-24T11:21:08Z</time>
      </trkpt>
      <trkpt lat="43.82329" lon="7.50606">
        <ele>855.223</ele>
        <time>2020-06-24T11:21:24Z</time>
      </trkpt>
      <trkpt lat="43.82346" lon="7.50619">
        <ele>856.633</ele>
        <time>2020-06-24T11:21:40Z</time>
      </trkpt>
      <trkpt lat="43.82363" lon="7.50627">
        <ele>857.923</ele>
        <time>2020-06-24T11:21:56Z</time>
      </trkpt>
      <trkpt lat="43.82375" lon="7.50636">
        <ele>860.563</ele>
        <time>2020-06-24T11:22:12Z</time>
      </trkpt>
      <trkpt lat="43.82391" lon="7.50636">
        <ele>862.968</ele>
        <time>2020-06-24T11:22:28Z</time>
      </trkpt>
      <trkpt lat="43.82392" lon="7.50635">
        <ele>862.857</ele>
        <time>2020-06-24T11:22:43Z</time>
      </trkpt>
      <trkpt lat="43.82405" lon="7.50634">
        <ele>863.336</ele>
        <time>2020-06-24T11:22:58Z</time>
      </trkpt>
      <trkpt lat="43.82426" lon="7.50622">
        <ele>862.376</ele>
        <time>2020-06-24T11:23:14Z</time>
      </trkpt>
      <trkpt lat="43.82447" lon="7.50615">
        <ele>858.896</ele>
        <time>2020-06-24T11:23:30Z</time>
      </trkpt>
      <trkpt lat="43.82463" lon="7.50604">
        <ele>857.09</ele>
        <time>2020-06-24T11:23:46Z</time>
      </trkpt>
      <trkpt lat="43.82478" lon="7.50598">
        <ele>857.786</ele>
        <time>2020-06-24T11:24:02Z</time>
      </trkpt>
      <trkpt lat="43.82497" lon="7.50595">
        <ele>858.057</ele>
        <time>2020-06-24T11:24:18Z</time>
      </trkpt>
      <trkpt lat="43.82516" lon="7.50591">
        <ele>856.959</ele>
        <time>2020-06-24T11:24:33Z</time>
      </trkpt>
      <trkpt lat="43.82532" lon="7.50586">
        <ele>857.15</ele>
        <time>2020-06-24T11:24:49Z</time>
      </trkpt>
      <trkpt lat="43.82552" lon="7.50576">
        <ele>857.007</ele>
        <time>2020-06-24T11:25:05Z</time>
      </trkpt>
      <trkpt lat="43.82555" lon="7.50575">
        <ele>857.079</ele>
        <time>2020-06-24T11:25:20Z</time>
      </trkpt>
      <trkpt lat="43.82555" lon="7.50575">
        <ele>857.079</ele>
        <time>2020-06-24T11:25:36Z</time>
      </trkpt>
      <trkpt lat="43.82555" lon="7.50575">
        <ele>857.079</ele>
        <time>2020-06-24T11:25:51Z</time>
      </trkpt>
      <trkpt lat="43.82555" lon="7.50575">
        <ele>857.079</ele>
        <time>2020-06-24T11:26:06Z</time>
      </trkpt>
      <trkpt lat="43.82555" lon="7.50575">
        <ele>857.079</ele>
        <time>2020-06-24T11:26:22Z</time>
      </trkpt>
      <trkpt lat="43.82576" lon="7.5056">
        <ele>858.53</ele>
        <time>2020-06-24T11:26:38Z</time>
      </trkpt>
      <trkpt lat="43.82594" lon="7.50552">
        <ele>858.214</ele>
        <time>2020-06-24T11:26:53Z</time>
      </trkpt>
      <trkpt lat="43.82609" lon="7.50539">
        <ele>858.267</ele>
        <time>2020-06-24T11:27:09Z</time>
      </trkpt>
      <trkpt lat="43.82628" lon="7.50535">
        <ele>858.602</ele>
        <time>2020-06-24T11:27:25Z</time>
      </trkpt>
      <trkpt lat="43.82645" lon="7.50523">
        <ele>855.863</ele>
        <time>2020-06-24T11:27:40Z</time>
      </trkpt>
      <trkpt lat="43.8266" lon="7.50506">
        <ele>852.348</ele>
        <time>2020-06-24T11:27:56Z</time>
      </trkpt>
      <trkpt lat="43.82673" lon="7.50483">
        <ele>848.587</ele>
        <time>2020-06-24T11:28:12Z</time>
      </trkpt>
      <trkpt lat="43.82679" lon="7.50461">
        <ele>847.417</ele>
        <time>2020-06-24T11:28:28Z</time>
      </trkpt>
      <trkpt lat="43.82678" lon="7.50448">
        <ele>847.252</ele>
        <time>2020-06-24T11:28:43Z</time>
      </trkpt>
      <trkpt lat="43.82678" lon="7.50439">
        <ele>847.628</ele>
        <time>2020-06-24T11:28:58Z</time>
      </trkpt>
      <trkpt lat="43.82676" lon="7.50434">
        <ele>850.476</ele>
        <time>2020-06-24T11:29:13Z</time>
      </trkpt>
      <trkpt lat="43.82676" lon="7.50434">
        <ele>850.476</ele>
        <time>2020-06-24T11:29:29Z</time>
      </trkpt>
      <trkpt lat="43.82676" lon="7.50434">
        <ele>850.476</ele>
        <time>2020-06-24T11:29:45Z</time>
      </trkpt>
      <trkpt lat="43.82678" lon="7.50433">
        <ele>852.138</ele>
        <time>2020-06-24T11:30:00Z</time>
      </trkpt>
      <trkpt lat="43.82678" lon="7.50433">
        <ele>852.138</ele>
        <time>2020-06-24T11:30:16Z</time>
      </trkpt>
      <trkpt lat="43.82678" lon="7.50433">
        <ele>852.138</ele>
        <time>2020-06-24T11:30:31Z</time>
      </trkpt>
      <trkpt lat="43.82691" lon="7.50416">
        <ele>856.492</ele>
        <time>2020-06-24T11:30:47Z</time>
      </trkpt>
      <trkpt lat="43.82694" lon="7.50417">
        <ele>856.421</ele>
        <time>2020-06-24T11:31:02Z</time>
      </trkpt>
      <trkpt lat="43.827" lon="7.5042">
        <ele>857.534</ele>
        <time>2020-06-24T11:31:17Z</time>
      </trkpt>
      <trkpt lat="43.82705" lon="7.50427">
        <ele>861.179</ele>
        <time>2020-06-24T11:31:32Z</time>
      </trkpt>
      <trkpt lat="43.82716" lon="7.50438">
        <ele>865.727</ele>
        <time>2020-06-24T11:31:47Z</time>
      </trkpt>
      <trkpt lat="43.82732" lon="7.50452">
        <ele>869.315</ele>
        <time>2020-06-24T11:32:03Z</time>
      </trkpt>
      <trkpt lat="43.82747" lon="7.50457">
        <ele>873.54</ele>
        <time>2020-06-24T11:32:18Z</time>
      </trkpt>
      <trkpt lat="43.82754" lon="7.5046">
        <ele>875.421</ele>
        <time>2020-06-24T11:32:34Z</time>
      </trkpt>
      <trkpt lat="43.82764" lon="7.5047">
        <ele>878.21</ele>
        <time>2020-06-24T11:32:49Z</time>
      </trkpt>
      <trkpt lat="43.82767" lon="7.50473">
        <ele>879.361</ele>
        <time>2020-06-24T11:33:05Z</time>
      </trkpt>
      <trkpt lat="43.82772" lon="7.50473">
        <ele>882.433</ele>
        <time>2020-06-24T11:33:21Z</time>
      </trkpt>
      <trkpt lat="43.82776" lon="7.50475">
        <ele>883.409</ele>
        <time>2020-06-24T11:33:36Z</time>
      </trkpt>
      <trkpt lat="43.82786" lon="7.50482">
        <ele>885.094</ele>
        <time>2020-06-24T11:33:52Z</time>
      </trkpt>
      <trkpt lat="43.82795" lon="7.50486">
        <ele>885.952</ele>
        <time>2020-06-24T11:34:08Z</time>
      </trkpt>
      <trkpt lat="43.82795" lon="7.50486">
        <ele>885.952</ele>
        <time>2020-06-24T11:34:23Z</time>
      </trkpt>
      <trkpt lat="43.82795" lon="7.50486">
        <ele>885.952</ele>
        <time>2020-06-24T11:34:38Z</time>
      </trkpt>
      <trkpt lat="43.82795" lon="7.50486">
        <ele>885.952</ele>
        <time>2020-06-24T11:34:54Z</time>
      </trkpt>
      <trkpt lat="43.82795" lon="7.50486">
        <ele>885.952</ele>
        <time>2020-06-24T11:35:10Z</time>
      </trkpt>
      <trkpt lat="43.82795" lon="7.50486">
        <ele>885.952</ele>
        <time>2020-06-24T11:35:25Z</time>
      </trkpt>
      <trkpt lat="43.82795" lon="7.50486">
        <ele>885.952</ele>
        <time>2020-06-24T11:35:41Z</time>
      </trkpt>
      <trkpt lat="43.82795" lon="7.50486">
        <ele>885.952</ele>
        <time>2020-06-24T11:35:56Z</time>
      </trkpt>
      <trkpt lat="43.82795" lon="7.50486">
        <ele>885.952</ele>
        <time>2020-06-24T11:36:11Z</time>
      </trkpt>
      <trkpt lat="43.82798" lon="7.50488">
        <ele>884.699</ele>
        <time>2020-06-24T11:36:27Z</time>
      </trkpt>
      <trkpt lat="43.82798" lon="7.50488">
        <ele>884.699</ele>
        <time>2020-06-24T11:36:42Z</time>
      </trkpt>
      <trkpt lat="43.82798" lon="7.50488">
        <ele>884.699</ele>
        <time>2020-06-24T11:36:58Z</time>
      </trkpt>
      <trkpt lat="43.82803" lon="7.505">
        <ele>883.838</ele>
        <time>2020-06-24T11:37:14Z</time>
      </trkpt>
      <trkpt lat="43.82803" lon="7.50493">
        <ele>883.953</ele>
        <time>2020-06-24T11:37:29Z</time>
      </trkpt>
      <trkpt lat="43.82802" lon="7.50494">
        <ele>885.832</ele>
        <time>2020-06-24T11:37:45Z</time>
      </trkpt>
      <trkpt lat="43.82802" lon="7.50495">
        <ele>886.517</ele>
        <time>2020-06-24T11:38:01Z</time>
      </trkpt>
      <trkpt lat="43.82802" lon="7.50495">
        <ele>886.517</ele>
        <time>2020-06-24T11:38:16Z</time>
      </trkpt>
      <trkpt lat="43.82805" lon="7.50501">
        <ele>887.395</ele>
        <time>2020-06-24T11:38:32Z</time>
      </trkpt>
      <trkpt lat="43.82805" lon="7.50501">
        <ele>887.395</ele>
        <time>2020-06-24T11:38:48Z</time>
      </trkpt>
      <trkpt lat="43.82805" lon="7.50501">
        <ele>887.395</ele>
        <time>2020-06-24T11:39:04Z</time>
      </trkpt>
      <trkpt lat="43.82805" lon="7.50501">
        <ele>887.395</ele>
        <time>2020-06-24T11:39:20Z</time>
      </trkpt>
      <trkpt lat="43.82805" lon="7.50501">
        <ele>887.395</ele>
        <time>2020-06-24T11:39:36Z</time>
      </trkpt>
      <trkpt lat="43.82805" lon="7.50501">
        <ele>887.395</ele>
        <time>2020-06-24T11:39:51Z</time>
      </trkpt>
      <trkpt lat="43.82805" lon="7.50501">
        <ele>887.395</ele>
        <time>2020-06-24T11:40:06Z</time>
      </trkpt>
      <trkpt lat="43.82805" lon="7.50501">
        <ele>887.395</ele>
        <time>2020-06-24T11:40:22Z</time>
      </trkpt>
      <trkpt lat="43.82805" lon="7.50501">
        <ele>887.395</ele>
        <time>2020-06-24T11:40:38Z</time>
      </trkpt>
      <trkpt lat="43.82804" lon="7.50497">
        <ele>889.849</ele>
        <time>2020-06-24T11:40:53Z</time>
      </trkpt>
      <trkpt lat="43.82804" lon="7.50497">
        <ele>889.849</ele>
        <time>2020-06-24T11:41:08Z</time>
      </trkpt>
      <trkpt lat="43.82804" lon="7.50497">
        <ele>889.849</ele>
        <time>2020-06-24T11:41:23Z</time>
      </trkpt>
      <trkpt lat="43.82804" lon="7.50497">
        <ele>889.849</ele>
        <time>2020-06-24T11:41:39Z</time>
      </trkpt>
      <trkpt lat="43.82804" lon="7.50497">
        <ele>889.849</ele>
        <time>2020-06-24T11:41:55Z</time>
      </trkpt>
      <trkpt lat="43.82804" lon="7.50497">
        <ele>889.849</ele>
        <time>2020-06-24T11:42:11Z</time>
      </trkpt>
      <trkpt lat="43.82804" lon="7.50497">
        <ele>889.849</ele>
        <time>2020-06-24T11:42:27Z</time>
      </trkpt>
      <trkpt lat="43.82804" lon="7.50497">
        <ele>889.849</ele>
        <time>2020-06-24T11:42:42Z</time>
      </trkpt>
      <trkpt lat="43.82804" lon="7.50497">
        <ele>889.849</ele>
        <time>2020-06-24T11:42:58Z</time>
      </trkpt>
      <trkpt lat="43.82804" lon="7.50497">
        <ele>889.849</ele>
        <time>2020-06-24T11:43:14Z</time>
      </trkpt>
      <trkpt lat="43.82804" lon="7.50497">
        <ele>889.849</ele>
        <time>2020-06-24T11:43:29Z</time>
      </trkpt>
      <trkpt lat="43.82804" lon="7.50497">
        <ele>889.849</ele>
        <time>2020-06-24T11:43:45Z</time>
      </trkpt>
      <trkpt lat="43.82804" lon="7.50497">
        <ele>889.849</ele>
        <time>2020-06-24T11:44:01Z</time>
      </trkpt>
      <trkpt lat="43.82804" lon="7.50497">
        <ele>889.849</ele>
        <time>2020-06-24T11:44:16Z</time>
      </trkpt>
      <trkpt lat="43.82807" lon="7.50497">
        <ele>888.731</ele>
        <time>2020-06-24T11:44:32Z</time>
      </trkpt>
      <trkpt lat="43.82807" lon="7.50497">
        <ele>888.731</ele>
        <time>2020-06-24T11:44:47Z</time>
      </trkpt>
      <trkpt lat="43.82807" lon="7.50497">
        <ele>888.731</ele>
        <time>2020-06-24T11:45:02Z</time>
      </trkpt>
      <trkpt lat="43.82804" lon="7.50496">
        <ele>890.756</ele>
        <time>2020-06-24T11:45:21Z</time>
      </trkpt>
      <trkpt lat="43.82804" lon="7.50496">
        <ele>890.756</ele>
        <time>2020-06-24T11:45:36Z</time>
      </trkpt>
      <trkpt lat="43.82804" lon="7.50496">
        <ele>890.756</ele>
        <time>2020-06-24T11:45:51Z</time>
      </trkpt>
      <trkpt lat="43.82804" lon="7.50496">
        <ele>890.756</ele>
        <time>2020-06-24T11:46:07Z</time>
      </trkpt>
      <trkpt lat="43.82804" lon="7.50496">
        <ele>890.756</ele>
        <time>2020-06-24T11:46:22Z</time>
      </trkpt>
      <trkpt lat="43.82804" lon="7.50496">
        <ele>890.756</ele>
        <time>2020-06-24T11:46:37Z</time>
      </trkpt>
      <trkpt lat="43.82804" lon="7.50496">
        <ele>890.756</ele>
        <time>2020-06-24T11:46:53Z</time>
      </trkpt>
      <trkpt lat="43.82804" lon="7.50496">
        <ele>890.756</ele>
        <time>2020-06-24T11:47:09Z</time>
      </trkpt>
      <trkpt lat="43.82801" lon="7.50489">
        <ele>892.055</ele>
        <time>2020-06-24T11:47:25Z</time>
      </trkpt>
      <trkpt lat="43.82792" lon="7.50486">
        <ele>895.29</ele>
        <time>2020-06-24T11:47:40Z</time>
      </trkpt>
      <trkpt lat="43.82788" lon="7.50478">
        <ele>897.494</ele>
        <time>2020-06-24T11:47:56Z</time>
      </trkpt>
      <trkpt lat="43.82785" lon="7.50469">
        <ele>899.102</ele>
        <time>2020-06-24T11:48:12Z</time>
      </trkpt>
      <trkpt lat="43.82785" lon="7.50469">
        <ele>899.102</ele>
        <time>2020-06-24T11:48:28Z</time>
      </trkpt>
      <trkpt lat="43.82778" lon="7.50453">
        <ele>906.227</ele>
        <time>2020-06-24T11:48:43Z</time>
      </trkpt>
      <trkpt lat="43.82786" lon="7.50442">
        <ele>905.293</ele>
        <time>2020-06-24T11:48:58Z</time>
      </trkpt>
      <trkpt lat="43.8279" lon="7.5044">
        <ele>905.681</ele>
        <time>2020-06-24T11:49:13Z</time>
      </trkpt>
      <trkpt lat="43.8279" lon="7.5044">
        <ele>905.681</ele>
        <time>2020-06-24T11:49:29Z</time>
      </trkpt>
      <trkpt lat="43.82803" lon="7.50436">
        <ele>908.915</ele>
        <time>2020-06-24T11:49:44Z</time>
      </trkpt>
      <trkpt lat="43.82807" lon="7.50437">
        <ele>910.272</ele>
        <time>2020-06-24T11:50:00Z</time>
      </trkpt>
      <trkpt lat="43.82809" lon="7.50436">
        <ele>910.165</ele>
        <time>2020-06-24T11:50:15Z</time>
      </trkpt>
      <trkpt lat="43.82824" lon="7.50439">
        <ele>911.56</ele>
        <time>2020-06-24T11:50:31Z</time>
      </trkpt>
      <trkpt lat="43.82829" lon="7.50438">
        <ele>913.474</ele>
        <time>2020-06-24T11:50:47Z</time>
      </trkpt>
      <trkpt lat="43.82828" lon="7.50434">
        <ele>918.254</ele>
        <time>2020-06-24T11:51:02Z</time>
      </trkpt>
      <trkpt lat="43.82832" lon="7.50434">
        <ele>919.868</ele>
        <time>2020-06-24T11:51:18Z</time>
      </trkpt>
      <trkpt lat="43.82835" lon="7.50432">
        <ele>920.849</ele>
        <time>2020-06-24T11:51:33Z</time>
      </trkpt>
      <trkpt lat="43.82835" lon="7.50432">
        <ele>920.849</ele>
        <time>2020-06-24T11:51:49Z</time>
      </trkpt>
      <trkpt lat="43.82849" lon="7.50425">
        <ele>921.04</ele>
        <time>2020-06-24T11:52:04Z</time>
      </trkpt>
      <trkpt lat="43.82849" lon="7.50425">
        <ele>932.49</ele>
        <time>2020-06-24T11:52:19Z</time>
      </trkpt>
      <trkpt lat="43.82853" lon="7.5042">
        <ele>932.783</ele>
        <time>2020-06-24T11:52:35Z</time>
      </trkpt>
      <trkpt lat="43.82858" lon="7.50418">
        <ele>933.036</ele>
        <time>2020-06-24T11:52:51Z</time>
      </trkpt>
      <trkpt lat="43.82858" lon="7.50418">
        <ele>933.036</ele>
        <time>2020-06-24T11:53:07Z</time>
      </trkpt>
      <trkpt lat="43.82872" lon="7.50412">
        <ele>933.332</ele>
        <time>2020-06-24T11:53:22Z</time>
      </trkpt>
      <trkpt lat="43.82886" lon="7.50406">
        <ele>934.938</ele>
        <time>2020-06-24T11:53:38Z</time>
      </trkpt>
      <trkpt lat="43.82898" lon="7.50401">
        <ele>936.512</ele>
        <time>2020-06-24T11:53:54Z</time>
      </trkpt>
      <trkpt lat="43.82898" lon="7.50401">
        <ele>936.512</ele>
        <time>2020-06-24T11:54:10Z</time>
      </trkpt>
      <trkpt lat="43.82916" lon="7.50397">
        <ele>939.386</ele>
        <time>2020-06-24T11:54:25Z</time>
      </trkpt>
      <trkpt lat="43.82916" lon="7.50397">
        <ele>939.386</ele>
        <time>2020-06-24T11:54:41Z</time>
      </trkpt>
      <trkpt lat="43.82927" lon="7.50393">
        <ele>940.454</ele>
        <time>2020-06-24T11:54:56Z</time>
      </trkpt>
      <trkpt lat="43.82941" lon="7.50379">
        <ele>940.539</ele>
        <time>2020-06-24T11:55:11Z</time>
      </trkpt>
      <trkpt lat="43.82953" lon="7.50372">
        <ele>948.26</ele>
        <time>2020-06-24T11:55:27Z</time>
      </trkpt>
      <trkpt lat="43.82962" lon="7.50373">
        <ele>952.061</ele>
        <time>2020-06-24T11:55:42Z</time>
      </trkpt>
      <trkpt lat="43.82969" lon="7.50371">
        <ele>954.706</ele>
        <time>2020-06-24T11:55:58Z</time>
      </trkpt>
      <trkpt lat="43.8298" lon="7.50366">
        <ele>959.914</ele>
        <time>2020-06-24T11:56:14Z</time>
      </trkpt>
      <trkpt lat="43.8298" lon="7.50366">
        <ele>959.914</ele>
        <time>2020-06-24T11:56:29Z</time>
      </trkpt>
      <trkpt lat="43.82988" lon="7.50363">
        <ele>962.018</ele>
        <time>2020-06-24T11:56:45Z</time>
      </trkpt>
      <trkpt lat="43.8301" lon="7.50361">
        <ele>966.419</ele>
        <time>2020-06-24T11:57:01Z</time>
      </trkpt>
      <trkpt lat="43.83018" lon="7.50358">
        <ele>970.471</ele>
        <time>2020-06-24T11:57:17Z</time>
      </trkpt>
      <trkpt lat="43.83023" lon="7.50357">
        <ele>973.823</ele>
        <time>2020-06-24T11:57:32Z</time>
      </trkpt>
      <trkpt lat="43.83023" lon="7.50357">
        <ele>973.823</ele>
        <time>2020-06-24T11:57:48Z</time>
      </trkpt>
      <trkpt lat="43.83023" lon="7.50357">
        <ele>973.823</ele>
        <time>2020-06-24T11:58:03Z</time>
      </trkpt>
      <trkpt lat="43.83034" lon="7.50349">
        <ele>974.131</ele>
        <time>2020-06-24T11:58:19Z</time>
      </trkpt>
      <trkpt lat="43.83054" lon="7.50352">
        <ele>977.718</ele>
        <time>2020-06-24T11:58:35Z</time>
      </trkpt>
      <trkpt lat="43.83055" lon="7.50352">
        <ele>977.989</ele>
        <time>2020-06-24T11:58:50Z</time>
      </trkpt>
      <trkpt lat="43.83068" lon="7.50349">
        <ele>980.019</ele>
        <time>2020-06-24T11:59:05Z</time>
      </trkpt>
      <trkpt lat="43.83076" lon="7.50344">
        <ele>983.63</ele>
        <time>2020-06-24T11:59:21Z</time>
      </trkpt>
      <trkpt lat="43.83085" lon="7.50342">
        <ele>985.661</ele>
        <time>2020-06-24T11:59:37Z</time>
      </trkpt>
      <trkpt lat="43.83096" lon="7.5034">
        <ele>987.437</ele>
        <time>2020-06-24T11:59:53Z</time>
      </trkpt>
      <trkpt lat="43.83096" lon="7.5034">
        <ele>987.437</ele>
        <time>2020-06-24T12:00:08Z</time>
      </trkpt>
      <trkpt lat="43.83096" lon="7.5034">
        <ele>987.437</ele>
        <time>2020-06-24T12:00:23Z</time>
      </trkpt>
      <trkpt lat="43.83111" lon="7.50337">
        <ele>990.249</ele>
        <time>2020-06-24T12:00:39Z</time>
      </trkpt>
      <trkpt lat="43.8312" lon="7.50335">
        <ele>990.972</ele>
        <time>2020-06-24T12:00:55Z</time>
      </trkpt>
      <trkpt lat="43.83134" lon="7.50334">
        <ele>992.741</ele>
        <time>2020-06-24T12:01:11Z</time>
      </trkpt>
      <trkpt lat="43.83141" lon="7.50333">
        <ele>995.36</ele>
        <time>2020-06-24T12:01:26Z</time>
      </trkpt>
      <trkpt lat="43.8315" lon="7.50329">
        <ele>997.693</ele>
        <time>2020-06-24T12:01:42Z</time>
      </trkpt>
      <trkpt lat="43.8317" lon="7.50333">
        <ele>1002.256</ele>
        <time>2020-06-24T12:01:57Z</time>
      </trkpt>
      <trkpt lat="43.8318" lon="7.50335">
        <ele>1005.73</ele>
        <time>2020-06-24T12:02:13Z</time>
      </trkpt>
      <trkpt lat="43.83183" lon="7.50335">
        <ele>1005.893</ele>
        <time>2020-06-24T12:02:29Z</time>
      </trkpt>
      <trkpt lat="43.83191" lon="7.5033">
        <ele>1004.559</ele>
        <time>2020-06-24T12:02:44Z</time>
      </trkpt>
      <trkpt lat="43.83195" lon="7.50329">
        <ele>1005.166</ele>
        <time>2020-06-24T12:02:59Z</time>
      </trkpt>
      <trkpt lat="43.83199" lon="7.50323">
        <ele>1005.417</ele>
        <time>2020-06-24T12:03:15Z</time>
      </trkpt>
      <trkpt lat="43.83226" lon="7.50313">
        <ele>1006.675</ele>
        <time>2020-06-24T12:03:31Z</time>
      </trkpt>
      <trkpt lat="43.8325" lon="7.50311">
        <ele>1013.451</ele>
        <time>2020-06-24T12:03:47Z</time>
      </trkpt>
      <trkpt lat="43.83267" lon="7.50302">
        <ele>1011.315</ele>
        <time>2020-06-24T12:04:03Z</time>
      </trkpt>
      <trkpt lat="43.83285" lon="7.5031">
        <ele>1016.653</ele>
        <time>2020-06-24T12:04:19Z</time>
      </trkpt>
      <trkpt lat="43.83291" lon="7.50317">
        <ele>1016.929</ele>
        <time>2020-06-24T12:04:35Z</time>
      </trkpt>
      <trkpt lat="43.83294" lon="7.50319">
        <ele>1020.354</ele>
        <time>2020-06-24T12:04:51Z</time>
      </trkpt>
      <trkpt lat="43.83302" lon="7.50318">
        <ele>1021.657</ele>
        <time>2020-06-24T12:05:07Z</time>
      </trkpt>
      <trkpt lat="43.83323" lon="7.50317">
        <ele>1021.948</ele>
        <time>2020-06-24T12:05:23Z</time>
      </trkpt>
      <trkpt lat="43.83338" lon="7.50326">
        <ele>1022.036</ele>
        <time>2020-06-24T12:05:39Z</time>
      </trkpt>
      <trkpt lat="43.83362" lon="7.50329">
        <ele>1024.162</ele>
        <time>2020-06-24T12:05:54Z</time>
      </trkpt>
      <trkpt lat="43.83377" lon="7.50332">
        <ele>1026.04</ele>
        <time>2020-06-24T12:06:10Z</time>
      </trkpt>
      <trkpt lat="43.83385" lon="7.50328">
        <ele>1027.123</ele>
        <time>2020-06-24T12:06:25Z</time>
      </trkpt>
      <trkpt lat="43.83392" lon="7.50329">
        <ele>1028.186</ele>
        <time>2020-06-24T12:06:40Z</time>
      </trkpt>
      <trkpt lat="43.83404" lon="7.50332">
        <ele>1027.758</ele>
        <time>2020-06-24T12:06:56Z</time>
      </trkpt>
      <trkpt lat="43.83423" lon="7.50334">
        <ele>1030.167</ele>
        <time>2020-06-24T12:07:12Z</time>
      </trkpt>
      <trkpt lat="43.83444" lon="7.50344">
        <ele>1035.48</ele>
        <time>2020-06-24T12:07:28Z</time>
      </trkpt>
      <trkpt lat="43.83459" lon="7.50351">
        <ele>1034.567</ele>
        <time>2020-06-24T12:07:44Z</time>
      </trkpt>
      <trkpt lat="43.83467" lon="7.50353">
        <ele>1035.371</ele>
        <time>2020-06-24T12:07:59Z</time>
      </trkpt>
      <trkpt lat="43.83477" lon="7.50352">
        <ele>1037.156</ele>
        <time>2020-06-24T12:08:14Z</time>
      </trkpt>
      <trkpt lat="43.83489" lon="7.50354">
        <ele>1037.743</ele>
        <time>2020-06-24T12:08:29Z</time>
      </trkpt>
      <trkpt lat="43.83511" lon="7.50362">
        <ele>1039.506</ele>
        <time>2020-06-24T12:08:45Z</time>
      </trkpt>
      <trkpt lat="43.83528" lon="7.50362">
        <ele>1040.763</ele>
        <time>2020-06-24T12:09:01Z</time>
      </trkpt>
      <trkpt lat="43.83537" lon="7.5036">
        <ele>1040.972</ele>
        <time>2020-06-24T12:09:16Z</time>
      </trkpt>
      <trkpt lat="43.83553" lon="7.50357">
        <ele>1040.657</ele>
        <time>2020-06-24T12:09:31Z</time>
      </trkpt>
      <trkpt lat="43.83562" lon="7.50348">
        <ele>1043.827</ele>
        <time>2020-06-24T12:09:47Z</time>
      </trkpt>
      <trkpt lat="43.83574" lon="7.50344">
        <ele>1045.374</ele>
        <time>2020-06-24T12:10:03Z</time>
      </trkpt>
      <trkpt lat="43.83582" lon="7.50342">
        <ele>1046.238</ele>
        <time>2020-06-24T12:10:18Z</time>
      </trkpt>
      <trkpt lat="43.8359" lon="7.50344">
        <ele>1046.951</ele>
        <time>2020-06-24T12:10:33Z</time>
      </trkpt>
      <trkpt lat="43.83594" lon="7.50345">
        <ele>1049.396</ele>
        <time>2020-06-24T12:10:49Z</time>
      </trkpt>
      <trkpt lat="43.83605" lon="7.50345">
        <ele>1051.036</ele>
        <time>2020-06-24T12:11:05Z</time>
      </trkpt>
      <trkpt lat="43.83605" lon="7.50345">
        <ele>1051.036</ele>
        <time>2020-06-24T12:11:21Z</time>
      </trkpt>
      <trkpt lat="43.83605" lon="7.50345">
        <ele>1051.036</ele>
        <time>2020-06-24T12:11:36Z</time>
      </trkpt>
      <trkpt lat="43.83605" lon="7.50345">
        <ele>1051.036</ele>
        <time>2020-06-24T12:11:52Z</time>
      </trkpt>
      <trkpt lat="43.83605" lon="7.50345">
        <ele>1051.036</ele>
        <time>2020-06-24T12:12:08Z</time>
      </trkpt>
      <trkpt lat="43.83605" lon="7.50345">
        <ele>1051.036</ele>
        <time>2020-06-24T12:12:23Z</time>
      </trkpt>
      <trkpt lat="43.83605" lon="7.50345">
        <ele>1051.036</ele>
        <time>2020-06-24T12:12:39Z</time>
      </trkpt>
      <trkpt lat="43.83605" lon="7.50345">
        <ele>1051.036</ele>
        <time>2020-06-24T12:12:55Z</time>
      </trkpt>
      <trkpt lat="43.83605" lon="7.50345">
        <ele>1051.036</ele>
        <time>2020-06-24T12:13:11Z</time>
      </trkpt>
      <trkpt lat="43.83605" lon="7.50345">
        <ele>1051.036</ele>
        <time>2020-06-24T12:13:26Z</time>
      </trkpt>
      <trkpt lat="43.83606" lon="7.50346">
        <ele>1052.762</ele>
        <time>2020-06-24T12:13:42Z</time>
      </trkpt>
      <trkpt lat="43.83606" lon="7.50346">
        <ele>1052.762</ele>
        <time>2020-06-24T12:13:58Z</time>
      </trkpt>
      <trkpt lat="43.83606" lon="7.50346">
        <ele>1052.762</ele>
        <time>2020-06-24T12:14:14Z</time>
      </trkpt>
      <trkpt lat="43.83612" lon="7.50343">
        <ele>1054.197</ele>
        <time>2020-06-24T12:14:30Z</time>
      </trkpt>
      <trkpt lat="43.83627" lon="7.50342">
        <ele>1057.3</ele>
        <time>2020-06-24T12:14:46Z</time>
      </trkpt>
      <trkpt lat="43.83642" lon="7.50345">
        <ele>1058.47</ele>
        <time>2020-06-24T12:15:02Z</time>
      </trkpt>
      <trkpt lat="43.83647" lon="7.50346">
        <ele>1061.749</ele>
        <time>2020-06-24T12:15:18Z</time>
      </trkpt>
      <trkpt lat="43.83647" lon="7.50346">
        <ele>1062.048</ele>
        <time>2020-06-24T12:15:33Z</time>
      </trkpt>
      <trkpt lat="43.83647" lon="7.50346">
        <ele>1062.048</ele>
        <time>2020-06-24T12:15:48Z</time>
      </trkpt>
      <trkpt lat="43.83661" lon="7.50341">
        <ele>1063.384</ele>
        <time>2020-06-24T12:16:04Z</time>
      </trkpt>
      <trkpt lat="43.83687" lon="7.5033">
        <ele>1067.954</ele>
        <time>2020-06-24T12:16:20Z</time>
      </trkpt>
      <trkpt lat="43.83696" lon="7.50327">
        <ele>1067.667</ele>
        <time>2020-06-24T12:16:35Z</time>
      </trkpt>
      <trkpt lat="43.83704" lon="7.50327">
        <ele>1067.29</ele>
        <time>2020-06-24T12:16:51Z</time>
      </trkpt>
      <trkpt lat="43.83704" lon="7.50327">
        <ele>1067.29</ele>
        <time>2020-06-24T12:17:07Z</time>
      </trkpt>
      <trkpt lat="43.83723" lon="7.50319">
        <ele>1069.283</ele>
        <time>2020-06-24T12:17:23Z</time>
      </trkpt>
      <trkpt lat="43.8373" lon="7.50315">
        <ele>1070.924</ele>
        <time>2020-06-24T12:17:38Z</time>
      </trkpt>
      <trkpt lat="43.83742" lon="7.50313">
        <ele>1072.539</ele>
        <time>2020-06-24T12:17:54Z</time>
      </trkpt>
      <trkpt lat="43.83746" lon="7.50311">
        <ele>1072.95</ele>
        <time>2020-06-24T12:18:09Z</time>
      </trkpt>
      <trkpt lat="43.83766" lon="7.50309">
        <ele>1074.07</ele>
        <time>2020-06-24T12:18:25Z</time>
      </trkpt>
      <trkpt lat="43.83778" lon="7.50304">
        <ele>1079.457</ele>
        <time>2020-06-24T12:18:40Z</time>
      </trkpt>
      <trkpt lat="43.83782" lon="7.50303">
        <ele>1082.285</ele>
        <time>2020-06-24T12:18:56Z</time>
      </trkpt>
      <trkpt lat="43.83782" lon="7.50303">
        <ele>1082.285</ele>
        <time>2020-06-24T12:19:12Z</time>
      </trkpt>
      <trkpt lat="43.83795" lon="7.50297">
        <ele>1086.859</ele>
        <time>2020-06-24T12:19:27Z</time>
      </trkpt>
      <trkpt lat="43.83805" lon="7.50291">
        <ele>1090.818</ele>
        <time>2020-06-24T12:19:43Z</time>
      </trkpt>
      <trkpt lat="43.83818" lon="7.50282">
        <ele>1094.843</ele>
        <time>2020-06-24T12:19:58Z</time>
      </trkpt>
      <trkpt lat="43.83828" lon="7.50279">
        <ele>1099.682</ele>
        <time>2020-06-24T12:20:13Z</time>
      </trkpt>
      <trkpt lat="43.83843" lon="7.50277">
        <ele>1102.69</ele>
        <time>2020-06-24T12:20:29Z</time>
      </trkpt>
      <trkpt lat="43.83851" lon="7.50276">
        <ele>1102.911</ele>
        <time>2020-06-24T12:20:45Z</time>
      </trkpt>
      <trkpt lat="43.83866" lon="7.50277">
        <ele>1101.742</ele>
        <time>2020-06-24T12:21:01Z</time>
      </trkpt>
      <trkpt lat="43.83871" lon="7.50272">
        <ele>1110.949</ele>
        <time>2020-06-24T12:21:16Z</time>
      </trkpt>
      <trkpt lat="43.8388" lon="7.50271">
        <ele>1110.734</ele>
        <time>2020-06-24T12:21:32Z</time>
      </trkpt>
      <trkpt lat="43.83893" lon="7.50273">
        <ele>1113.5</ele>
        <time>2020-06-24T12:21:48Z</time>
      </trkpt>
      <trkpt lat="43.83909" lon="7.50275">
        <ele>1114.619</ele>
        <time>2020-06-24T12:22:04Z</time>
      </trkpt>
      <trkpt lat="43.83915" lon="7.50267">
        <ele>1123.558</ele>
        <time>2020-06-24T12:22:20Z</time>
      </trkpt>
      <trkpt lat="43.83922" lon="7.50262">
        <ele>1127.348</ele>
        <time>2020-06-24T12:22:36Z</time>
      </trkpt>
      <trkpt lat="43.83921" lon="7.5026">
        <ele>1127.831</ele>
        <time>2020-06-24T12:22:52Z</time>
      </trkpt>
      <trkpt lat="43.83921" lon="7.50259">
        <ele>1126.943</ele>
        <time>2020-06-24T12:23:08Z</time>
      </trkpt>
      <trkpt lat="43.83927" lon="7.50254">
        <ele>1127.614</ele>
        <time>2020-06-24T12:23:24Z</time>
      </trkpt>
      <trkpt lat="43.83944" lon="7.50243">
        <ele>1129.891</ele>
        <time>2020-06-24T12:23:40Z</time>
      </trkpt>
      <trkpt lat="43.83958" lon="7.50233">
        <ele>1131.152</ele>
        <time>2020-06-24T12:23:55Z</time>
      </trkpt>
      <trkpt lat="43.83971" lon="7.50218">
        <ele>1131.207</ele>
        <time>2020-06-24T12:24:11Z</time>
      </trkpt>
      <trkpt lat="43.83987" lon="7.50206">
        <ele>1130.666</ele>
        <time>2020-06-24T12:24:27Z</time>
      </trkpt>
      <trkpt lat="43.83998" lon="7.50198">
        <ele>1129.284</ele>
        <time>2020-06-24T12:24:42Z</time>
      </trkpt>
      <trkpt lat="43.84017" lon="7.50191">
        <ele>1124.661</ele>
        <time>2020-06-24T12:24:58Z</time>
      </trkpt>
      <trkpt lat="43.84032" lon="7.50177">
        <ele>1124.774</ele>
        <time>2020-06-24T12:25:13Z</time>
      </trkpt>
      <trkpt lat="43.84043" lon="7.50166">
        <ele>1128.077</ele>
        <time>2020-06-24T12:25:29Z</time>
      </trkpt>
      <trkpt lat="43.84059" lon="7.50158">
        <ele>1128.221</ele>
        <time>2020-06-24T12:25:45Z</time>
      </trkpt>
      <trkpt lat="43.84069" lon="7.50154">
        <ele>1131.913</ele>
        <time>2020-06-24T12:26:00Z</time>
      </trkpt>
      <trkpt lat="43.84069" lon="7.50154">
        <ele>1132.168</ele>
        <time>2020-06-24T12:26:15Z</time>
      </trkpt>
      <trkpt lat="43.84076" lon="7.50153">
        <ele>1134.091</ele>
        <time>2020-06-24T12:26:31Z</time>
      </trkpt>
      <trkpt lat="43.84079" lon="7.50154">
        <ele>1135.467</ele>
        <time>2020-06-24T12:26:47Z</time>
      </trkpt>
      <trkpt lat="43.84079" lon="7.50154">
        <ele>1135.467</ele>
        <time>2020-06-24T12:27:02Z</time>
      </trkpt>
      <trkpt lat="43.84091" lon="7.50153">
        <ele>1136.766</ele>
        <time>2020-06-24T12:27:17Z</time>
      </trkpt>
      <trkpt lat="43.84114" lon="7.50156">
        <ele>1143.758</ele>
        <time>2020-06-24T12:27:33Z</time>
      </trkpt>
      <trkpt lat="43.84121" lon="7.50155">
        <ele>1144.361</ele>
        <time>2020-06-24T12:27:49Z</time>
      </trkpt>
      <trkpt lat="43.84135" lon="7.50161">
        <ele>1145.185</ele>
        <time>2020-06-24T12:28:04Z</time>
      </trkpt>
      <trkpt lat="43.84135" lon="7.50161">
        <ele>1145.185</ele>
        <time>2020-06-24T12:28:20Z</time>
      </trkpt>
      <trkpt lat="43.84153" lon="7.50155">
        <ele>1146.332</ele>
        <time>2020-06-24T12:28:35Z</time>
      </trkpt>
      <trkpt lat="43.84165" lon="7.50152">
        <ele>1148.762</ele>
        <time>2020-06-24T12:28:50Z</time>
      </trkpt>
      <trkpt lat="43.84169" lon="7.50151">
        <ele>1150.569</ele>
        <time>2020-06-24T12:29:06Z</time>
      </trkpt>
      <trkpt lat="43.84194" lon="7.50149">
        <ele>1152.037</ele>
        <time>2020-06-24T12:29:22Z</time>
      </trkpt>
      <trkpt lat="43.84205" lon="7.50143">
        <ele>1155.9</ele>
        <time>2020-06-24T12:29:37Z</time>
      </trkpt>
      <trkpt lat="43.8422" lon="7.50138">
        <ele>1161.436</ele>
        <time>2020-06-24T12:29:52Z</time>
      </trkpt>
      <trkpt lat="43.84228" lon="7.50139">
        <ele>1161.384</ele>
        <time>2020-06-24T12:30:08Z</time>
      </trkpt>
      <trkpt lat="43.84242" lon="7.50135">
        <ele>1159.96</ele>
        <time>2020-06-24T12:30:23Z</time>
      </trkpt>
      <trkpt lat="43.84254" lon="7.50128">
        <ele>1162.073</ele>
        <time>2020-06-24T12:30:39Z</time>
      </trkpt>
      <trkpt lat="43.84254" lon="7.50127">
        <ele>1162.312</ele>
        <time>2020-06-24T12:30:55Z</time>
      </trkpt>
      <trkpt lat="43.84254" lon="7.50127">
        <ele>1162.312</ele>
        <time>2020-06-24T12:31:11Z</time>
      </trkpt>
      <trkpt lat="43.84254" lon="7.50129">
        <ele>1161.27</ele>
        <time>2020-06-24T12:31:27Z</time>
      </trkpt>
      <trkpt lat="43.84255" lon="7.50133">
        <ele>1160.101</ele>
        <time>2020-06-24T12:31:43Z</time>
      </trkpt>
      <trkpt lat="43.84256" lon="7.50127">
        <ele>1161.344</ele>
        <time>2020-06-24T12:31:59Z</time>
      </trkpt>
      <trkpt lat="43.84263" lon="7.5011">
        <ele>1159.21</ele>
        <time>2020-06-24T12:32:14Z</time>
      </trkpt>
      <trkpt lat="43.84268" lon="7.50094">
        <ele>1159.624</ele>
        <time>2020-06-24T12:32:30Z</time>
      </trkpt>
      <trkpt lat="43.84278" lon="7.50086">
        <ele>1159.995</ele>
        <time>2020-06-24T12:32:46Z</time>
      </trkpt>
      <trkpt lat="43.8429" lon="7.50074">
        <ele>1158.953</ele>
        <time>2020-06-24T12:33:02Z</time>
      </trkpt>
      <trkpt lat="43.84306" lon="7.50055">
        <ele>1158.377</ele>
        <time>2020-06-24T12:33:18Z</time>
      </trkpt>
      <trkpt lat="43.84318" lon="7.50044">
        <ele>1155.228</ele>
        <time>2020-06-24T12:33:33Z</time>
      </trkpt>
      <trkpt lat="43.84321" lon="7.50034">
        <ele>1153.885</ele>
        <time>2020-06-24T12:33:49Z</time>
      </trkpt>
      <trkpt lat="43.84321" lon="7.50034">
        <ele>1153.885</ele>
        <time>2020-06-24T12:34:04Z</time>
      </trkpt>
      <trkpt lat="43.84337" lon="7.50028">
        <ele>1152.723</ele>
        <time>2020-06-24T12:34:20Z</time>
      </trkpt>
      <trkpt lat="43.84337" lon="7.50028">
        <ele>1152.723</ele>
        <time>2020-06-24T12:34:35Z</time>
      </trkpt>
      <trkpt lat="43.84356" lon="7.50015">
        <ele>1151.047</ele>
        <time>2020-06-24T12:34:50Z</time>
      </trkpt>
      <trkpt lat="43.84368" lon="7.49999">
        <ele>1148.245</ele>
        <time>2020-06-24T12:35:06Z</time>
      </trkpt>
      <trkpt lat="43.84377" lon="7.49982">
        <ele>1144.14</ele>
        <time>2020-06-24T12:35:22Z</time>
      </trkpt>
      <trkpt lat="43.84383" lon="7.49969">
        <ele>1140.977</ele>
        <time>2020-06-24T12:35:37Z</time>
      </trkpt>
      <trkpt lat="43.84396" lon="7.49959">
        <ele>1137.371</ele>
        <time>2020-06-24T12:35:53Z</time>
      </trkpt>
      <trkpt lat="43.84401" lon="7.49956">
        <ele>1134.872</ele>
        <time>2020-06-24T12:36:09Z</time>
      </trkpt>
      <trkpt lat="43.84407" lon="7.49947">
        <ele>1133.239</ele>
        <time>2020-06-24T12:36:25Z</time>
      </trkpt>
      <trkpt lat="43.84407" lon="7.49947">
        <ele>1133.239</ele>
        <time>2020-06-24T12:36:41Z</time>
      </trkpt>
      <trkpt lat="43.84407" lon="7.49947">
        <ele>1133.239</ele>
        <time>2020-06-24T12:36:57Z</time>
      </trkpt>
      <trkpt lat="43.84411" lon="7.49941">
        <ele>1132.749</ele>
        <time>2020-06-24T12:37:13Z</time>
      </trkpt>
      <trkpt lat="43.84418" lon="7.49931">
        <ele>1131.783</ele>
        <time>2020-06-24T12:37:29Z</time>
      </trkpt>
      <trkpt lat="43.84419" lon="7.49917">
        <ele>1126.51</ele>
        <time>2020-06-24T12:37:45Z</time>
      </trkpt>
      <trkpt lat="43.84427" lon="7.49885">
        <ele>1120.593</ele>
        <time>2020-06-24T12:38:01Z</time>
      </trkpt>
      <trkpt lat="43.84433" lon="7.49861">
        <ele>1116.791</ele>
        <time>2020-06-24T12:38:17Z</time>
      </trkpt>
      <trkpt lat="43.84436" lon="7.49839">
        <ele>1113.779</ele>
        <time>2020-06-24T12:38:33Z</time>
      </trkpt>
      <trkpt lat="43.84438" lon="7.49831">
        <ele>1115.172</ele>
        <time>2020-06-24T12:38:49Z</time>
      </trkpt>
      <trkpt lat="43.84441" lon="7.49814">
        <ele>1113.328</ele>
        <time>2020-06-24T12:39:05Z</time>
      </trkpt>
      <trkpt lat="43.84443" lon="7.49802">
        <ele>1110.867</ele>
        <time>2020-06-24T12:39:20Z</time>
      </trkpt>
      <trkpt lat="43.84452" lon="7.49777">
        <ele>1108.306</ele>
        <time>2020-06-24T12:39:36Z</time>
      </trkpt>
      <trkpt lat="43.8446" lon="7.4976">
        <ele>1102.9</ele>
        <time>2020-06-24T12:39:52Z</time>
      </trkpt>
      <trkpt lat="43.84467" lon="7.49751">
        <ele>1101.303</ele>
        <time>2020-06-24T12:40:07Z</time>
      </trkpt>
      <trkpt lat="43.84476" lon="7.49736">
        <ele>1101.202</ele>
        <time>2020-06-24T12:40:22Z</time>
      </trkpt>
      <trkpt lat="43.84489" lon="7.4972">
        <ele>1097.604</ele>
        <time>2020-06-24T12:40:38Z</time>
      </trkpt>
      <trkpt lat="43.84495" lon="7.49699">
        <ele>1094.836</ele>
        <time>2020-06-24T12:40:54Z</time>
      </trkpt>
      <trkpt lat="43.84498" lon="7.49685">
        <ele>1092.742</ele>
        <time>2020-06-24T12:41:10Z</time>
      </trkpt>
      <trkpt lat="43.84505" lon="7.49668">
        <ele>1091.436</ele>
        <time>2020-06-24T12:41:25Z</time>
      </trkpt>
      <trkpt lat="43.84515" lon="7.49649">
        <ele>1091.09</ele>
        <time>2020-06-24T12:41:41Z</time>
      </trkpt>
      <trkpt lat="43.84527" lon="7.49633">
        <ele>1089.832</ele>
        <time>2020-06-24T12:41:56Z</time>
      </trkpt>
      <trkpt lat="43.84537" lon="7.49617">
        <ele>1089.19</ele>
        <time>2020-06-24T12:42:12Z</time>
      </trkpt>
      <trkpt lat="43.84547" lon="7.49596">
        <ele>1088.433</ele>
        <time>2020-06-24T12:42:28Z</time>
      </trkpt>
      <trkpt lat="43.84554" lon="7.49578">
        <ele>1086.069</ele>
        <time>2020-06-24T12:42:44Z</time>
      </trkpt>
      <trkpt lat="43.84562" lon="7.49557">
        <ele>1083.904</ele>
        <time>2020-06-24T12:43:00Z</time>
      </trkpt>
      <trkpt lat="43.84564" lon="7.49543">
        <ele>1083.768</ele>
        <time>2020-06-24T12:43:15Z</time>
      </trkpt>
      <trkpt lat="43.84573" lon="7.49526">
        <ele>1083.861</ele>
        <time>2020-06-24T12:43:31Z</time>
      </trkpt>
      <trkpt lat="43.84573" lon="7.49521">
        <ele>1082.68</ele>
        <time>2020-06-24T12:43:46Z</time>
      </trkpt>
      <trkpt lat="43.84576" lon="7.49511">
        <ele>1082.668</ele>
        <time>2020-06-24T12:44:02Z</time>
      </trkpt>
      <trkpt lat="43.8458" lon="7.49493">
        <ele>1081.15</ele>
        <time>2020-06-24T12:44:17Z</time>
      </trkpt>
      <trkpt lat="43.84583" lon="7.49471">
        <ele>1077.21</ele>
        <time>2020-06-24T12:44:32Z</time>
      </trkpt>
      <trkpt lat="43.84589" lon="7.4945">
        <ele>1074.476</ele>
        <time>2020-06-24T12:44:48Z</time>
      </trkpt>
      <trkpt lat="43.84594" lon="7.49432">
        <ele>1071.715</ele>
        <time>2020-06-24T12:45:04Z</time>
      </trkpt>
      <trkpt lat="43.84598" lon="7.49413">
        <ele>1071.686</ele>
        <time>2020-06-24T12:45:19Z</time>
      </trkpt>
      <trkpt lat="43.846" lon="7.49394">
        <ele>1071.062</ele>
        <time>2020-06-24T12:45:35Z</time>
      </trkpt>
      <trkpt lat="43.846" lon="7.49391">
        <ele>1070.659</ele>
        <time>2020-06-24T12:45:50Z</time>
      </trkpt>
      <trkpt lat="43.84604" lon="7.49383">
        <ele>1069.565</ele>
        <time>2020-06-24T12:46:05Z</time>
      </trkpt>
      <trkpt lat="43.84616" lon="7.49369">
        <ele>1068.851</ele>
        <time>2020-06-24T12:46:21Z</time>
      </trkpt>
      <trkpt lat="43.84624" lon="7.49356">
        <ele>1071.66</ele>
        <time>2020-06-24T12:46:37Z</time>
      </trkpt>
      <trkpt lat="43.84638" lon="7.49346">
        <ele>1069.877</ele>
        <time>2020-06-24T12:46:53Z</time>
      </trkpt>
      <trkpt lat="43.84659" lon="7.49339">
        <ele>1068.059</ele>
        <time>2020-06-24T12:47:08Z</time>
      </trkpt>
      <trkpt lat="43.84671" lon="7.49321">
        <ele>1067.407</ele>
        <time>2020-06-24T12:47:24Z</time>
      </trkpt>
      <trkpt lat="43.84685" lon="7.49308">
        <ele>1071.439</ele>
        <time>2020-06-24T12:47:40Z</time>
      </trkpt>
      <trkpt lat="43.8469" lon="7.49289">
        <ele>1073.619</ele>
        <time>2020-06-24T12:47:55Z</time>
      </trkpt>
      <trkpt lat="43.84704" lon="7.49276">
        <ele>1070.857</ele>
        <time>2020-06-24T12:48:11Z</time>
      </trkpt>
      <trkpt lat="43.84712" lon="7.49256">
        <ele>1065.736</ele>
        <time>2020-06-24T12:48:27Z</time>
      </trkpt>
      <trkpt lat="43.8472" lon="7.49245">
        <ele>1068.73</ele>
        <time>2020-06-24T12:48:43Z</time>
      </trkpt>
      <trkpt lat="43.8472" lon="7.49233">
        <ele>1071.904</ele>
        <time>2020-06-24T12:48:59Z</time>
      </trkpt>
      <trkpt lat="43.8472" lon="7.49233">
        <ele>1073.152</ele>
        <time>2020-06-24T12:49:15Z</time>
      </trkpt>
      <trkpt lat="43.84711" lon="7.4921">
        <ele>1080.389</ele>
        <time>2020-06-24T12:49:31Z</time>
      </trkpt>
      <trkpt lat="43.84712" lon="7.49203">
        <ele>1079.519</ele>
        <time>2020-06-24T12:49:47Z</time>
      </trkpt>
      <trkpt lat="43.84714" lon="7.49189">
        <ele>1078.509</ele>
        <time>2020-06-24T12:50:03Z</time>
      </trkpt>
      <trkpt lat="43.84725" lon="7.49167">
        <ele>1075.265</ele>
        <time>2020-06-24T12:50:19Z</time>
      </trkpt>
      <trkpt lat="43.84735" lon="7.49151">
        <ele>1075.83</ele>
        <time>2020-06-24T12:50:35Z</time>
      </trkpt>
      <trkpt lat="43.84741" lon="7.49132">
        <ele>1077.858</ele>
        <time>2020-06-24T12:50:51Z</time>
      </trkpt>
      <trkpt lat="43.84744" lon="7.49127">
        <ele>1078.496</ele>
        <time>2020-06-24T12:51:06Z</time>
      </trkpt>
      <trkpt lat="43.84765" lon="7.49091">
        <ele>1080.951</ele>
        <time>2020-06-24T12:51:22Z</time>
      </trkpt>
      <trkpt lat="43.84765" lon="7.49091">
        <ele>1080.951</ele>
        <time>2020-06-24T12:51:37Z</time>
      </trkpt>
      <trkpt lat="43.84773" lon="7.49062">
        <ele>1076.824</ele>
        <time>2020-06-24T12:51:53Z</time>
      </trkpt>
      <trkpt lat="43.84785" lon="7.49049">
        <ele>1077.237</ele>
        <time>2020-06-24T12:52:09Z</time>
      </trkpt>
      <trkpt lat="43.84793" lon="7.49024">
        <ele>1080.382</ele>
        <time>2020-06-24T12:52:25Z</time>
      </trkpt>
      <trkpt lat="43.84794" lon="7.49022">
        <ele>1080.772</ele>
        <time>2020-06-24T12:52:40Z</time>
      </trkpt>
      <trkpt lat="43.84797" lon="7.49006">
        <ele>1080.953</ele>
        <time>2020-06-24T12:52:55Z</time>
      </trkpt>
      <trkpt lat="43.84813" lon="7.48972">
        <ele>1083.542</ele>
        <time>2020-06-24T12:53:11Z</time>
      </trkpt>
      <trkpt lat="43.84817" lon="7.48962">
        <ele>1083.889</ele>
        <time>2020-06-24T12:53:26Z</time>
      </trkpt>
      <trkpt lat="43.84829" lon="7.4895">
        <ele>1087.794</ele>
        <time>2020-06-24T12:53:41Z</time>
      </trkpt>
      <trkpt lat="43.84832" lon="7.48942">
        <ele>1090.583</ele>
        <time>2020-06-24T12:53:56Z</time>
      </trkpt>
      <trkpt lat="43.84841" lon="7.48927">
        <ele>1091.317</ele>
        <time>2020-06-24T12:54:12Z</time>
      </trkpt>
      <trkpt lat="43.84851" lon="7.48914">
        <ele>1090.86</ele>
        <time>2020-06-24T12:54:27Z</time>
      </trkpt>
      <trkpt lat="43.84851" lon="7.48914">
        <ele>1090.86</ele>
        <time>2020-06-24T12:54:42Z</time>
      </trkpt>
      <trkpt lat="43.84866" lon="7.48895">
        <ele>1090.555</ele>
        <time>2020-06-24T12:54:57Z</time>
      </trkpt>
      <trkpt lat="43.84879" lon="7.48883">
        <ele>1090.4</ele>
        <time>2020-06-24T12:55:13Z</time>
      </trkpt>
      <trkpt lat="43.8489" lon="7.48863">
        <ele>1091.17</ele>
        <time>2020-06-24T12:55:29Z</time>
      </trkpt>
      <trkpt lat="43.84911" lon="7.48841">
        <ele>1095.069</ele>
        <time>2020-06-24T12:55:44Z</time>
      </trkpt>
      <trkpt lat="43.84925" lon="7.48832">
        <ele>1094.453</ele>
        <time>2020-06-24T12:56:00Z</time>
      </trkpt>
      <trkpt lat="43.84935" lon="7.48818">
        <ele>1096.659</ele>
        <time>2020-06-24T12:56:16Z</time>
      </trkpt>
      <trkpt lat="43.84935" lon="7.48818">
        <ele>1096.659</ele>
        <time>2020-06-24T12:56:31Z</time>
      </trkpt>
      <trkpt lat="43.84939" lon="7.48812">
        <ele>1094.412</ele>
        <time>2020-06-24T12:56:47Z</time>
      </trkpt>
      <trkpt lat="43.84947" lon="7.48791">
        <ele>1092.256</ele>
        <time>2020-06-24T12:57:02Z</time>
      </trkpt>
      <trkpt lat="43.84954" lon="7.48765">
        <ele>1093.746</ele>
        <time>2020-06-24T12:57:17Z</time>
      </trkpt>
      <trkpt lat="43.84962" lon="7.48745">
        <ele>1089.997</ele>
        <time>2020-06-24T12:57:32Z</time>
      </trkpt>
      <trkpt lat="43.84979" lon="7.48713">
        <ele>1083.71</ele>
        <time>2020-06-24T12:57:48Z</time>
      </trkpt>
      <trkpt lat="43.84987" lon="7.48682">
        <ele>1082.398</ele>
        <time>2020-06-24T12:58:03Z</time>
      </trkpt>
      <trkpt lat="43.84992" lon="7.48672">
        <ele>1080.78</ele>
        <time>2020-06-24T12:58:19Z</time>
      </trkpt>
      <trkpt lat="43.85001" lon="7.48675">
        <ele>1079.902</ele>
        <time>2020-06-24T12:58:34Z</time>
      </trkpt>
      <trkpt lat="43.85001" lon="7.48675">
        <ele>1079.308</ele>
        <time>2020-06-24T12:58:50Z</time>
      </trkpt>
      <trkpt lat="43.85001" lon="7.48675">
        <ele>1079.308</ele>
        <time>2020-06-24T12:59:05Z</time>
      </trkpt>
      <trkpt lat="43.84997" lon="7.48668">
        <ele>1085.546</ele>
        <time>2020-06-24T12:59:21Z</time>
      </trkpt>
      <trkpt lat="43.84997" lon="7.48668">
        <ele>1085.889</ele>
        <time>2020-06-24T12:59:37Z</time>
      </trkpt>
      <trkpt lat="43.85003" lon="7.48663">
        <ele>1084.249</ele>
        <time>2020-06-24T12:59:53Z</time>
      </trkpt>
      <trkpt lat="43.8501" lon="7.4866">
        <ele>1081.002</ele>
        <time>2020-06-24T13:00:09Z</time>
      </trkpt>
      <trkpt lat="43.85019" lon="7.48651">
        <ele>1079.14</ele>
        <time>2020-06-24T13:00:25Z</time>
      </trkpt>
      <trkpt lat="43.8502" lon="7.48649">
        <ele>1078.761</ele>
        <time>2020-06-24T13:00:40Z</time>
      </trkpt>
      <trkpt lat="43.8502" lon="7.48649">
        <ele>1078.761</ele>
        <time>2020-06-24T13:00:56Z</time>
      </trkpt>
      <trkpt lat="43.85029" lon="7.48639">
        <ele>1075.863</ele>
        <time>2020-06-24T13:01:12Z</time>
      </trkpt>
      <trkpt lat="43.85035" lon="7.48634">
        <ele>1075.194</ele>
        <time>2020-06-24T13:01:28Z</time>
      </trkpt>
      <trkpt lat="43.85041" lon="7.48622">
        <ele>1076.128</ele>
        <time>2020-06-24T13:01:43Z</time>
      </trkpt>
      <trkpt lat="43.85041" lon="7.48622">
        <ele>1076.128</ele>
        <time>2020-06-24T13:01:59Z</time>
      </trkpt>
      <trkpt lat="43.8506" lon="7.48596">
        <ele>1075.046</ele>
        <time>2020-06-24T13:02:15Z</time>
      </trkpt>
      <trkpt lat="43.85075" lon="7.48593">
        <ele>1073.99</ele>
        <time>2020-06-24T13:02:30Z</time>
      </trkpt>
      <trkpt lat="43.85091" lon="7.4858">
        <ele>1073.265</ele>
        <time>2020-06-24T13:02:46Z</time>
      </trkpt>
      <trkpt lat="43.85096" lon="7.48576">
        <ele>1069.777</ele>
        <time>2020-06-24T13:03:02Z</time>
      </trkpt>
      <trkpt lat="43.85118" lon="7.48568">
        <ele>1065.364</ele>
        <time>2020-06-24T13:03:18Z</time>
      </trkpt>
      <trkpt lat="43.85131" lon="7.48561">
        <ele>1064.254</ele>
        <time>2020-06-24T13:03:34Z</time>
      </trkpt>
      <trkpt lat="43.8514" lon="7.48553">
        <ele>1058.777</ele>
        <time>2020-06-24T13:03:49Z</time>
      </trkpt>
      <trkpt lat="43.85153" lon="7.48541">
        <ele>1052.041</ele>
        <time>2020-06-24T13:04:05Z</time>
      </trkpt>
      <trkpt lat="43.85159" lon="7.48529">
        <ele>1047.216</ele>
        <time>2020-06-24T13:04:20Z</time>
      </trkpt>
      <trkpt lat="43.85164" lon="7.48518">
        <ele>1046.437</ele>
        <time>2020-06-24T13:04:36Z</time>
      </trkpt>
      <trkpt lat="43.85169" lon="7.48508">
        <ele>1044.972</ele>
        <time>2020-06-24T13:04:52Z</time>
      </trkpt>
      <trkpt lat="43.85172" lon="7.48494">
        <ele>1044.987</ele>
        <time>2020-06-24T13:05:07Z</time>
      </trkpt>
      <trkpt lat="43.85192" lon="7.48479">
        <ele>1042.24</ele>
        <time>2020-06-24T13:05:23Z</time>
      </trkpt>
      <trkpt lat="43.85194" lon="7.48477">
        <ele>1040.822</ele>
        <time>2020-06-24T13:05:38Z</time>
      </trkpt>
      <trkpt lat="43.85194" lon="7.48477">
        <ele>1040.822</ele>
        <time>2020-06-24T13:05:53Z</time>
      </trkpt>
      <trkpt lat="43.85202" lon="7.4847">
        <ele>1038.81</ele>
        <time>2020-06-24T13:06:09Z</time>
      </trkpt>
      <trkpt lat="43.85214" lon="7.48452">
        <ele>1037.902</ele>
        <time>2020-06-24T13:06:25Z</time>
      </trkpt>
      <trkpt lat="43.85218" lon="7.48441">
        <ele>1032.505</ele>
        <time>2020-06-24T13:06:41Z</time>
      </trkpt>
      <trkpt lat="43.85217" lon="7.48431">
        <ele>1031.038</ele>
        <time>2020-06-24T13:06:57Z</time>
      </trkpt>
      <trkpt lat="43.85219" lon="7.48411">
        <ele>1026.104</ele>
        <time>2020-06-24T13:07:12Z</time>
      </trkpt>
      <trkpt lat="43.8521" lon="7.48386">
        <ele>1023.162</ele>
        <time>2020-06-24T13:07:27Z</time>
      </trkpt>
      <trkpt lat="43.85204" lon="7.48377">
        <ele>1020.115</ele>
        <time>2020-06-24T13:07:43Z</time>
      </trkpt>
      <trkpt lat="43.852" lon="7.48367">
        <ele>1017.704</ele>
        <time>2020-06-24T13:07:59Z</time>
      </trkpt>
      <trkpt lat="43.85195" lon="7.48358">
        <ele>1015.255</ele>
        <time>2020-06-24T13:08:14Z</time>
      </trkpt>
      <trkpt lat="43.85192" lon="7.48345">
        <ele>1013.357</ele>
        <time>2020-06-24T13:08:29Z</time>
      </trkpt>
      <trkpt lat="43.85186" lon="7.48324">
        <ele>1010.449</ele>
        <time>2020-06-24T13:08:45Z</time>
      </trkpt>
      <trkpt lat="43.85175" lon="7.48307">
        <ele>1008.201</ele>
        <time>2020-06-24T13:09:01Z</time>
      </trkpt>
      <trkpt lat="43.85169" lon="7.4829">
        <ele>1003.738</ele>
        <time>2020-06-24T13:09:16Z</time>
      </trkpt>
      <trkpt lat="43.85163" lon="7.48281">
        <ele>1001.432</ele>
        <time>2020-06-24T13:09:31Z</time>
      </trkpt>
      <trkpt lat="43.85151" lon="7.48263">
        <ele>998.082</ele>
        <time>2020-06-24T13:09:47Z</time>
      </trkpt>
      <trkpt lat="43.85156" lon="7.48248">
        <ele>995.459</ele>
        <time>2020-06-24T13:10:03Z</time>
      </trkpt>
      <trkpt lat="43.85171" lon="7.48236">
        <ele>988.753</ele>
        <time>2020-06-24T13:10:18Z</time>
      </trkpt>
      <trkpt lat="43.85171" lon="7.48236">
        <ele>988.238</ele>
        <time>2020-06-24T13:10:34Z</time>
      </trkpt>
      <trkpt lat="43.85171" lon="7.48236">
        <ele>988.238</ele>
        <time>2020-06-24T13:10:50Z</time>
      </trkpt>
      <trkpt lat="43.85171" lon="7.48236">
        <ele>988.238</ele>
        <time>2020-06-24T13:11:06Z</time>
      </trkpt>
      <trkpt lat="43.85171" lon="7.48236">
        <ele>988.238</ele>
        <time>2020-06-24T13:11:21Z</time>
      </trkpt>
      <trkpt lat="43.85184" lon="7.48236">
        <ele>987.805</ele>
        <time>2020-06-24T13:11:37Z</time>
      </trkpt>
      <trkpt lat="43.85184" lon="7.48236">
        <ele>987.805</ele>
        <time>2020-06-24T13:11:53Z</time>
      </trkpt>
      <trkpt lat="43.85198" lon="7.48239">
        <ele>987.061</ele>
        <time>2020-06-24T13:12:08Z</time>
      </trkpt>
      <trkpt lat="43.85198" lon="7.48239">
        <ele>987.061</ele>
        <time>2020-06-24T13:12:24Z</time>
      </trkpt>
      <trkpt lat="43.85222" lon="7.48246">
        <ele>983.751</ele>
        <time>2020-06-24T13:12:40Z</time>
      </trkpt>
      <trkpt lat="43.85222" lon="7.48246">
        <ele>983.751</ele>
        <time>2020-06-24T13:12:55Z</time>
      </trkpt>
      <trkpt lat="43.85243" lon="7.48239">
        <ele>980.858</ele>
        <time>2020-06-24T13:13:11Z</time>
      </trkpt>
      <trkpt lat="43.85244" lon="7.48237">
        <ele>980.105</ele>
        <time>2020-06-24T13:13:27Z</time>
      </trkpt>
      <trkpt lat="43.85244" lon="7.48237">
        <ele>980.105</ele>
        <time>2020-06-24T13:13:42Z</time>
      </trkpt>
      <trkpt lat="43.85244" lon="7.48237">
        <ele>980.105</ele>
        <time>2020-06-24T13:13:57Z</time>
      </trkpt>
      <trkpt lat="43.85244" lon="7.48237">
        <ele>980.105</ele>
        <time>2020-06-24T13:14:12Z</time>
      </trkpt>
      <trkpt lat="43.85244" lon="7.48237">
        <ele>980.105</ele>
        <time>2020-06-24T13:14:27Z</time>
      </trkpt>
      <trkpt lat="43.85244" lon="7.48237">
        <ele>980.105</ele>
        <time>2020-06-24T13:14:43Z</time>
      </trkpt>
      <trkpt lat="43.85253" lon="7.48224">
        <ele>973.284</ele>
        <time>2020-06-24T13:14:58Z</time>
      </trkpt>
      <trkpt lat="43.85262" lon="7.48218">
        <ele>968.537</ele>
        <time>2020-06-24T13:15:14Z</time>
      </trkpt>
      <trkpt lat="43.85276" lon="7.48212">
        <ele>965.318</ele>
        <time>2020-06-24T13:15:29Z</time>
      </trkpt>
      <trkpt lat="43.85278" lon="7.48211">
        <ele>963.757</ele>
        <time>2020-06-24T13:15:44Z</time>
      </trkpt>
      <trkpt lat="43.85278" lon="7.48211">
        <ele>963.757</ele>
        <time>2020-06-24T13:15:59Z</time>
      </trkpt>
      <trkpt lat="43.85308" lon="7.48203">
        <ele>959.272</ele>
        <time>2020-06-24T13:16:15Z</time>
      </trkpt>
      <trkpt lat="43.85328" lon="7.48186">
        <ele>953.548</ele>
        <time>2020-06-24T13:16:31Z</time>
      </trkpt>
      <trkpt lat="43.85334" lon="7.48181">
        <ele>949.386</ele>
        <time>2020-06-24T13:16:47Z</time>
      </trkpt>
      <trkpt lat="43.85352" lon="7.48168">
        <ele>944.525</ele>
        <time>2020-06-24T13:17:02Z</time>
      </trkpt>
      <trkpt lat="43.85362" lon="7.48152">
        <ele>937.972</ele>
        <time>2020-06-24T13:17:18Z</time>
      </trkpt>
      <trkpt lat="43.85376" lon="7.4815">
        <ele>935.338</ele>
        <time>2020-06-24T13:17:33Z</time>
      </trkpt>
      <trkpt lat="43.85383" lon="7.4815">
        <ele>935.454</ele>
        <time>2020-06-24T13:17:49Z</time>
      </trkpt>
      <trkpt lat="43.85411" lon="7.48141">
        <ele>933.81</ele>
        <time>2020-06-24T13:18:05Z</time>
      </trkpt>
      <trkpt lat="43.85425" lon="7.48139">
        <ele>931.09</ele>
        <time>2020-06-24T13:18:20Z</time>
      </trkpt>
      <trkpt lat="43.85433" lon="7.48137">
        <ele>931.052</ele>
        <time>2020-06-24T13:18:36Z</time>
      </trkpt>
      <trkpt lat="43.85459" lon="7.48139">
        <ele>926.151</ele>
        <time>2020-06-24T13:18:52Z</time>
      </trkpt>
      <trkpt lat="43.85468" lon="7.48132">
        <ele>922.676</ele>
        <time>2020-06-24T13:19:07Z</time>
      </trkpt>
      <trkpt lat="43.85482" lon="7.4812">
        <ele>914.606</ele>
        <time>2020-06-24T13:19:23Z</time>
      </trkpt>
      <trkpt lat="43.8549" lon="7.48116">
        <ele>911.787</ele>
        <time>2020-06-24T13:19:38Z</time>
      </trkpt>
      <trkpt lat="43.85503" lon="7.48101">
        <ele>914.56</ele>
        <time>2020-06-24T13:19:54Z</time>
      </trkpt>
      <trkpt lat="43.85512" lon="7.4809">
        <ele>915.777</ele>
        <time>2020-06-24T13:20:09Z</time>
      </trkpt>
      <trkpt lat="43.85525" lon="7.48083">
        <ele>914.997</ele>
        <time>2020-06-24T13:20:25Z</time>
      </trkpt>
      <trkpt lat="43.85542" lon="7.48083">
        <ele>915.886</ele>
        <time>2020-06-24T13:20:40Z</time>
      </trkpt>
      <trkpt lat="43.8556" lon="7.48074">
        <ele>913.326</ele>
        <time>2020-06-24T13:20:56Z</time>
      </trkpt>
      <trkpt lat="43.85575" lon="7.48063">
        <ele>914.495</ele>
        <time>2020-06-24T13:21:12Z</time>
      </trkpt>
      <trkpt lat="43.85583" lon="7.48062">
        <ele>911.972</ele>
        <time>2020-06-24T13:21:27Z</time>
      </trkpt>
      <trkpt lat="43.85608" lon="7.48056">
        <ele>906.433</ele>
        <time>2020-06-24T13:21:42Z</time>
      </trkpt>
      <trkpt lat="43.8563" lon="7.48033">
        <ele>900.9</ele>
        <time>2020-06-24T13:21:58Z</time>
      </trkpt>
      <trkpt lat="43.85642" lon="7.48011">
        <ele>895.714</ele>
        <time>2020-06-24T13:22:13Z</time>
      </trkpt>
      <trkpt lat="43.85656" lon="7.47992">
        <ele>897.289</ele>
        <time>2020-06-24T13:22:29Z</time>
      </trkpt>
      <trkpt lat="43.85659" lon="7.47983">
        <ele>896.51</ele>
        <time>2020-06-24T13:22:44Z</time>
      </trkpt>
      <trkpt lat="43.85656" lon="7.47979">
        <ele>895.509</ele>
        <time>2020-06-24T13:22:59Z</time>
      </trkpt>
      <trkpt lat="43.8565" lon="7.47969">
        <ele>893.938</ele>
        <time>2020-06-24T13:23:15Z</time>
      </trkpt>
      <trkpt lat="43.85642" lon="7.47954">
        <ele>893.058</ele>
        <time>2020-06-24T13:23:31Z</time>
      </trkpt>
      <trkpt lat="43.85641" lon="7.47951">
        <ele>892.782</ele>
        <time>2020-06-24T13:23:46Z</time>
      </trkpt>
      <trkpt lat="43.85643" lon="7.47937">
        <ele>889.04</ele>
        <time>2020-06-24T13:24:02Z</time>
      </trkpt>
      <trkpt lat="43.85636" lon="7.47928">
        <ele>889.472</ele>
        <time>2020-06-24T13:24:18Z</time>
      </trkpt>
      <trkpt lat="43.85618" lon="7.4791">
        <ele>883.985</ele>
        <time>2020-06-24T13:24:33Z</time>
      </trkpt>
      <trkpt lat="43.85607" lon="7.47894">
        <ele>881.029</ele>
        <time>2020-06-24T13:24:49Z</time>
      </trkpt>
      <trkpt lat="43.85596" lon="7.47865">
        <ele>880.125</ele>
        <time>2020-06-24T13:25:04Z</time>
      </trkpt>
      <trkpt lat="43.85595" lon="7.47842">
        <ele>881.562</ele>
        <time>2020-06-24T13:25:20Z</time>
      </trkpt>
      <trkpt lat="43.85609" lon="7.47832">
        <ele>877.601</ele>
        <time>2020-06-24T13:25:36Z</time>
      </trkpt>
      <trkpt lat="43.85631" lon="7.47833">
        <ele>872.127</ele>
        <time>2020-06-24T13:25:52Z</time>
      </trkpt>
      <trkpt lat="43.85639" lon="7.47827">
        <ele>871.875</ele>
        <time>2020-06-24T13:26:07Z</time>
      </trkpt>
      <trkpt lat="43.85652" lon="7.47825">
        <ele>871.811</ele>
        <time>2020-06-24T13:26:22Z</time>
      </trkpt>
      <trkpt lat="43.85667" lon="7.47818">
        <ele>869.929</ele>
        <time>2020-06-24T13:26:37Z</time>
      </trkpt>
      <trkpt lat="43.85686" lon="7.47808">
        <ele>868.347</ele>
        <time>2020-06-24T13:26:53Z</time>
      </trkpt>
      <trkpt lat="43.85694" lon="7.47805">
        <ele>866.793</ele>
        <time>2020-06-24T13:27:08Z</time>
      </trkpt>
      <trkpt lat="43.85712" lon="7.47791">
        <ele>860.683</ele>
        <time>2020-06-24T13:27:23Z</time>
      </trkpt>
      <trkpt lat="43.85723" lon="7.47783">
        <ele>860.492</ele>
        <time>2020-06-24T13:27:38Z</time>
      </trkpt>
      <trkpt lat="43.85734" lon="7.47766">
        <ele>856.789</ele>
        <time>2020-06-24T13:27:53Z</time>
      </trkpt>
      <trkpt lat="43.85747" lon="7.47751">
        <ele>853.614</ele>
        <time>2020-06-24T13:28:09Z</time>
      </trkpt>
      <trkpt lat="43.8576" lon="7.47734">
        <ele>850.908</ele>
        <time>2020-06-24T13:28:24Z</time>
      </trkpt>
      <trkpt lat="43.85772" lon="7.47722">
        <ele>848.526</ele>
        <time>2020-06-24T13:28:40Z</time>
      </trkpt>
      <trkpt lat="43.85776" lon="7.47725">
        <ele>851.461</ele>
        <time>2020-06-24T13:28:56Z</time>
      </trkpt>
      <trkpt lat="43.85776" lon="7.47725">
        <ele>851.461</ele>
        <time>2020-06-24T13:29:11Z</time>
      </trkpt>
      <trkpt lat="43.85776" lon="7.47725">
        <ele>851.461</ele>
        <time>2020-06-24T13:29:26Z</time>
      </trkpt>
      <trkpt lat="43.85782" lon="7.47713">
        <ele>850.374</ele>
        <time>2020-06-24T13:29:42Z</time>
      </trkpt>
      <trkpt lat="43.858" lon="7.47695">
        <ele>850.259</ele>
        <time>2020-06-24T13:29:58Z</time>
      </trkpt>
      <trkpt lat="43.85817" lon="7.47679">
        <ele>844.378</ele>
        <time>2020-06-24T13:30:14Z</time>
      </trkpt>
      <trkpt lat="43.85823" lon="7.47676">
        <ele>842.74</ele>
        <time>2020-06-24T13:30:30Z</time>
      </trkpt>
      <trkpt lat="43.85823" lon="7.47676">
        <ele>842.74</ele>
        <time>2020-06-24T13:30:45Z</time>
      </trkpt>
      <trkpt lat="43.85823" lon="7.47676">
        <ele>842.74</ele>
        <time>2020-06-24T13:31:00Z</time>
      </trkpt>
      <trkpt lat="43.85825" lon="7.47675">
        <ele>843.424</ele>
        <time>2020-06-24T13:31:15Z</time>
      </trkpt>
      <trkpt lat="43.85832" lon="7.47667">
        <ele>842.984</ele>
        <time>2020-06-24T13:31:31Z</time>
      </trkpt>
      <trkpt lat="43.85843" lon="7.47655">
        <ele>845.753</ele>
        <time>2020-06-24T13:31:47Z</time>
      </trkpt>
      <trkpt lat="43.85856" lon="7.47646">
        <ele>844.874</ele>
        <time>2020-06-24T13:32:03Z</time>
      </trkpt>
      <trkpt lat="43.85865" lon="7.47631">
        <ele>845.218</ele>
        <time>2020-06-24T13:32:18Z</time>
      </trkpt>
      <trkpt lat="43.85882" lon="7.47618">
        <ele>847.083</ele>
        <time>2020-06-24T13:32:34Z</time>
      </trkpt>
      <trkpt lat="43.85905" lon="7.47612">
        <ele>846.842</ele>
        <time>2020-06-24T13:32:50Z</time>
      </trkpt>
      <trkpt lat="43.85918" lon="7.47596">
        <ele>841.512</ele>
        <time>2020-06-24T13:33:05Z</time>
      </trkpt>
      <trkpt lat="43.8593" lon="7.47582">
        <ele>842.027</ele>
        <time>2020-06-24T13:33:21Z</time>
      </trkpt>
      <trkpt lat="43.85944" lon="7.47562">
        <ele>844.914</ele>
        <time>2020-06-24T13:33:37Z</time>
      </trkpt>
      <trkpt lat="43.85958" lon="7.47554">
        <ele>844.959</ele>
        <time>2020-06-24T13:33:53Z</time>
      </trkpt>
      <trkpt lat="43.85962" lon="7.47557">
        <ele>843.928</ele>
        <time>2020-06-24T13:34:08Z</time>
      </trkpt>
      <trkpt lat="43.85975" lon="7.47569">
        <ele>841.896</ele>
        <time>2020-06-24T13:34:23Z</time>
      </trkpt>
      <trkpt lat="43.85986" lon="7.47575">
        <ele>840.517</ele>
        <time>2020-06-24T13:34:39Z</time>
      </trkpt>
      <trkpt lat="43.85998" lon="7.47581">
        <ele>838.303</ele>
        <time>2020-06-24T13:34:55Z</time>
      </trkpt>
      <trkpt lat="43.86012" lon="7.47588">
        <ele>836.951</ele>
        <time>2020-06-24T13:35:11Z</time>
      </trkpt>
      <trkpt lat="43.86028" lon="7.47602">
        <ele>836.977</ele>
        <time>2020-06-24T13:35:27Z</time>
      </trkpt>
      <trkpt lat="43.86038" lon="7.47616">
        <ele>834.833</ele>
        <time>2020-06-24T13:35:43Z</time>
      </trkpt>
      <trkpt lat="43.8605" lon="7.47624">
        <ele>831.737</ele>
        <time>2020-06-24T13:35:58Z</time>
      </trkpt>
      <trkpt lat="43.86057" lon="7.47625">
        <ele>829.458</ele>
        <time>2020-06-24T13:36:14Z</time>
      </trkpt>
      <trkpt lat="43.86064" lon="7.47644">
        <ele>832.368</ele>
        <time>2020-06-24T13:36:29Z</time>
      </trkpt>
      <trkpt lat="43.86071" lon="7.47663">
        <ele>836.635</ele>
        <time>2020-06-24T13:36:45Z</time>
      </trkpt>
      <trkpt lat="43.86079" lon="7.47672">
        <ele>837.837</ele>
        <time>2020-06-24T13:37:00Z</time>
      </trkpt>
      <trkpt lat="43.86091" lon="7.47682">
        <ele>842.478</ele>
        <time>2020-06-24T13:37:16Z</time>
      </trkpt>
      <trkpt lat="43.86104" lon="7.47691">
        <ele>845.896</ele>
        <time>2020-06-24T13:37:32Z</time>
      </trkpt>
      <trkpt lat="43.86117" lon="7.47697">
        <ele>843.939</ele>
        <time>2020-06-24T13:37:48Z</time>
      </trkpt>
      <trkpt lat="43.8613" lon="7.47702">
        <ele>847.076</ele>
        <time>2020-06-24T13:38:03Z</time>
      </trkpt>
      <trkpt lat="43.86147" lon="7.47706">
        <ele>848.884</ele>
        <time>2020-06-24T13:38:19Z</time>
      </trkpt>
      <trkpt lat="43.86164" lon="7.47707">
        <ele>849.526</ele>
        <time>2020-06-24T13:38:35Z</time>
      </trkpt>
      <trkpt lat="43.86182" lon="7.47706">
        <ele>849.125</ele>
        <time>2020-06-24T13:38:51Z</time>
      </trkpt>
      <trkpt lat="43.86198" lon="7.47701">
        <ele>850.307</ele>
        <time>2020-06-24T13:39:06Z</time>
      </trkpt>
      <trkpt lat="43.86218" lon="7.47704">
        <ele>851.211</ele>
        <time>2020-06-24T13:39:22Z</time>
      </trkpt>
      <trkpt lat="43.86231" lon="7.477">
        <ele>851.609</ele>
        <time>2020-06-24T13:39:38Z</time>
      </trkpt>
      <trkpt lat="43.86245" lon="7.47696">
        <ele>853.675</ele>
        <time>2020-06-24T13:39:54Z</time>
      </trkpt>
      <trkpt lat="43.86246" lon="7.47694">
        <ele>854.491</ele>
        <time>2020-06-24T13:40:09Z</time>
      </trkpt>
      <trkpt lat="43.86252" lon="7.47692">
        <ele>855.043</ele>
        <time>2020-06-24T13:40:24Z</time>
      </trkpt>
      <trkpt lat="43.86258" lon="7.4769">
        <ele>855.701</ele>
        <time>2020-06-24T13:40:39Z</time>
      </trkpt>
      <trkpt lat="43.86261" lon="7.47689">
        <ele>855.904</ele>
        <time>2020-06-24T13:40:55Z</time>
      </trkpt>
      <trkpt lat="43.86261" lon="7.47689">
        <ele>855.904</ele>
        <time>2020-06-24T13:41:11Z</time>
      </trkpt>
      <trkpt lat="43.86261" lon="7.47689">
        <ele>855.904</ele>
        <time>2020-06-24T13:41:26Z</time>
      </trkpt>
      <trkpt lat="43.86261" lon="7.47689">
        <ele>855.904</ele>
        <time>2020-06-24T13:41:42Z</time>
      </trkpt>
      <trkpt lat="43.86261" lon="7.47689">
        <ele>855.904</ele>
        <time>2020-06-24T13:41:57Z</time>
      </trkpt>
      <trkpt lat="43.86261" lon="7.47689">
        <ele>855.904</ele>
        <time>2020-06-24T13:42:12Z</time>
      </trkpt>
      <trkpt lat="43.86263" lon="7.47689">
        <ele>856.228</ele>
        <time>2020-06-24T13:42:27Z</time>
      </trkpt>
      <trkpt lat="43.86265" lon="7.47686">
        <ele>856.848</ele>
        <time>2020-06-24T13:42:43Z</time>
      </trkpt>
      <trkpt lat="43.86268" lon="7.47682">
        <ele>858.01</ele>
        <time>2020-06-24T13:42:59Z</time>
      </trkpt>
      <trkpt lat="43.86268" lon="7.47682">
        <ele>858.01</ele>
        <time>2020-06-24T13:43:15Z</time>
      </trkpt>
      <trkpt lat="43.86268" lon="7.47682">
        <ele>858.01</ele>
        <time>2020-06-24T13:43:31Z</time>
      </trkpt>
      <trkpt lat="43.86268" lon="7.47682">
        <ele>858.01</ele>
        <time>2020-06-24T13:43:47Z</time>
      </trkpt>
      <trkpt lat="43.86268" lon="7.47682">
        <ele>858.01</ele>
        <time>2020-06-24T13:44:03Z</time>
      </trkpt>
      <trkpt lat="43.86268" lon="7.47682">
        <ele>858.01</ele>
        <time>2020-06-24T13:44:19Z</time>
      </trkpt>
      <trkpt lat="43.86268" lon="7.47682">
        <ele>858.01</ele>
        <time>2020-06-24T13:44:35Z</time>
      </trkpt>
      <trkpt lat="43.86268" lon="7.47682">
        <ele>858.14</ele>
        <time>2020-06-24T13:44:51Z</time>
      </trkpt>
      <trkpt lat="43.86268" lon="7.47681">
        <ele>858.448</ele>
        <time>2020-06-24T13:45:07Z</time>
      </trkpt>
      <trkpt lat="43.86268" lon="7.47681">
        <ele>858.448</ele>
        <time>2020-06-24T13:45:23Z</time>
      </trkpt>
      <trkpt lat="43.8627" lon="7.47674">
        <ele>858.396</ele>
        <time>2020-06-24T13:45:38Z</time>
      </trkpt>
      <trkpt lat="43.86267" lon="7.47659">
        <ele>857.011</ele>
        <time>2020-06-24T13:45:54Z</time>
      </trkpt>
      <trkpt lat="43.86269" lon="7.47654">
        <ele>856.003</ele>
        <time>2020-06-24T13:46:09Z</time>
      </trkpt>
      <trkpt lat="43.86276" lon="7.47656">
        <ele>851.545</ele>
        <time>2020-06-24T13:46:24Z</time>
      </trkpt>
      <trkpt lat="43.8629" lon="7.47661">
        <ele>851.317</ele>
        <time>2020-06-24T13:46:40Z</time>
      </trkpt>
      <trkpt lat="43.86293" lon="7.47663">
        <ele>850.716</ele>
        <time>2020-06-24T13:46:56Z</time>
      </trkpt>
      <trkpt lat="43.86309" lon="7.47666">
        <ele>849.6</ele>
        <time>2020-06-24T13:47:11Z</time>
      </trkpt>
      <trkpt lat="43.86311" lon="7.47662">
        <ele>848.361</ele>
        <time>2020-06-24T13:47:27Z</time>
      </trkpt>
      <trkpt lat="43.86315" lon="7.47658">
        <ele>845.847</ele>
        <time>2020-06-24T13:47:42Z</time>
      </trkpt>
      <trkpt lat="43.86322" lon="7.47666">
        <ele>841.151</ele>
        <time>2020-06-24T13:47:58Z</time>
      </trkpt>
      <trkpt lat="43.86323" lon="7.47663">
        <ele>840.858</ele>
        <time>2020-06-24T13:48:14Z</time>
      </trkpt>
      <trkpt lat="43.86328" lon="7.47665">
        <ele>839.38</ele>
        <time>2020-06-24T13:48:30Z</time>
      </trkpt>
      <trkpt lat="43.86342" lon="7.47666">
        <ele>837.689</ele>
        <time>2020-06-24T13:48:46Z</time>
      </trkpt>
      <trkpt lat="43.86348" lon="7.47668">
        <ele>836.319</ele>
        <time>2020-06-24T13:49:01Z</time>
      </trkpt>
      <trkpt lat="43.86372" lon="7.47669">
        <ele>829.05</ele>
        <time>2020-06-24T13:49:17Z</time>
      </trkpt>
      <trkpt lat="43.86376" lon="7.4767">
        <ele>826.633</ele>
        <time>2020-06-24T13:49:32Z</time>
      </trkpt>
      <trkpt lat="43.86376" lon="7.4767">
        <ele>826.633</ele>
        <time>2020-06-24T13:49:48Z</time>
      </trkpt>
      <trkpt lat="43.86376" lon="7.4767">
        <ele>826.633</ele>
        <time>2020-06-24T13:50:04Z</time>
      </trkpt>
      <trkpt lat="43.8638" lon="7.47672">
        <ele>826.11</ele>
        <time>2020-06-24T13:50:19Z</time>
      </trkpt>
      <trkpt lat="43.8638" lon="7.47672">
        <ele>826.11</ele>
        <time>2020-06-24T13:50:35Z</time>
      </trkpt>
      <trkpt lat="43.8641" lon="7.47688">
        <ele>824.85</ele>
        <time>2020-06-24T13:50:50Z</time>
      </trkpt>
      <trkpt lat="43.86429" lon="7.47696">
        <ele>819.315</ele>
        <time>2020-06-24T13:51:06Z</time>
      </trkpt>
      <trkpt lat="43.86434" lon="7.47699">
        <ele>816.577</ele>
        <time>2020-06-24T13:51:21Z</time>
      </trkpt>
      <trkpt lat="43.86434" lon="7.47699">
        <ele>816.577</ele>
        <time>2020-06-24T13:51:37Z</time>
      </trkpt>
      <trkpt lat="43.86434" lon="7.47699">
        <ele>816.577</ele>
        <time>2020-06-24T13:51:53Z</time>
      </trkpt>
      <trkpt lat="43.86435" lon="7.47695">
        <ele>815.648</ele>
        <time>2020-06-24T13:52:08Z</time>
      </trkpt>
      <trkpt lat="43.86434" lon="7.47687">
        <ele>814.636</ele>
        <time>2020-06-24T13:52:24Z</time>
      </trkpt>
      <trkpt lat="43.86434" lon="7.47687">
        <ele>814.636</ele>
        <time>2020-06-24T13:52:39Z</time>
      </trkpt>
      <trkpt lat="43.86434" lon="7.47687">
        <ele>814.636</ele>
        <time>2020-06-24T13:52:55Z</time>
      </trkpt>
      <trkpt lat="43.86434" lon="7.47687">
        <ele>814.636</ele>
        <time>2020-06-24T13:53:11Z</time>
      </trkpt>
      <trkpt lat="43.86462" lon="7.47681">
        <ele>813.056</ele>
        <time>2020-06-24T13:53:26Z</time>
      </trkpt>
      <trkpt lat="43.86477" lon="7.47678">
        <ele>810.359</ele>
        <time>2020-06-24T13:53:42Z</time>
      </trkpt>
      <trkpt lat="43.86477" lon="7.47678">
        <ele>810.359</ele>
        <time>2020-06-24T13:53:57Z</time>
      </trkpt>
      <trkpt lat="43.86477" lon="7.47678">
        <ele>810.359</ele>
        <time>2020-06-24T13:54:13Z</time>
      </trkpt>
      <trkpt lat="43.86477" lon="7.47678">
        <ele>810.359</ele>
        <time>2020-06-24T13:54:29Z</time>
      </trkpt>
      <trkpt lat="43.86477" lon="7.47678">
        <ele>810.359</ele>
        <time>2020-06-24T13:54:45Z</time>
      </trkpt>
      <trkpt lat="43.86487" lon="7.47676">
        <ele>807.248</ele>
        <time>2020-06-24T13:55:01Z</time>
      </trkpt>
      <trkpt lat="43.86496" lon="7.47673">
        <ele>805.217</ele>
        <time>2020-06-24T13:55:16Z</time>
      </trkpt>
      <trkpt lat="43.86496" lon="7.47673">
        <ele>805.217</ele>
        <time>2020-06-24T13:55:31Z</time>
      </trkpt>
      <trkpt lat="43.86496" lon="7.47673">
        <ele>805.217</ele>
        <time>2020-06-24T13:55:47Z</time>
      </trkpt>
      <trkpt lat="43.86496" lon="7.47673">
        <ele>805.217</ele>
        <time>2020-06-24T13:56:02Z</time>
      </trkpt>
      <trkpt lat="43.86496" lon="7.47673">
        <ele>805.217</ele>
        <time>2020-06-24T13:56:17Z</time>
      </trkpt>
      <trkpt lat="43.86496" lon="7.47673">
        <ele>805.217</ele>
        <time>2020-06-24T13:56:32Z</time>
      </trkpt>
      <trkpt lat="43.86496" lon="7.47673">
        <ele>805.217</ele>
        <time>2020-06-24T13:56:48Z</time>
      </trkpt>
      <trkpt lat="43.86496" lon="7.47673">
        <ele>805.217</ele>
        <time>2020-06-24T13:57:03Z</time>
      </trkpt>
      <trkpt lat="43.86503" lon="7.47676">
        <ele>805.961</ele>
        <time>2020-06-24T13:57:19Z</time>
      </trkpt>
      <trkpt lat="43.86503" lon="7.47676">
        <ele>805.961</ele>
        <time>2020-06-24T13:57:34Z</time>
      </trkpt>
      <trkpt lat="43.86503" lon="7.47676">
        <ele>805.961</ele>
        <time>2020-06-24T13:57:50Z</time>
      </trkpt>
      <trkpt lat="43.86503" lon="7.47676">
        <ele>805.961</ele>
        <time>2020-06-24T13:58:06Z</time>
      </trkpt>
      <trkpt lat="43.86503" lon="7.47676">
        <ele>805.961</ele>
        <time>2020-06-24T13:58:22Z</time>
      </trkpt>
      <trkpt lat="43.86503" lon="7.47676">
        <ele>805.961</ele>
        <time>2020-06-24T13:58:38Z</time>
      </trkpt>
      <trkpt lat="43.86503" lon="7.47676">
        <ele>805.961</ele>
        <time>2020-06-24T13:58:53Z</time>
      </trkpt>
      <trkpt lat="43.86503" lon="7.47676">
        <ele>805.961</ele>
        <time>2020-06-24T13:59:09Z</time>
      </trkpt>
      <trkpt lat="43.86521" lon="7.4767">
        <ele>803.454</ele>
        <time>2020-06-24T13:59:24Z</time>
      </trkpt>
      <trkpt lat="43.86521" lon="7.4767">
        <ele>803.454</ele>
        <time>2020-06-24T13:59:40Z</time>
      </trkpt>
      <trkpt lat="43.8652" lon="7.47671">
        <ele>801.364</ele>
        <time>2020-06-24T13:59:55Z</time>
      </trkpt>
      <trkpt lat="43.86532" lon="7.47655">
        <ele>785.907</ele>
        <time>2020-06-24T14:00:11Z</time>
      </trkpt>
      <trkpt lat="43.86538" lon="7.47648">
        <ele>782.516</ele>
        <time>2020-06-24T14:00:27Z</time>
      </trkpt>
      <trkpt lat="43.86538" lon="7.47648">
        <ele>782.516</ele>
        <time>2020-06-24T14:00:43Z</time>
      </trkpt>
      <trkpt lat="43.86553" lon="7.47649">
        <ele>778.639</ele>
        <time>2020-06-24T14:00:58Z</time>
      </trkpt>
      <trkpt lat="43.86553" lon="7.47649">
        <ele>778.639</ele>
        <time>2020-06-24T14:01:14Z</time>
      </trkpt>
      <trkpt lat="43.86572" lon="7.4765">
        <ele>774.438</ele>
        <time>2020-06-24T14:01:29Z</time>
      </trkpt>
      <trkpt lat="43.86574" lon="7.47652">
        <ele>771.85</ele>
        <time>2020-06-24T14:01:45Z</time>
      </trkpt>
      <trkpt lat="43.8658" lon="7.47651">
        <ele>768.31</ele>
        <time>2020-06-24T14:02:01Z</time>
      </trkpt>
      <trkpt lat="43.8659" lon="7.47651">
        <ele>765.516</ele>
        <time>2020-06-24T14:02:16Z</time>
      </trkpt>
      <trkpt lat="43.86614" lon="7.47647">
        <ele>759.123</ele>
        <time>2020-06-24T14:02:32Z</time>
      </trkpt>
      <trkpt lat="43.86623" lon="7.47647">
        <ele>750.688</ele>
        <time>2020-06-24T14:02:48Z</time>
      </trkpt>
      <trkpt lat="43.86636" lon="7.47647">
        <ele>747.72</ele>
        <time>2020-06-24T14:03:03Z</time>
      </trkpt>
      <trkpt lat="43.86654" lon="7.47646">
        <ele>741.954</ele>
        <time>2020-06-24T14:03:19Z</time>
      </trkpt>
      <trkpt lat="43.86671" lon="7.47641">
        <ele>735.829</ele>
        <time>2020-06-24T14:03:35Z</time>
      </trkpt>
      <trkpt lat="43.86679" lon="7.47638">
        <ele>734.888</ele>
        <time>2020-06-24T14:03:50Z</time>
      </trkpt>
      <trkpt lat="43.86683" lon="7.47635">
        <ele>731.88</ele>
        <time>2020-06-24T14:04:06Z</time>
      </trkpt>
      <trkpt lat="43.86699" lon="7.47625">
        <ele>728.319</ele>
        <time>2020-06-24T14:04:21Z</time>
      </trkpt>
      <trkpt lat="43.86709" lon="7.47619">
        <ele>727.101</ele>
        <time>2020-06-24T14:04:36Z</time>
      </trkpt>
      <trkpt lat="43.86727" lon="7.47605">
        <ele>726.288</ele>
        <time>2020-06-24T14:04:52Z</time>
      </trkpt>
      <trkpt lat="43.8674" lon="7.47587">
        <ele>722.978</ele>
        <time>2020-06-24T14:05:08Z</time>
      </trkpt>
      <trkpt lat="43.86753" lon="7.47571">
        <ele>721.037</ele>
        <time>2020-06-24T14:05:24Z</time>
      </trkpt>
      <trkpt lat="43.86761" lon="7.47558">
        <ele>716.959</ele>
        <time>2020-06-24T14:05:39Z</time>
      </trkpt>
      <trkpt lat="43.86777" lon="7.47537">
        <ele>713.781</ele>
        <time>2020-06-24T14:05:55Z</time>
      </trkpt>
      <trkpt lat="43.86791" lon="7.4752">
        <ele>712.827</ele>
        <time>2020-06-24T14:06:11Z</time>
      </trkpt>
      <trkpt lat="43.86802" lon="7.47511">
        <ele>711.882</ele>
        <time>2020-06-24T14:06:27Z</time>
      </trkpt>
      <trkpt lat="43.86816" lon="7.47503">
        <ele>710.207</ele>
        <time>2020-06-24T14:06:43Z</time>
      </trkpt>
      <trkpt lat="43.86822" lon="7.47502">
        <ele>709.114</ele>
        <time>2020-06-24T14:06:59Z</time>
      </trkpt>
      <trkpt lat="43.86822" lon="7.47502">
        <ele>709.114</ele>
        <time>2020-06-24T14:07:15Z</time>
      </trkpt>
      <trkpt lat="43.86849" lon="7.47496">
        <ele>705.06</ele>
        <time>2020-06-24T14:07:30Z</time>
      </trkpt>
      <trkpt lat="43.8686" lon="7.47496">
        <ele>702.863</ele>
        <time>2020-06-24T14:07:46Z</time>
      </trkpt>
      <trkpt lat="43.86885" lon="7.47501">
        <ele>694.642</ele>
        <time>2020-06-24T14:08:01Z</time>
      </trkpt>
      <trkpt lat="43.86907" lon="7.47503">
        <ele>692.682</ele>
        <time>2020-06-24T14:08:17Z</time>
      </trkpt>
      <trkpt lat="43.86924" lon="7.475">
        <ele>685.121</ele>
        <time>2020-06-24T14:08:32Z</time>
      </trkpt>
      <trkpt lat="43.86943" lon="7.47502">
        <ele>682.127</ele>
        <time>2020-06-24T14:08:48Z</time>
      </trkpt>
      <trkpt lat="43.86958" lon="7.47512">
        <ele>681.143</ele>
        <time>2020-06-24T14:09:04Z</time>
      </trkpt>
      <trkpt lat="43.86973" lon="7.4751">
        <ele>680.735</ele>
        <time>2020-06-24T14:09:19Z</time>
      </trkpt>
      <trkpt lat="43.86991" lon="7.47501">
        <ele>679.273</ele>
        <time>2020-06-24T14:09:34Z</time>
      </trkpt>
      <trkpt lat="43.87004" lon="7.47481">
        <ele>676.66</ele>
        <time>2020-06-24T14:09:50Z</time>
      </trkpt>
      <trkpt lat="43.87013" lon="7.47466">
        <ele>675.454</ele>
        <time>2020-06-24T14:10:05Z</time>
      </trkpt>
      <trkpt lat="43.8702" lon="7.47449">
        <ele>671.37</ele>
        <time>2020-06-24T14:10:21Z</time>
      </trkpt>
      <trkpt lat="43.87028" lon="7.47442">
        <ele>670.657</ele>
        <time>2020-06-24T14:10:37Z</time>
      </trkpt>
      <trkpt lat="43.87032" lon="7.47435">
        <ele>668.733</ele>
        <time>2020-06-24T14:10:53Z</time>
      </trkpt>
      <trkpt lat="43.87032" lon="7.47435">
        <ele>668.733</ele>
        <time>2020-06-24T14:11:08Z</time>
      </trkpt>
      <trkpt lat="43.87032" lon="7.47435">
        <ele>668.733</ele>
        <time>2020-06-24T14:11:24Z</time>
      </trkpt>
      <trkpt lat="43.87032" lon="7.47435">
        <ele>668.733</ele>
        <time>2020-06-24T14:11:39Z</time>
      </trkpt>
      <trkpt lat="43.87032" lon="7.47435">
        <ele>668.733</ele>
        <time>2020-06-24T14:11:54Z</time>
      </trkpt>
      <trkpt lat="43.87032" lon="7.47435">
        <ele>668.733</ele>
        <time>2020-06-24T14:12:09Z</time>
      </trkpt>
      <trkpt lat="43.87032" lon="7.47435">
        <ele>668.733</ele>
        <time>2020-06-24T14:12:25Z</time>
      </trkpt>
      <trkpt lat="43.87032" lon="7.47435">
        <ele>668.733</ele>
        <time>2020-06-24T14:12:40Z</time>
      </trkpt>
      <trkpt lat="43.87033" lon="7.47434">
        <ele>668.024</ele>
        <time>2020-06-24T14:12:56Z</time>
      </trkpt>
      <trkpt lat="43.87034" lon="7.47434">
        <ele>667.694</ele>
        <time>2020-06-24T14:13:11Z</time>
      </trkpt>
      <trkpt lat="43.87037" lon="7.47426">
        <ele>665.376</ele>
        <time>2020-06-24T14:13:27Z</time>
      </trkpt>
      <trkpt lat="43.87041" lon="7.47415">
        <ele>661.384</ele>
        <time>2020-06-24T14:13:43Z</time>
      </trkpt>
      <trkpt lat="43.87046" lon="7.474">
        <ele>659.394</ele>
        <time>2020-06-24T14:13:59Z</time>
      </trkpt>
      <trkpt lat="43.87061" lon="7.47379">
        <ele>657.938</ele>
        <time>2020-06-24T14:14:14Z</time>
      </trkpt>
      <trkpt lat="43.87064" lon="7.47376">
        <ele>657.396</ele>
        <time>2020-06-24T14:14:29Z</time>
      </trkpt>
      <trkpt lat="43.87083" lon="7.47357">
        <ele>655.464</ele>
        <time>2020-06-24T14:14:44Z</time>
      </trkpt>
      <trkpt lat="43.87105" lon="7.47342">
        <ele>645.957</ele>
        <time>2020-06-24T14:15:00Z</time>
      </trkpt>
      <trkpt lat="43.87124" lon="7.47325">
        <ele>642.537</ele>
        <time>2020-06-24T14:15:16Z</time>
      </trkpt>
      <trkpt lat="43.87133" lon="7.47304">
        <ele>641.066</ele>
        <time>2020-06-24T14:15:32Z</time>
      </trkpt>
      <trkpt lat="43.87137" lon="7.47283">
        <ele>638.157</ele>
        <time>2020-06-24T14:15:47Z</time>
      </trkpt>
      <trkpt lat="43.87138" lon="7.47256">
        <ele>635.618</ele>
        <time>2020-06-24T14:16:03Z</time>
      </trkpt>
      <trkpt lat="43.87142" lon="7.47228">
        <ele>633.048</ele>
        <time>2020-06-24T14:16:19Z</time>
      </trkpt>
      <trkpt lat="43.87142" lon="7.47202">
        <ele>629.226</ele>
        <time>2020-06-24T14:16:35Z</time>
      </trkpt>
      <trkpt lat="43.8714" lon="7.47173">
        <ele>626.858</ele>
        <time>2020-06-24T14:16:51Z</time>
      </trkpt>
      <trkpt lat="43.8714" lon="7.47147">
        <ele>624.944</ele>
        <time>2020-06-24T14:17:06Z</time>
      </trkpt>
      <trkpt lat="43.87138" lon="7.47122">
        <ele>623.104</ele>
        <time>2020-06-24T14:17:21Z</time>
      </trkpt>
      <trkpt lat="43.87135" lon="7.47096">
        <ele>619.039</ele>
        <time>2020-06-24T14:17:37Z</time>
      </trkpt>
      <trkpt lat="43.87133" lon="7.47068">
        <ele>617.32</ele>
        <time>2020-06-24T14:17:52Z</time>
      </trkpt>
      <trkpt lat="43.87136" lon="7.47041">
        <ele>615.794</ele>
        <time>2020-06-24T14:18:08Z</time>
      </trkpt>
      <trkpt lat="43.87137" lon="7.47014">
        <ele>615.628</ele>
        <time>2020-06-24T14:18:23Z</time>
      </trkpt>
      <trkpt lat="43.8713" lon="7.46989">
        <ele>614.203</ele>
        <time>2020-06-24T14:18:39Z</time>
      </trkpt>
      <trkpt lat="43.87131" lon="7.46965">
        <ele>613.851</ele>
        <time>2020-06-24T14:18:54Z</time>
      </trkpt>
      <trkpt lat="43.8714" lon="7.46947">
        <ele>617.256</ele>
        <time>2020-06-24T14:19:10Z</time>
      </trkpt>
      <trkpt lat="43.87152" lon="7.46936">
        <ele>614.128</ele>
        <time>2020-06-24T14:19:25Z</time>
      </trkpt>
      <trkpt lat="43.87174" lon="7.46932">
        <ele>612.239</ele>
        <time>2020-06-24T14:19:41Z</time>
      </trkpt>
      <trkpt lat="43.87191" lon="7.46925">
        <ele>608.254</ele>
        <time>2020-06-24T14:19:56Z</time>
      </trkpt>
      <trkpt lat="43.87208" lon="7.46917">
        <ele>604.977</ele>
        <time>2020-06-24T14:20:12Z</time>
      </trkpt>
      <trkpt lat="43.87227" lon="7.46912">
        <ele>600.766</ele>
        <time>2020-06-24T14:20:28Z</time>
      </trkpt>
      <trkpt lat="43.87248" lon="7.46911">
        <ele>597.823</ele>
        <time>2020-06-24T14:20:43Z</time>
      </trkpt>
      <trkpt lat="43.87267" lon="7.46895">
        <ele>594.055</ele>
        <time>2020-06-24T14:20:59Z</time>
      </trkpt>
      <trkpt lat="43.87282" lon="7.46878">
        <ele>591.663</ele>
        <time>2020-06-24T14:21:14Z</time>
      </trkpt>
      <trkpt lat="43.87294" lon="7.46862">
        <ele>589.595</ele>
        <time>2020-06-24T14:21:29Z</time>
      </trkpt>
      <trkpt lat="43.87306" lon="7.46839">
        <ele>587.16</ele>
        <time>2020-06-24T14:21:44Z</time>
      </trkpt>
      <trkpt lat="43.87319" lon="7.46813">
        <ele>581.553</ele>
        <time>2020-06-24T14:22:00Z</time>
      </trkpt>
      <trkpt lat="43.87331" lon="7.468">
        <ele>581.158</ele>
        <time>2020-06-24T14:22:15Z</time>
      </trkpt>
      <trkpt lat="43.87332" lon="7.46792">
        <ele>582.646</ele>
        <time>2020-06-24T14:22:31Z</time>
      </trkpt>
      <trkpt lat="43.87338" lon="7.46773">
        <ele>582.54</ele>
        <time>2020-06-24T14:22:47Z</time>
      </trkpt>
      <trkpt lat="43.87343" lon="7.46757">
        <ele>582.24</ele>
        <time>2020-06-24T14:23:02Z</time>
      </trkpt>
      <trkpt lat="43.87345" lon="7.46756">
        <ele>582.426</ele>
        <time>2020-06-24T14:23:18Z</time>
      </trkpt>
      <trkpt lat="43.87359" lon="7.46751">
        <ele>583.612</ele>
        <time>2020-06-24T14:23:34Z</time>
      </trkpt>
      <trkpt lat="43.87372" lon="7.46741">
        <ele>581.255</ele>
        <time>2020-06-24T14:23:49Z</time>
      </trkpt>
      <trkpt lat="43.87382" lon="7.46733">
        <ele>577.814</ele>
        <time>2020-06-24T14:24:05Z</time>
      </trkpt>
      <trkpt lat="43.87388" lon="7.46723">
        <ele>574.624</ele>
        <time>2020-06-24T14:24:21Z</time>
      </trkpt>
      <trkpt lat="43.87395" lon="7.46707">
        <ele>572.176</ele>
        <time>2020-06-24T14:24:37Z</time>
      </trkpt>
      <trkpt lat="43.87398" lon="7.4669">
        <ele>571.258</ele>
        <time>2020-06-24T14:24:52Z</time>
      </trkpt>
      <trkpt lat="43.87398" lon="7.46688">
        <ele>571.632</ele>
        <time>2020-06-24T14:25:08Z</time>
      </trkpt>
      <trkpt lat="43.87405" lon="7.46672">
        <ele>568.981</ele>
        <time>2020-06-24T14:25:24Z</time>
      </trkpt>
      <trkpt lat="43.87404" lon="7.46661">
        <ele>567.988</ele>
        <time>2020-06-24T14:25:40Z</time>
      </trkpt>
      <trkpt lat="43.8741" lon="7.46647">
        <ele>564.525</ele>
        <time>2020-06-24T14:25:56Z</time>
      </trkpt>
      <trkpt lat="43.87412" lon="7.46635">
        <ele>561.479</ele>
        <time>2020-06-24T14:26:11Z</time>
      </trkpt>
      <trkpt lat="43.87415" lon="7.46626">
        <ele>558.331</ele>
        <time>2020-06-24T14:26:27Z</time>
      </trkpt>
      <trkpt lat="43.87418" lon="7.46617">
        <ele>557.778</ele>
        <time>2020-06-24T14:26:43Z</time>
      </trkpt>
      <trkpt lat="43.8742" lon="7.466">
        <ele>556.578</ele>
        <time>2020-06-24T14:26:58Z</time>
      </trkpt>
      <trkpt lat="43.87424" lon="7.46591">
        <ele>554.55</ele>
        <time>2020-06-24T14:27:13Z</time>
      </trkpt>
      <trkpt lat="43.87426" lon="7.46581">
        <ele>551.708</ele>
        <time>2020-06-24T14:27:29Z</time>
      </trkpt>
      <trkpt lat="43.87442" lon="7.46548">
        <ele>545.934</ele>
        <time>2020-06-24T14:27:45Z</time>
      </trkpt>
      <trkpt lat="43.87448" lon="7.46531">
        <ele>541.638</ele>
        <time>2020-06-24T14:28:00Z</time>
      </trkpt>
      <trkpt lat="43.87449" lon="7.46528">
        <ele>539.381</ele>
        <time>2020-06-24T14:28:16Z</time>
      </trkpt>
      <trkpt lat="43.87449" lon="7.46528">
        <ele>539.381</ele>
        <time>2020-06-24T14:28:31Z</time>
      </trkpt>
      <trkpt lat="43.87449" lon="7.46515">
        <ele>536.311</ele>
        <time>2020-06-24T14:28:47Z</time>
      </trkpt>
      <trkpt lat="43.87443" lon="7.46492">
        <ele>531.319</ele>
        <time>2020-06-24T14:29:03Z</time>
      </trkpt>
      <trkpt lat="43.87436" lon="7.46473">
        <ele>528.213</ele>
        <time>2020-06-24T14:29:19Z</time>
      </trkpt>
      <trkpt lat="43.87432" lon="7.46467">
        <ele>527.025</ele>
        <time>2020-06-24T14:29:34Z</time>
      </trkpt>
      <trkpt lat="43.87425" lon="7.46442">
        <ele>524.844</ele>
        <time>2020-06-24T14:29:50Z</time>
      </trkpt>
      <trkpt lat="43.87418" lon="7.46414">
        <ele>522.053</ele>
        <time>2020-06-24T14:30:06Z</time>
      </trkpt>
      <trkpt lat="43.87419" lon="7.46388">
        <ele>519.498</ele>
        <time>2020-06-24T14:30:21Z</time>
      </trkpt>
      <trkpt lat="43.87416" lon="7.46363">
        <ele>518.903</ele>
        <time>2020-06-24T14:30:36Z</time>
      </trkpt>
      <trkpt lat="43.87419" lon="7.46338">
        <ele>517.767</ele>
        <time>2020-06-24T14:30:52Z</time>
      </trkpt>
      <trkpt lat="43.87419" lon="7.4631">
        <ele>510.921</ele>
        <time>2020-06-24T14:31:08Z</time>
      </trkpt>
      <trkpt lat="43.87416" lon="7.46283">
        <ele>508.669</ele>
        <time>2020-06-24T14:31:23Z</time>
      </trkpt>
      <trkpt lat="43.87414" lon="7.46254">
        <ele>506.42</ele>
        <time>2020-06-24T14:31:39Z</time>
      </trkpt>
      <trkpt lat="43.87413" lon="7.4623">
        <ele>506.328</ele>
        <time>2020-06-24T14:31:54Z</time>
      </trkpt>
      <trkpt lat="43.87414" lon="7.46202">
        <ele>503.299</ele>
        <time>2020-06-24T14:32:09Z</time>
      </trkpt>
      <trkpt lat="43.87419" lon="7.4618">
        <ele>503.937</ele>
        <time>2020-06-24T14:32:25Z</time>
      </trkpt>
      <trkpt lat="43.87411" lon="7.46163">
        <ele>503.075</ele>
        <time>2020-06-24T14:32:40Z</time>
      </trkpt>
      <trkpt lat="43.87394" lon="7.4615">
        <ele>499.686</ele>
        <time>2020-06-24T14:32:56Z</time>
      </trkpt>
      <trkpt lat="43.87379" lon="7.46142">
        <ele>495.441</ele>
        <time>2020-06-24T14:33:11Z</time>
      </trkpt>
      <trkpt lat="43.87359" lon="7.46138">
        <ele>493.779</ele>
        <time>2020-06-24T14:33:27Z</time>
      </trkpt>
      <trkpt lat="43.87346" lon="7.4612">
        <ele>493.187</ele>
        <time>2020-06-24T14:33:43Z</time>
      </trkpt>
      <trkpt lat="43.87332" lon="7.46107">
        <ele>491.227</ele>
        <time>2020-06-24T14:33:58Z</time>
      </trkpt>
      <trkpt lat="43.87329" lon="7.46087">
        <ele>489.692</ele>
        <time>2020-06-24T14:34:14Z</time>
      </trkpt>
      <trkpt lat="43.87344" lon="7.46066">
        <ele>491.608</ele>
        <time>2020-06-24T14:34:30Z</time>
      </trkpt>
      <trkpt lat="43.87362" lon="7.46059">
        <ele>490.098</ele>
        <time>2020-06-24T14:34:45Z</time>
      </trkpt>
      <trkpt lat="43.87377" lon="7.46046">
        <ele>490.822</ele>
        <time>2020-06-24T14:35:01Z</time>
      </trkpt>
      <trkpt lat="43.87391" lon="7.46028">
        <ele>490.257</ele>
        <time>2020-06-24T14:35:16Z</time>
      </trkpt>
      <trkpt lat="43.87396" lon="7.46014">
        <ele>486.185</ele>
        <time>2020-06-24T14:35:32Z</time>
      </trkpt>
      <trkpt lat="43.87407" lon="7.45999">
        <ele>483.39</ele>
        <time>2020-06-24T14:35:47Z</time>
      </trkpt>
      <trkpt lat="43.87423" lon="7.45983">
        <ele>478.554</ele>
        <time>2020-06-24T14:36:02Z</time>
      </trkpt>
      <trkpt lat="43.87435" lon="7.4596">
        <ele>471.995</ele>
        <time>2020-06-24T14:36:18Z</time>
      </trkpt>
      <trkpt lat="43.87444" lon="7.45935">
        <ele>471.529</ele>
        <time>2020-06-24T14:36:34Z</time>
      </trkpt>
      <trkpt lat="43.87448" lon="7.45908">
        <ele>467.148</ele>
        <time>2020-06-24T14:36:50Z</time>
      </trkpt>
      <trkpt lat="43.87451" lon="7.45886">
        <ele>465.369</ele>
        <time>2020-06-24T14:37:05Z</time>
      </trkpt>
      <trkpt lat="43.87452" lon="7.4586">
        <ele>462.16</ele>
        <time>2020-06-24T14:37:20Z</time>
      </trkpt>
      <trkpt lat="43.87453" lon="7.45836">
        <ele>461.423</ele>
        <time>2020-06-24T14:37:36Z</time>
      </trkpt>
      <trkpt lat="43.87453" lon="7.45809">
        <ele>458.166</ele>
        <time>2020-06-24T14:37:51Z</time>
      </trkpt>
      <trkpt lat="43.87451" lon="7.45779">
        <ele>457.884</ele>
        <time>2020-06-24T14:38:07Z</time>
      </trkpt>
      <trkpt lat="43.87447" lon="7.45755">
        <ele>457.51</ele>
        <time>2020-06-24T14:38:23Z</time>
      </trkpt>
      <trkpt lat="43.87437" lon="7.45733">
        <ele>452.783</ele>
        <time>2020-06-24T14:38:38Z</time>
      </trkpt>
      <trkpt lat="43.8743" lon="7.45712">
        <ele>448.51</ele>
        <time>2020-06-24T14:38:53Z</time>
      </trkpt>
      <trkpt lat="43.87429" lon="7.45686">
        <ele>446.204</ele>
        <time>2020-06-24T14:39:09Z</time>
      </trkpt>
      <trkpt lat="43.87437" lon="7.45666">
        <ele>448.218</ele>
        <time>2020-06-24T14:39:24Z</time>
      </trkpt>
      <trkpt lat="43.87454" lon="7.45653">
        <ele>443.031</ele>
        <time>2020-06-24T14:39:39Z</time>
      </trkpt>
      <trkpt lat="43.8747" lon="7.45629">
        <ele>437.857</ele>
        <time>2020-06-24T14:39:55Z</time>
      </trkpt>
      <trkpt lat="43.87478" lon="7.45607">
        <ele>434.729</ele>
        <time>2020-06-24T14:40:10Z</time>
      </trkpt>
      <trkpt lat="43.87482" lon="7.45585">
        <ele>430.962</ele>
        <time>2020-06-24T14:40:26Z</time>
      </trkpt>
      <trkpt lat="43.87487" lon="7.45558">
        <ele>429.843</ele>
        <time>2020-06-24T14:40:41Z</time>
      </trkpt>
      <trkpt lat="43.87495" lon="7.45537">
        <ele>429.138</ele>
        <time>2020-06-24T14:40:57Z</time>
      </trkpt>
      <trkpt lat="43.87506" lon="7.45511">
        <ele>428.127</ele>
        <time>2020-06-24T14:41:12Z</time>
      </trkpt>
      <trkpt lat="43.87515" lon="7.45488">
        <ele>423.816</ele>
        <time>2020-06-24T14:41:28Z</time>
      </trkpt>
      <trkpt lat="43.87517" lon="7.45465">
        <ele>421.679</ele>
        <time>2020-06-24T14:41:43Z</time>
      </trkpt>
      <trkpt lat="43.87518" lon="7.4544">
        <ele>418.92</ele>
        <time>2020-06-24T14:41:58Z</time>
      </trkpt>
      <trkpt lat="43.87522" lon="7.45428">
        <ele>415.45</ele>
        <time>2020-06-24T14:42:14Z</time>
      </trkpt>
      <trkpt lat="43.87522" lon="7.45428">
        <ele>415.45</ele>
        <time>2020-06-24T14:42:29Z</time>
      </trkpt>
      <trkpt lat="43.87529" lon="7.4543">
        <ele>416.236</ele>
        <time>2020-06-24T14:42:44Z</time>
      </trkpt>
      <trkpt lat="43.8755" lon="7.45432">
        <ele>417.196</ele>
        <time>2020-06-24T14:43:00Z</time>
      </trkpt>
      <trkpt lat="43.87553" lon="7.45421">
        <ele>411.976</ele>
        <time>2020-06-24T14:43:16Z</time>
      </trkpt>
      <trkpt lat="43.87553" lon="7.45421">
        <ele>411.976</ele>
        <time>2020-06-24T14:43:32Z</time>
      </trkpt>
      <trkpt lat="43.87553" lon="7.45421">
        <ele>411.976</ele>
        <time>2020-06-24T14:43:48Z</time>
      </trkpt>
      <trkpt lat="43.87553" lon="7.45421">
        <ele>411.976</ele>
        <time>2020-06-24T14:44:04Z</time>
      </trkpt>
      <trkpt lat="43.87553" lon="7.45421">
        <ele>411.976</ele>
        <time>2020-06-24T14:44:20Z</time>
      </trkpt>
      <trkpt lat="43.87553" lon="7.45421">
        <ele>411.976</ele>
        <time>2020-06-24T14:44:35Z</time>
      </trkpt>
      <trkpt lat="43.87553" lon="7.45421">
        <ele>411.976</ele>
        <time>2020-06-24T14:44:51Z</time>
      </trkpt>
      <trkpt lat="43.87553" lon="7.45421">
        <ele>411.976</ele>
        <time>2020-06-24T14:45:07Z</time>
      </trkpt>
      <trkpt lat="43.87553" lon="7.45421">
        <ele>411.976</ele>
        <time>2020-06-24T14:45:23Z</time>
      </trkpt>
      <trkpt lat="43.87553" lon="7.45421">
        <ele>411.976</ele>
        <time>2020-06-24T14:45:39Z</time>
      </trkpt>
      <trkpt lat="43.87553" lon="7.45421">
        <ele>411.976</ele>
        <time>2020-06-24T14:45:54Z</time>
      </trkpt>
      <trkpt lat="43.87553" lon="7.45421">
        <ele>411.976</ele>
        <time>2020-06-24T14:46:10Z</time>
      </trkpt>
      <trkpt lat="43.87553" lon="7.45421">
        <ele>411.976</ele>
        <time>2020-06-24T14:46:26Z</time>
      </trkpt>
      <trkpt lat="43.87553" lon="7.45421">
        <ele>411.976</ele>
        <time>2020-06-24T14:46:42Z</time>
      </trkpt>
      <trkpt lat="43.87553" lon="7.45421">
        <ele>411.976</ele>
        <time>2020-06-24T14:46:58Z</time>
      </trkpt>
      <trkpt lat="43.87553" lon="7.45421">
        <ele>411.976</ele>
        <time>2020-06-24T14:47:13Z</time>
      </trkpt>
      <trkpt lat="43.87553" lon="7.45421">
        <ele>411.976</ele>
        <time>2020-06-24T14:47:29Z</time>
      </trkpt>
      <trkpt lat="43.87553" lon="7.45421">
        <ele>411.976</ele>
        <time>2020-06-24T14:47:44Z</time>
      </trkpt>
      <trkpt lat="43.87553" lon="7.45421">
        <ele>411.976</ele>
        <time>2020-06-24T14:47:59Z</time>
      </trkpt>
      <trkpt lat="43.87553" lon="7.45421">
        <ele>411.976</ele>
        <time>2020-06-24T14:48:15Z</time>
      </trkpt>
      <trkpt lat="43.87561" lon="7.4541">
        <ele>411.1</ele>
        <time>2020-06-24T14:48:30Z</time>
      </trkpt>
      <trkpt lat="43.87561" lon="7.4541">
        <ele>411.1</ele>
        <time>2020-06-24T14:48:46Z</time>
      </trkpt>
      <trkpt lat="43.87561" lon="7.45396">
        <ele>411.173</ele>
        <time>2020-06-24T14:49:02Z</time>
      </trkpt>
      <trkpt lat="43.87561" lon="7.4537">
        <ele>410.552</ele>
        <time>2020-06-24T14:49:18Z</time>
      </trkpt>
      <trkpt lat="43.8757" lon="7.45343">
        <ele>413.007</ele>
        <time>2020-06-24T14:49:34Z</time>
      </trkpt>
      <trkpt lat="43.87577" lon="7.45317">
        <ele>413.301</ele>
        <time>2020-06-24T14:49:50Z</time>
      </trkpt>
      <trkpt lat="43.87584" lon="7.45291">
        <ele>411.384</ele>
        <time>2020-06-24T14:50:05Z</time>
      </trkpt>
      <trkpt lat="43.87589" lon="7.45264">
        <ele>410.757</ele>
        <time>2020-06-24T14:50:21Z</time>
      </trkpt>
      <trkpt lat="43.87601" lon="7.45238">
        <ele>408.944</ele>
        <time>2020-06-24T14:50:37Z</time>
      </trkpt>
      <trkpt lat="43.87616" lon="7.45226">
        <ele>412.943</ele>
        <time>2020-06-24T14:50:52Z</time>
      </trkpt>
      <trkpt lat="43.87633" lon="7.45221">
        <ele>414.537</ele>
        <time>2020-06-24T14:51:08Z</time>
      </trkpt>
      <trkpt lat="43.87655" lon="7.45212">
        <ele>413.03</ele>
        <time>2020-06-24T14:51:23Z</time>
      </trkpt>
      <trkpt lat="43.87669" lon="7.45188">
        <ele>407.57</ele>
        <time>2020-06-24T14:51:39Z</time>
      </trkpt>
      <trkpt lat="43.87661" lon="7.45159">
        <ele>403.469</ele>
        <time>2020-06-24T14:51:54Z</time>
      </trkpt>
      <trkpt lat="43.87657" lon="7.45135">
        <ele>401.16</ele>
        <time>2020-06-24T14:52:10Z</time>
      </trkpt>
      <trkpt lat="43.87659" lon="7.4511">
        <ele>403.66</ele>
        <time>2020-06-24T14:52:25Z</time>
      </trkpt>
      <trkpt lat="43.87656" lon="7.45087">
        <ele>400.086</ele>
        <time>2020-06-24T14:52:41Z</time>
      </trkpt>
      <trkpt lat="43.87656" lon="7.45066">
        <ele>399.332</ele>
        <time>2020-06-24T14:52:56Z</time>
      </trkpt>
      <trkpt lat="43.87671" lon="7.45043">
        <ele>404.111</ele>
        <time>2020-06-24T14:53:12Z</time>
      </trkpt>
      <trkpt lat="43.87691" lon="7.4503">
        <ele>401.441</ele>
        <time>2020-06-24T14:53:28Z</time>
      </trkpt>
      <trkpt lat="43.87711" lon="7.45019">
        <ele>398.974</ele>
        <time>2020-06-24T14:53:44Z</time>
      </trkpt>
      <trkpt lat="43.87731" lon="7.45006">
        <ele>394.527</ele>
        <time>2020-06-24T14:53:59Z</time>
      </trkpt>
      <trkpt lat="43.87733" lon="7.44991">
        <ele>393.276</ele>
        <time>2020-06-24T14:54:15Z</time>
      </trkpt>
      <trkpt lat="43.87748" lon="7.44982">
        <ele>398.152</ele>
        <time>2020-06-24T14:54:31Z</time>
      </trkpt>
      <trkpt lat="43.87752" lon="7.4497">
        <ele>398.052</ele>
        <time>2020-06-24T14:54:46Z</time>
      </trkpt>
      <trkpt lat="43.87759" lon="7.4495">
        <ele>395.851</ele>
        <time>2020-06-24T14:55:01Z</time>
      </trkpt>
      <trkpt lat="43.87763" lon="7.44941">
        <ele>395.524</ele>
        <time>2020-06-24T14:55:17Z</time>
      </trkpt>
      <trkpt lat="43.87765" lon="7.44938">
        <ele>394.808</ele>
        <time>2020-06-24T14:55:32Z</time>
      </trkpt>
      <trkpt lat="43.87765" lon="7.44938">
        <ele>394.808</ele>
        <time>2020-06-24T14:55:47Z</time>
      </trkpt>
      <trkpt lat="43.87766" lon="7.44936">
        <ele>394.973</ele>
        <time>2020-06-24T14:56:02Z</time>
      </trkpt>
      <trkpt lat="43.87766" lon="7.4494">
        <ele>395.447</ele>
        <time>2020-06-24T14:56:17Z</time>
      </trkpt>
      <trkpt lat="43.87762" lon="7.44942">
        <ele>394.734</ele>
        <time>2020-06-24T14:56:33Z</time>
      </trkpt>
      <trkpt lat="43.87759" lon="7.44938">
        <ele>394.709</ele>
        <time>2020-06-24T14:56:48Z</time>
      </trkpt>
      <trkpt lat="43.87781" lon="7.44909">
        <ele>397.843</ele>
        <time>2020-06-24T14:57:16Z</time>
      </trkpt>
      <trkpt lat="43.87778" lon="7.44909">
        <ele>397.863</ele>
        <time>2020-06-24T14:57:33Z</time>
      </trkpt>
      <trkpt lat="43.87768" lon="7.44918">
        <ele>424.528</ele>
        <time>2020-06-24T14:57:49Z</time>
      </trkpt>
      <trkpt lat="43.87763" lon="7.44921">
        <ele>407.002</ele>
        <time>2020-06-24T14:58:05Z</time>
      </trkpt>
      <trkpt lat="43.87757" lon="7.44934">
        <ele>386.898</ele>
        <time>2020-06-24T14:58:20Z</time>
      </trkpt>
      <trkpt lat="43.87759" lon="7.44916">
        <ele>394.157</ele>
        <time>2020-06-24T14:58:35Z</time>
      </trkpt>
      <trkpt lat="43.87761" lon="7.44948">
        <ele>388.717</ele>
        <time>2020-06-24T14:58:50Z</time>
      </trkpt>
      <trkpt lat="43.87766" lon="7.44934">
        <ele>385.165</ele>
        <time>2020-06-24T14:59:06Z</time>
      </trkpt>
      <trkpt lat="43.8775" lon="7.44929">
        <ele>391.023</ele>
        <time>2020-06-24T14:59:21Z</time>
      </trkpt>
      <trkpt lat="43.87717" lon="7.44949">
        <ele>401.894</ele>
        <time>2020-06-24T14:59:36Z</time>
      </trkpt>
      <trkpt lat="43.8773" lon="7.4497">
        <ele>411.349</ele>
        <time>2020-06-24T14:59:52Z</time>
      </trkpt>
      <trkpt lat="43.87733" lon="7.44963">
        <ele>412.903</ele>
        <time>2020-06-24T15:00:07Z</time>
      </trkpt>
      <trkpt lat="43.87779" lon="7.4495">
        <ele>404.183</ele>
        <time>2020-06-24T15:00:22Z</time>
      </trkpt>
      <trkpt lat="43.87765" lon="7.44969">
        <ele>404.268</ele>
        <time>2020-06-24T15:00:37Z</time>
      </trkpt>
      <trkpt lat="43.8775" lon="7.44972">
        <ele>421.034</ele>
        <time>2020-06-24T15:00:53Z</time>
      </trkpt>
      <trkpt lat="43.87774" lon="7.44953">
        <ele>398.046</ele>
        <time>2020-06-24T15:05:14Z</time>
      </trkpt>
      <trkpt lat="43.87756" lon="7.44942">
        <ele>399.006</ele>
        <time>2020-06-24T15:05:30Z</time>
      </trkpt>
      <trkpt lat="43.87756" lon="7.44942">
        <ele>401.351</ele>
        <time>2020-06-24T15:05:46Z</time>
      </trkpt>
      <trkpt lat="43.87756" lon="7.44942">
        <ele>401.351</ele>
        <time>2020-06-24T15:06:01Z</time>
      </trkpt>
      <trkpt lat="43.87756" lon="7.44942">
        <ele>401.351</ele>
        <time>2020-06-24T15:06:16Z</time>
      </trkpt>
      <trkpt lat="43.87756" lon="7.44941">
        <ele>402.33</ele>
        <time>2020-06-24T15:06:32Z</time>
      </trkpt>
      <trkpt lat="43.87767" lon="7.44958">
        <ele>402.488</ele>
        <time>2020-06-24T15:06:48Z</time>
      </trkpt>
      <trkpt lat="43.87779" lon="7.45017">
        <ele>405.811</ele>
        <time>2020-06-24T15:07:04Z</time>
      </trkpt>
      <trkpt lat="43.87775" lon="7.45009">
        <ele>407.769</ele>
        <time>2020-06-24T15:07:20Z</time>
      </trkpt>
      <trkpt lat="43.87747" lon="7.44944">
        <ele>406.809</ele>
        <time>2020-06-24T15:07:36Z</time>
      </trkpt>
      <trkpt lat="43.87745" lon="7.44933">
        <ele>405.951</ele>
        <time>2020-06-24T15:07:52Z</time>
      </trkpt>
      <trkpt lat="43.87756" lon="7.4495">
        <ele>406.544</ele>
        <time>2020-06-24T15:08:07Z</time>
      </trkpt>
      <trkpt lat="43.87762" lon="7.4496">
        <ele>406.08</ele>
        <time>2020-06-24T15:08:23Z</time>
      </trkpt>
      <trkpt lat="43.87761" lon="7.44951">
        <ele>397.843</ele>
        <time>2020-06-24T15:08:53Z</time>
      </trkpt>
      <trkpt lat="43.87757" lon="7.44947">
        <ele>384.741</ele>
        <time>2020-06-24T15:09:09Z</time>
      </trkpt>
      <trkpt lat="43.87757" lon="7.44947">
        <ele>384.741</ele>
        <time>2020-06-24T15:09:24Z</time>
      </trkpt>
      <trkpt lat="43.87757" lon="7.44947">
        <ele>384.741</ele>
        <time>2020-06-24T15:09:39Z</time>
      </trkpt>
      <trkpt lat="43.8776" lon="7.44944">
        <ele>393.699</ele>
        <time>2020-06-24T15:09:55Z</time>
      </trkpt>
      <trkpt lat="43.87758" lon="7.44947">
        <ele>390.3</ele>
        <time>2020-06-24T15:10:10Z</time>
      </trkpt>
      <trkpt lat="43.87756" lon="7.44946">
        <ele>392.197</ele>
        <time>2020-06-24T15:10:26Z</time>
      </trkpt>
      <trkpt lat="43.87756" lon="7.44945">
        <ele>394.346</ele>
        <time>2020-06-24T15:10:41Z</time>
      </trkpt>
      <trkpt lat="43.87756" lon="7.44945">
        <ele>394.346</ele>
        <time>2020-06-24T15:10:57Z</time>
      </trkpt>
      <trkpt lat="43.87756" lon="7.44945">
        <ele>394.346</ele>
        <time>2020-06-24T15:11:12Z</time>
      </trkpt>
      <trkpt lat="43.87756" lon="7.44945">
        <ele>394.346</ele>
        <time>2020-06-24T15:11:28Z</time>
      </trkpt>
      <trkpt lat="43.87756" lon="7.44945">
        <ele>394.346</ele>
        <time>2020-06-24T15:11:44Z</time>
      </trkpt>
      <trkpt lat="43.87756" lon="7.44945">
        <ele>394.346</ele>
        <time>2020-06-24T15:11:59Z</time>
      </trkpt>
      <trkpt lat="43.87756" lon="7.44945">
        <ele>394.346</ele>
        <time>2020-06-24T15:12:14Z</time>
      </trkpt>
      <trkpt lat="43.87766" lon="7.44934">
        <ele>397.871</ele>
        <time>2020-06-24T15:12:30Z</time>
      </trkpt>
      <trkpt lat="43.87768" lon="7.44934">
        <ele>397.778</ele>
        <time>2020-06-24T15:12:46Z</time>
      </trkpt>
      <trkpt lat="43.87755" lon="7.44943">
        <ele>398.678</ele>
        <time>2020-06-24T15:13:02Z</time>
      </trkpt>
      <trkpt lat="43.87753" lon="7.44948">
        <ele>398.585</ele>
        <time>2020-06-24T15:13:18Z</time>
      </trkpt>
      <trkpt lat="43.87756" lon="7.44945">
        <ele>400.137</ele>
        <time>2020-06-24T15:13:34Z</time>
      </trkpt>
      <trkpt lat="43.87756" lon="7.44945">
        <ele>400.137</ele>
        <time>2020-06-24T15:13:50Z</time>
      </trkpt>
      <trkpt lat="43.87761" lon="7.4494">
        <ele>401.908</ele>
        <time>2020-06-24T15:14:05Z</time>
      </trkpt>
      <trkpt lat="43.87762" lon="7.44939">
        <ele>402.812</ele>
        <time>2020-06-24T15:14:21Z</time>
      </trkpt>
      <trkpt lat="43.87762" lon="7.44939">
        <ele>402.812</ele>
        <time>2020-06-24T15:14:36Z</time>
      </trkpt>
      <trkpt lat="43.87785" lon="7.44907">
        <ele>384.732</ele>
        <time>2020-06-24T15:16:35Z</time>
      </trkpt>
      <trkpt lat="43.87762" lon="7.44948">
        <ele>334.44</ele>
        <time>2020-06-24T15:16:50Z</time>
      </trkpt>
      <trkpt lat="43.87762" lon="7.44948">
        <ele>353.578</ele>
        <time>2020-06-24T15:17:06Z</time>
      </trkpt>
      <trkpt lat="43.87768" lon="7.44942">
        <ele>386.593</ele>
        <time>2020-06-24T15:17:22Z</time>
      </trkpt>
      <trkpt lat="43.87768" lon="7.44942">
        <ele>386.593</ele>
        <time>2020-06-24T15:17:37Z</time>
      </trkpt>
      <trkpt lat="43.87756" lon="7.4495">
        <ele>369.983</ele>
        <time>2020-06-24T15:17:53Z</time>
      </trkpt>
      <trkpt lat="43.87742" lon="7.44954">
        <ele>359.42</ele>
        <time>2020-06-24T15:18:09Z</time>
      </trkpt>
      <trkpt lat="43.8776" lon="7.44947">
        <ele>355.603</ele>
        <time>2020-06-24T15:18:24Z</time>
      </trkpt>
      <trkpt lat="43.87753" lon="7.44946">
        <ele>354.623</ele>
        <time>2020-06-24T15:18:40Z</time>
      </trkpt>
      <trkpt lat="43.87743" lon="7.44946">
        <ele>353.578</ele>
        <time>2020-06-24T15:18:56Z</time>
      </trkpt>
      <trkpt lat="43.87743" lon="7.44946">
        <ele>353.578</ele>
        <time>2020-06-24T15:19:11Z</time>
      </trkpt>
      <trkpt lat="43.87758" lon="7.44947">
        <ele>358.095</ele>
        <time>2020-06-24T15:19:27Z</time>
      </trkpt>
      <trkpt lat="43.8777" lon="7.44947">
        <ele>364.248</ele>
        <time>2020-06-24T15:19:42Z</time>
      </trkpt>
      <trkpt lat="43.87751" lon="7.44953">
        <ele>373.486</ele>
        <time>2020-06-24T15:19:58Z</time>
      </trkpt>
      <trkpt lat="43.8775" lon="7.44952">
        <ele>377.228</ele>
        <time>2020-06-24T15:20:14Z</time>
      </trkpt>
      <trkpt lat="43.8775" lon="7.44952">
        <ele>377.228</ele>
        <time>2020-06-24T15:20:29Z</time>
      </trkpt>
      <trkpt lat="43.8775" lon="7.44952">
        <ele>377.228</ele>
        <time>2020-06-24T15:20:45Z</time>
      </trkpt>
      <trkpt lat="43.8775" lon="7.44952">
        <ele>377.228</ele>
        <time>2020-06-24T15:21:00Z</time>
      </trkpt>
      <trkpt lat="43.87746" lon="7.44956">
        <ele>383.02</ele>
        <time>2020-06-24T15:21:15Z</time>
      </trkpt>
      <trkpt lat="43.87739" lon="7.44967">
        <ele>399.974</ele>
        <time>2020-06-24T15:21:31Z</time>
      </trkpt>
      <trkpt lat="43.87739" lon="7.44967">
        <ele>400.196</ele>
        <time>2020-06-24T15:21:47Z</time>
      </trkpt>
      <trkpt lat="43.87739" lon="7.44967">
        <ele>400.196</ele>
        <time>2020-06-24T15:22:03Z</time>
      </trkpt>
      <trkpt lat="43.87784" lon="7.44915">
        <ele>385.477</ele>
        <time>2020-06-24T15:22:19Z</time>
      </trkpt>
      <trkpt lat="43.8777" lon="7.44932">
        <ele>384.783</ele>
        <time>2020-06-24T15:22:34Z</time>
      </trkpt>
      <trkpt lat="43.87742" lon="7.44967">
        <ele>382.273</ele>
        <time>2020-06-24T15:22:49Z</time>
      </trkpt>
      <trkpt lat="43.87753" lon="7.44947">
        <ele>380.638</ele>
        <time>2020-06-24T15:23:05Z</time>
      </trkpt>
      <trkpt lat="43.87798" lon="7.44896">
        <ele>383.254</ele>
        <time>2020-06-24T15:23:21Z</time>
      </trkpt>
      <trkpt lat="43.87784" lon="7.44906">
        <ele>387.322</ele>
        <time>2020-06-24T15:23:37Z</time>
      </trkpt>
      <trkpt lat="43.87781" lon="7.44919">
        <ele>385.269</ele>
        <time>2020-06-24T15:23:53Z</time>
      </trkpt>
      <trkpt lat="43.87776" lon="7.44933">
        <ele>394.58</ele>
        <time>2020-06-24T15:24:09Z</time>
      </trkpt>
      <trkpt lat="43.87781" lon="7.44928">
        <ele>392.802</ele>
        <time>2020-06-24T15:24:25Z</time>
      </trkpt>
      <trkpt lat="43.87768" lon="7.44935">
        <ele>391.621</ele>
        <time>2020-06-24T15:24:40Z</time>
      </trkpt>
      <trkpt lat="43.8776" lon="7.44943">
        <ele>392.309</ele>
        <time>2020-06-24T15:24:56Z</time>
      </trkpt>
      <trkpt lat="43.87789" lon="7.44917">
        <ele>392.264</ele>
        <time>2020-06-24T15:25:11Z</time>
      </trkpt>
      <trkpt lat="43.87774" lon="7.44919">
        <ele>390.823</ele>
        <time>2020-06-24T15:25:27Z</time>
      </trkpt>
      <trkpt lat="43.87762" lon="7.4494">
        <ele>359.763</ele>
        <time>2020-06-24T15:30:52Z</time>
      </trkpt>
    </trkseg>
  </trk>
  <trk>
    <name><![CDATA[GR52 / GR5 par Menton_2]]></name>
    <trkseg>
      <trkpt lat="43.87766" lon="7.44901">
        <ele>392.509</ele>
        <time>2020-06-25T05:56:14Z</time>
      </trkpt>
      <trkpt lat="43.87712" lon="7.44894">
        <ele>339.643</ele>
        <time>2020-06-25T05:56:30Z</time>
      </trkpt>
      <trkpt lat="43.87712" lon="7.44894">
        <ele>339.643</ele>
        <time>2020-06-25T05:56:45Z</time>
      </trkpt>
      <trkpt lat="43.8778" lon="7.44915">
        <ele>381.985</ele>
        <time>2020-06-25T05:57:01Z</time>
      </trkpt>
      <trkpt lat="43.87805" lon="7.44923">
        <ele>392.933</ele>
        <time>2020-06-25T05:57:17Z</time>
      </trkpt>
      <trkpt lat="43.87823" lon="7.44921">
        <ele>405.048</ele>
        <time>2020-06-25T05:57:33Z</time>
      </trkpt>
      <trkpt lat="43.87827" lon="7.44901">
        <ele>413.922</ele>
        <time>2020-06-25T05:57:48Z</time>
      </trkpt>
      <trkpt lat="43.87839" lon="7.44857">
        <ele>405.142</ele>
        <time>2020-06-25T05:58:04Z</time>
      </trkpt>
      <trkpt lat="43.87838" lon="7.44835">
        <ele>401.476</ele>
        <time>2020-06-25T05:58:19Z</time>
      </trkpt>
      <trkpt lat="43.87837" lon="7.44813">
        <ele>402.84</ele>
        <time>2020-06-25T05:58:35Z</time>
      </trkpt>
      <trkpt lat="43.87841" lon="7.44788">
        <ele>402.424</ele>
        <time>2020-06-25T05:58:50Z</time>
      </trkpt>
      <trkpt lat="43.87849" lon="7.4476">
        <ele>402.828</ele>
        <time>2020-06-25T05:59:06Z</time>
      </trkpt>
      <trkpt lat="43.8785" lon="7.4475">
        <ele>403.488</ele>
        <time>2020-06-25T05:59:21Z</time>
      </trkpt>
      <trkpt lat="43.87855" lon="7.44749">
        <ele>404.747</ele>
        <time>2020-06-25T05:59:36Z</time>
      </trkpt>
      <trkpt lat="43.87865" lon="7.44766">
        <ele>403.394</ele>
        <time>2020-06-25T05:59:52Z</time>
      </trkpt>
      <trkpt lat="43.87874" lon="7.44792">
        <ele>403.047</ele>
        <time>2020-06-25T06:00:08Z</time>
      </trkpt>
      <trkpt lat="43.87882" lon="7.44813">
        <ele>406.13</ele>
        <time>2020-06-25T06:00:23Z</time>
      </trkpt>
      <trkpt lat="43.87888" lon="7.44832">
        <ele>406.128</ele>
        <time>2020-06-25T06:00:38Z</time>
      </trkpt>
      <trkpt lat="43.87893" lon="7.44838">
        <ele>408.835</ele>
        <time>2020-06-25T06:00:54Z</time>
      </trkpt>
      <trkpt lat="43.87908" lon="7.44824">
        <ele>408.399</ele>
        <time>2020-06-25T06:01:10Z</time>
      </trkpt>
      <trkpt lat="43.87913" lon="7.44815">
        <ele>409.85</ele>
        <time>2020-06-25T06:01:25Z</time>
      </trkpt>
      <trkpt lat="43.8791" lon="7.44802">
        <ele>409.473</ele>
        <time>2020-06-25T06:01:41Z</time>
      </trkpt>
      <trkpt lat="43.87902" lon="7.44783">
        <ele>411.932</ele>
        <time>2020-06-25T06:01:57Z</time>
      </trkpt>
      <trkpt lat="43.87909" lon="7.44778">
        <ele>416.401</ele>
        <time>2020-06-25T06:02:13Z</time>
      </trkpt>
      <trkpt lat="43.87914" lon="7.44778">
        <ele>417.509</ele>
        <time>2020-06-25T06:02:28Z</time>
      </trkpt>
      <trkpt lat="43.87922" lon="7.44778">
        <ele>417.162</ele>
        <time>2020-06-25T06:02:44Z</time>
      </trkpt>
      <trkpt lat="43.87926" lon="7.44773">
        <ele>416.453</ele>
        <time>2020-06-25T06:02:59Z</time>
      </trkpt>
      <trkpt lat="43.87937" lon="7.4476">
        <ele>420.242</ele>
        <time>2020-06-25T06:03:15Z</time>
      </trkpt>
      <trkpt lat="43.87951" lon="7.44746">
        <ele>422.024</ele>
        <time>2020-06-25T06:03:31Z</time>
      </trkpt>
      <trkpt lat="43.8796" lon="7.44736">
        <ele>426.367</ele>
        <time>2020-06-25T06:03:47Z</time>
      </trkpt>
      <trkpt lat="43.87969" lon="7.44728">
        <ele>428.619</ele>
        <time>2020-06-25T06:04:03Z</time>
      </trkpt>
      <trkpt lat="43.8798" lon="7.4472">
        <ele>432.003</ele>
        <time>2020-06-25T06:04:18Z</time>
      </trkpt>
      <trkpt lat="43.87992" lon="7.4471">
        <ele>435.715</ele>
        <time>2020-06-25T06:04:34Z</time>
      </trkpt>
      <trkpt lat="43.88004" lon="7.44695">
        <ele>436.077</ele>
        <time>2020-06-25T06:04:49Z</time>
      </trkpt>
      <trkpt lat="43.88017" lon="7.44685">
        <ele>438.879</ele>
        <time>2020-06-25T06:05:05Z</time>
      </trkpt>
      <trkpt lat="43.88028" lon="7.44674">
        <ele>442.486</ele>
        <time>2020-06-25T06:05:21Z</time>
      </trkpt>
      <trkpt lat="43.88041" lon="7.4467">
        <ele>441.999</ele>
        <time>2020-06-25T06:05:36Z</time>
      </trkpt>
      <trkpt lat="43.88053" lon="7.44657">
        <ele>441.403</ele>
        <time>2020-06-25T06:05:52Z</time>
      </trkpt>
      <trkpt lat="43.88062" lon="7.44644">
        <ele>442.302</ele>
        <time>2020-06-25T06:06:07Z</time>
      </trkpt>
      <trkpt lat="43.88075" lon="7.44637">
        <ele>445.121</ele>
        <time>2020-06-25T06:06:23Z</time>
      </trkpt>
      <trkpt lat="43.88082" lon="7.44616">
        <ele>455.792</ele>
        <time>2020-06-25T06:06:39Z</time>
      </trkpt>
      <trkpt lat="43.88088" lon="7.44599">
        <ele>455.539</ele>
        <time>2020-06-25T06:06:55Z</time>
      </trkpt>
      <trkpt lat="43.88099" lon="7.44586">
        <ele>451.954</ele>
        <time>2020-06-25T06:07:10Z</time>
      </trkpt>
      <trkpt lat="43.88112" lon="7.44573">
        <ele>452.002</ele>
        <time>2020-06-25T06:07:26Z</time>
      </trkpt>
      <trkpt lat="43.88123" lon="7.44562">
        <ele>457.063</ele>
        <time>2020-06-25T06:07:42Z</time>
      </trkpt>
      <trkpt lat="43.88133" lon="7.44547">
        <ele>456.067</ele>
        <time>2020-06-25T06:07:58Z</time>
      </trkpt>
      <trkpt lat="43.88143" lon="7.44536">
        <ele>458.938</ele>
        <time>2020-06-25T06:08:13Z</time>
      </trkpt>
      <trkpt lat="43.88146" lon="7.44534">
        <ele>457.695</ele>
        <time>2020-06-25T06:08:29Z</time>
      </trkpt>
      <trkpt lat="43.88146" lon="7.44534">
        <ele>457.695</ele>
        <time>2020-06-25T06:08:44Z</time>
      </trkpt>
      <trkpt lat="43.88149" lon="7.44531">
        <ele>457.46</ele>
        <time>2020-06-25T06:08:59Z</time>
      </trkpt>
      <trkpt lat="43.88164" lon="7.44525">
        <ele>458.441</ele>
        <time>2020-06-25T06:09:15Z</time>
      </trkpt>
      <trkpt lat="43.8818" lon="7.44524">
        <ele>462.53</ele>
        <time>2020-06-25T06:09:31Z</time>
      </trkpt>
      <trkpt lat="43.88192" lon="7.44517">
        <ele>470.663</ele>
        <time>2020-06-25T06:09:47Z</time>
      </trkpt>
      <trkpt lat="43.88208" lon="7.4451">
        <ele>476.263</ele>
        <time>2020-06-25T06:10:03Z</time>
      </trkpt>
      <trkpt lat="43.88223" lon="7.44499">
        <ele>475.296</ele>
        <time>2020-06-25T06:10:19Z</time>
      </trkpt>
      <trkpt lat="43.88236" lon="7.44496">
        <ele>471.963</ele>
        <time>2020-06-25T06:10:34Z</time>
      </trkpt>
      <trkpt lat="43.88248" lon="7.445">
        <ele>471.884</ele>
        <time>2020-06-25T06:10:49Z</time>
      </trkpt>
      <trkpt lat="43.88265" lon="7.44504">
        <ele>475.199</ele>
        <time>2020-06-25T06:11:04Z</time>
      </trkpt>
      <trkpt lat="43.88273" lon="7.44505">
        <ele>479.013</ele>
        <time>2020-06-25T06:11:19Z</time>
      </trkpt>
      <trkpt lat="43.88287" lon="7.44509">
        <ele>480.936</ele>
        <time>2020-06-25T06:11:35Z</time>
      </trkpt>
      <trkpt lat="43.88298" lon="7.44514">
        <ele>480.511</ele>
        <time>2020-06-25T06:11:51Z</time>
      </trkpt>
      <trkpt lat="43.88319" lon="7.44517">
        <ele>480.895</ele>
        <time>2020-06-25T06:12:07Z</time>
      </trkpt>
      <trkpt lat="43.88336" lon="7.44524">
        <ele>483.933</ele>
        <time>2020-06-25T06:12:22Z</time>
      </trkpt>
      <trkpt lat="43.88352" lon="7.44531">
        <ele>483.965</ele>
        <time>2020-06-25T06:12:37Z</time>
      </trkpt>
      <trkpt lat="43.88368" lon="7.4453">
        <ele>483.642</ele>
        <time>2020-06-25T06:12:53Z</time>
      </trkpt>
      <trkpt lat="43.88384" lon="7.44536">
        <ele>488.654</ele>
        <time>2020-06-25T06:13:09Z</time>
      </trkpt>
      <trkpt lat="43.88396" lon="7.44541">
        <ele>494.916</ele>
        <time>2020-06-25T06:13:25Z</time>
      </trkpt>
      <trkpt lat="43.88395" lon="7.44534">
        <ele>500.34</ele>
        <time>2020-06-25T06:13:41Z</time>
      </trkpt>
      <trkpt lat="43.88396" lon="7.44523">
        <ele>494.478</ele>
        <time>2020-06-25T06:13:56Z</time>
      </trkpt>
      <trkpt lat="43.88395" lon="7.44505">
        <ele>488.438</ele>
        <time>2020-06-25T06:14:11Z</time>
      </trkpt>
      <trkpt lat="43.88398" lon="7.44489">
        <ele>483.356</ele>
        <time>2020-06-25T06:14:27Z</time>
      </trkpt>
      <trkpt lat="43.88398" lon="7.44471">
        <ele>481.904</ele>
        <time>2020-06-25T06:14:43Z</time>
      </trkpt>
      <trkpt lat="43.88394" lon="7.44453">
        <ele>482.43</ele>
        <time>2020-06-25T06:14:59Z</time>
      </trkpt>
      <trkpt lat="43.8839" lon="7.44434">
        <ele>486.358</ele>
        <time>2020-06-25T06:15:14Z</time>
      </trkpt>
      <trkpt lat="43.88385" lon="7.44422">
        <ele>491.24</ele>
        <time>2020-06-25T06:15:30Z</time>
      </trkpt>
      <trkpt lat="43.88391" lon="7.44406">
        <ele>490.887</ele>
        <time>2020-06-25T06:15:45Z</time>
      </trkpt>
      <trkpt lat="43.884" lon="7.44393">
        <ele>491.969</ele>
        <time>2020-06-25T06:16:01Z</time>
      </trkpt>
      <trkpt lat="43.88412" lon="7.44389">
        <ele>493.855</ele>
        <time>2020-06-25T06:16:16Z</time>
      </trkpt>
      <trkpt lat="43.88424" lon="7.44389">
        <ele>500.964</ele>
        <time>2020-06-25T06:16:31Z</time>
      </trkpt>
      <trkpt lat="43.88437" lon="7.44384">
        <ele>503.217</ele>
        <time>2020-06-25T06:16:46Z</time>
      </trkpt>
      <trkpt lat="43.8845" lon="7.44386">
        <ele>505.336</ele>
        <time>2020-06-25T06:17:02Z</time>
      </trkpt>
      <trkpt lat="43.88466" lon="7.4438">
        <ele>505.203</ele>
        <time>2020-06-25T06:17:18Z</time>
      </trkpt>
      <trkpt lat="43.88481" lon="7.44375">
        <ele>508.579</ele>
        <time>2020-06-25T06:17:33Z</time>
      </trkpt>
      <trkpt lat="43.88494" lon="7.44371">
        <ele>516.096</ele>
        <time>2020-06-25T06:17:49Z</time>
      </trkpt>
      <trkpt lat="43.88507" lon="7.4437">
        <ele>517.603</ele>
        <time>2020-06-25T06:18:05Z</time>
      </trkpt>
      <trkpt lat="43.88521" lon="7.44368">
        <ele>518.168</ele>
        <time>2020-06-25T06:18:21Z</time>
      </trkpt>
      <trkpt lat="43.88536" lon="7.44372">
        <ele>518.999</ele>
        <time>2020-06-25T06:18:37Z</time>
      </trkpt>
      <trkpt lat="43.88548" lon="7.44374">
        <ele>518.502</ele>
        <time>2020-06-25T06:18:53Z</time>
      </trkpt>
      <trkpt lat="43.88561" lon="7.44373">
        <ele>524.463</ele>
        <time>2020-06-25T06:19:09Z</time>
      </trkpt>
      <trkpt lat="43.88569" lon="7.44376">
        <ele>530.554</ele>
        <time>2020-06-25T06:19:24Z</time>
      </trkpt>
      <trkpt lat="43.88582" lon="7.44382">
        <ele>530.014</ele>
        <time>2020-06-25T06:19:40Z</time>
      </trkpt>
      <trkpt lat="43.88593" lon="7.44384">
        <ele>527.515</ele>
        <time>2020-06-25T06:19:55Z</time>
      </trkpt>
      <trkpt lat="43.88605" lon="7.44384">
        <ele>530.488</ele>
        <time>2020-06-25T06:20:10Z</time>
      </trkpt>
      <trkpt lat="43.88613" lon="7.44385">
        <ele>534.393</ele>
        <time>2020-06-25T06:20:26Z</time>
      </trkpt>
      <trkpt lat="43.88627" lon="7.44389">
        <ele>534.029</ele>
        <time>2020-06-25T06:20:41Z</time>
      </trkpt>
      <trkpt lat="43.88643" lon="7.44389">
        <ele>535.307</ele>
        <time>2020-06-25T06:20:57Z</time>
      </trkpt>
      <trkpt lat="43.88651" lon="7.44399">
        <ele>532.081</ele>
        <time>2020-06-25T06:21:13Z</time>
      </trkpt>
      <trkpt lat="43.88667" lon="7.44397">
        <ele>532.907</ele>
        <time>2020-06-25T06:21:29Z</time>
      </trkpt>
      <trkpt lat="43.88678" lon="7.44398">
        <ele>532.996</ele>
        <time>2020-06-25T06:21:45Z</time>
      </trkpt>
      <trkpt lat="43.88689" lon="7.44395">
        <ele>537.515</ele>
        <time>2020-06-25T06:22:01Z</time>
      </trkpt>
      <trkpt lat="43.88701" lon="7.44392">
        <ele>539.994</ele>
        <time>2020-06-25T06:22:17Z</time>
      </trkpt>
      <trkpt lat="43.88713" lon="7.44392">
        <ele>539.935</ele>
        <time>2020-06-25T06:22:32Z</time>
      </trkpt>
      <trkpt lat="43.88718" lon="7.44394">
        <ele>540.315</ele>
        <time>2020-06-25T06:22:47Z</time>
      </trkpt>
      <trkpt lat="43.88723" lon="7.44401">
        <ele>538.9</ele>
        <time>2020-06-25T06:23:03Z</time>
      </trkpt>
      <trkpt lat="43.88717" lon="7.44405">
        <ele>542.225</ele>
        <time>2020-06-25T06:23:19Z</time>
      </trkpt>
      <trkpt lat="43.88706" lon="7.44413">
        <ele>544.327</ele>
        <time>2020-06-25T06:23:34Z</time>
      </trkpt>
      <trkpt lat="43.88704" lon="7.44416">
        <ele>550.55</ele>
        <time>2020-06-25T06:23:50Z</time>
      </trkpt>
      <trkpt lat="43.88711" lon="7.4441">
        <ele>554.484</ele>
        <time>2020-06-25T06:24:06Z</time>
      </trkpt>
      <trkpt lat="43.88722" lon="7.44411">
        <ele>555.333</ele>
        <time>2020-06-25T06:24:22Z</time>
      </trkpt>
      <trkpt lat="43.88734" lon="7.44414">
        <ele>558.581</ele>
        <time>2020-06-25T06:24:38Z</time>
      </trkpt>
      <trkpt lat="43.88743" lon="7.44421">
        <ele>562.168</ele>
        <time>2020-06-25T06:24:53Z</time>
      </trkpt>
      <trkpt lat="43.88754" lon="7.4443">
        <ele>561.8</ele>
        <time>2020-06-25T06:25:08Z</time>
      </trkpt>
      <trkpt lat="43.88766" lon="7.44442">
        <ele>566.483</ele>
        <time>2020-06-25T06:25:23Z</time>
      </trkpt>
      <trkpt lat="43.8878" lon="7.44445">
        <ele>566.133</ele>
        <time>2020-06-25T06:25:38Z</time>
      </trkpt>
      <trkpt lat="43.88796" lon="7.44444">
        <ele>566.103</ele>
        <time>2020-06-25T06:25:54Z</time>
      </trkpt>
      <trkpt lat="43.88812" lon="7.4445">
        <ele>565.735</ele>
        <time>2020-06-25T06:26:10Z</time>
      </trkpt>
      <trkpt lat="43.88826" lon="7.44456">
        <ele>566.887</ele>
        <time>2020-06-25T06:26:26Z</time>
      </trkpt>
      <trkpt lat="43.88841" lon="7.44462">
        <ele>568.418</ele>
        <time>2020-06-25T06:26:41Z</time>
      </trkpt>
      <trkpt lat="43.88858" lon="7.4446">
        <ele>568.021</ele>
        <time>2020-06-25T06:26:57Z</time>
      </trkpt>
      <trkpt lat="43.88868" lon="7.4446">
        <ele>571.544</ele>
        <time>2020-06-25T06:27:13Z</time>
      </trkpt>
      <trkpt lat="43.88883" lon="7.44465">
        <ele>576.956</ele>
        <time>2020-06-25T06:27:29Z</time>
      </trkpt>
      <trkpt lat="43.88896" lon="7.44477">
        <ele>578.152</ele>
        <time>2020-06-25T06:27:45Z</time>
      </trkpt>
      <trkpt lat="43.88917" lon="7.44499">
        <ele>570.589</ele>
        <time>2020-06-25T06:28:00Z</time>
      </trkpt>
      <trkpt lat="43.88924" lon="7.44503">
        <ele>570.035</ele>
        <time>2020-06-25T06:28:15Z</time>
      </trkpt>
      <trkpt lat="43.88926" lon="7.44491">
        <ele>570.696</ele>
        <time>2020-06-25T06:28:31Z</time>
      </trkpt>
      <trkpt lat="43.88931" lon="7.44481">
        <ele>572.628</ele>
        <time>2020-06-25T06:28:46Z</time>
      </trkpt>
      <trkpt lat="43.88933" lon="7.44503">
        <ele>571.035</ele>
        <time>2020-06-25T06:29:02Z</time>
      </trkpt>
      <trkpt lat="43.88941" lon="7.44518">
        <ele>567.896</ele>
        <time>2020-06-25T06:29:17Z</time>
      </trkpt>
      <trkpt lat="43.88943" lon="7.44534">
        <ele>570.282</ele>
        <time>2020-06-25T06:29:32Z</time>
      </trkpt>
      <trkpt lat="43.88944" lon="7.44552">
        <ele>572.32</ele>
        <time>2020-06-25T06:29:48Z</time>
      </trkpt>
      <trkpt lat="43.88949" lon="7.44571">
        <ele>572.261</ele>
        <time>2020-06-25T06:30:04Z</time>
      </trkpt>
      <trkpt lat="43.88946" lon="7.44566">
        <ele>579.339</ele>
        <time>2020-06-25T06:30:19Z</time>
      </trkpt>
      <trkpt lat="43.88944" lon="7.44548">
        <ele>580.552</ele>
        <time>2020-06-25T06:30:35Z</time>
      </trkpt>
      <trkpt lat="43.8895" lon="7.4453">
        <ele>578.269</ele>
        <time>2020-06-25T06:30:51Z</time>
      </trkpt>
      <trkpt lat="43.88957" lon="7.44516">
        <ele>576.872</ele>
        <time>2020-06-25T06:31:07Z</time>
      </trkpt>
      <trkpt lat="43.88959" lon="7.44533">
        <ele>580.045</ele>
        <time>2020-06-25T06:31:23Z</time>
      </trkpt>
      <trkpt lat="43.88961" lon="7.44549">
        <ele>583.709</ele>
        <time>2020-06-25T06:31:38Z</time>
      </trkpt>
      <trkpt lat="43.88961" lon="7.44568">
        <ele>587.078</ele>
        <time>2020-06-25T06:31:54Z</time>
      </trkpt>
      <trkpt lat="43.88965" lon="7.44569">
        <ele>590.507</ele>
        <time>2020-06-25T06:32:09Z</time>
      </trkpt>
      <trkpt lat="43.88962" lon="7.44555">
        <ele>588.643</ele>
        <time>2020-06-25T06:32:24Z</time>
      </trkpt>
      <trkpt lat="43.8897" lon="7.44536">
        <ele>584.354</ele>
        <time>2020-06-25T06:32:40Z</time>
      </trkpt>
      <trkpt lat="43.88977" lon="7.44538">
        <ele>585.823</ele>
        <time>2020-06-25T06:32:55Z</time>
      </trkpt>
      <trkpt lat="43.88976" lon="7.44546">
        <ele>586.535</ele>
        <time>2020-06-25T06:33:10Z</time>
      </trkpt>
      <trkpt lat="43.88977" lon="7.44565">
        <ele>590.181</ele>
        <time>2020-06-25T06:33:26Z</time>
      </trkpt>
      <trkpt lat="43.88984" lon="7.44579">
        <ele>594.952</ele>
        <time>2020-06-25T06:33:42Z</time>
      </trkpt>
      <trkpt lat="43.8899" lon="7.44592">
        <ele>596.74</ele>
        <time>2020-06-25T06:33:57Z</time>
      </trkpt>
      <trkpt lat="43.88989" lon="7.44585">
        <ele>599.498</ele>
        <time>2020-06-25T06:34:13Z</time>
      </trkpt>
      <trkpt lat="43.88986" lon="7.44569">
        <ele>602.214</ele>
        <time>2020-06-25T06:34:29Z</time>
      </trkpt>
      <trkpt lat="43.88993" lon="7.44563">
        <ele>602.368</ele>
        <time>2020-06-25T06:34:44Z</time>
      </trkpt>
      <trkpt lat="43.88998" lon="7.44579">
        <ele>601.436</ele>
        <time>2020-06-25T06:34:59Z</time>
      </trkpt>
      <trkpt lat="43.89004" lon="7.44593">
        <ele>603.065</ele>
        <time>2020-06-25T06:35:15Z</time>
      </trkpt>
      <trkpt lat="43.89004" lon="7.44593">
        <ele>603.154</ele>
        <time>2020-06-25T06:35:30Z</time>
      </trkpt>
      <trkpt lat="43.89004" lon="7.44593">
        <ele>603.154</ele>
        <time>2020-06-25T06:35:46Z</time>
      </trkpt>
      <trkpt lat="43.89004" lon="7.44593">
        <ele>603.154</ele>
        <time>2020-06-25T06:36:02Z</time>
      </trkpt>
      <trkpt lat="43.89001" lon="7.44579">
        <ele>605.814</ele>
        <time>2020-06-25T06:36:17Z</time>
      </trkpt>
      <trkpt lat="43.89013" lon="7.44568">
        <ele>602.982</ele>
        <time>2020-06-25T06:36:33Z</time>
      </trkpt>
      <trkpt lat="43.89014" lon="7.4458">
        <ele>602.609</ele>
        <time>2020-06-25T06:36:49Z</time>
      </trkpt>
      <trkpt lat="43.89023" lon="7.44595">
        <ele>607.45</ele>
        <time>2020-06-25T06:37:05Z</time>
      </trkpt>
      <trkpt lat="43.89025" lon="7.44612">
        <ele>612.844</ele>
        <time>2020-06-25T06:37:20Z</time>
      </trkpt>
      <trkpt lat="43.89021" lon="7.44625">
        <ele>615.074</ele>
        <time>2020-06-25T06:37:36Z</time>
      </trkpt>
      <trkpt lat="43.89032" lon="7.44619">
        <ele>622.147</ele>
        <time>2020-06-25T06:37:51Z</time>
      </trkpt>
      <trkpt lat="43.89032" lon="7.44607">
        <ele>621.432</ele>
        <time>2020-06-25T06:38:06Z</time>
      </trkpt>
      <trkpt lat="43.89027" lon="7.44585">
        <ele>623.414</ele>
        <time>2020-06-25T06:38:22Z</time>
      </trkpt>
      <trkpt lat="43.89033" lon="7.44584">
        <ele>622.459</ele>
        <time>2020-06-25T06:38:38Z</time>
      </trkpt>
      <trkpt lat="43.8904" lon="7.44603">
        <ele>621.866</ele>
        <time>2020-06-25T06:38:54Z</time>
      </trkpt>
      <trkpt lat="43.89045" lon="7.4462">
        <ele>622.369</ele>
        <time>2020-06-25T06:39:10Z</time>
      </trkpt>
      <trkpt lat="43.89047" lon="7.44638">
        <ele>625.141</ele>
        <time>2020-06-25T06:39:25Z</time>
      </trkpt>
      <trkpt lat="43.89048" lon="7.44631">
        <ele>631.766</ele>
        <time>2020-06-25T06:39:41Z</time>
      </trkpt>
      <trkpt lat="43.89047" lon="7.44613">
        <ele>634.865</ele>
        <time>2020-06-25T06:39:56Z</time>
      </trkpt>
      <trkpt lat="43.89054" lon="7.44597">
        <ele>631.583</ele>
        <time>2020-06-25T06:40:12Z</time>
      </trkpt>
      <trkpt lat="43.89068" lon="7.44588">
        <ele>632.035</ele>
        <time>2020-06-25T06:40:28Z</time>
      </trkpt>
      <trkpt lat="43.89079" lon="7.44585">
        <ele>631.445</ele>
        <time>2020-06-25T06:40:43Z</time>
      </trkpt>
      <trkpt lat="43.89087" lon="7.4459">
        <ele>638.039</ele>
        <time>2020-06-25T06:40:59Z</time>
      </trkpt>
      <trkpt lat="43.89077" lon="7.44604">
        <ele>637.976</ele>
        <time>2020-06-25T06:41:14Z</time>
      </trkpt>
      <trkpt lat="43.8907" lon="7.44621">
        <ele>639.911</ele>
        <time>2020-06-25T06:41:30Z</time>
      </trkpt>
      <trkpt lat="43.89074" lon="7.44625">
        <ele>642.361</ele>
        <time>2020-06-25T06:41:46Z</time>
      </trkpt>
      <trkpt lat="43.89084" lon="7.44633">
        <ele>644.864</ele>
        <time>2020-06-25T06:42:02Z</time>
      </trkpt>
      <trkpt lat="43.89095" lon="7.44645">
        <ele>645.43</ele>
        <time>2020-06-25T06:42:18Z</time>
      </trkpt>
      <trkpt lat="43.89106" lon="7.44656">
        <ele>650.171</ele>
        <time>2020-06-25T06:42:34Z</time>
      </trkpt>
      <trkpt lat="43.89114" lon="7.44665">
        <ele>654.674</ele>
        <time>2020-06-25T06:42:49Z</time>
      </trkpt>
      <trkpt lat="43.89124" lon="7.4468">
        <ele>655.149</ele>
        <time>2020-06-25T06:43:05Z</time>
      </trkpt>
      <trkpt lat="43.8913" lon="7.44684">
        <ele>654.735</ele>
        <time>2020-06-25T06:43:20Z</time>
      </trkpt>
      <trkpt lat="43.89132" lon="7.44684">
        <ele>657.927</ele>
        <time>2020-06-25T06:43:36Z</time>
      </trkpt>
      <trkpt lat="43.89127" lon="7.44674">
        <ele>657.73</ele>
        <time>2020-06-25T06:43:52Z</time>
      </trkpt>
      <trkpt lat="43.89122" lon="7.4466">
        <ele>661.316</ele>
        <time>2020-06-25T06:44:07Z</time>
      </trkpt>
      <trkpt lat="43.89118" lon="7.44646">
        <ele>660.236</ele>
        <time>2020-06-25T06:44:23Z</time>
      </trkpt>
      <trkpt lat="43.89124" lon="7.44624">
        <ele>656.472</ele>
        <time>2020-06-25T06:44:39Z</time>
      </trkpt>
      <trkpt lat="43.89136" lon="7.44606">
        <ele>658.221</ele>
        <time>2020-06-25T06:44:55Z</time>
      </trkpt>
      <trkpt lat="43.89145" lon="7.44604">
        <ele>662.955</ele>
        <time>2020-06-25T06:45:10Z</time>
      </trkpt>
      <trkpt lat="43.89153" lon="7.44589">
        <ele>674.176</ele>
        <time>2020-06-25T06:45:26Z</time>
      </trkpt>
      <trkpt lat="43.8916" lon="7.44579">
        <ele>672.75</ele>
        <time>2020-06-25T06:45:42Z</time>
      </trkpt>
      <trkpt lat="43.89163" lon="7.44567">
        <ele>673.327</ele>
        <time>2020-06-25T06:45:57Z</time>
      </trkpt>
      <trkpt lat="43.89167" lon="7.44554">
        <ele>673.622</ele>
        <time>2020-06-25T06:46:13Z</time>
      </trkpt>
      <trkpt lat="43.89168" lon="7.4454">
        <ele>674.15</ele>
        <time>2020-06-25T06:46:28Z</time>
      </trkpt>
      <trkpt lat="43.89173" lon="7.44538">
        <ele>675.008</ele>
        <time>2020-06-25T06:46:44Z</time>
      </trkpt>
      <trkpt lat="43.89174" lon="7.44553">
        <ele>675.477</ele>
        <time>2020-06-25T06:46:59Z</time>
      </trkpt>
      <trkpt lat="43.89177" lon="7.44568">
        <ele>675.952</ele>
        <time>2020-06-25T06:47:14Z</time>
      </trkpt>
      <trkpt lat="43.89178" lon="7.4459">
        <ele>677.864</ele>
        <time>2020-06-25T06:47:30Z</time>
      </trkpt>
      <trkpt lat="43.89178" lon="7.44593">
        <ele>684.222</ele>
        <time>2020-06-25T06:47:45Z</time>
      </trkpt>
      <trkpt lat="43.89175" lon="7.44577">
        <ele>687.172</ele>
        <time>2020-06-25T06:48:01Z</time>
      </trkpt>
      <trkpt lat="43.89181" lon="7.44555">
        <ele>683.68</ele>
        <time>2020-06-25T06:48:17Z</time>
      </trkpt>
      <trkpt lat="43.89187" lon="7.44539">
        <ele>681.542</ele>
        <time>2020-06-25T06:48:32Z</time>
      </trkpt>
      <trkpt lat="43.89194" lon="7.44525">
        <ele>680.143</ele>
        <time>2020-06-25T06:48:47Z</time>
      </trkpt>
      <trkpt lat="43.892" lon="7.44511">
        <ele>681.748</ele>
        <time>2020-06-25T06:49:03Z</time>
      </trkpt>
      <trkpt lat="43.89212" lon="7.44512">
        <ele>684.715</ele>
        <time>2020-06-25T06:49:18Z</time>
      </trkpt>
      <trkpt lat="43.89216" lon="7.44514">
        <ele>686.059</ele>
        <time>2020-06-25T06:49:33Z</time>
      </trkpt>
      <trkpt lat="43.89216" lon="7.44514">
        <ele>686.059</ele>
        <time>2020-06-25T06:49:48Z</time>
      </trkpt>
      <trkpt lat="43.89222" lon="7.44518">
        <ele>685.877</ele>
        <time>2020-06-25T06:50:04Z</time>
      </trkpt>
      <trkpt lat="43.8924" lon="7.44538">
        <ele>687.593</ele>
        <time>2020-06-25T06:50:19Z</time>
      </trkpt>
      <trkpt lat="43.89255" lon="7.44554">
        <ele>692.716</ele>
        <time>2020-06-25T06:50:35Z</time>
      </trkpt>
      <trkpt lat="43.89259" lon="7.44561">
        <ele>696.157</ele>
        <time>2020-06-25T06:50:50Z</time>
      </trkpt>
      <trkpt lat="43.89274" lon="7.44574">
        <ele>696.571</ele>
        <time>2020-06-25T06:51:06Z</time>
      </trkpt>
      <trkpt lat="43.89281" lon="7.44583">
        <ele>697.274</ele>
        <time>2020-06-25T06:51:21Z</time>
      </trkpt>
      <trkpt lat="43.89283" lon="7.44584">
        <ele>697.477</ele>
        <time>2020-06-25T06:51:37Z</time>
      </trkpt>
      <trkpt lat="43.89289" lon="7.44584">
        <ele>698.692</ele>
        <time>2020-06-25T06:51:53Z</time>
      </trkpt>
      <trkpt lat="43.89289" lon="7.44584">
        <ele>698.692</ele>
        <time>2020-06-25T06:52:08Z</time>
      </trkpt>
      <trkpt lat="43.89307" lon="7.4459">
        <ele>698.099</ele>
        <time>2020-06-25T06:52:23Z</time>
      </trkpt>
      <trkpt lat="43.89331" lon="7.44598">
        <ele>697.951</ele>
        <time>2020-06-25T06:52:38Z</time>
      </trkpt>
      <trkpt lat="43.89339" lon="7.44609">
        <ele>702.852</ele>
        <time>2020-06-25T06:52:53Z</time>
      </trkpt>
      <trkpt lat="43.89352" lon="7.44627">
        <ele>706.042</ele>
        <time>2020-06-25T06:53:09Z</time>
      </trkpt>
      <trkpt lat="43.89356" lon="7.44647">
        <ele>705.59</ele>
        <time>2020-06-25T06:53:25Z</time>
      </trkpt>
      <trkpt lat="43.89358" lon="7.44665">
        <ele>707.05</ele>
        <time>2020-06-25T06:53:40Z</time>
      </trkpt>
      <trkpt lat="43.89369" lon="7.44679">
        <ele>712.509</ele>
        <time>2020-06-25T06:53:56Z</time>
      </trkpt>
      <trkpt lat="43.8938" lon="7.44672">
        <ele>715.243</ele>
        <time>2020-06-25T06:54:12Z</time>
      </trkpt>
      <trkpt lat="43.89396" lon="7.4468">
        <ele>709.93</ele>
        <time>2020-06-25T06:54:27Z</time>
      </trkpt>
      <trkpt lat="43.89412" lon="7.44685">
        <ele>710.663</ele>
        <time>2020-06-25T06:54:43Z</time>
      </trkpt>
      <trkpt lat="43.89423" lon="7.44671">
        <ele>714.85</ele>
        <time>2020-06-25T06:54:59Z</time>
      </trkpt>
      <trkpt lat="43.89433" lon="7.4466">
        <ele>717.049</ele>
        <time>2020-06-25T06:55:15Z</time>
      </trkpt>
      <trkpt lat="43.89435" lon="7.44652">
        <ele>720.009</ele>
        <time>2020-06-25T06:55:30Z</time>
      </trkpt>
      <trkpt lat="43.89439" lon="7.44657">
        <ele>719.92</ele>
        <time>2020-06-25T06:55:46Z</time>
      </trkpt>
      <trkpt lat="43.89437" lon="7.44666">
        <ele>719.056</ele>
        <time>2020-06-25T06:56:01Z</time>
      </trkpt>
      <trkpt lat="43.89432" lon="7.44678">
        <ele>722.653</ele>
        <time>2020-06-25T06:56:16Z</time>
      </trkpt>
      <trkpt lat="43.89427" lon="7.44693">
        <ele>722.947</ele>
        <time>2020-06-25T06:56:32Z</time>
      </trkpt>
      <trkpt lat="43.89429" lon="7.44703">
        <ele>722.01</ele>
        <time>2020-06-25T06:56:47Z</time>
      </trkpt>
      <trkpt lat="43.89432" lon="7.44687">
        <ele>725.226</ele>
        <time>2020-06-25T06:57:03Z</time>
      </trkpt>
      <trkpt lat="43.89439" lon="7.44679">
        <ele>725.45</ele>
        <time>2020-06-25T06:57:19Z</time>
      </trkpt>
      <trkpt lat="43.89448" lon="7.44666">
        <ele>727.45</ele>
        <time>2020-06-25T06:57:34Z</time>
      </trkpt>
      <trkpt lat="43.89454" lon="7.44651">
        <ele>731.855</ele>
        <time>2020-06-25T06:57:50Z</time>
      </trkpt>
      <trkpt lat="43.89461" lon="7.4464">
        <ele>732.805</ele>
        <time>2020-06-25T06:58:05Z</time>
      </trkpt>
      <trkpt lat="43.89465" lon="7.44632">
        <ele>731.764</ele>
        <time>2020-06-25T06:58:20Z</time>
      </trkpt>
      <trkpt lat="43.89474" lon="7.44614">
        <ele>732.013</ele>
        <time>2020-06-25T06:58:36Z</time>
      </trkpt>
      <trkpt lat="43.89481" lon="7.44605">
        <ele>734.329</ele>
        <time>2020-06-25T06:58:51Z</time>
      </trkpt>
      <trkpt lat="43.89486" lon="7.44603">
        <ele>734.865</ele>
        <time>2020-06-25T06:59:07Z</time>
      </trkpt>
      <trkpt lat="43.895" lon="7.44595">
        <ele>737.704</ele>
        <time>2020-06-25T06:59:22Z</time>
      </trkpt>
      <trkpt lat="43.89511" lon="7.44588">
        <ele>739.382</ele>
        <time>2020-06-25T06:59:38Z</time>
      </trkpt>
      <trkpt lat="43.89522" lon="7.44585">
        <ele>741.689</ele>
        <time>2020-06-25T06:59:54Z</time>
      </trkpt>
      <trkpt lat="43.89537" lon="7.44591">
        <ele>743.703</ele>
        <time>2020-06-25T07:00:10Z</time>
      </trkpt>
      <trkpt lat="43.89553" lon="7.4459">
        <ele>742.738</ele>
        <time>2020-06-25T07:00:25Z</time>
      </trkpt>
      <trkpt lat="43.89558" lon="7.44588">
        <ele>743.57</ele>
        <time>2020-06-25T07:00:40Z</time>
      </trkpt>
      <trkpt lat="43.89566" lon="7.44585">
        <ele>742.957</ele>
        <time>2020-06-25T07:00:55Z</time>
      </trkpt>
      <trkpt lat="43.8958" lon="7.44573">
        <ele>741.758</ele>
        <time>2020-06-25T07:01:11Z</time>
      </trkpt>
      <trkpt lat="43.89587" lon="7.44559">
        <ele>744.644</ele>
        <time>2020-06-25T07:01:26Z</time>
      </trkpt>
      <trkpt lat="43.89596" lon="7.44541">
        <ele>751.069</ele>
        <time>2020-06-25T07:01:42Z</time>
      </trkpt>
      <trkpt lat="43.89604" lon="7.44526">
        <ele>752.878</ele>
        <time>2020-06-25T07:01:58Z</time>
      </trkpt>
      <trkpt lat="43.89612" lon="7.4451">
        <ele>755.856</ele>
        <time>2020-06-25T07:02:14Z</time>
      </trkpt>
      <trkpt lat="43.89617" lon="7.44508">
        <ele>753.806</ele>
        <time>2020-06-25T07:02:30Z</time>
      </trkpt>
      <trkpt lat="43.89616" lon="7.44522">
        <ele>755.706</ele>
        <time>2020-06-25T07:02:46Z</time>
      </trkpt>
      <trkpt lat="43.89612" lon="7.44539">
        <ele>756.265</ele>
        <time>2020-06-25T07:03:02Z</time>
      </trkpt>
      <trkpt lat="43.89611" lon="7.44559">
        <ele>757.324</ele>
        <time>2020-06-25T07:03:17Z</time>
      </trkpt>
      <trkpt lat="43.89606" lon="7.44574">
        <ele>758.452</ele>
        <time>2020-06-25T07:03:33Z</time>
      </trkpt>
      <trkpt lat="43.896" lon="7.4459">
        <ele>758.107</ele>
        <time>2020-06-25T07:03:49Z</time>
      </trkpt>
      <trkpt lat="43.89591" lon="7.44605">
        <ele>763.12</ele>
        <time>2020-06-25T07:04:05Z</time>
      </trkpt>
      <trkpt lat="43.89597" lon="7.44596">
        <ele>770.768</ele>
        <time>2020-06-25T07:04:21Z</time>
      </trkpt>
      <trkpt lat="43.89603" lon="7.44587">
        <ele>771.34</ele>
        <time>2020-06-25T07:04:36Z</time>
      </trkpt>
      <trkpt lat="43.89612" lon="7.44567">
        <ele>775.838</ele>
        <time>2020-06-25T07:04:52Z</time>
      </trkpt>
      <trkpt lat="43.8962" lon="7.44551">
        <ele>776.241</ele>
        <time>2020-06-25T07:05:08Z</time>
      </trkpt>
      <trkpt lat="43.89628" lon="7.44536">
        <ele>776.265</ele>
        <time>2020-06-25T07:05:23Z</time>
      </trkpt>
      <trkpt lat="43.89637" lon="7.44525">
        <ele>776.546</ele>
        <time>2020-06-25T07:05:39Z</time>
      </trkpt>
      <trkpt lat="43.89645" lon="7.44513">
        <ele>779.609</ele>
        <time>2020-06-25T07:05:55Z</time>
      </trkpt>
      <trkpt lat="43.8965" lon="7.44504">
        <ele>779.285</ele>
        <time>2020-06-25T07:06:10Z</time>
      </trkpt>
      <trkpt lat="43.89662" lon="7.44492">
        <ele>780.425</ele>
        <time>2020-06-25T07:06:26Z</time>
      </trkpt>
      <trkpt lat="43.89674" lon="7.44481">
        <ele>783.072</ele>
        <time>2020-06-25T07:06:42Z</time>
      </trkpt>
      <trkpt lat="43.89683" lon="7.44465">
        <ele>784.945</ele>
        <time>2020-06-25T07:06:58Z</time>
      </trkpt>
      <trkpt lat="43.89694" lon="7.44457">
        <ele>787.662</ele>
        <time>2020-06-25T07:07:13Z</time>
      </trkpt>
      <trkpt lat="43.89704" lon="7.44453">
        <ele>790.592</ele>
        <time>2020-06-25T07:07:29Z</time>
      </trkpt>
      <trkpt lat="43.89714" lon="7.44444">
        <ele>792.758</ele>
        <time>2020-06-25T07:07:45Z</time>
      </trkpt>
      <trkpt lat="43.89724" lon="7.44438">
        <ele>795.109</ele>
        <time>2020-06-25T07:08:00Z</time>
      </trkpt>
      <trkpt lat="43.89727" lon="7.44436">
        <ele>796.33</ele>
        <time>2020-06-25T07:08:16Z</time>
      </trkpt>
      <trkpt lat="43.89744" lon="7.44432">
        <ele>797.667</ele>
        <time>2020-06-25T07:08:32Z</time>
      </trkpt>
      <trkpt lat="43.89764" lon="7.44427">
        <ele>798.088</ele>
        <time>2020-06-25T07:08:47Z</time>
      </trkpt>
      <trkpt lat="43.89766" lon="7.44424">
        <ele>799.082</ele>
        <time>2020-06-25T07:09:03Z</time>
      </trkpt>
      <trkpt lat="43.89766" lon="7.44424">
        <ele>799.082</ele>
        <time>2020-06-25T07:09:19Z</time>
      </trkpt>
      <trkpt lat="43.89766" lon="7.44424">
        <ele>799.082</ele>
        <time>2020-06-25T07:09:35Z</time>
      </trkpt>
      <trkpt lat="43.89766" lon="7.44424">
        <ele>799.082</ele>
        <time>2020-06-25T07:09:51Z</time>
      </trkpt>
      <trkpt lat="43.89766" lon="7.44424">
        <ele>799.082</ele>
        <time>2020-06-25T07:10:06Z</time>
      </trkpt>
      <trkpt lat="43.89766" lon="7.44424">
        <ele>799.082</ele>
        <time>2020-06-25T07:10:22Z</time>
      </trkpt>
      <trkpt lat="43.89766" lon="7.44424">
        <ele>799.082</ele>
        <time>2020-06-25T07:10:38Z</time>
      </trkpt>
      <trkpt lat="43.89776" lon="7.44412">
        <ele>799.078</ele>
        <time>2020-06-25T07:10:54Z</time>
      </trkpt>
      <trkpt lat="43.89777" lon="7.44409">
        <ele>800.285</ele>
        <time>2020-06-25T07:11:10Z</time>
      </trkpt>
      <trkpt lat="43.89778" lon="7.44402">
        <ele>801.743</ele>
        <time>2020-06-25T07:11:25Z</time>
      </trkpt>
      <trkpt lat="43.8978" lon="7.44393">
        <ele>801.991</ele>
        <time>2020-06-25T07:11:41Z</time>
      </trkpt>
      <trkpt lat="43.89782" lon="7.44382">
        <ele>805.005</ele>
        <time>2020-06-25T07:11:56Z</time>
      </trkpt>
      <trkpt lat="43.89786" lon="7.44364">
        <ele>804.42</ele>
        <time>2020-06-25T07:12:12Z</time>
      </trkpt>
      <trkpt lat="43.89787" lon="7.44346">
        <ele>804.967</ele>
        <time>2020-06-25T07:12:28Z</time>
      </trkpt>
      <trkpt lat="43.89787" lon="7.44343">
        <ele>806.274</ele>
        <time>2020-06-25T07:12:43Z</time>
      </trkpt>
      <trkpt lat="43.89787" lon="7.44329">
        <ele>807.203</ele>
        <time>2020-06-25T07:12:59Z</time>
      </trkpt>
      <trkpt lat="43.89785" lon="7.44321">
        <ele>806.772</ele>
        <time>2020-06-25T07:13:15Z</time>
      </trkpt>
      <trkpt lat="43.89801" lon="7.44331">
        <ele>812.289</ele>
        <time>2020-06-25T07:13:30Z</time>
      </trkpt>
      <trkpt lat="43.89801" lon="7.44331">
        <ele>813.394</ele>
        <time>2020-06-25T07:13:45Z</time>
      </trkpt>
      <trkpt lat="43.89808" lon="7.44331">
        <ele>815.781</ele>
        <time>2020-06-25T07:14:01Z</time>
      </trkpt>
      <trkpt lat="43.89812" lon="7.44332">
        <ele>816.843</ele>
        <time>2020-06-25T07:14:16Z</time>
      </trkpt>
      <trkpt lat="43.89815" lon="7.4433">
        <ele>819.233</ele>
        <time>2020-06-25T07:14:32Z</time>
      </trkpt>
      <trkpt lat="43.89834" lon="7.44325">
        <ele>823.423</ele>
        <time>2020-06-25T07:14:48Z</time>
      </trkpt>
      <trkpt lat="43.89851" lon="7.4432">
        <ele>827.161</ele>
        <time>2020-06-25T07:15:04Z</time>
      </trkpt>
      <trkpt lat="43.89868" lon="7.44322">
        <ele>832.871</ele>
        <time>2020-06-25T07:15:20Z</time>
      </trkpt>
      <trkpt lat="43.89876" lon="7.44323">
        <ele>834.057</ele>
        <time>2020-06-25T07:15:35Z</time>
      </trkpt>
      <trkpt lat="43.89881" lon="7.44322">
        <ele>834.193</ele>
        <time>2020-06-25T07:15:51Z</time>
      </trkpt>
      <trkpt lat="43.89884" lon="7.44318">
        <ele>835.934</ele>
        <time>2020-06-25T07:16:07Z</time>
      </trkpt>
      <trkpt lat="43.89879" lon="7.44306">
        <ele>838.897</ele>
        <time>2020-06-25T07:16:22Z</time>
      </trkpt>
      <trkpt lat="43.89872" lon="7.4429">
        <ele>837.626</ele>
        <time>2020-06-25T07:16:38Z</time>
      </trkpt>
      <trkpt lat="43.89876" lon="7.4428">
        <ele>840.049</ele>
        <time>2020-06-25T07:16:54Z</time>
      </trkpt>
      <trkpt lat="43.89885" lon="7.44278">
        <ele>843.418</ele>
        <time>2020-06-25T07:17:09Z</time>
      </trkpt>
      <trkpt lat="43.89894" lon="7.44283">
        <ele>843.276</ele>
        <time>2020-06-25T07:17:24Z</time>
      </trkpt>
      <trkpt lat="43.89894" lon="7.44283">
        <ele>843.276</ele>
        <time>2020-06-25T07:17:39Z</time>
      </trkpt>
      <trkpt lat="43.89914" lon="7.44286">
        <ele>847.079</ele>
        <time>2020-06-25T07:17:54Z</time>
      </trkpt>
      <trkpt lat="43.8993" lon="7.44278">
        <ele>850.767</ele>
        <time>2020-06-25T07:18:10Z</time>
      </trkpt>
      <trkpt lat="43.89938" lon="7.44272">
        <ele>851.69</ele>
        <time>2020-06-25T07:18:26Z</time>
      </trkpt>
      <trkpt lat="43.8995" lon="7.44267">
        <ele>853.569</ele>
        <time>2020-06-25T07:18:42Z</time>
      </trkpt>
      <trkpt lat="43.89963" lon="7.44271">
        <ele>855.803</ele>
        <time>2020-06-25T07:18:58Z</time>
      </trkpt>
      <trkpt lat="43.89957" lon="7.44282">
        <ele>857.586</ele>
        <time>2020-06-25T07:19:14Z</time>
      </trkpt>
      <trkpt lat="43.89954" lon="7.44287">
        <ele>863.393</ele>
        <time>2020-06-25T07:19:30Z</time>
      </trkpt>
      <trkpt lat="43.89967" lon="7.44293">
        <ele>863.877</ele>
        <time>2020-06-25T07:19:45Z</time>
      </trkpt>
      <trkpt lat="43.89978" lon="7.44295">
        <ele>863.166</ele>
        <time>2020-06-25T07:20:01Z</time>
      </trkpt>
      <trkpt lat="43.89986" lon="7.44288">
        <ele>864.68</ele>
        <time>2020-06-25T07:20:17Z</time>
      </trkpt>
      <trkpt lat="43.89989" lon="7.44287">
        <ele>866.421</ele>
        <time>2020-06-25T07:20:33Z</time>
      </trkpt>
      <trkpt lat="43.89989" lon="7.44287">
        <ele>866.421</ele>
        <time>2020-06-25T07:20:48Z</time>
      </trkpt>
      <trkpt lat="43.90012" lon="7.44274">
        <ele>870.745</ele>
        <time>2020-06-25T07:21:04Z</time>
      </trkpt>
      <trkpt lat="43.90023" lon="7.44273">
        <ele>873.005</ele>
        <time>2020-06-25T07:21:20Z</time>
      </trkpt>
      <trkpt lat="43.90026" lon="7.44273">
        <ele>873.676</ele>
        <time>2020-06-25T07:21:36Z</time>
      </trkpt>
      <trkpt lat="43.90026" lon="7.44273">
        <ele>873.676</ele>
        <time>2020-06-25T07:21:51Z</time>
      </trkpt>
      <trkpt lat="43.90026" lon="7.44273">
        <ele>873.676</ele>
        <time>2020-06-25T07:22:07Z</time>
      </trkpt>
      <trkpt lat="43.90036" lon="7.4425">
        <ele>879.095</ele>
        <time>2020-06-25T07:22:22Z</time>
      </trkpt>
      <trkpt lat="43.90046" lon="7.44247">
        <ele>886.72</ele>
        <time>2020-06-25T07:22:38Z</time>
      </trkpt>
      <trkpt lat="43.90054" lon="7.44242">
        <ele>888.18</ele>
        <time>2020-06-25T07:22:53Z</time>
      </trkpt>
      <trkpt lat="43.90062" lon="7.44232">
        <ele>888.881</ele>
        <time>2020-06-25T07:23:09Z</time>
      </trkpt>
      <trkpt lat="43.90065" lon="7.44228">
        <ele>889.26</ele>
        <time>2020-06-25T07:23:25Z</time>
      </trkpt>
      <trkpt lat="43.90078" lon="7.44219">
        <ele>893.601</ele>
        <time>2020-06-25T07:23:40Z</time>
      </trkpt>
      <trkpt lat="43.90087" lon="7.44216">
        <ele>895.416</ele>
        <time>2020-06-25T07:23:56Z</time>
      </trkpt>
      <trkpt lat="43.90097" lon="7.44205">
        <ele>898.551</ele>
        <time>2020-06-25T07:24:12Z</time>
      </trkpt>
      <trkpt lat="43.90098" lon="7.44204">
        <ele>898.847</ele>
        <time>2020-06-25T07:24:27Z</time>
      </trkpt>
      <trkpt lat="43.90102" lon="7.442">
        <ele>899.756</ele>
        <time>2020-06-25T07:24:43Z</time>
      </trkpt>
      <trkpt lat="43.9012" lon="7.44186">
        <ele>905.065</ele>
        <time>2020-06-25T07:24:58Z</time>
      </trkpt>
      <trkpt lat="43.9012" lon="7.44186">
        <ele>905.065</ele>
        <time>2020-06-25T07:25:14Z</time>
      </trkpt>
      <trkpt lat="43.9012" lon="7.44186">
        <ele>905.065</ele>
        <time>2020-06-25T07:25:29Z</time>
      </trkpt>
      <trkpt lat="43.9012" lon="7.44186">
        <ele>905.065</ele>
        <time>2020-06-25T07:25:44Z</time>
      </trkpt>
      <trkpt lat="43.9012" lon="7.44186">
        <ele>905.065</ele>
        <time>2020-06-25T07:26:00Z</time>
      </trkpt>
      <trkpt lat="43.9012" lon="7.44186">
        <ele>905.065</ele>
        <time>2020-06-25T07:26:15Z</time>
      </trkpt>
      <trkpt lat="43.9012" lon="7.44186">
        <ele>905.065</ele>
        <time>2020-06-25T07:26:31Z</time>
      </trkpt>
      <trkpt lat="43.90121" lon="7.44186">
        <ele>905.3</ele>
        <time>2020-06-25T07:26:47Z</time>
      </trkpt>
      <trkpt lat="43.90127" lon="7.44184">
        <ele>907.579</ele>
        <time>2020-06-25T07:27:02Z</time>
      </trkpt>
      <trkpt lat="43.90139" lon="7.44184">
        <ele>907.003</ele>
        <time>2020-06-25T07:27:18Z</time>
      </trkpt>
      <trkpt lat="43.90156" lon="7.44181">
        <ele>905.038</ele>
        <time>2020-06-25T07:27:34Z</time>
      </trkpt>
      <trkpt lat="43.9017" lon="7.44175">
        <ele>905.844</ele>
        <time>2020-06-25T07:27:49Z</time>
      </trkpt>
      <trkpt lat="43.90185" lon="7.44169">
        <ele>910.604</ele>
        <time>2020-06-25T07:28:05Z</time>
      </trkpt>
      <trkpt lat="43.902" lon="7.44163">
        <ele>912.746</ele>
        <time>2020-06-25T07:28:21Z</time>
      </trkpt>
      <trkpt lat="43.90208" lon="7.44158">
        <ele>917.467</ele>
        <time>2020-06-25T07:28:37Z</time>
      </trkpt>
      <trkpt lat="43.90224" lon="7.44157">
        <ele>915.926</ele>
        <time>2020-06-25T07:28:53Z</time>
      </trkpt>
      <trkpt lat="43.90233" lon="7.44154">
        <ele>916.726</ele>
        <time>2020-06-25T07:29:09Z</time>
      </trkpt>
      <trkpt lat="43.90234" lon="7.44154">
        <ele>916.781</ele>
        <time>2020-06-25T07:29:24Z</time>
      </trkpt>
      <trkpt lat="43.9025" lon="7.44149">
        <ele>920.188</ele>
        <time>2020-06-25T07:29:40Z</time>
      </trkpt>
      <trkpt lat="43.90262" lon="7.44145">
        <ele>923.363</ele>
        <time>2020-06-25T07:29:55Z</time>
      </trkpt>
      <trkpt lat="43.90281" lon="7.44145">
        <ele>927.181</ele>
        <time>2020-06-25T07:30:11Z</time>
      </trkpt>
      <trkpt lat="43.90297" lon="7.44148">
        <ele>931.308</ele>
        <time>2020-06-25T07:30:27Z</time>
      </trkpt>
      <trkpt lat="43.9031" lon="7.44159">
        <ele>929.01</ele>
        <time>2020-06-25T07:30:43Z</time>
      </trkpt>
      <trkpt lat="43.90321" lon="7.44163">
        <ele>932.149</ele>
        <time>2020-06-25T07:30:59Z</time>
      </trkpt>
      <trkpt lat="43.90337" lon="7.44172">
        <ele>934.422</ele>
        <time>2020-06-25T07:31:15Z</time>
      </trkpt>
      <trkpt lat="43.90353" lon="7.44179">
        <ele>937.046</ele>
        <time>2020-06-25T07:31:30Z</time>
      </trkpt>
      <trkpt lat="43.90366" lon="7.44179">
        <ele>936.905</ele>
        <time>2020-06-25T07:31:45Z</time>
      </trkpt>
      <trkpt lat="43.90383" lon="7.44185">
        <ele>935.398</ele>
        <time>2020-06-25T07:32:01Z</time>
      </trkpt>
      <trkpt lat="43.904" lon="7.44188">
        <ele>936.205</ele>
        <time>2020-06-25T07:32:16Z</time>
      </trkpt>
      <trkpt lat="43.90416" lon="7.4419">
        <ele>936.581</ele>
        <time>2020-06-25T07:32:31Z</time>
      </trkpt>
      <trkpt lat="43.9043" lon="7.44188">
        <ele>934.608</ele>
        <time>2020-06-25T07:32:47Z</time>
      </trkpt>
      <trkpt lat="43.90442" lon="7.44184">
        <ele>938.406</ele>
        <time>2020-06-25T07:33:03Z</time>
      </trkpt>
      <trkpt lat="43.90459" lon="7.44183">
        <ele>942.291</ele>
        <time>2020-06-25T07:33:18Z</time>
      </trkpt>
      <trkpt lat="43.90474" lon="7.44174">
        <ele>944.609</ele>
        <time>2020-06-25T07:33:33Z</time>
      </trkpt>
      <trkpt lat="43.90488" lon="7.44161">
        <ele>946.58</ele>
        <time>2020-06-25T07:33:49Z</time>
      </trkpt>
      <trkpt lat="43.90492" lon="7.44144">
        <ele>946.571</ele>
        <time>2020-06-25T07:34:04Z</time>
      </trkpt>
      <trkpt lat="43.90493" lon="7.44133">
        <ele>946.779</ele>
        <time>2020-06-25T07:34:19Z</time>
      </trkpt>
      <trkpt lat="43.90491" lon="7.4412">
        <ele>946.147</ele>
        <time>2020-06-25T07:34:34Z</time>
      </trkpt>
      <trkpt lat="43.90492" lon="7.4412">
        <ele>946.546</ele>
        <time>2020-06-25T07:34:50Z</time>
      </trkpt>
      <trkpt lat="43.90494" lon="7.44117">
        <ele>947.567</ele>
        <time>2020-06-25T07:35:05Z</time>
      </trkpt>
      <trkpt lat="43.90501" lon="7.44113">
        <ele>948.93</ele>
        <time>2020-06-25T07:35:21Z</time>
      </trkpt>
      <trkpt lat="43.90507" lon="7.441">
        <ele>950.554</ele>
        <time>2020-06-25T07:35:37Z</time>
      </trkpt>
      <trkpt lat="43.9051" lon="7.44091">
        <ele>952.039</ele>
        <time>2020-06-25T07:35:52Z</time>
      </trkpt>
      <trkpt lat="43.9051" lon="7.44091">
        <ele>952.039</ele>
        <time>2020-06-25T07:36:08Z</time>
      </trkpt>
      <trkpt lat="43.90517" lon="7.44075">
        <ele>953.321</ele>
        <time>2020-06-25T07:36:23Z</time>
      </trkpt>
      <trkpt lat="43.90517" lon="7.44075">
        <ele>953.321</ele>
        <time>2020-06-25T07:36:39Z</time>
      </trkpt>
      <trkpt lat="43.90521" lon="7.44062">
        <ele>953.941</ele>
        <time>2020-06-25T07:36:55Z</time>
      </trkpt>
      <trkpt lat="43.90538" lon="7.44042">
        <ele>956.33</ele>
        <time>2020-06-25T07:37:10Z</time>
      </trkpt>
      <trkpt lat="43.9054" lon="7.44034">
        <ele>957.1</ele>
        <time>2020-06-25T07:37:26Z</time>
      </trkpt>
      <trkpt lat="43.9054" lon="7.44034">
        <ele>957.1</ele>
        <time>2020-06-25T07:37:41Z</time>
      </trkpt>
      <trkpt lat="43.90551" lon="7.44008">
        <ele>961.033</ele>
        <time>2020-06-25T07:37:56Z</time>
      </trkpt>
      <trkpt lat="43.90552" lon="7.44002">
        <ele>962.361</ele>
        <time>2020-06-25T07:38:12Z</time>
      </trkpt>
      <trkpt lat="43.90552" lon="7.44002">
        <ele>962.361</ele>
        <time>2020-06-25T07:38:27Z</time>
      </trkpt>
      <trkpt lat="43.90556" lon="7.43999">
        <ele>963.883</ele>
        <time>2020-06-25T07:38:43Z</time>
      </trkpt>
      <trkpt lat="43.90558" lon="7.43997">
        <ele>964.525</ele>
        <time>2020-06-25T07:38:59Z</time>
      </trkpt>
      <trkpt lat="43.90564" lon="7.43991">
        <ele>966.479</ele>
        <time>2020-06-25T07:39:15Z</time>
      </trkpt>
      <trkpt lat="43.90578" lon="7.43973">
        <ele>972.967</ele>
        <time>2020-06-25T07:39:30Z</time>
      </trkpt>
      <trkpt lat="43.90592" lon="7.43965">
        <ele>977.544</ele>
        <time>2020-06-25T07:39:46Z</time>
      </trkpt>
      <trkpt lat="43.90595" lon="7.43959">
        <ele>979.359</ele>
        <time>2020-06-25T07:40:02Z</time>
      </trkpt>
      <trkpt lat="43.90593" lon="7.43951">
        <ele>980.563</ele>
        <time>2020-06-25T07:40:18Z</time>
      </trkpt>
      <trkpt lat="43.90591" lon="7.43945">
        <ele>981.962</ele>
        <time>2020-06-25T07:40:34Z</time>
      </trkpt>
      <trkpt lat="43.90591" lon="7.43942">
        <ele>982.773</ele>
        <time>2020-06-25T07:40:49Z</time>
      </trkpt>
      <trkpt lat="43.90591" lon="7.43942">
        <ele>982.773</ele>
        <time>2020-06-25T07:41:05Z</time>
      </trkpt>
      <trkpt lat="43.90593" lon="7.43936">
        <ele>984.745</ele>
        <time>2020-06-25T07:41:20Z</time>
      </trkpt>
      <trkpt lat="43.90599" lon="7.43923">
        <ele>987.623</ele>
        <time>2020-06-25T07:41:35Z</time>
      </trkpt>
      <trkpt lat="43.90609" lon="7.43901">
        <ele>993.032</ele>
        <time>2020-06-25T07:41:51Z</time>
      </trkpt>
      <trkpt lat="43.90621" lon="7.43894">
        <ele>995.024</ele>
        <time>2020-06-25T07:42:07Z</time>
      </trkpt>
      <trkpt lat="43.90628" lon="7.43897">
        <ele>995.866</ele>
        <time>2020-06-25T07:42:22Z</time>
      </trkpt>
      <trkpt lat="43.90629" lon="7.43897">
        <ele>995.985</ele>
        <time>2020-06-25T07:42:38Z</time>
      </trkpt>
      <trkpt lat="43.90653" lon="7.43892">
        <ele>1001.441</ele>
        <time>2020-06-25T07:42:54Z</time>
      </trkpt>
      <trkpt lat="43.90665" lon="7.43886">
        <ele>1006.317</ele>
        <time>2020-06-25T07:43:09Z</time>
      </trkpt>
      <trkpt lat="43.90666" lon="7.43884">
        <ele>1006.934</ele>
        <time>2020-06-25T07:43:25Z</time>
      </trkpt>
      <trkpt lat="43.9067" lon="7.43883">
        <ele>1006.79</ele>
        <time>2020-06-25T07:43:40Z</time>
      </trkpt>
      <trkpt lat="43.90688" lon="7.43872">
        <ele>1007.78</ele>
        <time>2020-06-25T07:43:56Z</time>
      </trkpt>
      <trkpt lat="43.90693" lon="7.43871">
        <ele>1009.143</ele>
        <time>2020-06-25T07:44:11Z</time>
      </trkpt>
      <trkpt lat="43.90693" lon="7.43871">
        <ele>1009.143</ele>
        <time>2020-06-25T07:44:26Z</time>
      </trkpt>
      <trkpt lat="43.90693" lon="7.43871">
        <ele>1009.143</ele>
        <time>2020-06-25T07:44:41Z</time>
      </trkpt>
      <trkpt lat="43.90734" lon="7.43869">
        <ele>1013.103</ele>
        <time>2020-06-25T07:44:57Z</time>
      </trkpt>
      <trkpt lat="43.90742" lon="7.43864">
        <ele>1015.441</ele>
        <time>2020-06-25T07:45:12Z</time>
      </trkpt>
      <trkpt lat="43.90758" lon="7.4386">
        <ele>1020.316</ele>
        <time>2020-06-25T07:45:28Z</time>
      </trkpt>
      <trkpt lat="43.90766" lon="7.43868">
        <ele>1022.278</ele>
        <time>2020-06-25T07:45:43Z</time>
      </trkpt>
      <trkpt lat="43.90771" lon="7.43872">
        <ele>1025.634</ele>
        <time>2020-06-25T07:45:59Z</time>
      </trkpt>
      <trkpt lat="43.90783" lon="7.43875">
        <ele>1030.93</ele>
        <time>2020-06-25T07:46:14Z</time>
      </trkpt>
      <trkpt lat="43.90788" lon="7.43875">
        <ele>1032.071</ele>
        <time>2020-06-25T07:46:30Z</time>
      </trkpt>
      <trkpt lat="43.90788" lon="7.43875">
        <ele>1032.071</ele>
        <time>2020-06-25T07:46:46Z</time>
      </trkpt>
      <trkpt lat="43.90788" lon="7.43875">
        <ele>1032.071</ele>
        <time>2020-06-25T07:47:02Z</time>
      </trkpt>
      <trkpt lat="43.90788" lon="7.43875">
        <ele>1032.071</ele>
        <time>2020-06-25T07:47:17Z</time>
      </trkpt>
      <trkpt lat="43.90788" lon="7.43875">
        <ele>1032.071</ele>
        <time>2020-06-25T07:47:32Z</time>
      </trkpt>
      <trkpt lat="43.90788" lon="7.43875">
        <ele>1032.071</ele>
        <time>2020-06-25T07:47:47Z</time>
      </trkpt>
      <trkpt lat="43.9079" lon="7.43874">
        <ele>1032.547</ele>
        <time>2020-06-25T07:48:03Z</time>
      </trkpt>
      <trkpt lat="43.9079" lon="7.43874">
        <ele>1032.547</ele>
        <time>2020-06-25T07:48:18Z</time>
      </trkpt>
      <trkpt lat="43.90796" lon="7.43877">
        <ele>1031.089</ele>
        <time>2020-06-25T07:48:34Z</time>
      </trkpt>
      <trkpt lat="43.90813" lon="7.43884">
        <ele>1032.114</ele>
        <time>2020-06-25T07:48:50Z</time>
      </trkpt>
      <trkpt lat="43.90819" lon="7.43883">
        <ele>1032.463</ele>
        <time>2020-06-25T07:49:06Z</time>
      </trkpt>
      <trkpt lat="43.90826" lon="7.43882">
        <ele>1032.254</ele>
        <time>2020-06-25T07:49:22Z</time>
      </trkpt>
      <trkpt lat="43.90834" lon="7.4388">
        <ele>1033.581</ele>
        <time>2020-06-25T07:49:38Z</time>
      </trkpt>
      <trkpt lat="43.90841" lon="7.43874">
        <ele>1034.575</ele>
        <time>2020-06-25T07:49:54Z</time>
      </trkpt>
      <trkpt lat="43.90847" lon="7.43871">
        <ele>1036.497</ele>
        <time>2020-06-25T07:50:10Z</time>
      </trkpt>
      <trkpt lat="43.90853" lon="7.4387">
        <ele>1038.664</ele>
        <time>2020-06-25T07:50:25Z</time>
      </trkpt>
      <trkpt lat="43.90864" lon="7.43869">
        <ele>1040.552</ele>
        <time>2020-06-25T07:50:41Z</time>
      </trkpt>
      <trkpt lat="43.90879" lon="7.43862">
        <ele>1044.811</ele>
        <time>2020-06-25T07:50:56Z</time>
      </trkpt>
      <trkpt lat="43.90884" lon="7.43858">
        <ele>1047.651</ele>
        <time>2020-06-25T07:51:12Z</time>
      </trkpt>
      <trkpt lat="43.90894" lon="7.43854">
        <ele>1049.336</ele>
        <time>2020-06-25T07:51:27Z</time>
      </trkpt>
      <trkpt lat="43.90896" lon="7.43852">
        <ele>1049.969</ele>
        <time>2020-06-25T07:51:43Z</time>
      </trkpt>
      <trkpt lat="43.90902" lon="7.43843">
        <ele>1051.063</ele>
        <time>2020-06-25T07:51:58Z</time>
      </trkpt>
      <trkpt lat="43.90899" lon="7.4384">
        <ele>1054.263</ele>
        <time>2020-06-25T07:52:13Z</time>
      </trkpt>
      <trkpt lat="43.90898" lon="7.43836">
        <ele>1055.925</ele>
        <time>2020-06-25T07:52:29Z</time>
      </trkpt>
      <trkpt lat="43.90898" lon="7.43836">
        <ele>1055.925</ele>
        <time>2020-06-25T07:52:44Z</time>
      </trkpt>
      <trkpt lat="43.90898" lon="7.43836">
        <ele>1055.925</ele>
        <time>2020-06-25T07:53:00Z</time>
      </trkpt>
      <trkpt lat="43.90908" lon="7.43823">
        <ele>1058.271</ele>
        <time>2020-06-25T07:53:15Z</time>
      </trkpt>
      <trkpt lat="43.90917" lon="7.43811">
        <ele>1059.173</ele>
        <time>2020-06-25T07:53:31Z</time>
      </trkpt>
      <trkpt lat="43.90922" lon="7.43801">
        <ele>1061.816</ele>
        <time>2020-06-25T07:53:47Z</time>
      </trkpt>
      <trkpt lat="43.90928" lon="7.43795">
        <ele>1066.295</ele>
        <time>2020-06-25T07:54:03Z</time>
      </trkpt>
      <trkpt lat="43.90938" lon="7.43786">
        <ele>1069.565</ele>
        <time>2020-06-25T07:54:19Z</time>
      </trkpt>
      <trkpt lat="43.90944" lon="7.4378">
        <ele>1071.571</ele>
        <time>2020-06-25T07:54:35Z</time>
      </trkpt>
      <trkpt lat="43.90954" lon="7.43772">
        <ele>1074.806</ele>
        <time>2020-06-25T07:54:51Z</time>
      </trkpt>
      <trkpt lat="43.90959" lon="7.43768">
        <ele>1076.947</ele>
        <time>2020-06-25T07:55:06Z</time>
      </trkpt>
      <trkpt lat="43.90964" lon="7.43764">
        <ele>1078.33</ele>
        <time>2020-06-25T07:55:22Z</time>
      </trkpt>
      <trkpt lat="43.90972" lon="7.43754">
        <ele>1082.916</ele>
        <time>2020-06-25T07:55:37Z</time>
      </trkpt>
      <trkpt lat="43.90981" lon="7.43752">
        <ele>1085.673</ele>
        <time>2020-06-25T07:55:52Z</time>
      </trkpt>
      <trkpt lat="43.90982" lon="7.43752">
        <ele>1085.948</ele>
        <time>2020-06-25T07:56:07Z</time>
      </trkpt>
      <trkpt lat="43.90982" lon="7.43752">
        <ele>1085.948</ele>
        <time>2020-06-25T07:56:23Z</time>
      </trkpt>
      <trkpt lat="43.90992" lon="7.43745">
        <ele>1086.774</ele>
        <time>2020-06-25T07:56:38Z</time>
      </trkpt>
      <trkpt lat="43.90998" lon="7.43743">
        <ele>1086.323</ele>
        <time>2020-06-25T07:56:54Z</time>
      </trkpt>
      <trkpt lat="43.91006" lon="7.43744">
        <ele>1088.476</ele>
        <time>2020-06-25T07:57:09Z</time>
      </trkpt>
      <trkpt lat="43.91012" lon="7.43743">
        <ele>1091.758</ele>
        <time>2020-06-25T07:57:25Z</time>
      </trkpt>
      <trkpt lat="43.91022" lon="7.43743">
        <ele>1096.004</ele>
        <time>2020-06-25T07:57:41Z</time>
      </trkpt>
      <trkpt lat="43.91028" lon="7.43742">
        <ele>1100.571</ele>
        <time>2020-06-25T07:57:57Z</time>
      </trkpt>
      <trkpt lat="43.9104" lon="7.4374">
        <ele>1101.46</ele>
        <time>2020-06-25T07:58:12Z</time>
      </trkpt>
      <trkpt lat="43.91045" lon="7.43743">
        <ele>1104.527</ele>
        <time>2020-06-25T07:58:28Z</time>
      </trkpt>
      <trkpt lat="43.91052" lon="7.43744">
        <ele>1110.32</ele>
        <time>2020-06-25T07:58:44Z</time>
      </trkpt>
      <trkpt lat="43.91058" lon="7.43745">
        <ele>1109.16</ele>
        <time>2020-06-25T07:58:59Z</time>
      </trkpt>
      <trkpt lat="43.91069" lon="7.43747">
        <ele>1110.227</ele>
        <time>2020-06-25T07:59:15Z</time>
      </trkpt>
      <trkpt lat="43.91079" lon="7.43746">
        <ele>1113.038</ele>
        <time>2020-06-25T07:59:31Z</time>
      </trkpt>
      <trkpt lat="43.91088" lon="7.43744">
        <ele>1112.272</ele>
        <time>2020-06-25T07:59:46Z</time>
      </trkpt>
      <trkpt lat="43.91088" lon="7.43743">
        <ele>1114.243</ele>
        <time>2020-06-25T08:00:01Z</time>
      </trkpt>
      <trkpt lat="43.91088" lon="7.43743">
        <ele>1114.243</ele>
        <time>2020-06-25T08:00:17Z</time>
      </trkpt>
      <trkpt lat="43.91088" lon="7.43742">
        <ele>1115.527</ele>
        <time>2020-06-25T08:00:33Z</time>
      </trkpt>
      <trkpt lat="43.91088" lon="7.43742">
        <ele>1115.527</ele>
        <time>2020-06-25T08:00:49Z</time>
      </trkpt>
      <trkpt lat="43.91087" lon="7.43742">
        <ele>1115.862</ele>
        <time>2020-06-25T08:01:04Z</time>
      </trkpt>
      <trkpt lat="43.91088" lon="7.43743">
        <ele>1116.328</ele>
        <time>2020-06-25T08:01:20Z</time>
      </trkpt>
      <trkpt lat="43.91088" lon="7.43743">
        <ele>1116.328</ele>
        <time>2020-06-25T08:01:36Z</time>
      </trkpt>
      <trkpt lat="43.91088" lon="7.43743">
        <ele>1116.328</ele>
        <time>2020-06-25T08:01:52Z</time>
      </trkpt>
      <trkpt lat="43.91088" lon="7.43743">
        <ele>1116.328</ele>
        <time>2020-06-25T08:02:07Z</time>
      </trkpt>
      <trkpt lat="43.91088" lon="7.43743">
        <ele>1116.328</ele>
        <time>2020-06-25T08:02:23Z</time>
      </trkpt>
      <trkpt lat="43.91088" lon="7.43743">
        <ele>1116.328</ele>
        <time>2020-06-25T08:02:39Z</time>
      </trkpt>
      <trkpt lat="43.91088" lon="7.43743">
        <ele>1116.328</ele>
        <time>2020-06-25T08:02:54Z</time>
      </trkpt>
      <trkpt lat="43.91093" lon="7.43743">
        <ele>1115.017</ele>
        <time>2020-06-25T08:03:10Z</time>
      </trkpt>
      <trkpt lat="43.91109" lon="7.43744">
        <ele>1112.959</ele>
        <time>2020-06-25T08:03:25Z</time>
      </trkpt>
      <trkpt lat="43.91115" lon="7.43741">
        <ele>1113.862</ele>
        <time>2020-06-25T08:03:41Z</time>
      </trkpt>
      <trkpt lat="43.91118" lon="7.43742">
        <ele>1112.942</ele>
        <time>2020-06-25T08:03:57Z</time>
      </trkpt>
      <trkpt lat="43.91126" lon="7.43737">
        <ele>1113.929</ele>
        <time>2020-06-25T08:04:13Z</time>
      </trkpt>
      <trkpt lat="43.91128" lon="7.43736">
        <ele>1114.036</ele>
        <time>2020-06-25T08:04:29Z</time>
      </trkpt>
      <trkpt lat="43.91134" lon="7.43735">
        <ele>1115.887</ele>
        <time>2020-06-25T08:04:44Z</time>
      </trkpt>
      <trkpt lat="43.91139" lon="7.43731">
        <ele>1120.881</ele>
        <time>2020-06-25T08:05:00Z</time>
      </trkpt>
      <trkpt lat="43.91137" lon="7.4373">
        <ele>1123.975</ele>
        <time>2020-06-25T08:05:16Z</time>
      </trkpt>
      <trkpt lat="43.91138" lon="7.43726">
        <ele>1125.307</ele>
        <time>2020-06-25T08:05:32Z</time>
      </trkpt>
      <trkpt lat="43.91138" lon="7.43726">
        <ele>1125.307</ele>
        <time>2020-06-25T08:05:47Z</time>
      </trkpt>
      <trkpt lat="43.91138" lon="7.43726">
        <ele>1125.307</ele>
        <time>2020-06-25T08:06:03Z</time>
      </trkpt>
      <trkpt lat="43.91138" lon="7.43726">
        <ele>1125.307</ele>
        <time>2020-06-25T08:06:19Z</time>
      </trkpt>
      <trkpt lat="43.91117" lon="7.43697">
        <ele>1136.458</ele>
        <time>2020-06-25T08:06:35Z</time>
      </trkpt>
      <trkpt lat="43.91117" lon="7.43689">
        <ele>1141.525</ele>
        <time>2020-06-25T08:06:50Z</time>
      </trkpt>
      <trkpt lat="43.91118" lon="7.43686">
        <ele>1141.44</ele>
        <time>2020-06-25T08:07:06Z</time>
      </trkpt>
      <trkpt lat="43.9112" lon="7.43684">
        <ele>1142.834</ele>
        <time>2020-06-25T08:07:22Z</time>
      </trkpt>
      <trkpt lat="43.91122" lon="7.43683">
        <ele>1143.915</ele>
        <time>2020-06-25T08:07:37Z</time>
      </trkpt>
      <trkpt lat="43.91124" lon="7.43684">
        <ele>1145.703</ele>
        <time>2020-06-25T08:07:53Z</time>
      </trkpt>
      <trkpt lat="43.91134" lon="7.43681">
        <ele>1151.415</ele>
        <time>2020-06-25T08:08:08Z</time>
      </trkpt>
      <trkpt lat="43.91136" lon="7.43676">
        <ele>1155.671</ele>
        <time>2020-06-25T08:08:24Z</time>
      </trkpt>
      <trkpt lat="43.91143" lon="7.43661">
        <ele>1155.153</ele>
        <time>2020-06-25T08:08:39Z</time>
      </trkpt>
      <trkpt lat="43.91143" lon="7.43659">
        <ele>1155.557</ele>
        <time>2020-06-25T08:08:55Z</time>
      </trkpt>
      <trkpt lat="43.91146" lon="7.4366">
        <ele>1157.137</ele>
        <time>2020-06-25T08:09:11Z</time>
      </trkpt>
      <trkpt lat="43.91151" lon="7.43661">
        <ele>1159.462</ele>
        <time>2020-06-25T08:09:26Z</time>
      </trkpt>
      <trkpt lat="43.91156" lon="7.43666">
        <ele>1159.885</ele>
        <time>2020-06-25T08:09:42Z</time>
      </trkpt>
      <trkpt lat="43.91156" lon="7.43666">
        <ele>1159.885</ele>
        <time>2020-06-25T08:09:57Z</time>
      </trkpt>
      <trkpt lat="43.91156" lon="7.43666">
        <ele>1159.885</ele>
        <time>2020-06-25T08:10:12Z</time>
      </trkpt>
      <trkpt lat="43.91178" lon="7.43668">
        <ele>1166.114</ele>
        <time>2020-06-25T08:10:28Z</time>
      </trkpt>
      <trkpt lat="43.91179" lon="7.43671">
        <ele>1166.867</ele>
        <time>2020-06-25T08:10:44Z</time>
      </trkpt>
      <trkpt lat="43.91183" lon="7.43671">
        <ele>1166.732</ele>
        <time>2020-06-25T08:11:00Z</time>
      </trkpt>
      <trkpt lat="43.912" lon="7.43672">
        <ele>1169.786</ele>
        <time>2020-06-25T08:11:16Z</time>
      </trkpt>
      <trkpt lat="43.91206" lon="7.43674">
        <ele>1173.995</ele>
        <time>2020-06-25T08:11:31Z</time>
      </trkpt>
      <trkpt lat="43.91215" lon="7.43672">
        <ele>1178.075</ele>
        <time>2020-06-25T08:11:47Z</time>
      </trkpt>
      <trkpt lat="43.91219" lon="7.43671">
        <ele>1180.773</ele>
        <time>2020-06-25T08:12:02Z</time>
      </trkpt>
      <trkpt lat="43.91226" lon="7.43675">
        <ele>1182.993</ele>
        <time>2020-06-25T08:12:18Z</time>
      </trkpt>
      <trkpt lat="43.91235" lon="7.43676">
        <ele>1183.761</ele>
        <time>2020-06-25T08:12:34Z</time>
      </trkpt>
      <trkpt lat="43.91241" lon="7.43677">
        <ele>1184.513</ele>
        <time>2020-06-25T08:12:49Z</time>
      </trkpt>
      <trkpt lat="43.91241" lon="7.43677">
        <ele>1184.513</ele>
        <time>2020-06-25T08:13:05Z</time>
      </trkpt>
      <trkpt lat="43.91241" lon="7.43677">
        <ele>1184.513</ele>
        <time>2020-06-25T08:13:21Z</time>
      </trkpt>
      <trkpt lat="43.91241" lon="7.43677">
        <ele>1184.513</ele>
        <time>2020-06-25T08:13:36Z</time>
      </trkpt>
      <trkpt lat="43.91243" lon="7.43681">
        <ele>1187.217</ele>
        <time>2020-06-25T08:13:52Z</time>
      </trkpt>
      <trkpt lat="43.91247" lon="7.43677">
        <ele>1187.699</ele>
        <time>2020-06-25T08:14:07Z</time>
      </trkpt>
      <trkpt lat="43.91247" lon="7.43674">
        <ele>1187.587</ele>
        <time>2020-06-25T08:14:22Z</time>
      </trkpt>
      <trkpt lat="43.91247" lon="7.43674">
        <ele>1187.587</ele>
        <time>2020-06-25T08:14:38Z</time>
      </trkpt>
      <trkpt lat="43.91264" lon="7.4366">
        <ele>1186.376</ele>
        <time>2020-06-25T08:14:53Z</time>
      </trkpt>
      <trkpt lat="43.91264" lon="7.4366">
        <ele>1186.474</ele>
        <time>2020-06-25T08:15:09Z</time>
      </trkpt>
      <trkpt lat="43.91269" lon="7.43653">
        <ele>1189.665</ele>
        <time>2020-06-25T08:15:25Z</time>
      </trkpt>
      <trkpt lat="43.9128" lon="7.43645">
        <ele>1192.453</ele>
        <time>2020-06-25T08:15:41Z</time>
      </trkpt>
      <trkpt lat="43.9129" lon="7.43641">
        <ele>1193.828</ele>
        <time>2020-06-25T08:15:56Z</time>
      </trkpt>
      <trkpt lat="43.91304" lon="7.43637">
        <ele>1197.187</ele>
        <time>2020-06-25T08:16:12Z</time>
      </trkpt>
      <trkpt lat="43.91323" lon="7.43636">
        <ele>1203.569</ele>
        <time>2020-06-25T08:16:28Z</time>
      </trkpt>
      <trkpt lat="43.91333" lon="7.4364">
        <ele>1207.991</ele>
        <time>2020-06-25T08:16:44Z</time>
      </trkpt>
      <trkpt lat="43.9135" lon="7.43642">
        <ele>1206.182</ele>
        <time>2020-06-25T08:16:59Z</time>
      </trkpt>
      <trkpt lat="43.91365" lon="7.43634">
        <ele>1209.317</ele>
        <time>2020-06-25T08:17:15Z</time>
      </trkpt>
      <trkpt lat="43.91371" lon="7.43631">
        <ele>1211.453</ele>
        <time>2020-06-25T08:17:30Z</time>
      </trkpt>
      <trkpt lat="43.91376" lon="7.43626">
        <ele>1212.332</ele>
        <time>2020-06-25T08:17:46Z</time>
      </trkpt>
      <trkpt lat="43.91376" lon="7.43626">
        <ele>1212.616</ele>
        <time>2020-06-25T08:18:01Z</time>
      </trkpt>
      <trkpt lat="43.91376" lon="7.43626">
        <ele>1212.616</ele>
        <time>2020-06-25T08:18:16Z</time>
      </trkpt>
      <trkpt lat="43.91384" lon="7.43626">
        <ele>1214.712</ele>
        <time>2020-06-25T08:18:31Z</time>
      </trkpt>
      <trkpt lat="43.91399" lon="7.43622">
        <ele>1217.445</ele>
        <time>2020-06-25T08:18:47Z</time>
      </trkpt>
      <trkpt lat="43.91404" lon="7.43625">
        <ele>1220.181</ele>
        <time>2020-06-25T08:19:02Z</time>
      </trkpt>
      <trkpt lat="43.91421" lon="7.43632">
        <ele>1219.731</ele>
        <time>2020-06-25T08:19:17Z</time>
      </trkpt>
      <trkpt lat="43.91432" lon="7.43627">
        <ele>1221.454</ele>
        <time>2020-06-25T08:19:32Z</time>
      </trkpt>
      <trkpt lat="43.91435" lon="7.43631">
        <ele>1222.223</ele>
        <time>2020-06-25T08:19:47Z</time>
      </trkpt>
      <trkpt lat="43.91447" lon="7.43634">
        <ele>1226.587</ele>
        <time>2020-06-25T08:20:03Z</time>
      </trkpt>
      <trkpt lat="43.91452" lon="7.43636">
        <ele>1229.561</ele>
        <time>2020-06-25T08:20:19Z</time>
      </trkpt>
      <trkpt lat="43.91466" lon="7.4364">
        <ele>1233.318</ele>
        <time>2020-06-25T08:20:35Z</time>
      </trkpt>
      <trkpt lat="43.91466" lon="7.4364">
        <ele>1233.318</ele>
        <time>2020-06-25T08:20:50Z</time>
      </trkpt>
      <trkpt lat="43.91466" lon="7.4364">
        <ele>1233.318</ele>
        <time>2020-06-25T08:21:06Z</time>
      </trkpt>
      <trkpt lat="43.91493" lon="7.43635">
        <ele>1233.802</ele>
        <time>2020-06-25T08:21:22Z</time>
      </trkpt>
      <trkpt lat="43.91505" lon="7.43631">
        <ele>1236.868</ele>
        <time>2020-06-25T08:21:37Z</time>
      </trkpt>
      <trkpt lat="43.91505" lon="7.43631">
        <ele>1236.868</ele>
        <time>2020-06-25T08:21:53Z</time>
      </trkpt>
      <trkpt lat="43.91505" lon="7.43631">
        <ele>1236.868</ele>
        <time>2020-06-25T08:22:09Z</time>
      </trkpt>
      <trkpt lat="43.91505" lon="7.43633">
        <ele>1244.064</ele>
        <time>2020-06-25T08:22:24Z</time>
      </trkpt>
      <trkpt lat="43.91505" lon="7.43633">
        <ele>1244.064</ele>
        <time>2020-06-25T08:22:40Z</time>
      </trkpt>
      <trkpt lat="43.91505" lon="7.43633">
        <ele>1244.064</ele>
        <time>2020-06-25T08:22:55Z</time>
      </trkpt>
      <trkpt lat="43.91505" lon="7.43633">
        <ele>1244.064</ele>
        <time>2020-06-25T08:23:11Z</time>
      </trkpt>
      <trkpt lat="43.91505" lon="7.43633">
        <ele>1244.064</ele>
        <time>2020-06-25T08:23:26Z</time>
      </trkpt>
      <trkpt lat="43.91505" lon="7.43633">
        <ele>1244.064</ele>
        <time>2020-06-25T08:23:42Z</time>
      </trkpt>
      <trkpt lat="43.91505" lon="7.43633">
        <ele>1244.064</ele>
        <time>2020-06-25T08:23:57Z</time>
      </trkpt>
      <trkpt lat="43.91505" lon="7.43633">
        <ele>1244.064</ele>
        <time>2020-06-25T08:24:13Z</time>
      </trkpt>
      <trkpt lat="43.91505" lon="7.43633">
        <ele>1244.064</ele>
        <time>2020-06-25T08:24:29Z</time>
      </trkpt>
      <trkpt lat="43.91505" lon="7.43633">
        <ele>1244.064</ele>
        <time>2020-06-25T08:24:44Z</time>
      </trkpt>
      <trkpt lat="43.91505" lon="7.43633">
        <ele>1244.064</ele>
        <time>2020-06-25T08:25:00Z</time>
      </trkpt>
      <trkpt lat="43.91505" lon="7.43633">
        <ele>1244.064</ele>
        <time>2020-06-25T08:25:16Z</time>
      </trkpt>
      <trkpt lat="43.91505" lon="7.43633">
        <ele>1244.064</ele>
        <time>2020-06-25T08:25:32Z</time>
      </trkpt>
      <trkpt lat="43.91505" lon="7.43633">
        <ele>1244.064</ele>
        <time>2020-06-25T08:25:47Z</time>
      </trkpt>
      <trkpt lat="43.91505" lon="7.43633">
        <ele>1244.064</ele>
        <time>2020-06-25T08:26:02Z</time>
      </trkpt>
      <trkpt lat="43.91505" lon="7.43633">
        <ele>1244.064</ele>
        <time>2020-06-25T08:26:17Z</time>
      </trkpt>
      <trkpt lat="43.91505" lon="7.43633">
        <ele>1244.064</ele>
        <time>2020-06-25T08:26:33Z</time>
      </trkpt>
      <trkpt lat="43.91509" lon="7.43635">
        <ele>1245.424</ele>
        <time>2020-06-25T08:26:49Z</time>
      </trkpt>
      <trkpt lat="43.9151" lon="7.43634">
        <ele>1245.209</ele>
        <time>2020-06-25T08:27:04Z</time>
      </trkpt>
      <trkpt lat="43.9151" lon="7.43634">
        <ele>1245.209</ele>
        <time>2020-06-25T08:27:20Z</time>
      </trkpt>
      <trkpt lat="43.9151" lon="7.43634">
        <ele>1245.209</ele>
        <time>2020-06-25T08:27:35Z</time>
      </trkpt>
      <trkpt lat="43.9151" lon="7.43634">
        <ele>1245.209</ele>
        <time>2020-06-25T08:27:51Z</time>
      </trkpt>
      <trkpt lat="43.91514" lon="7.43634">
        <ele>1246.452</ele>
        <time>2020-06-25T08:28:07Z</time>
      </trkpt>
      <trkpt lat="43.91514" lon="7.43634">
        <ele>1246.452</ele>
        <time>2020-06-25T08:28:22Z</time>
      </trkpt>
      <trkpt lat="43.91514" lon="7.43634">
        <ele>1246.452</ele>
        <time>2020-06-25T08:28:38Z</time>
      </trkpt>
      <trkpt lat="43.91514" lon="7.43634">
        <ele>1246.452</ele>
        <time>2020-06-25T08:28:53Z</time>
      </trkpt>
      <trkpt lat="43.91514" lon="7.43634">
        <ele>1246.452</ele>
        <time>2020-06-25T08:29:08Z</time>
      </trkpt>
      <trkpt lat="43.91514" lon="7.43634">
        <ele>1246.452</ele>
        <time>2020-06-25T08:29:23Z</time>
      </trkpt>
      <trkpt lat="43.91514" lon="7.43634">
        <ele>1246.452</ele>
        <time>2020-06-25T08:29:39Z</time>
      </trkpt>
      <trkpt lat="43.91514" lon="7.43634">
        <ele>1246.452</ele>
        <time>2020-06-25T08:29:54Z</time>
      </trkpt>
      <trkpt lat="43.91514" lon="7.43634">
        <ele>1246.452</ele>
        <time>2020-06-25T08:30:09Z</time>
      </trkpt>
      <trkpt lat="43.91514" lon="7.43634">
        <ele>1246.452</ele>
        <time>2020-06-25T08:30:24Z</time>
      </trkpt>
      <trkpt lat="43.91514" lon="7.43634">
        <ele>1246.452</ele>
        <time>2020-06-25T08:30:40Z</time>
      </trkpt>
      <trkpt lat="43.91514" lon="7.43634">
        <ele>1246.452</ele>
        <time>2020-06-25T08:30:55Z</time>
      </trkpt>
      <trkpt lat="43.91514" lon="7.43634">
        <ele>1246.452</ele>
        <time>2020-06-25T08:31:11Z</time>
      </trkpt>
      <trkpt lat="43.91514" lon="7.43634">
        <ele>1246.452</ele>
        <time>2020-06-25T08:31:26Z</time>
      </trkpt>
      <trkpt lat="43.91514" lon="7.43634">
        <ele>1246.452</ele>
        <time>2020-06-25T08:31:41Z</time>
      </trkpt>
      <trkpt lat="43.91514" lon="7.43634">
        <ele>1246.452</ele>
        <time>2020-06-25T08:31:57Z</time>
      </trkpt>
      <trkpt lat="43.91514" lon="7.43634">
        <ele>1246.452</ele>
        <time>2020-06-25T08:32:12Z</time>
      </trkpt>
      <trkpt lat="43.91514" lon="7.43634">
        <ele>1246.452</ele>
        <time>2020-06-25T08:32:28Z</time>
      </trkpt>
      <trkpt lat="43.91514" lon="7.43634">
        <ele>1246.452</ele>
        <time>2020-06-25T08:32:44Z</time>
      </trkpt>
      <trkpt lat="43.91514" lon="7.43634">
        <ele>1246.452</ele>
        <time>2020-06-25T08:32:59Z</time>
      </trkpt>
      <trkpt lat="43.91514" lon="7.43634">
        <ele>1246.452</ele>
        <time>2020-06-25T08:33:14Z</time>
      </trkpt>
      <trkpt lat="43.91514" lon="7.43634">
        <ele>1246.452</ele>
        <time>2020-06-25T08:33:30Z</time>
      </trkpt>
      <trkpt lat="43.91514" lon="7.43634">
        <ele>1246.452</ele>
        <time>2020-06-25T08:33:46Z</time>
      </trkpt>
      <trkpt lat="43.91514" lon="7.43634">
        <ele>1246.452</ele>
        <time>2020-06-25T08:34:01Z</time>
      </trkpt>
      <trkpt lat="43.91514" lon="7.43634">
        <ele>1246.452</ele>
        <time>2020-06-25T08:34:17Z</time>
      </trkpt>
      <trkpt lat="43.91514" lon="7.43634">
        <ele>1246.452</ele>
        <time>2020-06-25T08:34:33Z</time>
      </trkpt>
      <trkpt lat="43.91514" lon="7.43634">
        <ele>1246.452</ele>
        <time>2020-06-25T08:34:49Z</time>
      </trkpt>
      <trkpt lat="43.91514" lon="7.43634">
        <ele>1246.452</ele>
        <time>2020-06-25T08:35:04Z</time>
      </trkpt>
      <trkpt lat="43.91514" lon="7.43634">
        <ele>1246.452</ele>
        <time>2020-06-25T08:35:20Z</time>
      </trkpt>
      <trkpt lat="43.91511" lon="7.43636">
        <ele>1247.73</ele>
        <time>2020-06-25T08:35:35Z</time>
      </trkpt>
      <trkpt lat="43.91511" lon="7.43636">
        <ele>1247.73</ele>
        <time>2020-06-25T08:35:51Z</time>
      </trkpt>
      <trkpt lat="43.91511" lon="7.43636">
        <ele>1247.73</ele>
        <time>2020-06-25T08:36:07Z</time>
      </trkpt>
      <trkpt lat="43.91511" lon="7.43636">
        <ele>1247.73</ele>
        <time>2020-06-25T08:36:22Z</time>
      </trkpt>
      <trkpt lat="43.91511" lon="7.43636">
        <ele>1247.73</ele>
        <time>2020-06-25T08:36:38Z</time>
      </trkpt>
      <trkpt lat="43.9152" lon="7.43621">
        <ele>1250.122</ele>
        <time>2020-06-25T08:36:54Z</time>
      </trkpt>
      <trkpt lat="43.91519" lon="7.43629">
        <ele>1254.191</ele>
        <time>2020-06-25T08:37:10Z</time>
      </trkpt>
      <trkpt lat="43.9152" lon="7.43632">
        <ele>1254.883</ele>
        <time>2020-06-25T08:37:25Z</time>
      </trkpt>
      <trkpt lat="43.91518" lon="7.43635">
        <ele>1253.875</ele>
        <time>2020-06-25T08:37:41Z</time>
      </trkpt>
      <trkpt lat="43.91518" lon="7.43635">
        <ele>1253.875</ele>
        <time>2020-06-25T08:37:56Z</time>
      </trkpt>
      <trkpt lat="43.91531" lon="7.4364">
        <ele>1255.123</ele>
        <time>2020-06-25T08:38:11Z</time>
      </trkpt>
      <trkpt lat="43.91548" lon="7.43634">
        <ele>1258.353</ele>
        <time>2020-06-25T08:38:27Z</time>
      </trkpt>
      <trkpt lat="43.91548" lon="7.43634">
        <ele>1258.353</ele>
        <time>2020-06-25T08:38:43Z</time>
      </trkpt>
      <trkpt lat="43.91551" lon="7.43639">
        <ele>1259.832</ele>
        <time>2020-06-25T08:38:59Z</time>
      </trkpt>
      <trkpt lat="43.9156" lon="7.43641">
        <ele>1262.153</ele>
        <time>2020-06-25T08:39:14Z</time>
      </trkpt>
      <trkpt lat="43.9156" lon="7.43641">
        <ele>1262.153</ele>
        <time>2020-06-25T08:39:30Z</time>
      </trkpt>
      <trkpt lat="43.9156" lon="7.43641">
        <ele>1262.153</ele>
        <time>2020-06-25T08:39:45Z</time>
      </trkpt>
      <trkpt lat="43.9156" lon="7.43641">
        <ele>1262.153</ele>
        <time>2020-06-25T08:40:01Z</time>
      </trkpt>
      <trkpt lat="43.91587" lon="7.43651">
        <ele>1262.936</ele>
        <time>2020-06-25T08:40:16Z</time>
      </trkpt>
      <trkpt lat="43.91594" lon="7.43654">
        <ele>1262.946</ele>
        <time>2020-06-25T08:40:32Z</time>
      </trkpt>
      <trkpt lat="43.91612" lon="7.43659">
        <ele>1267.08</ele>
        <time>2020-06-25T08:40:48Z</time>
      </trkpt>
      <trkpt lat="43.91617" lon="7.43656">
        <ele>1269.824</ele>
        <time>2020-06-25T08:41:03Z</time>
      </trkpt>
      <trkpt lat="43.91636" lon="7.43657">
        <ele>1272.442</ele>
        <time>2020-06-25T08:41:18Z</time>
      </trkpt>
      <trkpt lat="43.91636" lon="7.43657">
        <ele>1272.442</ele>
        <time>2020-06-25T08:41:34Z</time>
      </trkpt>
      <trkpt lat="43.91643" lon="7.43658">
        <ele>1272.206</ele>
        <time>2020-06-25T08:41:50Z</time>
      </trkpt>
      <trkpt lat="43.91651" lon="7.43662">
        <ele>1269.967</ele>
        <time>2020-06-25T08:42:05Z</time>
      </trkpt>
      <trkpt lat="43.91665" lon="7.43678">
        <ele>1276.223</ele>
        <time>2020-06-25T08:42:20Z</time>
      </trkpt>
      <trkpt lat="43.91676" lon="7.43679">
        <ele>1281.077</ele>
        <time>2020-06-25T08:42:35Z</time>
      </trkpt>
      <trkpt lat="43.9169" lon="7.43695">
        <ele>1284.723</ele>
        <time>2020-06-25T08:42:51Z</time>
      </trkpt>
      <trkpt lat="43.91711" lon="7.43695">
        <ele>1288.362</ele>
        <time>2020-06-25T08:43:07Z</time>
      </trkpt>
      <trkpt lat="43.91711" lon="7.43706">
        <ele>1288.504</ele>
        <time>2020-06-25T08:43:23Z</time>
      </trkpt>
      <trkpt lat="43.91715" lon="7.43707">
        <ele>1290.04</ele>
        <time>2020-06-25T08:43:38Z</time>
      </trkpt>
      <trkpt lat="43.91731" lon="7.43692">
        <ele>1290.164</ele>
        <time>2020-06-25T08:43:54Z</time>
      </trkpt>
      <trkpt lat="43.91731" lon="7.43692">
        <ele>1290.164</ele>
        <time>2020-06-25T08:44:09Z</time>
      </trkpt>
      <trkpt lat="43.91742" lon="7.43699">
        <ele>1291.224</ele>
        <time>2020-06-25T08:44:24Z</time>
      </trkpt>
      <trkpt lat="43.91753" lon="7.43696">
        <ele>1295.333</ele>
        <time>2020-06-25T08:44:40Z</time>
      </trkpt>
      <trkpt lat="43.91778" lon="7.43698">
        <ele>1297.562</ele>
        <time>2020-06-25T08:44:56Z</time>
      </trkpt>
      <trkpt lat="43.91782" lon="7.43703">
        <ele>1300.66</ele>
        <time>2020-06-25T08:45:12Z</time>
      </trkpt>
      <trkpt lat="43.91787" lon="7.43696">
        <ele>1301.639</ele>
        <time>2020-06-25T08:45:27Z</time>
      </trkpt>
      <trkpt lat="43.91809" lon="7.43701">
        <ele>1306.691</ele>
        <time>2020-06-25T08:45:43Z</time>
      </trkpt>
      <trkpt lat="43.91816" lon="7.43697">
        <ele>1309.065</ele>
        <time>2020-06-25T08:45:58Z</time>
      </trkpt>
      <trkpt lat="43.91833" lon="7.43692">
        <ele>1312.07</ele>
        <time>2020-06-25T08:46:14Z</time>
      </trkpt>
      <trkpt lat="43.91843" lon="7.43697">
        <ele>1314.725</ele>
        <time>2020-06-25T08:46:30Z</time>
      </trkpt>
      <trkpt lat="43.91856" lon="7.43696">
        <ele>1316.847</ele>
        <time>2020-06-25T08:46:45Z</time>
      </trkpt>
      <trkpt lat="43.91866" lon="7.43699">
        <ele>1318.952</ele>
        <time>2020-06-25T08:47:01Z</time>
      </trkpt>
      <trkpt lat="43.91871" lon="7.43695">
        <ele>1319.885</ele>
        <time>2020-06-25T08:47:16Z</time>
      </trkpt>
      <trkpt lat="43.91884" lon="7.43684">
        <ele>1319.755</ele>
        <time>2020-06-25T08:47:32Z</time>
      </trkpt>
      <trkpt lat="43.919" lon="7.43683">
        <ele>1323.914</ele>
        <time>2020-06-25T08:47:47Z</time>
      </trkpt>
      <trkpt lat="43.91907" lon="7.43677">
        <ele>1324.529</ele>
        <time>2020-06-25T08:48:02Z</time>
      </trkpt>
      <trkpt lat="43.91907" lon="7.43677">
        <ele>1324.529</ele>
        <time>2020-06-25T08:48:18Z</time>
      </trkpt>
      <trkpt lat="43.91914" lon="7.43682">
        <ele>1324.404</ele>
        <time>2020-06-25T08:48:34Z</time>
      </trkpt>
      <trkpt lat="43.91917" lon="7.43684">
        <ele>1323.668</ele>
        <time>2020-06-25T08:48:49Z</time>
      </trkpt>
      <trkpt lat="43.91944" lon="7.43678">
        <ele>1326.453</ele>
        <time>2020-06-25T08:49:05Z</time>
      </trkpt>
      <trkpt lat="43.91958" lon="7.43674">
        <ele>1324.908</ele>
        <time>2020-06-25T08:49:20Z</time>
      </trkpt>
      <trkpt lat="43.91969" lon="7.43677">
        <ele>1328.389</ele>
        <time>2020-06-25T08:49:36Z</time>
      </trkpt>
      <trkpt lat="43.91979" lon="7.43678">
        <ele>1331.464</ele>
        <time>2020-06-25T08:49:51Z</time>
      </trkpt>
      <trkpt lat="43.91992" lon="7.43677">
        <ele>1338.375</ele>
        <time>2020-06-25T08:50:07Z</time>
      </trkpt>
      <trkpt lat="43.91999" lon="7.4365">
        <ele>1337.771</ele>
        <time>2020-06-25T08:50:22Z</time>
      </trkpt>
      <trkpt lat="43.92003" lon="7.43656">
        <ele>1342.013</ele>
        <time>2020-06-25T08:50:38Z</time>
      </trkpt>
      <trkpt lat="43.92002" lon="7.43654">
        <ele>1342.547</ele>
        <time>2020-06-25T08:50:53Z</time>
      </trkpt>
      <trkpt lat="43.92002" lon="7.43654">
        <ele>1342.547</ele>
        <time>2020-06-25T08:51:09Z</time>
      </trkpt>
      <trkpt lat="43.92017" lon="7.43649">
        <ele>1348.256</ele>
        <time>2020-06-25T08:51:25Z</time>
      </trkpt>
      <trkpt lat="43.9203" lon="7.43653">
        <ele>1348.699</ele>
        <time>2020-06-25T08:51:40Z</time>
      </trkpt>
      <trkpt lat="43.92043" lon="7.43646">
        <ele>1350.157</ele>
        <time>2020-06-25T08:51:56Z</time>
      </trkpt>
      <trkpt lat="43.92045" lon="7.43643">
        <ele>1352.602</ele>
        <time>2020-06-25T08:52:12Z</time>
      </trkpt>
      <trkpt lat="43.9206" lon="7.43629">
        <ele>1350.887</ele>
        <time>2020-06-25T08:52:27Z</time>
      </trkpt>
      <trkpt lat="43.92063" lon="7.43663">
        <ele>1353.101</ele>
        <time>2020-06-25T08:52:43Z</time>
      </trkpt>
      <trkpt lat="43.92063" lon="7.43656">
        <ele>1355.377</ele>
        <time>2020-06-25T08:52:58Z</time>
      </trkpt>
      <trkpt lat="43.9206" lon="7.43645">
        <ele>1359.187</ele>
        <time>2020-06-25T08:53:14Z</time>
      </trkpt>
      <trkpt lat="43.92063" lon="7.43639">
        <ele>1359.027</ele>
        <time>2020-06-25T08:53:30Z</time>
      </trkpt>
      <trkpt lat="43.92073" lon="7.43638">
        <ele>1360.221</ele>
        <time>2020-06-25T08:53:46Z</time>
      </trkpt>
      <trkpt lat="43.92081" lon="7.43644">
        <ele>1363.706</ele>
        <time>2020-06-25T08:54:01Z</time>
      </trkpt>
      <trkpt lat="43.92081" lon="7.43644">
        <ele>1363.706</ele>
        <time>2020-06-25T08:54:17Z</time>
      </trkpt>
      <trkpt lat="43.92091" lon="7.43651">
        <ele>1366.511</ele>
        <time>2020-06-25T08:54:32Z</time>
      </trkpt>
      <trkpt lat="43.92096" lon="7.43654">
        <ele>1368.024</ele>
        <time>2020-06-25T08:54:47Z</time>
      </trkpt>
      <trkpt lat="43.92099" lon="7.43654">
        <ele>1369.569</ele>
        <time>2020-06-25T08:55:03Z</time>
      </trkpt>
      <trkpt lat="43.92099" lon="7.43654">
        <ele>1369.569</ele>
        <time>2020-06-25T08:55:19Z</time>
      </trkpt>
      <trkpt lat="43.92099" lon="7.43654">
        <ele>1369.569</ele>
        <time>2020-06-25T08:55:34Z</time>
      </trkpt>
      <trkpt lat="43.92099" lon="7.43654">
        <ele>1369.569</ele>
        <time>2020-06-25T08:55:49Z</time>
      </trkpt>
      <trkpt lat="43.92113" lon="7.43656">
        <ele>1372.662</ele>
        <time>2020-06-25T08:56:05Z</time>
      </trkpt>
      <trkpt lat="43.92113" lon="7.43656">
        <ele>1372.662</ele>
        <time>2020-06-25T08:56:20Z</time>
      </trkpt>
      <trkpt lat="43.92113" lon="7.43656">
        <ele>1372.662</ele>
        <time>2020-06-25T08:56:38Z</time>
      </trkpt>
      <trkpt lat="43.92123" lon="7.43659">
        <ele>1375.892</ele>
        <time>2020-06-25T08:56:54Z</time>
      </trkpt>
      <trkpt lat="43.92131" lon="7.43658">
        <ele>1380.309</ele>
        <time>2020-06-25T08:57:10Z</time>
      </trkpt>
      <trkpt lat="43.92136" lon="7.43658">
        <ele>1383.949</ele>
        <time>2020-06-25T08:57:25Z</time>
      </trkpt>
      <trkpt lat="43.92151" lon="7.43663">
        <ele>1391.198</ele>
        <time>2020-06-25T08:57:41Z</time>
      </trkpt>
      <trkpt lat="43.92165" lon="7.43679">
        <ele>1394.155</ele>
        <time>2020-06-25T08:57:57Z</time>
      </trkpt>
      <trkpt lat="43.92174" lon="7.43682">
        <ele>1395.979</ele>
        <time>2020-06-25T08:58:12Z</time>
      </trkpt>
      <trkpt lat="43.92182" lon="7.43678">
        <ele>1396.659</ele>
        <time>2020-06-25T08:58:27Z</time>
      </trkpt>
      <trkpt lat="43.92199" lon="7.43674">
        <ele>1395.904</ele>
        <time>2020-06-25T08:58:43Z</time>
      </trkpt>
      <trkpt lat="43.92221" lon="7.43688">
        <ele>1397.487</ele>
        <time>2020-06-25T08:58:58Z</time>
      </trkpt>
      <trkpt lat="43.92232" lon="7.43697">
        <ele>1397.957</ele>
        <time>2020-06-25T08:59:14Z</time>
      </trkpt>
      <trkpt lat="43.92242" lon="7.43705">
        <ele>1399.238</ele>
        <time>2020-06-25T08:59:30Z</time>
      </trkpt>
      <trkpt lat="43.92243" lon="7.43705">
        <ele>1399.373</ele>
        <time>2020-06-25T08:59:46Z</time>
      </trkpt>
      <trkpt lat="43.92253" lon="7.43708">
        <ele>1398.49</ele>
        <time>2020-06-25T09:00:02Z</time>
      </trkpt>
      <trkpt lat="43.9226" lon="7.4371">
        <ele>1400.595</ele>
        <time>2020-06-25T09:00:17Z</time>
      </trkpt>
      <trkpt lat="43.92272" lon="7.43715">
        <ele>1400.381</ele>
        <time>2020-06-25T09:00:33Z</time>
      </trkpt>
      <trkpt lat="43.92278" lon="7.43715">
        <ele>1401.082</ele>
        <time>2020-06-25T09:00:48Z</time>
      </trkpt>
      <trkpt lat="43.92287" lon="7.43725">
        <ele>1408.304</ele>
        <time>2020-06-25T09:01:03Z</time>
      </trkpt>
      <trkpt lat="43.92294" lon="7.43732">
        <ele>1410.898</ele>
        <time>2020-06-25T09:01:19Z</time>
      </trkpt>
      <trkpt lat="43.92304" lon="7.4374">
        <ele>1413.905</ele>
        <time>2020-06-25T09:01:35Z</time>
      </trkpt>
      <trkpt lat="43.9232" lon="7.43753">
        <ele>1415.481</ele>
        <time>2020-06-25T09:01:51Z</time>
      </trkpt>
      <trkpt lat="43.92333" lon="7.43757">
        <ele>1417.788</ele>
        <time>2020-06-25T09:02:07Z</time>
      </trkpt>
      <trkpt lat="43.92355" lon="7.43773">
        <ele>1419.252</ele>
        <time>2020-06-25T09:02:22Z</time>
      </trkpt>
      <trkpt lat="43.9236" lon="7.43781">
        <ele>1416.645</ele>
        <time>2020-06-25T09:02:38Z</time>
      </trkpt>
      <trkpt lat="43.9236" lon="7.43781">
        <ele>1416.645</ele>
        <time>2020-06-25T09:02:53Z</time>
      </trkpt>
      <trkpt lat="43.9236" lon="7.43781">
        <ele>1416.645</ele>
        <time>2020-06-25T09:03:08Z</time>
      </trkpt>
      <trkpt lat="43.9236" lon="7.43781">
        <ele>1416.645</ele>
        <time>2020-06-25T09:03:24Z</time>
      </trkpt>
      <trkpt lat="43.92361" lon="7.43773">
        <ele>1418.354</ele>
        <time>2020-06-25T09:03:39Z</time>
      </trkpt>
      <trkpt lat="43.92368" lon="7.43767">
        <ele>1421.038</ele>
        <time>2020-06-25T09:03:55Z</time>
      </trkpt>
      <trkpt lat="43.92368" lon="7.43767">
        <ele>1421.038</ele>
        <time>2020-06-25T09:04:11Z</time>
      </trkpt>
      <trkpt lat="43.92368" lon="7.43767">
        <ele>1421.038</ele>
        <time>2020-06-25T09:04:26Z</time>
      </trkpt>
      <trkpt lat="43.92368" lon="7.43767">
        <ele>1421.038</ele>
        <time>2020-06-25T09:04:41Z</time>
      </trkpt>
      <trkpt lat="43.92376" lon="7.4376">
        <ele>1418.785</ele>
        <time>2020-06-25T09:04:57Z</time>
      </trkpt>
      <trkpt lat="43.92388" lon="7.43768">
        <ele>1418.696</ele>
        <time>2020-06-25T09:05:13Z</time>
      </trkpt>
      <trkpt lat="43.9241" lon="7.4378">
        <ele>1422.241</ele>
        <time>2020-06-25T09:05:29Z</time>
      </trkpt>
      <trkpt lat="43.92429" lon="7.43782">
        <ele>1429.654</ele>
        <time>2020-06-25T09:05:45Z</time>
      </trkpt>
      <trkpt lat="43.92436" lon="7.43778">
        <ele>1434.66</ele>
        <time>2020-06-25T09:06:00Z</time>
      </trkpt>
      <trkpt lat="43.92447" lon="7.43765">
        <ele>1441.469</ele>
        <time>2020-06-25T09:06:16Z</time>
      </trkpt>
      <trkpt lat="43.92459" lon="7.43762">
        <ele>1444.079</ele>
        <time>2020-06-25T09:06:31Z</time>
      </trkpt>
      <trkpt lat="43.92474" lon="7.43762">
        <ele>1441.437</ele>
        <time>2020-06-25T09:06:46Z</time>
      </trkpt>
      <trkpt lat="43.92478" lon="7.43757">
        <ele>1442.093</ele>
        <time>2020-06-25T09:07:02Z</time>
      </trkpt>
      <trkpt lat="43.9249" lon="7.43751">
        <ele>1442.84</ele>
        <time>2020-06-25T09:07:18Z</time>
      </trkpt>
      <trkpt lat="43.92513" lon="7.4375">
        <ele>1444.238</ele>
        <time>2020-06-25T09:07:34Z</time>
      </trkpt>
      <trkpt lat="43.92513" lon="7.4375">
        <ele>1444.238</ele>
        <time>2020-06-25T09:07:50Z</time>
      </trkpt>
      <trkpt lat="43.9252" lon="7.43757">
        <ele>1445.089</ele>
        <time>2020-06-25T09:08:06Z</time>
      </trkpt>
      <trkpt lat="43.92533" lon="7.43762">
        <ele>1448</ele>
        <time>2020-06-25T09:08:21Z</time>
      </trkpt>
      <trkpt lat="43.92548" lon="7.43758">
        <ele>1450.457</ele>
        <time>2020-06-25T09:08:36Z</time>
      </trkpt>
      <trkpt lat="43.92561" lon="7.4376">
        <ele>1455.309</ele>
        <time>2020-06-25T09:08:52Z</time>
      </trkpt>
      <trkpt lat="43.92571" lon="7.43759">
        <ele>1457.324</ele>
        <time>2020-06-25T09:09:08Z</time>
      </trkpt>
      <trkpt lat="43.9258" lon="7.4376">
        <ele>1456.879</ele>
        <time>2020-06-25T09:09:24Z</time>
      </trkpt>
      <trkpt lat="43.926" lon="7.43757">
        <ele>1455.311</ele>
        <time>2020-06-25T09:09:40Z</time>
      </trkpt>
      <trkpt lat="43.92615" lon="7.43756">
        <ele>1454.289</ele>
        <time>2020-06-25T09:09:55Z</time>
      </trkpt>
      <trkpt lat="43.92634" lon="7.43754">
        <ele>1454.955</ele>
        <time>2020-06-25T09:10:11Z</time>
      </trkpt>
      <trkpt lat="43.92644" lon="7.4375">
        <ele>1459.207</ele>
        <time>2020-06-25T09:10:26Z</time>
      </trkpt>
      <trkpt lat="43.92654" lon="7.43754">
        <ele>1458.006</ele>
        <time>2020-06-25T09:10:42Z</time>
      </trkpt>
      <trkpt lat="43.92662" lon="7.43757">
        <ele>1457.708</ele>
        <time>2020-06-25T09:10:58Z</time>
      </trkpt>
      <trkpt lat="43.92681" lon="7.43753">
        <ele>1459.89</ele>
        <time>2020-06-25T09:11:13Z</time>
      </trkpt>
      <trkpt lat="43.92698" lon="7.43747">
        <ele>1462.032</ele>
        <time>2020-06-25T09:11:29Z</time>
      </trkpt>
      <trkpt lat="43.92715" lon="7.43742">
        <ele>1464.12</ele>
        <time>2020-06-25T09:11:44Z</time>
      </trkpt>
      <trkpt lat="43.92721" lon="7.43739">
        <ele>1465.238</ele>
        <time>2020-06-25T09:12:00Z</time>
      </trkpt>
      <trkpt lat="43.92732" lon="7.43739">
        <ele>1467.525</ele>
        <time>2020-06-25T09:12:16Z</time>
      </trkpt>
      <trkpt lat="43.92744" lon="7.43739">
        <ele>1467.536</ele>
        <time>2020-06-25T09:12:31Z</time>
      </trkpt>
      <trkpt lat="43.92753" lon="7.43741">
        <ele>1469.466</ele>
        <time>2020-06-25T09:12:47Z</time>
      </trkpt>
      <trkpt lat="43.92763" lon="7.43747">
        <ele>1471.859</ele>
        <time>2020-06-25T09:13:03Z</time>
      </trkpt>
      <trkpt lat="43.92773" lon="7.43748">
        <ele>1471.717</ele>
        <time>2020-06-25T09:13:18Z</time>
      </trkpt>
      <trkpt lat="43.92784" lon="7.43743">
        <ele>1474.404</ele>
        <time>2020-06-25T09:13:33Z</time>
      </trkpt>
      <trkpt lat="43.92789" lon="7.43745">
        <ele>1478.399</ele>
        <time>2020-06-25T09:13:48Z</time>
      </trkpt>
      <trkpt lat="43.92789" lon="7.43745">
        <ele>1478.399</ele>
        <time>2020-06-25T09:14:03Z</time>
      </trkpt>
      <trkpt lat="43.928" lon="7.43751">
        <ele>1477.858</ele>
        <time>2020-06-25T09:14:19Z</time>
      </trkpt>
      <trkpt lat="43.92811" lon="7.43758">
        <ele>1478.471</ele>
        <time>2020-06-25T09:14:34Z</time>
      </trkpt>
      <trkpt lat="43.92817" lon="7.43758">
        <ele>1480.623</ele>
        <time>2020-06-25T09:14:50Z</time>
      </trkpt>
      <trkpt lat="43.92823" lon="7.43759">
        <ele>1482.572</ele>
        <time>2020-06-25T09:15:06Z</time>
      </trkpt>
      <trkpt lat="43.92838" lon="7.43755">
        <ele>1481.509</ele>
        <time>2020-06-25T09:15:22Z</time>
      </trkpt>
      <trkpt lat="43.92841" lon="7.43755">
        <ele>1483.577</ele>
        <time>2020-06-25T09:15:38Z</time>
      </trkpt>
      <trkpt lat="43.92851" lon="7.43758">
        <ele>1484.436</ele>
        <time>2020-06-25T09:15:53Z</time>
      </trkpt>
      <trkpt lat="43.9287" lon="7.43753">
        <ele>1489.266</ele>
        <time>2020-06-25T09:16:09Z</time>
      </trkpt>
      <trkpt lat="43.92873" lon="7.43754">
        <ele>1491.486</ele>
        <time>2020-06-25T09:16:24Z</time>
      </trkpt>
      <trkpt lat="43.92876" lon="7.43755">
        <ele>1491.705</ele>
        <time>2020-06-25T09:16:40Z</time>
      </trkpt>
      <trkpt lat="43.92882" lon="7.43758">
        <ele>1492.076</ele>
        <time>2020-06-25T09:16:56Z</time>
      </trkpt>
      <trkpt lat="43.9291" lon="7.43761">
        <ele>1497.182</ele>
        <time>2020-06-25T09:17:12Z</time>
      </trkpt>
      <trkpt lat="43.92921" lon="7.43758">
        <ele>1503.14</ele>
        <time>2020-06-25T09:17:27Z</time>
      </trkpt>
      <trkpt lat="43.92925" lon="7.43758">
        <ele>1502.759</ele>
        <time>2020-06-25T09:17:42Z</time>
      </trkpt>
      <trkpt lat="43.9294" lon="7.43756">
        <ele>1505.153</ele>
        <time>2020-06-25T09:17:58Z</time>
      </trkpt>
      <trkpt lat="43.92942" lon="7.43754">
        <ele>1505.247</ele>
        <time>2020-06-25T09:18:13Z</time>
      </trkpt>
      <trkpt lat="43.92947" lon="7.43755">
        <ele>1507.821</ele>
        <time>2020-06-25T09:18:28Z</time>
      </trkpt>
      <trkpt lat="43.92954" lon="7.43744">
        <ele>1508.805</ele>
        <time>2020-06-25T09:18:44Z</time>
      </trkpt>
      <trkpt lat="43.92959" lon="7.43736">
        <ele>1511.087</ele>
        <time>2020-06-25T09:19:00Z</time>
      </trkpt>
      <trkpt lat="43.92959" lon="7.43736">
        <ele>1511.087</ele>
        <time>2020-06-25T09:19:15Z</time>
      </trkpt>
      <trkpt lat="43.92963" lon="7.4374">
        <ele>1511.36</ele>
        <time>2020-06-25T09:19:31Z</time>
      </trkpt>
      <trkpt lat="43.92963" lon="7.4374">
        <ele>1511.36</ele>
        <time>2020-06-25T09:19:47Z</time>
      </trkpt>
      <trkpt lat="43.92963" lon="7.4374">
        <ele>1511.36</ele>
        <time>2020-06-25T09:20:03Z</time>
      </trkpt>
      <trkpt lat="43.92963" lon="7.4374">
        <ele>1511.36</ele>
        <time>2020-06-25T09:20:18Z</time>
      </trkpt>
      <trkpt lat="43.92963" lon="7.4374">
        <ele>1511.36</ele>
        <time>2020-06-25T09:20:33Z</time>
      </trkpt>
      <trkpt lat="43.92963" lon="7.4374">
        <ele>1511.36</ele>
        <time>2020-06-25T09:20:48Z</time>
      </trkpt>
      <trkpt lat="43.92963" lon="7.43741">
        <ele>1513.337</ele>
        <time>2020-06-25T09:21:04Z</time>
      </trkpt>
      <trkpt lat="43.92963" lon="7.43741">
        <ele>1513.337</ele>
        <time>2020-06-25T09:21:20Z</time>
      </trkpt>
      <trkpt lat="43.92963" lon="7.43741">
        <ele>1513.337</ele>
        <time>2020-06-25T09:21:36Z</time>
      </trkpt>
      <trkpt lat="43.92965" lon="7.43739">
        <ele>1515.016</ele>
        <time>2020-06-25T09:21:52Z</time>
      </trkpt>
      <trkpt lat="43.92965" lon="7.43739">
        <ele>1515.016</ele>
        <time>2020-06-25T09:22:07Z</time>
      </trkpt>
      <trkpt lat="43.92965" lon="7.43739">
        <ele>1515.016</ele>
        <time>2020-06-25T09:22:23Z</time>
      </trkpt>
      <trkpt lat="43.92965" lon="7.43739">
        <ele>1515.016</ele>
        <time>2020-06-25T09:22:39Z</time>
      </trkpt>
      <trkpt lat="43.92965" lon="7.43739">
        <ele>1515.016</ele>
        <time>2020-06-25T09:22:54Z</time>
      </trkpt>
      <trkpt lat="43.9298" lon="7.43757">
        <ele>1514.906</ele>
        <time>2020-06-25T09:23:10Z</time>
      </trkpt>
      <trkpt lat="43.92982" lon="7.43767">
        <ele>1516.454</ele>
        <time>2020-06-25T09:23:26Z</time>
      </trkpt>
      <trkpt lat="43.92987" lon="7.43772">
        <ele>1520.051</ele>
        <time>2020-06-25T09:23:41Z</time>
      </trkpt>
      <trkpt lat="43.9299" lon="7.43773">
        <ele>1522.664</ele>
        <time>2020-06-25T09:23:56Z</time>
      </trkpt>
      <trkpt lat="43.9299" lon="7.43773">
        <ele>1522.664</ele>
        <time>2020-06-25T09:24:11Z</time>
      </trkpt>
      <trkpt lat="43.92993" lon="7.43773">
        <ele>1523.848</ele>
        <time>2020-06-25T09:24:27Z</time>
      </trkpt>
      <trkpt lat="43.93003" lon="7.43772">
        <ele>1527.479</ele>
        <time>2020-06-25T09:24:43Z</time>
      </trkpt>
      <trkpt lat="43.93013" lon="7.43774">
        <ele>1528.872</ele>
        <time>2020-06-25T09:24:59Z</time>
      </trkpt>
      <trkpt lat="43.93025" lon="7.43776">
        <ele>1534.006</ele>
        <time>2020-06-25T09:25:15Z</time>
      </trkpt>
      <trkpt lat="43.93026" lon="7.43791">
        <ele>1534.085</ele>
        <time>2020-06-25T09:25:31Z</time>
      </trkpt>
      <trkpt lat="43.93028" lon="7.43813">
        <ele>1537.61</ele>
        <time>2020-06-25T09:25:47Z</time>
      </trkpt>
      <trkpt lat="43.93021" lon="7.4383">
        <ele>1542.424</ele>
        <time>2020-06-25T09:26:03Z</time>
      </trkpt>
      <trkpt lat="43.9302" lon="7.43837">
        <ele>1545.245</ele>
        <time>2020-06-25T09:26:18Z</time>
      </trkpt>
      <trkpt lat="43.9302" lon="7.43837">
        <ele>1545.245</ele>
        <time>2020-06-25T09:26:34Z</time>
      </trkpt>
      <trkpt lat="43.9302" lon="7.43837">
        <ele>1545.245</ele>
        <time>2020-06-25T09:26:50Z</time>
      </trkpt>
      <trkpt lat="43.9302" lon="7.43837">
        <ele>1545.245</ele>
        <time>2020-06-25T09:27:05Z</time>
      </trkpt>
      <trkpt lat="43.9302" lon="7.43837">
        <ele>1545.245</ele>
        <time>2020-06-25T09:27:21Z</time>
      </trkpt>
      <trkpt lat="43.9302" lon="7.43837">
        <ele>1545.245</ele>
        <time>2020-06-25T09:27:37Z</time>
      </trkpt>
      <trkpt lat="43.9302" lon="7.43837">
        <ele>1545.245</ele>
        <time>2020-06-25T09:27:53Z</time>
      </trkpt>
      <trkpt lat="43.9302" lon="7.43836">
        <ele>1544.537</ele>
        <time>2020-06-25T09:28:09Z</time>
      </trkpt>
      <trkpt lat="43.9302" lon="7.43836">
        <ele>1544.537</ele>
        <time>2020-06-25T09:28:25Z</time>
      </trkpt>
      <trkpt lat="43.9302" lon="7.43836">
        <ele>1544.537</ele>
        <time>2020-06-25T09:28:41Z</time>
      </trkpt>
      <trkpt lat="43.9302" lon="7.43836">
        <ele>1544.537</ele>
        <time>2020-06-25T09:28:57Z</time>
      </trkpt>
      <trkpt lat="43.9302" lon="7.43836">
        <ele>1544.537</ele>
        <time>2020-06-25T09:29:13Z</time>
      </trkpt>
      <trkpt lat="43.93018" lon="7.43854">
        <ele>1541.804</ele>
        <time>2020-06-25T09:29:29Z</time>
      </trkpt>
      <trkpt lat="43.93016" lon="7.43876">
        <ele>1545.843</ele>
        <time>2020-06-25T09:29:45Z</time>
      </trkpt>
      <trkpt lat="43.93013" lon="7.43889">
        <ele>1548.234</ele>
        <time>2020-06-25T09:30:01Z</time>
      </trkpt>
      <trkpt lat="43.93014" lon="7.43899">
        <ele>1549.826</ele>
        <time>2020-06-25T09:30:16Z</time>
      </trkpt>
      <trkpt lat="43.93017" lon="7.43919">
        <ele>1552.566</ele>
        <time>2020-06-25T09:30:32Z</time>
      </trkpt>
      <trkpt lat="43.93015" lon="7.4392">
        <ele>1552.129</ele>
        <time>2020-06-25T09:30:47Z</time>
      </trkpt>
      <trkpt lat="43.93017" lon="7.43934">
        <ele>1551.859</ele>
        <time>2020-06-25T09:31:03Z</time>
      </trkpt>
      <trkpt lat="43.93022" lon="7.43954">
        <ele>1553.11</ele>
        <time>2020-06-25T09:31:19Z</time>
      </trkpt>
      <trkpt lat="43.93024" lon="7.43974">
        <ele>1559.215</ele>
        <time>2020-06-25T09:31:35Z</time>
      </trkpt>
      <trkpt lat="43.93028" lon="7.43994">
        <ele>1564.288</ele>
        <time>2020-06-25T09:31:51Z</time>
      </trkpt>
      <trkpt lat="43.93032" lon="7.44013">
        <ele>1567.303</ele>
        <time>2020-06-25T09:32:06Z</time>
      </trkpt>
      <trkpt lat="43.93035" lon="7.44017">
        <ele>1567.516</ele>
        <time>2020-06-25T09:32:22Z</time>
      </trkpt>
      <trkpt lat="43.93043" lon="7.44027">
        <ele>1572.128</ele>
        <time>2020-06-25T09:32:38Z</time>
      </trkpt>
      <trkpt lat="43.93057" lon="7.44055">
        <ele>1576.138</ele>
        <time>2020-06-25T09:32:53Z</time>
      </trkpt>
      <trkpt lat="43.9306" lon="7.44075">
        <ele>1576.273</ele>
        <time>2020-06-25T09:33:09Z</time>
      </trkpt>
      <trkpt lat="43.93058" lon="7.44095">
        <ele>1574.958</ele>
        <time>2020-06-25T09:33:25Z</time>
      </trkpt>
      <trkpt lat="43.93057" lon="7.44108">
        <ele>1577.159</ele>
        <time>2020-06-25T09:33:40Z</time>
      </trkpt>
      <trkpt lat="43.93055" lon="7.44115">
        <ele>1576.52</ele>
        <time>2020-06-25T09:33:55Z</time>
      </trkpt>
      <trkpt lat="43.93055" lon="7.44134">
        <ele>1581.037</ele>
        <time>2020-06-25T09:34:11Z</time>
      </trkpt>
      <trkpt lat="43.93057" lon="7.44162">
        <ele>1588.248</ele>
        <time>2020-06-25T09:34:27Z</time>
      </trkpt>
      <trkpt lat="43.93063" lon="7.4418">
        <ele>1591.253</ele>
        <time>2020-06-25T09:34:42Z</time>
      </trkpt>
      <trkpt lat="43.93067" lon="7.44182">
        <ele>1594.054</ele>
        <time>2020-06-25T09:34:57Z</time>
      </trkpt>
      <trkpt lat="43.93072" lon="7.44192">
        <ele>1592.839</ele>
        <time>2020-06-25T09:35:12Z</time>
      </trkpt>
      <trkpt lat="43.93072" lon="7.44219">
        <ele>1588.302</ele>
        <time>2020-06-25T09:35:28Z</time>
      </trkpt>
      <trkpt lat="43.93081" lon="7.44243">
        <ele>1588.755</ele>
        <time>2020-06-25T09:35:43Z</time>
      </trkpt>
      <trkpt lat="43.93091" lon="7.44262">
        <ele>1593.977</ele>
        <time>2020-06-25T09:35:59Z</time>
      </trkpt>
      <trkpt lat="43.93102" lon="7.44275">
        <ele>1594.975</ele>
        <time>2020-06-25T09:36:15Z</time>
      </trkpt>
      <trkpt lat="43.93106" lon="7.44283">
        <ele>1594.672</ele>
        <time>2020-06-25T09:36:30Z</time>
      </trkpt>
      <trkpt lat="43.93112" lon="7.44289">
        <ele>1596.981</ele>
        <time>2020-06-25T09:36:46Z</time>
      </trkpt>
      <trkpt lat="43.93127" lon="7.44291">
        <ele>1601.842</ele>
        <time>2020-06-25T09:37:01Z</time>
      </trkpt>
      <trkpt lat="43.93134" lon="7.44304">
        <ele>1602.245</ele>
        <time>2020-06-25T09:37:16Z</time>
      </trkpt>
      <trkpt lat="43.9314" lon="7.44318">
        <ele>1602.603</ele>
        <time>2020-06-25T09:37:32Z</time>
      </trkpt>
      <trkpt lat="43.93151" lon="7.4434">
        <ele>1601.711</ele>
        <time>2020-06-25T09:37:48Z</time>
      </trkpt>
      <trkpt lat="43.93158" lon="7.44363">
        <ele>1601.408</ele>
        <time>2020-06-25T09:38:04Z</time>
      </trkpt>
      <trkpt lat="43.93166" lon="7.4438">
        <ele>1603.675</ele>
        <time>2020-06-25T09:38:20Z</time>
      </trkpt>
      <trkpt lat="43.93172" lon="7.4439">
        <ele>1608.391</ele>
        <time>2020-06-25T09:38:36Z</time>
      </trkpt>
      <trkpt lat="43.9318" lon="7.44408">
        <ele>1609.197</ele>
        <time>2020-06-25T09:38:51Z</time>
      </trkpt>
      <trkpt lat="43.93194" lon="7.44415">
        <ele>1611.546</ele>
        <time>2020-06-25T09:39:06Z</time>
      </trkpt>
      <trkpt lat="43.93201" lon="7.44426">
        <ele>1614.52</ele>
        <time>2020-06-25T09:39:21Z</time>
      </trkpt>
      <trkpt lat="43.9321" lon="7.44441">
        <ele>1614.746</ele>
        <time>2020-06-25T09:39:37Z</time>
      </trkpt>
      <trkpt lat="43.93219" lon="7.44459">
        <ele>1614.38</ele>
        <time>2020-06-25T09:39:53Z</time>
      </trkpt>
      <trkpt lat="43.9323" lon="7.44481">
        <ele>1614.514</ele>
        <time>2020-06-25T09:40:09Z</time>
      </trkpt>
      <trkpt lat="43.93232" lon="7.44485">
        <ele>1616.347</ele>
        <time>2020-06-25T09:40:25Z</time>
      </trkpt>
      <trkpt lat="43.93232" lon="7.44485">
        <ele>1616.347</ele>
        <time>2020-06-25T09:40:40Z</time>
      </trkpt>
      <trkpt lat="43.93232" lon="7.44485">
        <ele>1616.347</ele>
        <time>2020-06-25T09:40:56Z</time>
      </trkpt>
      <trkpt lat="43.93232" lon="7.44485">
        <ele>1616.347</ele>
        <time>2020-06-25T09:41:11Z</time>
      </trkpt>
      <trkpt lat="43.93232" lon="7.44485">
        <ele>1616.347</ele>
        <time>2020-06-25T09:41:27Z</time>
      </trkpt>
      <trkpt lat="43.93232" lon="7.44485">
        <ele>1616.347</ele>
        <time>2020-06-25T09:41:42Z</time>
      </trkpt>
      <trkpt lat="43.93238" lon="7.44497">
        <ele>1615.899</ele>
        <time>2020-06-25T09:41:57Z</time>
      </trkpt>
      <trkpt lat="43.93248" lon="7.44499">
        <ele>1616.027</ele>
        <time>2020-06-25T09:42:13Z</time>
      </trkpt>
      <trkpt lat="43.9326" lon="7.44504">
        <ele>1617.438</ele>
        <time>2020-06-25T09:42:29Z</time>
      </trkpt>
      <trkpt lat="43.93266" lon="7.44507">
        <ele>1618.163</ele>
        <time>2020-06-25T09:42:44Z</time>
      </trkpt>
      <trkpt lat="43.93279" lon="7.44518">
        <ele>1620.027</ele>
        <time>2020-06-25T09:43:00Z</time>
      </trkpt>
      <trkpt lat="43.93292" lon="7.44526">
        <ele>1621.594</ele>
        <time>2020-06-25T09:43:15Z</time>
      </trkpt>
      <trkpt lat="43.93305" lon="7.44533">
        <ele>1621.383</ele>
        <time>2020-06-25T09:43:30Z</time>
      </trkpt>
      <trkpt lat="43.93315" lon="7.44539">
        <ele>1623.488</ele>
        <time>2020-06-25T09:43:46Z</time>
      </trkpt>
      <trkpt lat="43.93325" lon="7.44543">
        <ele>1625.747</ele>
        <time>2020-06-25T09:44:02Z</time>
      </trkpt>
      <trkpt lat="43.9333" lon="7.44551">
        <ele>1626.658</ele>
        <time>2020-06-25T09:44:18Z</time>
      </trkpt>
      <trkpt lat="43.93343" lon="7.4456">
        <ele>1628.619</ele>
        <time>2020-06-25T09:44:34Z</time>
      </trkpt>
      <trkpt lat="43.9335" lon="7.44567">
        <ele>1631.812</ele>
        <time>2020-06-25T09:44:49Z</time>
      </trkpt>
      <trkpt lat="43.93357" lon="7.44582">
        <ele>1631.114</ele>
        <time>2020-06-25T09:45:05Z</time>
      </trkpt>
      <trkpt lat="43.93366" lon="7.44592">
        <ele>1632.932</ele>
        <time>2020-06-25T09:45:21Z</time>
      </trkpt>
      <trkpt lat="43.93377" lon="7.44609">
        <ele>1629.494</ele>
        <time>2020-06-25T09:45:37Z</time>
      </trkpt>
      <trkpt lat="43.93387" lon="7.44636">
        <ele>1631.484</ele>
        <time>2020-06-25T09:45:53Z</time>
      </trkpt>
      <trkpt lat="43.93399" lon="7.44648">
        <ele>1634.561</ele>
        <time>2020-06-25T09:46:09Z</time>
      </trkpt>
      <trkpt lat="43.93411" lon="7.44649">
        <ele>1638.548</ele>
        <time>2020-06-25T09:46:24Z</time>
      </trkpt>
      <trkpt lat="43.93411" lon="7.44649">
        <ele>1638.905</ele>
        <time>2020-06-25T09:46:39Z</time>
      </trkpt>
      <trkpt lat="43.93411" lon="7.44649">
        <ele>1638.905</ele>
        <time>2020-06-25T09:46:55Z</time>
      </trkpt>
      <trkpt lat="43.93411" lon="7.44649">
        <ele>1638.905</ele>
        <time>2020-06-25T09:47:11Z</time>
      </trkpt>
      <trkpt lat="43.93411" lon="7.44649">
        <ele>1638.905</ele>
        <time>2020-06-25T09:47:27Z</time>
      </trkpt>
      <trkpt lat="43.93411" lon="7.44649">
        <ele>1638.905</ele>
        <time>2020-06-25T09:47:43Z</time>
      </trkpt>
      <trkpt lat="43.93411" lon="7.44649">
        <ele>1638.905</ele>
        <time>2020-06-25T09:47:58Z</time>
      </trkpt>
      <trkpt lat="43.93411" lon="7.44649">
        <ele>1638.905</ele>
        <time>2020-06-25T09:48:14Z</time>
      </trkpt>
      <trkpt lat="43.93411" lon="7.44649">
        <ele>1638.905</ele>
        <time>2020-06-25T09:48:30Z</time>
      </trkpt>
      <trkpt lat="43.93424" lon="7.44657">
        <ele>1641.824</ele>
        <time>2020-06-25T09:48:45Z</time>
      </trkpt>
      <trkpt lat="43.93432" lon="7.44668">
        <ele>1644.12</ele>
        <time>2020-06-25T09:49:00Z</time>
      </trkpt>
      <trkpt lat="43.93447" lon="7.44681">
        <ele>1642.865</ele>
        <time>2020-06-25T09:49:16Z</time>
      </trkpt>
      <trkpt lat="43.93461" lon="7.44698">
        <ele>1644.2</ele>
        <time>2020-06-25T09:49:32Z</time>
      </trkpt>
      <trkpt lat="43.93471" lon="7.44711">
        <ele>1647.646</ele>
        <time>2020-06-25T09:49:47Z</time>
      </trkpt>
      <trkpt lat="43.93486" lon="7.44719">
        <ele>1649.924</ele>
        <time>2020-06-25T09:50:03Z</time>
      </trkpt>
      <trkpt lat="43.93499" lon="7.44715">
        <ele>1648.161</ele>
        <time>2020-06-25T09:50:18Z</time>
      </trkpt>
      <trkpt lat="43.93512" lon="7.44717">
        <ele>1649.197</ele>
        <time>2020-06-25T09:50:33Z</time>
      </trkpt>
      <trkpt lat="43.93527" lon="7.44719">
        <ele>1651.575</ele>
        <time>2020-06-25T09:50:49Z</time>
      </trkpt>
      <trkpt lat="43.93541" lon="7.44718">
        <ele>1652.21</ele>
        <time>2020-06-25T09:51:05Z</time>
      </trkpt>
      <trkpt lat="43.93552" lon="7.4472">
        <ele>1651.709</ele>
        <time>2020-06-25T09:51:20Z</time>
      </trkpt>
      <trkpt lat="43.93568" lon="7.44722">
        <ele>1651.898</ele>
        <time>2020-06-25T09:51:35Z</time>
      </trkpt>
      <trkpt lat="43.93583" lon="7.44731">
        <ele>1652.048</ele>
        <time>2020-06-25T09:51:51Z</time>
      </trkpt>
      <trkpt lat="43.93595" lon="7.44739">
        <ele>1653.636</ele>
        <time>2020-06-25T09:52:06Z</time>
      </trkpt>
      <trkpt lat="43.93596" lon="7.44739">
        <ele>1653.798</ele>
        <time>2020-06-25T09:52:22Z</time>
      </trkpt>
      <trkpt lat="43.93596" lon="7.44739">
        <ele>1653.798</ele>
        <time>2020-06-25T09:52:37Z</time>
      </trkpt>
      <trkpt lat="43.93596" lon="7.44739">
        <ele>1653.798</ele>
        <time>2020-06-25T09:52:52Z</time>
      </trkpt>
      <trkpt lat="43.93598" lon="7.44737">
        <ele>1654.204</ele>
        <time>2020-06-25T09:53:08Z</time>
      </trkpt>
      <trkpt lat="43.93609" lon="7.44719">
        <ele>1656.31</ele>
        <time>2020-06-25T09:53:24Z</time>
      </trkpt>
      <trkpt lat="43.93619" lon="7.44702">
        <ele>1658.142</ele>
        <time>2020-06-25T09:53:39Z</time>
      </trkpt>
      <trkpt lat="43.9363" lon="7.44685">
        <ele>1663.18</ele>
        <time>2020-06-25T09:53:54Z</time>
      </trkpt>
      <trkpt lat="43.93633" lon="7.4467">
        <ele>1665.992</ele>
        <time>2020-06-25T09:54:10Z</time>
      </trkpt>
      <trkpt lat="43.93637" lon="7.44652">
        <ele>1666.919</ele>
        <time>2020-06-25T09:54:25Z</time>
      </trkpt>
      <trkpt lat="43.93642" lon="7.44637">
        <ele>1665.79</ele>
        <time>2020-06-25T09:54:41Z</time>
      </trkpt>
      <trkpt lat="43.93643" lon="7.44621">
        <ele>1666.598</ele>
        <time>2020-06-25T09:54:56Z</time>
      </trkpt>
      <trkpt lat="43.93645" lon="7.44604">
        <ele>1670.711</ele>
        <time>2020-06-25T09:55:12Z</time>
      </trkpt>
      <trkpt lat="43.93646" lon="7.44585">
        <ele>1672.728</ele>
        <time>2020-06-25T09:55:27Z</time>
      </trkpt>
      <trkpt lat="43.93652" lon="7.44563">
        <ele>1676.171</ele>
        <time>2020-06-25T09:55:43Z</time>
      </trkpt>
      <trkpt lat="43.93652" lon="7.44547">
        <ele>1676.181</ele>
        <time>2020-06-25T09:55:59Z</time>
      </trkpt>
      <trkpt lat="43.93658" lon="7.44529">
        <ele>1676.648</ele>
        <time>2020-06-25T09:56:15Z</time>
      </trkpt>
      <trkpt lat="43.93663" lon="7.44511">
        <ele>1677.317</ele>
        <time>2020-06-25T09:56:31Z</time>
      </trkpt>
      <trkpt lat="43.93668" lon="7.44496">
        <ele>1675.976</ele>
        <time>2020-06-25T09:56:47Z</time>
      </trkpt>
      <trkpt lat="43.93673" lon="7.44476">
        <ele>1677.808</ele>
        <time>2020-06-25T09:57:03Z</time>
      </trkpt>
      <trkpt lat="43.93677" lon="7.44462">
        <ele>1678.204</ele>
        <time>2020-06-25T09:57:19Z</time>
      </trkpt>
      <trkpt lat="43.93684" lon="7.44444">
        <ele>1680.414</ele>
        <time>2020-06-25T09:57:35Z</time>
      </trkpt>
      <trkpt lat="43.9369" lon="7.44428">
        <ele>1681.979</ele>
        <time>2020-06-25T09:57:51Z</time>
      </trkpt>
      <trkpt lat="43.93698" lon="7.44415">
        <ele>1682.605</ele>
        <time>2020-06-25T09:58:07Z</time>
      </trkpt>
      <trkpt lat="43.93704" lon="7.44396">
        <ele>1685.503</ele>
        <time>2020-06-25T09:58:22Z</time>
      </trkpt>
      <trkpt lat="43.93712" lon="7.44381">
        <ele>1688.445</ele>
        <time>2020-06-25T09:58:38Z</time>
      </trkpt>
      <trkpt lat="43.93717" lon="7.44364">
        <ele>1689.684</ele>
        <time>2020-06-25T09:58:53Z</time>
      </trkpt>
      <trkpt lat="43.93722" lon="7.44351">
        <ele>1691.922</ele>
        <time>2020-06-25T09:59:09Z</time>
      </trkpt>
      <trkpt lat="43.93722" lon="7.44351">
        <ele>1691.922</ele>
        <time>2020-06-25T09:59:24Z</time>
      </trkpt>
      <trkpt lat="43.93722" lon="7.44351">
        <ele>1691.922</ele>
        <time>2020-06-25T09:59:40Z</time>
      </trkpt>
      <trkpt lat="43.93722" lon="7.44351">
        <ele>1691.922</ele>
        <time>2020-06-25T09:59:56Z</time>
      </trkpt>
      <trkpt lat="43.9372" lon="7.44351">
        <ele>1692.45</ele>
        <time>2020-06-25T10:00:11Z</time>
      </trkpt>
      <trkpt lat="43.9372" lon="7.44351">
        <ele>1692.45</ele>
        <time>2020-06-25T10:00:27Z</time>
      </trkpt>
      <trkpt lat="43.93722" lon="7.44354">
        <ele>1692.718</ele>
        <time>2020-06-25T10:00:42Z</time>
      </trkpt>
      <trkpt lat="43.93723" lon="7.44354">
        <ele>1692.755</ele>
        <time>2020-06-25T10:00:58Z</time>
      </trkpt>
      <trkpt lat="43.93726" lon="7.44354">
        <ele>1692.92</ele>
        <time>2020-06-25T10:01:13Z</time>
      </trkpt>
      <trkpt lat="43.93724" lon="7.44355">
        <ele>1692.352</ele>
        <time>2020-06-25T10:01:29Z</time>
      </trkpt>
      <trkpt lat="43.93722" lon="7.44358">
        <ele>1692.756</ele>
        <time>2020-06-25T10:01:44Z</time>
      </trkpt>
      <trkpt lat="43.93722" lon="7.44358">
        <ele>1692.756</ele>
        <time>2020-06-25T10:01:59Z</time>
      </trkpt>
      <trkpt lat="43.93722" lon="7.44358">
        <ele>1692.756</ele>
        <time>2020-06-25T10:02:15Z</time>
      </trkpt>
      <trkpt lat="43.93722" lon="7.44358">
        <ele>1692.756</ele>
        <time>2020-06-25T10:02:31Z</time>
      </trkpt>
      <trkpt lat="43.93724" lon="7.44359">
        <ele>1692.548</ele>
        <time>2020-06-25T10:02:46Z</time>
      </trkpt>
      <trkpt lat="43.93724" lon="7.4436">
        <ele>1692.613</ele>
        <time>2020-06-25T10:03:02Z</time>
      </trkpt>
      <trkpt lat="43.93724" lon="7.4436">
        <ele>1692.613</ele>
        <time>2020-06-25T10:03:17Z</time>
      </trkpt>
      <trkpt lat="43.93724" lon="7.4436">
        <ele>1692.613</ele>
        <time>2020-06-25T10:03:33Z</time>
      </trkpt>
      <trkpt lat="43.93724" lon="7.4436">
        <ele>1692.613</ele>
        <time>2020-06-25T10:03:48Z</time>
      </trkpt>
      <trkpt lat="43.93724" lon="7.4436">
        <ele>1692.613</ele>
        <time>2020-06-25T10:04:04Z</time>
      </trkpt>
      <trkpt lat="43.93724" lon="7.4436">
        <ele>1692.613</ele>
        <time>2020-06-25T10:04:19Z</time>
      </trkpt>
      <trkpt lat="43.93724" lon="7.4436">
        <ele>1692.613</ele>
        <time>2020-06-25T10:04:35Z</time>
      </trkpt>
      <trkpt lat="43.93724" lon="7.4436">
        <ele>1692.613</ele>
        <time>2020-06-25T10:04:51Z</time>
      </trkpt>
      <trkpt lat="43.93724" lon="7.4436">
        <ele>1692.613</ele>
        <time>2020-06-25T10:05:07Z</time>
      </trkpt>
      <trkpt lat="43.93724" lon="7.4436">
        <ele>1692.613</ele>
        <time>2020-06-25T10:05:22Z</time>
      </trkpt>
      <trkpt lat="43.93724" lon="7.4436">
        <ele>1692.613</ele>
        <time>2020-06-25T10:05:37Z</time>
      </trkpt>
      <trkpt lat="43.93723" lon="7.44358">
        <ele>1692.71</ele>
        <time>2020-06-25T10:05:53Z</time>
      </trkpt>
      <trkpt lat="43.93723" lon="7.44358">
        <ele>1692.71</ele>
        <time>2020-06-25T10:06:08Z</time>
      </trkpt>
      <trkpt lat="43.93723" lon="7.44358">
        <ele>1692.71</ele>
        <time>2020-06-25T10:06:24Z</time>
      </trkpt>
      <trkpt lat="43.93723" lon="7.44358">
        <ele>1692.71</ele>
        <time>2020-06-25T10:06:39Z</time>
      </trkpt>
      <trkpt lat="43.93723" lon="7.44358">
        <ele>1692.71</ele>
        <time>2020-06-25T10:06:55Z</time>
      </trkpt>
      <trkpt lat="43.93723" lon="7.44358">
        <ele>1692.71</ele>
        <time>2020-06-25T10:07:10Z</time>
      </trkpt>
      <trkpt lat="43.93723" lon="7.44358">
        <ele>1692.71</ele>
        <time>2020-06-25T10:07:26Z</time>
      </trkpt>
      <trkpt lat="43.93723" lon="7.44358">
        <ele>1692.71</ele>
        <time>2020-06-25T10:07:41Z</time>
      </trkpt>
      <trkpt lat="43.93723" lon="7.44358">
        <ele>1692.71</ele>
        <time>2020-06-25T10:07:56Z</time>
      </trkpt>
      <trkpt lat="43.93723" lon="7.44358">
        <ele>1692.71</ele>
        <time>2020-06-25T10:08:12Z</time>
      </trkpt>
      <trkpt lat="43.93723" lon="7.44358">
        <ele>1692.71</ele>
        <time>2020-06-25T10:08:27Z</time>
      </trkpt>
      <trkpt lat="43.93723" lon="7.44358">
        <ele>1692.71</ele>
        <time>2020-06-25T10:08:42Z</time>
      </trkpt>
      <trkpt lat="43.93723" lon="7.44358">
        <ele>1692.71</ele>
        <time>2020-06-25T10:08:57Z</time>
      </trkpt>
      <trkpt lat="43.93723" lon="7.44358">
        <ele>1692.71</ele>
        <time>2020-06-25T10:09:13Z</time>
      </trkpt>
      <trkpt lat="43.93723" lon="7.44358">
        <ele>1692.71</ele>
        <time>2020-06-25T10:09:29Z</time>
      </trkpt>
      <trkpt lat="43.93723" lon="7.44358">
        <ele>1692.71</ele>
        <time>2020-06-25T10:09:45Z</time>
      </trkpt>
      <trkpt lat="43.93723" lon="7.44358">
        <ele>1692.71</ele>
        <time>2020-06-25T10:10:01Z</time>
      </trkpt>
      <trkpt lat="43.93723" lon="7.44358">
        <ele>1692.71</ele>
        <time>2020-06-25T10:10:17Z</time>
      </trkpt>
      <trkpt lat="43.93723" lon="7.44358">
        <ele>1692.71</ele>
        <time>2020-06-25T10:10:33Z</time>
      </trkpt>
      <trkpt lat="43.93723" lon="7.44358">
        <ele>1692.71</ele>
        <time>2020-06-25T10:10:48Z</time>
      </trkpt>
      <trkpt lat="43.93723" lon="7.44358">
        <ele>1692.71</ele>
        <time>2020-06-25T10:11:04Z</time>
      </trkpt>
      <trkpt lat="43.93723" lon="7.44358">
        <ele>1692.71</ele>
        <time>2020-06-25T10:11:19Z</time>
      </trkpt>
      <trkpt lat="43.93724" lon="7.44355">
        <ele>1692.422</ele>
        <time>2020-06-25T10:11:35Z</time>
      </trkpt>
      <trkpt lat="43.93724" lon="7.44354">
        <ele>1692.218</ele>
        <time>2020-06-25T10:11:50Z</time>
      </trkpt>
      <trkpt lat="43.93724" lon="7.44354">
        <ele>1692.218</ele>
        <time>2020-06-25T10:12:06Z</time>
      </trkpt>
      <trkpt lat="43.93724" lon="7.44354">
        <ele>1692.218</ele>
        <time>2020-06-25T10:12:21Z</time>
      </trkpt>
      <trkpt lat="43.93724" lon="7.44354">
        <ele>1692.218</ele>
        <time>2020-06-25T10:12:36Z</time>
      </trkpt>
      <trkpt lat="43.93724" lon="7.44354">
        <ele>1692.218</ele>
        <time>2020-06-25T10:12:51Z</time>
      </trkpt>
      <trkpt lat="43.93724" lon="7.44354">
        <ele>1692.218</ele>
        <time>2020-06-25T10:13:07Z</time>
      </trkpt>
      <trkpt lat="43.93724" lon="7.44354">
        <ele>1692.218</ele>
        <time>2020-06-25T10:13:22Z</time>
      </trkpt>
      <trkpt lat="43.93724" lon="7.44354">
        <ele>1692.218</ele>
        <time>2020-06-25T10:13:37Z</time>
      </trkpt>
      <trkpt lat="43.93724" lon="7.44354">
        <ele>1692.218</ele>
        <time>2020-06-25T10:13:53Z</time>
      </trkpt>
      <trkpt lat="43.93724" lon="7.44354">
        <ele>1692.218</ele>
        <time>2020-06-25T10:14:09Z</time>
      </trkpt>
      <trkpt lat="43.93724" lon="7.44354">
        <ele>1692.218</ele>
        <time>2020-06-25T10:14:24Z</time>
      </trkpt>
      <trkpt lat="43.93724" lon="7.44354">
        <ele>1692.218</ele>
        <time>2020-06-25T10:14:40Z</time>
      </trkpt>
      <trkpt lat="43.93724" lon="7.44354">
        <ele>1692.218</ele>
        <time>2020-06-25T10:14:55Z</time>
      </trkpt>
      <trkpt lat="43.93724" lon="7.44354">
        <ele>1692.218</ele>
        <time>2020-06-25T10:15:11Z</time>
      </trkpt>
      <trkpt lat="43.93724" lon="7.44354">
        <ele>1692.218</ele>
        <time>2020-06-25T10:15:27Z</time>
      </trkpt>
      <trkpt lat="43.93724" lon="7.44354">
        <ele>1692.218</ele>
        <time>2020-06-25T10:15:42Z</time>
      </trkpt>
      <trkpt lat="43.93724" lon="7.44354">
        <ele>1692.218</ele>
        <time>2020-06-25T10:15:58Z</time>
      </trkpt>
      <trkpt lat="43.93724" lon="7.44355">
        <ele>1692.128</ele>
        <time>2020-06-25T10:16:13Z</time>
      </trkpt>
      <trkpt lat="43.93724" lon="7.44355">
        <ele>1692.128</ele>
        <time>2020-06-25T10:16:29Z</time>
      </trkpt>
      <trkpt lat="43.93724" lon="7.44355">
        <ele>1692.128</ele>
        <time>2020-06-25T10:16:44Z</time>
      </trkpt>
      <trkpt lat="43.93724" lon="7.44355">
        <ele>1692.128</ele>
        <time>2020-06-25T10:16:59Z</time>
      </trkpt>
      <trkpt lat="43.93724" lon="7.44355">
        <ele>1692.128</ele>
        <time>2020-06-25T10:17:14Z</time>
      </trkpt>
      <trkpt lat="43.93724" lon="7.44355">
        <ele>1692.128</ele>
        <time>2020-06-25T10:17:30Z</time>
      </trkpt>
      <trkpt lat="43.93724" lon="7.44355">
        <ele>1692.128</ele>
        <time>2020-06-25T10:17:46Z</time>
      </trkpt>
      <trkpt lat="43.93724" lon="7.44355">
        <ele>1692.128</ele>
        <time>2020-06-25T10:18:02Z</time>
      </trkpt>
      <trkpt lat="43.93724" lon="7.44355">
        <ele>1692.128</ele>
        <time>2020-06-25T10:18:18Z</time>
      </trkpt>
      <trkpt lat="43.93724" lon="7.44355">
        <ele>1692.128</ele>
        <time>2020-06-25T10:18:33Z</time>
      </trkpt>
      <trkpt lat="43.93723" lon="7.44355">
        <ele>1692.13</ele>
        <time>2020-06-25T10:18:48Z</time>
      </trkpt>
      <trkpt lat="43.93722" lon="7.44355">
        <ele>1691.969</ele>
        <time>2020-06-25T10:19:03Z</time>
      </trkpt>
      <trkpt lat="43.93722" lon="7.44355">
        <ele>1691.969</ele>
        <time>2020-06-25T10:19:19Z</time>
      </trkpt>
      <trkpt lat="43.93722" lon="7.44355">
        <ele>1691.969</ele>
        <time>2020-06-25T10:19:35Z</time>
      </trkpt>
      <trkpt lat="43.93722" lon="7.44355">
        <ele>1691.969</ele>
        <time>2020-06-25T10:19:51Z</time>
      </trkpt>
      <trkpt lat="43.93722" lon="7.44355">
        <ele>1691.969</ele>
        <time>2020-06-25T10:20:06Z</time>
      </trkpt>
      <trkpt lat="43.93721" lon="7.44357">
        <ele>1691.107</ele>
        <time>2020-06-25T10:20:22Z</time>
      </trkpt>
      <trkpt lat="43.93721" lon="7.44357">
        <ele>1691.107</ele>
        <time>2020-06-25T10:20:37Z</time>
      </trkpt>
      <trkpt lat="43.93722" lon="7.44357">
        <ele>1691.572</ele>
        <time>2020-06-25T10:20:53Z</time>
      </trkpt>
      <trkpt lat="43.93722" lon="7.4436">
        <ele>1691.281</ele>
        <time>2020-06-25T10:21:08Z</time>
      </trkpt>
      <trkpt lat="43.93722" lon="7.4436">
        <ele>1691.281</ele>
        <time>2020-06-25T10:21:24Z</time>
      </trkpt>
      <trkpt lat="43.93722" lon="7.4436">
        <ele>1691.281</ele>
        <time>2020-06-25T10:21:40Z</time>
      </trkpt>
      <trkpt lat="43.93722" lon="7.4436">
        <ele>1691.281</ele>
        <time>2020-06-25T10:21:56Z</time>
      </trkpt>
      <trkpt lat="43.93722" lon="7.4436">
        <ele>1691.281</ele>
        <time>2020-06-25T10:22:12Z</time>
      </trkpt>
      <trkpt lat="43.93722" lon="7.4436">
        <ele>1691.281</ele>
        <time>2020-06-25T10:22:28Z</time>
      </trkpt>
      <trkpt lat="43.93722" lon="7.4436">
        <ele>1691.281</ele>
        <time>2020-06-25T10:22:43Z</time>
      </trkpt>
      <trkpt lat="43.93722" lon="7.4436">
        <ele>1691.281</ele>
        <time>2020-06-25T10:22:59Z</time>
      </trkpt>
      <trkpt lat="43.93722" lon="7.4436">
        <ele>1691.281</ele>
        <time>2020-06-25T10:23:15Z</time>
      </trkpt>
      <trkpt lat="43.93722" lon="7.4436">
        <ele>1691.281</ele>
        <time>2020-06-25T10:23:30Z</time>
      </trkpt>
      <trkpt lat="43.93722" lon="7.4436">
        <ele>1691.281</ele>
        <time>2020-06-25T10:23:46Z</time>
      </trkpt>
      <trkpt lat="43.93722" lon="7.4436">
        <ele>1691.281</ele>
        <time>2020-06-25T10:24:02Z</time>
      </trkpt>
      <trkpt lat="43.93722" lon="7.4436">
        <ele>1691.281</ele>
        <time>2020-06-25T10:24:17Z</time>
      </trkpt>
      <trkpt lat="43.93722" lon="7.4436">
        <ele>1691.281</ele>
        <time>2020-06-25T10:24:33Z</time>
      </trkpt>
      <trkpt lat="43.93722" lon="7.4436">
        <ele>1691.281</ele>
        <time>2020-06-25T10:24:49Z</time>
      </trkpt>
      <trkpt lat="43.93722" lon="7.4436">
        <ele>1691.281</ele>
        <time>2020-06-25T10:25:05Z</time>
      </trkpt>
      <trkpt lat="43.93722" lon="7.4436">
        <ele>1691.281</ele>
        <time>2020-06-25T10:25:21Z</time>
      </trkpt>
      <trkpt lat="43.93722" lon="7.4436">
        <ele>1691.281</ele>
        <time>2020-06-25T10:25:36Z</time>
      </trkpt>
      <trkpt lat="43.93722" lon="7.4436">
        <ele>1691.281</ele>
        <time>2020-06-25T10:25:52Z</time>
      </trkpt>
      <trkpt lat="43.93722" lon="7.4436">
        <ele>1691.281</ele>
        <time>2020-06-25T10:26:07Z</time>
      </trkpt>
      <trkpt lat="43.93722" lon="7.4436">
        <ele>1691.281</ele>
        <time>2020-06-25T10:26:23Z</time>
      </trkpt>
      <trkpt lat="43.93722" lon="7.4436">
        <ele>1691.281</ele>
        <time>2020-06-25T10:26:38Z</time>
      </trkpt>
      <trkpt lat="43.93722" lon="7.4436">
        <ele>1691.281</ele>
        <time>2020-06-25T10:26:54Z</time>
      </trkpt>
      <trkpt lat="43.93722" lon="7.4436">
        <ele>1691.281</ele>
        <time>2020-06-25T10:27:09Z</time>
      </trkpt>
      <trkpt lat="43.93722" lon="7.4436">
        <ele>1691.281</ele>
        <time>2020-06-25T10:27:25Z</time>
      </trkpt>
      <trkpt lat="43.93722" lon="7.4436">
        <ele>1691.281</ele>
        <time>2020-06-25T10:27:40Z</time>
      </trkpt>
      <trkpt lat="43.93722" lon="7.4436">
        <ele>1691.281</ele>
        <time>2020-06-25T10:27:56Z</time>
      </trkpt>
      <trkpt lat="43.93722" lon="7.4436">
        <ele>1691.281</ele>
        <time>2020-06-25T10:28:12Z</time>
      </trkpt>
      <trkpt lat="43.93722" lon="7.4436">
        <ele>1691.281</ele>
        <time>2020-06-25T10:28:28Z</time>
      </trkpt>
      <trkpt lat="43.93722" lon="7.4436">
        <ele>1691.281</ele>
        <time>2020-06-25T10:28:44Z</time>
      </trkpt>
      <trkpt lat="43.93722" lon="7.4436">
        <ele>1691.281</ele>
        <time>2020-06-25T10:28:59Z</time>
      </trkpt>
      <trkpt lat="43.93722" lon="7.4436">
        <ele>1691.281</ele>
        <time>2020-06-25T10:29:15Z</time>
      </trkpt>
      <trkpt lat="43.93722" lon="7.4436">
        <ele>1691.281</ele>
        <time>2020-06-25T10:29:31Z</time>
      </trkpt>
      <trkpt lat="43.93722" lon="7.4436">
        <ele>1691.281</ele>
        <time>2020-06-25T10:29:47Z</time>
      </trkpt>
      <trkpt lat="43.93722" lon="7.4436">
        <ele>1691.281</ele>
        <time>2020-06-25T10:30:03Z</time>
      </trkpt>
      <trkpt lat="43.93722" lon="7.4436">
        <ele>1691.281</ele>
        <time>2020-06-25T10:30:18Z</time>
      </trkpt>
      <trkpt lat="43.93722" lon="7.4436">
        <ele>1691.281</ele>
        <time>2020-06-25T10:30:34Z</time>
      </trkpt>
      <trkpt lat="43.93723" lon="7.44359">
        <ele>1690.486</ele>
        <time>2020-06-25T10:30:50Z</time>
      </trkpt>
      <trkpt lat="43.93723" lon="7.44359">
        <ele>1690.486</ele>
        <time>2020-06-25T10:31:06Z</time>
      </trkpt>
      <trkpt lat="43.93723" lon="7.44359">
        <ele>1690.486</ele>
        <time>2020-06-25T10:31:22Z</time>
      </trkpt>
      <trkpt lat="43.93723" lon="7.44359">
        <ele>1690.486</ele>
        <time>2020-06-25T10:31:38Z</time>
      </trkpt>
      <trkpt lat="43.93723" lon="7.44359">
        <ele>1690.486</ele>
        <time>2020-06-25T10:31:53Z</time>
      </trkpt>
      <trkpt lat="43.93723" lon="7.44359">
        <ele>1690.486</ele>
        <time>2020-06-25T10:32:08Z</time>
      </trkpt>
      <trkpt lat="43.93723" lon="7.44359">
        <ele>1690.486</ele>
        <time>2020-06-25T10:32:24Z</time>
      </trkpt>
      <trkpt lat="43.93723" lon="7.44359">
        <ele>1690.486</ele>
        <time>2020-06-25T10:32:40Z</time>
      </trkpt>
      <trkpt lat="43.93723" lon="7.44359">
        <ele>1690.486</ele>
        <time>2020-06-25T10:32:56Z</time>
      </trkpt>
      <trkpt lat="43.93723" lon="7.44359">
        <ele>1690.486</ele>
        <time>2020-06-25T10:33:12Z</time>
      </trkpt>
      <trkpt lat="43.93723" lon="7.44359">
        <ele>1690.486</ele>
        <time>2020-06-25T10:33:28Z</time>
      </trkpt>
      <trkpt lat="43.93723" lon="7.44359">
        <ele>1690.486</ele>
        <time>2020-06-25T10:33:43Z</time>
      </trkpt>
      <trkpt lat="43.93723" lon="7.44359">
        <ele>1690.486</ele>
        <time>2020-06-25T10:33:59Z</time>
      </trkpt>
      <trkpt lat="43.93723" lon="7.44359">
        <ele>1690.486</ele>
        <time>2020-06-25T10:34:15Z</time>
      </trkpt>
      <trkpt lat="43.93723" lon="7.44359">
        <ele>1690.486</ele>
        <time>2020-06-25T10:34:30Z</time>
      </trkpt>
      <trkpt lat="43.93723" lon="7.44359">
        <ele>1690.486</ele>
        <time>2020-06-25T10:34:45Z</time>
      </trkpt>
      <trkpt lat="43.93723" lon="7.44359">
        <ele>1690.486</ele>
        <time>2020-06-25T10:35:01Z</time>
      </trkpt>
      <trkpt lat="43.93723" lon="7.44359">
        <ele>1690.486</ele>
        <time>2020-06-25T10:35:16Z</time>
      </trkpt>
      <trkpt lat="43.93723" lon="7.44359">
        <ele>1690.486</ele>
        <time>2020-06-25T10:35:32Z</time>
      </trkpt>
      <trkpt lat="43.93723" lon="7.44359">
        <ele>1690.486</ele>
        <time>2020-06-25T10:35:48Z</time>
      </trkpt>
      <trkpt lat="43.93723" lon="7.44359">
        <ele>1690.486</ele>
        <time>2020-06-25T10:36:04Z</time>
      </trkpt>
      <trkpt lat="43.93723" lon="7.44359">
        <ele>1690.486</ele>
        <time>2020-06-25T10:36:19Z</time>
      </trkpt>
      <trkpt lat="43.93723" lon="7.44358">
        <ele>1690.671</ele>
        <time>2020-06-25T10:36:35Z</time>
      </trkpt>
      <trkpt lat="43.93723" lon="7.44358">
        <ele>1690.671</ele>
        <time>2020-06-25T10:36:50Z</time>
      </trkpt>
      <trkpt lat="43.93723" lon="7.44358">
        <ele>1690.671</ele>
        <time>2020-06-25T10:37:05Z</time>
      </trkpt>
      <trkpt lat="43.93723" lon="7.44358">
        <ele>1690.671</ele>
        <time>2020-06-25T10:37:21Z</time>
      </trkpt>
      <trkpt lat="43.93723" lon="7.44358">
        <ele>1690.671</ele>
        <time>2020-06-25T10:37:36Z</time>
      </trkpt>
      <trkpt lat="43.93723" lon="7.44358">
        <ele>1690.671</ele>
        <time>2020-06-25T10:37:52Z</time>
      </trkpt>
      <trkpt lat="43.93724" lon="7.44358">
        <ele>1687.938</ele>
        <time>2020-06-25T10:38:07Z</time>
      </trkpt>
      <trkpt lat="43.93724" lon="7.44358">
        <ele>1687.938</ele>
        <time>2020-06-25T10:38:23Z</time>
      </trkpt>
      <trkpt lat="43.93724" lon="7.44358">
        <ele>1687.938</ele>
        <time>2020-06-25T10:38:39Z</time>
      </trkpt>
      <trkpt lat="43.93724" lon="7.44357">
        <ele>1689.097</ele>
        <time>2020-06-25T10:38:54Z</time>
      </trkpt>
      <trkpt lat="43.93724" lon="7.44356">
        <ele>1690.852</ele>
        <time>2020-06-25T10:39:10Z</time>
      </trkpt>
      <trkpt lat="43.93726" lon="7.44358">
        <ele>1689.312</ele>
        <time>2020-06-25T10:39:26Z</time>
      </trkpt>
      <trkpt lat="43.93726" lon="7.44358">
        <ele>1689.312</ele>
        <time>2020-06-25T10:39:42Z</time>
      </trkpt>
      <trkpt lat="43.93726" lon="7.44356">
        <ele>1690.212</ele>
        <time>2020-06-25T10:39:57Z</time>
      </trkpt>
      <trkpt lat="43.93728" lon="7.44356">
        <ele>1690.437</ele>
        <time>2020-06-25T10:40:13Z</time>
      </trkpt>
      <trkpt lat="43.93728" lon="7.44356">
        <ele>1690.437</ele>
        <time>2020-06-25T10:40:28Z</time>
      </trkpt>
      <trkpt lat="43.93728" lon="7.44356">
        <ele>1690.437</ele>
        <time>2020-06-25T10:40:44Z</time>
      </trkpt>
      <trkpt lat="43.9373" lon="7.4436">
        <ele>1689.191</ele>
        <time>2020-06-25T10:41:00Z</time>
      </trkpt>
      <trkpt lat="43.93747" lon="7.44373">
        <ele>1688.133</ele>
        <time>2020-06-25T10:41:15Z</time>
      </trkpt>
      <trkpt lat="43.93759" lon="7.44382">
        <ele>1688.331</ele>
        <time>2020-06-25T10:41:30Z</time>
      </trkpt>
      <trkpt lat="43.93767" lon="7.44386">
        <ele>1689.516</ele>
        <time>2020-06-25T10:41:45Z</time>
      </trkpt>
      <trkpt lat="43.93778" lon="7.44396">
        <ele>1688.228</ele>
        <time>2020-06-25T10:42:01Z</time>
      </trkpt>
      <trkpt lat="43.93792" lon="7.44412">
        <ele>1692.007</ele>
        <time>2020-06-25T10:42:16Z</time>
      </trkpt>
      <trkpt lat="43.93803" lon="7.44441">
        <ele>1695.481</ele>
        <time>2020-06-25T10:42:32Z</time>
      </trkpt>
      <trkpt lat="43.93807" lon="7.44444">
        <ele>1696.103</ele>
        <time>2020-06-25T10:42:47Z</time>
      </trkpt>
      <trkpt lat="43.93811" lon="7.4445">
        <ele>1696.712</ele>
        <time>2020-06-25T10:43:02Z</time>
      </trkpt>
      <trkpt lat="43.93809" lon="7.44474">
        <ele>1696.415</ele>
        <time>2020-06-25T10:43:18Z</time>
      </trkpt>
      <trkpt lat="43.93817" lon="7.44487">
        <ele>1698.853</ele>
        <time>2020-06-25T10:43:33Z</time>
      </trkpt>
      <trkpt lat="43.93823" lon="7.44507">
        <ele>1697.863</ele>
        <time>2020-06-25T10:43:49Z</time>
      </trkpt>
      <trkpt lat="43.93827" lon="7.44519">
        <ele>1699.085</ele>
        <time>2020-06-25T10:44:05Z</time>
      </trkpt>
      <trkpt lat="43.93846" lon="7.44542">
        <ele>1701.414</ele>
        <time>2020-06-25T10:44:21Z</time>
      </trkpt>
      <trkpt lat="43.93853" lon="7.44568">
        <ele>1701.868</ele>
        <time>2020-06-25T10:44:36Z</time>
      </trkpt>
      <trkpt lat="43.93862" lon="7.44574">
        <ele>1705.403</ele>
        <time>2020-06-25T10:44:51Z</time>
      </trkpt>
      <trkpt lat="43.93874" lon="7.44582">
        <ele>1707.748</ele>
        <time>2020-06-25T10:45:06Z</time>
      </trkpt>
      <trkpt lat="43.93876" lon="7.44601">
        <ele>1710.116</ele>
        <time>2020-06-25T10:45:22Z</time>
      </trkpt>
      <trkpt lat="43.93897" lon="7.44618">
        <ele>1707.963</ele>
        <time>2020-06-25T10:45:38Z</time>
      </trkpt>
      <trkpt lat="43.93896" lon="7.44626">
        <ele>1708.545</ele>
        <time>2020-06-25T10:45:53Z</time>
      </trkpt>
      <trkpt lat="43.93915" lon="7.44645">
        <ele>1710.221</ele>
        <time>2020-06-25T10:46:09Z</time>
      </trkpt>
      <trkpt lat="43.93915" lon="7.44665">
        <ele>1710.695</ele>
        <time>2020-06-25T10:46:25Z</time>
      </trkpt>
      <trkpt lat="43.93916" lon="7.44664">
        <ele>1713.232</ele>
        <time>2020-06-25T10:46:40Z</time>
      </trkpt>
      <trkpt lat="43.93918" lon="7.44667">
        <ele>1711.746</ele>
        <time>2020-06-25T10:46:56Z</time>
      </trkpt>
      <trkpt lat="43.93931" lon="7.4468">
        <ele>1704.893</ele>
        <time>2020-06-25T10:47:12Z</time>
      </trkpt>
      <trkpt lat="43.93941" lon="7.44705">
        <ele>1696.032</ele>
        <time>2020-06-25T10:47:27Z</time>
      </trkpt>
      <trkpt lat="43.93956" lon="7.44715">
        <ele>1696.462</ele>
        <time>2020-06-25T10:47:43Z</time>
      </trkpt>
      <trkpt lat="43.93965" lon="7.44724">
        <ele>1695.311</ele>
        <time>2020-06-25T10:47:59Z</time>
      </trkpt>
      <trkpt lat="43.93967" lon="7.44726">
        <ele>1711.343</ele>
        <time>2020-06-25T10:48:15Z</time>
      </trkpt>
      <trkpt lat="43.93972" lon="7.44746">
        <ele>1713.555</ele>
        <time>2020-06-25T10:48:31Z</time>
      </trkpt>
      <trkpt lat="43.93964" lon="7.44773">
        <ele>1716.728</ele>
        <time>2020-06-25T10:48:47Z</time>
      </trkpt>
      <trkpt lat="43.93964" lon="7.44784">
        <ele>1717.565</ele>
        <time>2020-06-25T10:49:02Z</time>
      </trkpt>
      <trkpt lat="43.93946" lon="7.44804">
        <ele>1719.523</ele>
        <time>2020-06-25T10:49:17Z</time>
      </trkpt>
      <trkpt lat="43.93942" lon="7.44824">
        <ele>1721.33</ele>
        <time>2020-06-25T10:49:33Z</time>
      </trkpt>
      <trkpt lat="43.9393" lon="7.44845">
        <ele>1722.252</ele>
        <time>2020-06-25T10:49:49Z</time>
      </trkpt>
      <trkpt lat="43.93918" lon="7.44848">
        <ele>1721.974</ele>
        <time>2020-06-25T10:50:05Z</time>
      </trkpt>
      <trkpt lat="43.93912" lon="7.44856">
        <ele>1722.512</ele>
        <time>2020-06-25T10:50:20Z</time>
      </trkpt>
      <trkpt lat="43.93911" lon="7.4486">
        <ele>1722.488</ele>
        <time>2020-06-25T10:50:36Z</time>
      </trkpt>
      <trkpt lat="43.93911" lon="7.44882">
        <ele>1719.04</ele>
        <time>2020-06-25T10:50:51Z</time>
      </trkpt>
      <trkpt lat="43.93908" lon="7.44894">
        <ele>1719.162</ele>
        <time>2020-06-25T10:51:07Z</time>
      </trkpt>
      <trkpt lat="43.93905" lon="7.44899">
        <ele>1718.853</ele>
        <time>2020-06-25T10:51:22Z</time>
      </trkpt>
      <trkpt lat="43.939" lon="7.44906">
        <ele>1720.504</ele>
        <time>2020-06-25T10:51:37Z</time>
      </trkpt>
      <trkpt lat="43.93895" lon="7.44916">
        <ele>1723.872</ele>
        <time>2020-06-25T10:51:53Z</time>
      </trkpt>
      <trkpt lat="43.93883" lon="7.44936">
        <ele>1726.727</ele>
        <time>2020-06-25T10:52:08Z</time>
      </trkpt>
      <trkpt lat="43.93891" lon="7.44958">
        <ele>1726.901</ele>
        <time>2020-06-25T10:52:24Z</time>
      </trkpt>
      <trkpt lat="43.93897" lon="7.44987">
        <ele>1716.89</ele>
        <time>2020-06-25T10:52:39Z</time>
      </trkpt>
      <trkpt lat="43.93891" lon="7.45">
        <ele>1713.882</ele>
        <time>2020-06-25T10:52:55Z</time>
      </trkpt>
      <trkpt lat="43.93887" lon="7.45023">
        <ele>1714.652</ele>
        <time>2020-06-25T10:53:10Z</time>
      </trkpt>
      <trkpt lat="43.93871" lon="7.4505">
        <ele>1720.267</ele>
        <time>2020-06-25T10:53:26Z</time>
      </trkpt>
      <trkpt lat="43.93864" lon="7.45072">
        <ele>1723.721</ele>
        <time>2020-06-25T10:53:41Z</time>
      </trkpt>
      <trkpt lat="43.93868" lon="7.45093">
        <ele>1724.404</ele>
        <time>2020-06-25T10:53:57Z</time>
      </trkpt>
      <trkpt lat="43.93876" lon="7.45115">
        <ele>1726.25</ele>
        <time>2020-06-25T10:54:12Z</time>
      </trkpt>
      <trkpt lat="43.93872" lon="7.45123">
        <ele>1725.296</ele>
        <time>2020-06-25T10:54:27Z</time>
      </trkpt>
      <trkpt lat="43.93874" lon="7.45126">
        <ele>1726.111</ele>
        <time>2020-06-25T10:54:43Z</time>
      </trkpt>
      <trkpt lat="43.93888" lon="7.45173">
        <ele>1728.639</ele>
        <time>2020-06-25T10:54:59Z</time>
      </trkpt>
      <trkpt lat="43.93887" lon="7.45193">
        <ele>1726.078</ele>
        <time>2020-06-25T10:55:15Z</time>
      </trkpt>
      <trkpt lat="43.93888" lon="7.45195">
        <ele>1727.928</ele>
        <time>2020-06-25T10:55:31Z</time>
      </trkpt>
      <trkpt lat="43.93899" lon="7.45195">
        <ele>1733.801</ele>
        <time>2020-06-25T10:55:47Z</time>
      </trkpt>
      <trkpt lat="43.93912" lon="7.45191">
        <ele>1734.988</ele>
        <time>2020-06-25T10:56:03Z</time>
      </trkpt>
      <trkpt lat="43.9392" lon="7.45197">
        <ele>1736.512</ele>
        <time>2020-06-25T10:56:19Z</time>
      </trkpt>
      <trkpt lat="43.93929" lon="7.45226">
        <ele>1732.383</ele>
        <time>2020-06-25T10:56:34Z</time>
      </trkpt>
      <trkpt lat="43.93933" lon="7.45258">
        <ele>1729.651</ele>
        <time>2020-06-25T10:56:50Z</time>
      </trkpt>
      <trkpt lat="43.93939" lon="7.45267">
        <ele>1735.034</ele>
        <time>2020-06-25T10:57:06Z</time>
      </trkpt>
      <trkpt lat="43.93939" lon="7.45271">
        <ele>1734.732</ele>
        <time>2020-06-25T10:57:21Z</time>
      </trkpt>
      <trkpt lat="43.93938" lon="7.45284">
        <ele>1733.729</ele>
        <time>2020-06-25T10:57:36Z</time>
      </trkpt>
      <trkpt lat="43.93939" lon="7.4529">
        <ele>1732.708</ele>
        <time>2020-06-25T10:57:52Z</time>
      </trkpt>
      <trkpt lat="43.93942" lon="7.45304">
        <ele>1731.047</ele>
        <time>2020-06-25T10:58:08Z</time>
      </trkpt>
      <trkpt lat="43.9396" lon="7.45334">
        <ele>1733.908</ele>
        <time>2020-06-25T10:58:23Z</time>
      </trkpt>
      <trkpt lat="43.93963" lon="7.4534">
        <ele>1733.175</ele>
        <time>2020-06-25T10:58:38Z</time>
      </trkpt>
      <trkpt lat="43.93977" lon="7.45352">
        <ele>1733.411</ele>
        <time>2020-06-25T10:58:54Z</time>
      </trkpt>
      <trkpt lat="43.93993" lon="7.45355">
        <ele>1739.313</ele>
        <time>2020-06-25T10:59:10Z</time>
      </trkpt>
      <trkpt lat="43.94002" lon="7.45375">
        <ele>1734.946</ele>
        <time>2020-06-25T10:59:25Z</time>
      </trkpt>
      <trkpt lat="43.94022" lon="7.45365">
        <ele>1738.501</ele>
        <time>2020-06-25T10:59:41Z</time>
      </trkpt>
      <trkpt lat="43.94034" lon="7.45357">
        <ele>1744.18</ele>
        <time>2020-06-25T10:59:56Z</time>
      </trkpt>
      <trkpt lat="43.94044" lon="7.45372">
        <ele>1735.973</ele>
        <time>2020-06-25T11:00:12Z</time>
      </trkpt>
      <trkpt lat="43.94052" lon="7.4541">
        <ele>1732.623</ele>
        <time>2020-06-25T11:00:27Z</time>
      </trkpt>
      <trkpt lat="43.9405" lon="7.45414">
        <ele>1734.024</ele>
        <time>2020-06-25T11:00:42Z</time>
      </trkpt>
      <trkpt lat="43.94054" lon="7.45425">
        <ele>1737.923</ele>
        <time>2020-06-25T11:00:58Z</time>
      </trkpt>
      <trkpt lat="43.94074" lon="7.45451">
        <ele>1740.234</ele>
        <time>2020-06-25T11:01:14Z</time>
      </trkpt>
      <trkpt lat="43.94083" lon="7.45463">
        <ele>1739.353</ele>
        <time>2020-06-25T11:01:30Z</time>
      </trkpt>
      <trkpt lat="43.94084" lon="7.45464">
        <ele>1738.261</ele>
        <time>2020-06-25T11:01:46Z</time>
      </trkpt>
      <trkpt lat="43.94086" lon="7.45463">
        <ele>1740.024</ele>
        <time>2020-06-25T11:02:01Z</time>
      </trkpt>
      <trkpt lat="43.94096" lon="7.45466">
        <ele>1740.528</ele>
        <time>2020-06-25T11:02:16Z</time>
      </trkpt>
      <trkpt lat="43.94105" lon="7.45463">
        <ele>1741.5</ele>
        <time>2020-06-25T11:02:32Z</time>
      </trkpt>
      <trkpt lat="43.94122" lon="7.45468">
        <ele>1738.684</ele>
        <time>2020-06-25T11:02:48Z</time>
      </trkpt>
      <trkpt lat="43.94122" lon="7.45471">
        <ele>1740.763</ele>
        <time>2020-06-25T11:03:03Z</time>
      </trkpt>
      <trkpt lat="43.94137" lon="7.45481">
        <ele>1743.988</ele>
        <time>2020-06-25T11:03:19Z</time>
      </trkpt>
      <trkpt lat="43.94156" lon="7.45478">
        <ele>1740.922</ele>
        <time>2020-06-25T11:03:34Z</time>
      </trkpt>
      <trkpt lat="43.94176" lon="7.45481">
        <ele>1745.591</ele>
        <time>2020-06-25T11:03:50Z</time>
      </trkpt>
      <trkpt lat="43.94189" lon="7.45483">
        <ele>1745.02</ele>
        <time>2020-06-25T11:04:06Z</time>
      </trkpt>
      <trkpt lat="43.94202" lon="7.45479">
        <ele>1747.566</ele>
        <time>2020-06-25T11:04:21Z</time>
      </trkpt>
      <trkpt lat="43.94218" lon="7.45472">
        <ele>1748.645</ele>
        <time>2020-06-25T11:04:37Z</time>
      </trkpt>
      <trkpt lat="43.94234" lon="7.45467">
        <ele>1746.141</ele>
        <time>2020-06-25T11:04:53Z</time>
      </trkpt>
      <trkpt lat="43.94249" lon="7.45463">
        <ele>1745.789</ele>
        <time>2020-06-25T11:05:09Z</time>
      </trkpt>
      <trkpt lat="43.94249" lon="7.45467">
        <ele>1747.756</ele>
        <time>2020-06-25T11:05:24Z</time>
      </trkpt>
      <trkpt lat="43.94249" lon="7.45467">
        <ele>1747.756</ele>
        <time>2020-06-25T11:05:40Z</time>
      </trkpt>
      <trkpt lat="43.94248" lon="7.45468">
        <ele>1747.875</ele>
        <time>2020-06-25T11:05:56Z</time>
      </trkpt>
      <trkpt lat="43.94248" lon="7.45468">
        <ele>1747.875</ele>
        <time>2020-06-25T11:06:11Z</time>
      </trkpt>
      <trkpt lat="43.94248" lon="7.45468">
        <ele>1747.875</ele>
        <time>2020-06-25T11:06:27Z</time>
      </trkpt>
      <trkpt lat="43.94246" lon="7.45468">
        <ele>1747.149</ele>
        <time>2020-06-25T11:06:43Z</time>
      </trkpt>
      <trkpt lat="43.9425" lon="7.45485">
        <ele>1745.347</ele>
        <time>2020-06-25T11:06:59Z</time>
      </trkpt>
      <trkpt lat="43.94255" lon="7.45497">
        <ele>1747.571</ele>
        <time>2020-06-25T11:07:14Z</time>
      </trkpt>
      <trkpt lat="43.94262" lon="7.45516">
        <ele>1747.834</ele>
        <time>2020-06-25T11:07:29Z</time>
      </trkpt>
      <trkpt lat="43.94268" lon="7.45534">
        <ele>1749.596</ele>
        <time>2020-06-25T11:07:45Z</time>
      </trkpt>
      <trkpt lat="43.94283" lon="7.45545">
        <ele>1753.214</ele>
        <time>2020-06-25T11:08:00Z</time>
      </trkpt>
      <trkpt lat="43.94299" lon="7.45552">
        <ele>1757.86</ele>
        <time>2020-06-25T11:08:16Z</time>
      </trkpt>
      <trkpt lat="43.94307" lon="7.45571">
        <ele>1757.405</ele>
        <time>2020-06-25T11:08:32Z</time>
      </trkpt>
      <trkpt lat="43.94314" lon="7.45581">
        <ele>1755.822</ele>
        <time>2020-06-25T11:08:47Z</time>
      </trkpt>
      <trkpt lat="43.94324" lon="7.45588">
        <ele>1755.742</ele>
        <time>2020-06-25T11:09:03Z</time>
      </trkpt>
      <trkpt lat="43.94335" lon="7.45594">
        <ele>1752.412</ele>
        <time>2020-06-25T11:09:18Z</time>
      </trkpt>
      <trkpt lat="43.94347" lon="7.45597">
        <ele>1749.246</ele>
        <time>2020-06-25T11:09:33Z</time>
      </trkpt>
      <trkpt lat="43.94359" lon="7.45608">
        <ele>1744.079</ele>
        <time>2020-06-25T11:09:49Z</time>
      </trkpt>
      <trkpt lat="43.9437" lon="7.45613">
        <ele>1743.173</ele>
        <time>2020-06-25T11:10:04Z</time>
      </trkpt>
      <trkpt lat="43.9438" lon="7.45614">
        <ele>1745.228</ele>
        <time>2020-06-25T11:10:19Z</time>
      </trkpt>
      <trkpt lat="43.94389" lon="7.45621">
        <ele>1749.71</ele>
        <time>2020-06-25T11:10:35Z</time>
      </trkpt>
      <trkpt lat="43.94403" lon="7.45631">
        <ele>1751.836</ele>
        <time>2020-06-25T11:10:50Z</time>
      </trkpt>
      <trkpt lat="43.94413" lon="7.45636">
        <ele>1754.318</ele>
        <time>2020-06-25T11:11:06Z</time>
      </trkpt>
      <trkpt lat="43.94423" lon="7.45639">
        <ele>1756.849</ele>
        <time>2020-06-25T11:11:22Z</time>
      </trkpt>
      <trkpt lat="43.9444" lon="7.45641">
        <ele>1753.51</ele>
        <time>2020-06-25T11:11:37Z</time>
      </trkpt>
      <trkpt lat="43.94456" lon="7.45649">
        <ele>1750.64</ele>
        <time>2020-06-25T11:11:53Z</time>
      </trkpt>
      <trkpt lat="43.94468" lon="7.45651">
        <ele>1752.976</ele>
        <time>2020-06-25T11:12:09Z</time>
      </trkpt>
      <trkpt lat="43.94484" lon="7.45651">
        <ele>1753.505</ele>
        <time>2020-06-25T11:12:25Z</time>
      </trkpt>
      <trkpt lat="43.94498" lon="7.45661">
        <ele>1757.183</ele>
        <time>2020-06-25T11:12:41Z</time>
      </trkpt>
      <trkpt lat="43.9451" lon="7.45673">
        <ele>1760.169</ele>
        <time>2020-06-25T11:12:57Z</time>
      </trkpt>
      <trkpt lat="43.94523" lon="7.45679">
        <ele>1761.073</ele>
        <time>2020-06-25T11:13:13Z</time>
      </trkpt>
      <trkpt lat="43.94536" lon="7.45684">
        <ele>1758.868</ele>
        <time>2020-06-25T11:13:28Z</time>
      </trkpt>
      <trkpt lat="43.94552" lon="7.4568">
        <ele>1757.273</ele>
        <time>2020-06-25T11:13:44Z</time>
      </trkpt>
      <trkpt lat="43.94564" lon="7.45681">
        <ele>1760.116</ele>
        <time>2020-06-25T11:13:59Z</time>
      </trkpt>
      <trkpt lat="43.94577" lon="7.45684">
        <ele>1762.932</ele>
        <time>2020-06-25T11:14:15Z</time>
      </trkpt>
      <trkpt lat="43.94577" lon="7.45684">
        <ele>1763.488</ele>
        <time>2020-06-25T11:14:30Z</time>
      </trkpt>
      <trkpt lat="43.94577" lon="7.45684">
        <ele>1763.488</ele>
        <time>2020-06-25T11:14:46Z</time>
      </trkpt>
      <trkpt lat="43.94577" lon="7.45684">
        <ele>1763.488</ele>
        <time>2020-06-25T11:15:02Z</time>
      </trkpt>
      <trkpt lat="43.94579" lon="7.45683">
        <ele>1762.879</ele>
        <time>2020-06-25T11:15:17Z</time>
      </trkpt>
      <trkpt lat="43.9459" lon="7.4568">
        <ele>1760.221</ele>
        <time>2020-06-25T11:15:33Z</time>
      </trkpt>
      <trkpt lat="43.94609" lon="7.45678">
        <ele>1759.765</ele>
        <time>2020-06-25T11:15:49Z</time>
      </trkpt>
      <trkpt lat="43.94624" lon="7.45682">
        <ele>1758.316</ele>
        <time>2020-06-25T11:16:04Z</time>
      </trkpt>
      <trkpt lat="43.9464" lon="7.45684">
        <ele>1757.998</ele>
        <time>2020-06-25T11:16:20Z</time>
      </trkpt>
      <trkpt lat="43.94652" lon="7.45688">
        <ele>1757.048</ele>
        <time>2020-06-25T11:16:36Z</time>
      </trkpt>
      <trkpt lat="43.94665" lon="7.45681">
        <ele>1753.952</ele>
        <time>2020-06-25T11:16:52Z</time>
      </trkpt>
      <trkpt lat="43.94676" lon="7.45672">
        <ele>1757.786</ele>
        <time>2020-06-25T11:17:08Z</time>
      </trkpt>
      <trkpt lat="43.94691" lon="7.45659">
        <ele>1755.298</ele>
        <time>2020-06-25T11:17:24Z</time>
      </trkpt>
      <trkpt lat="43.94701" lon="7.45647">
        <ele>1751.326</ele>
        <time>2020-06-25T11:17:39Z</time>
      </trkpt>
      <trkpt lat="43.94717" lon="7.45635">
        <ele>1750.291</ele>
        <time>2020-06-25T11:17:55Z</time>
      </trkpt>
      <trkpt lat="43.94729" lon="7.45625">
        <ele>1751.722</ele>
        <time>2020-06-25T11:18:10Z</time>
      </trkpt>
      <trkpt lat="43.94733" lon="7.45623">
        <ele>1753.185</ele>
        <time>2020-06-25T11:18:26Z</time>
      </trkpt>
      <trkpt lat="43.94744" lon="7.45619">
        <ele>1754.366</ele>
        <time>2020-06-25T11:18:41Z</time>
      </trkpt>
      <trkpt lat="43.94755" lon="7.45621">
        <ele>1759.909</ele>
        <time>2020-06-25T11:18:57Z</time>
      </trkpt>
      <trkpt lat="43.9477" lon="7.45626">
        <ele>1761.572</ele>
        <time>2020-06-25T11:19:12Z</time>
      </trkpt>
      <trkpt lat="43.94787" lon="7.45637">
        <ele>1760.348</ele>
        <time>2020-06-25T11:19:28Z</time>
      </trkpt>
      <trkpt lat="43.948" lon="7.45647">
        <ele>1760.171</ele>
        <time>2020-06-25T11:19:44Z</time>
      </trkpt>
      <trkpt lat="43.94811" lon="7.45656">
        <ele>1760.36</ele>
        <time>2020-06-25T11:20:00Z</time>
      </trkpt>
      <trkpt lat="43.94824" lon="7.45651">
        <ele>1761.507</ele>
        <time>2020-06-25T11:20:16Z</time>
      </trkpt>
      <trkpt lat="43.94831" lon="7.45651">
        <ele>1759.32</ele>
        <time>2020-06-25T11:20:31Z</time>
      </trkpt>
      <trkpt lat="43.94843" lon="7.45641">
        <ele>1754.535</ele>
        <time>2020-06-25T11:20:46Z</time>
      </trkpt>
      <trkpt lat="43.94855" lon="7.45637">
        <ele>1749.7</ele>
        <time>2020-06-25T11:21:01Z</time>
      </trkpt>
      <trkpt lat="43.94855" lon="7.45637">
        <ele>1749.7</ele>
        <time>2020-06-25T11:21:17Z</time>
      </trkpt>
      <trkpt lat="43.94855" lon="7.45637">
        <ele>1749.7</ele>
        <time>2020-06-25T11:21:33Z</time>
      </trkpt>
      <trkpt lat="43.94869" lon="7.45637">
        <ele>1749.132</ele>
        <time>2020-06-25T11:21:48Z</time>
      </trkpt>
      <trkpt lat="43.9488" lon="7.45627">
        <ele>1754.375</ele>
        <time>2020-06-25T11:22:03Z</time>
      </trkpt>
      <trkpt lat="43.94892" lon="7.45619">
        <ele>1756.244</ele>
        <time>2020-06-25T11:22:19Z</time>
      </trkpt>
      <trkpt lat="43.94906" lon="7.45617">
        <ele>1757.393</ele>
        <time>2020-06-25T11:22:34Z</time>
      </trkpt>
      <trkpt lat="43.94921" lon="7.45613">
        <ele>1759.352</ele>
        <time>2020-06-25T11:22:50Z</time>
      </trkpt>
      <trkpt lat="43.9493" lon="7.456">
        <ele>1758.156</ele>
        <time>2020-06-25T11:23:05Z</time>
      </trkpt>
      <trkpt lat="43.94943" lon="7.45594">
        <ele>1758.02</ele>
        <time>2020-06-25T11:23:20Z</time>
      </trkpt>
      <trkpt lat="43.94954" lon="7.4558">
        <ele>1760.579</ele>
        <time>2020-06-25T11:23:36Z</time>
      </trkpt>
      <trkpt lat="43.94962" lon="7.45565">
        <ele>1761.639</ele>
        <time>2020-06-25T11:23:52Z</time>
      </trkpt>
      <trkpt lat="43.9497" lon="7.45566">
        <ele>1759.171</ele>
        <time>2020-06-25T11:24:08Z</time>
      </trkpt>
      <trkpt lat="43.94984" lon="7.45564">
        <ele>1757.658</ele>
        <time>2020-06-25T11:24:24Z</time>
      </trkpt>
      <trkpt lat="43.94996" lon="7.45557">
        <ele>1759.495</ele>
        <time>2020-06-25T11:24:39Z</time>
      </trkpt>
      <trkpt lat="43.95008" lon="7.45544">
        <ele>1768.928</ele>
        <time>2020-06-25T11:24:55Z</time>
      </trkpt>
      <trkpt lat="43.95013" lon="7.45548">
        <ele>1770.882</ele>
        <time>2020-06-25T11:25:11Z</time>
      </trkpt>
      <trkpt lat="43.95022" lon="7.45553">
        <ele>1773.008</ele>
        <time>2020-06-25T11:25:26Z</time>
      </trkpt>
      <trkpt lat="43.95029" lon="7.45557">
        <ele>1774.722</ele>
        <time>2020-06-25T11:25:42Z</time>
      </trkpt>
      <trkpt lat="43.95041" lon="7.45563">
        <ele>1775.2</ele>
        <time>2020-06-25T11:25:57Z</time>
      </trkpt>
      <trkpt lat="43.95051" lon="7.45562">
        <ele>1780.115</ele>
        <time>2020-06-25T11:26:12Z</time>
      </trkpt>
      <trkpt lat="43.95066" lon="7.45568">
        <ele>1781.513</ele>
        <time>2020-06-25T11:26:27Z</time>
      </trkpt>
      <trkpt lat="43.95076" lon="7.45566">
        <ele>1781.598</ele>
        <time>2020-06-25T11:26:43Z</time>
      </trkpt>
      <trkpt lat="43.95085" lon="7.45565">
        <ele>1783.304</ele>
        <time>2020-06-25T11:26:59Z</time>
      </trkpt>
      <trkpt lat="43.9509" lon="7.45563">
        <ele>1788.742</ele>
        <time>2020-06-25T11:27:14Z</time>
      </trkpt>
      <trkpt lat="43.95106" lon="7.45559">
        <ele>1791.323</ele>
        <time>2020-06-25T11:27:30Z</time>
      </trkpt>
      <trkpt lat="43.95117" lon="7.45555">
        <ele>1792.6</ele>
        <time>2020-06-25T11:27:46Z</time>
      </trkpt>
      <trkpt lat="43.95125" lon="7.45552">
        <ele>1791.197</ele>
        <time>2020-06-25T11:28:01Z</time>
      </trkpt>
      <trkpt lat="43.95138" lon="7.45553">
        <ele>1789.987</ele>
        <time>2020-06-25T11:28:17Z</time>
      </trkpt>
      <trkpt lat="43.9514" lon="7.4555">
        <ele>1791.35</ele>
        <time>2020-06-25T11:28:33Z</time>
      </trkpt>
      <trkpt lat="43.9514" lon="7.45549">
        <ele>1791.099</ele>
        <time>2020-06-25T11:28:48Z</time>
      </trkpt>
      <trkpt lat="43.95152" lon="7.45542">
        <ele>1792.197</ele>
        <time>2020-06-25T11:29:03Z</time>
      </trkpt>
      <trkpt lat="43.95163" lon="7.45531">
        <ele>1794.034</ele>
        <time>2020-06-25T11:29:19Z</time>
      </trkpt>
      <trkpt lat="43.95176" lon="7.45519">
        <ele>1793.967</ele>
        <time>2020-06-25T11:29:35Z</time>
      </trkpt>
      <trkpt lat="43.95182" lon="7.45515">
        <ele>1791.712</ele>
        <time>2020-06-25T11:29:50Z</time>
      </trkpt>
      <trkpt lat="43.95197" lon="7.45503">
        <ele>1789.126</ele>
        <time>2020-06-25T11:30:06Z</time>
      </trkpt>
      <trkpt lat="43.95207" lon="7.45488">
        <ele>1791.652</ele>
        <time>2020-06-25T11:30:21Z</time>
      </trkpt>
      <trkpt lat="43.95217" lon="7.45475">
        <ele>1795.965</ele>
        <time>2020-06-25T11:30:36Z</time>
      </trkpt>
      <trkpt lat="43.95223" lon="7.45465">
        <ele>1798.354</ele>
        <time>2020-06-25T11:30:51Z</time>
      </trkpt>
      <trkpt lat="43.95229" lon="7.45465">
        <ele>1800.948</ele>
        <time>2020-06-25T11:31:07Z</time>
      </trkpt>
      <trkpt lat="43.95237" lon="7.45466">
        <ele>1804.498</ele>
        <time>2020-06-25T11:31:22Z</time>
      </trkpt>
      <trkpt lat="43.95238" lon="7.45465">
        <ele>1805.294</ele>
        <time>2020-06-25T11:31:38Z</time>
      </trkpt>
      <trkpt lat="43.95237" lon="7.45465">
        <ele>1805.383</ele>
        <time>2020-06-25T11:31:54Z</time>
      </trkpt>
      <trkpt lat="43.95238" lon="7.45465">
        <ele>1805.327</ele>
        <time>2020-06-25T11:32:10Z</time>
      </trkpt>
      <trkpt lat="43.95238" lon="7.45465">
        <ele>1805.327</ele>
        <time>2020-06-25T11:32:26Z</time>
      </trkpt>
      <trkpt lat="43.95238" lon="7.45465">
        <ele>1805.327</ele>
        <time>2020-06-25T11:32:41Z</time>
      </trkpt>
      <trkpt lat="43.95238" lon="7.45461">
        <ele>1805.582</ele>
        <time>2020-06-25T11:32:57Z</time>
      </trkpt>
      <trkpt lat="43.95238" lon="7.45461">
        <ele>1805.582</ele>
        <time>2020-06-25T11:33:12Z</time>
      </trkpt>
      <trkpt lat="43.95238" lon="7.45461">
        <ele>1805.582</ele>
        <time>2020-06-25T11:33:28Z</time>
      </trkpt>
      <trkpt lat="43.95238" lon="7.45461">
        <ele>1805.582</ele>
        <time>2020-06-25T11:33:43Z</time>
      </trkpt>
      <trkpt lat="43.9524" lon="7.45459">
        <ele>1805.879</ele>
        <time>2020-06-25T11:33:58Z</time>
      </trkpt>
      <trkpt lat="43.95242" lon="7.45461">
        <ele>1805.78</ele>
        <time>2020-06-25T11:34:13Z</time>
      </trkpt>
      <trkpt lat="43.95252" lon="7.45448">
        <ele>1805.949</ele>
        <time>2020-06-25T11:34:29Z</time>
      </trkpt>
      <trkpt lat="43.95255" lon="7.45447">
        <ele>1805.69</ele>
        <time>2020-06-25T11:34:44Z</time>
      </trkpt>
      <trkpt lat="43.95258" lon="7.45449">
        <ele>1807.348</ele>
        <time>2020-06-25T11:35:00Z</time>
      </trkpt>
      <trkpt lat="43.95266" lon="7.45442">
        <ele>1805.056</ele>
        <time>2020-06-25T11:35:15Z</time>
      </trkpt>
      <trkpt lat="43.95273" lon="7.45436">
        <ele>1805.23</ele>
        <time>2020-06-25T11:35:30Z</time>
      </trkpt>
      <trkpt lat="43.95287" lon="7.45429">
        <ele>1804.629</ele>
        <time>2020-06-25T11:35:46Z</time>
      </trkpt>
      <trkpt lat="43.95303" lon="7.45416">
        <ele>1804.293</ele>
        <time>2020-06-25T11:36:02Z</time>
      </trkpt>
      <trkpt lat="43.95314" lon="7.45403">
        <ele>1805.505</ele>
        <time>2020-06-25T11:36:17Z</time>
      </trkpt>
      <trkpt lat="43.95329" lon="7.45401">
        <ele>1809.442</ele>
        <time>2020-06-25T11:36:33Z</time>
      </trkpt>
      <trkpt lat="43.95343" lon="7.45397">
        <ele>1811.62</ele>
        <time>2020-06-25T11:36:49Z</time>
      </trkpt>
      <trkpt lat="43.95353" lon="7.45394">
        <ele>1815.021</ele>
        <time>2020-06-25T11:37:04Z</time>
      </trkpt>
      <trkpt lat="43.95366" lon="7.45388">
        <ele>1815.425</ele>
        <time>2020-06-25T11:37:20Z</time>
      </trkpt>
      <trkpt lat="43.95385" lon="7.45388">
        <ele>1816.193</ele>
        <time>2020-06-25T11:37:36Z</time>
      </trkpt>
      <trkpt lat="43.95398" lon="7.45385">
        <ele>1817.816</ele>
        <time>2020-06-25T11:37:52Z</time>
      </trkpt>
      <trkpt lat="43.95407" lon="7.45384">
        <ele>1818.535</ele>
        <time>2020-06-25T11:38:08Z</time>
      </trkpt>
      <trkpt lat="43.95423" lon="7.45381">
        <ele>1816.31</ele>
        <time>2020-06-25T11:38:23Z</time>
      </trkpt>
      <trkpt lat="43.95436" lon="7.45379">
        <ele>1817.004</ele>
        <time>2020-06-25T11:38:39Z</time>
      </trkpt>
      <trkpt lat="43.95445" lon="7.45374">
        <ele>1821.819</ele>
        <time>2020-06-25T11:38:55Z</time>
      </trkpt>
      <trkpt lat="43.95461" lon="7.45371">
        <ele>1820.132</ele>
        <time>2020-06-25T11:39:10Z</time>
      </trkpt>
      <trkpt lat="43.95475" lon="7.45363">
        <ele>1815.511</ele>
        <time>2020-06-25T11:39:26Z</time>
      </trkpt>
      <trkpt lat="43.95495" lon="7.45358">
        <ele>1816.316</ele>
        <time>2020-06-25T11:39:42Z</time>
      </trkpt>
      <trkpt lat="43.95506" lon="7.45349">
        <ele>1812.738</ele>
        <time>2020-06-25T11:39:58Z</time>
      </trkpt>
      <trkpt lat="43.95521" lon="7.45344">
        <ele>1815.423</ele>
        <time>2020-06-25T11:40:14Z</time>
      </trkpt>
      <trkpt lat="43.9553" lon="7.45334">
        <ele>1814.002</ele>
        <time>2020-06-25T11:40:30Z</time>
      </trkpt>
      <trkpt lat="43.95541" lon="7.45318">
        <ele>1817.844</ele>
        <time>2020-06-25T11:40:45Z</time>
      </trkpt>
      <trkpt lat="43.95557" lon="7.45312">
        <ele>1819.599</ele>
        <time>2020-06-25T11:41:01Z</time>
      </trkpt>
      <trkpt lat="43.95566" lon="7.45302">
        <ele>1820.097</ele>
        <time>2020-06-25T11:41:17Z</time>
      </trkpt>
      <trkpt lat="43.95574" lon="7.4529">
        <ele>1820.307</ele>
        <time>2020-06-25T11:41:32Z</time>
      </trkpt>
      <trkpt lat="43.9558" lon="7.45283">
        <ele>1824.135</ele>
        <time>2020-06-25T11:41:48Z</time>
      </trkpt>
      <trkpt lat="43.9559" lon="7.45271">
        <ele>1825.995</ele>
        <time>2020-06-25T11:42:04Z</time>
      </trkpt>
      <trkpt lat="43.956" lon="7.4526">
        <ele>1825.46</ele>
        <time>2020-06-25T11:42:20Z</time>
      </trkpt>
      <trkpt lat="43.95611" lon="7.4525">
        <ele>1824.26</ele>
        <time>2020-06-25T11:42:36Z</time>
      </trkpt>
      <trkpt lat="43.95619" lon="7.45239">
        <ele>1827.401</ele>
        <time>2020-06-25T11:42:51Z</time>
      </trkpt>
      <trkpt lat="43.95626" lon="7.4523">
        <ele>1833.518</ele>
        <time>2020-06-25T11:43:07Z</time>
      </trkpt>
      <trkpt lat="43.95636" lon="7.45219">
        <ele>1835.472</ele>
        <time>2020-06-25T11:43:22Z</time>
      </trkpt>
      <trkpt lat="43.95645" lon="7.45207">
        <ele>1836.581</ele>
        <time>2020-06-25T11:43:37Z</time>
      </trkpt>
      <trkpt lat="43.95659" lon="7.45199">
        <ele>1836.255</ele>
        <time>2020-06-25T11:43:53Z</time>
      </trkpt>
      <trkpt lat="43.95671" lon="7.45193">
        <ele>1837.332</ele>
        <time>2020-06-25T11:44:09Z</time>
      </trkpt>
      <trkpt lat="43.95675" lon="7.45177">
        <ele>1840.942</ele>
        <time>2020-06-25T11:44:24Z</time>
      </trkpt>
      <trkpt lat="43.95686" lon="7.45165">
        <ele>1839.235</ele>
        <time>2020-06-25T11:44:40Z</time>
      </trkpt>
      <trkpt lat="43.95697" lon="7.45158">
        <ele>1839.007</ele>
        <time>2020-06-25T11:44:56Z</time>
      </trkpt>
      <trkpt lat="43.95708" lon="7.4515">
        <ele>1844.049</ele>
        <time>2020-06-25T11:45:11Z</time>
      </trkpt>
      <trkpt lat="43.95717" lon="7.45142">
        <ele>1843.035</ele>
        <time>2020-06-25T11:45:27Z</time>
      </trkpt>
      <trkpt lat="43.95723" lon="7.45131">
        <ele>1843.3</ele>
        <time>2020-06-25T11:45:43Z</time>
      </trkpt>
      <trkpt lat="43.95734" lon="7.45112">
        <ele>1841.971</ele>
        <time>2020-06-25T11:45:59Z</time>
      </trkpt>
      <trkpt lat="43.95744" lon="7.45101">
        <ele>1842.629</ele>
        <time>2020-06-25T11:46:15Z</time>
      </trkpt>
      <trkpt lat="43.95757" lon="7.45093">
        <ele>1845.706</ele>
        <time>2020-06-25T11:46:30Z</time>
      </trkpt>
      <trkpt lat="43.95763" lon="7.45083">
        <ele>1851.057</ele>
        <time>2020-06-25T11:46:45Z</time>
      </trkpt>
      <trkpt lat="43.9577" lon="7.45074">
        <ele>1856.264</ele>
        <time>2020-06-25T11:47:01Z</time>
      </trkpt>
      <trkpt lat="43.95781" lon="7.45068">
        <ele>1857.467</ele>
        <time>2020-06-25T11:47:17Z</time>
      </trkpt>
      <trkpt lat="43.95784" lon="7.45062">
        <ele>1859.197</ele>
        <time>2020-06-25T11:47:32Z</time>
      </trkpt>
      <trkpt lat="43.95795" lon="7.45054">
        <ele>1857.458</ele>
        <time>2020-06-25T11:47:48Z</time>
      </trkpt>
      <trkpt lat="43.95802" lon="7.4505">
        <ele>1858.635</ele>
        <time>2020-06-25T11:48:03Z</time>
      </trkpt>
      <trkpt lat="43.95802" lon="7.4505">
        <ele>1858.635</ele>
        <time>2020-06-25T11:48:19Z</time>
      </trkpt>
      <trkpt lat="43.95802" lon="7.4505">
        <ele>1858.635</ele>
        <time>2020-06-25T11:48:34Z</time>
      </trkpt>
      <trkpt lat="43.95802" lon="7.4505">
        <ele>1858.635</ele>
        <time>2020-06-25T11:48:50Z</time>
      </trkpt>
      <trkpt lat="43.95802" lon="7.4505">
        <ele>1858.843</ele>
        <time>2020-06-25T11:49:06Z</time>
      </trkpt>
      <trkpt lat="43.95802" lon="7.4505">
        <ele>1858.843</ele>
        <time>2020-06-25T11:49:22Z</time>
      </trkpt>
      <trkpt lat="43.95802" lon="7.4505">
        <ele>1858.843</ele>
        <time>2020-06-25T11:49:38Z</time>
      </trkpt>
      <trkpt lat="43.95802" lon="7.4505">
        <ele>1858.843</ele>
        <time>2020-06-25T11:49:53Z</time>
      </trkpt>
      <trkpt lat="43.95802" lon="7.4505">
        <ele>1858.843</ele>
        <time>2020-06-25T11:50:08Z</time>
      </trkpt>
      <trkpt lat="43.95802" lon="7.4505">
        <ele>1858.843</ele>
        <time>2020-06-25T11:50:24Z</time>
      </trkpt>
      <trkpt lat="43.95802" lon="7.4505">
        <ele>1858.843</ele>
        <time>2020-06-25T11:50:40Z</time>
      </trkpt>
      <trkpt lat="43.95802" lon="7.4505">
        <ele>1858.843</ele>
        <time>2020-06-25T11:50:55Z</time>
      </trkpt>
      <trkpt lat="43.95802" lon="7.4505">
        <ele>1858.843</ele>
        <time>2020-06-25T11:51:10Z</time>
      </trkpt>
      <trkpt lat="43.95802" lon="7.4505">
        <ele>1858.843</ele>
        <time>2020-06-25T11:51:26Z</time>
      </trkpt>
      <trkpt lat="43.95802" lon="7.4505">
        <ele>1858.843</ele>
        <time>2020-06-25T11:51:41Z</time>
      </trkpt>
      <trkpt lat="43.95802" lon="7.4505">
        <ele>1858.843</ele>
        <time>2020-06-25T11:51:57Z</time>
      </trkpt>
      <trkpt lat="43.95802" lon="7.4505">
        <ele>1858.843</ele>
        <time>2020-06-25T11:52:13Z</time>
      </trkpt>
      <trkpt lat="43.95802" lon="7.4505">
        <ele>1858.843</ele>
        <time>2020-06-25T11:52:28Z</time>
      </trkpt>
      <trkpt lat="43.95804" lon="7.45049">
        <ele>1860.345</ele>
        <time>2020-06-25T11:52:43Z</time>
      </trkpt>
      <trkpt lat="43.95814" lon="7.45044">
        <ele>1860.75</ele>
        <time>2020-06-25T11:52:59Z</time>
      </trkpt>
      <trkpt lat="43.95827" lon="7.45035">
        <ele>1855.908</ele>
        <time>2020-06-25T11:53:14Z</time>
      </trkpt>
      <trkpt lat="43.9583" lon="7.45031">
        <ele>1858.242</ele>
        <time>2020-06-25T11:53:29Z</time>
      </trkpt>
      <trkpt lat="43.9584" lon="7.45025">
        <ele>1859.218</ele>
        <time>2020-06-25T11:53:45Z</time>
      </trkpt>
      <trkpt lat="43.9584" lon="7.45025">
        <ele>1859.297</ele>
        <time>2020-06-25T11:54:00Z</time>
      </trkpt>
      <trkpt lat="43.95851" lon="7.45014">
        <ele>1862.51</ele>
        <time>2020-06-25T11:54:16Z</time>
      </trkpt>
      <trkpt lat="43.95856" lon="7.45011">
        <ele>1865.121</ele>
        <time>2020-06-25T11:54:31Z</time>
      </trkpt>
      <trkpt lat="43.95856" lon="7.45011">
        <ele>1865.121</ele>
        <time>2020-06-25T11:54:46Z</time>
      </trkpt>
      <trkpt lat="43.95856" lon="7.45011">
        <ele>1865.121</ele>
        <time>2020-06-25T11:55:01Z</time>
      </trkpt>
      <trkpt lat="43.95856" lon="7.45011">
        <ele>1865.121</ele>
        <time>2020-06-25T11:55:17Z</time>
      </trkpt>
      <trkpt lat="43.95856" lon="7.45011">
        <ele>1865.121</ele>
        <time>2020-06-25T11:55:33Z</time>
      </trkpt>
      <trkpt lat="43.95856" lon="7.45011">
        <ele>1865.121</ele>
        <time>2020-06-25T11:55:48Z</time>
      </trkpt>
      <trkpt lat="43.95871" lon="7.45009">
        <ele>1865.338</ele>
        <time>2020-06-25T11:56:04Z</time>
      </trkpt>
      <trkpt lat="43.95895" lon="7.45005">
        <ele>1862.834</ele>
        <time>2020-06-25T11:56:20Z</time>
      </trkpt>
      <trkpt lat="43.95908" lon="7.45001">
        <ele>1862.776</ele>
        <time>2020-06-25T11:56:36Z</time>
      </trkpt>
      <trkpt lat="43.95927" lon="7.44992">
        <ele>1855.768</ele>
        <time>2020-06-25T11:56:52Z</time>
      </trkpt>
      <trkpt lat="43.95941" lon="7.44988">
        <ele>1853.675</ele>
        <time>2020-06-25T11:57:07Z</time>
      </trkpt>
      <trkpt lat="43.95956" lon="7.44985">
        <ele>1858.48</ele>
        <time>2020-06-25T11:57:23Z</time>
      </trkpt>
      <trkpt lat="43.95964" lon="7.44981">
        <ele>1861.926</ele>
        <time>2020-06-25T11:57:38Z</time>
      </trkpt>
      <trkpt lat="43.95982" lon="7.44979">
        <ele>1865.238</ele>
        <time>2020-06-25T11:57:54Z</time>
      </trkpt>
      <trkpt lat="43.95997" lon="7.4497">
        <ele>1868.089</ele>
        <time>2020-06-25T11:58:10Z</time>
      </trkpt>
      <trkpt lat="43.96009" lon="7.44965">
        <ele>1867.657</ele>
        <time>2020-06-25T11:58:25Z</time>
      </trkpt>
      <trkpt lat="43.9603" lon="7.44963">
        <ele>1869.867</ele>
        <time>2020-06-25T11:58:41Z</time>
      </trkpt>
      <trkpt lat="43.9604" lon="7.44961">
        <ele>1874.773</ele>
        <time>2020-06-25T11:58:56Z</time>
      </trkpt>
      <trkpt lat="43.96046" lon="7.44963">
        <ele>1877.06</ele>
        <time>2020-06-25T11:59:12Z</time>
      </trkpt>
      <trkpt lat="43.96063" lon="7.44969">
        <ele>1876.027</ele>
        <time>2020-06-25T11:59:28Z</time>
      </trkpt>
      <trkpt lat="43.96077" lon="7.44972">
        <ele>1880.539</ele>
        <time>2020-06-25T11:59:44Z</time>
      </trkpt>
      <trkpt lat="43.96086" lon="7.44975">
        <ele>1878.832</ele>
        <time>2020-06-25T11:59:59Z</time>
      </trkpt>
      <trkpt lat="43.96107" lon="7.4497">
        <ele>1877.133</ele>
        <time>2020-06-25T12:00:15Z</time>
      </trkpt>
      <trkpt lat="43.96111" lon="7.44976">
        <ele>1878.799</ele>
        <time>2020-06-25T12:00:30Z</time>
      </trkpt>
      <trkpt lat="43.96123" lon="7.44984">
        <ele>1886.585</ele>
        <time>2020-06-25T12:00:46Z</time>
      </trkpt>
      <trkpt lat="43.96126" lon="7.44985">
        <ele>1888.444</ele>
        <time>2020-06-25T12:01:02Z</time>
      </trkpt>
      <trkpt lat="43.96122" lon="7.44983">
        <ele>1889.383</ele>
        <time>2020-06-25T12:01:18Z</time>
      </trkpt>
      <trkpt lat="43.96135" lon="7.44986">
        <ele>1887.817</ele>
        <time>2020-06-25T12:01:33Z</time>
      </trkpt>
      <trkpt lat="43.96158" lon="7.44992">
        <ele>1884.4</ele>
        <time>2020-06-25T12:01:49Z</time>
      </trkpt>
      <trkpt lat="43.96169" lon="7.44997">
        <ele>1887.031</ele>
        <time>2020-06-25T12:02:04Z</time>
      </trkpt>
      <trkpt lat="43.96187" lon="7.45002">
        <ele>1881.371</ele>
        <time>2020-06-25T12:02:19Z</time>
      </trkpt>
      <trkpt lat="43.96203" lon="7.45">
        <ele>1878.795</ele>
        <time>2020-06-25T12:02:35Z</time>
      </trkpt>
      <trkpt lat="43.96213" lon="7.44992">
        <ele>1881.339</ele>
        <time>2020-06-25T12:02:50Z</time>
      </trkpt>
      <trkpt lat="43.96223" lon="7.44986">
        <ele>1880.966</ele>
        <time>2020-06-25T12:03:06Z</time>
      </trkpt>
      <trkpt lat="43.96244" lon="7.44987">
        <ele>1877.86</ele>
        <time>2020-06-25T12:03:22Z</time>
      </trkpt>
      <trkpt lat="43.96259" lon="7.44986">
        <ele>1879.926</ele>
        <time>2020-06-25T12:03:38Z</time>
      </trkpt>
      <trkpt lat="43.96271" lon="7.44994">
        <ele>1892.376</ele>
        <time>2020-06-25T12:03:54Z</time>
      </trkpt>
      <trkpt lat="43.96278" lon="7.44986">
        <ele>1897.352</ele>
        <time>2020-06-25T12:04:09Z</time>
      </trkpt>
      <trkpt lat="43.9629" lon="7.44982">
        <ele>1905.057</ele>
        <time>2020-06-25T12:04:25Z</time>
      </trkpt>
      <trkpt lat="43.96292" lon="7.44983">
        <ele>1906.358</ele>
        <time>2020-06-25T12:04:41Z</time>
      </trkpt>
      <trkpt lat="43.96298" lon="7.44977">
        <ele>1910.445</ele>
        <time>2020-06-25T12:04:56Z</time>
      </trkpt>
      <trkpt lat="43.96304" lon="7.44959">
        <ele>1912.355</ele>
        <time>2020-06-25T12:05:12Z</time>
      </trkpt>
      <trkpt lat="43.96312" lon="7.44956">
        <ele>1912.88</ele>
        <time>2020-06-25T12:05:27Z</time>
      </trkpt>
      <trkpt lat="43.96312" lon="7.44953">
        <ele>1912.313</ele>
        <time>2020-06-25T12:05:43Z</time>
      </trkpt>
      <trkpt lat="43.96311" lon="7.44954">
        <ele>1911.637</ele>
        <time>2020-06-25T12:05:58Z</time>
      </trkpt>
      <trkpt lat="43.96304" lon="7.44947">
        <ele>1913.005</ele>
        <time>2020-06-25T12:06:13Z</time>
      </trkpt>
      <trkpt lat="43.96304" lon="7.44947">
        <ele>1913.005</ele>
        <time>2020-06-25T12:06:28Z</time>
      </trkpt>
      <trkpt lat="43.96304" lon="7.44947">
        <ele>1913.005</ele>
        <time>2020-06-25T12:06:44Z</time>
      </trkpt>
      <trkpt lat="43.96304" lon="7.44947">
        <ele>1913.005</ele>
        <time>2020-06-25T12:06:59Z</time>
      </trkpt>
      <trkpt lat="43.96311" lon="7.44948">
        <ele>1911.406</ele>
        <time>2020-06-25T12:07:15Z</time>
      </trkpt>
      <trkpt lat="43.96334" lon="7.44941">
        <ele>1911.798</ele>
        <time>2020-06-25T12:07:31Z</time>
      </trkpt>
      <trkpt lat="43.9635" lon="7.44929">
        <ele>1912.677</ele>
        <time>2020-06-25T12:07:46Z</time>
      </trkpt>
      <trkpt lat="43.96368" lon="7.44914">
        <ele>1915</ele>
        <time>2020-06-25T12:08:02Z</time>
      </trkpt>
      <trkpt lat="43.9638" lon="7.44898">
        <ele>1913.993</ele>
        <time>2020-06-25T12:08:18Z</time>
      </trkpt>
      <trkpt lat="43.96388" lon="7.44894">
        <ele>1912.244</ele>
        <time>2020-06-25T12:08:34Z</time>
      </trkpt>
      <trkpt lat="43.96404" lon="7.44886">
        <ele>1914.075</ele>
        <time>2020-06-25T12:08:50Z</time>
      </trkpt>
      <trkpt lat="43.96416" lon="7.44884">
        <ele>1916.143</ele>
        <time>2020-06-25T12:09:06Z</time>
      </trkpt>
      <trkpt lat="43.96428" lon="7.4488">
        <ele>1916.391</ele>
        <time>2020-06-25T12:09:22Z</time>
      </trkpt>
      <trkpt lat="43.96439" lon="7.44877">
        <ele>1920.429</ele>
        <time>2020-06-25T12:09:38Z</time>
      </trkpt>
      <trkpt lat="43.96452" lon="7.44866">
        <ele>1925.805</ele>
        <time>2020-06-25T12:09:54Z</time>
      </trkpt>
      <trkpt lat="43.96462" lon="7.44863">
        <ele>1928.276</ele>
        <time>2020-06-25T12:10:10Z</time>
      </trkpt>
      <trkpt lat="43.96475" lon="7.44854">
        <ele>1931.436</ele>
        <time>2020-06-25T12:10:26Z</time>
      </trkpt>
      <trkpt lat="43.96489" lon="7.44839">
        <ele>1934.969</ele>
        <time>2020-06-25T12:10:41Z</time>
      </trkpt>
      <trkpt lat="43.96496" lon="7.44831">
        <ele>1937.079</ele>
        <time>2020-06-25T12:10:57Z</time>
      </trkpt>
      <trkpt lat="43.96505" lon="7.44832">
        <ele>1933.077</ele>
        <time>2020-06-25T12:11:13Z</time>
      </trkpt>
      <trkpt lat="43.9651" lon="7.44827">
        <ele>1926.903</ele>
        <time>2020-06-25T12:11:28Z</time>
      </trkpt>
      <trkpt lat="43.96514" lon="7.44824">
        <ele>1923.955</ele>
        <time>2020-06-25T12:11:44Z</time>
      </trkpt>
      <trkpt lat="43.96527" lon="7.44816">
        <ele>1923.674</ele>
        <time>2020-06-25T12:12:00Z</time>
      </trkpt>
      <trkpt lat="43.96542" lon="7.44807">
        <ele>1926.316</ele>
        <time>2020-06-25T12:12:16Z</time>
      </trkpt>
      <trkpt lat="43.96554" lon="7.44801">
        <ele>1929.063</ele>
        <time>2020-06-25T12:12:31Z</time>
      </trkpt>
      <trkpt lat="43.96568" lon="7.44798">
        <ele>1931.291</ele>
        <time>2020-06-25T12:12:47Z</time>
      </trkpt>
      <trkpt lat="43.96572" lon="7.44795">
        <ele>1933.646</ele>
        <time>2020-06-25T12:13:03Z</time>
      </trkpt>
      <trkpt lat="43.96582" lon="7.44796">
        <ele>1938.578</ele>
        <time>2020-06-25T12:13:19Z</time>
      </trkpt>
      <trkpt lat="43.96589" lon="7.44792">
        <ele>1938.444</ele>
        <time>2020-06-25T12:13:34Z</time>
      </trkpt>
      <trkpt lat="43.96605" lon="7.44786">
        <ele>1937.752</ele>
        <time>2020-06-25T12:13:49Z</time>
      </trkpt>
      <trkpt lat="43.9662" lon="7.44783">
        <ele>1937.405</ele>
        <time>2020-06-25T12:14:05Z</time>
      </trkpt>
      <trkpt lat="43.9663" lon="7.44777">
        <ele>1939.651</ele>
        <time>2020-06-25T12:14:20Z</time>
      </trkpt>
      <trkpt lat="43.96644" lon="7.44777">
        <ele>1938.49</ele>
        <time>2020-06-25T12:14:36Z</time>
      </trkpt>
      <trkpt lat="43.96656" lon="7.44774">
        <ele>1941.318</ele>
        <time>2020-06-25T12:14:52Z</time>
      </trkpt>
      <trkpt lat="43.96672" lon="7.4477">
        <ele>1944.265</ele>
        <time>2020-06-25T12:15:08Z</time>
      </trkpt>
      <trkpt lat="43.96687" lon="7.44768">
        <ele>1947.316</ele>
        <time>2020-06-25T12:15:23Z</time>
      </trkpt>
      <trkpt lat="43.96698" lon="7.44772">
        <ele>1950.491</ele>
        <time>2020-06-25T12:15:39Z</time>
      </trkpt>
      <trkpt lat="43.96708" lon="7.44771">
        <ele>1951.924</ele>
        <time>2020-06-25T12:15:54Z</time>
      </trkpt>
      <trkpt lat="43.96725" lon="7.44773">
        <ele>1956.879</ele>
        <time>2020-06-25T12:16:10Z</time>
      </trkpt>
      <trkpt lat="43.96732" lon="7.44767">
        <ele>1957.49</ele>
        <time>2020-06-25T12:16:25Z</time>
      </trkpt>
      <trkpt lat="43.96746" lon="7.44759">
        <ele>1952.824</ele>
        <time>2020-06-25T12:16:41Z</time>
      </trkpt>
      <trkpt lat="43.96761" lon="7.44758">
        <ele>1953.482</ele>
        <time>2020-06-25T12:16:56Z</time>
      </trkpt>
      <trkpt lat="43.96778" lon="7.44752">
        <ele>1950.677</ele>
        <time>2020-06-25T12:17:12Z</time>
      </trkpt>
      <trkpt lat="43.96789" lon="7.44751">
        <ele>1957.337</ele>
        <time>2020-06-25T12:17:28Z</time>
      </trkpt>
      <trkpt lat="43.96802" lon="7.44746">
        <ele>1959.332</ele>
        <time>2020-06-25T12:17:43Z</time>
      </trkpt>
      <trkpt lat="43.96808" lon="7.44745">
        <ele>1959.254</ele>
        <time>2020-06-25T12:17:58Z</time>
      </trkpt>
      <trkpt lat="43.96823" lon="7.44741">
        <ele>1961.42</ele>
        <time>2020-06-25T12:18:13Z</time>
      </trkpt>
      <trkpt lat="43.96844" lon="7.44735">
        <ele>1962.714</ele>
        <time>2020-06-25T12:18:28Z</time>
      </trkpt>
      <trkpt lat="43.96858" lon="7.44728">
        <ele>1960.46</ele>
        <time>2020-06-25T12:18:44Z</time>
      </trkpt>
      <trkpt lat="43.96871" lon="7.44731">
        <ele>1959.183</ele>
        <time>2020-06-25T12:18:59Z</time>
      </trkpt>
      <trkpt lat="43.96895" lon="7.44723">
        <ele>1956.308</ele>
        <time>2020-06-25T12:19:15Z</time>
      </trkpt>
      <trkpt lat="43.96907" lon="7.44713">
        <ele>1957.701</ele>
        <time>2020-06-25T12:19:30Z</time>
      </trkpt>
      <trkpt lat="43.96932" lon="7.44703">
        <ele>1959.368</ele>
        <time>2020-06-25T12:19:46Z</time>
      </trkpt>
      <trkpt lat="43.96947" lon="7.44699">
        <ele>1962.737</ele>
        <time>2020-06-25T12:20:02Z</time>
      </trkpt>
      <trkpt lat="43.96968" lon="7.4469">
        <ele>1968.678</ele>
        <time>2020-06-25T12:20:17Z</time>
      </trkpt>
      <trkpt lat="43.96987" lon="7.44701">
        <ele>1972.108</ele>
        <time>2020-06-25T12:20:32Z</time>
      </trkpt>
      <trkpt lat="43.96998" lon="7.44711">
        <ele>1974.391</ele>
        <time>2020-06-25T12:20:48Z</time>
      </trkpt>
      <trkpt lat="43.97015" lon="7.44715">
        <ele>1968.297</ele>
        <time>2020-06-25T12:21:03Z</time>
      </trkpt>
      <trkpt lat="43.97026" lon="7.44727">
        <ele>1966.844</ele>
        <time>2020-06-25T12:21:18Z</time>
      </trkpt>
      <trkpt lat="43.97043" lon="7.44733">
        <ele>1967.648</ele>
        <time>2020-06-25T12:21:34Z</time>
      </trkpt>
      <trkpt lat="43.97053" lon="7.4474">
        <ele>1967.057</ele>
        <time>2020-06-25T12:21:50Z</time>
      </trkpt>
      <trkpt lat="43.97074" lon="7.44748">
        <ele>1968.937</ele>
        <time>2020-06-25T12:22:06Z</time>
      </trkpt>
      <trkpt lat="43.97085" lon="7.44767">
        <ele>1969.511</ele>
        <time>2020-06-25T12:22:21Z</time>
      </trkpt>
      <trkpt lat="43.97107" lon="7.4478">
        <ele>1973.429</ele>
        <time>2020-06-25T12:22:36Z</time>
      </trkpt>
      <trkpt lat="43.97128" lon="7.44789">
        <ele>1981.33</ele>
        <time>2020-06-25T12:22:52Z</time>
      </trkpt>
      <trkpt lat="43.97139" lon="7.44798">
        <ele>1978.042</ele>
        <time>2020-06-25T12:23:07Z</time>
      </trkpt>
      <trkpt lat="43.97154" lon="7.44808">
        <ele>1970.41</ele>
        <time>2020-06-25T12:23:23Z</time>
      </trkpt>
      <trkpt lat="43.9717" lon="7.44819">
        <ele>1964.208</ele>
        <time>2020-06-25T12:23:39Z</time>
      </trkpt>
      <trkpt lat="43.97189" lon="7.44828">
        <ele>1966.295</ele>
        <time>2020-06-25T12:23:55Z</time>
      </trkpt>
      <trkpt lat="43.97208" lon="7.44836">
        <ele>1955.412</ele>
        <time>2020-06-25T12:24:10Z</time>
      </trkpt>
      <trkpt lat="43.97227" lon="7.44832">
        <ele>1949.934</ele>
        <time>2020-06-25T12:24:25Z</time>
      </trkpt>
      <trkpt lat="43.97234" lon="7.44838">
        <ele>1950.49</ele>
        <time>2020-06-25T12:24:41Z</time>
      </trkpt>
      <trkpt lat="43.97248" lon="7.44847">
        <ele>1944.46</ele>
        <time>2020-06-25T12:24:56Z</time>
      </trkpt>
      <trkpt lat="43.97282" lon="7.44864">
        <ele>1945.174</ele>
        <time>2020-06-25T12:25:12Z</time>
      </trkpt>
      <trkpt lat="43.97286" lon="7.44875">
        <ele>1942.667</ele>
        <time>2020-06-25T12:25:27Z</time>
      </trkpt>
      <trkpt lat="43.97302" lon="7.44891">
        <ele>1939.93</ele>
        <time>2020-06-25T12:25:43Z</time>
      </trkpt>
      <trkpt lat="43.97321" lon="7.44893">
        <ele>1933.995</ele>
        <time>2020-06-25T12:25:59Z</time>
      </trkpt>
      <trkpt lat="43.97327" lon="7.44883">
        <ele>1931.7</ele>
        <time>2020-06-25T12:26:14Z</time>
      </trkpt>
      <trkpt lat="43.97328" lon="7.44871">
        <ele>1932.034</ele>
        <time>2020-06-25T12:26:29Z</time>
      </trkpt>
      <trkpt lat="43.97328" lon="7.44871">
        <ele>1932.034</ele>
        <time>2020-06-25T12:26:45Z</time>
      </trkpt>
      <trkpt lat="43.97329" lon="7.4487">
        <ele>1931.808</ele>
        <time>2020-06-25T12:27:00Z</time>
      </trkpt>
      <trkpt lat="43.97334" lon="7.44842">
        <ele>1935.612</ele>
        <time>2020-06-25T12:27:16Z</time>
      </trkpt>
      <trkpt lat="43.97334" lon="7.44842">
        <ele>1935.71</ele>
        <time>2020-06-25T12:27:32Z</time>
      </trkpt>
      <trkpt lat="43.97334" lon="7.44842">
        <ele>1935.71</ele>
        <time>2020-06-25T12:27:48Z</time>
      </trkpt>
      <trkpt lat="43.97339" lon="7.44837">
        <ele>1936.092</ele>
        <time>2020-06-25T12:28:04Z</time>
      </trkpt>
      <trkpt lat="43.97357" lon="7.44823">
        <ele>1934.699</ele>
        <time>2020-06-25T12:28:20Z</time>
      </trkpt>
      <trkpt lat="43.97371" lon="7.44807">
        <ele>1929.039</ele>
        <time>2020-06-25T12:28:36Z</time>
      </trkpt>
      <trkpt lat="43.97384" lon="7.44795">
        <ele>1926.612</ele>
        <time>2020-06-25T12:28:51Z</time>
      </trkpt>
      <trkpt lat="43.97398" lon="7.44775">
        <ele>1928.711</ele>
        <time>2020-06-25T12:29:06Z</time>
      </trkpt>
      <trkpt lat="43.97419" lon="7.44764">
        <ele>1932.52</ele>
        <time>2020-06-25T12:29:22Z</time>
      </trkpt>
      <trkpt lat="43.9744" lon="7.44762">
        <ele>1933.589</ele>
        <time>2020-06-25T12:29:37Z</time>
      </trkpt>
      <trkpt lat="43.97457" lon="7.44755">
        <ele>1933.67</ele>
        <time>2020-06-25T12:29:52Z</time>
      </trkpt>
      <trkpt lat="43.97469" lon="7.4474">
        <ele>1933.858</ele>
        <time>2020-06-25T12:30:08Z</time>
      </trkpt>
      <trkpt lat="43.97486" lon="7.4473">
        <ele>1935.004</ele>
        <time>2020-06-25T12:30:23Z</time>
      </trkpt>
      <trkpt lat="43.97506" lon="7.44719">
        <ele>1938.199</ele>
        <time>2020-06-25T12:30:39Z</time>
      </trkpt>
      <trkpt lat="43.97514" lon="7.44704">
        <ele>1939.411</ele>
        <time>2020-06-25T12:30:55Z</time>
      </trkpt>
      <trkpt lat="43.97527" lon="7.44685">
        <ele>1940.946</ele>
        <time>2020-06-25T12:31:11Z</time>
      </trkpt>
      <trkpt lat="43.97528" lon="7.44683">
        <ele>1940.79</ele>
        <time>2020-06-25T12:31:26Z</time>
      </trkpt>
      <trkpt lat="43.97523" lon="7.44697">
        <ele>1938.246</ele>
        <time>2020-06-25T12:31:42Z</time>
      </trkpt>
      <trkpt lat="43.97516" lon="7.4472">
        <ele>1936.918</ele>
        <time>2020-06-25T12:31:58Z</time>
      </trkpt>
      <trkpt lat="43.97524" lon="7.44719">
        <ele>1937.06</ele>
        <time>2020-06-25T12:32:14Z</time>
      </trkpt>
      <trkpt lat="43.97541" lon="7.44715">
        <ele>1936.821</ele>
        <time>2020-06-25T12:32:30Z</time>
      </trkpt>
      <trkpt lat="43.97559" lon="7.44714">
        <ele>1937.585</ele>
        <time>2020-06-25T12:32:45Z</time>
      </trkpt>
      <trkpt lat="43.97575" lon="7.44702">
        <ele>1940.069</ele>
        <time>2020-06-25T12:33:01Z</time>
      </trkpt>
      <trkpt lat="43.97588" lon="7.44692">
        <ele>1941.571</ele>
        <time>2020-06-25T12:33:17Z</time>
      </trkpt>
      <trkpt lat="43.97604" lon="7.44679">
        <ele>1937.859</ele>
        <time>2020-06-25T12:33:32Z</time>
      </trkpt>
      <trkpt lat="43.97621" lon="7.44666">
        <ele>1940.136</ele>
        <time>2020-06-25T12:33:48Z</time>
      </trkpt>
      <trkpt lat="43.97639" lon="7.44654">
        <ele>1938.727</ele>
        <time>2020-06-25T12:34:03Z</time>
      </trkpt>
      <trkpt lat="43.97649" lon="7.44646">
        <ele>1940.731</ele>
        <time>2020-06-25T12:34:19Z</time>
      </trkpt>
      <trkpt lat="43.97663" lon="7.44637">
        <ele>1939.805</ele>
        <time>2020-06-25T12:34:34Z</time>
      </trkpt>
      <trkpt lat="43.97681" lon="7.44621">
        <ele>1937.003</ele>
        <time>2020-06-25T12:34:50Z</time>
      </trkpt>
      <trkpt lat="43.97698" lon="7.44612">
        <ele>1938.41</ele>
        <time>2020-06-25T12:35:05Z</time>
      </trkpt>
      <trkpt lat="43.97715" lon="7.44608">
        <ele>1939.628</ele>
        <time>2020-06-25T12:35:21Z</time>
      </trkpt>
      <trkpt lat="43.9773" lon="7.44604">
        <ele>1936.017</ele>
        <time>2020-06-25T12:35:37Z</time>
      </trkpt>
      <trkpt lat="43.97749" lon="7.44601">
        <ele>1928.601</ele>
        <time>2020-06-25T12:35:53Z</time>
      </trkpt>
      <trkpt lat="43.97765" lon="7.44585">
        <ele>1932.217</ele>
        <time>2020-06-25T12:36:08Z</time>
      </trkpt>
      <trkpt lat="43.97773" lon="7.44572">
        <ele>1932.002</ele>
        <time>2020-06-25T12:36:24Z</time>
      </trkpt>
      <trkpt lat="43.97773" lon="7.44572">
        <ele>1932.002</ele>
        <time>2020-06-25T12:36:40Z</time>
      </trkpt>
      <trkpt lat="43.97773" lon="7.44572">
        <ele>1932.002</ele>
        <time>2020-06-25T12:36:55Z</time>
      </trkpt>
      <trkpt lat="43.97773" lon="7.44572">
        <ele>1932.002</ele>
        <time>2020-06-25T12:37:10Z</time>
      </trkpt>
      <trkpt lat="43.97773" lon="7.44572">
        <ele>1932.002</ele>
        <time>2020-06-25T12:37:25Z</time>
      </trkpt>
      <trkpt lat="43.97773" lon="7.44572">
        <ele>1932.002</ele>
        <time>2020-06-25T12:37:41Z</time>
      </trkpt>
      <trkpt lat="43.97773" lon="7.44572">
        <ele>1932.002</ele>
        <time>2020-06-25T12:37:56Z</time>
      </trkpt>
      <trkpt lat="43.97775" lon="7.44576">
        <ele>1932.437</ele>
        <time>2020-06-25T12:38:12Z</time>
      </trkpt>
      <trkpt lat="43.97775" lon="7.44576">
        <ele>1932.437</ele>
        <time>2020-06-25T12:38:27Z</time>
      </trkpt>
      <trkpt lat="43.97775" lon="7.44576">
        <ele>1932.437</ele>
        <time>2020-06-25T12:38:43Z</time>
      </trkpt>
      <trkpt lat="43.97775" lon="7.44576">
        <ele>1932.437</ele>
        <time>2020-06-25T12:38:59Z</time>
      </trkpt>
      <trkpt lat="43.97775" lon="7.44576">
        <ele>1932.437</ele>
        <time>2020-06-25T12:39:15Z</time>
      </trkpt>
      <trkpt lat="43.97775" lon="7.44576">
        <ele>1932.437</ele>
        <time>2020-06-25T12:39:30Z</time>
      </trkpt>
      <trkpt lat="43.97776" lon="7.44574">
        <ele>1931.165</ele>
        <time>2020-06-25T12:39:46Z</time>
      </trkpt>
      <trkpt lat="43.97776" lon="7.44574">
        <ele>1931.165</ele>
        <time>2020-06-25T12:40:01Z</time>
      </trkpt>
      <trkpt lat="43.97781" lon="7.4457">
        <ele>1930.277</ele>
        <time>2020-06-25T12:40:17Z</time>
      </trkpt>
      <trkpt lat="43.97797" lon="7.44569">
        <ele>1924.361</ele>
        <time>2020-06-25T12:40:33Z</time>
      </trkpt>
      <trkpt lat="43.9781" lon="7.44563">
        <ele>1923.514</ele>
        <time>2020-06-25T12:40:49Z</time>
      </trkpt>
      <trkpt lat="43.97821" lon="7.44558">
        <ele>1921.629</ele>
        <time>2020-06-25T12:41:04Z</time>
      </trkpt>
      <trkpt lat="43.9784" lon="7.44556">
        <ele>1920.779</ele>
        <time>2020-06-25T12:41:20Z</time>
      </trkpt>
      <trkpt lat="43.97857" lon="7.4455">
        <ele>1917.754</ele>
        <time>2020-06-25T12:41:36Z</time>
      </trkpt>
      <trkpt lat="43.97876" lon="7.44544">
        <ele>1916.91</ele>
        <time>2020-06-25T12:41:52Z</time>
      </trkpt>
      <trkpt lat="43.97892" lon="7.44544">
        <ele>1913.039</ele>
        <time>2020-06-25T12:42:08Z</time>
      </trkpt>
      <trkpt lat="43.97906" lon="7.44544">
        <ele>1910.111</ele>
        <time>2020-06-25T12:42:23Z</time>
      </trkpt>
      <trkpt lat="43.97917" lon="7.44544">
        <ele>1906.197</ele>
        <time>2020-06-25T12:42:39Z</time>
      </trkpt>
      <trkpt lat="43.97932" lon="7.44532">
        <ele>1906.024</ele>
        <time>2020-06-25T12:42:55Z</time>
      </trkpt>
      <trkpt lat="43.97944" lon="7.44528">
        <ele>1906.248</ele>
        <time>2020-06-25T12:43:10Z</time>
      </trkpt>
      <trkpt lat="43.97965" lon="7.44526">
        <ele>1903.709</ele>
        <time>2020-06-25T12:43:25Z</time>
      </trkpt>
      <trkpt lat="43.97979" lon="7.44528">
        <ele>1901.936</ele>
        <time>2020-06-25T12:43:41Z</time>
      </trkpt>
      <trkpt lat="43.97989" lon="7.44535">
        <ele>1899.714</ele>
        <time>2020-06-25T12:43:57Z</time>
      </trkpt>
      <trkpt lat="43.97998" lon="7.44535">
        <ele>1894.226</ele>
        <time>2020-06-25T12:44:13Z</time>
      </trkpt>
      <trkpt lat="43.98009" lon="7.44517">
        <ele>1894.097</ele>
        <time>2020-06-25T12:44:28Z</time>
      </trkpt>
      <trkpt lat="43.98017" lon="7.44499">
        <ele>1894.32</ele>
        <time>2020-06-25T12:44:44Z</time>
      </trkpt>
      <trkpt lat="43.98039" lon="7.44485">
        <ele>1891.736</ele>
        <time>2020-06-25T12:45:00Z</time>
      </trkpt>
      <trkpt lat="43.98054" lon="7.44472">
        <ele>1887.261</ele>
        <time>2020-06-25T12:45:16Z</time>
      </trkpt>
      <trkpt lat="43.98068" lon="7.44457">
        <ele>1885.671</ele>
        <time>2020-06-25T12:45:31Z</time>
      </trkpt>
      <trkpt lat="43.98073" lon="7.44447">
        <ele>1882.712</ele>
        <time>2020-06-25T12:45:47Z</time>
      </trkpt>
      <trkpt lat="43.98081" lon="7.4443">
        <ele>1881.052</ele>
        <time>2020-06-25T12:46:02Z</time>
      </trkpt>
      <trkpt lat="43.98094" lon="7.44405">
        <ele>1880.812</ele>
        <time>2020-06-25T12:46:18Z</time>
      </trkpt>
      <trkpt lat="43.9811" lon="7.4439">
        <ele>1879.541</ele>
        <time>2020-06-25T12:46:34Z</time>
      </trkpt>
      <trkpt lat="43.98135" lon="7.44387">
        <ele>1871.318</ele>
        <time>2020-06-25T12:46:50Z</time>
      </trkpt>
      <trkpt lat="43.98141" lon="7.44386">
        <ele>1869.113</ele>
        <time>2020-06-25T12:47:06Z</time>
      </trkpt>
      <trkpt lat="43.98162" lon="7.44384">
        <ele>1863.884</ele>
        <time>2020-06-25T12:47:21Z</time>
      </trkpt>
      <trkpt lat="43.98181" lon="7.44381">
        <ele>1857.868</ele>
        <time>2020-06-25T12:47:37Z</time>
      </trkpt>
      <trkpt lat="43.98197" lon="7.44373">
        <ele>1857.022</ele>
        <time>2020-06-25T12:47:52Z</time>
      </trkpt>
      <trkpt lat="43.98199" lon="7.44371">
        <ele>1857.709</ele>
        <time>2020-06-25T12:48:08Z</time>
      </trkpt>
      <trkpt lat="43.98199" lon="7.44371">
        <ele>1856.378</ele>
        <time>2020-06-25T12:48:24Z</time>
      </trkpt>
      <trkpt lat="43.98199" lon="7.44373">
        <ele>1856.133</ele>
        <time>2020-06-25T12:48:40Z</time>
      </trkpt>
      <trkpt lat="43.98199" lon="7.44373">
        <ele>1856.133</ele>
        <time>2020-06-25T12:48:56Z</time>
      </trkpt>
      <trkpt lat="43.98199" lon="7.44373">
        <ele>1856.133</ele>
        <time>2020-06-25T12:49:11Z</time>
      </trkpt>
      <trkpt lat="43.98199" lon="7.44373">
        <ele>1856.133</ele>
        <time>2020-06-25T12:49:27Z</time>
      </trkpt>
      <trkpt lat="43.98199" lon="7.44373">
        <ele>1856.133</ele>
        <time>2020-06-25T12:49:43Z</time>
      </trkpt>
      <trkpt lat="43.98199" lon="7.44373">
        <ele>1856.133</ele>
        <time>2020-06-25T12:49:59Z</time>
      </trkpt>
      <trkpt lat="43.98199" lon="7.44373">
        <ele>1856.133</ele>
        <time>2020-06-25T12:50:14Z</time>
      </trkpt>
      <trkpt lat="43.98199" lon="7.44373">
        <ele>1856.133</ele>
        <time>2020-06-25T12:50:30Z</time>
      </trkpt>
      <trkpt lat="43.98199" lon="7.44373">
        <ele>1856.133</ele>
        <time>2020-06-25T12:50:46Z</time>
      </trkpt>
      <trkpt lat="43.98199" lon="7.44373">
        <ele>1856.133</ele>
        <time>2020-06-25T12:51:02Z</time>
      </trkpt>
      <trkpt lat="43.98204" lon="7.4435">
        <ele>1853.575</ele>
        <time>2020-06-25T12:51:17Z</time>
      </trkpt>
      <trkpt lat="43.98209" lon="7.44328">
        <ele>1852.366</ele>
        <time>2020-06-25T12:51:33Z</time>
      </trkpt>
      <trkpt lat="43.98216" lon="7.44308">
        <ele>1848.888</ele>
        <time>2020-06-25T12:51:49Z</time>
      </trkpt>
      <trkpt lat="43.98223" lon="7.44286">
        <ele>1845.758</ele>
        <time>2020-06-25T12:52:05Z</time>
      </trkpt>
      <trkpt lat="43.9823" lon="7.44269">
        <ele>1843.988</ele>
        <time>2020-06-25T12:52:21Z</time>
      </trkpt>
      <trkpt lat="43.98241" lon="7.44251">
        <ele>1843.214</ele>
        <time>2020-06-25T12:52:37Z</time>
      </trkpt>
      <trkpt lat="43.98247" lon="7.44241">
        <ele>1841.58</ele>
        <time>2020-06-25T12:52:53Z</time>
      </trkpt>
      <trkpt lat="43.98255" lon="7.44218">
        <ele>1839.738</ele>
        <time>2020-06-25T12:53:09Z</time>
      </trkpt>
      <trkpt lat="43.98265" lon="7.442">
        <ele>1833.282</ele>
        <time>2020-06-25T12:53:24Z</time>
      </trkpt>
      <trkpt lat="43.98276" lon="7.44177">
        <ele>1832.257</ele>
        <time>2020-06-25T12:53:40Z</time>
      </trkpt>
      <trkpt lat="43.98284" lon="7.44157">
        <ele>1830.159</ele>
        <time>2020-06-25T12:53:55Z</time>
      </trkpt>
      <trkpt lat="43.98291" lon="7.44146">
        <ele>1828.326</ele>
        <time>2020-06-25T12:54:11Z</time>
      </trkpt>
      <trkpt lat="43.98279" lon="7.4415">
        <ele>1828.278</ele>
        <time>2020-06-25T12:54:26Z</time>
      </trkpt>
      <trkpt lat="43.98266" lon="7.44162">
        <ele>1825.007</ele>
        <time>2020-06-25T12:54:42Z</time>
      </trkpt>
      <trkpt lat="43.98254" lon="7.44179">
        <ele>1825.374</ele>
        <time>2020-06-25T12:54:57Z</time>
      </trkpt>
      <trkpt lat="43.98249" lon="7.44182">
        <ele>1823.82</ele>
        <time>2020-06-25T12:55:12Z</time>
      </trkpt>
      <trkpt lat="43.98235" lon="7.44194">
        <ele>1823.918</ele>
        <time>2020-06-25T12:55:28Z</time>
      </trkpt>
      <trkpt lat="43.98227" lon="7.442">
        <ele>1825.035</ele>
        <time>2020-06-25T12:55:44Z</time>
      </trkpt>
      <trkpt lat="43.98227" lon="7.442">
        <ele>1825.035</ele>
        <time>2020-06-25T12:55:59Z</time>
      </trkpt>
      <trkpt lat="43.98227" lon="7.442">
        <ele>1825.035</ele>
        <time>2020-06-25T12:56:15Z</time>
      </trkpt>
      <trkpt lat="43.98217" lon="7.44197">
        <ele>1819.582</ele>
        <time>2020-06-25T12:56:31Z</time>
      </trkpt>
      <trkpt lat="43.982" lon="7.44199">
        <ele>1815.157</ele>
        <time>2020-06-25T12:56:46Z</time>
      </trkpt>
      <trkpt lat="43.98189" lon="7.44202">
        <ele>1807.432</ele>
        <time>2020-06-25T12:57:01Z</time>
      </trkpt>
      <trkpt lat="43.98198" lon="7.44174">
        <ele>1804.12</ele>
        <time>2020-06-25T12:57:16Z</time>
      </trkpt>
      <trkpt lat="43.98209" lon="7.44163">
        <ele>1804.532</ele>
        <time>2020-06-25T12:57:32Z</time>
      </trkpt>
      <trkpt lat="43.98208" lon="7.44146">
        <ele>1806.396</ele>
        <time>2020-06-25T12:57:47Z</time>
      </trkpt>
      <trkpt lat="43.98218" lon="7.44128">
        <ele>1798.191</ele>
        <time>2020-06-25T12:58:03Z</time>
      </trkpt>
      <trkpt lat="43.98223" lon="7.4411">
        <ele>1796.245</ele>
        <time>2020-06-25T12:58:19Z</time>
      </trkpt>
      <trkpt lat="43.98225" lon="7.44091">
        <ele>1798.636</ele>
        <time>2020-06-25T12:58:34Z</time>
      </trkpt>
      <trkpt lat="43.98231" lon="7.44079">
        <ele>1797.628</ele>
        <time>2020-06-25T12:58:50Z</time>
      </trkpt>
      <trkpt lat="43.98239" lon="7.44058">
        <ele>1795.668</ele>
        <time>2020-06-25T12:59:06Z</time>
      </trkpt>
      <trkpt lat="43.98245" lon="7.44036">
        <ele>1793.779</ele>
        <time>2020-06-25T12:59:22Z</time>
      </trkpt>
      <trkpt lat="43.98255" lon="7.44022">
        <ele>1789.926</ele>
        <time>2020-06-25T12:59:38Z</time>
      </trkpt>
      <trkpt lat="43.98256" lon="7.4402">
        <ele>1786.238</ele>
        <time>2020-06-25T12:59:54Z</time>
      </trkpt>
      <trkpt lat="43.98243" lon="7.4402">
        <ele>1773.21</ele>
        <time>2020-06-25T13:00:09Z</time>
      </trkpt>
      <trkpt lat="43.98233" lon="7.44018">
        <ele>1766.867</ele>
        <time>2020-06-25T13:00:25Z</time>
      </trkpt>
      <trkpt lat="43.98219" lon="7.44021">
        <ele>1770.02</ele>
        <time>2020-06-25T13:00:41Z</time>
      </trkpt>
      <trkpt lat="43.98215" lon="7.44021">
        <ele>1772.428</ele>
        <time>2020-06-25T13:00:56Z</time>
      </trkpt>
      <trkpt lat="43.98215" lon="7.44021">
        <ele>1772.428</ele>
        <time>2020-06-25T13:01:11Z</time>
      </trkpt>
      <trkpt lat="43.98214" lon="7.44021">
        <ele>1771.971</ele>
        <time>2020-06-25T13:01:27Z</time>
      </trkpt>
      <trkpt lat="43.98213" lon="7.44019">
        <ele>1771.903</ele>
        <time>2020-06-25T13:01:43Z</time>
      </trkpt>
      <trkpt lat="43.98213" lon="7.44019">
        <ele>1772.008</ele>
        <time>2020-06-25T13:01:58Z</time>
      </trkpt>
      <trkpt lat="43.98213" lon="7.44019">
        <ele>1772.008</ele>
        <time>2020-06-25T13:02:13Z</time>
      </trkpt>
      <trkpt lat="43.98213" lon="7.44019">
        <ele>1772.008</ele>
        <time>2020-06-25T13:02:29Z</time>
      </trkpt>
      <trkpt lat="43.98213" lon="7.44019">
        <ele>1772.008</ele>
        <time>2020-06-25T13:02:45Z</time>
      </trkpt>
      <trkpt lat="43.98213" lon="7.44019">
        <ele>1772.008</ele>
        <time>2020-06-25T13:03:00Z</time>
      </trkpt>
      <trkpt lat="43.98212" lon="7.44019">
        <ele>1773.254</ele>
        <time>2020-06-25T13:03:16Z</time>
      </trkpt>
      <trkpt lat="43.98214" lon="7.44019">
        <ele>1773.705</ele>
        <time>2020-06-25T13:03:31Z</time>
      </trkpt>
      <trkpt lat="43.98215" lon="7.44017">
        <ele>1773.77</ele>
        <time>2020-06-25T13:03:47Z</time>
      </trkpt>
      <trkpt lat="43.98215" lon="7.44017">
        <ele>1773.77</ele>
        <time>2020-06-25T13:04:03Z</time>
      </trkpt>
      <trkpt lat="43.98213" lon="7.44018">
        <ele>1771.028</ele>
        <time>2020-06-25T13:04:19Z</time>
      </trkpt>
      <trkpt lat="43.98213" lon="7.44018">
        <ele>1771.028</ele>
        <time>2020-06-25T13:04:35Z</time>
      </trkpt>
      <trkpt lat="43.98213" lon="7.44018">
        <ele>1771.028</ele>
        <time>2020-06-25T13:04:50Z</time>
      </trkpt>
      <trkpt lat="43.98213" lon="7.44018">
        <ele>1771.028</ele>
        <time>2020-06-25T13:05:06Z</time>
      </trkpt>
      <trkpt lat="43.98214" lon="7.44017">
        <ele>1767.007</ele>
        <time>2020-06-25T13:05:22Z</time>
      </trkpt>
      <trkpt lat="43.98214" lon="7.44017">
        <ele>1764.37</ele>
        <time>2020-06-25T13:05:38Z</time>
      </trkpt>
      <trkpt lat="43.98214" lon="7.44017">
        <ele>1764.37</ele>
        <time>2020-06-25T13:05:54Z</time>
      </trkpt>
      <trkpt lat="43.98215" lon="7.44016">
        <ele>1764.572</ele>
        <time>2020-06-25T13:06:10Z</time>
      </trkpt>
      <trkpt lat="43.98214" lon="7.44017">
        <ele>1761.86</ele>
        <time>2020-06-25T13:06:25Z</time>
      </trkpt>
      <trkpt lat="43.98213" lon="7.4402">
        <ele>1761.088</ele>
        <time>2020-06-25T13:06:41Z</time>
      </trkpt>
      <trkpt lat="43.98213" lon="7.4402">
        <ele>1761.088</ele>
        <time>2020-06-25T13:06:57Z</time>
      </trkpt>
      <trkpt lat="43.98216" lon="7.44022">
        <ele>1758.39</ele>
        <time>2020-06-25T13:07:12Z</time>
      </trkpt>
      <trkpt lat="43.98216" lon="7.44022">
        <ele>1757.563</ele>
        <time>2020-06-25T13:07:27Z</time>
      </trkpt>
      <trkpt lat="43.98216" lon="7.44022">
        <ele>1757.563</ele>
        <time>2020-06-25T13:07:42Z</time>
      </trkpt>
      <trkpt lat="43.98212" lon="7.44027">
        <ele>1757.759</ele>
        <time>2020-06-25T13:07:58Z</time>
      </trkpt>
      <trkpt lat="43.98212" lon="7.44027">
        <ele>1757.759</ele>
        <time>2020-06-25T13:08:14Z</time>
      </trkpt>
      <trkpt lat="43.98212" lon="7.44027">
        <ele>1757.759</ele>
        <time>2020-06-25T13:08:29Z</time>
      </trkpt>
      <trkpt lat="43.98212" lon="7.44027">
        <ele>1757.759</ele>
        <time>2020-06-25T13:08:46Z</time>
      </trkpt>
      <trkpt lat="43.98212" lon="7.44027">
        <ele>1757.759</ele>
        <time>2020-06-25T13:09:01Z</time>
      </trkpt>
      <trkpt lat="43.98211" lon="7.4403">
        <ele>1758.595</ele>
        <time>2020-06-25T13:09:17Z</time>
      </trkpt>
      <trkpt lat="43.98211" lon="7.4403">
        <ele>1758.595</ele>
        <time>2020-06-25T13:09:32Z</time>
      </trkpt>
      <trkpt lat="43.98211" lon="7.4403">
        <ele>1758.595</ele>
        <time>2020-06-25T13:09:48Z</time>
      </trkpt>
      <trkpt lat="43.98211" lon="7.4403">
        <ele>1758.595</ele>
        <time>2020-06-25T13:10:04Z</time>
      </trkpt>
      <trkpt lat="43.98211" lon="7.4403">
        <ele>1758.595</ele>
        <time>2020-06-25T13:10:20Z</time>
      </trkpt>
      <trkpt lat="43.9821" lon="7.44029">
        <ele>1757.736</ele>
        <time>2020-06-25T13:10:36Z</time>
      </trkpt>
      <trkpt lat="43.98204" lon="7.44034">
        <ele>1755.223</ele>
        <time>2020-06-25T13:10:51Z</time>
      </trkpt>
      <trkpt lat="43.98208" lon="7.44036">
        <ele>1747.806</ele>
        <time>2020-06-25T13:11:07Z</time>
      </trkpt>
      <trkpt lat="43.98192" lon="7.4404">
        <ele>1743.144</ele>
        <time>2020-06-25T13:11:23Z</time>
      </trkpt>
      <trkpt lat="43.98173" lon="7.44063">
        <ele>1747.256</ele>
        <time>2020-06-25T13:11:39Z</time>
      </trkpt>
      <trkpt lat="43.98161" lon="7.44084">
        <ele>1752.756</ele>
        <time>2020-06-25T13:11:55Z</time>
      </trkpt>
      <trkpt lat="43.98154" lon="7.44087">
        <ele>1760.387</ele>
        <time>2020-06-25T13:12:10Z</time>
      </trkpt>
      <trkpt lat="43.98146" lon="7.44081">
        <ele>1763.492</ele>
        <time>2020-06-25T13:12:26Z</time>
      </trkpt>
      <trkpt lat="43.98128" lon="7.44086">
        <ele>1766.179</ele>
        <time>2020-06-25T13:12:42Z</time>
      </trkpt>
      <trkpt lat="43.9812" lon="7.4409">
        <ele>1765.966</ele>
        <time>2020-06-25T13:12:58Z</time>
      </trkpt>
      <trkpt lat="43.98103" lon="7.44086">
        <ele>1767.389</ele>
        <time>2020-06-25T13:13:14Z</time>
      </trkpt>
      <trkpt lat="43.98094" lon="7.44086">
        <ele>1767.085</ele>
        <time>2020-06-25T13:13:30Z</time>
      </trkpt>
      <trkpt lat="43.98077" lon="7.44083">
        <ele>1773.128</ele>
        <time>2020-06-25T13:13:46Z</time>
      </trkpt>
      <trkpt lat="43.98066" lon="7.44059">
        <ele>1778.864</ele>
        <time>2020-06-25T13:14:01Z</time>
      </trkpt>
      <trkpt lat="43.98063" lon="7.4403">
        <ele>1785.572</ele>
        <time>2020-06-25T13:14:17Z</time>
      </trkpt>
      <trkpt lat="43.98062" lon="7.44015">
        <ele>1791.349</ele>
        <time>2020-06-25T13:14:33Z</time>
      </trkpt>
      <trkpt lat="43.98052" lon="7.44003">
        <ele>1793.377</ele>
        <time>2020-06-25T13:14:49Z</time>
      </trkpt>
      <trkpt lat="43.98046" lon="7.43986">
        <ele>1795.311</ele>
        <time>2020-06-25T13:15:04Z</time>
      </trkpt>
      <trkpt lat="43.9804" lon="7.4397">
        <ele>1801.709</ele>
        <time>2020-06-25T13:15:20Z</time>
      </trkpt>
      <trkpt lat="43.98038" lon="7.43963">
        <ele>1803.19</ele>
        <time>2020-06-25T13:15:35Z</time>
      </trkpt>
      <trkpt lat="43.98036" lon="7.43948">
        <ele>1803.725</ele>
        <time>2020-06-25T13:15:51Z</time>
      </trkpt>
      <trkpt lat="43.98053" lon="7.43951">
        <ele>1801.455</ele>
        <time>2020-06-25T13:16:07Z</time>
      </trkpt>
      <trkpt lat="43.98063" lon="7.43957">
        <ele>1801.815</ele>
        <time>2020-06-25T13:16:23Z</time>
      </trkpt>
      <trkpt lat="43.98071" lon="7.43964">
        <ele>1800.602</ele>
        <time>2020-06-25T13:16:38Z</time>
      </trkpt>
      <trkpt lat="43.9808" lon="7.43978">
        <ele>1798.355</ele>
        <time>2020-06-25T13:16:54Z</time>
      </trkpt>
      <trkpt lat="43.98086" lon="7.43984">
        <ele>1798.146</ele>
        <time>2020-06-25T13:17:09Z</time>
      </trkpt>
      <trkpt lat="43.98079" lon="7.43971">
        <ele>1807.787</ele>
        <time>2020-06-25T13:17:25Z</time>
      </trkpt>
      <trkpt lat="43.98078" lon="7.43955">
        <ele>1812.241</ele>
        <time>2020-06-25T13:17:41Z</time>
      </trkpt>
      <trkpt lat="43.98075" lon="7.43938">
        <ele>1815.35</ele>
        <time>2020-06-25T13:17:56Z</time>
      </trkpt>
      <trkpt lat="43.98076" lon="7.4393">
        <ele>1812.226</ele>
        <time>2020-06-25T13:18:12Z</time>
      </trkpt>
      <trkpt lat="43.98091" lon="7.43939">
        <ele>1808.151</ele>
        <time>2020-06-25T13:18:27Z</time>
      </trkpt>
      <trkpt lat="43.98108" lon="7.43945">
        <ele>1803.267</ele>
        <time>2020-06-25T13:18:43Z</time>
      </trkpt>
      <trkpt lat="43.98121" lon="7.43949">
        <ele>1801.29</ele>
        <time>2020-06-25T13:18:59Z</time>
      </trkpt>
      <trkpt lat="43.98128" lon="7.43944">
        <ele>1804.832</ele>
        <time>2020-06-25T13:19:15Z</time>
      </trkpt>
      <trkpt lat="43.98128" lon="7.43944">
        <ele>1804.832</ele>
        <time>2020-06-25T13:19:31Z</time>
      </trkpt>
      <trkpt lat="43.98128" lon="7.43944">
        <ele>1804.832</ele>
        <time>2020-06-25T13:19:46Z</time>
      </trkpt>
      <trkpt lat="43.98135" lon="7.43937">
        <ele>1813.388</ele>
        <time>2020-06-25T13:20:02Z</time>
      </trkpt>
      <trkpt lat="43.98136" lon="7.43934">
        <ele>1814.61</ele>
        <time>2020-06-25T13:20:17Z</time>
      </trkpt>
      <trkpt lat="43.98136" lon="7.43934">
        <ele>1814.61</ele>
        <time>2020-06-25T13:20:33Z</time>
      </trkpt>
      <trkpt lat="43.98136" lon="7.43934">
        <ele>1814.61</ele>
        <time>2020-06-25T13:20:49Z</time>
      </trkpt>
      <trkpt lat="43.98136" lon="7.43934">
        <ele>1814.61</ele>
        <time>2020-06-25T13:21:05Z</time>
      </trkpt>
      <trkpt lat="43.98136" lon="7.43934">
        <ele>1814.61</ele>
        <time>2020-06-25T13:21:20Z</time>
      </trkpt>
      <trkpt lat="43.98136" lon="7.43934">
        <ele>1814.61</ele>
        <time>2020-06-25T13:21:36Z</time>
      </trkpt>
      <trkpt lat="43.98136" lon="7.43934">
        <ele>1814.61</ele>
        <time>2020-06-25T13:21:52Z</time>
      </trkpt>
      <trkpt lat="43.98136" lon="7.43934">
        <ele>1814.61</ele>
        <time>2020-06-25T13:22:08Z</time>
      </trkpt>
      <trkpt lat="43.98136" lon="7.43934">
        <ele>1814.61</ele>
        <time>2020-06-25T13:22:24Z</time>
      </trkpt>
      <trkpt lat="43.98136" lon="7.43934">
        <ele>1814.61</ele>
        <time>2020-06-25T13:22:40Z</time>
      </trkpt>
      <trkpt lat="43.98136" lon="7.43934">
        <ele>1814.61</ele>
        <time>2020-06-25T13:22:56Z</time>
      </trkpt>
      <trkpt lat="43.98139" lon="7.43938">
        <ele>1814.838</ele>
        <time>2020-06-25T13:23:13Z</time>
      </trkpt>
      <trkpt lat="43.98139" lon="7.43938">
        <ele>1814.838</ele>
        <time>2020-06-25T13:23:28Z</time>
      </trkpt>
      <trkpt lat="43.98139" lon="7.43938">
        <ele>1814.838</ele>
        <time>2020-06-25T13:23:43Z</time>
      </trkpt>
      <trkpt lat="43.98139" lon="7.43938">
        <ele>1814.838</ele>
        <time>2020-06-25T13:23:59Z</time>
      </trkpt>
      <trkpt lat="43.98139" lon="7.43938">
        <ele>1814.838</ele>
        <time>2020-06-25T13:24:14Z</time>
      </trkpt>
      <trkpt lat="43.98139" lon="7.43938">
        <ele>1814.838</ele>
        <time>2020-06-25T13:24:29Z</time>
      </trkpt>
      <trkpt lat="43.98139" lon="7.43938">
        <ele>1814.838</ele>
        <time>2020-06-25T13:24:45Z</time>
      </trkpt>
      <trkpt lat="43.98139" lon="7.43938">
        <ele>1814.838</ele>
        <time>2020-06-25T13:25:00Z</time>
      </trkpt>
      <trkpt lat="43.98139" lon="7.43938">
        <ele>1814.838</ele>
        <time>2020-06-25T13:25:16Z</time>
      </trkpt>
      <trkpt lat="43.98139" lon="7.43938">
        <ele>1814.838</ele>
        <time>2020-06-25T13:25:32Z</time>
      </trkpt>
      <trkpt lat="43.98139" lon="7.43938">
        <ele>1814.838</ele>
        <time>2020-06-25T13:25:47Z</time>
      </trkpt>
      <trkpt lat="43.9814" lon="7.4394">
        <ele>1815.19</ele>
        <time>2020-06-25T13:26:03Z</time>
      </trkpt>
      <trkpt lat="43.98142" lon="7.43937">
        <ele>1815.225</ele>
        <time>2020-06-25T13:26:19Z</time>
      </trkpt>
      <trkpt lat="43.98142" lon="7.43937">
        <ele>1815.225</ele>
        <time>2020-06-25T13:26:35Z</time>
      </trkpt>
      <trkpt lat="43.98142" lon="7.43937">
        <ele>1815.225</ele>
        <time>2020-06-25T13:26:51Z</time>
      </trkpt>
      <trkpt lat="43.98142" lon="7.43937">
        <ele>1815.225</ele>
        <time>2020-06-25T13:27:07Z</time>
      </trkpt>
      <trkpt lat="43.98143" lon="7.43936">
        <ele>1814.545</ele>
        <time>2020-06-25T13:27:22Z</time>
      </trkpt>
      <trkpt lat="43.98143" lon="7.43936">
        <ele>1814.545</ele>
        <time>2020-06-25T13:27:38Z</time>
      </trkpt>
      <trkpt lat="43.98143" lon="7.43936">
        <ele>1814.545</ele>
        <time>2020-06-25T13:27:54Z</time>
      </trkpt>
      <trkpt lat="43.98143" lon="7.43936">
        <ele>1814.545</ele>
        <time>2020-06-25T13:28:09Z</time>
      </trkpt>
      <trkpt lat="43.98143" lon="7.43936">
        <ele>1814.545</ele>
        <time>2020-06-25T13:28:25Z</time>
      </trkpt>
      <trkpt lat="43.98143" lon="7.43936">
        <ele>1814.545</ele>
        <time>2020-06-25T13:28:41Z</time>
      </trkpt>
      <trkpt lat="43.98143" lon="7.43936">
        <ele>1814.545</ele>
        <time>2020-06-25T13:28:56Z</time>
      </trkpt>
      <trkpt lat="43.98143" lon="7.43936">
        <ele>1814.545</ele>
        <time>2020-06-25T13:29:12Z</time>
      </trkpt>
      <trkpt lat="43.98143" lon="7.43936">
        <ele>1814.545</ele>
        <time>2020-06-25T13:29:27Z</time>
      </trkpt>
      <trkpt lat="43.98143" lon="7.43936">
        <ele>1814.545</ele>
        <time>2020-06-25T13:29:43Z</time>
      </trkpt>
      <trkpt lat="43.98143" lon="7.43936">
        <ele>1814.545</ele>
        <time>2020-06-25T13:29:58Z</time>
      </trkpt>
      <trkpt lat="43.98143" lon="7.43936">
        <ele>1814.545</ele>
        <time>2020-06-25T13:30:14Z</time>
      </trkpt>
      <trkpt lat="43.98143" lon="7.43936">
        <ele>1814.545</ele>
        <time>2020-06-25T13:30:30Z</time>
      </trkpt>
      <trkpt lat="43.98143" lon="7.43936">
        <ele>1814.545</ele>
        <time>2020-06-25T13:30:45Z</time>
      </trkpt>
      <trkpt lat="43.98143" lon="7.43936">
        <ele>1814.545</ele>
        <time>2020-06-25T13:31:01Z</time>
      </trkpt>
      <trkpt lat="43.98143" lon="7.43936">
        <ele>1814.545</ele>
        <time>2020-06-25T13:31:17Z</time>
      </trkpt>
      <trkpt lat="43.98143" lon="7.43936">
        <ele>1814.545</ele>
        <time>2020-06-25T13:31:33Z</time>
      </trkpt>
      <trkpt lat="43.98143" lon="7.43936">
        <ele>1814.545</ele>
        <time>2020-06-25T13:31:49Z</time>
      </trkpt>
      <trkpt lat="43.98143" lon="7.43936">
        <ele>1814.545</ele>
        <time>2020-06-25T13:32:04Z</time>
      </trkpt>
      <trkpt lat="43.98143" lon="7.43936">
        <ele>1814.545</ele>
        <time>2020-06-25T13:32:20Z</time>
      </trkpt>
      <trkpt lat="43.98143" lon="7.43936">
        <ele>1814.545</ele>
        <time>2020-06-25T13:32:36Z</time>
      </trkpt>
      <trkpt lat="43.98143" lon="7.43936">
        <ele>1814.545</ele>
        <time>2020-06-25T13:32:52Z</time>
      </trkpt>
      <trkpt lat="43.98143" lon="7.43936">
        <ele>1814.545</ele>
        <time>2020-06-25T13:33:08Z</time>
      </trkpt>
      <trkpt lat="43.98143" lon="7.43936">
        <ele>1814.545</ele>
        <time>2020-06-25T13:33:24Z</time>
      </trkpt>
      <trkpt lat="43.98143" lon="7.43936">
        <ele>1814.545</ele>
        <time>2020-06-25T13:33:39Z</time>
      </trkpt>
      <trkpt lat="43.98143" lon="7.43936">
        <ele>1814.545</ele>
        <time>2020-06-25T13:33:55Z</time>
      </trkpt>
      <trkpt lat="43.98144" lon="7.43939">
        <ele>1815.661</ele>
        <time>2020-06-25T13:34:10Z</time>
      </trkpt>
      <trkpt lat="43.98144" lon="7.43939">
        <ele>1815.661</ele>
        <time>2020-06-25T13:34:26Z</time>
      </trkpt>
      <trkpt lat="43.98144" lon="7.43939">
        <ele>1815.661</ele>
        <time>2020-06-25T13:34:41Z</time>
      </trkpt>
      <trkpt lat="43.98144" lon="7.43939">
        <ele>1815.661</ele>
        <time>2020-06-25T13:34:57Z</time>
      </trkpt>
      <trkpt lat="43.98144" lon="7.43939">
        <ele>1815.661</ele>
        <time>2020-06-25T13:35:13Z</time>
      </trkpt>
      <trkpt lat="43.98144" lon="7.43939">
        <ele>1815.661</ele>
        <time>2020-06-25T13:35:28Z</time>
      </trkpt>
      <trkpt lat="43.98144" lon="7.43939">
        <ele>1815.661</ele>
        <time>2020-06-25T13:35:44Z</time>
      </trkpt>
      <trkpt lat="43.98144" lon="7.43939">
        <ele>1815.661</ele>
        <time>2020-06-25T13:36:00Z</time>
      </trkpt>
      <trkpt lat="43.98144" lon="7.43939">
        <ele>1815.661</ele>
        <time>2020-06-25T13:36:15Z</time>
      </trkpt>
      <trkpt lat="43.98144" lon="7.43939">
        <ele>1815.661</ele>
        <time>2020-06-25T13:36:31Z</time>
      </trkpt>
      <trkpt lat="43.98144" lon="7.43939">
        <ele>1815.661</ele>
        <time>2020-06-25T13:36:46Z</time>
      </trkpt>
      <trkpt lat="43.98144" lon="7.43939">
        <ele>1815.661</ele>
        <time>2020-06-25T13:37:02Z</time>
      </trkpt>
      <trkpt lat="43.98146" lon="7.43939">
        <ele>1815.185</ele>
        <time>2020-06-25T13:37:17Z</time>
      </trkpt>
      <trkpt lat="43.98146" lon="7.43939">
        <ele>1815.185</ele>
        <time>2020-06-25T13:37:33Z</time>
      </trkpt>
      <trkpt lat="43.98146" lon="7.43939">
        <ele>1815.185</ele>
        <time>2020-06-25T13:37:48Z</time>
      </trkpt>
      <trkpt lat="43.98145" lon="7.43941">
        <ele>1814.941</ele>
        <time>2020-06-25T13:38:04Z</time>
      </trkpt>
      <trkpt lat="43.98145" lon="7.43941">
        <ele>1814.941</ele>
        <time>2020-06-25T13:38:19Z</time>
      </trkpt>
      <trkpt lat="43.98145" lon="7.43941">
        <ele>1814.941</ele>
        <time>2020-06-25T13:38:35Z</time>
      </trkpt>
      <trkpt lat="43.98145" lon="7.43941">
        <ele>1814.941</ele>
        <time>2020-06-25T13:38:50Z</time>
      </trkpt>
      <trkpt lat="43.98145" lon="7.43941">
        <ele>1814.941</ele>
        <time>2020-06-25T13:39:06Z</time>
      </trkpt>
      <trkpt lat="43.98145" lon="7.43941">
        <ele>1814.941</ele>
        <time>2020-06-25T13:39:21Z</time>
      </trkpt>
      <trkpt lat="43.98145" lon="7.43941">
        <ele>1814.941</ele>
        <time>2020-06-25T13:39:36Z</time>
      </trkpt>
      <trkpt lat="43.98145" lon="7.43941">
        <ele>1814.941</ele>
        <time>2020-06-25T13:39:51Z</time>
      </trkpt>
      <trkpt lat="43.98145" lon="7.43941">
        <ele>1814.941</ele>
        <time>2020-06-25T13:40:07Z</time>
      </trkpt>
      <trkpt lat="43.98145" lon="7.43941">
        <ele>1814.941</ele>
        <time>2020-06-25T13:40:22Z</time>
      </trkpt>
      <trkpt lat="43.98145" lon="7.43941">
        <ele>1814.941</ele>
        <time>2020-06-25T13:40:38Z</time>
      </trkpt>
      <trkpt lat="43.98145" lon="7.43941">
        <ele>1814.66</ele>
        <time>2020-06-25T13:40:54Z</time>
      </trkpt>
      <trkpt lat="43.98145" lon="7.43941">
        <ele>1814.66</ele>
        <time>2020-06-25T13:41:10Z</time>
      </trkpt>
      <trkpt lat="43.98145" lon="7.43941">
        <ele>1814.66</ele>
        <time>2020-06-25T13:41:25Z</time>
      </trkpt>
      <trkpt lat="43.98145" lon="7.43941">
        <ele>1814.66</ele>
        <time>2020-06-25T13:41:41Z</time>
      </trkpt>
      <trkpt lat="43.9814" lon="7.43941">
        <ele>1814.702</ele>
        <time>2020-06-25T13:41:56Z</time>
      </trkpt>
      <trkpt lat="43.9814" lon="7.43951">
        <ele>1817.271</ele>
        <time>2020-06-25T13:42:12Z</time>
      </trkpt>
      <trkpt lat="43.98154" lon="7.43932">
        <ele>1811.829</ele>
        <time>2020-06-25T13:42:27Z</time>
      </trkpt>
      <trkpt lat="43.98169" lon="7.4392">
        <ele>1809.999</ele>
        <time>2020-06-25T13:42:43Z</time>
      </trkpt>
      <trkpt lat="43.98181" lon="7.43903">
        <ele>1814.155</ele>
        <time>2020-06-25T13:42:59Z</time>
      </trkpt>
      <trkpt lat="43.98196" lon="7.43884">
        <ele>1810.397</ele>
        <time>2020-06-25T13:43:14Z</time>
      </trkpt>
      <trkpt lat="43.98217" lon="7.43874">
        <ele>1811.745</ele>
        <time>2020-06-25T13:43:29Z</time>
      </trkpt>
      <trkpt lat="43.98237" lon="7.43878">
        <ele>1812.958</ele>
        <time>2020-06-25T13:43:45Z</time>
      </trkpt>
      <trkpt lat="43.98254" lon="7.4388">
        <ele>1809.068</ele>
        <time>2020-06-25T13:44:01Z</time>
      </trkpt>
      <trkpt lat="43.98264" lon="7.43881">
        <ele>1813.344</ele>
        <time>2020-06-25T13:44:16Z</time>
      </trkpt>
      <trkpt lat="43.98286" lon="7.43873">
        <ele>1812.627</ele>
        <time>2020-06-25T13:44:32Z</time>
      </trkpt>
      <trkpt lat="43.98305" lon="7.43864">
        <ele>1808.743</ele>
        <time>2020-06-25T13:44:47Z</time>
      </trkpt>
      <trkpt lat="43.98322" lon="7.43857">
        <ele>1802.725</ele>
        <time>2020-06-25T13:45:03Z</time>
      </trkpt>
      <trkpt lat="43.98338" lon="7.43853">
        <ele>1803.302</ele>
        <time>2020-06-25T13:45:18Z</time>
      </trkpt>
      <trkpt lat="43.98353" lon="7.43867">
        <ele>1803.527</ele>
        <time>2020-06-25T13:45:34Z</time>
      </trkpt>
      <trkpt lat="43.98354" lon="7.43888">
        <ele>1803.065</ele>
        <time>2020-06-25T13:45:50Z</time>
      </trkpt>
      <trkpt lat="43.98355" lon="7.43889">
        <ele>1802.845</ele>
        <time>2020-06-25T13:46:05Z</time>
      </trkpt>
      <trkpt lat="43.98355" lon="7.43889">
        <ele>1802.845</ele>
        <time>2020-06-25T13:46:21Z</time>
      </trkpt>
      <trkpt lat="43.98355" lon="7.43889">
        <ele>1802.845</ele>
        <time>2020-06-25T13:46:37Z</time>
      </trkpt>
      <trkpt lat="43.98354" lon="7.4388">
        <ele>1803.162</ele>
        <time>2020-06-25T13:46:53Z</time>
      </trkpt>
      <trkpt lat="43.98354" lon="7.4388">
        <ele>1803.162</ele>
        <time>2020-06-25T13:47:09Z</time>
      </trkpt>
      <trkpt lat="43.98352" lon="7.43881">
        <ele>1801.135</ele>
        <time>2020-06-25T13:47:25Z</time>
      </trkpt>
      <trkpt lat="43.98353" lon="7.43884">
        <ele>1800.352</ele>
        <time>2020-06-25T13:47:41Z</time>
      </trkpt>
      <trkpt lat="43.98351" lon="7.43883">
        <ele>1796.945</ele>
        <time>2020-06-25T13:47:56Z</time>
      </trkpt>
      <trkpt lat="43.98351" lon="7.43883">
        <ele>1796.945</ele>
        <time>2020-06-25T13:48:12Z</time>
      </trkpt>
      <trkpt lat="43.98351" lon="7.43883">
        <ele>1796.945</ele>
        <time>2020-06-25T13:48:28Z</time>
      </trkpt>
      <trkpt lat="43.98351" lon="7.43883">
        <ele>1796.945</ele>
        <time>2020-06-25T13:48:43Z</time>
      </trkpt>
      <trkpt lat="43.98351" lon="7.43883">
        <ele>1796.945</ele>
        <time>2020-06-25T13:48:59Z</time>
      </trkpt>
      <trkpt lat="43.98349" lon="7.43885">
        <ele>1797.801</ele>
        <time>2020-06-25T13:49:14Z</time>
      </trkpt>
      <trkpt lat="43.98349" lon="7.43885">
        <ele>1797.318</ele>
        <time>2020-06-25T13:49:30Z</time>
      </trkpt>
      <trkpt lat="43.98349" lon="7.43885">
        <ele>1797.318</ele>
        <time>2020-06-25T13:49:46Z</time>
      </trkpt>
      <trkpt lat="43.98349" lon="7.43885">
        <ele>1797.318</ele>
        <time>2020-06-25T13:50:02Z</time>
      </trkpt>
      <trkpt lat="43.98349" lon="7.43885">
        <ele>1797.318</ele>
        <time>2020-06-25T13:50:17Z</time>
      </trkpt>
      <trkpt lat="43.98349" lon="7.43885">
        <ele>1797.318</ele>
        <time>2020-06-25T13:50:32Z</time>
      </trkpt>
      <trkpt lat="43.98349" lon="7.43885">
        <ele>1797.318</ele>
        <time>2020-06-25T13:50:48Z</time>
      </trkpt>
      <trkpt lat="43.98349" lon="7.43885">
        <ele>1797.318</ele>
        <time>2020-06-25T13:51:03Z</time>
      </trkpt>
      <trkpt lat="43.98345" lon="7.43888">
        <ele>1799.311</ele>
        <time>2020-06-25T13:51:18Z</time>
      </trkpt>
      <trkpt lat="43.98345" lon="7.43888">
        <ele>1799.311</ele>
        <time>2020-06-25T13:51:34Z</time>
      </trkpt>
      <trkpt lat="43.98345" lon="7.43888">
        <ele>1799.311</ele>
        <time>2020-06-25T13:51:50Z</time>
      </trkpt>
      <trkpt lat="43.98345" lon="7.43888">
        <ele>1799.311</ele>
        <time>2020-06-25T13:52:06Z</time>
      </trkpt>
      <trkpt lat="43.98345" lon="7.43888">
        <ele>1799.311</ele>
        <time>2020-06-25T13:52:21Z</time>
      </trkpt>
      <trkpt lat="43.98345" lon="7.43888">
        <ele>1799.311</ele>
        <time>2020-06-25T13:52:37Z</time>
      </trkpt>
      <trkpt lat="43.98345" lon="7.43888">
        <ele>1799.311</ele>
        <time>2020-06-25T13:52:52Z</time>
      </trkpt>
      <trkpt lat="43.98345" lon="7.43888">
        <ele>1799.311</ele>
        <time>2020-06-25T13:53:08Z</time>
      </trkpt>
      <trkpt lat="43.98345" lon="7.43888">
        <ele>1799.311</ele>
        <time>2020-06-25T13:53:23Z</time>
      </trkpt>
      <trkpt lat="43.98345" lon="7.43888">
        <ele>1799.311</ele>
        <time>2020-06-25T13:53:39Z</time>
      </trkpt>
      <trkpt lat="43.98341" lon="7.43892">
        <ele>1801.413</ele>
        <time>2020-06-25T13:53:54Z</time>
      </trkpt>
      <trkpt lat="43.98343" lon="7.43894">
        <ele>1802.231</ele>
        <time>2020-06-25T13:54:10Z</time>
      </trkpt>
      <trkpt lat="43.98343" lon="7.43894">
        <ele>1802.231</ele>
        <time>2020-06-25T13:54:26Z</time>
      </trkpt>
      <trkpt lat="43.98343" lon="7.43894">
        <ele>1802.231</ele>
        <time>2020-06-25T13:54:42Z</time>
      </trkpt>
      <trkpt lat="43.98341" lon="7.43895">
        <ele>1803.075</ele>
        <time>2020-06-25T13:54:58Z</time>
      </trkpt>
      <trkpt lat="43.98341" lon="7.43895">
        <ele>1803.075</ele>
        <time>2020-06-25T13:55:14Z</time>
      </trkpt>
      <trkpt lat="43.98344" lon="7.43891">
        <ele>1800.375</ele>
        <time>2020-06-25T13:55:30Z</time>
      </trkpt>
      <trkpt lat="43.98346" lon="7.43892">
        <ele>1799.63</ele>
        <time>2020-06-25T13:55:46Z</time>
      </trkpt>
      <trkpt lat="43.98346" lon="7.43892">
        <ele>1799.63</ele>
        <time>2020-06-25T13:56:01Z</time>
      </trkpt>
      <trkpt lat="43.98348" lon="7.4389">
        <ele>1798.577</ele>
        <time>2020-06-25T13:56:16Z</time>
      </trkpt>
      <trkpt lat="43.98348" lon="7.4389">
        <ele>1798.577</ele>
        <time>2020-06-25T13:56:32Z</time>
      </trkpt>
      <trkpt lat="43.98348" lon="7.4389">
        <ele>1798.577</ele>
        <time>2020-06-25T13:56:48Z</time>
      </trkpt>
      <trkpt lat="43.98354" lon="7.43869">
        <ele>1794.112</ele>
        <time>2020-06-25T13:57:03Z</time>
      </trkpt>
      <trkpt lat="43.98354" lon="7.43869">
        <ele>1793.493</ele>
        <time>2020-06-25T13:57:18Z</time>
      </trkpt>
      <trkpt lat="43.98354" lon="7.43869">
        <ele>1793.493</ele>
        <time>2020-06-25T13:57:34Z</time>
      </trkpt>
      <trkpt lat="43.98354" lon="7.4386">
        <ele>1793.66</ele>
        <time>2020-06-25T13:57:50Z</time>
      </trkpt>
      <trkpt lat="43.98354" lon="7.43859">
        <ele>1793.678</ele>
        <time>2020-06-25T13:58:05Z</time>
      </trkpt>
      <trkpt lat="43.9836" lon="7.43846">
        <ele>1793.009</ele>
        <time>2020-06-25T13:58:21Z</time>
      </trkpt>
      <trkpt lat="43.98352" lon="7.43842">
        <ele>1794.058</ele>
        <time>2020-06-25T13:58:36Z</time>
      </trkpt>
      <trkpt lat="43.98346" lon="7.43829">
        <ele>1796.462</ele>
        <time>2020-06-25T13:58:52Z</time>
      </trkpt>
      <trkpt lat="43.98344" lon="7.43818">
        <ele>1795.4</ele>
        <time>2020-06-25T13:59:08Z</time>
      </trkpt>
      <trkpt lat="43.98339" lon="7.43806">
        <ele>1796.103</ele>
        <time>2020-06-25T13:59:24Z</time>
      </trkpt>
      <trkpt lat="43.98327" lon="7.43801">
        <ele>1798.91</ele>
        <time>2020-06-25T13:59:40Z</time>
      </trkpt>
      <trkpt lat="43.98326" lon="7.43787">
        <ele>1803.099</ele>
        <time>2020-06-25T13:59:56Z</time>
      </trkpt>
      <trkpt lat="43.9834" lon="7.43783">
        <ele>1811.104</ele>
        <time>2020-06-25T14:00:12Z</time>
      </trkpt>
      <trkpt lat="43.98358" lon="7.43788">
        <ele>1813.917</ele>
        <time>2020-06-25T14:00:28Z</time>
      </trkpt>
      <trkpt lat="43.98362" lon="7.43789">
        <ele>1816.598</ele>
        <time>2020-06-25T14:00:44Z</time>
      </trkpt>
      <trkpt lat="43.9836" lon="7.43787">
        <ele>1816.85</ele>
        <time>2020-06-25T14:00:59Z</time>
      </trkpt>
      <trkpt lat="43.9836" lon="7.43787">
        <ele>1816.85</ele>
        <time>2020-06-25T14:01:15Z</time>
      </trkpt>
      <trkpt lat="43.9836" lon="7.43787">
        <ele>1816.85</ele>
        <time>2020-06-25T14:01:30Z</time>
      </trkpt>
      <trkpt lat="43.9836" lon="7.43787">
        <ele>1816.85</ele>
        <time>2020-06-25T14:01:46Z</time>
      </trkpt>
      <trkpt lat="43.9836" lon="7.43786">
        <ele>1817.362</ele>
        <time>2020-06-25T14:02:02Z</time>
      </trkpt>
      <trkpt lat="43.98377" lon="7.43803">
        <ele>1820.397</ele>
        <time>2020-06-25T14:02:18Z</time>
      </trkpt>
      <trkpt lat="43.98393" lon="7.43819">
        <ele>1823.836</ele>
        <time>2020-06-25T14:02:34Z</time>
      </trkpt>
      <trkpt lat="43.98407" lon="7.4384">
        <ele>1823.025</ele>
        <time>2020-06-25T14:02:49Z</time>
      </trkpt>
      <trkpt lat="43.98413" lon="7.43866">
        <ele>1824.853</ele>
        <time>2020-06-25T14:03:04Z</time>
      </trkpt>
      <trkpt lat="43.98424" lon="7.43887">
        <ele>1830.199</ele>
        <time>2020-06-25T14:03:20Z</time>
      </trkpt>
      <trkpt lat="43.98441" lon="7.43893">
        <ele>1831.261</ele>
        <time>2020-06-25T14:03:35Z</time>
      </trkpt>
      <trkpt lat="43.98463" lon="7.43905">
        <ele>1829.339</ele>
        <time>2020-06-25T14:03:51Z</time>
      </trkpt>
      <trkpt lat="43.98479" lon="7.43909">
        <ele>1827.843</ele>
        <time>2020-06-25T14:04:06Z</time>
      </trkpt>
      <trkpt lat="43.98499" lon="7.4391">
        <ele>1825.704</ele>
        <time>2020-06-25T14:04:21Z</time>
      </trkpt>
      <trkpt lat="43.98522" lon="7.43927">
        <ele>1827.115</ele>
        <time>2020-06-25T14:04:37Z</time>
      </trkpt>
      <trkpt lat="43.9854" lon="7.43942">
        <ele>1827.856</ele>
        <time>2020-06-25T14:04:52Z</time>
      </trkpt>
      <trkpt lat="43.98552" lon="7.43959">
        <ele>1828.029</ele>
        <time>2020-06-25T14:05:07Z</time>
      </trkpt>
      <trkpt lat="43.98569" lon="7.43978">
        <ele>1828.792</ele>
        <time>2020-06-25T14:05:23Z</time>
      </trkpt>
      <trkpt lat="43.98588" lon="7.43988">
        <ele>1825.777</ele>
        <time>2020-06-25T14:05:38Z</time>
      </trkpt>
      <trkpt lat="43.98606" lon="7.43987">
        <ele>1824.193</ele>
        <time>2020-06-25T14:05:53Z</time>
      </trkpt>
      <trkpt lat="43.9863" lon="7.43999">
        <ele>1821.15</ele>
        <time>2020-06-25T14:06:08Z</time>
      </trkpt>
      <trkpt lat="43.98635" lon="7.44027">
        <ele>1823.365</ele>
        <time>2020-06-25T14:06:24Z</time>
      </trkpt>
      <trkpt lat="43.98641" lon="7.44054">
        <ele>1822.654</ele>
        <time>2020-06-25T14:06:39Z</time>
      </trkpt>
      <trkpt lat="43.98649" lon="7.44077">
        <ele>1820.455</ele>
        <time>2020-06-25T14:06:54Z</time>
      </trkpt>
      <trkpt lat="43.98664" lon="7.44095">
        <ele>1824.131</ele>
        <time>2020-06-25T14:07:10Z</time>
      </trkpt>
      <trkpt lat="43.98678" lon="7.44111">
        <ele>1825.275</ele>
        <time>2020-06-25T14:07:25Z</time>
      </trkpt>
      <trkpt lat="43.98693" lon="7.44131">
        <ele>1823.669</ele>
        <time>2020-06-25T14:07:41Z</time>
      </trkpt>
      <trkpt lat="43.98708" lon="7.44153">
        <ele>1821.452</ele>
        <time>2020-06-25T14:07:57Z</time>
      </trkpt>
      <trkpt lat="43.98723" lon="7.44176">
        <ele>1824.559</ele>
        <time>2020-06-25T14:08:13Z</time>
      </trkpt>
      <trkpt lat="43.98738" lon="7.44194">
        <ele>1819.8</ele>
        <time>2020-06-25T14:08:29Z</time>
      </trkpt>
      <trkpt lat="43.98754" lon="7.44213">
        <ele>1817.84</ele>
        <time>2020-06-25T14:08:44Z</time>
      </trkpt>
      <trkpt lat="43.98772" lon="7.4423">
        <ele>1816.022</ele>
        <time>2020-06-25T14:08:59Z</time>
      </trkpt>
      <trkpt lat="43.98792" lon="7.44245">
        <ele>1813.578</ele>
        <time>2020-06-25T14:09:15Z</time>
      </trkpt>
      <trkpt lat="43.98809" lon="7.44256">
        <ele>1815.604</ele>
        <time>2020-06-25T14:09:31Z</time>
      </trkpt>
      <trkpt lat="43.98828" lon="7.44269">
        <ele>1815.772</ele>
        <time>2020-06-25T14:09:47Z</time>
      </trkpt>
      <trkpt lat="43.98841" lon="7.44271">
        <ele>1813.188</ele>
        <time>2020-06-25T14:10:02Z</time>
      </trkpt>
      <trkpt lat="43.98863" lon="7.44276">
        <ele>1813.138</ele>
        <time>2020-06-25T14:10:18Z</time>
      </trkpt>
      <trkpt lat="43.98884" lon="7.44282">
        <ele>1813.322</ele>
        <time>2020-06-25T14:10:33Z</time>
      </trkpt>
      <trkpt lat="43.98908" lon="7.44286">
        <ele>1817.537</ele>
        <time>2020-06-25T14:10:49Z</time>
      </trkpt>
      <trkpt lat="43.98923" lon="7.44307">
        <ele>1821.667</ele>
        <time>2020-06-25T14:11:08Z</time>
      </trkpt>
      <trkpt lat="43.98922" lon="7.44311">
        <ele>1819.69</ele>
        <time>2020-06-25T14:11:24Z</time>
      </trkpt>
      <trkpt lat="43.98922" lon="7.44311">
        <ele>1819.69</ele>
        <time>2020-06-25T14:11:40Z</time>
      </trkpt>
      <trkpt lat="43.98923" lon="7.44313">
        <ele>1818.839</ele>
        <time>2020-06-25T14:11:55Z</time>
      </trkpt>
      <trkpt lat="43.98923" lon="7.44313">
        <ele>1818.839</ele>
        <time>2020-06-25T14:12:11Z</time>
      </trkpt>
      <trkpt lat="43.98921" lon="7.44311">
        <ele>1821.342</ele>
        <time>2020-06-25T14:12:27Z</time>
      </trkpt>
      <trkpt lat="43.98922" lon="7.44292">
        <ele>1821.934</ele>
        <time>2020-06-25T14:12:43Z</time>
      </trkpt>
      <trkpt lat="43.98922" lon="7.44292">
        <ele>1821.934</ele>
        <time>2020-06-25T14:12:58Z</time>
      </trkpt>
      <trkpt lat="43.98922" lon="7.44292">
        <ele>1821.934</ele>
        <time>2020-06-25T14:13:13Z</time>
      </trkpt>
      <trkpt lat="43.98922" lon="7.44292">
        <ele>1821.934</ele>
        <time>2020-06-25T14:13:28Z</time>
      </trkpt>
      <trkpt lat="43.98934" lon="7.44301">
        <ele>1830.014</ele>
        <time>2020-06-25T14:13:44Z</time>
      </trkpt>
      <trkpt lat="43.98958" lon="7.44298">
        <ele>1833.268</ele>
        <time>2020-06-25T14:14:00Z</time>
      </trkpt>
      <trkpt lat="43.98968" lon="7.443">
        <ele>1831.565</ele>
        <time>2020-06-25T14:14:16Z</time>
      </trkpt>
      <trkpt lat="43.98984" lon="7.44307">
        <ele>1837.494</ele>
        <time>2020-06-25T14:14:32Z</time>
      </trkpt>
      <trkpt lat="43.98999" lon="7.44301">
        <ele>1838.179</ele>
        <time>2020-06-25T14:14:48Z</time>
      </trkpt>
      <trkpt lat="43.99" lon="7.44299">
        <ele>1837.685</ele>
        <time>2020-06-25T14:15:04Z</time>
      </trkpt>
      <trkpt lat="43.99008" lon="7.44307">
        <ele>1841.942</ele>
        <time>2020-06-25T14:15:20Z</time>
      </trkpt>
      <trkpt lat="43.99017" lon="7.44303">
        <ele>1844.955</ele>
        <time>2020-06-25T14:15:36Z</time>
      </trkpt>
      <trkpt lat="43.99032" lon="7.44299">
        <ele>1841.756</ele>
        <time>2020-06-25T14:15:51Z</time>
      </trkpt>
      <trkpt lat="43.99047" lon="7.44309">
        <ele>1842.947</ele>
        <time>2020-06-25T14:16:06Z</time>
      </trkpt>
      <trkpt lat="43.99064" lon="7.44324">
        <ele>1842.079</ele>
        <time>2020-06-25T14:16:22Z</time>
      </trkpt>
      <trkpt lat="43.99077" lon="7.44327">
        <ele>1841.372</ele>
        <time>2020-06-25T14:16:37Z</time>
      </trkpt>
      <trkpt lat="43.99089" lon="7.44326">
        <ele>1846.724</ele>
        <time>2020-06-25T14:16:53Z</time>
      </trkpt>
      <trkpt lat="43.99103" lon="7.44328">
        <ele>1846.906</ele>
        <time>2020-06-25T14:17:09Z</time>
      </trkpt>
      <trkpt lat="43.99119" lon="7.44331">
        <ele>1844.981</ele>
        <time>2020-06-25T14:17:25Z</time>
      </trkpt>
      <trkpt lat="43.9912" lon="7.44332">
        <ele>1844.948</ele>
        <time>2020-06-25T14:17:41Z</time>
      </trkpt>
      <trkpt lat="43.9912" lon="7.44332">
        <ele>1844.948</ele>
        <time>2020-06-25T14:17:57Z</time>
      </trkpt>
      <trkpt lat="43.99125" lon="7.44322">
        <ele>1849.493</ele>
        <time>2020-06-25T14:18:13Z</time>
      </trkpt>
      <trkpt lat="43.99125" lon="7.44322">
        <ele>1849.494</ele>
        <time>2020-06-25T14:18:29Z</time>
      </trkpt>
      <trkpt lat="43.9913" lon="7.44313">
        <ele>1854.252</ele>
        <time>2020-06-25T14:18:45Z</time>
      </trkpt>
      <trkpt lat="43.99138" lon="7.44299">
        <ele>1859.351</ele>
        <time>2020-06-25T14:19:00Z</time>
      </trkpt>
      <trkpt lat="43.99148" lon="7.44285">
        <ele>1862.209</ele>
        <time>2020-06-25T14:19:16Z</time>
      </trkpt>
      <trkpt lat="43.99152" lon="7.44274">
        <ele>1868.609</ele>
        <time>2020-06-25T14:19:31Z</time>
      </trkpt>
      <trkpt lat="43.99166" lon="7.44276">
        <ele>1871.239</ele>
        <time>2020-06-25T14:19:46Z</time>
      </trkpt>
      <trkpt lat="43.99166" lon="7.44276">
        <ele>1871.239</ele>
        <time>2020-06-25T14:20:02Z</time>
      </trkpt>
      <trkpt lat="43.99166" lon="7.44276">
        <ele>1871.239</ele>
        <time>2020-06-25T14:20:18Z</time>
      </trkpt>
      <trkpt lat="43.99166" lon="7.44276">
        <ele>1871.239</ele>
        <time>2020-06-25T14:20:33Z</time>
      </trkpt>
      <trkpt lat="43.99166" lon="7.44276">
        <ele>1871.239</ele>
        <time>2020-06-25T14:20:49Z</time>
      </trkpt>
      <trkpt lat="43.99166" lon="7.44276">
        <ele>1871.239</ele>
        <time>2020-06-25T14:21:05Z</time>
      </trkpt>
      <trkpt lat="43.99164" lon="7.44277">
        <ele>1870.403</ele>
        <time>2020-06-25T14:21:21Z</time>
      </trkpt>
      <trkpt lat="43.99157" lon="7.44291">
        <ele>1859.771</ele>
        <time>2020-06-25T14:21:36Z</time>
      </trkpt>
      <trkpt lat="43.99147" lon="7.44314">
        <ele>1852.352</ele>
        <time>2020-06-25T14:21:52Z</time>
      </trkpt>
      <trkpt lat="43.99137" lon="7.44324">
        <ele>1845.435</ele>
        <time>2020-06-25T14:22:08Z</time>
      </trkpt>
      <trkpt lat="43.99125" lon="7.44332">
        <ele>1836.35</ele>
        <time>2020-06-25T14:22:24Z</time>
      </trkpt>
      <trkpt lat="43.99124" lon="7.44339">
        <ele>1836.521</ele>
        <time>2020-06-25T14:22:40Z</time>
      </trkpt>
      <trkpt lat="43.99119" lon="7.4434">
        <ele>1835.879</ele>
        <time>2020-06-25T14:22:56Z</time>
      </trkpt>
      <trkpt lat="43.99119" lon="7.4434">
        <ele>1835.879</ele>
        <time>2020-06-25T14:23:12Z</time>
      </trkpt>
      <trkpt lat="43.99119" lon="7.4434">
        <ele>1835.879</ele>
        <time>2020-06-25T14:23:27Z</time>
      </trkpt>
      <trkpt lat="43.99119" lon="7.4434">
        <ele>1835.879</ele>
        <time>2020-06-25T14:23:43Z</time>
      </trkpt>
      <trkpt lat="43.99118" lon="7.44332">
        <ele>1834.454</ele>
        <time>2020-06-25T14:23:58Z</time>
      </trkpt>
      <trkpt lat="43.99118" lon="7.44332">
        <ele>1834.454</ele>
        <time>2020-06-25T14:24:14Z</time>
      </trkpt>
      <trkpt lat="43.99118" lon="7.44332">
        <ele>1834.454</ele>
        <time>2020-06-25T14:24:29Z</time>
      </trkpt>
      <trkpt lat="43.99119" lon="7.44333">
        <ele>1833.744</ele>
        <time>2020-06-25T14:24:45Z</time>
      </trkpt>
      <trkpt lat="43.99119" lon="7.44335">
        <ele>1834.15</ele>
        <time>2020-06-25T14:25:01Z</time>
      </trkpt>
      <trkpt lat="43.99111" lon="7.44333">
        <ele>1836.689</ele>
        <time>2020-06-25T14:25:17Z</time>
      </trkpt>
      <trkpt lat="43.99098" lon="7.44328">
        <ele>1831.736</ele>
        <time>2020-06-25T14:25:33Z</time>
      </trkpt>
      <trkpt lat="43.99094" lon="7.44328">
        <ele>1830.377</ele>
        <time>2020-06-25T14:25:48Z</time>
      </trkpt>
      <trkpt lat="43.99094" lon="7.44328">
        <ele>1830.377</ele>
        <time>2020-06-25T14:26:04Z</time>
      </trkpt>
      <trkpt lat="43.99087" lon="7.44323">
        <ele>1832.847</ele>
        <time>2020-06-25T14:26:19Z</time>
      </trkpt>
      <trkpt lat="43.99087" lon="7.44323">
        <ele>1832.847</ele>
        <time>2020-06-25T14:26:35Z</time>
      </trkpt>
      <trkpt lat="43.99086" lon="7.44323">
        <ele>1834.15</ele>
        <time>2020-06-25T14:26:50Z</time>
      </trkpt>
      <trkpt lat="43.99086" lon="7.44323">
        <ele>1834.15</ele>
        <time>2020-06-25T14:27:06Z</time>
      </trkpt>
      <trkpt lat="43.99086" lon="7.44323">
        <ele>1834.15</ele>
        <time>2020-06-25T14:27:21Z</time>
      </trkpt>
      <trkpt lat="43.99086" lon="7.44323">
        <ele>1834.15</ele>
        <time>2020-06-25T14:27:37Z</time>
      </trkpt>
      <trkpt lat="43.99084" lon="7.44326">
        <ele>1833.267</ele>
        <time>2020-06-25T14:27:53Z</time>
      </trkpt>
      <trkpt lat="43.99073" lon="7.44324">
        <ele>1829.465</ele>
        <time>2020-06-25T14:28:08Z</time>
      </trkpt>
      <trkpt lat="43.99054" lon="7.44317">
        <ele>1829.764</ele>
        <time>2020-06-25T14:28:24Z</time>
      </trkpt>
      <trkpt lat="43.99038" lon="7.44311">
        <ele>1829.019</ele>
        <time>2020-06-25T14:28:39Z</time>
      </trkpt>
      <trkpt lat="43.99026" lon="7.44311">
        <ele>1828.077</ele>
        <time>2020-06-25T14:28:54Z</time>
      </trkpt>
      <trkpt lat="43.99007" lon="7.44306">
        <ele>1832.079</ele>
        <time>2020-06-25T14:29:10Z</time>
      </trkpt>
      <trkpt lat="43.98999" lon="7.44303">
        <ele>1828.94</ele>
        <time>2020-06-25T14:29:25Z</time>
      </trkpt>
      <trkpt lat="43.98991" lon="7.44305">
        <ele>1821.046</ele>
        <time>2020-06-25T14:29:41Z</time>
      </trkpt>
      <trkpt lat="43.98977" lon="7.44313">
        <ele>1818.049</ele>
        <time>2020-06-25T14:29:57Z</time>
      </trkpt>
      <trkpt lat="43.98962" lon="7.44311">
        <ele>1814.998</ele>
        <time>2020-06-25T14:30:13Z</time>
      </trkpt>
      <trkpt lat="43.98951" lon="7.44308">
        <ele>1813.647</ele>
        <time>2020-06-25T14:30:29Z</time>
      </trkpt>
      <trkpt lat="43.98938" lon="7.44312">
        <ele>1807.712</ele>
        <time>2020-06-25T14:30:44Z</time>
      </trkpt>
      <trkpt lat="43.9892" lon="7.4431">
        <ele>1804.865</ele>
        <time>2020-06-25T14:31:00Z</time>
      </trkpt>
      <trkpt lat="43.989" lon="7.44316">
        <ele>1805.753</ele>
        <time>2020-06-25T14:31:16Z</time>
      </trkpt>
      <trkpt lat="43.98894" lon="7.44307">
        <ele>1802.944</ele>
        <time>2020-06-25T14:31:31Z</time>
      </trkpt>
      <trkpt lat="43.98876" lon="7.44302">
        <ele>1802.459</ele>
        <time>2020-06-25T14:31:47Z</time>
      </trkpt>
      <trkpt lat="43.98856" lon="7.44296">
        <ele>1799.467</ele>
        <time>2020-06-25T14:32:03Z</time>
      </trkpt>
      <trkpt lat="43.98837" lon="7.44292">
        <ele>1798.622</ele>
        <time>2020-06-25T14:32:19Z</time>
      </trkpt>
      <trkpt lat="43.98824" lon="7.44295">
        <ele>1800.264</ele>
        <time>2020-06-25T14:32:34Z</time>
      </trkpt>
      <trkpt lat="43.98823" lon="7.44293">
        <ele>1798.481</ele>
        <time>2020-06-25T14:32:50Z</time>
      </trkpt>
      <trkpt lat="43.9882" lon="7.44293">
        <ele>1796.179</ele>
        <time>2020-06-25T14:33:06Z</time>
      </trkpt>
      <trkpt lat="43.98817" lon="7.44294">
        <ele>1794.114</ele>
        <time>2020-06-25T14:33:21Z</time>
      </trkpt>
      <trkpt lat="43.98817" lon="7.44294">
        <ele>1794.114</ele>
        <time>2020-06-25T14:33:37Z</time>
      </trkpt>
      <trkpt lat="43.98818" lon="7.44296">
        <ele>1795.645</ele>
        <time>2020-06-25T14:33:53Z</time>
      </trkpt>
      <trkpt lat="43.98817" lon="7.44288">
        <ele>1799.739</ele>
        <time>2020-06-25T14:34:09Z</time>
      </trkpt>
      <trkpt lat="43.98819" lon="7.4428">
        <ele>1799.247</ele>
        <time>2020-06-25T14:34:24Z</time>
      </trkpt>
      <trkpt lat="43.98819" lon="7.4428">
        <ele>1799.247</ele>
        <time>2020-06-25T14:34:40Z</time>
      </trkpt>
      <trkpt lat="43.98819" lon="7.4428">
        <ele>1799.247</ele>
        <time>2020-06-25T14:34:55Z</time>
      </trkpt>
      <trkpt lat="43.98819" lon="7.44278">
        <ele>1805.865</ele>
        <time>2020-06-25T14:35:10Z</time>
      </trkpt>
      <trkpt lat="43.98812" lon="7.44287">
        <ele>1809.177</ele>
        <time>2020-06-25T14:35:26Z</time>
      </trkpt>
      <trkpt lat="43.98811" lon="7.44291">
        <ele>1807.793</ele>
        <time>2020-06-25T14:35:41Z</time>
      </trkpt>
      <trkpt lat="43.98812" lon="7.44295">
        <ele>1809.598</ele>
        <time>2020-06-25T14:35:57Z</time>
      </trkpt>
      <trkpt lat="43.98811" lon="7.44299">
        <ele>1815.063</ele>
        <time>2020-06-25T14:36:13Z</time>
      </trkpt>
      <trkpt lat="43.98813" lon="7.44293">
        <ele>1814.888</ele>
        <time>2020-06-25T14:36:29Z</time>
      </trkpt>
      <trkpt lat="43.98808" lon="7.44285">
        <ele>1817.25</ele>
        <time>2020-06-25T14:36:45Z</time>
      </trkpt>
      <trkpt lat="43.98811" lon="7.44295">
        <ele>1817.538</ele>
        <time>2020-06-25T14:37:01Z</time>
      </trkpt>
      <trkpt lat="43.98811" lon="7.44297">
        <ele>1819.252</ele>
        <time>2020-06-25T14:37:16Z</time>
      </trkpt>
      <trkpt lat="43.98811" lon="7.44297">
        <ele>1819.252</ele>
        <time>2020-06-25T14:37:32Z</time>
      </trkpt>
      <trkpt lat="43.98811" lon="7.44297">
        <ele>1819.252</ele>
        <time>2020-06-25T14:37:47Z</time>
      </trkpt>
      <trkpt lat="43.98811" lon="7.44297">
        <ele>1819.252</ele>
        <time>2020-06-25T14:38:03Z</time>
      </trkpt>
      <trkpt lat="43.98811" lon="7.44297">
        <ele>1819.252</ele>
        <time>2020-06-25T14:38:18Z</time>
      </trkpt>
      <trkpt lat="43.98815" lon="7.44287">
        <ele>1820.588</ele>
        <time>2020-06-25T14:38:34Z</time>
      </trkpt>
      <trkpt lat="43.98817" lon="7.44288">
        <ele>1820.192</ele>
        <time>2020-06-25T14:38:50Z</time>
      </trkpt>
      <trkpt lat="43.98817" lon="7.44288">
        <ele>1820.192</ele>
        <time>2020-06-25T14:39:06Z</time>
      </trkpt>
      <trkpt lat="43.98813" lon="7.44288">
        <ele>1820.514</ele>
        <time>2020-06-25T14:39:21Z</time>
      </trkpt>
      <trkpt lat="43.98812" lon="7.4428">
        <ele>1832.104</ele>
        <time>2020-06-25T14:39:37Z</time>
      </trkpt>
      <trkpt lat="43.98812" lon="7.4428">
        <ele>1832.104</ele>
        <time>2020-06-25T14:39:53Z</time>
      </trkpt>
      <trkpt lat="43.98812" lon="7.4428">
        <ele>1832.104</ele>
        <time>2020-06-25T14:40:08Z</time>
      </trkpt>
      <trkpt lat="43.98812" lon="7.4428">
        <ele>1832.104</ele>
        <time>2020-06-25T14:40:24Z</time>
      </trkpt>
      <trkpt lat="43.98812" lon="7.4428">
        <ele>1832.104</ele>
        <time>2020-06-25T14:40:40Z</time>
      </trkpt>
      <trkpt lat="43.98812" lon="7.4428">
        <ele>1832.104</ele>
        <time>2020-06-25T14:40:55Z</time>
      </trkpt>
      <trkpt lat="43.98812" lon="7.4428">
        <ele>1832.104</ele>
        <time>2020-06-25T14:41:11Z</time>
      </trkpt>
      <trkpt lat="43.98812" lon="7.4428">
        <ele>1832.104</ele>
        <time>2020-06-25T14:41:27Z</time>
      </trkpt>
      <trkpt lat="43.98812" lon="7.4428">
        <ele>1832.104</ele>
        <time>2020-06-25T14:41:42Z</time>
      </trkpt>
      <trkpt lat="43.98812" lon="7.4428">
        <ele>1832.104</ele>
        <time>2020-06-25T14:41:57Z</time>
      </trkpt>
      <trkpt lat="43.98812" lon="7.4428">
        <ele>1832.104</ele>
        <time>2020-06-25T14:42:13Z</time>
      </trkpt>
      <trkpt lat="43.98812" lon="7.4428">
        <ele>1832.104</ele>
        <time>2020-06-25T14:42:29Z</time>
      </trkpt>
      <trkpt lat="43.98812" lon="7.4428">
        <ele>1832.104</ele>
        <time>2020-06-25T14:42:44Z</time>
      </trkpt>
      <trkpt lat="43.98812" lon="7.4428">
        <ele>1832.104</ele>
        <time>2020-06-25T14:43:00Z</time>
      </trkpt>
      <trkpt lat="43.98812" lon="7.4428">
        <ele>1832.104</ele>
        <time>2020-06-25T14:43:15Z</time>
      </trkpt>
      <trkpt lat="43.98812" lon="7.4428">
        <ele>1832.104</ele>
        <time>2020-06-25T14:43:30Z</time>
      </trkpt>
      <trkpt lat="43.98812" lon="7.4428">
        <ele>1832.104</ele>
        <time>2020-06-25T14:43:46Z</time>
      </trkpt>
      <trkpt lat="43.98812" lon="7.4428">
        <ele>1832.104</ele>
        <time>2020-06-25T14:44:01Z</time>
      </trkpt>
      <trkpt lat="43.98812" lon="7.4428">
        <ele>1832.104</ele>
        <time>2020-06-25T14:44:17Z</time>
      </trkpt>
      <trkpt lat="43.98812" lon="7.4428">
        <ele>1832.104</ele>
        <time>2020-06-25T14:44:33Z</time>
      </trkpt>
      <trkpt lat="43.98812" lon="7.4428">
        <ele>1832.104</ele>
        <time>2020-06-25T14:44:49Z</time>
      </trkpt>
      <trkpt lat="43.98812" lon="7.4428">
        <ele>1832.104</ele>
        <time>2020-06-25T14:45:05Z</time>
      </trkpt>
      <trkpt lat="43.98812" lon="7.4428">
        <ele>1832.104</ele>
        <time>2020-06-25T14:45:20Z</time>
      </trkpt>
      <trkpt lat="43.98812" lon="7.4428">
        <ele>1832.104</ele>
        <time>2020-06-25T14:45:35Z</time>
      </trkpt>
      <trkpt lat="43.98812" lon="7.4428">
        <ele>1832.104</ele>
        <time>2020-06-25T14:45:51Z</time>
      </trkpt>
      <trkpt lat="43.98812" lon="7.4428">
        <ele>1832.104</ele>
        <time>2020-06-25T14:46:06Z</time>
      </trkpt>
      <trkpt lat="43.98812" lon="7.4428">
        <ele>1832.104</ele>
        <time>2020-06-25T14:46:22Z</time>
      </trkpt>
      <trkpt lat="43.98812" lon="7.4428">
        <ele>1832.104</ele>
        <time>2020-06-25T14:46:38Z</time>
      </trkpt>
      <trkpt lat="43.98812" lon="7.4428">
        <ele>1832.104</ele>
        <time>2020-06-25T14:46:54Z</time>
      </trkpt>
      <trkpt lat="43.98812" lon="7.4428">
        <ele>1832.104</ele>
        <time>2020-06-25T14:47:10Z</time>
      </trkpt>
      <trkpt lat="43.98812" lon="7.4428">
        <ele>1832.104</ele>
        <time>2020-06-25T14:47:25Z</time>
      </trkpt>
      <trkpt lat="43.98812" lon="7.4428">
        <ele>1832.104</ele>
        <time>2020-06-25T14:47:40Z</time>
      </trkpt>
      <trkpt lat="43.98812" lon="7.4428">
        <ele>1832.104</ele>
        <time>2020-06-25T14:47:56Z</time>
      </trkpt>
      <trkpt lat="43.98812" lon="7.4428">
        <ele>1832.104</ele>
        <time>2020-06-25T14:48:12Z</time>
      </trkpt>
      <trkpt lat="43.98812" lon="7.4428">
        <ele>1832.104</ele>
        <time>2020-06-25T14:48:28Z</time>
      </trkpt>
      <trkpt lat="43.98812" lon="7.4428">
        <ele>1832.104</ele>
        <time>2020-06-25T14:48:43Z</time>
      </trkpt>
      <trkpt lat="43.98812" lon="7.4428">
        <ele>1832.104</ele>
        <time>2020-06-25T14:48:58Z</time>
      </trkpt>
      <trkpt lat="43.98812" lon="7.4428">
        <ele>1832.104</ele>
        <time>2020-06-25T14:49:14Z</time>
      </trkpt>
      <trkpt lat="43.98812" lon="7.4428">
        <ele>1832.104</ele>
        <time>2020-06-25T14:49:30Z</time>
      </trkpt>
      <trkpt lat="43.98811" lon="7.44279">
        <ele>1832.59</ele>
        <time>2020-06-25T14:49:45Z</time>
      </trkpt>
      <trkpt lat="43.98811" lon="7.44279">
        <ele>1832.59</ele>
        <time>2020-06-25T14:50:01Z</time>
      </trkpt>
      <trkpt lat="43.98811" lon="7.44279">
        <ele>1832.59</ele>
        <time>2020-06-25T14:50:17Z</time>
      </trkpt>
      <trkpt lat="43.98811" lon="7.44279">
        <ele>1832.59</ele>
        <time>2020-06-25T14:50:32Z</time>
      </trkpt>
      <trkpt lat="43.98811" lon="7.44279">
        <ele>1832.59</ele>
        <time>2020-06-25T14:50:48Z</time>
      </trkpt>
      <trkpt lat="43.98811" lon="7.44279">
        <ele>1832.59</ele>
        <time>2020-06-25T14:51:03Z</time>
      </trkpt>
      <trkpt lat="43.98811" lon="7.44279">
        <ele>1832.59</ele>
        <time>2020-06-25T14:51:19Z</time>
      </trkpt>
      <trkpt lat="43.98811" lon="7.44279">
        <ele>1832.59</ele>
        <time>2020-06-25T14:51:34Z</time>
      </trkpt>
      <trkpt lat="43.98811" lon="7.44279">
        <ele>1832.59</ele>
        <time>2020-06-25T14:51:50Z</time>
      </trkpt>
      <trkpt lat="43.98811" lon="7.44279">
        <ele>1832.59</ele>
        <time>2020-06-25T14:52:06Z</time>
      </trkpt>
      <trkpt lat="43.98811" lon="7.44279">
        <ele>1832.59</ele>
        <time>2020-06-25T14:52:22Z</time>
      </trkpt>
      <trkpt lat="43.98811" lon="7.44279">
        <ele>1832.59</ele>
        <time>2020-06-25T14:52:38Z</time>
      </trkpt>
      <trkpt lat="43.98811" lon="7.44279">
        <ele>1832.59</ele>
        <time>2020-06-25T14:52:53Z</time>
      </trkpt>
      <trkpt lat="43.98811" lon="7.44279">
        <ele>1832.59</ele>
        <time>2020-06-25T14:53:09Z</time>
      </trkpt>
      <trkpt lat="43.98811" lon="7.44279">
        <ele>1832.59</ele>
        <time>2020-06-25T14:53:25Z</time>
      </trkpt>
      <trkpt lat="43.98811" lon="7.44279">
        <ele>1832.59</ele>
        <time>2020-06-25T14:53:41Z</time>
      </trkpt>
      <trkpt lat="43.98811" lon="7.44279">
        <ele>1832.59</ele>
        <time>2020-06-25T14:53:56Z</time>
      </trkpt>
      <trkpt lat="43.98811" lon="7.44279">
        <ele>1832.59</ele>
        <time>2020-06-25T14:54:12Z</time>
      </trkpt>
      <trkpt lat="43.98811" lon="7.44279">
        <ele>1832.59</ele>
        <time>2020-06-25T14:54:27Z</time>
      </trkpt>
      <trkpt lat="43.98811" lon="7.44279">
        <ele>1832.59</ele>
        <time>2020-06-25T14:54:43Z</time>
      </trkpt>
      <trkpt lat="43.98811" lon="7.44279">
        <ele>1832.59</ele>
        <time>2020-06-25T14:54:59Z</time>
      </trkpt>
      <trkpt lat="43.98811" lon="7.44279">
        <ele>1832.59</ele>
        <time>2020-06-25T14:55:15Z</time>
      </trkpt>
      <trkpt lat="43.98811" lon="7.44279">
        <ele>1832.59</ele>
        <time>2020-06-25T14:55:30Z</time>
      </trkpt>
      <trkpt lat="43.98815" lon="7.44281">
        <ele>1832.738</ele>
        <time>2020-06-25T14:55:46Z</time>
      </trkpt>
      <trkpt lat="43.98815" lon="7.44281">
        <ele>1832.738</ele>
        <time>2020-06-25T14:56:02Z</time>
      </trkpt>
      <trkpt lat="43.98815" lon="7.44281">
        <ele>1832.738</ele>
        <time>2020-06-25T14:56:18Z</time>
      </trkpt>
      <trkpt lat="43.98815" lon="7.44281">
        <ele>1832.738</ele>
        <time>2020-06-25T14:56:34Z</time>
      </trkpt>
      <trkpt lat="43.98815" lon="7.44281">
        <ele>1832.738</ele>
        <time>2020-06-25T14:56:50Z</time>
      </trkpt>
      <trkpt lat="43.98815" lon="7.44281">
        <ele>1832.738</ele>
        <time>2020-06-25T14:57:05Z</time>
      </trkpt>
      <trkpt lat="43.98815" lon="7.44281">
        <ele>1832.738</ele>
        <time>2020-06-25T14:57:21Z</time>
      </trkpt>
      <trkpt lat="43.98815" lon="7.44281">
        <ele>1832.738</ele>
        <time>2020-06-25T14:57:37Z</time>
      </trkpt>
      <trkpt lat="43.98815" lon="7.44281">
        <ele>1832.738</ele>
        <time>2020-06-25T14:57:53Z</time>
      </trkpt>
      <trkpt lat="43.98815" lon="7.44281">
        <ele>1832.738</ele>
        <time>2020-06-25T14:58:08Z</time>
      </trkpt>
      <trkpt lat="43.98815" lon="7.44281">
        <ele>1832.738</ele>
        <time>2020-06-25T14:58:23Z</time>
      </trkpt>
      <trkpt lat="43.98815" lon="7.44281">
        <ele>1832.738</ele>
        <time>2020-06-25T14:58:38Z</time>
      </trkpt>
      <trkpt lat="43.98815" lon="7.44281">
        <ele>1832.738</ele>
        <time>2020-06-25T14:58:54Z</time>
      </trkpt>
      <trkpt lat="43.98815" lon="7.44281">
        <ele>1832.738</ele>
        <time>2020-06-25T14:59:10Z</time>
      </trkpt>
      <trkpt lat="43.98815" lon="7.44281">
        <ele>1832.738</ele>
        <time>2020-06-25T14:59:25Z</time>
      </trkpt>
      <trkpt lat="43.98815" lon="7.44281">
        <ele>1832.738</ele>
        <time>2020-06-25T14:59:41Z</time>
      </trkpt>
      <trkpt lat="43.98815" lon="7.44281">
        <ele>1832.738</ele>
        <time>2020-06-25T14:59:56Z</time>
      </trkpt>
      <trkpt lat="43.98815" lon="7.44281">
        <ele>1832.738</ele>
        <time>2020-06-25T15:00:12Z</time>
      </trkpt>
      <trkpt lat="43.98815" lon="7.44281">
        <ele>1832.738</ele>
        <time>2020-06-25T15:00:28Z</time>
      </trkpt>
      <trkpt lat="43.98815" lon="7.44281">
        <ele>1832.738</ele>
        <time>2020-06-25T15:00:44Z</time>
      </trkpt>
      <trkpt lat="43.98815" lon="7.44281">
        <ele>1832.738</ele>
        <time>2020-06-25T15:01:00Z</time>
      </trkpt>
      <trkpt lat="43.98815" lon="7.44281">
        <ele>1832.738</ele>
        <time>2020-06-25T15:01:15Z</time>
      </trkpt>
      <trkpt lat="43.98819" lon="7.44286">
        <ele>1831.695</ele>
        <time>2020-06-25T15:01:31Z</time>
      </trkpt>
      <trkpt lat="43.98819" lon="7.44286">
        <ele>1831.695</ele>
        <time>2020-06-25T15:01:46Z</time>
      </trkpt>
      <trkpt lat="43.98819" lon="7.44286">
        <ele>1831.695</ele>
        <time>2020-06-25T15:02:02Z</time>
      </trkpt>
      <trkpt lat="43.98819" lon="7.44286">
        <ele>1831.695</ele>
        <time>2020-06-25T15:02:17Z</time>
      </trkpt>
      <trkpt lat="43.98819" lon="7.44286">
        <ele>1831.695</ele>
        <time>2020-06-25T15:02:32Z</time>
      </trkpt>
      <trkpt lat="43.98819" lon="7.44286">
        <ele>1831.695</ele>
        <time>2020-06-25T15:02:48Z</time>
      </trkpt>
      <trkpt lat="43.98819" lon="7.44286">
        <ele>1831.695</ele>
        <time>2020-06-25T15:03:04Z</time>
      </trkpt>
      <trkpt lat="43.98819" lon="7.44286">
        <ele>1831.695</ele>
        <time>2020-06-25T15:03:20Z</time>
      </trkpt>
      <trkpt lat="43.98819" lon="7.44286">
        <ele>1831.695</ele>
        <time>2020-06-25T15:03:36Z</time>
      </trkpt>
      <trkpt lat="43.98819" lon="7.44286">
        <ele>1831.695</ele>
        <time>2020-06-25T15:03:51Z</time>
      </trkpt>
      <trkpt lat="43.98819" lon="7.44286">
        <ele>1831.695</ele>
        <time>2020-06-25T15:04:07Z</time>
      </trkpt>
      <trkpt lat="43.98819" lon="7.44286">
        <ele>1831.695</ele>
        <time>2020-06-25T15:04:23Z</time>
      </trkpt>
      <trkpt lat="43.98819" lon="7.44286">
        <ele>1831.695</ele>
        <time>2020-06-25T15:04:38Z</time>
      </trkpt>
      <trkpt lat="43.98819" lon="7.44286">
        <ele>1831.695</ele>
        <time>2020-06-25T15:04:54Z</time>
      </trkpt>
      <trkpt lat="43.98819" lon="7.44286">
        <ele>1831.695</ele>
        <time>2020-06-25T15:05:10Z</time>
      </trkpt>
      <trkpt lat="43.98819" lon="7.44286">
        <ele>1831.695</ele>
        <time>2020-06-25T15:05:26Z</time>
      </trkpt>
      <trkpt lat="43.98819" lon="7.44286">
        <ele>1831.695</ele>
        <time>2020-06-25T15:05:42Z</time>
      </trkpt>
      <trkpt lat="43.98819" lon="7.44286">
        <ele>1831.695</ele>
        <time>2020-06-25T15:05:58Z</time>
      </trkpt>
      <trkpt lat="43.98819" lon="7.44286">
        <ele>1831.695</ele>
        <time>2020-06-25T15:06:14Z</time>
      </trkpt>
      <trkpt lat="43.98819" lon="7.44286">
        <ele>1831.695</ele>
        <time>2020-06-25T15:06:30Z</time>
      </trkpt>
      <trkpt lat="43.98819" lon="7.44286">
        <ele>1831.695</ele>
        <time>2020-06-25T15:06:46Z</time>
      </trkpt>
      <trkpt lat="43.98819" lon="7.44286">
        <ele>1831.695</ele>
        <time>2020-06-25T15:07:02Z</time>
      </trkpt>
      <trkpt lat="43.98819" lon="7.44286">
        <ele>1831.695</ele>
        <time>2020-06-25T15:07:17Z</time>
      </trkpt>
      <trkpt lat="43.98819" lon="7.44286">
        <ele>1831.695</ele>
        <time>2020-06-25T15:07:33Z</time>
      </trkpt>
      <trkpt lat="43.98819" lon="7.44286">
        <ele>1831.695</ele>
        <time>2020-06-25T15:07:48Z</time>
      </trkpt>
      <trkpt lat="43.98819" lon="7.44286">
        <ele>1831.695</ele>
        <time>2020-06-25T15:08:04Z</time>
      </trkpt>
      <trkpt lat="43.98819" lon="7.44286">
        <ele>1831.695</ele>
        <time>2020-06-25T15:08:20Z</time>
      </trkpt>
      <trkpt lat="43.98819" lon="7.44286">
        <ele>1831.695</ele>
        <time>2020-06-25T15:08:36Z</time>
      </trkpt>
      <trkpt lat="43.98819" lon="7.44286">
        <ele>1831.695</ele>
        <time>2020-06-25T15:08:51Z</time>
      </trkpt>
      <trkpt lat="43.98815" lon="7.44292">
        <ele>1836.681</ele>
        <time>2020-06-25T15:09:06Z</time>
      </trkpt>
      <trkpt lat="43.98815" lon="7.44292">
        <ele>1836.681</ele>
        <time>2020-06-25T15:09:21Z</time>
      </trkpt>
      <trkpt lat="43.98815" lon="7.44292">
        <ele>1836.681</ele>
        <time>2020-06-25T15:09:37Z</time>
      </trkpt>
      <trkpt lat="43.98815" lon="7.44292">
        <ele>1836.681</ele>
        <time>2020-06-25T15:09:53Z</time>
      </trkpt>
      <trkpt lat="43.98815" lon="7.44292">
        <ele>1836.681</ele>
        <time>2020-06-25T15:10:08Z</time>
      </trkpt>
      <trkpt lat="43.98815" lon="7.44292">
        <ele>1836.681</ele>
        <time>2020-06-25T15:10:24Z</time>
      </trkpt>
      <trkpt lat="43.98815" lon="7.44292">
        <ele>1836.681</ele>
        <time>2020-06-25T15:10:40Z</time>
      </trkpt>
      <trkpt lat="43.98815" lon="7.44292">
        <ele>1836.681</ele>
        <time>2020-06-25T15:10:55Z</time>
      </trkpt>
      <trkpt lat="43.98815" lon="7.44292">
        <ele>1836.681</ele>
        <time>2020-06-25T15:11:11Z</time>
      </trkpt>
      <trkpt lat="43.98815" lon="7.44292">
        <ele>1836.681</ele>
        <time>2020-06-25T15:11:27Z</time>
      </trkpt>
      <trkpt lat="43.98815" lon="7.44292">
        <ele>1836.681</ele>
        <time>2020-06-25T15:11:42Z</time>
      </trkpt>
      <trkpt lat="43.98815" lon="7.44292">
        <ele>1836.681</ele>
        <time>2020-06-25T15:11:58Z</time>
      </trkpt>
      <trkpt lat="43.98815" lon="7.44292">
        <ele>1836.681</ele>
        <time>2020-06-25T15:12:14Z</time>
      </trkpt>
      <trkpt lat="43.98815" lon="7.44292">
        <ele>1836.681</ele>
        <time>2020-06-25T15:12:30Z</time>
      </trkpt>
      <trkpt lat="43.98815" lon="7.44292">
        <ele>1836.681</ele>
        <time>2020-06-25T15:12:46Z</time>
      </trkpt>
      <trkpt lat="43.98815" lon="7.44292">
        <ele>1836.681</ele>
        <time>2020-06-25T15:13:02Z</time>
      </trkpt>
      <trkpt lat="43.98815" lon="7.44292">
        <ele>1836.681</ele>
        <time>2020-06-25T15:13:17Z</time>
      </trkpt>
      <trkpt lat="43.98815" lon="7.44292">
        <ele>1836.681</ele>
        <time>2020-06-25T15:13:33Z</time>
      </trkpt>
      <trkpt lat="43.98815" lon="7.44292">
        <ele>1836.681</ele>
        <time>2020-06-25T15:13:49Z</time>
      </trkpt>
      <trkpt lat="43.98815" lon="7.44292">
        <ele>1836.681</ele>
        <time>2020-06-25T15:14:04Z</time>
      </trkpt>
      <trkpt lat="43.98815" lon="7.44292">
        <ele>1836.681</ele>
        <time>2020-06-25T15:14:20Z</time>
      </trkpt>
      <trkpt lat="43.98815" lon="7.44292">
        <ele>1836.681</ele>
        <time>2020-06-25T15:14:36Z</time>
      </trkpt>
      <trkpt lat="43.98815" lon="7.44292">
        <ele>1836.681</ele>
        <time>2020-06-25T15:14:52Z</time>
      </trkpt>
      <trkpt lat="43.98815" lon="7.44292">
        <ele>1836.681</ele>
        <time>2020-06-25T15:15:08Z</time>
      </trkpt>
      <trkpt lat="43.98815" lon="7.44292">
        <ele>1836.681</ele>
        <time>2020-06-25T15:15:23Z</time>
      </trkpt>
      <trkpt lat="43.98815" lon="7.44292">
        <ele>1836.681</ele>
        <time>2020-06-25T15:15:38Z</time>
      </trkpt>
      <trkpt lat="43.98815" lon="7.44292">
        <ele>1836.681</ele>
        <time>2020-06-25T15:15:54Z</time>
      </trkpt>
      <trkpt lat="43.98815" lon="7.44292">
        <ele>1836.681</ele>
        <time>2020-06-25T15:16:10Z</time>
      </trkpt>
      <trkpt lat="43.98815" lon="7.44292">
        <ele>1836.681</ele>
        <time>2020-06-25T15:16:25Z</time>
      </trkpt>
      <trkpt lat="43.98815" lon="7.44292">
        <ele>1836.681</ele>
        <time>2020-06-25T15:16:41Z</time>
      </trkpt>
      <trkpt lat="43.98815" lon="7.44292">
        <ele>1836.681</ele>
        <time>2020-06-25T15:16:56Z</time>
      </trkpt>
      <trkpt lat="43.98815" lon="7.44292">
        <ele>1836.681</ele>
        <time>2020-06-25T15:17:12Z</time>
      </trkpt>
      <trkpt lat="43.98815" lon="7.44292">
        <ele>1836.681</ele>
        <time>2020-06-25T15:17:28Z</time>
      </trkpt>
      <trkpt lat="43.98815" lon="7.44292">
        <ele>1836.681</ele>
        <time>2020-06-25T15:17:43Z</time>
      </trkpt>
      <trkpt lat="43.98815" lon="7.44292">
        <ele>1836.681</ele>
        <time>2020-06-25T15:17:58Z</time>
      </trkpt>
      <trkpt lat="43.98815" lon="7.44292">
        <ele>1836.681</ele>
        <time>2020-06-25T15:18:14Z</time>
      </trkpt>
      <trkpt lat="43.98815" lon="7.44292">
        <ele>1836.681</ele>
        <time>2020-06-25T15:18:30Z</time>
      </trkpt>
      <trkpt lat="43.98815" lon="7.44292">
        <ele>1836.681</ele>
        <time>2020-06-25T15:18:46Z</time>
      </trkpt>
      <trkpt lat="43.98815" lon="7.44292">
        <ele>1836.681</ele>
        <time>2020-06-25T15:19:02Z</time>
      </trkpt>
      <trkpt lat="43.98815" lon="7.44292">
        <ele>1836.681</ele>
        <time>2020-06-25T15:19:18Z</time>
      </trkpt>
      <trkpt lat="43.98815" lon="7.44292">
        <ele>1836.681</ele>
        <time>2020-06-25T15:19:33Z</time>
      </trkpt>
      <trkpt lat="43.98815" lon="7.44292">
        <ele>1836.681</ele>
        <time>2020-06-25T15:19:49Z</time>
      </trkpt>
      <trkpt lat="43.98815" lon="7.44292">
        <ele>1836.681</ele>
        <time>2020-06-25T15:20:05Z</time>
      </trkpt>
      <trkpt lat="43.98815" lon="7.44292">
        <ele>1836.681</ele>
        <time>2020-06-25T15:20:20Z</time>
      </trkpt>
      <trkpt lat="43.98815" lon="7.44292">
        <ele>1836.681</ele>
        <time>2020-06-25T15:20:35Z</time>
      </trkpt>
      <trkpt lat="43.98815" lon="7.44292">
        <ele>1836.681</ele>
        <time>2020-06-25T15:20:50Z</time>
      </trkpt>
      <trkpt lat="43.98815" lon="7.44292">
        <ele>1836.681</ele>
        <time>2020-06-25T15:21:06Z</time>
      </trkpt>
      <trkpt lat="43.98815" lon="7.44292">
        <ele>1836.681</ele>
        <time>2020-06-25T15:21:21Z</time>
      </trkpt>
      <trkpt lat="43.98815" lon="7.44292">
        <ele>1836.681</ele>
        <time>2020-06-25T15:21:37Z</time>
      </trkpt>
      <trkpt lat="43.98815" lon="7.44292">
        <ele>1836.681</ele>
        <time>2020-06-25T15:21:53Z</time>
      </trkpt>
      <trkpt lat="43.98815" lon="7.44292">
        <ele>1836.681</ele>
        <time>2020-06-25T15:22:09Z</time>
      </trkpt>
      <trkpt lat="43.98815" lon="7.44292">
        <ele>1836.681</ele>
        <time>2020-06-25T15:22:25Z</time>
      </trkpt>
      <trkpt lat="43.98815" lon="7.44292">
        <ele>1836.681</ele>
        <time>2020-06-25T15:22:40Z</time>
      </trkpt>
      <trkpt lat="43.98815" lon="7.44292">
        <ele>1836.681</ele>
        <time>2020-06-25T15:22:55Z</time>
      </trkpt>
      <trkpt lat="43.98815" lon="7.44292">
        <ele>1836.681</ele>
        <time>2020-06-25T15:23:11Z</time>
      </trkpt>
      <trkpt lat="43.98817" lon="7.44295">
        <ele>1834.366</ele>
        <time>2020-06-25T15:23:27Z</time>
      </trkpt>
      <trkpt lat="43.98817" lon="7.44295">
        <ele>1834.366</ele>
        <time>2020-06-25T15:23:43Z</time>
      </trkpt>
      <trkpt lat="43.98817" lon="7.44295">
        <ele>1834.366</ele>
        <time>2020-06-25T15:23:58Z</time>
      </trkpt>
      <trkpt lat="43.98817" lon="7.44295">
        <ele>1834.366</ele>
        <time>2020-06-25T15:24:14Z</time>
      </trkpt>
      <trkpt lat="43.98817" lon="7.44295">
        <ele>1834.366</ele>
        <time>2020-06-25T15:24:30Z</time>
      </trkpt>
      <trkpt lat="43.98817" lon="7.44295">
        <ele>1834.366</ele>
        <time>2020-06-25T15:24:45Z</time>
      </trkpt>
      <trkpt lat="43.98817" lon="7.44295">
        <ele>1834.366</ele>
        <time>2020-06-25T15:25:01Z</time>
      </trkpt>
      <trkpt lat="43.98817" lon="7.44295">
        <ele>1834.366</ele>
        <time>2020-06-25T15:25:16Z</time>
      </trkpt>
      <trkpt lat="43.98817" lon="7.44295">
        <ele>1834.366</ele>
        <time>2020-06-25T15:25:32Z</time>
      </trkpt>
      <trkpt lat="43.98817" lon="7.44295">
        <ele>1834.366</ele>
        <time>2020-06-25T15:25:47Z</time>
      </trkpt>
      <trkpt lat="43.98817" lon="7.44295">
        <ele>1834.366</ele>
        <time>2020-06-25T15:26:02Z</time>
      </trkpt>
      <trkpt lat="43.98817" lon="7.44295">
        <ele>1834.366</ele>
        <time>2020-06-25T15:26:17Z</time>
      </trkpt>
      <trkpt lat="43.98817" lon="7.44295">
        <ele>1834.366</ele>
        <time>2020-06-25T15:26:33Z</time>
      </trkpt>
      <trkpt lat="43.98817" lon="7.44295">
        <ele>1834.366</ele>
        <time>2020-06-25T15:26:48Z</time>
      </trkpt>
      <trkpt lat="43.98817" lon="7.44295">
        <ele>1834.366</ele>
        <time>2020-06-25T15:27:03Z</time>
      </trkpt>
      <trkpt lat="43.98817" lon="7.44295">
        <ele>1834.366</ele>
        <time>2020-06-25T15:27:19Z</time>
      </trkpt>
      <trkpt lat="43.98817" lon="7.44295">
        <ele>1834.366</ele>
        <time>2020-06-25T15:27:34Z</time>
      </trkpt>
      <trkpt lat="43.98817" lon="7.44295">
        <ele>1834.366</ele>
        <time>2020-06-25T15:27:50Z</time>
      </trkpt>
      <trkpt lat="43.98817" lon="7.44295">
        <ele>1834.366</ele>
        <time>2020-06-25T15:28:06Z</time>
      </trkpt>
      <trkpt lat="43.98817" lon="7.44295">
        <ele>1834.366</ele>
        <time>2020-06-25T15:28:21Z</time>
      </trkpt>
      <trkpt lat="43.98817" lon="7.44295">
        <ele>1834.366</ele>
        <time>2020-06-25T15:28:37Z</time>
      </trkpt>
      <trkpt lat="43.98817" lon="7.44295">
        <ele>1834.366</ele>
        <time>2020-06-25T15:28:53Z</time>
      </trkpt>
      <trkpt lat="43.98817" lon="7.44295">
        <ele>1834.366</ele>
        <time>2020-06-25T15:29:08Z</time>
      </trkpt>
      <trkpt lat="43.98817" lon="7.44295">
        <ele>1834.366</ele>
        <time>2020-06-25T15:29:23Z</time>
      </trkpt>
      <trkpt lat="43.98817" lon="7.44295">
        <ele>1834.366</ele>
        <time>2020-06-25T15:29:38Z</time>
      </trkpt>
      <trkpt lat="43.98817" lon="7.44295">
        <ele>1834.366</ele>
        <time>2020-06-25T15:29:54Z</time>
      </trkpt>
      <trkpt lat="43.98817" lon="7.44295">
        <ele>1834.366</ele>
        <time>2020-06-25T15:30:09Z</time>
      </trkpt>
      <trkpt lat="43.98817" lon="7.44295">
        <ele>1834.366</ele>
        <time>2020-06-25T15:30:24Z</time>
      </trkpt>
      <trkpt lat="43.98817" lon="7.44295">
        <ele>1834.366</ele>
        <time>2020-06-25T15:30:40Z</time>
      </trkpt>
      <trkpt lat="43.98817" lon="7.44295">
        <ele>1834.366</ele>
        <time>2020-06-25T15:30:56Z</time>
      </trkpt>
      <trkpt lat="43.98817" lon="7.44295">
        <ele>1834.366</ele>
        <time>2020-06-25T15:31:12Z</time>
      </trkpt>
      <trkpt lat="43.98817" lon="7.44295">
        <ele>1834.366</ele>
        <time>2020-06-25T15:31:27Z</time>
      </trkpt>
      <trkpt lat="43.98817" lon="7.44295">
        <ele>1834.366</ele>
        <time>2020-06-25T15:31:43Z</time>
      </trkpt>
      <trkpt lat="43.98817" lon="7.44295">
        <ele>1834.366</ele>
        <time>2020-06-25T15:31:58Z</time>
      </trkpt>
      <trkpt lat="43.98817" lon="7.44295">
        <ele>1834.366</ele>
        <time>2020-06-25T15:32:14Z</time>
      </trkpt>
      <trkpt lat="43.98817" lon="7.44295">
        <ele>1834.366</ele>
        <time>2020-06-25T15:32:29Z</time>
      </trkpt>
      <trkpt lat="43.98817" lon="7.44295">
        <ele>1834.366</ele>
        <time>2020-06-25T15:32:45Z</time>
      </trkpt>
    </trkseg>
  </trk>
  <trk>
    <name><![CDATA[GR52 / GR5 par Menton_3]]></name>
    <trkseg>
      <trkpt lat="43.98827" lon="7.44271">
        <ele>1829.985</ele>
        <time>2020-06-26T05:16:32Z</time>
      </trkpt>
      <trkpt lat="43.98847" lon="7.44279">
        <ele>1803.21</ele>
        <time>2020-06-26T05:16:47Z</time>
      </trkpt>
      <trkpt lat="43.98865" lon="7.44276">
        <ele>1808.066</ele>
        <time>2020-06-26T05:17:03Z</time>
      </trkpt>
      <trkpt lat="43.98882" lon="7.4428">
        <ele>1815.279</ele>
        <time>2020-06-26T05:17:18Z</time>
      </trkpt>
      <trkpt lat="43.98897" lon="7.4429">
        <ele>1825.128</ele>
        <time>2020-06-26T05:17:33Z</time>
      </trkpt>
      <trkpt lat="43.98915" lon="7.44309">
        <ele>1826.592</ele>
        <time>2020-06-26T05:17:49Z</time>
      </trkpt>
      <trkpt lat="43.9891" lon="7.44335">
        <ele>1828.6</ele>
        <time>2020-06-26T05:18:04Z</time>
      </trkpt>
      <trkpt lat="43.98895" lon="7.44349">
        <ele>1822.449</ele>
        <time>2020-06-26T05:18:20Z</time>
      </trkpt>
      <trkpt lat="43.98879" lon="7.44355">
        <ele>1819.053</ele>
        <time>2020-06-26T05:18:35Z</time>
      </trkpt>
      <trkpt lat="43.98857" lon="7.44356">
        <ele>1821.334</ele>
        <time>2020-06-26T05:18:51Z</time>
      </trkpt>
      <trkpt lat="43.98837" lon="7.4436">
        <ele>1823.89</ele>
        <time>2020-06-26T05:19:07Z</time>
      </trkpt>
      <trkpt lat="43.98819" lon="7.44366">
        <ele>1830.024</ele>
        <time>2020-06-26T05:19:23Z</time>
      </trkpt>
      <trkpt lat="43.98805" lon="7.4437">
        <ele>1830.436</ele>
        <time>2020-06-26T05:19:39Z</time>
      </trkpt>
      <trkpt lat="43.98787" lon="7.44367">
        <ele>1832.956</ele>
        <time>2020-06-26T05:19:54Z</time>
      </trkpt>
      <trkpt lat="43.98767" lon="7.44365">
        <ele>1834.672</ele>
        <time>2020-06-26T05:20:09Z</time>
      </trkpt>
      <trkpt lat="43.98746" lon="7.44364">
        <ele>1837.892</ele>
        <time>2020-06-26T05:20:25Z</time>
      </trkpt>
      <trkpt lat="43.98723" lon="7.44359">
        <ele>1841.539</ele>
        <time>2020-06-26T05:20:41Z</time>
      </trkpt>
      <trkpt lat="43.98706" lon="7.44355">
        <ele>1845.717</ele>
        <time>2020-06-26T05:20:56Z</time>
      </trkpt>
      <trkpt lat="43.98716" lon="7.44359">
        <ele>1849.48</ele>
        <time>2020-06-26T05:21:12Z</time>
      </trkpt>
      <trkpt lat="43.98732" lon="7.4436">
        <ele>1849.253</ele>
        <time>2020-06-26T05:21:28Z</time>
      </trkpt>
      <trkpt lat="43.98753" lon="7.44373">
        <ele>1842.246</ele>
        <time>2020-06-26T05:21:43Z</time>
      </trkpt>
      <trkpt lat="43.98766" lon="7.44387">
        <ele>1845.513</ele>
        <time>2020-06-26T05:21:59Z</time>
      </trkpt>
      <trkpt lat="43.98779" lon="7.44397">
        <ele>1846.657</ele>
        <time>2020-06-26T05:22:14Z</time>
      </trkpt>
      <trkpt lat="43.98806" lon="7.44397">
        <ele>1844.148</ele>
        <time>2020-06-26T05:22:30Z</time>
      </trkpt>
      <trkpt lat="43.98823" lon="7.44404">
        <ele>1846.855</ele>
        <time>2020-06-26T05:22:45Z</time>
      </trkpt>
      <trkpt lat="43.98831" lon="7.44411">
        <ele>1853.829</ele>
        <time>2020-06-26T05:23:00Z</time>
      </trkpt>
      <trkpt lat="43.98848" lon="7.44415">
        <ele>1857.197</ele>
        <time>2020-06-26T05:23:16Z</time>
      </trkpt>
      <trkpt lat="43.98862" lon="7.44415">
        <ele>1858.481</ele>
        <time>2020-06-26T05:23:32Z</time>
      </trkpt>
      <trkpt lat="43.98876" lon="7.4441">
        <ele>1860.344</ele>
        <time>2020-06-26T05:23:48Z</time>
      </trkpt>
      <trkpt lat="43.98895" lon="7.44405">
        <ele>1863.931</ele>
        <time>2020-06-26T05:24:04Z</time>
      </trkpt>
      <trkpt lat="43.98912" lon="7.4441">
        <ele>1864.357</ele>
        <time>2020-06-26T05:24:19Z</time>
      </trkpt>
      <trkpt lat="43.98928" lon="7.44411">
        <ele>1865.44</ele>
        <time>2020-06-26T05:24:35Z</time>
      </trkpt>
      <trkpt lat="43.98941" lon="7.4441">
        <ele>1867.398</ele>
        <time>2020-06-26T05:24:50Z</time>
      </trkpt>
      <trkpt lat="43.9896" lon="7.44408">
        <ele>1867.257</ele>
        <time>2020-06-26T05:25:06Z</time>
      </trkpt>
      <trkpt lat="43.98981" lon="7.4441">
        <ele>1870.982</ele>
        <time>2020-06-26T05:25:22Z</time>
      </trkpt>
      <trkpt lat="43.98997" lon="7.44408">
        <ele>1873.231</ele>
        <time>2020-06-26T05:25:38Z</time>
      </trkpt>
      <trkpt lat="43.99013" lon="7.44411">
        <ele>1873.838</ele>
        <time>2020-06-26T05:25:54Z</time>
      </trkpt>
      <trkpt lat="43.99028" lon="7.44414">
        <ele>1872.829</ele>
        <time>2020-06-26T05:26:10Z</time>
      </trkpt>
      <trkpt lat="43.99043" lon="7.4442">
        <ele>1878.55</ele>
        <time>2020-06-26T05:26:25Z</time>
      </trkpt>
      <trkpt lat="43.99061" lon="7.44427">
        <ele>1884.352</ele>
        <time>2020-06-26T05:26:41Z</time>
      </trkpt>
      <trkpt lat="43.99077" lon="7.44435">
        <ele>1885.97</ele>
        <time>2020-06-26T05:26:57Z</time>
      </trkpt>
      <trkpt lat="43.99091" lon="7.44445">
        <ele>1888.456</ele>
        <time>2020-06-26T05:27:12Z</time>
      </trkpt>
      <trkpt lat="43.99103" lon="7.44453">
        <ele>1889.787</ele>
        <time>2020-06-26T05:27:27Z</time>
      </trkpt>
      <trkpt lat="43.99121" lon="7.44458">
        <ele>1890.787</ele>
        <time>2020-06-26T05:27:43Z</time>
      </trkpt>
      <trkpt lat="43.99136" lon="7.44448">
        <ele>1891.383</ele>
        <time>2020-06-26T05:27:58Z</time>
      </trkpt>
      <trkpt lat="43.9915" lon="7.44441">
        <ele>1890.71</ele>
        <time>2020-06-26T05:28:14Z</time>
      </trkpt>
      <trkpt lat="43.99167" lon="7.44436">
        <ele>1891.915</ele>
        <time>2020-06-26T05:28:30Z</time>
      </trkpt>
      <trkpt lat="43.99182" lon="7.44432">
        <ele>1893.029</ele>
        <time>2020-06-26T05:28:45Z</time>
      </trkpt>
      <trkpt lat="43.99196" lon="7.44423">
        <ele>1896.293</ele>
        <time>2020-06-26T05:29:00Z</time>
      </trkpt>
      <trkpt lat="43.9921" lon="7.44418">
        <ele>1898.023</ele>
        <time>2020-06-26T05:29:16Z</time>
      </trkpt>
      <trkpt lat="43.99227" lon="7.44417">
        <ele>1900.386</ele>
        <time>2020-06-26T05:29:32Z</time>
      </trkpt>
      <trkpt lat="43.99242" lon="7.44415">
        <ele>1902.039</ele>
        <time>2020-06-26T05:29:48Z</time>
      </trkpt>
      <trkpt lat="43.99262" lon="7.44418">
        <ele>1902.15</ele>
        <time>2020-06-26T05:30:03Z</time>
      </trkpt>
      <trkpt lat="43.99278" lon="7.4442">
        <ele>1906.532</ele>
        <time>2020-06-26T05:30:19Z</time>
      </trkpt>
      <trkpt lat="43.99293" lon="7.44423">
        <ele>1906.467</ele>
        <time>2020-06-26T05:30:35Z</time>
      </trkpt>
      <trkpt lat="43.99308" lon="7.44427">
        <ele>1908.261</ele>
        <time>2020-06-26T05:30:51Z</time>
      </trkpt>
      <trkpt lat="43.99325" lon="7.44433">
        <ele>1909.212</ele>
        <time>2020-06-26T05:31:07Z</time>
      </trkpt>
      <trkpt lat="43.9934" lon="7.4444">
        <ele>1911.606</ele>
        <time>2020-06-26T05:31:22Z</time>
      </trkpt>
      <trkpt lat="43.99356" lon="7.44439">
        <ele>1912.895</ele>
        <time>2020-06-26T05:31:37Z</time>
      </trkpt>
      <trkpt lat="43.99374" lon="7.44438">
        <ele>1915.133</ele>
        <time>2020-06-26T05:31:52Z</time>
      </trkpt>
      <trkpt lat="43.99392" lon="7.44437">
        <ele>1915.959</ele>
        <time>2020-06-26T05:32:08Z</time>
      </trkpt>
      <trkpt lat="43.99409" lon="7.4443">
        <ele>1915.585</ele>
        <time>2020-06-26T05:32:24Z</time>
      </trkpt>
      <trkpt lat="43.99425" lon="7.44427">
        <ele>1916.49</ele>
        <time>2020-06-26T05:32:39Z</time>
      </trkpt>
      <trkpt lat="43.9944" lon="7.44419">
        <ele>1918.225</ele>
        <time>2020-06-26T05:32:55Z</time>
      </trkpt>
      <trkpt lat="43.99457" lon="7.44411">
        <ele>1920.768</ele>
        <time>2020-06-26T05:33:10Z</time>
      </trkpt>
      <trkpt lat="43.99469" lon="7.44405">
        <ele>1923.062</ele>
        <time>2020-06-26T05:33:26Z</time>
      </trkpt>
      <trkpt lat="43.99485" lon="7.444">
        <ele>1920.971</ele>
        <time>2020-06-26T05:33:41Z</time>
      </trkpt>
      <trkpt lat="43.99504" lon="7.44395">
        <ele>1924.492</ele>
        <time>2020-06-26T05:33:57Z</time>
      </trkpt>
      <trkpt lat="43.99506" lon="7.44395">
        <ele>1926.829</ele>
        <time>2020-06-26T05:34:13Z</time>
      </trkpt>
      <trkpt lat="43.99506" lon="7.44395">
        <ele>1926.829</ele>
        <time>2020-06-26T05:34:28Z</time>
      </trkpt>
      <trkpt lat="43.99506" lon="7.44395">
        <ele>1926.829</ele>
        <time>2020-06-26T05:34:44Z</time>
      </trkpt>
      <trkpt lat="43.99506" lon="7.44395">
        <ele>1926.829</ele>
        <time>2020-06-26T05:34:59Z</time>
      </trkpt>
      <trkpt lat="43.99506" lon="7.44395">
        <ele>1926.829</ele>
        <time>2020-06-26T05:35:15Z</time>
      </trkpt>
      <trkpt lat="43.99506" lon="7.44395">
        <ele>1926.829</ele>
        <time>2020-06-26T05:35:30Z</time>
      </trkpt>
      <trkpt lat="43.99506" lon="7.44395">
        <ele>1926.829</ele>
        <time>2020-06-26T05:35:46Z</time>
      </trkpt>
      <trkpt lat="43.99506" lon="7.44395">
        <ele>1926.829</ele>
        <time>2020-06-26T05:36:01Z</time>
      </trkpt>
      <trkpt lat="43.99506" lon="7.44395">
        <ele>1926.829</ele>
        <time>2020-06-26T05:36:17Z</time>
      </trkpt>
      <trkpt lat="43.99506" lon="7.44395">
        <ele>1926.829</ele>
        <time>2020-06-26T05:36:33Z</time>
      </trkpt>
      <trkpt lat="43.99506" lon="7.44395">
        <ele>1926.829</ele>
        <time>2020-06-26T05:36:48Z</time>
      </trkpt>
      <trkpt lat="43.99506" lon="7.44393">
        <ele>1928.384</ele>
        <time>2020-06-26T05:37:04Z</time>
      </trkpt>
      <trkpt lat="43.99506" lon="7.44393">
        <ele>1929.138</ele>
        <time>2020-06-26T05:37:19Z</time>
      </trkpt>
      <trkpt lat="43.99506" lon="7.44393">
        <ele>1929.138</ele>
        <time>2020-06-26T05:37:35Z</time>
      </trkpt>
      <trkpt lat="43.99506" lon="7.44393">
        <ele>1929.138</ele>
        <time>2020-06-26T05:37:51Z</time>
      </trkpt>
      <trkpt lat="43.99506" lon="7.44393">
        <ele>1929.138</ele>
        <time>2020-06-26T05:38:07Z</time>
      </trkpt>
      <trkpt lat="43.99514" lon="7.44383">
        <ele>1930.886</ele>
        <time>2020-06-26T05:38:23Z</time>
      </trkpt>
      <trkpt lat="43.99526" lon="7.44379">
        <ele>1931.096</ele>
        <time>2020-06-26T05:38:39Z</time>
      </trkpt>
      <trkpt lat="43.99537" lon="7.44372">
        <ele>1932.55</ele>
        <time>2020-06-26T05:38:54Z</time>
      </trkpt>
      <trkpt lat="43.99553" lon="7.44366">
        <ele>1934.396</ele>
        <time>2020-06-26T05:39:10Z</time>
      </trkpt>
      <trkpt lat="43.99568" lon="7.44359">
        <ele>1935.015</ele>
        <time>2020-06-26T05:39:25Z</time>
      </trkpt>
      <trkpt lat="43.99583" lon="7.44355">
        <ele>1935.81</ele>
        <time>2020-06-26T05:39:41Z</time>
      </trkpt>
      <trkpt lat="43.99597" lon="7.44353">
        <ele>1941.149</ele>
        <time>2020-06-26T05:39:57Z</time>
      </trkpt>
      <trkpt lat="43.99606" lon="7.44353">
        <ele>1941.127</ele>
        <time>2020-06-26T05:40:12Z</time>
      </trkpt>
      <trkpt lat="43.99614" lon="7.44338">
        <ele>1944.248</ele>
        <time>2020-06-26T05:40:28Z</time>
      </trkpt>
      <trkpt lat="43.99625" lon="7.44324">
        <ele>1943.687</ele>
        <time>2020-06-26T05:40:44Z</time>
      </trkpt>
      <trkpt lat="43.99624" lon="7.44323">
        <ele>1943.776</ele>
        <time>2020-06-26T05:41:00Z</time>
      </trkpt>
      <trkpt lat="43.99624" lon="7.44323">
        <ele>1943.776</ele>
        <time>2020-06-26T05:41:15Z</time>
      </trkpt>
      <trkpt lat="43.99624" lon="7.44321">
        <ele>1943.945</ele>
        <time>2020-06-26T05:41:30Z</time>
      </trkpt>
      <trkpt lat="43.99625" lon="7.44322">
        <ele>1942.344</ele>
        <time>2020-06-26T05:41:46Z</time>
      </trkpt>
      <trkpt lat="43.99629" lon="7.44317">
        <ele>1942.118</ele>
        <time>2020-06-26T05:42:01Z</time>
      </trkpt>
      <trkpt lat="43.99639" lon="7.443">
        <ele>1942.803</ele>
        <time>2020-06-26T05:42:17Z</time>
      </trkpt>
      <trkpt lat="43.99649" lon="7.44286">
        <ele>1944.048</ele>
        <time>2020-06-26T05:42:33Z</time>
      </trkpt>
      <trkpt lat="43.99659" lon="7.44267">
        <ele>1945.437</ele>
        <time>2020-06-26T05:42:49Z</time>
      </trkpt>
      <trkpt lat="43.9967" lon="7.4425">
        <ele>1944.403</ele>
        <time>2020-06-26T05:43:05Z</time>
      </trkpt>
      <trkpt lat="43.99679" lon="7.44231">
        <ele>1946.887</ele>
        <time>2020-06-26T05:43:20Z</time>
      </trkpt>
      <trkpt lat="43.99681" lon="7.44219">
        <ele>1947.021</ele>
        <time>2020-06-26T05:43:36Z</time>
      </trkpt>
      <trkpt lat="43.99682" lon="7.44208">
        <ele>1948.01</ele>
        <time>2020-06-26T05:43:51Z</time>
      </trkpt>
      <trkpt lat="43.9968" lon="7.44186">
        <ele>1952.382</ele>
        <time>2020-06-26T05:44:07Z</time>
      </trkpt>
      <trkpt lat="43.99683" lon="7.44167">
        <ele>1953.497</ele>
        <time>2020-06-26T05:44:22Z</time>
      </trkpt>
      <trkpt lat="43.99688" lon="7.44142">
        <ele>1956.657</ele>
        <time>2020-06-26T05:44:38Z</time>
      </trkpt>
      <trkpt lat="43.99695" lon="7.44124">
        <ele>1955.867</ele>
        <time>2020-06-26T05:44:53Z</time>
      </trkpt>
      <trkpt lat="43.99704" lon="7.44105">
        <ele>1957.465</ele>
        <time>2020-06-26T05:45:09Z</time>
      </trkpt>
      <trkpt lat="43.99716" lon="7.44086">
        <ele>1959.654</ele>
        <time>2020-06-26T05:45:25Z</time>
      </trkpt>
      <trkpt lat="43.99728" lon="7.44072">
        <ele>1960.38</ele>
        <time>2020-06-26T05:45:41Z</time>
      </trkpt>
      <trkpt lat="43.99736" lon="7.44061">
        <ele>1961.884</ele>
        <time>2020-06-26T05:45:57Z</time>
      </trkpt>
      <trkpt lat="43.99742" lon="7.44047">
        <ele>1959.731</ele>
        <time>2020-06-26T05:46:12Z</time>
      </trkpt>
      <trkpt lat="43.99753" lon="7.4403">
        <ele>1959.256</ele>
        <time>2020-06-26T05:46:28Z</time>
      </trkpt>
      <trkpt lat="43.99765" lon="7.44012">
        <ele>1960.246</ele>
        <time>2020-06-26T05:46:43Z</time>
      </trkpt>
      <trkpt lat="43.99777" lon="7.43992">
        <ele>1962.281</ele>
        <time>2020-06-26T05:46:58Z</time>
      </trkpt>
      <trkpt lat="43.99791" lon="7.43976">
        <ele>1966.182</ele>
        <time>2020-06-26T05:47:14Z</time>
      </trkpt>
      <trkpt lat="43.99804" lon="7.43961">
        <ele>1966.661</ele>
        <time>2020-06-26T05:47:29Z</time>
      </trkpt>
      <trkpt lat="43.99819" lon="7.43941">
        <ele>1970.383</ele>
        <time>2020-06-26T05:47:45Z</time>
      </trkpt>
      <trkpt lat="43.99832" lon="7.43933">
        <ele>1972.885</ele>
        <time>2020-06-26T05:48:00Z</time>
      </trkpt>
      <trkpt lat="43.9985" lon="7.43928">
        <ele>1972.268</ele>
        <time>2020-06-26T05:48:16Z</time>
      </trkpt>
      <trkpt lat="43.99868" lon="7.43919">
        <ele>1975.812</ele>
        <time>2020-06-26T05:48:32Z</time>
      </trkpt>
      <trkpt lat="43.99874" lon="7.43911">
        <ele>1975.963</ele>
        <time>2020-06-26T05:48:48Z</time>
      </trkpt>
      <trkpt lat="43.9988" lon="7.43902">
        <ele>1977.147</ele>
        <time>2020-06-26T05:49:03Z</time>
      </trkpt>
      <trkpt lat="43.9988" lon="7.43902">
        <ele>1977.147</ele>
        <time>2020-06-26T05:49:19Z</time>
      </trkpt>
      <trkpt lat="43.9988" lon="7.43902">
        <ele>1977.147</ele>
        <time>2020-06-26T05:49:34Z</time>
      </trkpt>
      <trkpt lat="43.99887" lon="7.43891">
        <ele>1978.397</ele>
        <time>2020-06-26T05:49:50Z</time>
      </trkpt>
      <trkpt lat="43.99889" lon="7.43864">
        <ele>1978.858</ele>
        <time>2020-06-26T05:50:05Z</time>
      </trkpt>
      <trkpt lat="43.99893" lon="7.4384">
        <ele>1978.826</ele>
        <time>2020-06-26T05:50:21Z</time>
      </trkpt>
      <trkpt lat="43.99896" lon="7.43817">
        <ele>1981.454</ele>
        <time>2020-06-26T05:50:37Z</time>
      </trkpt>
      <trkpt lat="43.99903" lon="7.43795">
        <ele>1983.528</ele>
        <time>2020-06-26T05:50:52Z</time>
      </trkpt>
      <trkpt lat="43.99909" lon="7.43775">
        <ele>1982.537</ele>
        <time>2020-06-26T05:51:07Z</time>
      </trkpt>
      <trkpt lat="43.99914" lon="7.43757">
        <ele>1986.734</ele>
        <time>2020-06-26T05:51:22Z</time>
      </trkpt>
      <trkpt lat="43.99919" lon="7.43736">
        <ele>1988.939</ele>
        <time>2020-06-26T05:51:37Z</time>
      </trkpt>
      <trkpt lat="43.99922" lon="7.43712">
        <ele>1992.789</ele>
        <time>2020-06-26T05:51:53Z</time>
      </trkpt>
      <trkpt lat="43.99922" lon="7.43689">
        <ele>1993.801</ele>
        <time>2020-06-26T05:52:08Z</time>
      </trkpt>
      <trkpt lat="43.99922" lon="7.43667">
        <ele>1996.391</ele>
        <time>2020-06-26T05:52:24Z</time>
      </trkpt>
      <trkpt lat="43.99927" lon="7.43645">
        <ele>1997.598</ele>
        <time>2020-06-26T05:52:40Z</time>
      </trkpt>
      <trkpt lat="43.99934" lon="7.4362">
        <ele>1994.752</ele>
        <time>2020-06-26T05:52:56Z</time>
      </trkpt>
      <trkpt lat="43.99939" lon="7.436">
        <ele>1996.421</ele>
        <time>2020-06-26T05:53:12Z</time>
      </trkpt>
      <trkpt lat="43.99948" lon="7.43583">
        <ele>1997.756</ele>
        <time>2020-06-26T05:53:27Z</time>
      </trkpt>
      <trkpt lat="43.9995" lon="7.43561">
        <ele>1999.606</ele>
        <time>2020-06-26T05:53:42Z</time>
      </trkpt>
      <trkpt lat="43.99936" lon="7.43552">
        <ele>2002.274</ele>
        <time>2020-06-26T05:53:58Z</time>
      </trkpt>
      <trkpt lat="43.99923" lon="7.43538">
        <ele>2006.757</ele>
        <time>2020-06-26T05:54:14Z</time>
      </trkpt>
      <trkpt lat="43.99908" lon="7.43523">
        <ele>2008.133</ele>
        <time>2020-06-26T05:54:30Z</time>
      </trkpt>
      <trkpt lat="43.99894" lon="7.43505">
        <ele>2012.688</ele>
        <time>2020-06-26T05:54:46Z</time>
      </trkpt>
      <trkpt lat="43.99882" lon="7.43493">
        <ele>2016.94</ele>
        <time>2020-06-26T05:55:01Z</time>
      </trkpt>
      <trkpt lat="43.99873" lon="7.43476">
        <ele>2019.799</ele>
        <time>2020-06-26T05:55:17Z</time>
      </trkpt>
      <trkpt lat="43.99868" lon="7.43454">
        <ele>2022.497</ele>
        <time>2020-06-26T05:55:33Z</time>
      </trkpt>
      <trkpt lat="43.99867" lon="7.43434">
        <ele>2022.756</ele>
        <time>2020-06-26T05:55:48Z</time>
      </trkpt>
      <trkpt lat="43.99871" lon="7.43413">
        <ele>2024.404</ele>
        <time>2020-06-26T05:56:04Z</time>
      </trkpt>
      <trkpt lat="43.99875" lon="7.43391">
        <ele>2023.897</ele>
        <time>2020-06-26T05:56:19Z</time>
      </trkpt>
      <trkpt lat="43.9988" lon="7.43368">
        <ele>2020.074</ele>
        <time>2020-06-26T05:56:34Z</time>
      </trkpt>
      <trkpt lat="43.99882" lon="7.43349">
        <ele>2020.795</ele>
        <time>2020-06-26T05:56:50Z</time>
      </trkpt>
      <trkpt lat="43.99883" lon="7.43328">
        <ele>2026.111</ele>
        <time>2020-06-26T05:57:06Z</time>
      </trkpt>
      <trkpt lat="43.99887" lon="7.43303">
        <ele>2026.958</ele>
        <time>2020-06-26T05:57:21Z</time>
      </trkpt>
      <trkpt lat="43.99891" lon="7.43284">
        <ele>2028.05</ele>
        <time>2020-06-26T05:57:36Z</time>
      </trkpt>
      <trkpt lat="43.99891" lon="7.43264">
        <ele>2029.681</ele>
        <time>2020-06-26T05:57:52Z</time>
      </trkpt>
      <trkpt lat="43.99894" lon="7.43244">
        <ele>2033.795</ele>
        <time>2020-06-26T05:58:07Z</time>
      </trkpt>
      <trkpt lat="43.99896" lon="7.43221">
        <ele>2035.25</ele>
        <time>2020-06-26T05:58:22Z</time>
      </trkpt>
      <trkpt lat="43.99898" lon="7.43197">
        <ele>2036.159</ele>
        <time>2020-06-26T05:58:37Z</time>
      </trkpt>
      <trkpt lat="43.99899" lon="7.43176">
        <ele>2037.018</ele>
        <time>2020-06-26T05:58:52Z</time>
      </trkpt>
      <trkpt lat="43.99902" lon="7.43155">
        <ele>2037.447</ele>
        <time>2020-06-26T05:59:07Z</time>
      </trkpt>
      <trkpt lat="43.99902" lon="7.43136">
        <ele>2041.142</ele>
        <time>2020-06-26T05:59:23Z</time>
      </trkpt>
      <trkpt lat="43.99903" lon="7.43111">
        <ele>2043.309</ele>
        <time>2020-06-26T05:59:39Z</time>
      </trkpt>
      <trkpt lat="43.99899" lon="7.43091">
        <ele>2049.469</ele>
        <time>2020-06-26T05:59:54Z</time>
      </trkpt>
      <trkpt lat="43.99896" lon="7.43068">
        <ele>2053.804</ele>
        <time>2020-06-26T06:00:09Z</time>
      </trkpt>
      <trkpt lat="43.99888" lon="7.43048">
        <ele>2053.048</ele>
        <time>2020-06-26T06:00:25Z</time>
      </trkpt>
      <trkpt lat="43.99879" lon="7.4303">
        <ele>2055.392</ele>
        <time>2020-06-26T06:00:40Z</time>
      </trkpt>
      <trkpt lat="43.99868" lon="7.43012">
        <ele>2058.004</ele>
        <time>2020-06-26T06:00:56Z</time>
      </trkpt>
      <trkpt lat="43.9986" lon="7.42998">
        <ele>2060.236</ele>
        <time>2020-06-26T06:01:11Z</time>
      </trkpt>
      <trkpt lat="43.99849" lon="7.42988">
        <ele>2061.378</ele>
        <time>2020-06-26T06:01:26Z</time>
      </trkpt>
      <trkpt lat="43.99837" lon="7.42971">
        <ele>2056.39</ele>
        <time>2020-06-26T06:01:42Z</time>
      </trkpt>
      <trkpt lat="43.99833" lon="7.42962">
        <ele>2055.204</ele>
        <time>2020-06-26T06:01:58Z</time>
      </trkpt>
      <trkpt lat="43.99833" lon="7.42962">
        <ele>2055.204</ele>
        <time>2020-06-26T06:02:14Z</time>
      </trkpt>
      <trkpt lat="43.99833" lon="7.42962">
        <ele>2055.204</ele>
        <time>2020-06-26T06:02:30Z</time>
      </trkpt>
      <trkpt lat="43.99833" lon="7.42962">
        <ele>2055.204</ele>
        <time>2020-06-26T06:02:46Z</time>
      </trkpt>
      <trkpt lat="43.99828" lon="7.42936">
        <ele>2056.094</ele>
        <time>2020-06-26T06:03:01Z</time>
      </trkpt>
      <trkpt lat="43.99824" lon="7.42913">
        <ele>2060.77</ele>
        <time>2020-06-26T06:03:17Z</time>
      </trkpt>
      <trkpt lat="43.99817" lon="7.42897">
        <ele>2061.775</ele>
        <time>2020-06-26T06:03:32Z</time>
      </trkpt>
      <trkpt lat="43.99812" lon="7.42874">
        <ele>2060.548</ele>
        <time>2020-06-26T06:03:47Z</time>
      </trkpt>
      <trkpt lat="43.99811" lon="7.42855">
        <ele>2062.806</ele>
        <time>2020-06-26T06:04:03Z</time>
      </trkpt>
      <trkpt lat="43.99813" lon="7.42833">
        <ele>2066.363</ele>
        <time>2020-06-26T06:04:18Z</time>
      </trkpt>
      <trkpt lat="43.99818" lon="7.4281">
        <ele>2065.468</ele>
        <time>2020-06-26T06:04:34Z</time>
      </trkpt>
      <trkpt lat="43.99821" lon="7.42788">
        <ele>2069.933</ele>
        <time>2020-06-26T06:04:50Z</time>
      </trkpt>
      <trkpt lat="43.99827" lon="7.42778">
        <ele>2071.949</ele>
        <time>2020-06-26T06:05:06Z</time>
      </trkpt>
      <trkpt lat="43.99827" lon="7.42775">
        <ele>2072.485</ele>
        <time>2020-06-26T06:05:22Z</time>
      </trkpt>
      <trkpt lat="43.99827" lon="7.42775">
        <ele>2072.485</ele>
        <time>2020-06-26T06:05:38Z</time>
      </trkpt>
      <trkpt lat="43.99827" lon="7.42775">
        <ele>2072.485</ele>
        <time>2020-06-26T06:05:54Z</time>
      </trkpt>
      <trkpt lat="43.99827" lon="7.42775">
        <ele>2072.485</ele>
        <time>2020-06-26T06:06:10Z</time>
      </trkpt>
      <trkpt lat="43.99827" lon="7.42775">
        <ele>2072.485</ele>
        <time>2020-06-26T06:06:26Z</time>
      </trkpt>
      <trkpt lat="43.99827" lon="7.42775">
        <ele>2072.005</ele>
        <time>2020-06-26T06:06:41Z</time>
      </trkpt>
      <trkpt lat="43.99826" lon="7.42774">
        <ele>2072.039</ele>
        <time>2020-06-26T06:06:57Z</time>
      </trkpt>
      <trkpt lat="43.99826" lon="7.42774">
        <ele>2071.74</ele>
        <time>2020-06-26T06:07:12Z</time>
      </trkpt>
      <trkpt lat="43.99826" lon="7.42774">
        <ele>2071.74</ele>
        <time>2020-06-26T06:07:28Z</time>
      </trkpt>
      <trkpt lat="43.99826" lon="7.42774">
        <ele>2071.74</ele>
        <time>2020-06-26T06:07:43Z</time>
      </trkpt>
      <trkpt lat="43.99825" lon="7.42773">
        <ele>2071.104</ele>
        <time>2020-06-26T06:07:59Z</time>
      </trkpt>
      <trkpt lat="43.99825" lon="7.42773">
        <ele>2071.104</ele>
        <time>2020-06-26T06:08:14Z</time>
      </trkpt>
      <trkpt lat="43.99827" lon="7.42773">
        <ele>2071.386</ele>
        <time>2020-06-26T06:08:30Z</time>
      </trkpt>
      <trkpt lat="43.99827" lon="7.42773">
        <ele>2071.386</ele>
        <time>2020-06-26T06:08:46Z</time>
      </trkpt>
      <trkpt lat="43.99827" lon="7.42773">
        <ele>2071.386</ele>
        <time>2020-06-26T06:09:02Z</time>
      </trkpt>
      <trkpt lat="43.99826" lon="7.42771">
        <ele>2071.333</ele>
        <time>2020-06-26T06:09:18Z</time>
      </trkpt>
      <trkpt lat="43.99826" lon="7.42771">
        <ele>2071.333</ele>
        <time>2020-06-26T06:09:34Z</time>
      </trkpt>
      <trkpt lat="43.99821" lon="7.42773">
        <ele>2067.362</ele>
        <time>2020-06-26T06:09:50Z</time>
      </trkpt>
      <trkpt lat="43.99821" lon="7.42773">
        <ele>2067.362</ele>
        <time>2020-06-26T06:10:06Z</time>
      </trkpt>
      <trkpt lat="43.99821" lon="7.42773">
        <ele>2067.49</ele>
        <time>2020-06-26T06:10:21Z</time>
      </trkpt>
      <trkpt lat="43.99822" lon="7.42773">
        <ele>2067.49</ele>
        <time>2020-06-26T06:10:37Z</time>
      </trkpt>
      <trkpt lat="43.9982" lon="7.42774">
        <ele>2068.413</ele>
        <time>2020-06-26T06:10:52Z</time>
      </trkpt>
      <trkpt lat="43.9982" lon="7.42774">
        <ele>2068.413</ele>
        <time>2020-06-26T06:11:08Z</time>
      </trkpt>
      <trkpt lat="43.9982" lon="7.42774">
        <ele>2068.413</ele>
        <time>2020-06-26T06:11:23Z</time>
      </trkpt>
      <trkpt lat="43.9982" lon="7.42774">
        <ele>2068.413</ele>
        <time>2020-06-26T06:11:39Z</time>
      </trkpt>
      <trkpt lat="43.9982" lon="7.42774">
        <ele>2068.413</ele>
        <time>2020-06-26T06:11:54Z</time>
      </trkpt>
      <trkpt lat="43.9982" lon="7.42775">
        <ele>2068.788</ele>
        <time>2020-06-26T06:12:10Z</time>
      </trkpt>
      <trkpt lat="43.9982" lon="7.42775">
        <ele>2069.02</ele>
        <time>2020-06-26T06:12:25Z</time>
      </trkpt>
      <trkpt lat="43.99832" lon="7.42783">
        <ele>2070.575</ele>
        <time>2020-06-26T06:12:41Z</time>
      </trkpt>
      <trkpt lat="43.99833" lon="7.42785">
        <ele>2070.846</ele>
        <time>2020-06-26T06:12:57Z</time>
      </trkpt>
      <trkpt lat="43.99833" lon="7.4279">
        <ele>2070.514</ele>
        <time>2020-06-26T06:13:12Z</time>
      </trkpt>
      <trkpt lat="43.99833" lon="7.42809">
        <ele>2067.849</ele>
        <time>2020-06-26T06:13:28Z</time>
      </trkpt>
      <trkpt lat="43.99839" lon="7.42834">
        <ele>2067.864</ele>
        <time>2020-06-26T06:13:43Z</time>
      </trkpt>
      <trkpt lat="43.99845" lon="7.42857">
        <ele>2071.685</ele>
        <time>2020-06-26T06:13:58Z</time>
      </trkpt>
      <trkpt lat="43.99855" lon="7.42878">
        <ele>2071.594</ele>
        <time>2020-06-26T06:14:14Z</time>
      </trkpt>
      <trkpt lat="43.99861" lon="7.42897">
        <ele>2072.302</ele>
        <time>2020-06-26T06:14:29Z</time>
      </trkpt>
      <trkpt lat="43.9987" lon="7.42918">
        <ele>2073.275</ele>
        <time>2020-06-26T06:14:45Z</time>
      </trkpt>
      <trkpt lat="43.99875" lon="7.42939">
        <ele>2073.88</ele>
        <time>2020-06-26T06:15:00Z</time>
      </trkpt>
      <trkpt lat="43.99886" lon="7.42955">
        <ele>2075.362</ele>
        <time>2020-06-26T06:15:16Z</time>
      </trkpt>
      <trkpt lat="43.999" lon="7.42975">
        <ele>2080.54</ele>
        <time>2020-06-26T06:15:32Z</time>
      </trkpt>
      <trkpt lat="43.99911" lon="7.4299">
        <ele>2086.076</ele>
        <time>2020-06-26T06:15:47Z</time>
      </trkpt>
      <trkpt lat="43.99922" lon="7.43003">
        <ele>2088.733</ele>
        <time>2020-06-26T06:16:02Z</time>
      </trkpt>
      <trkpt lat="43.99935" lon="7.43022">
        <ele>2087.235</ele>
        <time>2020-06-26T06:16:18Z</time>
      </trkpt>
      <trkpt lat="43.99944" lon="7.43037">
        <ele>2086.439</ele>
        <time>2020-06-26T06:16:33Z</time>
      </trkpt>
      <trkpt lat="43.99957" lon="7.43056">
        <ele>2082.941</ele>
        <time>2020-06-26T06:16:48Z</time>
      </trkpt>
      <trkpt lat="43.99969" lon="7.43077">
        <ele>2082.848</ele>
        <time>2020-06-26T06:17:04Z</time>
      </trkpt>
      <trkpt lat="43.99972" lon="7.43095">
        <ele>2084.977</ele>
        <time>2020-06-26T06:17:19Z</time>
      </trkpt>
      <trkpt lat="43.99984" lon="7.43115">
        <ele>2086.713</ele>
        <time>2020-06-26T06:17:34Z</time>
      </trkpt>
      <trkpt lat="43.99992" lon="7.43134">
        <ele>2087.332</ele>
        <time>2020-06-26T06:17:50Z</time>
      </trkpt>
      <trkpt lat="43.99998" lon="7.43157">
        <ele>2083.758</ele>
        <time>2020-06-26T06:18:06Z</time>
      </trkpt>
      <trkpt lat="43.99996" lon="7.4318">
        <ele>2085.702</ele>
        <time>2020-06-26T06:18:21Z</time>
      </trkpt>
      <trkpt lat="43.99995" lon="7.43201">
        <ele>2089.273</ele>
        <time>2020-06-26T06:18:36Z</time>
      </trkpt>
      <trkpt lat="43.99993" lon="7.43225">
        <ele>2092.645</ele>
        <time>2020-06-26T06:18:52Z</time>
      </trkpt>
      <trkpt lat="43.99994" lon="7.43249">
        <ele>2096.841</ele>
        <time>2020-06-26T06:19:08Z</time>
      </trkpt>
      <trkpt lat="43.99994" lon="7.43271">
        <ele>2100.291</ele>
        <time>2020-06-26T06:19:23Z</time>
      </trkpt>
      <trkpt lat="44.00003" lon="7.43289">
        <ele>2102.586</ele>
        <time>2020-06-26T06:19:39Z</time>
      </trkpt>
      <trkpt lat="44.00017" lon="7.43278">
        <ele>2103.729</ele>
        <time>2020-06-26T06:19:55Z</time>
      </trkpt>
      <trkpt lat="44.00029" lon="7.43265">
        <ele>2103.37</ele>
        <time>2020-06-26T06:20:11Z</time>
      </trkpt>
      <trkpt lat="44.00039" lon="7.4325">
        <ele>2100.141</ele>
        <time>2020-06-26T06:20:27Z</time>
      </trkpt>
      <trkpt lat="44.00046" lon="7.43245">
        <ele>2100.785</ele>
        <time>2020-06-26T06:20:43Z</time>
      </trkpt>
      <trkpt lat="44.00046" lon="7.43245">
        <ele>2100.785</ele>
        <time>2020-06-26T06:20:58Z</time>
      </trkpt>
      <trkpt lat="44.00046" lon="7.43245">
        <ele>2100.785</ele>
        <time>2020-06-26T06:21:14Z</time>
      </trkpt>
      <trkpt lat="44.00046" lon="7.43245">
        <ele>2100.785</ele>
        <time>2020-06-26T06:21:29Z</time>
      </trkpt>
      <trkpt lat="44.00048" lon="7.43247">
        <ele>2100.776</ele>
        <time>2020-06-26T06:21:45Z</time>
      </trkpt>
      <trkpt lat="44.00048" lon="7.43244">
        <ele>2101.183</ele>
        <time>2020-06-26T06:22:00Z</time>
      </trkpt>
      <trkpt lat="44.00049" lon="7.43242">
        <ele>2101.407</ele>
        <time>2020-06-26T06:22:16Z</time>
      </trkpt>
      <trkpt lat="44.00047" lon="7.43241">
        <ele>2101.295</ele>
        <time>2020-06-26T06:22:31Z</time>
      </trkpt>
      <trkpt lat="44.00041" lon="7.4322">
        <ele>2103.008</ele>
        <time>2020-06-26T06:22:46Z</time>
      </trkpt>
      <trkpt lat="44.00039" lon="7.43191">
        <ele>2104.329</ele>
        <time>2020-06-26T06:23:02Z</time>
      </trkpt>
      <trkpt lat="44.00035" lon="7.43168">
        <ele>2103.998</ele>
        <time>2020-06-26T06:23:18Z</time>
      </trkpt>
      <trkpt lat="44.00035" lon="7.43168">
        <ele>2103.591</ele>
        <time>2020-06-26T06:23:34Z</time>
      </trkpt>
      <trkpt lat="44.0004" lon="7.43171">
        <ele>2103.801</ele>
        <time>2020-06-26T06:23:50Z</time>
      </trkpt>
      <trkpt lat="44.00046" lon="7.43195">
        <ele>2101.878</ele>
        <time>2020-06-26T06:24:06Z</time>
      </trkpt>
      <trkpt lat="44.00046" lon="7.43216">
        <ele>2096.321</ele>
        <time>2020-06-26T06:24:21Z</time>
      </trkpt>
      <trkpt lat="44.00055" lon="7.43225">
        <ele>2093.456</ele>
        <time>2020-06-26T06:24:37Z</time>
      </trkpt>
      <trkpt lat="44.00076" lon="7.43219">
        <ele>2097.495</ele>
        <time>2020-06-26T06:24:53Z</time>
      </trkpt>
      <trkpt lat="44.00091" lon="7.43207">
        <ele>2096.449</ele>
        <time>2020-06-26T06:25:08Z</time>
      </trkpt>
      <trkpt lat="44.00104" lon="7.43196">
        <ele>2095.219</ele>
        <time>2020-06-26T06:25:24Z</time>
      </trkpt>
      <trkpt lat="44.00115" lon="7.43187">
        <ele>2090.664</ele>
        <time>2020-06-26T06:25:39Z</time>
      </trkpt>
      <trkpt lat="44.00135" lon="7.43198">
        <ele>2085.911</ele>
        <time>2020-06-26T06:25:54Z</time>
      </trkpt>
      <trkpt lat="44.00146" lon="7.43196">
        <ele>2080.278</ele>
        <time>2020-06-26T06:26:09Z</time>
      </trkpt>
      <trkpt lat="44.00161" lon="7.4319">
        <ele>2079.425</ele>
        <time>2020-06-26T06:26:25Z</time>
      </trkpt>
      <trkpt lat="44.00175" lon="7.4318">
        <ele>2078.932</ele>
        <time>2020-06-26T06:26:41Z</time>
      </trkpt>
      <trkpt lat="44.00187" lon="7.43179">
        <ele>2071.348</ele>
        <time>2020-06-26T06:26:57Z</time>
      </trkpt>
      <trkpt lat="44.00201" lon="7.43176">
        <ele>2063.665</ele>
        <time>2020-06-26T06:27:12Z</time>
      </trkpt>
      <trkpt lat="44.00214" lon="7.43172">
        <ele>2062.893</ele>
        <time>2020-06-26T06:27:28Z</time>
      </trkpt>
      <trkpt lat="44.00232" lon="7.43164">
        <ele>2062.947</ele>
        <time>2020-06-26T06:27:44Z</time>
      </trkpt>
      <trkpt lat="44.00242" lon="7.43161">
        <ele>2059.755</ele>
        <time>2020-06-26T06:27:59Z</time>
      </trkpt>
      <trkpt lat="44.00259" lon="7.43159">
        <ele>2056.945</ele>
        <time>2020-06-26T06:28:15Z</time>
      </trkpt>
      <trkpt lat="44.00273" lon="7.43155">
        <ele>2054.437</ele>
        <time>2020-06-26T06:28:30Z</time>
      </trkpt>
      <trkpt lat="44.00289" lon="7.43151">
        <ele>2055.489</ele>
        <time>2020-06-26T06:28:46Z</time>
      </trkpt>
      <trkpt lat="44.00302" lon="7.43146">
        <ele>2054.199</ele>
        <time>2020-06-26T06:29:01Z</time>
      </trkpt>
      <trkpt lat="44.00313" lon="7.43142">
        <ele>2052.547</ele>
        <time>2020-06-26T06:29:16Z</time>
      </trkpt>
      <trkpt lat="44.0033" lon="7.43137">
        <ele>2049.326</ele>
        <time>2020-06-26T06:29:32Z</time>
      </trkpt>
      <trkpt lat="44.00343" lon="7.43131">
        <ele>2046.293</ele>
        <time>2020-06-26T06:29:47Z</time>
      </trkpt>
      <trkpt lat="44.00359" lon="7.43129">
        <ele>2045.988</ele>
        <time>2020-06-26T06:30:03Z</time>
      </trkpt>
      <trkpt lat="44.00367" lon="7.43122">
        <ele>2046.862</ele>
        <time>2020-06-26T06:30:19Z</time>
      </trkpt>
      <trkpt lat="44.0038" lon="7.43116">
        <ele>2046.166</ele>
        <time>2020-06-26T06:30:34Z</time>
      </trkpt>
      <trkpt lat="44.00393" lon="7.43115">
        <ele>2041.823</ele>
        <time>2020-06-26T06:30:49Z</time>
      </trkpt>
      <trkpt lat="44.00414" lon="7.43113">
        <ele>2040.095</ele>
        <time>2020-06-26T06:31:05Z</time>
      </trkpt>
      <trkpt lat="44.00432" lon="7.43108">
        <ele>2039.555</ele>
        <time>2020-06-26T06:31:21Z</time>
      </trkpt>
      <trkpt lat="44.00449" lon="7.43102">
        <ele>2035.084</ele>
        <time>2020-06-26T06:31:36Z</time>
      </trkpt>
      <trkpt lat="44.00464" lon="7.43092">
        <ele>2032.498</ele>
        <time>2020-06-26T06:31:52Z</time>
      </trkpt>
      <trkpt lat="44.00477" lon="7.43083">
        <ele>2032.367</ele>
        <time>2020-06-26T06:32:07Z</time>
      </trkpt>
      <trkpt lat="44.00484" lon="7.43083">
        <ele>2033.842</ele>
        <time>2020-06-26T06:32:23Z</time>
      </trkpt>
      <trkpt lat="44.00484" lon="7.43083">
        <ele>2033.842</ele>
        <time>2020-06-26T06:32:38Z</time>
      </trkpt>
      <trkpt lat="44.00484" lon="7.43083">
        <ele>2033.842</ele>
        <time>2020-06-26T06:32:54Z</time>
      </trkpt>
      <trkpt lat="44.00484" lon="7.43083">
        <ele>2033.842</ele>
        <time>2020-06-26T06:33:09Z</time>
      </trkpt>
      <trkpt lat="44.00486" lon="7.43081">
        <ele>2033.94</ele>
        <time>2020-06-26T06:33:24Z</time>
      </trkpt>
      <trkpt lat="44.00497" lon="7.43077">
        <ele>2034.052</ele>
        <time>2020-06-26T06:33:40Z</time>
      </trkpt>
      <trkpt lat="44.00514" lon="7.43068">
        <ele>2034.305</ele>
        <time>2020-06-26T06:33:56Z</time>
      </trkpt>
      <trkpt lat="44.00531" lon="7.43059">
        <ele>2032.092</ele>
        <time>2020-06-26T06:34:12Z</time>
      </trkpt>
      <trkpt lat="44.00547" lon="7.43056">
        <ele>2030.035</ele>
        <time>2020-06-26T06:34:28Z</time>
      </trkpt>
      <trkpt lat="44.00565" lon="7.43051">
        <ele>2025.06</ele>
        <time>2020-06-26T06:34:44Z</time>
      </trkpt>
      <trkpt lat="44.00582" lon="7.43042">
        <ele>2025.086</ele>
        <time>2020-06-26T06:35:00Z</time>
      </trkpt>
      <trkpt lat="44.00594" lon="7.43023">
        <ele>2025.776</ele>
        <time>2020-06-26T06:35:16Z</time>
      </trkpt>
      <trkpt lat="44.00609" lon="7.4301">
        <ele>2025.834</ele>
        <time>2020-06-26T06:35:31Z</time>
      </trkpt>
      <trkpt lat="44.00614" lon="7.42988">
        <ele>2025.809</ele>
        <time>2020-06-26T06:35:47Z</time>
      </trkpt>
      <trkpt lat="44.00624" lon="7.42975">
        <ele>2027.795</ele>
        <time>2020-06-26T06:36:02Z</time>
      </trkpt>
      <trkpt lat="44.00639" lon="7.42956">
        <ele>2028.413</ele>
        <time>2020-06-26T06:36:18Z</time>
      </trkpt>
      <trkpt lat="44.00652" lon="7.42941">
        <ele>2028.098</ele>
        <time>2020-06-26T06:36:33Z</time>
      </trkpt>
      <trkpt lat="44.00668" lon="7.42932">
        <ele>2030.556</ele>
        <time>2020-06-26T06:36:48Z</time>
      </trkpt>
      <trkpt lat="44.00684" lon="7.42922">
        <ele>2031.011</ele>
        <time>2020-06-26T06:37:04Z</time>
      </trkpt>
      <trkpt lat="44.00699" lon="7.42912">
        <ele>2030.063</ele>
        <time>2020-06-26T06:37:19Z</time>
      </trkpt>
      <trkpt lat="44.00718" lon="7.42905">
        <ele>2027.374</ele>
        <time>2020-06-26T06:37:35Z</time>
      </trkpt>
      <trkpt lat="44.00733" lon="7.42898">
        <ele>2025.348</ele>
        <time>2020-06-26T06:37:51Z</time>
      </trkpt>
      <trkpt lat="44.0075" lon="7.42891">
        <ele>2023.357</ele>
        <time>2020-06-26T06:38:07Z</time>
      </trkpt>
      <trkpt lat="44.00763" lon="7.42876">
        <ele>2018.295</ele>
        <time>2020-06-26T06:38:23Z</time>
      </trkpt>
      <trkpt lat="44.00777" lon="7.42865">
        <ele>2013.073</ele>
        <time>2020-06-26T06:38:38Z</time>
      </trkpt>
      <trkpt lat="44.00787" lon="7.42847">
        <ele>2010.333</ele>
        <time>2020-06-26T06:38:54Z</time>
      </trkpt>
      <trkpt lat="44.008" lon="7.42833">
        <ele>2008.361</ele>
        <time>2020-06-26T06:39:09Z</time>
      </trkpt>
      <trkpt lat="44.0081" lon="7.42815">
        <ele>2004.67</ele>
        <time>2020-06-26T06:39:24Z</time>
      </trkpt>
      <trkpt lat="44.00819" lon="7.4279">
        <ele>2005.23</ele>
        <time>2020-06-26T06:39:40Z</time>
      </trkpt>
      <trkpt lat="44.00829" lon="7.42772">
        <ele>2003.757</ele>
        <time>2020-06-26T06:39:55Z</time>
      </trkpt>
      <trkpt lat="44.00841" lon="7.42751">
        <ele>2005.108</ele>
        <time>2020-06-26T06:40:11Z</time>
      </trkpt>
      <trkpt lat="44.00856" lon="7.42732">
        <ele>2007.786</ele>
        <time>2020-06-26T06:40:26Z</time>
      </trkpt>
      <trkpt lat="44.00864" lon="7.42716">
        <ele>2006.6</ele>
        <time>2020-06-26T06:40:42Z</time>
      </trkpt>
      <trkpt lat="44.00869" lon="7.42696">
        <ele>2007.653</ele>
        <time>2020-06-26T06:40:58Z</time>
      </trkpt>
      <trkpt lat="44.00872" lon="7.42676">
        <ele>2007.21</ele>
        <time>2020-06-26T06:41:14Z</time>
      </trkpt>
      <trkpt lat="44.0088" lon="7.42658">
        <ele>2007.198</ele>
        <time>2020-06-26T06:41:29Z</time>
      </trkpt>
      <trkpt lat="44.00884" lon="7.42648">
        <ele>2011.517</ele>
        <time>2020-06-26T06:41:45Z</time>
      </trkpt>
      <trkpt lat="44.00884" lon="7.42648">
        <ele>2011.517</ele>
        <time>2020-06-26T06:42:00Z</time>
      </trkpt>
      <trkpt lat="44.00886" lon="7.42646">
        <ele>2012.895</ele>
        <time>2020-06-26T06:42:16Z</time>
      </trkpt>
      <trkpt lat="44.00901" lon="7.42638">
        <ele>2013.169</ele>
        <time>2020-06-26T06:42:32Z</time>
      </trkpt>
      <trkpt lat="44.00913" lon="7.42623">
        <ele>2013.277</ele>
        <time>2020-06-26T06:42:48Z</time>
      </trkpt>
      <trkpt lat="44.00928" lon="7.42612">
        <ele>2010.162</ele>
        <time>2020-06-26T06:43:03Z</time>
      </trkpt>
      <trkpt lat="44.00943" lon="7.42603">
        <ele>2010.339</ele>
        <time>2020-06-26T06:43:18Z</time>
      </trkpt>
      <trkpt lat="44.00957" lon="7.42587">
        <ele>2006.908</ele>
        <time>2020-06-26T06:43:34Z</time>
      </trkpt>
      <trkpt lat="44.00969" lon="7.42566">
        <ele>2001.842</ele>
        <time>2020-06-26T06:43:50Z</time>
      </trkpt>
      <trkpt lat="44.00976" lon="7.42545">
        <ele>2003.188</ele>
        <time>2020-06-26T06:44:06Z</time>
      </trkpt>
      <trkpt lat="44.00987" lon="7.42536">
        <ele>2003.692</ele>
        <time>2020-06-26T06:44:22Z</time>
      </trkpt>
      <trkpt lat="44.01005" lon="7.42532">
        <ele>1999.621</ele>
        <time>2020-06-26T06:44:38Z</time>
      </trkpt>
      <trkpt lat="44.01017" lon="7.42513">
        <ele>1995.146</ele>
        <time>2020-06-26T06:44:54Z</time>
      </trkpt>
      <trkpt lat="44.01028" lon="7.42496">
        <ele>1990.258</ele>
        <time>2020-06-26T06:45:10Z</time>
      </trkpt>
      <trkpt lat="44.0104" lon="7.42478">
        <ele>1989.478</ele>
        <time>2020-06-26T06:45:25Z</time>
      </trkpt>
      <trkpt lat="44.01047" lon="7.42457">
        <ele>1988.599</ele>
        <time>2020-06-26T06:45:40Z</time>
      </trkpt>
      <trkpt lat="44.01055" lon="7.42437">
        <ele>1988.787</ele>
        <time>2020-06-26T06:45:56Z</time>
      </trkpt>
      <trkpt lat="44.01071" lon="7.4243">
        <ele>1993.668</ele>
        <time>2020-06-26T06:46:12Z</time>
      </trkpt>
      <trkpt lat="44.01087" lon="7.42426">
        <ele>1993.475</ele>
        <time>2020-06-26T06:46:28Z</time>
      </trkpt>
      <trkpt lat="44.01101" lon="7.42416">
        <ele>1993.462</ele>
        <time>2020-06-26T06:46:44Z</time>
      </trkpt>
      <trkpt lat="44.01115" lon="7.4241">
        <ele>1995.972</ele>
        <time>2020-06-26T06:46:59Z</time>
      </trkpt>
      <trkpt lat="44.01129" lon="7.42397">
        <ele>1995.077</ele>
        <time>2020-06-26T06:47:15Z</time>
      </trkpt>
      <trkpt lat="44.01146" lon="7.42392">
        <ele>1995.65</ele>
        <time>2020-06-26T06:47:30Z</time>
      </trkpt>
      <trkpt lat="44.01161" lon="7.42386">
        <ele>1995.519</ele>
        <time>2020-06-26T06:47:45Z</time>
      </trkpt>
      <trkpt lat="44.01174" lon="7.42379">
        <ele>1995.144</ele>
        <time>2020-06-26T06:48:01Z</time>
      </trkpt>
      <trkpt lat="44.0119" lon="7.4237">
        <ele>1996.1</ele>
        <time>2020-06-26T06:48:16Z</time>
      </trkpt>
      <trkpt lat="44.01204" lon="7.42357">
        <ele>1995.642</ele>
        <time>2020-06-26T06:48:31Z</time>
      </trkpt>
      <trkpt lat="44.01217" lon="7.42343">
        <ele>1994.22</ele>
        <time>2020-06-26T06:48:46Z</time>
      </trkpt>
      <trkpt lat="44.01233" lon="7.42326">
        <ele>1995.406</ele>
        <time>2020-06-26T06:49:02Z</time>
      </trkpt>
      <trkpt lat="44.01242" lon="7.42309">
        <ele>1994.636</ele>
        <time>2020-06-26T06:49:17Z</time>
      </trkpt>
      <trkpt lat="44.0125" lon="7.4229">
        <ele>1993.66</ele>
        <time>2020-06-26T06:49:32Z</time>
      </trkpt>
      <trkpt lat="44.0126" lon="7.42285">
        <ele>1995.79</ele>
        <time>2020-06-26T06:49:48Z</time>
      </trkpt>
      <trkpt lat="44.01262" lon="7.42282">
        <ele>1995.412</ele>
        <time>2020-06-26T06:50:03Z</time>
      </trkpt>
      <trkpt lat="44.01262" lon="7.42282">
        <ele>1995.412</ele>
        <time>2020-06-26T06:50:19Z</time>
      </trkpt>
      <trkpt lat="44.01262" lon="7.42282">
        <ele>1995.412</ele>
        <time>2020-06-26T06:50:34Z</time>
      </trkpt>
      <trkpt lat="44.01262" lon="7.42282">
        <ele>1995.412</ele>
        <time>2020-06-26T06:50:50Z</time>
      </trkpt>
      <trkpt lat="44.0126" lon="7.42286">
        <ele>1996.323</ele>
        <time>2020-06-26T06:51:06Z</time>
      </trkpt>
      <trkpt lat="44.01265" lon="7.42292">
        <ele>1997.377</ele>
        <time>2020-06-26T06:51:22Z</time>
      </trkpt>
      <trkpt lat="44.01283" lon="7.42297">
        <ele>1998.683</ele>
        <time>2020-06-26T06:51:37Z</time>
      </trkpt>
      <trkpt lat="44.01301" lon="7.42307">
        <ele>1998.484</ele>
        <time>2020-06-26T06:51:53Z</time>
      </trkpt>
      <trkpt lat="44.01316" lon="7.42301">
        <ele>1999.444</ele>
        <time>2020-06-26T06:52:09Z</time>
      </trkpt>
      <trkpt lat="44.01329" lon="7.42299">
        <ele>1996.268</ele>
        <time>2020-06-26T06:52:24Z</time>
      </trkpt>
      <trkpt lat="44.01344" lon="7.42302">
        <ele>1994.324</ele>
        <time>2020-06-26T06:52:40Z</time>
      </trkpt>
      <trkpt lat="44.0136" lon="7.423">
        <ele>1991.922</ele>
        <time>2020-06-26T06:52:55Z</time>
      </trkpt>
      <trkpt lat="44.01376" lon="7.42303">
        <ele>1989.459</ele>
        <time>2020-06-26T06:53:10Z</time>
      </trkpt>
      <trkpt lat="44.01393" lon="7.42305">
        <ele>1987.666</ele>
        <time>2020-06-26T06:53:25Z</time>
      </trkpt>
      <trkpt lat="44.01406" lon="7.42305">
        <ele>1985.125</ele>
        <time>2020-06-26T06:53:41Z</time>
      </trkpt>
      <trkpt lat="44.01419" lon="7.42304">
        <ele>1981.582</ele>
        <time>2020-06-26T06:53:56Z</time>
      </trkpt>
      <trkpt lat="44.01431" lon="7.42302">
        <ele>1979.712</ele>
        <time>2020-06-26T06:54:12Z</time>
      </trkpt>
      <trkpt lat="44.0145" lon="7.42301">
        <ele>1980.795</ele>
        <time>2020-06-26T06:54:27Z</time>
      </trkpt>
      <trkpt lat="44.01463" lon="7.42293">
        <ele>1978.559</ele>
        <time>2020-06-26T06:54:43Z</time>
      </trkpt>
      <trkpt lat="44.01484" lon="7.42294">
        <ele>1976.334</ele>
        <time>2020-06-26T06:54:59Z</time>
      </trkpt>
      <trkpt lat="44.015" lon="7.42304">
        <ele>1972.184</ele>
        <time>2020-06-26T06:55:15Z</time>
      </trkpt>
      <trkpt lat="44.01515" lon="7.42306">
        <ele>1969.767</ele>
        <time>2020-06-26T06:55:31Z</time>
      </trkpt>
      <trkpt lat="44.01525" lon="7.42301">
        <ele>1967.089</ele>
        <time>2020-06-26T06:55:47Z</time>
      </trkpt>
      <trkpt lat="44.01535" lon="7.423">
        <ele>1962.857</ele>
        <time>2020-06-26T06:56:02Z</time>
      </trkpt>
      <trkpt lat="44.01542" lon="7.42301">
        <ele>1959.84</ele>
        <time>2020-06-26T06:56:18Z</time>
      </trkpt>
      <trkpt lat="44.0156" lon="7.423">
        <ele>1960.443</ele>
        <time>2020-06-26T06:56:33Z</time>
      </trkpt>
      <trkpt lat="44.01571" lon="7.42311">
        <ele>1955.669</ele>
        <time>2020-06-26T06:56:49Z</time>
      </trkpt>
      <trkpt lat="44.01577" lon="7.42316">
        <ele>1950.51</ele>
        <time>2020-06-26T06:57:04Z</time>
      </trkpt>
      <trkpt lat="44.01585" lon="7.42317">
        <ele>1942.198</ele>
        <time>2020-06-26T06:57:20Z</time>
      </trkpt>
      <trkpt lat="44.01594" lon="7.42312">
        <ele>1934.381</ele>
        <time>2020-06-26T06:57:36Z</time>
      </trkpt>
      <trkpt lat="44.01605" lon="7.42303">
        <ele>1931.135</ele>
        <time>2020-06-26T06:57:51Z</time>
      </trkpt>
      <trkpt lat="44.01614" lon="7.42294">
        <ele>1930.627</ele>
        <time>2020-06-26T06:58:07Z</time>
      </trkpt>
      <trkpt lat="44.01626" lon="7.42288">
        <ele>1932.476</ele>
        <time>2020-06-26T06:58:22Z</time>
      </trkpt>
      <trkpt lat="44.01626" lon="7.4229">
        <ele>1933.709</ele>
        <time>2020-06-26T06:58:38Z</time>
      </trkpt>
      <trkpt lat="44.01626" lon="7.4229">
        <ele>1933.709</ele>
        <time>2020-06-26T06:58:53Z</time>
      </trkpt>
      <trkpt lat="44.01626" lon="7.4229">
        <ele>1933.709</ele>
        <time>2020-06-26T06:59:09Z</time>
      </trkpt>
      <trkpt lat="44.01626" lon="7.4229">
        <ele>1933.709</ele>
        <time>2020-06-26T06:59:24Z</time>
      </trkpt>
      <trkpt lat="44.01626" lon="7.4229">
        <ele>1933.709</ele>
        <time>2020-06-26T06:59:39Z</time>
      </trkpt>
      <trkpt lat="44.01626" lon="7.4229">
        <ele>1933.709</ele>
        <time>2020-06-26T06:59:54Z</time>
      </trkpt>
      <trkpt lat="44.01627" lon="7.4229">
        <ele>1932.637</ele>
        <time>2020-06-26T07:00:10Z</time>
      </trkpt>
      <trkpt lat="44.01627" lon="7.42292">
        <ele>1931.676</ele>
        <time>2020-06-26T07:00:26Z</time>
      </trkpt>
      <trkpt lat="44.01626" lon="7.42292">
        <ele>1931.608</ele>
        <time>2020-06-26T07:00:42Z</time>
      </trkpt>
      <trkpt lat="44.01626" lon="7.42291">
        <ele>1927.376</ele>
        <time>2020-06-26T07:00:58Z</time>
      </trkpt>
      <trkpt lat="44.01624" lon="7.42291">
        <ele>1924.774</ele>
        <time>2020-06-26T07:01:13Z</time>
      </trkpt>
      <trkpt lat="44.01611" lon="7.42299">
        <ele>1918.292</ele>
        <time>2020-06-26T07:01:29Z</time>
      </trkpt>
      <trkpt lat="44.01593" lon="7.42293">
        <ele>1913.297</ele>
        <time>2020-06-26T07:01:44Z</time>
      </trkpt>
      <trkpt lat="44.01581" lon="7.42276">
        <ele>1911.402</ele>
        <time>2020-06-26T07:01:59Z</time>
      </trkpt>
      <trkpt lat="44.01564" lon="7.42267">
        <ele>1907.6</ele>
        <time>2020-06-26T07:02:15Z</time>
      </trkpt>
      <trkpt lat="44.01545" lon="7.42256">
        <ele>1903.12</ele>
        <time>2020-06-26T07:02:30Z</time>
      </trkpt>
      <trkpt lat="44.01528" lon="7.42247">
        <ele>1902.374</ele>
        <time>2020-06-26T07:02:46Z</time>
      </trkpt>
      <trkpt lat="44.0152" lon="7.42236">
        <ele>1899.98</ele>
        <time>2020-06-26T07:03:02Z</time>
      </trkpt>
      <trkpt lat="44.01538" lon="7.4224">
        <ele>1899.216</ele>
        <time>2020-06-26T07:03:18Z</time>
      </trkpt>
      <trkpt lat="44.01555" lon="7.42239">
        <ele>1901.141</ele>
        <time>2020-06-26T07:03:33Z</time>
      </trkpt>
      <trkpt lat="44.01577" lon="7.42236">
        <ele>1900.181</ele>
        <time>2020-06-26T07:03:49Z</time>
      </trkpt>
      <trkpt lat="44.01594" lon="7.4223">
        <ele>1898.369</ele>
        <time>2020-06-26T07:04:04Z</time>
      </trkpt>
      <trkpt lat="44.01612" lon="7.42222">
        <ele>1901.222</ele>
        <time>2020-06-26T07:04:19Z</time>
      </trkpt>
      <trkpt lat="44.01632" lon="7.42216">
        <ele>1904.009</ele>
        <time>2020-06-26T07:04:35Z</time>
      </trkpt>
      <trkpt lat="44.01647" lon="7.42205">
        <ele>1906.455</ele>
        <time>2020-06-26T07:04:50Z</time>
      </trkpt>
      <trkpt lat="44.01665" lon="7.42201">
        <ele>1898.976</ele>
        <time>2020-06-26T07:05:06Z</time>
      </trkpt>
      <trkpt lat="44.01681" lon="7.42183">
        <ele>1897.156</ele>
        <time>2020-06-26T07:05:21Z</time>
      </trkpt>
      <trkpt lat="44.01688" lon="7.42161">
        <ele>1891.698</ele>
        <time>2020-06-26T07:05:36Z</time>
      </trkpt>
      <trkpt lat="44.01698" lon="7.42138">
        <ele>1892.717</ele>
        <time>2020-06-26T07:05:52Z</time>
      </trkpt>
      <trkpt lat="44.01699" lon="7.42134">
        <ele>1892.507</ele>
        <time>2020-06-26T07:06:07Z</time>
      </trkpt>
      <trkpt lat="44.01699" lon="7.42134">
        <ele>1892.507</ele>
        <time>2020-06-26T07:06:23Z</time>
      </trkpt>
      <trkpt lat="44.01699" lon="7.42134">
        <ele>1892.507</ele>
        <time>2020-06-26T07:06:39Z</time>
      </trkpt>
      <trkpt lat="44.01699" lon="7.42134">
        <ele>1892.507</ele>
        <time>2020-06-26T07:06:55Z</time>
      </trkpt>
      <trkpt lat="44.01699" lon="7.42134">
        <ele>1892.507</ele>
        <time>2020-06-26T07:07:11Z</time>
      </trkpt>
      <trkpt lat="44.01703" lon="7.42122">
        <ele>1892.899</ele>
        <time>2020-06-26T07:07:27Z</time>
      </trkpt>
      <trkpt lat="44.01712" lon="7.42107">
        <ele>1893.874</ele>
        <time>2020-06-26T07:07:43Z</time>
      </trkpt>
      <trkpt lat="44.01721" lon="7.42091">
        <ele>1893.51</ele>
        <time>2020-06-26T07:07:59Z</time>
      </trkpt>
      <trkpt lat="44.01732" lon="7.42079">
        <ele>1896.126</ele>
        <time>2020-06-26T07:08:15Z</time>
      </trkpt>
      <trkpt lat="44.01746" lon="7.42069">
        <ele>1896.246</ele>
        <time>2020-06-26T07:08:31Z</time>
      </trkpt>
      <trkpt lat="44.01758" lon="7.42059">
        <ele>1895.413</ele>
        <time>2020-06-26T07:08:47Z</time>
      </trkpt>
      <trkpt lat="44.01764" lon="7.42049">
        <ele>1893.344</ele>
        <time>2020-06-26T07:09:02Z</time>
      </trkpt>
      <trkpt lat="44.01773" lon="7.42043">
        <ele>1894.727</ele>
        <time>2020-06-26T07:09:17Z</time>
      </trkpt>
      <trkpt lat="44.01781" lon="7.42032">
        <ele>1896.595</ele>
        <time>2020-06-26T07:09:32Z</time>
      </trkpt>
      <trkpt lat="44.01789" lon="7.4202">
        <ele>1903.995</ele>
        <time>2020-06-26T07:09:48Z</time>
      </trkpt>
      <trkpt lat="44.01798" lon="7.42011">
        <ele>1904.468</ele>
        <time>2020-06-26T07:10:03Z</time>
      </trkpt>
      <trkpt lat="44.01807" lon="7.42003">
        <ele>1904.026</ele>
        <time>2020-06-26T07:10:18Z</time>
      </trkpt>
      <trkpt lat="44.01808" lon="7.41994">
        <ele>1905.934</ele>
        <time>2020-06-26T07:10:33Z</time>
      </trkpt>
      <trkpt lat="44.01812" lon="7.41986">
        <ele>1907.39</ele>
        <time>2020-06-26T07:10:49Z</time>
      </trkpt>
      <trkpt lat="44.01815" lon="7.41982">
        <ele>1907.232</ele>
        <time>2020-06-26T07:11:04Z</time>
      </trkpt>
      <trkpt lat="44.01817" lon="7.4198">
        <ele>1907.041</ele>
        <time>2020-06-26T07:11:20Z</time>
      </trkpt>
      <trkpt lat="44.01821" lon="7.41971">
        <ele>1906.521</ele>
        <time>2020-06-26T07:11:36Z</time>
      </trkpt>
      <trkpt lat="44.01827" lon="7.41957">
        <ele>1909.92</ele>
        <time>2020-06-26T07:11:52Z</time>
      </trkpt>
      <trkpt lat="44.01833" lon="7.41953">
        <ele>1911.816</ele>
        <time>2020-06-26T07:12:08Z</time>
      </trkpt>
      <trkpt lat="44.01843" lon="7.41948">
        <ele>1913.031</ele>
        <time>2020-06-26T07:12:23Z</time>
      </trkpt>
      <trkpt lat="44.01845" lon="7.41943">
        <ele>1914.733</ele>
        <time>2020-06-26T07:12:38Z</time>
      </trkpt>
      <trkpt lat="44.01853" lon="7.41935">
        <ele>1920.574</ele>
        <time>2020-06-26T07:12:54Z</time>
      </trkpt>
      <trkpt lat="44.01859" lon="7.41932">
        <ele>1924.485</ele>
        <time>2020-06-26T07:13:09Z</time>
      </trkpt>
      <trkpt lat="44.01863" lon="7.41929">
        <ele>1926.119</ele>
        <time>2020-06-26T07:13:25Z</time>
      </trkpt>
      <trkpt lat="44.01874" lon="7.4192">
        <ele>1931.104</ele>
        <time>2020-06-26T07:13:40Z</time>
      </trkpt>
      <trkpt lat="44.01882" lon="7.41912">
        <ele>1935.726</ele>
        <time>2020-06-26T07:13:56Z</time>
      </trkpt>
      <trkpt lat="44.01887" lon="7.41898">
        <ele>1935.006</ele>
        <time>2020-06-26T07:14:11Z</time>
      </trkpt>
      <trkpt lat="44.01893" lon="7.41889">
        <ele>1938.564</ele>
        <time>2020-06-26T07:14:27Z</time>
      </trkpt>
      <trkpt lat="44.01897" lon="7.41882">
        <ele>1940.919</ele>
        <time>2020-06-26T07:14:43Z</time>
      </trkpt>
      <trkpt lat="44.01899" lon="7.41867">
        <ele>1946.44</ele>
        <time>2020-06-26T07:14:58Z</time>
      </trkpt>
      <trkpt lat="44.01903" lon="7.4186">
        <ele>1949.322</ele>
        <time>2020-06-26T07:15:13Z</time>
      </trkpt>
      <trkpt lat="44.0191" lon="7.41852">
        <ele>1949.871</ele>
        <time>2020-06-26T07:15:29Z</time>
      </trkpt>
      <trkpt lat="44.01914" lon="7.41838">
        <ele>1949.214</ele>
        <time>2020-06-26T07:15:45Z</time>
      </trkpt>
      <trkpt lat="44.01917" lon="7.4183">
        <ele>1951.435</ele>
        <time>2020-06-26T07:16:01Z</time>
      </trkpt>
      <trkpt lat="44.01921" lon="7.41824">
        <ele>1954.698</ele>
        <time>2020-06-26T07:16:17Z</time>
      </trkpt>
      <trkpt lat="44.01929" lon="7.41816">
        <ele>1954.74</ele>
        <time>2020-06-26T07:16:33Z</time>
      </trkpt>
      <trkpt lat="44.01936" lon="7.41809">
        <ele>1957.909</ele>
        <time>2020-06-26T07:16:49Z</time>
      </trkpt>
      <trkpt lat="44.01941" lon="7.41797">
        <ele>1960.322</ele>
        <time>2020-06-26T07:17:05Z</time>
      </trkpt>
      <trkpt lat="44.01949" lon="7.41785">
        <ele>1960.386</ele>
        <time>2020-06-26T07:17:20Z</time>
      </trkpt>
      <trkpt lat="44.01956" lon="7.41777">
        <ele>1960.463</ele>
        <time>2020-06-26T07:17:36Z</time>
      </trkpt>
      <trkpt lat="44.01969" lon="7.4177">
        <ele>1959.654</ele>
        <time>2020-06-26T07:17:51Z</time>
      </trkpt>
      <trkpt lat="44.01979" lon="7.41761">
        <ele>1962.217</ele>
        <time>2020-06-26T07:18:07Z</time>
      </trkpt>
      <trkpt lat="44.01987" lon="7.41753">
        <ele>1965.012</ele>
        <time>2020-06-26T07:18:22Z</time>
      </trkpt>
      <trkpt lat="44.01998" lon="7.41741">
        <ele>1967.024</ele>
        <time>2020-06-26T07:18:38Z</time>
      </trkpt>
      <trkpt lat="44.0201" lon="7.41733">
        <ele>1967.49</ele>
        <time>2020-06-26T07:18:54Z</time>
      </trkpt>
      <trkpt lat="44.02021" lon="7.41722">
        <ele>1967.821</ele>
        <time>2020-06-26T07:19:09Z</time>
      </trkpt>
      <trkpt lat="44.02032" lon="7.41714">
        <ele>1970.694</ele>
        <time>2020-06-26T07:19:24Z</time>
      </trkpt>
      <trkpt lat="44.0204" lon="7.41706">
        <ele>1972.013</ele>
        <time>2020-06-26T07:19:40Z</time>
      </trkpt>
      <trkpt lat="44.0205" lon="7.41698">
        <ele>1975.485</ele>
        <time>2020-06-26T07:19:55Z</time>
      </trkpt>
      <trkpt lat="44.02057" lon="7.41691">
        <ele>1972.778</ele>
        <time>2020-06-26T07:20:11Z</time>
      </trkpt>
      <trkpt lat="44.02066" lon="7.41678">
        <ele>1975.274</ele>
        <time>2020-06-26T07:20:26Z</time>
      </trkpt>
      <trkpt lat="44.02077" lon="7.41669">
        <ele>1981.942</ele>
        <time>2020-06-26T07:20:42Z</time>
      </trkpt>
      <trkpt lat="44.02089" lon="7.41661">
        <ele>1978.401</ele>
        <time>2020-06-26T07:20:57Z</time>
      </trkpt>
      <trkpt lat="44.02098" lon="7.41656">
        <ele>1978.633</ele>
        <time>2020-06-26T07:21:13Z</time>
      </trkpt>
      <trkpt lat="44.02111" lon="7.41649">
        <ele>1981.324</ele>
        <time>2020-06-26T07:21:29Z</time>
      </trkpt>
      <trkpt lat="44.02122" lon="7.4164">
        <ele>1981.661</ele>
        <time>2020-06-26T07:21:45Z</time>
      </trkpt>
      <trkpt lat="44.02133" lon="7.41628">
        <ele>1985.309</ele>
        <time>2020-06-26T07:22:00Z</time>
      </trkpt>
      <trkpt lat="44.02131" lon="7.41626">
        <ele>1987.986</ele>
        <time>2020-06-26T07:22:16Z</time>
      </trkpt>
      <trkpt lat="44.0214" lon="7.41619">
        <ele>1990.436</ele>
        <time>2020-06-26T07:22:32Z</time>
      </trkpt>
      <trkpt lat="44.02152" lon="7.4161">
        <ele>1991.327</ele>
        <time>2020-06-26T07:22:48Z</time>
      </trkpt>
      <trkpt lat="44.02162" lon="7.41602">
        <ele>1993.717</ele>
        <time>2020-06-26T07:23:03Z</time>
      </trkpt>
      <trkpt lat="44.02174" lon="7.41596">
        <ele>1995.212</ele>
        <time>2020-06-26T07:23:18Z</time>
      </trkpt>
      <trkpt lat="44.02185" lon="7.41589">
        <ele>1993.372</ele>
        <time>2020-06-26T07:23:34Z</time>
      </trkpt>
      <trkpt lat="44.02197" lon="7.4158">
        <ele>1995.835</ele>
        <time>2020-06-26T07:23:49Z</time>
      </trkpt>
      <trkpt lat="44.02207" lon="7.41576">
        <ele>1998.011</ele>
        <time>2020-06-26T07:24:04Z</time>
      </trkpt>
      <trkpt lat="44.02224" lon="7.41566">
        <ele>2000.993</ele>
        <time>2020-06-26T07:24:20Z</time>
      </trkpt>
      <trkpt lat="44.02235" lon="7.4156">
        <ele>2003.211</ele>
        <time>2020-06-26T07:24:35Z</time>
      </trkpt>
      <trkpt lat="44.02246" lon="7.41554">
        <ele>2003.362</ele>
        <time>2020-06-26T07:24:51Z</time>
      </trkpt>
      <trkpt lat="44.02256" lon="7.41547">
        <ele>2004.579</ele>
        <time>2020-06-26T07:25:06Z</time>
      </trkpt>
      <trkpt lat="44.02262" lon="7.4154">
        <ele>2005.798</ele>
        <time>2020-06-26T07:25:21Z</time>
      </trkpt>
      <trkpt lat="44.0228" lon="7.41533">
        <ele>2006.311</ele>
        <time>2020-06-26T07:25:37Z</time>
      </trkpt>
      <trkpt lat="44.02289" lon="7.41527">
        <ele>2009.631</ele>
        <time>2020-06-26T07:25:53Z</time>
      </trkpt>
      <trkpt lat="44.02303" lon="7.41517">
        <ele>2007.552</ele>
        <time>2020-06-26T07:26:09Z</time>
      </trkpt>
      <trkpt lat="44.02315" lon="7.41509">
        <ele>2009.544</ele>
        <time>2020-06-26T07:26:24Z</time>
      </trkpt>
      <trkpt lat="44.0233" lon="7.41498">
        <ele>2011.614</ele>
        <time>2020-06-26T07:26:40Z</time>
      </trkpt>
      <trkpt lat="44.02341" lon="7.41491">
        <ele>2012.526</ele>
        <time>2020-06-26T07:26:56Z</time>
      </trkpt>
      <trkpt lat="44.02352" lon="7.41488">
        <ele>2014.85</ele>
        <time>2020-06-26T07:27:12Z</time>
      </trkpt>
      <trkpt lat="44.02362" lon="7.41482">
        <ele>2018.739</ele>
        <time>2020-06-26T07:27:28Z</time>
      </trkpt>
      <trkpt lat="44.02373" lon="7.41474">
        <ele>2023.447</ele>
        <time>2020-06-26T07:27:43Z</time>
      </trkpt>
      <trkpt lat="44.02389" lon="7.41469">
        <ele>2024.589</ele>
        <time>2020-06-26T07:27:59Z</time>
      </trkpt>
      <trkpt lat="44.02399" lon="7.41464">
        <ele>2025.867</ele>
        <time>2020-06-26T07:28:15Z</time>
      </trkpt>
      <trkpt lat="44.02407" lon="7.41462">
        <ele>2025.626</ele>
        <time>2020-06-26T07:28:30Z</time>
      </trkpt>
      <trkpt lat="44.02409" lon="7.4146">
        <ele>2025.303</ele>
        <time>2020-06-26T07:28:46Z</time>
      </trkpt>
      <trkpt lat="44.02423" lon="7.41455">
        <ele>2025.791</ele>
        <time>2020-06-26T07:29:01Z</time>
      </trkpt>
      <trkpt lat="44.02434" lon="7.41448">
        <ele>2027.929</ele>
        <time>2020-06-26T07:29:17Z</time>
      </trkpt>
      <trkpt lat="44.02446" lon="7.41441">
        <ele>2028.262</ele>
        <time>2020-06-26T07:29:33Z</time>
      </trkpt>
      <trkpt lat="44.02457" lon="7.41436">
        <ele>2028.724</ele>
        <time>2020-06-26T07:29:48Z</time>
      </trkpt>
      <trkpt lat="44.0247" lon="7.41439">
        <ele>2030.384</ele>
        <time>2020-06-26T07:30:04Z</time>
      </trkpt>
      <trkpt lat="44.02481" lon="7.41441">
        <ele>2032.853</ele>
        <time>2020-06-26T07:30:20Z</time>
      </trkpt>
      <trkpt lat="44.02492" lon="7.41447">
        <ele>2035.055</ele>
        <time>2020-06-26T07:30:36Z</time>
      </trkpt>
      <trkpt lat="44.025" lon="7.41459">
        <ele>2034.101</ele>
        <time>2020-06-26T07:30:52Z</time>
      </trkpt>
      <trkpt lat="44.02509" lon="7.41467">
        <ele>2037.122</ele>
        <time>2020-06-26T07:31:07Z</time>
      </trkpt>
      <trkpt lat="44.02507" lon="7.41447">
        <ele>2040.22</ele>
        <time>2020-06-26T07:31:23Z</time>
      </trkpt>
      <trkpt lat="44.02506" lon="7.41437">
        <ele>2043.367</ele>
        <time>2020-06-26T07:31:39Z</time>
      </trkpt>
      <trkpt lat="44.02512" lon="7.41422">
        <ele>2041.56</ele>
        <time>2020-06-26T07:31:55Z</time>
      </trkpt>
      <trkpt lat="44.02515" lon="7.41413">
        <ele>2048.046</ele>
        <time>2020-06-26T07:32:10Z</time>
      </trkpt>
      <trkpt lat="44.02517" lon="7.41415">
        <ele>2050.229</ele>
        <time>2020-06-26T07:32:26Z</time>
      </trkpt>
      <trkpt lat="44.02517" lon="7.41415">
        <ele>2050.229</ele>
        <time>2020-06-26T07:32:41Z</time>
      </trkpt>
      <trkpt lat="44.02517" lon="7.41415">
        <ele>2050.229</ele>
        <time>2020-06-26T07:32:57Z</time>
      </trkpt>
      <trkpt lat="44.02517" lon="7.41415">
        <ele>2050.229</ele>
        <time>2020-06-26T07:33:13Z</time>
      </trkpt>
      <trkpt lat="44.02517" lon="7.41414">
        <ele>2049.147</ele>
        <time>2020-06-26T07:33:29Z</time>
      </trkpt>
      <trkpt lat="44.02517" lon="7.41414">
        <ele>2049.147</ele>
        <time>2020-06-26T07:33:45Z</time>
      </trkpt>
      <trkpt lat="44.02517" lon="7.41414">
        <ele>2049.147</ele>
        <time>2020-06-26T07:34:00Z</time>
      </trkpt>
      <trkpt lat="44.02517" lon="7.41414">
        <ele>2049.147</ele>
        <time>2020-06-26T07:34:16Z</time>
      </trkpt>
      <trkpt lat="44.02517" lon="7.41414">
        <ele>2049.147</ele>
        <time>2020-06-26T07:34:31Z</time>
      </trkpt>
      <trkpt lat="44.02517" lon="7.41414">
        <ele>2049.147</ele>
        <time>2020-06-26T07:34:47Z</time>
      </trkpt>
      <trkpt lat="44.02517" lon="7.41414">
        <ele>2049.147</ele>
        <time>2020-06-26T07:35:02Z</time>
      </trkpt>
      <trkpt lat="44.02517" lon="7.41414">
        <ele>2049.147</ele>
        <time>2020-06-26T07:35:17Z</time>
      </trkpt>
      <trkpt lat="44.02517" lon="7.41414">
        <ele>2049.147</ele>
        <time>2020-06-26T07:35:33Z</time>
      </trkpt>
      <trkpt lat="44.02517" lon="7.41412">
        <ele>2047.864</ele>
        <time>2020-06-26T07:35:49Z</time>
      </trkpt>
      <trkpt lat="44.02517" lon="7.41411">
        <ele>2046.905</ele>
        <time>2020-06-26T07:36:05Z</time>
      </trkpt>
      <trkpt lat="44.02517" lon="7.41411">
        <ele>2046.905</ele>
        <time>2020-06-26T07:36:21Z</time>
      </trkpt>
      <trkpt lat="44.02517" lon="7.41411">
        <ele>2046.905</ele>
        <time>2020-06-26T07:36:36Z</time>
      </trkpt>
      <trkpt lat="44.02517" lon="7.41411">
        <ele>2046.905</ele>
        <time>2020-06-26T07:36:51Z</time>
      </trkpt>
      <trkpt lat="44.02516" lon="7.41411">
        <ele>2047.901</ele>
        <time>2020-06-26T07:37:06Z</time>
      </trkpt>
      <trkpt lat="44.02528" lon="7.41413">
        <ele>2050.628</ele>
        <time>2020-06-26T07:37:22Z</time>
      </trkpt>
      <trkpt lat="44.02545" lon="7.41417">
        <ele>2050.669</ele>
        <time>2020-06-26T07:37:37Z</time>
      </trkpt>
      <trkpt lat="44.02561" lon="7.41424">
        <ele>2051.257</ele>
        <time>2020-06-26T07:37:53Z</time>
      </trkpt>
      <trkpt lat="44.0257" lon="7.41433">
        <ele>2050.014</ele>
        <time>2020-06-26T07:38:08Z</time>
      </trkpt>
      <trkpt lat="44.02585" lon="7.4144">
        <ele>2052.956</ele>
        <time>2020-06-26T07:38:24Z</time>
      </trkpt>
      <trkpt lat="44.02596" lon="7.41445">
        <ele>2053.913</ele>
        <time>2020-06-26T07:38:39Z</time>
      </trkpt>
      <trkpt lat="44.02603" lon="7.41449">
        <ele>2056.682</ele>
        <time>2020-06-26T07:38:55Z</time>
      </trkpt>
      <trkpt lat="44.02608" lon="7.41449">
        <ele>2059.484</ele>
        <time>2020-06-26T07:39:11Z</time>
      </trkpt>
      <trkpt lat="44.02617" lon="7.41452">
        <ele>2062.294</ele>
        <time>2020-06-26T07:39:26Z</time>
      </trkpt>
      <trkpt lat="44.02623" lon="7.41453">
        <ele>2062.857</ele>
        <time>2020-06-26T07:39:42Z</time>
      </trkpt>
      <trkpt lat="44.0263" lon="7.41457">
        <ele>2065.407</ele>
        <time>2020-06-26T07:39:58Z</time>
      </trkpt>
      <trkpt lat="44.02634" lon="7.41459">
        <ele>2067.035</ele>
        <time>2020-06-26T07:40:13Z</time>
      </trkpt>
      <trkpt lat="44.02646" lon="7.41462">
        <ele>2073.953</ele>
        <time>2020-06-26T07:40:29Z</time>
      </trkpt>
      <trkpt lat="44.02654" lon="7.41463">
        <ele>2076.467</ele>
        <time>2020-06-26T07:40:45Z</time>
      </trkpt>
      <trkpt lat="44.02668" lon="7.41468">
        <ele>2078.407</ele>
        <time>2020-06-26T07:41:01Z</time>
      </trkpt>
      <trkpt lat="44.02683" lon="7.41477">
        <ele>2077.204</ele>
        <time>2020-06-26T07:41:17Z</time>
      </trkpt>
      <trkpt lat="44.02695" lon="7.41482">
        <ele>2081.68</ele>
        <time>2020-06-26T07:41:33Z</time>
      </trkpt>
      <trkpt lat="44.02705" lon="7.41492">
        <ele>2083.985</ele>
        <time>2020-06-26T07:41:48Z</time>
      </trkpt>
      <trkpt lat="44.02719" lon="7.41506">
        <ele>2083.548</ele>
        <time>2020-06-26T07:42:04Z</time>
      </trkpt>
      <trkpt lat="44.02732" lon="7.4152">
        <ele>2085.938</ele>
        <time>2020-06-26T07:42:20Z</time>
      </trkpt>
      <trkpt lat="44.02737" lon="7.4153">
        <ele>2086.349</ele>
        <time>2020-06-26T07:42:35Z</time>
      </trkpt>
      <trkpt lat="44.02746" lon="7.41542">
        <ele>2088.916</ele>
        <time>2020-06-26T07:42:51Z</time>
      </trkpt>
      <trkpt lat="44.02759" lon="7.41559">
        <ele>2087.631</ele>
        <time>2020-06-26T07:43:07Z</time>
      </trkpt>
      <trkpt lat="44.02772" lon="7.41578">
        <ele>2085.411</ele>
        <time>2020-06-26T07:43:23Z</time>
      </trkpt>
      <trkpt lat="44.0278" lon="7.41594">
        <ele>2088.087</ele>
        <time>2020-06-26T07:43:38Z</time>
      </trkpt>
      <trkpt lat="44.02787" lon="7.41604">
        <ele>2091.246</ele>
        <time>2020-06-26T07:43:53Z</time>
      </trkpt>
      <trkpt lat="44.02794" lon="7.41621">
        <ele>2093.659</ele>
        <time>2020-06-26T07:44:09Z</time>
      </trkpt>
      <trkpt lat="44.02802" lon="7.41635">
        <ele>2094.994</ele>
        <time>2020-06-26T07:44:25Z</time>
      </trkpt>
      <trkpt lat="44.02806" lon="7.41647">
        <ele>2097.574</ele>
        <time>2020-06-26T07:44:40Z</time>
      </trkpt>
      <trkpt lat="44.02813" lon="7.41662">
        <ele>2097.747</ele>
        <time>2020-06-26T07:44:56Z</time>
      </trkpt>
      <trkpt lat="44.02819" lon="7.41669">
        <ele>2100.16</ele>
        <time>2020-06-26T07:45:11Z</time>
      </trkpt>
      <trkpt lat="44.0283" lon="7.41679">
        <ele>2099.537</ele>
        <time>2020-06-26T07:45:27Z</time>
      </trkpt>
      <trkpt lat="44.02836" lon="7.41687">
        <ele>2100.51</ele>
        <time>2020-06-26T07:45:43Z</time>
      </trkpt>
      <trkpt lat="44.02844" lon="7.41691">
        <ele>2103.733</ele>
        <time>2020-06-26T07:45:59Z</time>
      </trkpt>
      <trkpt lat="44.02845" lon="7.41697">
        <ele>2102.961</ele>
        <time>2020-06-26T07:46:15Z</time>
      </trkpt>
      <trkpt lat="44.02851" lon="7.41715">
        <ele>2103.35</ele>
        <time>2020-06-26T07:46:31Z</time>
      </trkpt>
      <trkpt lat="44.02862" lon="7.41729">
        <ele>2105.866</ele>
        <time>2020-06-26T07:46:47Z</time>
      </trkpt>
      <trkpt lat="44.02871" lon="7.4174">
        <ele>2108.378</ele>
        <time>2020-06-26T07:47:03Z</time>
      </trkpt>
      <trkpt lat="44.02879" lon="7.4175">
        <ele>2110.306</ele>
        <time>2020-06-26T07:47:18Z</time>
      </trkpt>
      <trkpt lat="44.02893" lon="7.41761">
        <ele>2109.992</ele>
        <time>2020-06-26T07:47:34Z</time>
      </trkpt>
      <trkpt lat="44.02901" lon="7.41766">
        <ele>2111.616</ele>
        <time>2020-06-26T07:47:49Z</time>
      </trkpt>
      <trkpt lat="44.02911" lon="7.41774">
        <ele>2112.557</ele>
        <time>2020-06-26T07:48:04Z</time>
      </trkpt>
      <trkpt lat="44.02922" lon="7.41778">
        <ele>2113.582</ele>
        <time>2020-06-26T07:48:20Z</time>
      </trkpt>
      <trkpt lat="44.02926" lon="7.41781">
        <ele>2115.162</ele>
        <time>2020-06-26T07:48:36Z</time>
      </trkpt>
      <trkpt lat="44.02932" lon="7.41792">
        <ele>2117.222</ele>
        <time>2020-06-26T07:48:51Z</time>
      </trkpt>
      <trkpt lat="44.02942" lon="7.41808">
        <ele>2118.247</ele>
        <time>2020-06-26T07:49:07Z</time>
      </trkpt>
      <trkpt lat="44.02948" lon="7.41822">
        <ele>2121.961</ele>
        <time>2020-06-26T07:49:23Z</time>
      </trkpt>
      <trkpt lat="44.0295" lon="7.41828">
        <ele>2122.196</ele>
        <time>2020-06-26T07:49:39Z</time>
      </trkpt>
      <trkpt lat="44.0295" lon="7.41828">
        <ele>2122.394</ele>
        <time>2020-06-26T07:49:55Z</time>
      </trkpt>
      <trkpt lat="44.0295" lon="7.41828">
        <ele>2122.534</ele>
        <time>2020-06-26T07:50:10Z</time>
      </trkpt>
      <trkpt lat="44.0295" lon="7.41829">
        <ele>2122.582</ele>
        <time>2020-06-26T07:50:26Z</time>
      </trkpt>
      <trkpt lat="44.0295" lon="7.41829">
        <ele>2122.582</ele>
        <time>2020-06-26T07:50:42Z</time>
      </trkpt>
      <trkpt lat="44.02949" lon="7.41827">
        <ele>2122.157</ele>
        <time>2020-06-26T07:50:58Z</time>
      </trkpt>
      <trkpt lat="44.02949" lon="7.41828">
        <ele>2122.235</ele>
        <time>2020-06-26T07:51:14Z</time>
      </trkpt>
      <trkpt lat="44.02951" lon="7.41837">
        <ele>2122.663</ele>
        <time>2020-06-26T07:51:29Z</time>
      </trkpt>
      <trkpt lat="44.0296" lon="7.41852">
        <ele>2127.276</ele>
        <time>2020-06-26T07:51:45Z</time>
      </trkpt>
      <trkpt lat="44.0297" lon="7.41866">
        <ele>2126.272</ele>
        <time>2020-06-26T07:52:00Z</time>
      </trkpt>
      <trkpt lat="44.02977" lon="7.41874">
        <ele>2128.361</ele>
        <time>2020-06-26T07:52:16Z</time>
      </trkpt>
      <trkpt lat="44.02985" lon="7.41887">
        <ele>2129.185</ele>
        <time>2020-06-26T07:52:32Z</time>
      </trkpt>
      <trkpt lat="44.02989" lon="7.41894">
        <ele>2129.872</ele>
        <time>2020-06-26T07:52:47Z</time>
      </trkpt>
      <trkpt lat="44.02991" lon="7.41905">
        <ele>2132.209</ele>
        <time>2020-06-26T07:53:03Z</time>
      </trkpt>
      <trkpt lat="44.02992" lon="7.41908">
        <ele>2133.792</ele>
        <time>2020-06-26T07:53:18Z</time>
      </trkpt>
      <trkpt lat="44.03004" lon="7.4191">
        <ele>2136.339</ele>
        <time>2020-06-26T07:53:34Z</time>
      </trkpt>
      <trkpt lat="44.03015" lon="7.41922">
        <ele>2137.716</ele>
        <time>2020-06-26T07:53:50Z</time>
      </trkpt>
      <trkpt lat="44.03026" lon="7.41935">
        <ele>2141.645</ele>
        <time>2020-06-26T07:54:06Z</time>
      </trkpt>
      <trkpt lat="44.03033" lon="7.41947">
        <ele>2144.28</ele>
        <time>2020-06-26T07:54:22Z</time>
      </trkpt>
      <trkpt lat="44.0304" lon="7.41966">
        <ele>2145.008</ele>
        <time>2020-06-26T07:54:37Z</time>
      </trkpt>
      <trkpt lat="44.03047" lon="7.41984">
        <ele>2145.075</ele>
        <time>2020-06-26T07:54:53Z</time>
      </trkpt>
      <trkpt lat="44.03053" lon="7.42002">
        <ele>2145.082</ele>
        <time>2020-06-26T07:55:08Z</time>
      </trkpt>
      <trkpt lat="44.03057" lon="7.42018">
        <ele>2146.934</ele>
        <time>2020-06-26T07:55:24Z</time>
      </trkpt>
      <trkpt lat="44.03058" lon="7.4202">
        <ele>2148.164</ele>
        <time>2020-06-26T07:55:40Z</time>
      </trkpt>
      <trkpt lat="44.03059" lon="7.42039">
        <ele>2147.622</ele>
        <time>2020-06-26T07:55:55Z</time>
      </trkpt>
      <trkpt lat="44.03063" lon="7.42059">
        <ele>2149.888</ele>
        <time>2020-06-26T07:56:10Z</time>
      </trkpt>
      <trkpt lat="44.03065" lon="7.42067">
        <ele>2149.051</ele>
        <time>2020-06-26T07:56:26Z</time>
      </trkpt>
      <trkpt lat="44.03064" lon="7.42067">
        <ele>2148.743</ele>
        <time>2020-06-26T07:56:41Z</time>
      </trkpt>
      <trkpt lat="44.03069" lon="7.42084">
        <ele>2150.741</ele>
        <time>2020-06-26T07:56:57Z</time>
      </trkpt>
      <trkpt lat="44.03074" lon="7.42107">
        <ele>2150.085</ele>
        <time>2020-06-26T07:57:13Z</time>
      </trkpt>
      <trkpt lat="44.03083" lon="7.42124">
        <ele>2152.033</ele>
        <time>2020-06-26T07:57:29Z</time>
      </trkpt>
      <trkpt lat="44.03092" lon="7.42146">
        <ele>2151.966</ele>
        <time>2020-06-26T07:57:45Z</time>
      </trkpt>
      <trkpt lat="44.03104" lon="7.4216">
        <ele>2152.751</ele>
        <time>2020-06-26T07:58:00Z</time>
      </trkpt>
      <trkpt lat="44.03111" lon="7.42176">
        <ele>2154.377</ele>
        <time>2020-06-26T07:58:15Z</time>
      </trkpt>
      <trkpt lat="44.03121" lon="7.42194">
        <ele>2154.106</ele>
        <time>2020-06-26T07:58:31Z</time>
      </trkpt>
      <trkpt lat="44.03135" lon="7.42212">
        <ele>2154.291</ele>
        <time>2020-06-26T07:58:47Z</time>
      </trkpt>
      <trkpt lat="44.03143" lon="7.42231">
        <ele>2157.347</ele>
        <time>2020-06-26T07:59:03Z</time>
      </trkpt>
      <trkpt lat="44.03151" lon="7.4225">
        <ele>2156.677</ele>
        <time>2020-06-26T07:59:18Z</time>
      </trkpt>
      <trkpt lat="44.03159" lon="7.42269">
        <ele>2158.4</ele>
        <time>2020-06-26T07:59:33Z</time>
      </trkpt>
      <trkpt lat="44.03166" lon="7.42289">
        <ele>2158.502</ele>
        <time>2020-06-26T07:59:49Z</time>
      </trkpt>
      <trkpt lat="44.03166" lon="7.42296">
        <ele>2158.155</ele>
        <time>2020-06-26T08:00:04Z</time>
      </trkpt>
      <trkpt lat="44.03166" lon="7.42296">
        <ele>2158.155</ele>
        <time>2020-06-26T08:00:19Z</time>
      </trkpt>
      <trkpt lat="44.03169" lon="7.42299">
        <ele>2158.688</ele>
        <time>2020-06-26T08:00:35Z</time>
      </trkpt>
      <trkpt lat="44.03172" lon="7.42311">
        <ele>2158.114</ele>
        <time>2020-06-26T08:00:51Z</time>
      </trkpt>
      <trkpt lat="44.03172" lon="7.42311">
        <ele>2157.957</ele>
        <time>2020-06-26T08:01:07Z</time>
      </trkpt>
      <trkpt lat="44.03176" lon="7.42323">
        <ele>2156.604</ele>
        <time>2020-06-26T08:01:22Z</time>
      </trkpt>
      <trkpt lat="44.03183" lon="7.42334">
        <ele>2149.938</ele>
        <time>2020-06-26T08:01:38Z</time>
      </trkpt>
      <trkpt lat="44.03188" lon="7.42336">
        <ele>2149.019</ele>
        <time>2020-06-26T08:01:54Z</time>
      </trkpt>
      <trkpt lat="44.0319" lon="7.4235">
        <ele>2145.68</ele>
        <time>2020-06-26T08:02:10Z</time>
      </trkpt>
      <trkpt lat="44.0319" lon="7.4235">
        <ele>2145.68</ele>
        <time>2020-06-26T08:02:25Z</time>
      </trkpt>
      <trkpt lat="44.0319" lon="7.42348">
        <ele>2145.384</ele>
        <time>2020-06-26T08:02:41Z</time>
      </trkpt>
      <trkpt lat="44.03193" lon="7.42352">
        <ele>2144.205</ele>
        <time>2020-06-26T08:02:56Z</time>
      </trkpt>
      <trkpt lat="44.03195" lon="7.42362">
        <ele>2143.97</ele>
        <time>2020-06-26T08:03:12Z</time>
      </trkpt>
      <trkpt lat="44.03197" lon="7.42388">
        <ele>2145.018</ele>
        <time>2020-06-26T08:03:28Z</time>
      </trkpt>
      <trkpt lat="44.03202" lon="7.42412">
        <ele>2147.92</ele>
        <time>2020-06-26T08:03:44Z</time>
      </trkpt>
      <trkpt lat="44.03207" lon="7.42438">
        <ele>2140.55</ele>
        <time>2020-06-26T08:04:00Z</time>
      </trkpt>
      <trkpt lat="44.0321" lon="7.42452">
        <ele>2135.828</ele>
        <time>2020-06-26T08:04:15Z</time>
      </trkpt>
      <trkpt lat="44.03212" lon="7.42472">
        <ele>2133.334</ele>
        <time>2020-06-26T08:04:31Z</time>
      </trkpt>
      <trkpt lat="44.03209" lon="7.425">
        <ele>2130.189</ele>
        <time>2020-06-26T08:04:47Z</time>
      </trkpt>
      <trkpt lat="44.03215" lon="7.42522">
        <ele>2135.705</ele>
        <time>2020-06-26T08:05:02Z</time>
      </trkpt>
      <trkpt lat="44.0322" lon="7.42548">
        <ele>2134.117</ele>
        <time>2020-06-26T08:05:18Z</time>
      </trkpt>
      <trkpt lat="44.03226" lon="7.42564">
        <ele>2133.685</ele>
        <time>2020-06-26T08:05:34Z</time>
      </trkpt>
      <trkpt lat="44.03239" lon="7.42576">
        <ele>2128.175</ele>
        <time>2020-06-26T08:05:50Z</time>
      </trkpt>
      <trkpt lat="44.03248" lon="7.42582">
        <ele>2129.679</ele>
        <time>2020-06-26T08:06:06Z</time>
      </trkpt>
      <trkpt lat="44.03256" lon="7.42582">
        <ele>2129.542</ele>
        <time>2020-06-26T08:06:21Z</time>
      </trkpt>
      <trkpt lat="44.03265" lon="7.42581">
        <ele>2130.201</ele>
        <time>2020-06-26T08:06:37Z</time>
      </trkpt>
      <trkpt lat="44.03265" lon="7.42581">
        <ele>2130.201</ele>
        <time>2020-06-26T08:06:53Z</time>
      </trkpt>
      <trkpt lat="44.03269" lon="7.42581">
        <ele>2129.736</ele>
        <time>2020-06-26T08:07:09Z</time>
      </trkpt>
      <trkpt lat="44.03266" lon="7.42582">
        <ele>2129.515</ele>
        <time>2020-06-26T08:07:24Z</time>
      </trkpt>
      <trkpt lat="44.03274" lon="7.4259">
        <ele>2132.925</ele>
        <time>2020-06-26T08:07:40Z</time>
      </trkpt>
      <trkpt lat="44.03287" lon="7.42595">
        <ele>2132.238</ele>
        <time>2020-06-26T08:07:55Z</time>
      </trkpt>
      <trkpt lat="44.03305" lon="7.42602">
        <ele>2128.78</ele>
        <time>2020-06-26T08:08:11Z</time>
      </trkpt>
      <trkpt lat="44.03308" lon="7.42602">
        <ele>2123.137</ele>
        <time>2020-06-26T08:08:26Z</time>
      </trkpt>
      <trkpt lat="44.03311" lon="7.42602">
        <ele>2122.085</ele>
        <time>2020-06-26T08:08:41Z</time>
      </trkpt>
      <trkpt lat="44.03323" lon="7.42597">
        <ele>2118.637</ele>
        <time>2020-06-26T08:08:57Z</time>
      </trkpt>
      <trkpt lat="44.0334" lon="7.42587">
        <ele>2118.777</ele>
        <time>2020-06-26T08:09:12Z</time>
      </trkpt>
      <trkpt lat="44.03365" lon="7.42584">
        <ele>2123.262</ele>
        <time>2020-06-26T08:09:27Z</time>
      </trkpt>
      <trkpt lat="44.03386" lon="7.42581">
        <ele>2126.523</ele>
        <time>2020-06-26T08:09:43Z</time>
      </trkpt>
      <trkpt lat="44.03402" lon="7.42581">
        <ele>2119.531</ele>
        <time>2020-06-26T08:09:58Z</time>
      </trkpt>
      <trkpt lat="44.03416" lon="7.42581">
        <ele>2116.427</ele>
        <time>2020-06-26T08:10:14Z</time>
      </trkpt>
      <trkpt lat="44.03421" lon="7.42581">
        <ele>2115.906</ele>
        <time>2020-06-26T08:10:30Z</time>
      </trkpt>
      <trkpt lat="44.03422" lon="7.42583">
        <ele>2118.005</ele>
        <time>2020-06-26T08:10:45Z</time>
      </trkpt>
      <trkpt lat="44.03422" lon="7.42583">
        <ele>2118.005</ele>
        <time>2020-06-26T08:11:00Z</time>
      </trkpt>
      <trkpt lat="44.03422" lon="7.42583">
        <ele>2118.005</ele>
        <time>2020-06-26T08:11:15Z</time>
      </trkpt>
      <trkpt lat="44.03428" lon="7.42589">
        <ele>2115.516</ele>
        <time>2020-06-26T08:11:31Z</time>
      </trkpt>
      <trkpt lat="44.03443" lon="7.42589">
        <ele>2115.301</ele>
        <time>2020-06-26T08:11:46Z</time>
      </trkpt>
      <trkpt lat="44.03452" lon="7.42593">
        <ele>2116.215</ele>
        <time>2020-06-26T08:12:02Z</time>
      </trkpt>
      <trkpt lat="44.03452" lon="7.42593">
        <ele>2116.215</ele>
        <time>2020-06-26T08:12:17Z</time>
      </trkpt>
      <trkpt lat="44.03458" lon="7.42594">
        <ele>2116.697</ele>
        <time>2020-06-26T08:12:32Z</time>
      </trkpt>
      <trkpt lat="44.03475" lon="7.42598">
        <ele>2117.636</ele>
        <time>2020-06-26T08:12:48Z</time>
      </trkpt>
      <trkpt lat="44.03492" lon="7.42609">
        <ele>2117.627</ele>
        <time>2020-06-26T08:13:04Z</time>
      </trkpt>
      <trkpt lat="44.03503" lon="7.42615">
        <ele>2119.92</ele>
        <time>2020-06-26T08:13:19Z</time>
      </trkpt>
      <trkpt lat="44.03532" lon="7.42638">
        <ele>2125.884</ele>
        <time>2020-06-26T08:13:35Z</time>
      </trkpt>
      <trkpt lat="44.03546" lon="7.42652">
        <ele>2126.88</ele>
        <time>2020-06-26T08:13:50Z</time>
      </trkpt>
      <trkpt lat="44.03549" lon="7.42664">
        <ele>2121.06</ele>
        <time>2020-06-26T08:14:05Z</time>
      </trkpt>
      <trkpt lat="44.03551" lon="7.42664">
        <ele>2120.408</ele>
        <time>2020-06-26T08:14:20Z</time>
      </trkpt>
      <trkpt lat="44.03556" lon="7.42662">
        <ele>2120.469</ele>
        <time>2020-06-26T08:14:36Z</time>
      </trkpt>
      <trkpt lat="44.03572" lon="7.42667">
        <ele>2123.382</ele>
        <time>2020-06-26T08:14:51Z</time>
      </trkpt>
      <trkpt lat="44.03587" lon="7.42672">
        <ele>2126.313</ele>
        <time>2020-06-26T08:15:07Z</time>
      </trkpt>
      <trkpt lat="44.03607" lon="7.4268">
        <ele>2130.547</ele>
        <time>2020-06-26T08:15:23Z</time>
      </trkpt>
      <trkpt lat="44.03621" lon="7.42684">
        <ele>2132.574</ele>
        <time>2020-06-26T08:15:38Z</time>
      </trkpt>
      <trkpt lat="44.03627" lon="7.42684">
        <ele>2138.411</ele>
        <time>2020-06-26T08:15:54Z</time>
      </trkpt>
      <trkpt lat="44.03638" lon="7.42684">
        <ele>2138.345</ele>
        <time>2020-06-26T08:16:09Z</time>
      </trkpt>
      <trkpt lat="44.03638" lon="7.42684">
        <ele>2138.345</ele>
        <time>2020-06-26T08:16:25Z</time>
      </trkpt>
      <trkpt lat="44.03637" lon="7.42685">
        <ele>2136.808</ele>
        <time>2020-06-26T08:16:40Z</time>
      </trkpt>
      <trkpt lat="44.03637" lon="7.42685">
        <ele>2136.808</ele>
        <time>2020-06-26T08:16:55Z</time>
      </trkpt>
      <trkpt lat="44.03647" lon="7.42681">
        <ele>2140.041</ele>
        <time>2020-06-26T08:17:10Z</time>
      </trkpt>
      <trkpt lat="44.03655" lon="7.42683">
        <ele>2142.179</ele>
        <time>2020-06-26T08:17:26Z</time>
      </trkpt>
      <trkpt lat="44.03655" lon="7.42683">
        <ele>2142.179</ele>
        <time>2020-06-26T08:17:42Z</time>
      </trkpt>
      <trkpt lat="44.03658" lon="7.42683">
        <ele>2142.298</ele>
        <time>2020-06-26T08:17:57Z</time>
      </trkpt>
      <trkpt lat="44.03677" lon="7.42693">
        <ele>2145.788</ele>
        <time>2020-06-26T08:18:13Z</time>
      </trkpt>
      <trkpt lat="44.03688" lon="7.42696">
        <ele>2147.9</ele>
        <time>2020-06-26T08:18:29Z</time>
      </trkpt>
      <trkpt lat="44.03695" lon="7.427">
        <ele>2149.172</ele>
        <time>2020-06-26T08:18:44Z</time>
      </trkpt>
      <trkpt lat="44.03699" lon="7.42707">
        <ele>2149.71</ele>
        <time>2020-06-26T08:19:00Z</time>
      </trkpt>
      <trkpt lat="44.037" lon="7.42711">
        <ele>2149.934</ele>
        <time>2020-06-26T08:19:15Z</time>
      </trkpt>
      <trkpt lat="44.037" lon="7.42711">
        <ele>2149.934</ele>
        <time>2020-06-26T08:19:31Z</time>
      </trkpt>
      <trkpt lat="44.03723" lon="7.42728">
        <ele>2151.193</ele>
        <time>2020-06-26T08:19:47Z</time>
      </trkpt>
      <trkpt lat="44.03732" lon="7.42736">
        <ele>2152.446</ele>
        <time>2020-06-26T08:20:02Z</time>
      </trkpt>
      <trkpt lat="44.03739" lon="7.42738">
        <ele>2152.623</ele>
        <time>2020-06-26T08:20:18Z</time>
      </trkpt>
      <trkpt lat="44.03739" lon="7.42739">
        <ele>2152.571</ele>
        <time>2020-06-26T08:20:33Z</time>
      </trkpt>
      <trkpt lat="44.03746" lon="7.42747">
        <ele>2152.238</ele>
        <time>2020-06-26T08:20:49Z</time>
      </trkpt>
      <trkpt lat="44.03757" lon="7.42763">
        <ele>2157.477</ele>
        <time>2020-06-26T08:21:04Z</time>
      </trkpt>
      <trkpt lat="44.03768" lon="7.42773">
        <ele>2164.329</ele>
        <time>2020-06-26T08:21:20Z</time>
      </trkpt>
      <trkpt lat="44.03774" lon="7.42781">
        <ele>2162.95</ele>
        <time>2020-06-26T08:21:35Z</time>
      </trkpt>
      <trkpt lat="44.03786" lon="7.42794">
        <ele>2164.213</ele>
        <time>2020-06-26T08:21:51Z</time>
      </trkpt>
      <trkpt lat="44.03794" lon="7.42801">
        <ele>2164.479</ele>
        <time>2020-06-26T08:22:07Z</time>
      </trkpt>
      <trkpt lat="44.03795" lon="7.42806">
        <ele>2165.081</ele>
        <time>2020-06-26T08:22:22Z</time>
      </trkpt>
      <trkpt lat="44.03799" lon="7.42812">
        <ele>2165.822</ele>
        <time>2020-06-26T08:22:38Z</time>
      </trkpt>
      <trkpt lat="44.03803" lon="7.42818">
        <ele>2169.017</ele>
        <time>2020-06-26T08:22:54Z</time>
      </trkpt>
      <trkpt lat="44.03809" lon="7.42826">
        <ele>2172.027</ele>
        <time>2020-06-26T08:23:09Z</time>
      </trkpt>
      <trkpt lat="44.03822" lon="7.42834">
        <ele>2168.055</ele>
        <time>2020-06-26T08:23:25Z</time>
      </trkpt>
      <trkpt lat="44.03828" lon="7.42839">
        <ele>2166.332</ele>
        <time>2020-06-26T08:23:41Z</time>
      </trkpt>
      <trkpt lat="44.03835" lon="7.42845">
        <ele>2167.702</ele>
        <time>2020-06-26T08:23:57Z</time>
      </trkpt>
      <trkpt lat="44.03835" lon="7.42845">
        <ele>2167.702</ele>
        <time>2020-06-26T08:24:12Z</time>
      </trkpt>
      <trkpt lat="44.03835" lon="7.42845">
        <ele>2167.702</ele>
        <time>2020-06-26T08:24:28Z</time>
      </trkpt>
      <trkpt lat="44.03835" lon="7.42845">
        <ele>2167.702</ele>
        <time>2020-06-26T08:24:44Z</time>
      </trkpt>
      <trkpt lat="44.03835" lon="7.42847">
        <ele>2168.165</ele>
        <time>2020-06-26T08:25:00Z</time>
      </trkpt>
      <trkpt lat="44.0384" lon="7.42844">
        <ele>2169.361</ele>
        <time>2020-06-26T08:25:16Z</time>
      </trkpt>
      <trkpt lat="44.03852" lon="7.42855">
        <ele>2166.512</ele>
        <time>2020-06-26T08:25:32Z</time>
      </trkpt>
      <trkpt lat="44.03859" lon="7.42869">
        <ele>2168.933</ele>
        <time>2020-06-26T08:25:48Z</time>
      </trkpt>
      <trkpt lat="44.03866" lon="7.42872">
        <ele>2175.083</ele>
        <time>2020-06-26T08:26:04Z</time>
      </trkpt>
      <trkpt lat="44.03877" lon="7.42879">
        <ele>2175.967</ele>
        <time>2020-06-26T08:26:20Z</time>
      </trkpt>
      <trkpt lat="44.03877" lon="7.4288">
        <ele>2176.087</ele>
        <time>2020-06-26T08:26:36Z</time>
      </trkpt>
      <trkpt lat="44.039" lon="7.42886">
        <ele>2179.298</ele>
        <time>2020-06-26T08:26:55Z</time>
      </trkpt>
      <trkpt lat="44.03907" lon="7.42889">
        <ele>2180.833</ele>
        <time>2020-06-26T08:27:11Z</time>
      </trkpt>
      <trkpt lat="44.0391" lon="7.42906">
        <ele>2189.648</ele>
        <time>2020-06-26T08:27:38Z</time>
      </trkpt>
      <trkpt lat="44.03919" lon="7.42919">
        <ele>2184.706</ele>
        <time>2020-06-26T08:27:53Z</time>
      </trkpt>
      <trkpt lat="44.03914" lon="7.42933">
        <ele>2190.194</ele>
        <time>2020-06-26T08:28:09Z</time>
      </trkpt>
      <trkpt lat="44.039" lon="7.42944">
        <ele>2202.832</ele>
        <time>2020-06-26T08:28:24Z</time>
      </trkpt>
      <trkpt lat="44.03893" lon="7.42956">
        <ele>2199.095</ele>
        <time>2020-06-26T08:28:40Z</time>
      </trkpt>
      <trkpt lat="44.03897" lon="7.42952">
        <ele>2200.978</ele>
        <time>2020-06-26T08:28:56Z</time>
      </trkpt>
      <trkpt lat="44.03906" lon="7.42942">
        <ele>2201.627</ele>
        <time>2020-06-26T08:29:12Z</time>
      </trkpt>
      <trkpt lat="44.03913" lon="7.42938">
        <ele>2201.306</ele>
        <time>2020-06-26T08:29:27Z</time>
      </trkpt>
      <trkpt lat="44.03916" lon="7.42933">
        <ele>2203.456</ele>
        <time>2020-06-26T08:29:43Z</time>
      </trkpt>
      <trkpt lat="44.03925" lon="7.42931">
        <ele>2204.251</ele>
        <time>2020-06-26T08:29:59Z</time>
      </trkpt>
      <trkpt lat="44.03929" lon="7.42934">
        <ele>2205.659</ele>
        <time>2020-06-26T08:30:15Z</time>
      </trkpt>
      <trkpt lat="44.03934" lon="7.4293">
        <ele>2206.977</ele>
        <time>2020-06-26T08:30:30Z</time>
      </trkpt>
      <trkpt lat="44.03942" lon="7.42925">
        <ele>2208.356</ele>
        <time>2020-06-26T08:30:45Z</time>
      </trkpt>
      <trkpt lat="44.03946" lon="7.42918">
        <ele>2209.294</ele>
        <time>2020-06-26T08:31:01Z</time>
      </trkpt>
      <trkpt lat="44.03954" lon="7.42917">
        <ele>2211.14</ele>
        <time>2020-06-26T08:31:17Z</time>
      </trkpt>
      <trkpt lat="44.03956" lon="7.42912">
        <ele>2214.09</ele>
        <time>2020-06-26T08:31:33Z</time>
      </trkpt>
      <trkpt lat="44.03956" lon="7.42912">
        <ele>2214.09</ele>
        <time>2020-06-26T08:31:49Z</time>
      </trkpt>
      <trkpt lat="44.03966" lon="7.42901">
        <ele>2219.082</ele>
        <time>2020-06-26T08:32:04Z</time>
      </trkpt>
      <trkpt lat="44.03968" lon="7.42902">
        <ele>2220.613</ele>
        <time>2020-06-26T08:32:19Z</time>
      </trkpt>
      <trkpt lat="44.03968" lon="7.42902">
        <ele>2220.613</ele>
        <time>2020-06-26T08:32:35Z</time>
      </trkpt>
      <trkpt lat="44.03971" lon="7.42906">
        <ele>2220.872</ele>
        <time>2020-06-26T08:32:50Z</time>
      </trkpt>
      <trkpt lat="44.03978" lon="7.42904">
        <ele>2219.545</ele>
        <time>2020-06-26T08:33:06Z</time>
      </trkpt>
      <trkpt lat="44.03977" lon="7.42907">
        <ele>2219.161</ele>
        <time>2020-06-26T08:33:21Z</time>
      </trkpt>
      <trkpt lat="44.03975" lon="7.42904">
        <ele>2220.905</ele>
        <time>2020-06-26T08:33:37Z</time>
      </trkpt>
      <trkpt lat="44.03975" lon="7.42904">
        <ele>2220.572</ele>
        <time>2020-06-26T08:33:53Z</time>
      </trkpt>
      <trkpt lat="44.03974" lon="7.4291">
        <ele>2220.861</ele>
        <time>2020-06-26T08:34:08Z</time>
      </trkpt>
      <trkpt lat="44.03974" lon="7.42909">
        <ele>2220.74</ele>
        <time>2020-06-26T08:34:23Z</time>
      </trkpt>
      <trkpt lat="44.03981" lon="7.42902">
        <ele>2216.597</ele>
        <time>2020-06-26T08:34:38Z</time>
      </trkpt>
      <trkpt lat="44.03981" lon="7.42902">
        <ele>2216.597</ele>
        <time>2020-06-26T08:34:54Z</time>
      </trkpt>
      <trkpt lat="44.03982" lon="7.42901">
        <ele>2222.216</ele>
        <time>2020-06-26T08:35:09Z</time>
      </trkpt>
      <trkpt lat="44.03987" lon="7.42891">
        <ele>2228.147</ele>
        <time>2020-06-26T08:35:25Z</time>
      </trkpt>
      <trkpt lat="44.03995" lon="7.4288">
        <ele>2230.466</ele>
        <time>2020-06-26T08:35:40Z</time>
      </trkpt>
      <trkpt lat="44.03997" lon="7.42873">
        <ele>2228.99</ele>
        <time>2020-06-26T08:35:56Z</time>
      </trkpt>
      <trkpt lat="44.04006" lon="7.42861">
        <ele>2227.356</ele>
        <time>2020-06-26T08:36:12Z</time>
      </trkpt>
      <trkpt lat="44.04006" lon="7.42861">
        <ele>2233.12</ele>
        <time>2020-06-26T08:36:27Z</time>
      </trkpt>
      <trkpt lat="44.04008" lon="7.42859">
        <ele>2241.175</ele>
        <time>2020-06-26T08:36:43Z</time>
      </trkpt>
      <trkpt lat="44.04017" lon="7.42859">
        <ele>2243.024</ele>
        <time>2020-06-26T08:36:58Z</time>
      </trkpt>
      <trkpt lat="44.04022" lon="7.42861">
        <ele>2246.323</ele>
        <time>2020-06-26T08:37:13Z</time>
      </trkpt>
      <trkpt lat="44.04027" lon="7.42865">
        <ele>2251.316</ele>
        <time>2020-06-26T08:37:29Z</time>
      </trkpt>
      <trkpt lat="44.04034" lon="7.42867">
        <ele>2256.46</ele>
        <time>2020-06-26T08:37:44Z</time>
      </trkpt>
      <trkpt lat="44.04036" lon="7.4288">
        <ele>2258.057</ele>
        <time>2020-06-26T08:38:00Z</time>
      </trkpt>
      <trkpt lat="44.04033" lon="7.42894">
        <ele>2252.434</ele>
        <time>2020-06-26T08:38:16Z</time>
      </trkpt>
      <trkpt lat="44.04039" lon="7.42901">
        <ele>2253.331</ele>
        <time>2020-06-26T08:38:32Z</time>
      </trkpt>
      <trkpt lat="44.04036" lon="7.42902">
        <ele>2254.134</ele>
        <time>2020-06-26T08:38:47Z</time>
      </trkpt>
      <trkpt lat="44.04038" lon="7.42904">
        <ele>2256.815</ele>
        <time>2020-06-26T08:39:03Z</time>
      </trkpt>
      <trkpt lat="44.04037" lon="7.42903">
        <ele>2258.185</ele>
        <time>2020-06-26T08:39:18Z</time>
      </trkpt>
      <trkpt lat="44.04042" lon="7.42907">
        <ele>2261.629</ele>
        <time>2020-06-26T08:39:34Z</time>
      </trkpt>
      <trkpt lat="44.04044" lon="7.42907">
        <ele>2262.451</ele>
        <time>2020-06-26T08:39:50Z</time>
      </trkpt>
      <trkpt lat="44.04051" lon="7.4291">
        <ele>2265.398</ele>
        <time>2020-06-26T08:40:05Z</time>
      </trkpt>
      <trkpt lat="44.04056" lon="7.42905">
        <ele>2264.121</ele>
        <time>2020-06-26T08:40:21Z</time>
      </trkpt>
      <trkpt lat="44.04065" lon="7.42909">
        <ele>2269.02</ele>
        <time>2020-06-26T08:40:37Z</time>
      </trkpt>
      <trkpt lat="44.04066" lon="7.42901">
        <ele>2268.862</ele>
        <time>2020-06-26T08:40:53Z</time>
      </trkpt>
      <trkpt lat="44.0407" lon="7.42899">
        <ele>2269.374</ele>
        <time>2020-06-26T08:41:08Z</time>
      </trkpt>
      <trkpt lat="44.0408" lon="7.42897">
        <ele>2265.852</ele>
        <time>2020-06-26T08:41:24Z</time>
      </trkpt>
      <trkpt lat="44.04088" lon="7.42886">
        <ele>2269.742</ele>
        <time>2020-06-26T08:41:39Z</time>
      </trkpt>
      <trkpt lat="44.04094" lon="7.42883">
        <ele>2271.421</ele>
        <time>2020-06-26T08:41:54Z</time>
      </trkpt>
      <trkpt lat="44.04099" lon="7.42877">
        <ele>2270.583</ele>
        <time>2020-06-26T08:42:10Z</time>
      </trkpt>
      <trkpt lat="44.04106" lon="7.42878">
        <ele>2271.741</ele>
        <time>2020-06-26T08:42:26Z</time>
      </trkpt>
      <trkpt lat="44.04109" lon="7.42892">
        <ele>2278.083</ele>
        <time>2020-06-26T08:42:41Z</time>
      </trkpt>
      <trkpt lat="44.041" lon="7.42903">
        <ele>2283.374</ele>
        <time>2020-06-26T08:42:57Z</time>
      </trkpt>
      <trkpt lat="44.04099" lon="7.42894">
        <ele>2284.915</ele>
        <time>2020-06-26T08:43:12Z</time>
      </trkpt>
      <trkpt lat="44.04104" lon="7.42889">
        <ele>2286.479</ele>
        <time>2020-06-26T08:43:28Z</time>
      </trkpt>
      <trkpt lat="44.04112" lon="7.42886">
        <ele>2284.855</ele>
        <time>2020-06-26T08:43:44Z</time>
      </trkpt>
      <trkpt lat="44.04113" lon="7.42886">
        <ele>2285.229</ele>
        <time>2020-06-26T08:44:00Z</time>
      </trkpt>
      <trkpt lat="44.0412" lon="7.42888">
        <ele>2287.96</ele>
        <time>2020-06-26T08:44:15Z</time>
      </trkpt>
      <trkpt lat="44.04128" lon="7.42898">
        <ele>2291.744</ele>
        <time>2020-06-26T08:44:31Z</time>
      </trkpt>
      <trkpt lat="44.04131" lon="7.42901">
        <ele>2294.169</ele>
        <time>2020-06-26T08:44:46Z</time>
      </trkpt>
      <trkpt lat="44.04139" lon="7.42897">
        <ele>2293.971</ele>
        <time>2020-06-26T08:45:02Z</time>
      </trkpt>
      <trkpt lat="44.04138" lon="7.42898">
        <ele>2296.007</ele>
        <time>2020-06-26T08:45:17Z</time>
      </trkpt>
      <trkpt lat="44.04147" lon="7.42907">
        <ele>2300.969</ele>
        <time>2020-06-26T08:45:33Z</time>
      </trkpt>
      <trkpt lat="44.0416" lon="7.42913">
        <ele>2305.287</ele>
        <time>2020-06-26T08:45:49Z</time>
      </trkpt>
      <trkpt lat="44.04161" lon="7.42909">
        <ele>2308.789</ele>
        <time>2020-06-26T08:46:04Z</time>
      </trkpt>
      <trkpt lat="44.04161" lon="7.4291">
        <ele>2309.322</ele>
        <time>2020-06-26T08:46:19Z</time>
      </trkpt>
      <trkpt lat="44.04173" lon="7.4291">
        <ele>2313.195</ele>
        <time>2020-06-26T08:46:35Z</time>
      </trkpt>
      <trkpt lat="44.04177" lon="7.42911">
        <ele>2314.116</ele>
        <time>2020-06-26T08:46:50Z</time>
      </trkpt>
      <trkpt lat="44.04178" lon="7.42911">
        <ele>2314.231</ele>
        <time>2020-06-26T08:47:05Z</time>
      </trkpt>
      <trkpt lat="44.04178" lon="7.42911">
        <ele>2314.231</ele>
        <time>2020-06-26T08:47:20Z</time>
      </trkpt>
      <trkpt lat="44.04178" lon="7.42911">
        <ele>2314.231</ele>
        <time>2020-06-26T08:47:36Z</time>
      </trkpt>
      <trkpt lat="44.0418" lon="7.42915">
        <ele>2313.243</ele>
        <time>2020-06-26T08:47:51Z</time>
      </trkpt>
      <trkpt lat="44.04183" lon="7.42922">
        <ele>2314.419</ele>
        <time>2020-06-26T08:48:07Z</time>
      </trkpt>
      <trkpt lat="44.04188" lon="7.42936">
        <ele>2314.942</ele>
        <time>2020-06-26T08:48:23Z</time>
      </trkpt>
      <trkpt lat="44.04189" lon="7.42941">
        <ele>2314.221</ele>
        <time>2020-06-26T08:48:38Z</time>
      </trkpt>
      <trkpt lat="44.04192" lon="7.42939">
        <ele>2315.87</ele>
        <time>2020-06-26T08:48:54Z</time>
      </trkpt>
      <trkpt lat="44.04191" lon="7.42939">
        <ele>2317.012</ele>
        <time>2020-06-26T08:49:10Z</time>
      </trkpt>
      <trkpt lat="44.04191" lon="7.42939">
        <ele>2317.012</ele>
        <time>2020-06-26T08:49:26Z</time>
      </trkpt>
      <trkpt lat="44.04204" lon="7.42947">
        <ele>2321.021</ele>
        <time>2020-06-26T08:49:41Z</time>
      </trkpt>
      <trkpt lat="44.04208" lon="7.42946">
        <ele>2321.533</ele>
        <time>2020-06-26T08:49:57Z</time>
      </trkpt>
      <trkpt lat="44.04211" lon="7.42951">
        <ele>2322.172</ele>
        <time>2020-06-26T08:50:13Z</time>
      </trkpt>
      <trkpt lat="44.04218" lon="7.42959">
        <ele>2321.515</ele>
        <time>2020-06-26T08:50:28Z</time>
      </trkpt>
      <trkpt lat="44.04223" lon="7.42961">
        <ele>2322.539</ele>
        <time>2020-06-26T08:50:43Z</time>
      </trkpt>
      <trkpt lat="44.04225" lon="7.42973">
        <ele>2324.146</ele>
        <time>2020-06-26T08:50:59Z</time>
      </trkpt>
      <trkpt lat="44.04239" lon="7.42974">
        <ele>2335.671</ele>
        <time>2020-06-26T08:51:14Z</time>
      </trkpt>
      <trkpt lat="44.0424" lon="7.42974">
        <ele>2337.651</ele>
        <time>2020-06-26T08:51:29Z</time>
      </trkpt>
      <trkpt lat="44.04241" lon="7.42974">
        <ele>2336.989</ele>
        <time>2020-06-26T08:51:45Z</time>
      </trkpt>
      <trkpt lat="44.04236" lon="7.42977">
        <ele>2336.848</ele>
        <time>2020-06-26T08:52:01Z</time>
      </trkpt>
      <trkpt lat="44.04236" lon="7.42977">
        <ele>2336.848</ele>
        <time>2020-06-26T08:52:16Z</time>
      </trkpt>
      <trkpt lat="44.04236" lon="7.42978">
        <ele>2336.61</ele>
        <time>2020-06-26T08:52:31Z</time>
      </trkpt>
      <trkpt lat="44.04236" lon="7.42979">
        <ele>2336.35</ele>
        <time>2020-06-26T08:52:47Z</time>
      </trkpt>
      <trkpt lat="44.04236" lon="7.42979">
        <ele>2336.35</ele>
        <time>2020-06-26T08:53:02Z</time>
      </trkpt>
      <trkpt lat="44.04236" lon="7.42979">
        <ele>2336.35</ele>
        <time>2020-06-26T08:53:18Z</time>
      </trkpt>
      <trkpt lat="44.04236" lon="7.4298">
        <ele>2336.527</ele>
        <time>2020-06-26T08:53:34Z</time>
      </trkpt>
      <trkpt lat="44.04238" lon="7.42987">
        <ele>2335.472</ele>
        <time>2020-06-26T08:53:49Z</time>
      </trkpt>
      <trkpt lat="44.04241" lon="7.42994">
        <ele>2334.241</ele>
        <time>2020-06-26T08:54:05Z</time>
      </trkpt>
      <trkpt lat="44.0424" lon="7.43002">
        <ele>2334.865</ele>
        <time>2020-06-26T08:54:21Z</time>
      </trkpt>
      <trkpt lat="44.04245" lon="7.43005">
        <ele>2334.807</ele>
        <time>2020-06-26T08:54:37Z</time>
      </trkpt>
      <trkpt lat="44.04249" lon="7.43003">
        <ele>2339.037</ele>
        <time>2020-06-26T08:54:52Z</time>
      </trkpt>
      <trkpt lat="44.04251" lon="7.43012">
        <ele>2341.98</ele>
        <time>2020-06-26T08:55:08Z</time>
      </trkpt>
      <trkpt lat="44.04249" lon="7.43019">
        <ele>2343.279</ele>
        <time>2020-06-26T08:55:24Z</time>
      </trkpt>
      <trkpt lat="44.04252" lon="7.43022">
        <ele>2344.513</ele>
        <time>2020-06-26T08:55:40Z</time>
      </trkpt>
      <trkpt lat="44.04256" lon="7.43027">
        <ele>2346.121</ele>
        <time>2020-06-26T08:55:55Z</time>
      </trkpt>
      <trkpt lat="44.04257" lon="7.43034">
        <ele>2346.037</ele>
        <time>2020-06-26T08:56:10Z</time>
      </trkpt>
      <trkpt lat="44.04261" lon="7.43038">
        <ele>2347.741</ele>
        <time>2020-06-26T08:56:26Z</time>
      </trkpt>
      <trkpt lat="44.04266" lon="7.43046">
        <ele>2349.099</ele>
        <time>2020-06-26T08:56:41Z</time>
      </trkpt>
      <trkpt lat="44.04277" lon="7.43048">
        <ele>2350.886</ele>
        <time>2020-06-26T08:56:56Z</time>
      </trkpt>
      <trkpt lat="44.04285" lon="7.43044">
        <ele>2355.755</ele>
        <time>2020-06-26T08:57:11Z</time>
      </trkpt>
      <trkpt lat="44.04289" lon="7.43045">
        <ele>2357.517</ele>
        <time>2020-06-26T08:57:27Z</time>
      </trkpt>
      <trkpt lat="44.04299" lon="7.43043">
        <ele>2360.325</ele>
        <time>2020-06-26T08:57:42Z</time>
      </trkpt>
      <trkpt lat="44.04309" lon="7.4304">
        <ele>2360.303</ele>
        <time>2020-06-26T08:57:57Z</time>
      </trkpt>
      <trkpt lat="44.04315" lon="7.43051">
        <ele>2362.215</ele>
        <time>2020-06-26T08:58:12Z</time>
      </trkpt>
      <trkpt lat="44.04323" lon="7.43044">
        <ele>2365.551</ele>
        <time>2020-06-26T08:58:28Z</time>
      </trkpt>
      <trkpt lat="44.04329" lon="7.43059">
        <ele>2367.093</ele>
        <time>2020-06-26T08:58:43Z</time>
      </trkpt>
      <trkpt lat="44.04337" lon="7.4306">
        <ele>2366.391</ele>
        <time>2020-06-26T08:58:58Z</time>
      </trkpt>
      <trkpt lat="44.04344" lon="7.43053">
        <ele>2368.458</ele>
        <time>2020-06-26T08:59:14Z</time>
      </trkpt>
      <trkpt lat="44.04361" lon="7.43063">
        <ele>2368.149</ele>
        <time>2020-06-26T08:59:30Z</time>
      </trkpt>
      <trkpt lat="44.04373" lon="7.43054">
        <ele>2369.762</ele>
        <time>2020-06-26T08:59:46Z</time>
      </trkpt>
      <trkpt lat="44.04379" lon="7.43052">
        <ele>2376.559</ele>
        <time>2020-06-26T09:00:01Z</time>
      </trkpt>
      <trkpt lat="44.04387" lon="7.43064">
        <ele>2377.07</ele>
        <time>2020-06-26T09:00:17Z</time>
      </trkpt>
      <trkpt lat="44.04394" lon="7.43068">
        <ele>2376.376</ele>
        <time>2020-06-26T09:00:33Z</time>
      </trkpt>
      <trkpt lat="44.04406" lon="7.43072">
        <ele>2373.978</ele>
        <time>2020-06-26T09:00:48Z</time>
      </trkpt>
      <trkpt lat="44.04416" lon="7.43074">
        <ele>2374.071</ele>
        <time>2020-06-26T09:01:03Z</time>
      </trkpt>
      <trkpt lat="44.04426" lon="7.43085">
        <ele>2374.788</ele>
        <time>2020-06-26T09:01:19Z</time>
      </trkpt>
      <trkpt lat="44.04435" lon="7.43078">
        <ele>2375.894</ele>
        <time>2020-06-26T09:01:34Z</time>
      </trkpt>
      <trkpt lat="44.04443" lon="7.43073">
        <ele>2380.229</ele>
        <time>2020-06-26T09:01:50Z</time>
      </trkpt>
      <trkpt lat="44.04446" lon="7.43072">
        <ele>2386.897</ele>
        <time>2020-06-26T09:02:05Z</time>
      </trkpt>
      <trkpt lat="44.04452" lon="7.43077">
        <ele>2389.046</ele>
        <time>2020-06-26T09:02:21Z</time>
      </trkpt>
      <trkpt lat="44.04459" lon="7.43076">
        <ele>2390.887</ele>
        <time>2020-06-26T09:02:37Z</time>
      </trkpt>
      <trkpt lat="44.04466" lon="7.43077">
        <ele>2393.643</ele>
        <time>2020-06-26T09:02:52Z</time>
      </trkpt>
      <trkpt lat="44.04476" lon="7.4308">
        <ele>2392.41</ele>
        <time>2020-06-26T09:03:08Z</time>
      </trkpt>
      <trkpt lat="44.04481" lon="7.43081">
        <ele>2393.964</ele>
        <time>2020-06-26T09:03:24Z</time>
      </trkpt>
      <trkpt lat="44.04488" lon="7.43085">
        <ele>2393.757</ele>
        <time>2020-06-26T09:03:39Z</time>
      </trkpt>
      <trkpt lat="44.04492" lon="7.43085">
        <ele>2395.142</ele>
        <time>2020-06-26T09:03:55Z</time>
      </trkpt>
      <trkpt lat="44.04497" lon="7.43089">
        <ele>2396.931</ele>
        <time>2020-06-26T09:04:10Z</time>
      </trkpt>
      <trkpt lat="44.04502" lon="7.43088">
        <ele>2401.703</ele>
        <time>2020-06-26T09:04:25Z</time>
      </trkpt>
      <trkpt lat="44.04504" lon="7.43086">
        <ele>2402.778</ele>
        <time>2020-06-26T09:04:41Z</time>
      </trkpt>
      <trkpt lat="44.04504" lon="7.43086">
        <ele>2402.778</ele>
        <time>2020-06-26T09:04:57Z</time>
      </trkpt>
      <trkpt lat="44.04504" lon="7.43086">
        <ele>2402.778</ele>
        <time>2020-06-26T09:05:13Z</time>
      </trkpt>
      <trkpt lat="44.04504" lon="7.43086">
        <ele>2402.778</ele>
        <time>2020-06-26T09:05:28Z</time>
      </trkpt>
      <trkpt lat="44.04504" lon="7.43086">
        <ele>2402.778</ele>
        <time>2020-06-26T09:05:43Z</time>
      </trkpt>
      <trkpt lat="44.04504" lon="7.43085">
        <ele>2405.869</ele>
        <time>2020-06-26T09:05:59Z</time>
      </trkpt>
      <trkpt lat="44.04514" lon="7.43087">
        <ele>2406.825</ele>
        <time>2020-06-26T09:06:14Z</time>
      </trkpt>
      <trkpt lat="44.04523" lon="7.43091">
        <ele>2405.951</ele>
        <time>2020-06-26T09:06:30Z</time>
      </trkpt>
      <trkpt lat="44.04527" lon="7.43089">
        <ele>2408.938</ele>
        <time>2020-06-26T09:06:46Z</time>
      </trkpt>
      <trkpt lat="44.04533" lon="7.43091">
        <ele>2409.493</ele>
        <time>2020-06-26T09:07:01Z</time>
      </trkpt>
      <trkpt lat="44.04542" lon="7.43093">
        <ele>2408.52</ele>
        <time>2020-06-26T09:07:17Z</time>
      </trkpt>
      <trkpt lat="44.04548" lon="7.43085">
        <ele>2410.505</ele>
        <time>2020-06-26T09:07:33Z</time>
      </trkpt>
      <trkpt lat="44.04554" lon="7.43077">
        <ele>2416.181</ele>
        <time>2020-06-26T09:07:49Z</time>
      </trkpt>
      <trkpt lat="44.04559" lon="7.43067">
        <ele>2417.497</ele>
        <time>2020-06-26T09:08:05Z</time>
      </trkpt>
      <trkpt lat="44.04571" lon="7.43064">
        <ele>2416.767</ele>
        <time>2020-06-26T09:08:21Z</time>
      </trkpt>
      <trkpt lat="44.04583" lon="7.43071">
        <ele>2412.633</ele>
        <time>2020-06-26T09:08:37Z</time>
      </trkpt>
      <trkpt lat="44.04584" lon="7.43064">
        <ele>2416.22</ele>
        <time>2020-06-26T09:08:53Z</time>
      </trkpt>
      <trkpt lat="44.04589" lon="7.43064">
        <ele>2415.784</ele>
        <time>2020-06-26T09:09:08Z</time>
      </trkpt>
      <trkpt lat="44.04598" lon="7.43079">
        <ele>2413.32</ele>
        <time>2020-06-26T09:09:24Z</time>
      </trkpt>
      <trkpt lat="44.046" lon="7.43073">
        <ele>2419.788</ele>
        <time>2020-06-26T09:09:39Z</time>
      </trkpt>
      <trkpt lat="44.0461" lon="7.43072">
        <ele>2423.919</ele>
        <time>2020-06-26T09:09:54Z</time>
      </trkpt>
      <trkpt lat="44.04619" lon="7.43072">
        <ele>2426.182</ele>
        <time>2020-06-26T09:10:10Z</time>
      </trkpt>
      <trkpt lat="44.04626" lon="7.43068">
        <ele>2426.415</ele>
        <time>2020-06-26T09:10:26Z</time>
      </trkpt>
      <trkpt lat="44.04632" lon="7.43071">
        <ele>2423.047</ele>
        <time>2020-06-26T09:10:42Z</time>
      </trkpt>
      <trkpt lat="44.04638" lon="7.43073">
        <ele>2427.055</ele>
        <time>2020-06-26T09:10:58Z</time>
      </trkpt>
      <trkpt lat="44.0464" lon="7.43077">
        <ele>2429.665</ele>
        <time>2020-06-26T09:11:14Z</time>
      </trkpt>
      <trkpt lat="44.04648" lon="7.43091">
        <ele>2427.919</ele>
        <time>2020-06-26T09:11:30Z</time>
      </trkpt>
      <trkpt lat="44.0465" lon="7.43086">
        <ele>2428.577</ele>
        <time>2020-06-26T09:11:45Z</time>
      </trkpt>
      <trkpt lat="44.04651" lon="7.43078">
        <ele>2435.457</ele>
        <time>2020-06-26T09:12:00Z</time>
      </trkpt>
      <trkpt lat="44.04658" lon="7.43085">
        <ele>2443.576</ele>
        <time>2020-06-26T09:12:16Z</time>
      </trkpt>
      <trkpt lat="44.04661" lon="7.43075">
        <ele>2446.084</ele>
        <time>2020-06-26T09:12:31Z</time>
      </trkpt>
      <trkpt lat="44.04666" lon="7.43071">
        <ele>2448.299</ele>
        <time>2020-06-26T09:12:47Z</time>
      </trkpt>
      <trkpt lat="44.04676" lon="7.43063">
        <ele>2446.111</ele>
        <time>2020-06-26T09:13:02Z</time>
      </trkpt>
      <trkpt lat="44.04678" lon="7.43059">
        <ele>2447.98</ele>
        <time>2020-06-26T09:13:18Z</time>
      </trkpt>
      <trkpt lat="44.04684" lon="7.43059">
        <ele>2449.179</ele>
        <time>2020-06-26T09:13:34Z</time>
      </trkpt>
      <trkpt lat="44.0469" lon="7.43053">
        <ele>2454.164</ele>
        <time>2020-06-26T09:13:49Z</time>
      </trkpt>
      <trkpt lat="44.04695" lon="7.43051">
        <ele>2456.031</ele>
        <time>2020-06-26T09:14:05Z</time>
      </trkpt>
      <trkpt lat="44.04704" lon="7.43059">
        <ele>2455.07</ele>
        <time>2020-06-26T09:14:20Z</time>
      </trkpt>
      <trkpt lat="44.0471" lon="7.43064">
        <ele>2456.317</ele>
        <time>2020-06-26T09:14:36Z</time>
      </trkpt>
      <trkpt lat="44.04711" lon="7.43052">
        <ele>2459.255</ele>
        <time>2020-06-26T09:14:51Z</time>
      </trkpt>
      <trkpt lat="44.0471" lon="7.43052">
        <ele>2462.433</ele>
        <time>2020-06-26T09:15:07Z</time>
      </trkpt>
      <trkpt lat="44.04715" lon="7.43055">
        <ele>2462.077</ele>
        <time>2020-06-26T09:15:23Z</time>
      </trkpt>
      <trkpt lat="44.04722" lon="7.43059">
        <ele>2461.263</ele>
        <time>2020-06-26T09:15:38Z</time>
      </trkpt>
      <trkpt lat="44.04724" lon="7.43061">
        <ele>2461.265</ele>
        <time>2020-06-26T09:15:54Z</time>
      </trkpt>
      <trkpt lat="44.04721" lon="7.43066">
        <ele>2463.317</ele>
        <time>2020-06-26T09:16:09Z</time>
      </trkpt>
      <trkpt lat="44.04717" lon="7.43075">
        <ele>2469.519</ele>
        <time>2020-06-26T09:16:25Z</time>
      </trkpt>
      <trkpt lat="44.04719" lon="7.43076">
        <ele>2472.963</ele>
        <time>2020-06-26T09:16:41Z</time>
      </trkpt>
      <trkpt lat="44.04725" lon="7.43077">
        <ele>2473.039</ele>
        <time>2020-06-26T09:16:57Z</time>
      </trkpt>
      <trkpt lat="44.04729" lon="7.43079">
        <ele>2475.541</ele>
        <time>2020-06-26T09:17:13Z</time>
      </trkpt>
      <trkpt lat="44.04732" lon="7.43078">
        <ele>2478.711</ele>
        <time>2020-06-26T09:17:29Z</time>
      </trkpt>
      <trkpt lat="44.04736" lon="7.43076">
        <ele>2478.584</ele>
        <time>2020-06-26T09:17:45Z</time>
      </trkpt>
      <trkpt lat="44.04744" lon="7.43074">
        <ele>2479.463</ele>
        <time>2020-06-26T09:18:00Z</time>
      </trkpt>
      <trkpt lat="44.04744" lon="7.43074">
        <ele>2478.996</ele>
        <time>2020-06-26T09:18:16Z</time>
      </trkpt>
      <trkpt lat="44.04742" lon="7.43072">
        <ele>2480.188</ele>
        <time>2020-06-26T09:18:31Z</time>
      </trkpt>
      <trkpt lat="44.04744" lon="7.43071">
        <ele>2483.133</ele>
        <time>2020-06-26T09:18:46Z</time>
      </trkpt>
      <trkpt lat="44.04755" lon="7.43075">
        <ele>2469.465</ele>
        <time>2020-06-26T09:19:01Z</time>
      </trkpt>
      <trkpt lat="44.04754" lon="7.43077">
        <ele>2470.316</ele>
        <time>2020-06-26T09:19:16Z</time>
      </trkpt>
      <trkpt lat="44.04754" lon="7.43077">
        <ele>2470.316</ele>
        <time>2020-06-26T09:19:32Z</time>
      </trkpt>
      <trkpt lat="44.04754" lon="7.43077">
        <ele>2470.316</ele>
        <time>2020-06-26T09:19:47Z</time>
      </trkpt>
      <trkpt lat="44.04754" lon="7.43077">
        <ele>2470.316</ele>
        <time>2020-06-26T09:20:03Z</time>
      </trkpt>
      <trkpt lat="44.04755" lon="7.43081">
        <ele>2474.071</ele>
        <time>2020-06-26T09:20:19Z</time>
      </trkpt>
      <trkpt lat="44.04755" lon="7.43081">
        <ele>2474.071</ele>
        <time>2020-06-26T09:20:34Z</time>
      </trkpt>
      <trkpt lat="44.04755" lon="7.43081">
        <ele>2474.071</ele>
        <time>2020-06-26T09:20:50Z</time>
      </trkpt>
      <trkpt lat="44.04755" lon="7.43082">
        <ele>2474.184</ele>
        <time>2020-06-26T09:21:06Z</time>
      </trkpt>
      <trkpt lat="44.04755" lon="7.43083">
        <ele>2474.249</ele>
        <time>2020-06-26T09:21:21Z</time>
      </trkpt>
      <trkpt lat="44.04755" lon="7.43083">
        <ele>2474.249</ele>
        <time>2020-06-26T09:21:37Z</time>
      </trkpt>
      <trkpt lat="44.04755" lon="7.43083">
        <ele>2474.249</ele>
        <time>2020-06-26T09:21:53Z</time>
      </trkpt>
      <trkpt lat="44.04755" lon="7.43083">
        <ele>2474.249</ele>
        <time>2020-06-26T09:22:09Z</time>
      </trkpt>
      <trkpt lat="44.04755" lon="7.43083">
        <ele>2474.249</ele>
        <time>2020-06-26T09:22:24Z</time>
      </trkpt>
      <trkpt lat="44.04755" lon="7.43083">
        <ele>2474.249</ele>
        <time>2020-06-26T09:22:40Z</time>
      </trkpt>
      <trkpt lat="44.04755" lon="7.43083">
        <ele>2474.249</ele>
        <time>2020-06-26T09:22:56Z</time>
      </trkpt>
      <trkpt lat="44.04755" lon="7.43083">
        <ele>2474.249</ele>
        <time>2020-06-26T09:23:11Z</time>
      </trkpt>
      <trkpt lat="44.04755" lon="7.43083">
        <ele>2474.249</ele>
        <time>2020-06-26T09:23:26Z</time>
      </trkpt>
      <trkpt lat="44.04755" lon="7.43083">
        <ele>2474.249</ele>
        <time>2020-06-26T09:23:42Z</time>
      </trkpt>
      <trkpt lat="44.04755" lon="7.43083">
        <ele>2474.249</ele>
        <time>2020-06-26T09:23:58Z</time>
      </trkpt>
      <trkpt lat="44.04755" lon="7.43083">
        <ele>2474.249</ele>
        <time>2020-06-26T09:24:13Z</time>
      </trkpt>
      <trkpt lat="44.04755" lon="7.43083">
        <ele>2474.249</ele>
        <time>2020-06-26T09:24:28Z</time>
      </trkpt>
      <trkpt lat="44.04755" lon="7.43083">
        <ele>2474.249</ele>
        <time>2020-06-26T09:24:44Z</time>
      </trkpt>
      <trkpt lat="44.04755" lon="7.43083">
        <ele>2474.249</ele>
        <time>2020-06-26T09:25:00Z</time>
      </trkpt>
      <trkpt lat="44.04755" lon="7.43083">
        <ele>2474.249</ele>
        <time>2020-06-26T09:25:16Z</time>
      </trkpt>
      <trkpt lat="44.04755" lon="7.43083">
        <ele>2474.249</ele>
        <time>2020-06-26T09:25:31Z</time>
      </trkpt>
      <trkpt lat="44.04755" lon="7.43084">
        <ele>2474.971</ele>
        <time>2020-06-26T09:25:47Z</time>
      </trkpt>
      <trkpt lat="44.04755" lon="7.4308">
        <ele>2475.945</ele>
        <time>2020-06-26T09:26:03Z</time>
      </trkpt>
      <trkpt lat="44.04755" lon="7.43081">
        <ele>2474.936</ele>
        <time>2020-06-26T09:26:18Z</time>
      </trkpt>
      <trkpt lat="44.04754" lon="7.43081">
        <ele>2476.017</ele>
        <time>2020-06-26T09:26:34Z</time>
      </trkpt>
      <trkpt lat="44.04757" lon="7.43082">
        <ele>2477.472</ele>
        <time>2020-06-26T09:26:50Z</time>
      </trkpt>
      <trkpt lat="44.04757" lon="7.43082">
        <ele>2477.472</ele>
        <time>2020-06-26T09:27:06Z</time>
      </trkpt>
      <trkpt lat="44.04757" lon="7.43082">
        <ele>2477.472</ele>
        <time>2020-06-26T09:27:21Z</time>
      </trkpt>
      <trkpt lat="44.04757" lon="7.43082">
        <ele>2477.472</ele>
        <time>2020-06-26T09:27:37Z</time>
      </trkpt>
      <trkpt lat="44.04757" lon="7.43082">
        <ele>2477.472</ele>
        <time>2020-06-26T09:27:53Z</time>
      </trkpt>
      <trkpt lat="44.04757" lon="7.43082">
        <ele>2477.472</ele>
        <time>2020-06-26T09:28:09Z</time>
      </trkpt>
      <trkpt lat="44.04757" lon="7.43082">
        <ele>2477.472</ele>
        <time>2020-06-26T09:28:24Z</time>
      </trkpt>
      <trkpt lat="44.04757" lon="7.43082">
        <ele>2477.472</ele>
        <time>2020-06-26T09:28:39Z</time>
      </trkpt>
      <trkpt lat="44.04757" lon="7.43082">
        <ele>2477.472</ele>
        <time>2020-06-26T09:28:55Z</time>
      </trkpt>
      <trkpt lat="44.04757" lon="7.43082">
        <ele>2477.472</ele>
        <time>2020-06-26T09:29:11Z</time>
      </trkpt>
      <trkpt lat="44.04757" lon="7.43082">
        <ele>2477.472</ele>
        <time>2020-06-26T09:29:26Z</time>
      </trkpt>
      <trkpt lat="44.04757" lon="7.43082">
        <ele>2477.472</ele>
        <time>2020-06-26T09:29:42Z</time>
      </trkpt>
      <trkpt lat="44.04757" lon="7.43082">
        <ele>2477.472</ele>
        <time>2020-06-26T09:29:57Z</time>
      </trkpt>
      <trkpt lat="44.04757" lon="7.43082">
        <ele>2477.472</ele>
        <time>2020-06-26T09:30:13Z</time>
      </trkpt>
      <trkpt lat="44.04757" lon="7.43082">
        <ele>2477.472</ele>
        <time>2020-06-26T09:30:28Z</time>
      </trkpt>
      <trkpt lat="44.04757" lon="7.43082">
        <ele>2477.472</ele>
        <time>2020-06-26T09:30:43Z</time>
      </trkpt>
      <trkpt lat="44.04757" lon="7.43082">
        <ele>2477.472</ele>
        <time>2020-06-26T09:30:59Z</time>
      </trkpt>
      <trkpt lat="44.04757" lon="7.43082">
        <ele>2477.472</ele>
        <time>2020-06-26T09:31:15Z</time>
      </trkpt>
      <trkpt lat="44.04757" lon="7.43082">
        <ele>2477.472</ele>
        <time>2020-06-26T09:31:30Z</time>
      </trkpt>
      <trkpt lat="44.04757" lon="7.43082">
        <ele>2477.472</ele>
        <time>2020-06-26T09:31:45Z</time>
      </trkpt>
      <trkpt lat="44.04757" lon="7.43082">
        <ele>2477.472</ele>
        <time>2020-06-26T09:32:01Z</time>
      </trkpt>
      <trkpt lat="44.04757" lon="7.43082">
        <ele>2477.472</ele>
        <time>2020-06-26T09:32:16Z</time>
      </trkpt>
      <trkpt lat="44.04758" lon="7.43079">
        <ele>2477.183</ele>
        <time>2020-06-26T09:32:32Z</time>
      </trkpt>
      <trkpt lat="44.04759" lon="7.4308">
        <ele>2476.654</ele>
        <time>2020-06-26T09:32:48Z</time>
      </trkpt>
      <trkpt lat="44.04759" lon="7.4308">
        <ele>2476.654</ele>
        <time>2020-06-26T09:33:03Z</time>
      </trkpt>
      <trkpt lat="44.04759" lon="7.4308">
        <ele>2476.654</ele>
        <time>2020-06-26T09:33:19Z</time>
      </trkpt>
      <trkpt lat="44.04759" lon="7.4308">
        <ele>2476.654</ele>
        <time>2020-06-26T09:33:35Z</time>
      </trkpt>
      <trkpt lat="44.04759" lon="7.4308">
        <ele>2476.654</ele>
        <time>2020-06-26T09:33:50Z</time>
      </trkpt>
      <trkpt lat="44.04759" lon="7.4308">
        <ele>2476.654</ele>
        <time>2020-06-26T09:34:05Z</time>
      </trkpt>
      <trkpt lat="44.04759" lon="7.4308">
        <ele>2476.654</ele>
        <time>2020-06-26T09:34:21Z</time>
      </trkpt>
      <trkpt lat="44.04759" lon="7.4308">
        <ele>2476.654</ele>
        <time>2020-06-26T09:34:37Z</time>
      </trkpt>
      <trkpt lat="44.04759" lon="7.4308">
        <ele>2476.654</ele>
        <time>2020-06-26T09:34:53Z</time>
      </trkpt>
      <trkpt lat="44.04759" lon="7.4308">
        <ele>2476.654</ele>
        <time>2020-06-26T09:35:08Z</time>
      </trkpt>
      <trkpt lat="44.04759" lon="7.4308">
        <ele>2476.654</ele>
        <time>2020-06-26T09:35:24Z</time>
      </trkpt>
      <trkpt lat="44.04759" lon="7.4308">
        <ele>2476.654</ele>
        <time>2020-06-26T09:35:40Z</time>
      </trkpt>
      <trkpt lat="44.04759" lon="7.4308">
        <ele>2476.654</ele>
        <time>2020-06-26T09:35:55Z</time>
      </trkpt>
      <trkpt lat="44.04759" lon="7.4308">
        <ele>2476.654</ele>
        <time>2020-06-26T09:36:11Z</time>
      </trkpt>
      <trkpt lat="44.04759" lon="7.4308">
        <ele>2476.654</ele>
        <time>2020-06-26T09:36:26Z</time>
      </trkpt>
      <trkpt lat="44.04759" lon="7.4308">
        <ele>2476.654</ele>
        <time>2020-06-26T09:36:42Z</time>
      </trkpt>
      <trkpt lat="44.04759" lon="7.4308">
        <ele>2476.654</ele>
        <time>2020-06-26T09:36:57Z</time>
      </trkpt>
      <trkpt lat="44.04759" lon="7.4308">
        <ele>2476.654</ele>
        <time>2020-06-26T09:37:13Z</time>
      </trkpt>
      <trkpt lat="44.04759" lon="7.4308">
        <ele>2476.654</ele>
        <time>2020-06-26T09:37:29Z</time>
      </trkpt>
      <trkpt lat="44.04759" lon="7.4308">
        <ele>2476.654</ele>
        <time>2020-06-26T09:37:45Z</time>
      </trkpt>
      <trkpt lat="44.04759" lon="7.4308">
        <ele>2476.654</ele>
        <time>2020-06-26T09:38:00Z</time>
      </trkpt>
      <trkpt lat="44.04759" lon="7.4308">
        <ele>2476.654</ele>
        <time>2020-06-26T09:38:16Z</time>
      </trkpt>
      <trkpt lat="44.04759" lon="7.4308">
        <ele>2476.654</ele>
        <time>2020-06-26T09:38:32Z</time>
      </trkpt>
      <trkpt lat="44.04759" lon="7.4308">
        <ele>2476.654</ele>
        <time>2020-06-26T09:38:47Z</time>
      </trkpt>
      <trkpt lat="44.04759" lon="7.4308">
        <ele>2476.654</ele>
        <time>2020-06-26T09:39:02Z</time>
      </trkpt>
      <trkpt lat="44.04759" lon="7.4308">
        <ele>2476.654</ele>
        <time>2020-06-26T09:39:18Z</time>
      </trkpt>
      <trkpt lat="44.04759" lon="7.4308">
        <ele>2476.654</ele>
        <time>2020-06-26T09:39:34Z</time>
      </trkpt>
      <trkpt lat="44.04759" lon="7.4308">
        <ele>2476.654</ele>
        <time>2020-06-26T09:39:49Z</time>
      </trkpt>
      <trkpt lat="44.04759" lon="7.4308">
        <ele>2476.654</ele>
        <time>2020-06-26T09:40:04Z</time>
      </trkpt>
      <trkpt lat="44.04759" lon="7.4308">
        <ele>2476.654</ele>
        <time>2020-06-26T09:40:20Z</time>
      </trkpt>
      <trkpt lat="44.04759" lon="7.4308">
        <ele>2476.654</ele>
        <time>2020-06-26T09:40:35Z</time>
      </trkpt>
      <trkpt lat="44.04759" lon="7.4308">
        <ele>2476.654</ele>
        <time>2020-06-26T09:40:51Z</time>
      </trkpt>
      <trkpt lat="44.04759" lon="7.4308">
        <ele>2476.654</ele>
        <time>2020-06-26T09:41:07Z</time>
      </trkpt>
      <trkpt lat="44.04759" lon="7.4308">
        <ele>2476.654</ele>
        <time>2020-06-26T09:41:22Z</time>
      </trkpt>
      <trkpt lat="44.04759" lon="7.4308">
        <ele>2476.654</ele>
        <time>2020-06-26T09:41:38Z</time>
      </trkpt>
      <trkpt lat="44.04759" lon="7.4308">
        <ele>2476.654</ele>
        <time>2020-06-26T09:41:54Z</time>
      </trkpt>
      <trkpt lat="44.04759" lon="7.4308">
        <ele>2476.654</ele>
        <time>2020-06-26T09:42:09Z</time>
      </trkpt>
      <trkpt lat="44.04759" lon="7.4308">
        <ele>2476.654</ele>
        <time>2020-06-26T09:42:25Z</time>
      </trkpt>
      <trkpt lat="44.04759" lon="7.4308">
        <ele>2476.654</ele>
        <time>2020-06-26T09:42:40Z</time>
      </trkpt>
      <trkpt lat="44.04759" lon="7.4308">
        <ele>2476.654</ele>
        <time>2020-06-26T09:42:56Z</time>
      </trkpt>
      <trkpt lat="44.04759" lon="7.4308">
        <ele>2476.654</ele>
        <time>2020-06-26T09:43:11Z</time>
      </trkpt>
      <trkpt lat="44.04759" lon="7.4308">
        <ele>2476.654</ele>
        <time>2020-06-26T09:43:27Z</time>
      </trkpt>
      <trkpt lat="44.04759" lon="7.4308">
        <ele>2476.654</ele>
        <time>2020-06-26T09:43:43Z</time>
      </trkpt>
      <trkpt lat="44.04759" lon="7.4308">
        <ele>2476.654</ele>
        <time>2020-06-26T09:43:58Z</time>
      </trkpt>
      <trkpt lat="44.04759" lon="7.4308">
        <ele>2476.654</ele>
        <time>2020-06-26T09:44:14Z</time>
      </trkpt>
      <trkpt lat="44.04759" lon="7.4308">
        <ele>2476.654</ele>
        <time>2020-06-26T09:44:29Z</time>
      </trkpt>
      <trkpt lat="44.04759" lon="7.4308">
        <ele>2476.654</ele>
        <time>2020-06-26T09:44:45Z</time>
      </trkpt>
      <trkpt lat="44.04759" lon="7.4308">
        <ele>2476.654</ele>
        <time>2020-06-26T09:45:01Z</time>
      </trkpt>
      <trkpt lat="44.04759" lon="7.4308">
        <ele>2476.654</ele>
        <time>2020-06-26T09:45:16Z</time>
      </trkpt>
      <trkpt lat="44.04759" lon="7.4308">
        <ele>2476.654</ele>
        <time>2020-06-26T09:45:31Z</time>
      </trkpt>
      <trkpt lat="44.04759" lon="7.4308">
        <ele>2476.654</ele>
        <time>2020-06-26T09:45:46Z</time>
      </trkpt>
      <trkpt lat="44.04759" lon="7.4308">
        <ele>2476.654</ele>
        <time>2020-06-26T09:46:02Z</time>
      </trkpt>
      <trkpt lat="44.04759" lon="7.4308">
        <ele>2476.654</ele>
        <time>2020-06-26T09:46:17Z</time>
      </trkpt>
      <trkpt lat="44.04759" lon="7.4308">
        <ele>2476.654</ele>
        <time>2020-06-26T09:46:32Z</time>
      </trkpt>
      <trkpt lat="44.04759" lon="7.4308">
        <ele>2476.654</ele>
        <time>2020-06-26T09:46:48Z</time>
      </trkpt>
      <trkpt lat="44.04759" lon="7.4308">
        <ele>2476.654</ele>
        <time>2020-06-26T09:47:04Z</time>
      </trkpt>
      <trkpt lat="44.04759" lon="7.4308">
        <ele>2476.654</ele>
        <time>2020-06-26T09:47:20Z</time>
      </trkpt>
      <trkpt lat="44.04756" lon="7.43083">
        <ele>2478.337</ele>
        <time>2020-06-26T09:47:35Z</time>
      </trkpt>
      <trkpt lat="44.04756" lon="7.43084">
        <ele>2478.471</ele>
        <time>2020-06-26T09:47:50Z</time>
      </trkpt>
      <trkpt lat="44.04756" lon="7.43084">
        <ele>2478.471</ele>
        <time>2020-06-26T09:48:06Z</time>
      </trkpt>
      <trkpt lat="44.04756" lon="7.43084">
        <ele>2478.471</ele>
        <time>2020-06-26T09:48:22Z</time>
      </trkpt>
      <trkpt lat="44.04756" lon="7.43084">
        <ele>2478.471</ele>
        <time>2020-06-26T09:48:38Z</time>
      </trkpt>
      <trkpt lat="44.04756" lon="7.43084">
        <ele>2478.471</ele>
        <time>2020-06-26T09:48:53Z</time>
      </trkpt>
      <trkpt lat="44.04756" lon="7.43084">
        <ele>2478.471</ele>
        <time>2020-06-26T09:49:09Z</time>
      </trkpt>
      <trkpt lat="44.04756" lon="7.43084">
        <ele>2478.471</ele>
        <time>2020-06-26T09:49:24Z</time>
      </trkpt>
      <trkpt lat="44.04756" lon="7.43084">
        <ele>2478.471</ele>
        <time>2020-06-26T09:49:40Z</time>
      </trkpt>
      <trkpt lat="44.04756" lon="7.43084">
        <ele>2478.471</ele>
        <time>2020-06-26T09:49:56Z</time>
      </trkpt>
      <trkpt lat="44.04756" lon="7.43084">
        <ele>2478.471</ele>
        <time>2020-06-26T09:50:12Z</time>
      </trkpt>
      <trkpt lat="44.04756" lon="7.43084">
        <ele>2478.471</ele>
        <time>2020-06-26T09:50:27Z</time>
      </trkpt>
      <trkpt lat="44.04757" lon="7.43079">
        <ele>2478.092</ele>
        <time>2020-06-26T09:50:43Z</time>
      </trkpt>
      <trkpt lat="44.04757" lon="7.43079">
        <ele>2478.092</ele>
        <time>2020-06-26T09:50:59Z</time>
      </trkpt>
      <trkpt lat="44.04757" lon="7.43079">
        <ele>2478.092</ele>
        <time>2020-06-26T09:51:15Z</time>
      </trkpt>
      <trkpt lat="44.04757" lon="7.43079">
        <ele>2478.092</ele>
        <time>2020-06-26T09:51:30Z</time>
      </trkpt>
      <trkpt lat="44.04757" lon="7.43079">
        <ele>2478.092</ele>
        <time>2020-06-26T09:51:46Z</time>
      </trkpt>
      <trkpt lat="44.04757" lon="7.43079">
        <ele>2478.092</ele>
        <time>2020-06-26T09:52:02Z</time>
      </trkpt>
      <trkpt lat="44.04765" lon="7.43065">
        <ele>2485.293</ele>
        <time>2020-06-26T09:52:18Z</time>
      </trkpt>
      <trkpt lat="44.04772" lon="7.43053">
        <ele>2485.649</ele>
        <time>2020-06-26T09:52:33Z</time>
      </trkpt>
      <trkpt lat="44.04778" lon="7.43045">
        <ele>2484.623</ele>
        <time>2020-06-26T09:52:49Z</time>
      </trkpt>
      <trkpt lat="44.04786" lon="7.43038">
        <ele>2485.988</ele>
        <time>2020-06-26T09:53:05Z</time>
      </trkpt>
      <trkpt lat="44.04803" lon="7.43027">
        <ele>2485.35</ele>
        <time>2020-06-26T09:53:21Z</time>
      </trkpt>
      <trkpt lat="44.04817" lon="7.43038">
        <ele>2479.005</ele>
        <time>2020-06-26T09:53:36Z</time>
      </trkpt>
      <trkpt lat="44.04828" lon="7.43049">
        <ele>2475.209</ele>
        <time>2020-06-26T09:53:52Z</time>
      </trkpt>
      <trkpt lat="44.04836" lon="7.43053">
        <ele>2472.04</ele>
        <time>2020-06-26T09:54:07Z</time>
      </trkpt>
      <trkpt lat="44.04848" lon="7.43068">
        <ele>2467.131</ele>
        <time>2020-06-26T09:54:22Z</time>
      </trkpt>
      <trkpt lat="44.0485" lon="7.4307">
        <ele>2466.229</ele>
        <time>2020-06-26T09:54:37Z</time>
      </trkpt>
      <trkpt lat="44.04849" lon="7.43069">
        <ele>2465.883</ele>
        <time>2020-06-26T09:54:53Z</time>
      </trkpt>
      <trkpt lat="44.04846" lon="7.4307">
        <ele>2465.483</ele>
        <time>2020-06-26T09:55:08Z</time>
      </trkpt>
      <trkpt lat="44.04846" lon="7.4307">
        <ele>2465.483</ele>
        <time>2020-06-26T09:55:24Z</time>
      </trkpt>
      <trkpt lat="44.04846" lon="7.4307">
        <ele>2465.483</ele>
        <time>2020-06-26T09:55:39Z</time>
      </trkpt>
      <trkpt lat="44.04846" lon="7.4307">
        <ele>2465.483</ele>
        <time>2020-06-26T09:55:54Z</time>
      </trkpt>
      <trkpt lat="44.04859" lon="7.43062">
        <ele>2466.493</ele>
        <time>2020-06-26T09:56:10Z</time>
      </trkpt>
      <trkpt lat="44.04876" lon="7.43065">
        <ele>2467.653</ele>
        <time>2020-06-26T09:56:26Z</time>
      </trkpt>
      <trkpt lat="44.04897" lon="7.43061">
        <ele>2464.465</ele>
        <time>2020-06-26T09:56:42Z</time>
      </trkpt>
      <trkpt lat="44.04908" lon="7.43063">
        <ele>2463.04</ele>
        <time>2020-06-26T09:56:57Z</time>
      </trkpt>
      <trkpt lat="44.0492" lon="7.43058">
        <ele>2458.143</ele>
        <time>2020-06-26T09:57:13Z</time>
      </trkpt>
      <trkpt lat="44.04919" lon="7.43052">
        <ele>2458.753</ele>
        <time>2020-06-26T09:57:29Z</time>
      </trkpt>
      <trkpt lat="44.04921" lon="7.43059">
        <ele>2460.975</ele>
        <time>2020-06-26T09:57:45Z</time>
      </trkpt>
      <trkpt lat="44.04931" lon="7.43068">
        <ele>2461.716</ele>
        <time>2020-06-26T09:58:01Z</time>
      </trkpt>
      <trkpt lat="44.04926" lon="7.4307">
        <ele>2459.769</ele>
        <time>2020-06-26T09:58:17Z</time>
      </trkpt>
      <trkpt lat="44.04926" lon="7.43074">
        <ele>2459.401</ele>
        <time>2020-06-26T09:58:33Z</time>
      </trkpt>
      <trkpt lat="44.04932" lon="7.431">
        <ele>2457.16</ele>
        <time>2020-06-26T09:58:49Z</time>
      </trkpt>
      <trkpt lat="44.04934" lon="7.43115">
        <ele>2453.366</ele>
        <time>2020-06-26T09:59:04Z</time>
      </trkpt>
      <trkpt lat="44.04937" lon="7.43136">
        <ele>2448.429</ele>
        <time>2020-06-26T09:59:19Z</time>
      </trkpt>
      <trkpt lat="44.0493" lon="7.4315">
        <ele>2443.239</ele>
        <time>2020-06-26T09:59:35Z</time>
      </trkpt>
      <trkpt lat="44.04928" lon="7.43169">
        <ele>2440.513</ele>
        <time>2020-06-26T09:59:51Z</time>
      </trkpt>
      <trkpt lat="44.04933" lon="7.43181">
        <ele>2437.599</ele>
        <time>2020-06-26T10:00:07Z</time>
      </trkpt>
      <trkpt lat="44.0494" lon="7.432">
        <ele>2438.662</ele>
        <time>2020-06-26T10:00:23Z</time>
      </trkpt>
      <trkpt lat="44.04946" lon="7.43222">
        <ele>2436.117</ele>
        <time>2020-06-26T10:00:38Z</time>
      </trkpt>
      <trkpt lat="44.0495" lon="7.43241">
        <ele>2432.476</ele>
        <time>2020-06-26T10:00:53Z</time>
      </trkpt>
      <trkpt lat="44.04951" lon="7.43256">
        <ele>2428.952</ele>
        <time>2020-06-26T10:01:09Z</time>
      </trkpt>
      <trkpt lat="44.04951" lon="7.43256">
        <ele>2428.49</ele>
        <time>2020-06-26T10:01:24Z</time>
      </trkpt>
      <trkpt lat="44.04952" lon="7.43256">
        <ele>2427.275</ele>
        <time>2020-06-26T10:01:40Z</time>
      </trkpt>
      <trkpt lat="44.04949" lon="7.43258">
        <ele>2424.732</ele>
        <time>2020-06-26T10:01:56Z</time>
      </trkpt>
      <trkpt lat="44.04956" lon="7.43266">
        <ele>2424.813</ele>
        <time>2020-06-26T10:02:11Z</time>
      </trkpt>
      <trkpt lat="44.04971" lon="7.43287">
        <ele>2425.949</ele>
        <time>2020-06-26T10:02:27Z</time>
      </trkpt>
      <trkpt lat="44.04975" lon="7.43303">
        <ele>2417.896</ele>
        <time>2020-06-26T10:02:43Z</time>
      </trkpt>
      <trkpt lat="44.04975" lon="7.43319">
        <ele>2413.385</ele>
        <time>2020-06-26T10:02:58Z</time>
      </trkpt>
      <trkpt lat="44.0498" lon="7.43325">
        <ele>2412.011</ele>
        <time>2020-06-26T10:03:14Z</time>
      </trkpt>
      <trkpt lat="44.04994" lon="7.43325">
        <ele>2405.849</ele>
        <time>2020-06-26T10:03:30Z</time>
      </trkpt>
      <trkpt lat="44.05003" lon="7.43324">
        <ele>2400.1</ele>
        <time>2020-06-26T10:03:45Z</time>
      </trkpt>
      <trkpt lat="44.05019" lon="7.43332">
        <ele>2396.192</ele>
        <time>2020-06-26T10:04:01Z</time>
      </trkpt>
      <trkpt lat="44.05016" lon="7.43348">
        <ele>2397.685</ele>
        <time>2020-06-26T10:04:17Z</time>
      </trkpt>
      <trkpt lat="44.05015" lon="7.43356">
        <ele>2397.376</ele>
        <time>2020-06-26T10:04:33Z</time>
      </trkpt>
      <trkpt lat="44.05008" lon="7.4337">
        <ele>2401.792</ele>
        <time>2020-06-26T10:04:49Z</time>
      </trkpt>
      <trkpt lat="44.05008" lon="7.43387">
        <ele>2404.087</ele>
        <time>2020-06-26T10:05:05Z</time>
      </trkpt>
      <trkpt lat="44.05014" lon="7.43395">
        <ele>2403.362</ele>
        <time>2020-06-26T10:05:21Z</time>
      </trkpt>
      <trkpt lat="44.05019" lon="7.4342">
        <ele>2402.275</ele>
        <time>2020-06-26T10:05:37Z</time>
      </trkpt>
      <trkpt lat="44.0502" lon="7.43431">
        <ele>2398.875</ele>
        <time>2020-06-26T10:05:52Z</time>
      </trkpt>
      <trkpt lat="44.05017" lon="7.43446">
        <ele>2403.069</ele>
        <time>2020-06-26T10:06:08Z</time>
      </trkpt>
      <trkpt lat="44.05021" lon="7.43462">
        <ele>2397.723</ele>
        <time>2020-06-26T10:06:23Z</time>
      </trkpt>
      <trkpt lat="44.05029" lon="7.43478">
        <ele>2394.503</ele>
        <time>2020-06-26T10:06:39Z</time>
      </trkpt>
      <trkpt lat="44.05035" lon="7.43492">
        <ele>2392.052</ele>
        <time>2020-06-26T10:06:55Z</time>
      </trkpt>
      <trkpt lat="44.05032" lon="7.435">
        <ele>2392.73</ele>
        <time>2020-06-26T10:07:10Z</time>
      </trkpt>
      <trkpt lat="44.05035" lon="7.43514">
        <ele>2389.009</ele>
        <time>2020-06-26T10:07:26Z</time>
      </trkpt>
      <trkpt lat="44.05037" lon="7.43527">
        <ele>2388.434</ele>
        <time>2020-06-26T10:07:41Z</time>
      </trkpt>
      <trkpt lat="44.05039" lon="7.43531">
        <ele>2389.943</ele>
        <time>2020-06-26T10:07:57Z</time>
      </trkpt>
      <trkpt lat="44.05037" lon="7.43531">
        <ele>2389.085</ele>
        <time>2020-06-26T10:08:12Z</time>
      </trkpt>
      <trkpt lat="44.05031" lon="7.43532">
        <ele>2390.511</ele>
        <time>2020-06-26T10:08:28Z</time>
      </trkpt>
      <trkpt lat="44.05036" lon="7.43532">
        <ele>2391.69</ele>
        <time>2020-06-26T10:08:43Z</time>
      </trkpt>
      <trkpt lat="44.05044" lon="7.43534">
        <ele>2390.218</ele>
        <time>2020-06-26T10:08:58Z</time>
      </trkpt>
      <trkpt lat="44.05047" lon="7.4354">
        <ele>2391.04</ele>
        <time>2020-06-26T10:09:14Z</time>
      </trkpt>
      <trkpt lat="44.05042" lon="7.43553">
        <ele>2384.827</ele>
        <time>2020-06-26T10:09:30Z</time>
      </trkpt>
      <trkpt lat="44.05049" lon="7.43567">
        <ele>2383.703</ele>
        <time>2020-06-26T10:09:46Z</time>
      </trkpt>
      <trkpt lat="44.0505" lon="7.4357">
        <ele>2379.93</ele>
        <time>2020-06-26T10:10:02Z</time>
      </trkpt>
      <trkpt lat="44.05059" lon="7.43577">
        <ele>2378.194</ele>
        <time>2020-06-26T10:10:17Z</time>
      </trkpt>
      <trkpt lat="44.05068" lon="7.43579">
        <ele>2376.235</ele>
        <time>2020-06-26T10:10:32Z</time>
      </trkpt>
      <trkpt lat="44.05074" lon="7.43589">
        <ele>2376.425</ele>
        <time>2020-06-26T10:10:48Z</time>
      </trkpt>
      <trkpt lat="44.05085" lon="7.43596">
        <ele>2374.814</ele>
        <time>2020-06-26T10:11:03Z</time>
      </trkpt>
      <trkpt lat="44.05089" lon="7.4361">
        <ele>2370.461</ele>
        <time>2020-06-26T10:11:19Z</time>
      </trkpt>
      <trkpt lat="44.05092" lon="7.43612">
        <ele>2367.819</ele>
        <time>2020-06-26T10:11:34Z</time>
      </trkpt>
      <trkpt lat="44.05092" lon="7.43613">
        <ele>2368.383</ele>
        <time>2020-06-26T10:11:50Z</time>
      </trkpt>
      <trkpt lat="44.05091" lon="7.43615">
        <ele>2369.006</ele>
        <time>2020-06-26T10:12:06Z</time>
      </trkpt>
      <trkpt lat="44.05091" lon="7.43615">
        <ele>2369.006</ele>
        <time>2020-06-26T10:12:21Z</time>
      </trkpt>
      <trkpt lat="44.05091" lon="7.43615">
        <ele>2369.006</ele>
        <time>2020-06-26T10:12:36Z</time>
      </trkpt>
      <trkpt lat="44.05091" lon="7.43615">
        <ele>2369.006</ele>
        <time>2020-06-26T10:12:51Z</time>
      </trkpt>
      <trkpt lat="44.05091" lon="7.43615">
        <ele>2369.006</ele>
        <time>2020-06-26T10:13:07Z</time>
      </trkpt>
      <trkpt lat="44.05096" lon="7.43614">
        <ele>2369.093</ele>
        <time>2020-06-26T10:13:23Z</time>
      </trkpt>
      <trkpt lat="44.05095" lon="7.43632">
        <ele>2362.935</ele>
        <time>2020-06-26T10:13:38Z</time>
      </trkpt>
      <trkpt lat="44.05096" lon="7.43642">
        <ele>2356.629</ele>
        <time>2020-06-26T10:13:53Z</time>
      </trkpt>
      <trkpt lat="44.05104" lon="7.43656">
        <ele>2352.444</ele>
        <time>2020-06-26T10:14:09Z</time>
      </trkpt>
      <trkpt lat="44.05106" lon="7.43672">
        <ele>2351.655</ele>
        <time>2020-06-26T10:14:25Z</time>
      </trkpt>
      <trkpt lat="44.05107" lon="7.43688">
        <ele>2352.017</ele>
        <time>2020-06-26T10:14:41Z</time>
      </trkpt>
      <trkpt lat="44.0511" lon="7.43693">
        <ele>2352.422</ele>
        <time>2020-06-26T10:14:57Z</time>
      </trkpt>
      <trkpt lat="44.05114" lon="7.43697">
        <ele>2350.803</ele>
        <time>2020-06-26T10:15:12Z</time>
      </trkpt>
      <trkpt lat="44.05121" lon="7.43712">
        <ele>2342.89</ele>
        <time>2020-06-26T10:15:27Z</time>
      </trkpt>
      <trkpt lat="44.05128" lon="7.43717">
        <ele>2343.828</ele>
        <time>2020-06-26T10:15:43Z</time>
      </trkpt>
      <trkpt lat="44.05125" lon="7.43728">
        <ele>2341.741</ele>
        <time>2020-06-26T10:15:58Z</time>
      </trkpt>
      <trkpt lat="44.05115" lon="7.43742">
        <ele>2340.337</ele>
        <time>2020-06-26T10:16:14Z</time>
      </trkpt>
      <trkpt lat="44.05121" lon="7.43748">
        <ele>2336.992</ele>
        <time>2020-06-26T10:16:30Z</time>
      </trkpt>
      <trkpt lat="44.05135" lon="7.4375">
        <ele>2333.263</ele>
        <time>2020-06-26T10:16:46Z</time>
      </trkpt>
      <trkpt lat="44.05132" lon="7.43754">
        <ele>2333.193</ele>
        <time>2020-06-26T10:17:02Z</time>
      </trkpt>
      <trkpt lat="44.05133" lon="7.43776">
        <ele>2338.043</ele>
        <time>2020-06-26T10:17:17Z</time>
      </trkpt>
      <trkpt lat="44.05133" lon="7.43795">
        <ele>2340.337</ele>
        <time>2020-06-26T10:17:33Z</time>
      </trkpt>
      <trkpt lat="44.05125" lon="7.43812">
        <ele>2338.717</ele>
        <time>2020-06-26T10:17:48Z</time>
      </trkpt>
      <trkpt lat="44.05128" lon="7.43839">
        <ele>2332.481</ele>
        <time>2020-06-26T10:18:04Z</time>
      </trkpt>
      <trkpt lat="44.05126" lon="7.43853">
        <ele>2330.206</ele>
        <time>2020-06-26T10:18:19Z</time>
      </trkpt>
      <trkpt lat="44.05131" lon="7.43867">
        <ele>2332.604</ele>
        <time>2020-06-26T10:18:35Z</time>
      </trkpt>
      <trkpt lat="44.05127" lon="7.43887">
        <ele>2331.573</ele>
        <time>2020-06-26T10:18:50Z</time>
      </trkpt>
      <trkpt lat="44.05121" lon="7.43909">
        <ele>2334.418</ele>
        <time>2020-06-26T10:19:05Z</time>
      </trkpt>
      <trkpt lat="44.05119" lon="7.43916">
        <ele>2335.256</ele>
        <time>2020-06-26T10:19:21Z</time>
      </trkpt>
      <trkpt lat="44.05121" lon="7.4393">
        <ele>2331.889</ele>
        <time>2020-06-26T10:19:37Z</time>
      </trkpt>
      <trkpt lat="44.05112" lon="7.43956">
        <ele>2332.13</ele>
        <time>2020-06-26T10:19:53Z</time>
      </trkpt>
      <trkpt lat="44.05115" lon="7.43961">
        <ele>2335.476</ele>
        <time>2020-06-26T10:20:08Z</time>
      </trkpt>
      <trkpt lat="44.05125" lon="7.43968">
        <ele>2345.097</ele>
        <time>2020-06-26T10:20:24Z</time>
      </trkpt>
      <trkpt lat="44.0513" lon="7.43986">
        <ele>2342.431</ele>
        <time>2020-06-26T10:20:40Z</time>
      </trkpt>
      <trkpt lat="44.05141" lon="7.43995">
        <ele>2341.346</ele>
        <time>2020-06-26T10:20:56Z</time>
      </trkpt>
      <trkpt lat="44.05139" lon="7.44013">
        <ele>2340.589</ele>
        <time>2020-06-26T10:21:11Z</time>
      </trkpt>
      <trkpt lat="44.05141" lon="7.4402">
        <ele>2341.879</ele>
        <time>2020-06-26T10:21:27Z</time>
      </trkpt>
      <trkpt lat="44.05146" lon="7.44018">
        <ele>2344.713</ele>
        <time>2020-06-26T10:21:42Z</time>
      </trkpt>
      <trkpt lat="44.05144" lon="7.44045">
        <ele>2348.274</ele>
        <time>2020-06-26T10:21:58Z</time>
      </trkpt>
      <trkpt lat="44.05144" lon="7.44051">
        <ele>2349.497</ele>
        <time>2020-06-26T10:22:14Z</time>
      </trkpt>
      <trkpt lat="44.0516" lon="7.44048">
        <ele>2344.138</ele>
        <time>2020-06-26T10:22:30Z</time>
      </trkpt>
      <trkpt lat="44.0516" lon="7.44048">
        <ele>2344.138</ele>
        <time>2020-06-26T10:22:46Z</time>
      </trkpt>
      <trkpt lat="44.0516" lon="7.44048">
        <ele>2344.138</ele>
        <time>2020-06-26T10:23:01Z</time>
      </trkpt>
      <trkpt lat="44.05161" lon="7.4405">
        <ele>2342.663</ele>
        <time>2020-06-26T10:23:17Z</time>
      </trkpt>
      <trkpt lat="44.05165" lon="7.44057">
        <ele>2342.517</ele>
        <time>2020-06-26T10:23:32Z</time>
      </trkpt>
      <trkpt lat="44.05168" lon="7.44081">
        <ele>2340.408</ele>
        <time>2020-06-26T10:23:47Z</time>
      </trkpt>
      <trkpt lat="44.05173" lon="7.44097">
        <ele>2333.63</ele>
        <time>2020-06-26T10:24:03Z</time>
      </trkpt>
      <trkpt lat="44.05171" lon="7.44105">
        <ele>2333.588</ele>
        <time>2020-06-26T10:24:19Z</time>
      </trkpt>
      <trkpt lat="44.05171" lon="7.44105">
        <ele>2333.588</ele>
        <time>2020-06-26T10:24:35Z</time>
      </trkpt>
      <trkpt lat="44.05166" lon="7.44119">
        <ele>2335.467</ele>
        <time>2020-06-26T10:24:51Z</time>
      </trkpt>
      <trkpt lat="44.05169" lon="7.44135">
        <ele>2335.499</ele>
        <time>2020-06-26T10:25:06Z</time>
      </trkpt>
      <trkpt lat="44.0517" lon="7.44151">
        <ele>2337</ele>
        <time>2020-06-26T10:25:22Z</time>
      </trkpt>
      <trkpt lat="44.05171" lon="7.44159">
        <ele>2341.951</ele>
        <time>2020-06-26T10:25:37Z</time>
      </trkpt>
      <trkpt lat="44.05171" lon="7.44163">
        <ele>2341.163</ele>
        <time>2020-06-26T10:25:53Z</time>
      </trkpt>
      <trkpt lat="44.05175" lon="7.44185">
        <ele>2341.019</ele>
        <time>2020-06-26T10:26:09Z</time>
      </trkpt>
      <trkpt lat="44.0517" lon="7.44199">
        <ele>2340.986</ele>
        <time>2020-06-26T10:26:25Z</time>
      </trkpt>
      <trkpt lat="44.0517" lon="7.44209">
        <ele>2336.67</ele>
        <time>2020-06-26T10:26:41Z</time>
      </trkpt>
      <trkpt lat="44.05165" lon="7.44213">
        <ele>2334.074</ele>
        <time>2020-06-26T10:26:57Z</time>
      </trkpt>
      <trkpt lat="44.05165" lon="7.44213">
        <ele>2334.074</ele>
        <time>2020-06-26T10:27:13Z</time>
      </trkpt>
      <trkpt lat="44.05173" lon="7.44213">
        <ele>2331.564</ele>
        <time>2020-06-26T10:27:28Z</time>
      </trkpt>
      <trkpt lat="44.05168" lon="7.44224">
        <ele>2329.112</ele>
        <time>2020-06-26T10:27:43Z</time>
      </trkpt>
      <trkpt lat="44.05169" lon="7.44231">
        <ele>2328.284</ele>
        <time>2020-06-26T10:27:59Z</time>
      </trkpt>
      <trkpt lat="44.05165" lon="7.44239">
        <ele>2329.434</ele>
        <time>2020-06-26T10:28:15Z</time>
      </trkpt>
      <trkpt lat="44.05166" lon="7.44248">
        <ele>2327.379</ele>
        <time>2020-06-26T10:28:30Z</time>
      </trkpt>
      <trkpt lat="44.05178" lon="7.44259">
        <ele>2325.826</ele>
        <time>2020-06-26T10:28:46Z</time>
      </trkpt>
      <trkpt lat="44.05189" lon="7.44271">
        <ele>2322.602</ele>
        <time>2020-06-26T10:29:02Z</time>
      </trkpt>
      <trkpt lat="44.05193" lon="7.44279">
        <ele>2323.908</ele>
        <time>2020-06-26T10:29:18Z</time>
      </trkpt>
      <trkpt lat="44.05197" lon="7.4428">
        <ele>2322.617</ele>
        <time>2020-06-26T10:29:33Z</time>
      </trkpt>
      <trkpt lat="44.05194" lon="7.4428">
        <ele>2321.338</ele>
        <time>2020-06-26T10:29:49Z</time>
      </trkpt>
      <trkpt lat="44.05194" lon="7.4428">
        <ele>2321.338</ele>
        <time>2020-06-26T10:30:04Z</time>
      </trkpt>
      <trkpt lat="44.05194" lon="7.4428">
        <ele>2321.417</ele>
        <time>2020-06-26T10:30:20Z</time>
      </trkpt>
      <trkpt lat="44.05193" lon="7.44277">
        <ele>2320.767</ele>
        <time>2020-06-26T10:30:35Z</time>
      </trkpt>
      <trkpt lat="44.05193" lon="7.44277">
        <ele>2320.767</ele>
        <time>2020-06-26T10:30:51Z</time>
      </trkpt>
      <trkpt lat="44.05193" lon="7.44277">
        <ele>2320.767</ele>
        <time>2020-06-26T10:31:06Z</time>
      </trkpt>
      <trkpt lat="44.05195" lon="7.44279">
        <ele>2319.762</ele>
        <time>2020-06-26T10:31:21Z</time>
      </trkpt>
      <trkpt lat="44.05194" lon="7.44281">
        <ele>2318.759</ele>
        <time>2020-06-26T10:31:36Z</time>
      </trkpt>
      <trkpt lat="44.05194" lon="7.44281">
        <ele>2318.759</ele>
        <time>2020-06-26T10:31:52Z</time>
      </trkpt>
      <trkpt lat="44.05194" lon="7.44281">
        <ele>2318.759</ele>
        <time>2020-06-26T10:32:08Z</time>
      </trkpt>
      <trkpt lat="44.05194" lon="7.44281">
        <ele>2318.759</ele>
        <time>2020-06-26T10:32:24Z</time>
      </trkpt>
      <trkpt lat="44.05197" lon="7.44281">
        <ele>2319.987</ele>
        <time>2020-06-26T10:32:39Z</time>
      </trkpt>
      <trkpt lat="44.05199" lon="7.44289">
        <ele>2317.946</ele>
        <time>2020-06-26T10:32:55Z</time>
      </trkpt>
      <trkpt lat="44.05208" lon="7.44306">
        <ele>2313.203</ele>
        <time>2020-06-26T10:33:11Z</time>
      </trkpt>
      <trkpt lat="44.05199" lon="7.44317">
        <ele>2305.893</ele>
        <time>2020-06-26T10:33:26Z</time>
      </trkpt>
      <trkpt lat="44.05206" lon="7.44332">
        <ele>2314.033</ele>
        <time>2020-06-26T10:33:42Z</time>
      </trkpt>
      <trkpt lat="44.05211" lon="7.44341">
        <ele>2317.462</ele>
        <time>2020-06-26T10:33:57Z</time>
      </trkpt>
      <trkpt lat="44.0521" lon="7.44355">
        <ele>2315.584</ele>
        <time>2020-06-26T10:34:12Z</time>
      </trkpt>
      <trkpt lat="44.0521" lon="7.44368">
        <ele>2311.606</ele>
        <time>2020-06-26T10:34:28Z</time>
      </trkpt>
      <trkpt lat="44.05203" lon="7.44384">
        <ele>2306.627</ele>
        <time>2020-06-26T10:34:43Z</time>
      </trkpt>
      <trkpt lat="44.05206" lon="7.444">
        <ele>2301.17</ele>
        <time>2020-06-26T10:34:58Z</time>
      </trkpt>
      <trkpt lat="44.05203" lon="7.44399">
        <ele>2302.102</ele>
        <time>2020-06-26T10:35:14Z</time>
      </trkpt>
      <trkpt lat="44.05191" lon="7.44399">
        <ele>2309.969</ele>
        <time>2020-06-26T10:35:30Z</time>
      </trkpt>
      <trkpt lat="44.05182" lon="7.44401">
        <ele>2318.139</ele>
        <time>2020-06-26T10:35:45Z</time>
      </trkpt>
      <trkpt lat="44.05191" lon="7.44413">
        <ele>2322.545</ele>
        <time>2020-06-26T10:36:01Z</time>
      </trkpt>
      <trkpt lat="44.05186" lon="7.44429">
        <ele>2319.341</ele>
        <time>2020-06-26T10:36:16Z</time>
      </trkpt>
      <trkpt lat="44.05177" lon="7.44428">
        <ele>2315.773</ele>
        <time>2020-06-26T10:36:32Z</time>
      </trkpt>
      <trkpt lat="44.05174" lon="7.44434">
        <ele>2323.867</ele>
        <time>2020-06-26T10:36:48Z</time>
      </trkpt>
      <trkpt lat="44.0517" lon="7.44449">
        <ele>2324.348</ele>
        <time>2020-06-26T10:37:04Z</time>
      </trkpt>
      <trkpt lat="44.05178" lon="7.44462">
        <ele>2319.949</ele>
        <time>2020-06-26T10:37:20Z</time>
      </trkpt>
      <trkpt lat="44.05187" lon="7.44475">
        <ele>2325.049</ele>
        <time>2020-06-26T10:37:36Z</time>
      </trkpt>
      <trkpt lat="44.05199" lon="7.44476">
        <ele>2328.266</ele>
        <time>2020-06-26T10:37:51Z</time>
      </trkpt>
      <trkpt lat="44.05204" lon="7.44497">
        <ele>2329.308</ele>
        <time>2020-06-26T10:38:07Z</time>
      </trkpt>
      <trkpt lat="44.05213" lon="7.44514">
        <ele>2328.371</ele>
        <time>2020-06-26T10:38:23Z</time>
      </trkpt>
      <trkpt lat="44.05223" lon="7.44536">
        <ele>2325.789</ele>
        <time>2020-06-26T10:38:39Z</time>
      </trkpt>
      <trkpt lat="44.05242" lon="7.44549">
        <ele>2320.575</ele>
        <time>2020-06-26T10:38:55Z</time>
      </trkpt>
      <trkpt lat="44.05257" lon="7.44555">
        <ele>2323.536</ele>
        <time>2020-06-26T10:39:10Z</time>
      </trkpt>
      <trkpt lat="44.05261" lon="7.44557">
        <ele>2325.19</ele>
        <time>2020-06-26T10:39:26Z</time>
      </trkpt>
      <trkpt lat="44.05261" lon="7.44557">
        <ele>2325.19</ele>
        <time>2020-06-26T10:39:42Z</time>
      </trkpt>
      <trkpt lat="44.05261" lon="7.44557">
        <ele>2325.19</ele>
        <time>2020-06-26T10:39:57Z</time>
      </trkpt>
      <trkpt lat="44.05261" lon="7.44557">
        <ele>2325.19</ele>
        <time>2020-06-26T10:40:13Z</time>
      </trkpt>
      <trkpt lat="44.05261" lon="7.44557">
        <ele>2325.19</ele>
        <time>2020-06-26T10:40:28Z</time>
      </trkpt>
      <trkpt lat="44.05261" lon="7.44573">
        <ele>2324.892</ele>
        <time>2020-06-26T10:40:44Z</time>
      </trkpt>
      <trkpt lat="44.05263" lon="7.44594">
        <ele>2323.576</ele>
        <time>2020-06-26T10:41:00Z</time>
      </trkpt>
      <trkpt lat="44.05262" lon="7.44607">
        <ele>2324.554</ele>
        <time>2020-06-26T10:41:16Z</time>
      </trkpt>
      <trkpt lat="44.05259" lon="7.44628">
        <ele>2326.081</ele>
        <time>2020-06-26T10:41:32Z</time>
      </trkpt>
      <trkpt lat="44.05262" lon="7.4465">
        <ele>2326.282</ele>
        <time>2020-06-26T10:41:47Z</time>
      </trkpt>
      <trkpt lat="44.05268" lon="7.44661">
        <ele>2322.257</ele>
        <time>2020-06-26T10:42:03Z</time>
      </trkpt>
      <trkpt lat="44.05269" lon="7.4467">
        <ele>2322.243</ele>
        <time>2020-06-26T10:42:19Z</time>
      </trkpt>
      <trkpt lat="44.0527" lon="7.44687">
        <ele>2320.337</ele>
        <time>2020-06-26T10:42:34Z</time>
      </trkpt>
      <trkpt lat="44.05276" lon="7.44694">
        <ele>2314.098</ele>
        <time>2020-06-26T10:42:50Z</time>
      </trkpt>
      <trkpt lat="44.05275" lon="7.44702">
        <ele>2313.562</ele>
        <time>2020-06-26T10:43:06Z</time>
      </trkpt>
      <trkpt lat="44.05274" lon="7.44714">
        <ele>2311.017</ele>
        <time>2020-06-26T10:43:21Z</time>
      </trkpt>
      <trkpt lat="44.05273" lon="7.44713">
        <ele>2310.111</ele>
        <time>2020-06-26T10:43:36Z</time>
      </trkpt>
      <trkpt lat="44.05261" lon="7.44715">
        <ele>2309.909</ele>
        <time>2020-06-26T10:43:52Z</time>
      </trkpt>
      <trkpt lat="44.05257" lon="7.44732">
        <ele>2305.673</ele>
        <time>2020-06-26T10:44:07Z</time>
      </trkpt>
      <trkpt lat="44.05263" lon="7.44728">
        <ele>2302.735</ele>
        <time>2020-06-26T10:44:23Z</time>
      </trkpt>
      <trkpt lat="44.05263" lon="7.44728">
        <ele>2302.735</ele>
        <time>2020-06-26T10:44:39Z</time>
      </trkpt>
      <trkpt lat="44.05266" lon="7.44729">
        <ele>2301.034</ele>
        <time>2020-06-26T10:44:55Z</time>
      </trkpt>
      <trkpt lat="44.05263" lon="7.44743">
        <ele>2299.385</ele>
        <time>2020-06-26T10:45:10Z</time>
      </trkpt>
      <trkpt lat="44.05275" lon="7.44743">
        <ele>2288.762</ele>
        <time>2020-06-26T10:45:25Z</time>
      </trkpt>
      <trkpt lat="44.05278" lon="7.44744">
        <ele>2288.783</ele>
        <time>2020-06-26T10:45:41Z</time>
      </trkpt>
      <trkpt lat="44.05278" lon="7.44762">
        <ele>2290.799</ele>
        <time>2020-06-26T10:45:56Z</time>
      </trkpt>
      <trkpt lat="44.05281" lon="7.44776">
        <ele>2288.596</ele>
        <time>2020-06-26T10:46:12Z</time>
      </trkpt>
      <trkpt lat="44.05289" lon="7.44767">
        <ele>2285.338</ele>
        <time>2020-06-26T10:46:28Z</time>
      </trkpt>
      <trkpt lat="44.05293" lon="7.44765">
        <ele>2285.664</ele>
        <time>2020-06-26T10:46:44Z</time>
      </trkpt>
      <trkpt lat="44.05309" lon="7.44762">
        <ele>2282.166</ele>
        <time>2020-06-26T10:46:59Z</time>
      </trkpt>
      <trkpt lat="44.05317" lon="7.44775">
        <ele>2277.753</ele>
        <time>2020-06-26T10:47:14Z</time>
      </trkpt>
      <trkpt lat="44.05329" lon="7.44796">
        <ele>2271.936</ele>
        <time>2020-06-26T10:47:29Z</time>
      </trkpt>
      <trkpt lat="44.0534" lon="7.448">
        <ele>2271.666</ele>
        <time>2020-06-26T10:47:45Z</time>
      </trkpt>
      <trkpt lat="44.0534" lon="7.448">
        <ele>2272.172</ele>
        <time>2020-06-26T10:48:01Z</time>
      </trkpt>
      <trkpt lat="44.0534" lon="7.448">
        <ele>2272.172</ele>
        <time>2020-06-26T10:48:17Z</time>
      </trkpt>
      <trkpt lat="44.0534" lon="7.448">
        <ele>2272.172</ele>
        <time>2020-06-26T10:48:32Z</time>
      </trkpt>
      <trkpt lat="44.0534" lon="7.448">
        <ele>2272.172</ele>
        <time>2020-06-26T10:48:48Z</time>
      </trkpt>
      <trkpt lat="44.05345" lon="7.44801">
        <ele>2272.966</ele>
        <time>2020-06-26T10:49:04Z</time>
      </trkpt>
      <trkpt lat="44.05347" lon="7.44801">
        <ele>2272.182</ele>
        <time>2020-06-26T10:49:19Z</time>
      </trkpt>
      <trkpt lat="44.05359" lon="7.44813">
        <ele>2272.788</ele>
        <time>2020-06-26T10:49:35Z</time>
      </trkpt>
      <trkpt lat="44.05375" lon="7.44821">
        <ele>2274.134</ele>
        <time>2020-06-26T10:49:51Z</time>
      </trkpt>
      <trkpt lat="44.05375" lon="7.44825">
        <ele>2274.588</ele>
        <time>2020-06-26T10:50:06Z</time>
      </trkpt>
      <trkpt lat="44.05387" lon="7.44815">
        <ele>2267.884</ele>
        <time>2020-06-26T10:50:21Z</time>
      </trkpt>
      <trkpt lat="44.05378" lon="7.44838">
        <ele>2265.385</ele>
        <time>2020-06-26T10:50:36Z</time>
      </trkpt>
      <trkpt lat="44.05376" lon="7.44859">
        <ele>2266.232</ele>
        <time>2020-06-26T10:50:52Z</time>
      </trkpt>
      <trkpt lat="44.05373" lon="7.44883">
        <ele>2272.05</ele>
        <time>2020-06-26T10:51:08Z</time>
      </trkpt>
      <trkpt lat="44.05368" lon="7.44902">
        <ele>2268.439</ele>
        <time>2020-06-26T10:51:24Z</time>
      </trkpt>
      <trkpt lat="44.05363" lon="7.44921">
        <ele>2266.294</ele>
        <time>2020-06-26T10:51:40Z</time>
      </trkpt>
      <trkpt lat="44.05363" lon="7.44947">
        <ele>2267.049</ele>
        <time>2020-06-26T10:51:56Z</time>
      </trkpt>
      <trkpt lat="44.0536" lon="7.44971">
        <ele>2265.224</ele>
        <time>2020-06-26T10:52:12Z</time>
      </trkpt>
      <trkpt lat="44.05358" lon="7.44996">
        <ele>2261.143</ele>
        <time>2020-06-26T10:52:27Z</time>
      </trkpt>
      <trkpt lat="44.0536" lon="7.45017">
        <ele>2256.126</ele>
        <time>2020-06-26T10:52:43Z</time>
      </trkpt>
      <trkpt lat="44.05363" lon="7.45024">
        <ele>2249.232</ele>
        <time>2020-06-26T10:52:58Z</time>
      </trkpt>
      <trkpt lat="44.05372" lon="7.45045">
        <ele>2249.638</ele>
        <time>2020-06-26T10:53:14Z</time>
      </trkpt>
      <trkpt lat="44.05373" lon="7.4507">
        <ele>2249.098</ele>
        <time>2020-06-26T10:53:29Z</time>
      </trkpt>
      <trkpt lat="44.05384" lon="7.45082">
        <ele>2243.812</ele>
        <time>2020-06-26T10:53:45Z</time>
      </trkpt>
      <trkpt lat="44.05396" lon="7.45099">
        <ele>2243.229</ele>
        <time>2020-06-26T10:54:01Z</time>
      </trkpt>
      <trkpt lat="44.05406" lon="7.45117">
        <ele>2241.171</ele>
        <time>2020-06-26T10:54:16Z</time>
      </trkpt>
      <trkpt lat="44.0542" lon="7.4513">
        <ele>2238.18</ele>
        <time>2020-06-26T10:54:32Z</time>
      </trkpt>
      <trkpt lat="44.05438" lon="7.45116">
        <ele>2231.99</ele>
        <time>2020-06-26T10:54:48Z</time>
      </trkpt>
      <trkpt lat="44.0545" lon="7.45111">
        <ele>2227.119</ele>
        <time>2020-06-26T10:55:03Z</time>
      </trkpt>
      <trkpt lat="44.05463" lon="7.45112">
        <ele>2228.714</ele>
        <time>2020-06-26T10:55:18Z</time>
      </trkpt>
      <trkpt lat="44.05464" lon="7.45121">
        <ele>2229.816</ele>
        <time>2020-06-26T10:55:33Z</time>
      </trkpt>
      <trkpt lat="44.05464" lon="7.4512">
        <ele>2230.617</ele>
        <time>2020-06-26T10:55:49Z</time>
      </trkpt>
      <trkpt lat="44.05464" lon="7.4512">
        <ele>2230.617</ele>
        <time>2020-06-26T10:56:05Z</time>
      </trkpt>
      <trkpt lat="44.05469" lon="7.45136">
        <ele>2230.924</ele>
        <time>2020-06-26T10:56:21Z</time>
      </trkpt>
      <trkpt lat="44.05483" lon="7.45149">
        <ele>2230.634</ele>
        <time>2020-06-26T10:56:36Z</time>
      </trkpt>
      <trkpt lat="44.05504" lon="7.45151">
        <ele>2229.169</ele>
        <time>2020-06-26T10:56:52Z</time>
      </trkpt>
      <trkpt lat="44.05522" lon="7.45139">
        <ele>2230.046</ele>
        <time>2020-06-26T10:57:08Z</time>
      </trkpt>
      <trkpt lat="44.05539" lon="7.45137">
        <ele>2226.525</ele>
        <time>2020-06-26T10:57:24Z</time>
      </trkpt>
      <trkpt lat="44.05543" lon="7.45132">
        <ele>2229.99</ele>
        <time>2020-06-26T10:57:39Z</time>
      </trkpt>
      <trkpt lat="44.05547" lon="7.45152">
        <ele>2233.763</ele>
        <time>2020-06-26T10:57:55Z</time>
      </trkpt>
      <trkpt lat="44.05552" lon="7.45171">
        <ele>2230.673</ele>
        <time>2020-06-26T10:58:10Z</time>
      </trkpt>
      <trkpt lat="44.05553" lon="7.4518">
        <ele>2232.166</ele>
        <time>2020-06-26T10:58:25Z</time>
      </trkpt>
      <trkpt lat="44.05555" lon="7.45193">
        <ele>2228.693</ele>
        <time>2020-06-26T10:58:41Z</time>
      </trkpt>
      <trkpt lat="44.05556" lon="7.45205">
        <ele>2225.5</ele>
        <time>2020-06-26T10:58:56Z</time>
      </trkpt>
      <trkpt lat="44.05556" lon="7.45192">
        <ele>2221.13</ele>
        <time>2020-06-26T10:59:12Z</time>
      </trkpt>
      <trkpt lat="44.05561" lon="7.45166">
        <ele>2217.579</ele>
        <time>2020-06-26T10:59:28Z</time>
      </trkpt>
      <trkpt lat="44.05569" lon="7.45151">
        <ele>2214.331</ele>
        <time>2020-06-26T10:59:44Z</time>
      </trkpt>
      <trkpt lat="44.05575" lon="7.45167">
        <ele>2217.714</ele>
        <time>2020-06-26T10:59:59Z</time>
      </trkpt>
      <trkpt lat="44.05588" lon="7.45181">
        <ele>2210.228</ele>
        <time>2020-06-26T11:00:15Z</time>
      </trkpt>
      <trkpt lat="44.05601" lon="7.452">
        <ele>2208.456</ele>
        <time>2020-06-26T11:00:30Z</time>
      </trkpt>
      <trkpt lat="44.05609" lon="7.4521">
        <ele>2207.154</ele>
        <time>2020-06-26T11:00:46Z</time>
      </trkpt>
      <trkpt lat="44.05627" lon="7.45205">
        <ele>2202.737</ele>
        <time>2020-06-26T11:01:01Z</time>
      </trkpt>
      <trkpt lat="44.05632" lon="7.4519">
        <ele>2201.226</ele>
        <time>2020-06-26T11:01:16Z</time>
      </trkpt>
      <trkpt lat="44.05646" lon="7.45177">
        <ele>2198.237</ele>
        <time>2020-06-26T11:01:31Z</time>
      </trkpt>
      <trkpt lat="44.05652" lon="7.45155">
        <ele>2194.285</ele>
        <time>2020-06-26T11:01:47Z</time>
      </trkpt>
      <trkpt lat="44.05658" lon="7.45135">
        <ele>2192.139</ele>
        <time>2020-06-26T11:02:03Z</time>
      </trkpt>
      <trkpt lat="44.05664" lon="7.45117">
        <ele>2189.105</ele>
        <time>2020-06-26T11:02:19Z</time>
      </trkpt>
      <trkpt lat="44.05679" lon="7.45114">
        <ele>2187.905</ele>
        <time>2020-06-26T11:02:35Z</time>
      </trkpt>
      <trkpt lat="44.05683" lon="7.45114">
        <ele>2188.601</ele>
        <time>2020-06-26T11:02:50Z</time>
      </trkpt>
      <trkpt lat="44.05692" lon="7.45127">
        <ele>2188.281</ele>
        <time>2020-06-26T11:03:05Z</time>
      </trkpt>
      <trkpt lat="44.05695" lon="7.45137">
        <ele>2186.829</ele>
        <time>2020-06-26T11:03:20Z</time>
      </trkpt>
      <trkpt lat="44.05699" lon="7.45149">
        <ele>2187.776</ele>
        <time>2020-06-26T11:03:36Z</time>
      </trkpt>
      <trkpt lat="44.05709" lon="7.45147">
        <ele>2186.41</ele>
        <time>2020-06-26T11:03:52Z</time>
      </trkpt>
      <trkpt lat="44.05716" lon="7.45137">
        <ele>2185.154</ele>
        <time>2020-06-26T11:04:08Z</time>
      </trkpt>
      <trkpt lat="44.05728" lon="7.4515">
        <ele>2184.404</ele>
        <time>2020-06-26T11:04:23Z</time>
      </trkpt>
      <trkpt lat="44.05743" lon="7.4516">
        <ele>2186.352</ele>
        <time>2020-06-26T11:04:39Z</time>
      </trkpt>
      <trkpt lat="44.05746" lon="7.4518">
        <ele>2185.868</ele>
        <time>2020-06-26T11:04:55Z</time>
      </trkpt>
      <trkpt lat="44.05744" lon="7.45203">
        <ele>2185.93</ele>
        <time>2020-06-26T11:05:11Z</time>
      </trkpt>
      <trkpt lat="44.05744" lon="7.45202">
        <ele>2186.247</ele>
        <time>2020-06-26T11:05:27Z</time>
      </trkpt>
      <trkpt lat="44.05736" lon="7.45209">
        <ele>2191.128</ele>
        <time>2020-06-26T11:05:42Z</time>
      </trkpt>
      <trkpt lat="44.0574" lon="7.45207">
        <ele>2188.095</ele>
        <time>2020-06-26T11:05:58Z</time>
      </trkpt>
      <trkpt lat="44.05741" lon="7.45207">
        <ele>2186.994</ele>
        <time>2020-06-26T11:06:13Z</time>
      </trkpt>
      <trkpt lat="44.05741" lon="7.45207">
        <ele>2186.994</ele>
        <time>2020-06-26T11:06:28Z</time>
      </trkpt>
      <trkpt lat="44.05741" lon="7.45207">
        <ele>2186.994</ele>
        <time>2020-06-26T11:06:44Z</time>
      </trkpt>
      <trkpt lat="44.05741" lon="7.45207">
        <ele>2186.994</ele>
        <time>2020-06-26T11:07:00Z</time>
      </trkpt>
      <trkpt lat="44.05741" lon="7.45207">
        <ele>2186.994</ele>
        <time>2020-06-26T11:07:15Z</time>
      </trkpt>
      <trkpt lat="44.05741" lon="7.45207">
        <ele>2186.994</ele>
        <time>2020-06-26T11:07:31Z</time>
      </trkpt>
      <trkpt lat="44.05741" lon="7.45207">
        <ele>2186.994</ele>
        <time>2020-06-26T11:07:47Z</time>
      </trkpt>
      <trkpt lat="44.05741" lon="7.45207">
        <ele>2186.994</ele>
        <time>2020-06-26T11:08:03Z</time>
      </trkpt>
      <trkpt lat="44.05741" lon="7.45207">
        <ele>2186.994</ele>
        <time>2020-06-26T11:08:19Z</time>
      </trkpt>
      <trkpt lat="44.05741" lon="7.45207">
        <ele>2186.994</ele>
        <time>2020-06-26T11:08:34Z</time>
      </trkpt>
      <trkpt lat="44.05738" lon="7.45208">
        <ele>2185.963</ele>
        <time>2020-06-26T11:08:50Z</time>
      </trkpt>
      <trkpt lat="44.05738" lon="7.45208">
        <ele>2185.963</ele>
        <time>2020-06-26T11:09:06Z</time>
      </trkpt>
      <trkpt lat="44.05738" lon="7.45208">
        <ele>2185.963</ele>
        <time>2020-06-26T11:09:21Z</time>
      </trkpt>
      <trkpt lat="44.05738" lon="7.45208">
        <ele>2185.963</ele>
        <time>2020-06-26T11:09:37Z</time>
      </trkpt>
      <trkpt lat="44.05738" lon="7.45208">
        <ele>2185.963</ele>
        <time>2020-06-26T11:09:53Z</time>
      </trkpt>
      <trkpt lat="44.05738" lon="7.45208">
        <ele>2185.963</ele>
        <time>2020-06-26T11:10:08Z</time>
      </trkpt>
      <trkpt lat="44.05738" lon="7.45208">
        <ele>2185.963</ele>
        <time>2020-06-26T11:10:24Z</time>
      </trkpt>
      <trkpt lat="44.05738" lon="7.45208">
        <ele>2185.963</ele>
        <time>2020-06-26T11:10:39Z</time>
      </trkpt>
      <trkpt lat="44.05738" lon="7.45208">
        <ele>2185.963</ele>
        <time>2020-06-26T11:10:54Z</time>
      </trkpt>
      <trkpt lat="44.05738" lon="7.45208">
        <ele>2185.963</ele>
        <time>2020-06-26T11:11:10Z</time>
      </trkpt>
      <trkpt lat="44.05738" lon="7.45208">
        <ele>2185.963</ele>
        <time>2020-06-26T11:11:26Z</time>
      </trkpt>
      <trkpt lat="44.05738" lon="7.45208">
        <ele>2186.201</ele>
        <time>2020-06-26T11:11:42Z</time>
      </trkpt>
      <trkpt lat="44.05738" lon="7.45208">
        <ele>2186.201</ele>
        <time>2020-06-26T11:11:57Z</time>
      </trkpt>
      <trkpt lat="44.05738" lon="7.45208">
        <ele>2186.201</ele>
        <time>2020-06-26T11:12:12Z</time>
      </trkpt>
      <trkpt lat="44.05738" lon="7.45208">
        <ele>2186.201</ele>
        <time>2020-06-26T11:12:28Z</time>
      </trkpt>
      <trkpt lat="44.05738" lon="7.45208">
        <ele>2186.201</ele>
        <time>2020-06-26T11:12:43Z</time>
      </trkpt>
      <trkpt lat="44.05738" lon="7.45208">
        <ele>2186.201</ele>
        <time>2020-06-26T11:12:59Z</time>
      </trkpt>
      <trkpt lat="44.05738" lon="7.45208">
        <ele>2186.201</ele>
        <time>2020-06-26T11:13:14Z</time>
      </trkpt>
      <trkpt lat="44.05738" lon="7.45208">
        <ele>2186.201</ele>
        <time>2020-06-26T11:13:30Z</time>
      </trkpt>
      <trkpt lat="44.05738" lon="7.45208">
        <ele>2186.201</ele>
        <time>2020-06-26T11:13:46Z</time>
      </trkpt>
      <trkpt lat="44.05738" lon="7.45208">
        <ele>2186.201</ele>
        <time>2020-06-26T11:14:01Z</time>
      </trkpt>
      <trkpt lat="44.05738" lon="7.45208">
        <ele>2186.201</ele>
        <time>2020-06-26T11:14:16Z</time>
      </trkpt>
      <trkpt lat="44.05738" lon="7.45208">
        <ele>2186.201</ele>
        <time>2020-06-26T11:14:32Z</time>
      </trkpt>
      <trkpt lat="44.05738" lon="7.45208">
        <ele>2186.201</ele>
        <time>2020-06-26T11:14:48Z</time>
      </trkpt>
      <trkpt lat="44.05738" lon="7.45208">
        <ele>2186.201</ele>
        <time>2020-06-26T11:15:04Z</time>
      </trkpt>
      <trkpt lat="44.05738" lon="7.45208">
        <ele>2186.201</ele>
        <time>2020-06-26T11:15:19Z</time>
      </trkpt>
      <trkpt lat="44.05738" lon="7.45208">
        <ele>2186.201</ele>
        <time>2020-06-26T11:15:34Z</time>
      </trkpt>
      <trkpt lat="44.05736" lon="7.45207">
        <ele>2183.708</ele>
        <time>2020-06-26T11:15:50Z</time>
      </trkpt>
      <trkpt lat="44.05737" lon="7.45208">
        <ele>2184.44</ele>
        <time>2020-06-26T11:16:06Z</time>
      </trkpt>
      <trkpt lat="44.05737" lon="7.45208">
        <ele>2184.44</ele>
        <time>2020-06-26T11:16:21Z</time>
      </trkpt>
      <trkpt lat="44.05737" lon="7.45208">
        <ele>2184.44</ele>
        <time>2020-06-26T11:16:37Z</time>
      </trkpt>
      <trkpt lat="44.05737" lon="7.45208">
        <ele>2184.44</ele>
        <time>2020-06-26T11:16:52Z</time>
      </trkpt>
      <trkpt lat="44.05737" lon="7.45208">
        <ele>2184.44</ele>
        <time>2020-06-26T11:17:08Z</time>
      </trkpt>
      <trkpt lat="44.05737" lon="7.45208">
        <ele>2184.44</ele>
        <time>2020-06-26T11:17:24Z</time>
      </trkpt>
      <trkpt lat="44.05737" lon="7.45208">
        <ele>2184.44</ele>
        <time>2020-06-26T11:17:40Z</time>
      </trkpt>
      <trkpt lat="44.05739" lon="7.45208">
        <ele>2184.839</ele>
        <time>2020-06-26T11:17:56Z</time>
      </trkpt>
      <trkpt lat="44.05739" lon="7.45208">
        <ele>2184.839</ele>
        <time>2020-06-26T11:18:12Z</time>
      </trkpt>
      <trkpt lat="44.05739" lon="7.45208">
        <ele>2184.839</ele>
        <time>2020-06-26T11:18:27Z</time>
      </trkpt>
      <trkpt lat="44.05739" lon="7.45208">
        <ele>2184.839</ele>
        <time>2020-06-26T11:18:43Z</time>
      </trkpt>
      <trkpt lat="44.05739" lon="7.45208">
        <ele>2184.839</ele>
        <time>2020-06-26T11:18:59Z</time>
      </trkpt>
      <trkpt lat="44.05739" lon="7.45208">
        <ele>2184.839</ele>
        <time>2020-06-26T11:19:14Z</time>
      </trkpt>
      <trkpt lat="44.0574" lon="7.45209">
        <ele>2184.453</ele>
        <time>2020-06-26T11:19:30Z</time>
      </trkpt>
      <trkpt lat="44.05741" lon="7.4521">
        <ele>2185.493</ele>
        <time>2020-06-26T11:19:46Z</time>
      </trkpt>
      <trkpt lat="44.05742" lon="7.45209">
        <ele>2185.073</ele>
        <time>2020-06-26T11:20:01Z</time>
      </trkpt>
      <trkpt lat="44.0574" lon="7.45208">
        <ele>2184.816</ele>
        <time>2020-06-26T11:20:17Z</time>
      </trkpt>
      <trkpt lat="44.0574" lon="7.45208">
        <ele>2184.816</ele>
        <time>2020-06-26T11:20:33Z</time>
      </trkpt>
      <trkpt lat="44.0574" lon="7.45208">
        <ele>2184.816</ele>
        <time>2020-06-26T11:20:48Z</time>
      </trkpt>
      <trkpt lat="44.0574" lon="7.45208">
        <ele>2184.816</ele>
        <time>2020-06-26T11:21:04Z</time>
      </trkpt>
      <trkpt lat="44.0574" lon="7.45208">
        <ele>2184.816</ele>
        <time>2020-06-26T11:21:19Z</time>
      </trkpt>
      <trkpt lat="44.0574" lon="7.45208">
        <ele>2184.816</ele>
        <time>2020-06-26T11:21:35Z</time>
      </trkpt>
      <trkpt lat="44.0574" lon="7.45208">
        <ele>2184.816</ele>
        <time>2020-06-26T11:21:50Z</time>
      </trkpt>
      <trkpt lat="44.0574" lon="7.45208">
        <ele>2184.816</ele>
        <time>2020-06-26T11:22:05Z</time>
      </trkpt>
      <trkpt lat="44.0574" lon="7.45208">
        <ele>2184.816</ele>
        <time>2020-06-26T11:22:21Z</time>
      </trkpt>
      <trkpt lat="44.0574" lon="7.45208">
        <ele>2184.816</ele>
        <time>2020-06-26T11:22:37Z</time>
      </trkpt>
      <trkpt lat="44.05738" lon="7.45207">
        <ele>2184.712</ele>
        <time>2020-06-26T11:22:53Z</time>
      </trkpt>
      <trkpt lat="44.05737" lon="7.45206">
        <ele>2184.037</ele>
        <time>2020-06-26T11:23:08Z</time>
      </trkpt>
      <trkpt lat="44.05737" lon="7.45206">
        <ele>2184.037</ele>
        <time>2020-06-26T11:23:24Z</time>
      </trkpt>
      <trkpt lat="44.05737" lon="7.45206">
        <ele>2184.037</ele>
        <time>2020-06-26T11:23:40Z</time>
      </trkpt>
      <trkpt lat="44.05737" lon="7.45206">
        <ele>2184.037</ele>
        <time>2020-06-26T11:23:55Z</time>
      </trkpt>
      <trkpt lat="44.05737" lon="7.45206">
        <ele>2184.037</ele>
        <time>2020-06-26T11:24:10Z</time>
      </trkpt>
      <trkpt lat="44.05736" lon="7.45206">
        <ele>2183.301</ele>
        <time>2020-06-26T11:24:26Z</time>
      </trkpt>
      <trkpt lat="44.05736" lon="7.45206">
        <ele>2183.301</ele>
        <time>2020-06-26T11:24:41Z</time>
      </trkpt>
      <trkpt lat="44.05736" lon="7.45206">
        <ele>2183.301</ele>
        <time>2020-06-26T11:24:57Z</time>
      </trkpt>
      <trkpt lat="44.05736" lon="7.45206">
        <ele>2183.301</ele>
        <time>2020-06-26T11:25:12Z</time>
      </trkpt>
      <trkpt lat="44.05736" lon="7.45206">
        <ele>2183.301</ele>
        <time>2020-06-26T11:25:28Z</time>
      </trkpt>
      <trkpt lat="44.05736" lon="7.45206">
        <ele>2183.301</ele>
        <time>2020-06-26T11:25:44Z</time>
      </trkpt>
      <trkpt lat="44.05768" lon="7.45211">
        <ele>2180.798</ele>
        <time>2020-06-26T11:35:38Z</time>
      </trkpt>
      <trkpt lat="44.0574" lon="7.45212">
        <ele>2185.255</ele>
        <time>2020-06-26T11:35:54Z</time>
      </trkpt>
      <trkpt lat="44.0574" lon="7.45212">
        <ele>2185.255</ele>
        <time>2020-06-26T11:36:10Z</time>
      </trkpt>
      <trkpt lat="44.05738" lon="7.45212">
        <ele>2184.575</ele>
        <time>2020-06-26T11:36:26Z</time>
      </trkpt>
      <trkpt lat="44.05738" lon="7.45212">
        <ele>2184.575</ele>
        <time>2020-06-26T11:36:42Z</time>
      </trkpt>
      <trkpt lat="44.05738" lon="7.45212">
        <ele>2184.575</ele>
        <time>2020-06-26T11:36:58Z</time>
      </trkpt>
      <trkpt lat="44.05738" lon="7.45212">
        <ele>2184.575</ele>
        <time>2020-06-26T11:37:14Z</time>
      </trkpt>
      <trkpt lat="44.05738" lon="7.45212">
        <ele>2184.575</ele>
        <time>2020-06-26T11:37:29Z</time>
      </trkpt>
      <trkpt lat="44.05738" lon="7.45212">
        <ele>2184.575</ele>
        <time>2020-06-26T11:37:45Z</time>
      </trkpt>
      <trkpt lat="44.05738" lon="7.45212">
        <ele>2184.575</ele>
        <time>2020-06-26T11:38:01Z</time>
      </trkpt>
      <trkpt lat="44.05738" lon="7.45212">
        <ele>2184.575</ele>
        <time>2020-06-26T11:38:17Z</time>
      </trkpt>
      <trkpt lat="44.05738" lon="7.45212">
        <ele>2184.575</ele>
        <time>2020-06-26T11:38:33Z</time>
      </trkpt>
      <trkpt lat="44.05738" lon="7.45212">
        <ele>2184.575</ele>
        <time>2020-06-26T11:38:48Z</time>
      </trkpt>
      <trkpt lat="44.05738" lon="7.45212">
        <ele>2184.575</ele>
        <time>2020-06-26T11:39:04Z</time>
      </trkpt>
      <trkpt lat="44.05738" lon="7.45212">
        <ele>2184.575</ele>
        <time>2020-06-26T11:39:19Z</time>
      </trkpt>
      <trkpt lat="44.05738" lon="7.45212">
        <ele>2184.575</ele>
        <time>2020-06-26T11:39:35Z</time>
      </trkpt>
      <trkpt lat="44.05738" lon="7.45212">
        <ele>2184.575</ele>
        <time>2020-06-26T11:39:50Z</time>
      </trkpt>
      <trkpt lat="44.05738" lon="7.45212">
        <ele>2184.575</ele>
        <time>2020-06-26T11:40:06Z</time>
      </trkpt>
      <trkpt lat="44.05738" lon="7.45212">
        <ele>2184.575</ele>
        <time>2020-06-26T11:40:22Z</time>
      </trkpt>
      <trkpt lat="44.05738" lon="7.45212">
        <ele>2184.575</ele>
        <time>2020-06-26T11:40:37Z</time>
      </trkpt>
      <trkpt lat="44.05738" lon="7.45212">
        <ele>2184.575</ele>
        <time>2020-06-26T11:40:53Z</time>
      </trkpt>
      <trkpt lat="44.05738" lon="7.45212">
        <ele>2184.575</ele>
        <time>2020-06-26T11:41:08Z</time>
      </trkpt>
      <trkpt lat="44.05738" lon="7.45212">
        <ele>2184.575</ele>
        <time>2020-06-26T11:41:24Z</time>
      </trkpt>
      <trkpt lat="44.05738" lon="7.45212">
        <ele>2184.575</ele>
        <time>2020-06-26T11:41:39Z</time>
      </trkpt>
      <trkpt lat="44.05737" lon="7.45216">
        <ele>2136.805</ele>
        <time>2020-06-26T11:46:52Z</time>
      </trkpt>
      <trkpt lat="44.05736" lon="7.45205">
        <ele>2176.5</ele>
        <time>2020-06-26T11:47:07Z</time>
      </trkpt>
      <trkpt lat="44.05736" lon="7.45205">
        <ele>2176.5</ele>
        <time>2020-06-26T11:47:22Z</time>
      </trkpt>
      <trkpt lat="44.05736" lon="7.45205">
        <ele>2176.5</ele>
        <time>2020-06-26T11:47:38Z</time>
      </trkpt>
      <trkpt lat="44.05736" lon="7.45205">
        <ele>2176.5</ele>
        <time>2020-06-26T11:47:53Z</time>
      </trkpt>
      <trkpt lat="44.05736" lon="7.45205">
        <ele>2176.5</ele>
        <time>2020-06-26T11:48:09Z</time>
      </trkpt>
      <trkpt lat="44.05736" lon="7.45205">
        <ele>2176.5</ele>
        <time>2020-06-26T11:48:25Z</time>
      </trkpt>
      <trkpt lat="44.05736" lon="7.45205">
        <ele>2176.5</ele>
        <time>2020-06-26T11:48:41Z</time>
      </trkpt>
      <trkpt lat="44.05736" lon="7.45205">
        <ele>2176.5</ele>
        <time>2020-06-26T11:48:57Z</time>
      </trkpt>
      <trkpt lat="44.05736" lon="7.45205">
        <ele>2176.5</ele>
        <time>2020-06-26T11:49:12Z</time>
      </trkpt>
      <trkpt lat="44.05736" lon="7.45205">
        <ele>2176.5</ele>
        <time>2020-06-26T11:49:28Z</time>
      </trkpt>
      <trkpt lat="44.05736" lon="7.45205">
        <ele>2176.5</ele>
        <time>2020-06-26T11:49:43Z</time>
      </trkpt>
      <trkpt lat="44.05736" lon="7.45205">
        <ele>2176.5</ele>
        <time>2020-06-26T11:49:59Z</time>
      </trkpt>
      <trkpt lat="44.05736" lon="7.45205">
        <ele>2176.5</ele>
        <time>2020-06-26T11:50:14Z</time>
      </trkpt>
      <trkpt lat="44.05736" lon="7.45205">
        <ele>2176.5</ele>
        <time>2020-06-26T11:50:30Z</time>
      </trkpt>
      <trkpt lat="44.05736" lon="7.45205">
        <ele>2176.5</ele>
        <time>2020-06-26T11:50:46Z</time>
      </trkpt>
      <trkpt lat="44.05736" lon="7.45205">
        <ele>2176.5</ele>
        <time>2020-06-26T11:51:01Z</time>
      </trkpt>
      <trkpt lat="44.05736" lon="7.45205">
        <ele>2176.5</ele>
        <time>2020-06-26T11:51:16Z</time>
      </trkpt>
      <trkpt lat="44.05736" lon="7.45205">
        <ele>2176.5</ele>
        <time>2020-06-26T11:51:32Z</time>
      </trkpt>
      <trkpt lat="44.05736" lon="7.45205">
        <ele>2176.5</ele>
        <time>2020-06-26T11:51:47Z</time>
      </trkpt>
      <trkpt lat="44.05736" lon="7.45205">
        <ele>2176.5</ele>
        <time>2020-06-26T11:52:02Z</time>
      </trkpt>
      <trkpt lat="44.05736" lon="7.45205">
        <ele>2176.5</ele>
        <time>2020-06-26T11:52:18Z</time>
      </trkpt>
      <trkpt lat="44.05736" lon="7.45205">
        <ele>2176.5</ele>
        <time>2020-06-26T11:52:33Z</time>
      </trkpt>
      <trkpt lat="44.05736" lon="7.45205">
        <ele>2176.5</ele>
        <time>2020-06-26T11:52:48Z</time>
      </trkpt>
      <trkpt lat="44.05736" lon="7.45205">
        <ele>2176.5</ele>
        <time>2020-06-26T11:53:04Z</time>
      </trkpt>
      <trkpt lat="44.05736" lon="7.45205">
        <ele>2176.5</ele>
        <time>2020-06-26T11:53:20Z</time>
      </trkpt>
      <trkpt lat="44.05736" lon="7.45205">
        <ele>2176.5</ele>
        <time>2020-06-26T11:53:36Z</time>
      </trkpt>
      <trkpt lat="44.05736" lon="7.45205">
        <ele>2176.5</ele>
        <time>2020-06-26T11:53:51Z</time>
      </trkpt>
      <trkpt lat="44.05736" lon="7.45205">
        <ele>2176.5</ele>
        <time>2020-06-26T11:54:07Z</time>
      </trkpt>
      <trkpt lat="44.05736" lon="7.45205">
        <ele>2176.5</ele>
        <time>2020-06-26T11:54:23Z</time>
      </trkpt>
      <trkpt lat="44.05736" lon="7.45205">
        <ele>2176.5</ele>
        <time>2020-06-26T11:54:38Z</time>
      </trkpt>
      <trkpt lat="44.05736" lon="7.45205">
        <ele>2176.5</ele>
        <time>2020-06-26T11:54:54Z</time>
      </trkpt>
      <trkpt lat="44.05736" lon="7.45205">
        <ele>2176.5</ele>
        <time>2020-06-26T11:55:10Z</time>
      </trkpt>
      <trkpt lat="44.05736" lon="7.45205">
        <ele>2176.5</ele>
        <time>2020-06-26T11:55:26Z</time>
      </trkpt>
      <trkpt lat="44.05736" lon="7.45205">
        <ele>2176.5</ele>
        <time>2020-06-26T11:55:41Z</time>
      </trkpt>
      <trkpt lat="44.05736" lon="7.45205">
        <ele>2176.5</ele>
        <time>2020-06-26T11:55:57Z</time>
      </trkpt>
      <trkpt lat="44.05736" lon="7.45205">
        <ele>2176.5</ele>
        <time>2020-06-26T11:56:13Z</time>
      </trkpt>
      <trkpt lat="44.05736" lon="7.45205">
        <ele>2176.5</ele>
        <time>2020-06-26T11:56:29Z</time>
      </trkpt>
      <trkpt lat="44.05736" lon="7.45205">
        <ele>2176.5</ele>
        <time>2020-06-26T11:56:45Z</time>
      </trkpt>
      <trkpt lat="44.05736" lon="7.45205">
        <ele>2176.5</ele>
        <time>2020-06-26T11:57:00Z</time>
      </trkpt>
      <trkpt lat="44.05736" lon="7.45205">
        <ele>2176.5</ele>
        <time>2020-06-26T11:57:16Z</time>
      </trkpt>
      <trkpt lat="44.05736" lon="7.45205">
        <ele>2176.5</ele>
        <time>2020-06-26T11:57:31Z</time>
      </trkpt>
      <trkpt lat="44.05736" lon="7.45205">
        <ele>2176.5</ele>
        <time>2020-06-26T11:57:47Z</time>
      </trkpt>
      <trkpt lat="44.05736" lon="7.45205">
        <ele>2176.5</ele>
        <time>2020-06-26T11:58:02Z</time>
      </trkpt>
      <trkpt lat="44.05736" lon="7.45205">
        <ele>2176.5</ele>
        <time>2020-06-26T11:58:18Z</time>
      </trkpt>
      <trkpt lat="44.05736" lon="7.45205">
        <ele>2176.5</ele>
        <time>2020-06-26T11:58:34Z</time>
      </trkpt>
      <trkpt lat="44.05736" lon="7.45205">
        <ele>2176.5</ele>
        <time>2020-06-26T11:58:50Z</time>
      </trkpt>
      <trkpt lat="44.05736" lon="7.45205">
        <ele>2176.5</ele>
        <time>2020-06-26T11:59:06Z</time>
      </trkpt>
      <trkpt lat="44.05736" lon="7.45205">
        <ele>2176.5</ele>
        <time>2020-06-26T11:59:21Z</time>
      </trkpt>
      <trkpt lat="44.05736" lon="7.45205">
        <ele>2176.5</ele>
        <time>2020-06-26T11:59:37Z</time>
      </trkpt>
      <trkpt lat="44.05736" lon="7.45205">
        <ele>2176.5</ele>
        <time>2020-06-26T11:59:53Z</time>
      </trkpt>
      <trkpt lat="44.05736" lon="7.45205">
        <ele>2176.5</ele>
        <time>2020-06-26T12:00:09Z</time>
      </trkpt>
      <trkpt lat="44.05736" lon="7.45205">
        <ele>2176.5</ele>
        <time>2020-06-26T12:00:24Z</time>
      </trkpt>
      <trkpt lat="44.05736" lon="7.45205">
        <ele>2176.5</ele>
        <time>2020-06-26T12:00:40Z</time>
      </trkpt>
      <trkpt lat="44.05736" lon="7.45205">
        <ele>2176.5</ele>
        <time>2020-06-26T12:00:56Z</time>
      </trkpt>
      <trkpt lat="44.05736" lon="7.45205">
        <ele>2176.5</ele>
        <time>2020-06-26T12:01:11Z</time>
      </trkpt>
      <trkpt lat="44.05736" lon="7.45205">
        <ele>2176.5</ele>
        <time>2020-06-26T12:01:27Z</time>
      </trkpt>
      <trkpt lat="44.05736" lon="7.45205">
        <ele>2176.5</ele>
        <time>2020-06-26T12:01:42Z</time>
      </trkpt>
      <trkpt lat="44.05736" lon="7.45205">
        <ele>2176.5</ele>
        <time>2020-06-26T12:01:58Z</time>
      </trkpt>
      <trkpt lat="44.05736" lon="7.45205">
        <ele>2176.5</ele>
        <time>2020-06-26T12:02:14Z</time>
      </trkpt>
      <trkpt lat="44.05736" lon="7.45205">
        <ele>2176.5</ele>
        <time>2020-06-26T12:02:29Z</time>
      </trkpt>
      <trkpt lat="44.05736" lon="7.45205">
        <ele>2176.5</ele>
        <time>2020-06-26T12:02:45Z</time>
      </trkpt>
      <trkpt lat="44.05736" lon="7.45205">
        <ele>2176.5</ele>
        <time>2020-06-26T12:03:01Z</time>
      </trkpt>
      <trkpt lat="44.05736" lon="7.45205">
        <ele>2176.5</ele>
        <time>2020-06-26T12:03:17Z</time>
      </trkpt>
      <trkpt lat="44.05736" lon="7.45205">
        <ele>2176.5</ele>
        <time>2020-06-26T12:03:33Z</time>
      </trkpt>
      <trkpt lat="44.05736" lon="7.45205">
        <ele>2176.5</ele>
        <time>2020-06-26T12:03:48Z</time>
      </trkpt>
      <trkpt lat="44.05736" lon="7.45205">
        <ele>2176.5</ele>
        <time>2020-06-26T12:04:04Z</time>
      </trkpt>
      <trkpt lat="44.05736" lon="7.45205">
        <ele>2176.5</ele>
        <time>2020-06-26T12:04:20Z</time>
      </trkpt>
      <trkpt lat="44.05736" lon="7.45205">
        <ele>2176.5</ele>
        <time>2020-06-26T12:04:35Z</time>
      </trkpt>
      <trkpt lat="44.05736" lon="7.45205">
        <ele>2176.5</ele>
        <time>2020-06-26T12:04:51Z</time>
      </trkpt>
      <trkpt lat="44.05736" lon="7.45205">
        <ele>2176.5</ele>
        <time>2020-06-26T12:05:07Z</time>
      </trkpt>
      <trkpt lat="44.05736" lon="7.45205">
        <ele>2176.5</ele>
        <time>2020-06-26T12:05:23Z</time>
      </trkpt>
      <trkpt lat="44.05736" lon="7.45205">
        <ele>2176.5</ele>
        <time>2020-06-26T12:05:39Z</time>
      </trkpt>
      <trkpt lat="44.05736" lon="7.45205">
        <ele>2176.5</ele>
        <time>2020-06-26T12:05:54Z</time>
      </trkpt>
      <trkpt lat="44.05736" lon="7.45204">
        <ele>2176.846</ele>
        <time>2020-06-26T12:06:10Z</time>
      </trkpt>
      <trkpt lat="44.05736" lon="7.45204">
        <ele>2176.846</ele>
        <time>2020-06-26T12:06:26Z</time>
      </trkpt>
      <trkpt lat="44.05736" lon="7.45204">
        <ele>2176.846</ele>
        <time>2020-06-26T12:06:42Z</time>
      </trkpt>
      <trkpt lat="44.05736" lon="7.45204">
        <ele>2176.846</ele>
        <time>2020-06-26T12:06:57Z</time>
      </trkpt>
      <trkpt lat="44.05736" lon="7.45204">
        <ele>2176.846</ele>
        <time>2020-06-26T12:07:12Z</time>
      </trkpt>
      <trkpt lat="44.05736" lon="7.45204">
        <ele>2176.846</ele>
        <time>2020-06-26T12:07:28Z</time>
      </trkpt>
      <trkpt lat="44.05736" lon="7.45204">
        <ele>2176.846</ele>
        <time>2020-06-26T12:07:44Z</time>
      </trkpt>
      <trkpt lat="44.05736" lon="7.45204">
        <ele>2176.846</ele>
        <time>2020-06-26T12:07:59Z</time>
      </trkpt>
      <trkpt lat="44.05736" lon="7.45204">
        <ele>2176.846</ele>
        <time>2020-06-26T12:08:15Z</time>
      </trkpt>
      <trkpt lat="44.05736" lon="7.45204">
        <ele>2176.846</ele>
        <time>2020-06-26T12:08:30Z</time>
      </trkpt>
      <trkpt lat="44.05736" lon="7.45204">
        <ele>2176.846</ele>
        <time>2020-06-26T12:08:46Z</time>
      </trkpt>
      <trkpt lat="44.05736" lon="7.45204">
        <ele>2176.846</ele>
        <time>2020-06-26T12:09:01Z</time>
      </trkpt>
      <trkpt lat="44.05736" lon="7.45204">
        <ele>2176.846</ele>
        <time>2020-06-26T12:09:17Z</time>
      </trkpt>
      <trkpt lat="44.05736" lon="7.45204">
        <ele>2176.846</ele>
        <time>2020-06-26T12:09:33Z</time>
      </trkpt>
      <trkpt lat="44.05736" lon="7.45204">
        <ele>2176.846</ele>
        <time>2020-06-26T12:09:49Z</time>
      </trkpt>
      <trkpt lat="44.05736" lon="7.45204">
        <ele>2176.846</ele>
        <time>2020-06-26T12:10:05Z</time>
      </trkpt>
      <trkpt lat="44.05736" lon="7.45204">
        <ele>2176.846</ele>
        <time>2020-06-26T12:10:20Z</time>
      </trkpt>
      <trkpt lat="44.05736" lon="7.45204">
        <ele>2176.846</ele>
        <time>2020-06-26T12:10:36Z</time>
      </trkpt>
      <trkpt lat="44.05736" lon="7.45204">
        <ele>2176.846</ele>
        <time>2020-06-26T12:10:51Z</time>
      </trkpt>
      <trkpt lat="44.05736" lon="7.45204">
        <ele>2176.846</ele>
        <time>2020-06-26T12:11:07Z</time>
      </trkpt>
      <trkpt lat="44.05736" lon="7.45204">
        <ele>2176.846</ele>
        <time>2020-06-26T12:11:22Z</time>
      </trkpt>
      <trkpt lat="44.05736" lon="7.45204">
        <ele>2176.846</ele>
        <time>2020-06-26T12:11:38Z</time>
      </trkpt>
      <trkpt lat="44.05736" lon="7.45204">
        <ele>2176.846</ele>
        <time>2020-06-26T12:11:53Z</time>
      </trkpt>
      <trkpt lat="44.05736" lon="7.45204">
        <ele>2176.846</ele>
        <time>2020-06-26T12:12:09Z</time>
      </trkpt>
      <trkpt lat="44.05736" lon="7.45204">
        <ele>2176.846</ele>
        <time>2020-06-26T12:12:25Z</time>
      </trkpt>
      <trkpt lat="44.05736" lon="7.45204">
        <ele>2176.846</ele>
        <time>2020-06-26T12:12:41Z</time>
      </trkpt>
      <trkpt lat="44.05736" lon="7.45204">
        <ele>2176.846</ele>
        <time>2020-06-26T12:12:56Z</time>
      </trkpt>
      <trkpt lat="44.05736" lon="7.45204">
        <ele>2176.846</ele>
        <time>2020-06-26T12:13:12Z</time>
      </trkpt>
      <trkpt lat="44.05736" lon="7.45204">
        <ele>2176.846</ele>
        <time>2020-06-26T12:13:27Z</time>
      </trkpt>
      <trkpt lat="44.05736" lon="7.45204">
        <ele>2176.846</ele>
        <time>2020-06-26T12:13:42Z</time>
      </trkpt>
      <trkpt lat="44.05736" lon="7.45204">
        <ele>2176.846</ele>
        <time>2020-06-26T12:13:58Z</time>
      </trkpt>
      <trkpt lat="44.05736" lon="7.45204">
        <ele>2176.846</ele>
        <time>2020-06-26T12:14:13Z</time>
      </trkpt>
      <trkpt lat="44.05736" lon="7.45204">
        <ele>2176.846</ele>
        <time>2020-06-26T12:14:29Z</time>
      </trkpt>
      <trkpt lat="44.05736" lon="7.45204">
        <ele>2176.846</ele>
        <time>2020-06-26T12:14:44Z</time>
      </trkpt>
      <trkpt lat="44.05736" lon="7.45204">
        <ele>2176.846</ele>
        <time>2020-06-26T12:14:59Z</time>
      </trkpt>
      <trkpt lat="44.05736" lon="7.45204">
        <ele>2176.846</ele>
        <time>2020-06-26T12:15:15Z</time>
      </trkpt>
      <trkpt lat="44.05736" lon="7.45204">
        <ele>2176.846</ele>
        <time>2020-06-26T12:15:31Z</time>
      </trkpt>
      <trkpt lat="44.05734" lon="7.45203">
        <ele>2176.503</ele>
        <time>2020-06-26T12:15:46Z</time>
      </trkpt>
      <trkpt lat="44.05737" lon="7.452">
        <ele>2176.298</ele>
        <time>2020-06-26T12:16:01Z</time>
      </trkpt>
      <trkpt lat="44.05738" lon="7.45196">
        <ele>2175.046</ele>
        <time>2020-06-26T12:16:16Z</time>
      </trkpt>
      <trkpt lat="44.05721" lon="7.45178">
        <ele>2174.329</ele>
        <time>2020-06-26T12:16:31Z</time>
      </trkpt>
      <trkpt lat="44.05701" lon="7.45205">
        <ele>2173.663</ele>
        <time>2020-06-26T12:16:47Z</time>
      </trkpt>
      <trkpt lat="44.05673" lon="7.45221">
        <ele>2172.49</ele>
        <time>2020-06-26T12:17:03Z</time>
      </trkpt>
      <trkpt lat="44.05713" lon="7.45218">
        <ele>2176.724</ele>
        <time>2020-06-26T12:18:37Z</time>
      </trkpt>
      <trkpt lat="44.05731" lon="7.45199">
        <ele>2168.382</ele>
        <time>2020-06-26T12:18:53Z</time>
      </trkpt>
      <trkpt lat="44.0573" lon="7.45198">
        <ele>2168.697</ele>
        <time>2020-06-26T12:19:08Z</time>
      </trkpt>
      <trkpt lat="44.05729" lon="7.45197">
        <ele>2168.253</ele>
        <time>2020-06-26T12:19:24Z</time>
      </trkpt>
      <trkpt lat="44.05729" lon="7.45197">
        <ele>2168.253</ele>
        <time>2020-06-26T12:19:40Z</time>
      </trkpt>
      <trkpt lat="44.05729" lon="7.45197">
        <ele>2168.253</ele>
        <time>2020-06-26T12:19:55Z</time>
      </trkpt>
      <trkpt lat="44.05729" lon="7.45197">
        <ele>2168.253</ele>
        <time>2020-06-26T12:20:11Z</time>
      </trkpt>
      <trkpt lat="44.05729" lon="7.45197">
        <ele>2168.253</ele>
        <time>2020-06-26T12:20:26Z</time>
      </trkpt>
      <trkpt lat="44.05729" lon="7.45197">
        <ele>2168.253</ele>
        <time>2020-06-26T12:20:42Z</time>
      </trkpt>
      <trkpt lat="44.05729" lon="7.45197">
        <ele>2168.253</ele>
        <time>2020-06-26T12:20:58Z</time>
      </trkpt>
      <trkpt lat="44.05729" lon="7.45197">
        <ele>2168.253</ele>
        <time>2020-06-26T12:21:14Z</time>
      </trkpt>
      <trkpt lat="44.05729" lon="7.45197">
        <ele>2168.253</ele>
        <time>2020-06-26T12:21:29Z</time>
      </trkpt>
      <trkpt lat="44.05729" lon="7.45197">
        <ele>2168.253</ele>
        <time>2020-06-26T12:21:45Z</time>
      </trkpt>
      <trkpt lat="44.05729" lon="7.45196">
        <ele>2168.861</ele>
        <time>2020-06-26T12:22:01Z</time>
      </trkpt>
      <trkpt lat="44.05729" lon="7.45196">
        <ele>2168.861</ele>
        <time>2020-06-26T12:22:17Z</time>
      </trkpt>
      <trkpt lat="44.05729" lon="7.45196">
        <ele>2168.861</ele>
        <time>2020-06-26T12:22:32Z</time>
      </trkpt>
      <trkpt lat="44.05729" lon="7.45196">
        <ele>2168.861</ele>
        <time>2020-06-26T12:22:48Z</time>
      </trkpt>
      <trkpt lat="44.05729" lon="7.45196">
        <ele>2168.861</ele>
        <time>2020-06-26T12:23:03Z</time>
      </trkpt>
      <trkpt lat="44.05729" lon="7.45196">
        <ele>2168.861</ele>
        <time>2020-06-26T12:23:18Z</time>
      </trkpt>
      <trkpt lat="44.05729" lon="7.45196">
        <ele>2168.861</ele>
        <time>2020-06-26T12:23:34Z</time>
      </trkpt>
      <trkpt lat="44.05729" lon="7.45196">
        <ele>2168.861</ele>
        <time>2020-06-26T12:23:49Z</time>
      </trkpt>
      <trkpt lat="44.05729" lon="7.45196">
        <ele>2168.861</ele>
        <time>2020-06-26T12:24:04Z</time>
      </trkpt>
      <trkpt lat="44.05729" lon="7.45196">
        <ele>2168.861</ele>
        <time>2020-06-26T12:24:20Z</time>
      </trkpt>
      <trkpt lat="44.05729" lon="7.45196">
        <ele>2168.861</ele>
        <time>2020-06-26T12:24:36Z</time>
      </trkpt>
      <trkpt lat="44.05729" lon="7.45196">
        <ele>2168.861</ele>
        <time>2020-06-26T12:24:52Z</time>
      </trkpt>
      <trkpt lat="44.05729" lon="7.45196">
        <ele>2168.861</ele>
        <time>2020-06-26T12:25:08Z</time>
      </trkpt>
      <trkpt lat="44.05729" lon="7.45196">
        <ele>2168.861</ele>
        <time>2020-06-26T12:25:24Z</time>
      </trkpt>
      <trkpt lat="44.05729" lon="7.45196">
        <ele>2168.861</ele>
        <time>2020-06-26T12:25:40Z</time>
      </trkpt>
      <trkpt lat="44.05729" lon="7.45196">
        <ele>2168.861</ele>
        <time>2020-06-26T12:25:56Z</time>
      </trkpt>
      <trkpt lat="44.05729" lon="7.45196">
        <ele>2168.861</ele>
        <time>2020-06-26T12:26:11Z</time>
      </trkpt>
      <trkpt lat="44.05729" lon="7.45196">
        <ele>2168.861</ele>
        <time>2020-06-26T12:26:27Z</time>
      </trkpt>
      <trkpt lat="44.05729" lon="7.45196">
        <ele>2168.861</ele>
        <time>2020-06-26T12:26:42Z</time>
      </trkpt>
      <trkpt lat="44.05729" lon="7.45196">
        <ele>2168.861</ele>
        <time>2020-06-26T12:26:58Z</time>
      </trkpt>
      <trkpt lat="44.05729" lon="7.45196">
        <ele>2168.861</ele>
        <time>2020-06-26T12:27:14Z</time>
      </trkpt>
      <trkpt lat="44.05729" lon="7.45196">
        <ele>2168.861</ele>
        <time>2020-06-26T12:27:30Z</time>
      </trkpt>
      <trkpt lat="44.05729" lon="7.45196">
        <ele>2168.861</ele>
        <time>2020-06-26T12:27:45Z</time>
      </trkpt>
      <trkpt lat="44.05729" lon="7.45196">
        <ele>2168.861</ele>
        <time>2020-06-26T12:28:01Z</time>
      </trkpt>
      <trkpt lat="44.05729" lon="7.45196">
        <ele>2168.861</ele>
        <time>2020-06-26T12:28:17Z</time>
      </trkpt>
      <trkpt lat="44.05729" lon="7.45196">
        <ele>2168.861</ele>
        <time>2020-06-26T12:28:32Z</time>
      </trkpt>
      <trkpt lat="44.05729" lon="7.45196">
        <ele>2168.861</ele>
        <time>2020-06-26T12:28:48Z</time>
      </trkpt>
      <trkpt lat="44.05729" lon="7.45196">
        <ele>2168.861</ele>
        <time>2020-06-26T12:29:04Z</time>
      </trkpt>
      <trkpt lat="44.05729" lon="7.45196">
        <ele>2168.861</ele>
        <time>2020-06-26T12:29:20Z</time>
      </trkpt>
      <trkpt lat="44.05729" lon="7.45196">
        <ele>2168.861</ele>
        <time>2020-06-26T12:29:36Z</time>
      </trkpt>
      <trkpt lat="44.05729" lon="7.45196">
        <ele>2168.861</ele>
        <time>2020-06-26T12:29:52Z</time>
      </trkpt>
      <trkpt lat="44.05729" lon="7.45196">
        <ele>2168.861</ele>
        <time>2020-06-26T12:30:07Z</time>
      </trkpt>
      <trkpt lat="44.05729" lon="7.45196">
        <ele>2168.861</ele>
        <time>2020-06-26T12:30:23Z</time>
      </trkpt>
      <trkpt lat="44.05729" lon="7.45196">
        <ele>2168.861</ele>
        <time>2020-06-26T12:30:39Z</time>
      </trkpt>
      <trkpt lat="44.05729" lon="7.45196">
        <ele>2168.861</ele>
        <time>2020-06-26T12:30:54Z</time>
      </trkpt>
      <trkpt lat="44.05729" lon="7.45196">
        <ele>2168.861</ele>
        <time>2020-06-26T12:31:10Z</time>
      </trkpt>
      <trkpt lat="44.05729" lon="7.45196">
        <ele>2168.861</ele>
        <time>2020-06-26T12:31:26Z</time>
      </trkpt>
      <trkpt lat="44.05729" lon="7.45196">
        <ele>2168.861</ele>
        <time>2020-06-26T12:31:42Z</time>
      </trkpt>
      <trkpt lat="44.05729" lon="7.45196">
        <ele>2168.861</ele>
        <time>2020-06-26T12:31:57Z</time>
      </trkpt>
      <trkpt lat="44.05729" lon="7.45196">
        <ele>2168.861</ele>
        <time>2020-06-26T12:32:12Z</time>
      </trkpt>
      <trkpt lat="44.05729" lon="7.45196">
        <ele>2168.861</ele>
        <time>2020-06-26T12:32:27Z</time>
      </trkpt>
      <trkpt lat="44.05729" lon="7.45196">
        <ele>2168.861</ele>
        <time>2020-06-26T12:32:43Z</time>
      </trkpt>
      <trkpt lat="44.05729" lon="7.45196">
        <ele>2168.861</ele>
        <time>2020-06-26T12:32:58Z</time>
      </trkpt>
      <trkpt lat="44.05729" lon="7.45196">
        <ele>2168.861</ele>
        <time>2020-06-26T12:33:14Z</time>
      </trkpt>
      <trkpt lat="44.05729" lon="7.45196">
        <ele>2168.861</ele>
        <time>2020-06-26T12:33:30Z</time>
      </trkpt>
      <trkpt lat="44.05729" lon="7.45196">
        <ele>2168.861</ele>
        <time>2020-06-26T12:33:45Z</time>
      </trkpt>
      <trkpt lat="44.05729" lon="7.45196">
        <ele>2168.861</ele>
        <time>2020-06-26T12:34:01Z</time>
      </trkpt>
      <trkpt lat="44.05729" lon="7.45196">
        <ele>2168.861</ele>
        <time>2020-06-26T12:34:16Z</time>
      </trkpt>
      <trkpt lat="44.05729" lon="7.45196">
        <ele>2168.861</ele>
        <time>2020-06-26T12:34:32Z</time>
      </trkpt>
      <trkpt lat="44.05729" lon="7.45196">
        <ele>2168.861</ele>
        <time>2020-06-26T12:34:47Z</time>
      </trkpt>
      <trkpt lat="44.05729" lon="7.45196">
        <ele>2168.861</ele>
        <time>2020-06-26T12:35:03Z</time>
      </trkpt>
      <trkpt lat="44.05729" lon="7.45196">
        <ele>2168.678</ele>
        <time>2020-06-26T12:35:19Z</time>
      </trkpt>
      <trkpt lat="44.05729" lon="7.45196">
        <ele>2168.678</ele>
        <time>2020-06-26T12:35:34Z</time>
      </trkpt>
      <trkpt lat="44.05729" lon="7.45196">
        <ele>2168.678</ele>
        <time>2020-06-26T12:35:49Z</time>
      </trkpt>
      <trkpt lat="44.0573" lon="7.45197">
        <ele>2168.716</ele>
        <time>2020-06-26T12:36:05Z</time>
      </trkpt>
      <trkpt lat="44.0573" lon="7.45197">
        <ele>2168.716</ele>
        <time>2020-06-26T12:36:21Z</time>
      </trkpt>
      <trkpt lat="44.0573" lon="7.45197">
        <ele>2168.716</ele>
        <time>2020-06-26T12:36:37Z</time>
      </trkpt>
      <trkpt lat="44.0573" lon="7.45197">
        <ele>2168.716</ele>
        <time>2020-06-26T12:36:52Z</time>
      </trkpt>
      <trkpt lat="44.0573" lon="7.45197">
        <ele>2168.716</ele>
        <time>2020-06-26T12:37:08Z</time>
      </trkpt>
      <trkpt lat="44.0573" lon="7.45197">
        <ele>2168.716</ele>
        <time>2020-06-26T12:37:24Z</time>
      </trkpt>
      <trkpt lat="44.0573" lon="7.45197">
        <ele>2168.716</ele>
        <time>2020-06-26T12:37:39Z</time>
      </trkpt>
      <trkpt lat="44.0573" lon="7.45197">
        <ele>2168.716</ele>
        <time>2020-06-26T12:37:54Z</time>
      </trkpt>
      <trkpt lat="44.0573" lon="7.45197">
        <ele>2168.716</ele>
        <time>2020-06-26T12:38:10Z</time>
      </trkpt>
      <trkpt lat="44.0573" lon="7.45197">
        <ele>2168.716</ele>
        <time>2020-06-26T12:38:25Z</time>
      </trkpt>
      <trkpt lat="44.0573" lon="7.45197">
        <ele>2168.716</ele>
        <time>2020-06-26T12:38:41Z</time>
      </trkpt>
      <trkpt lat="44.0573" lon="7.45197">
        <ele>2168.716</ele>
        <time>2020-06-26T12:38:57Z</time>
      </trkpt>
      <trkpt lat="44.0573" lon="7.45197">
        <ele>2168.716</ele>
        <time>2020-06-26T12:39:13Z</time>
      </trkpt>
      <trkpt lat="44.0573" lon="7.45197">
        <ele>2168.716</ele>
        <time>2020-06-26T12:39:28Z</time>
      </trkpt>
      <trkpt lat="44.0573" lon="7.45197">
        <ele>2168.716</ele>
        <time>2020-06-26T12:39:44Z</time>
      </trkpt>
      <trkpt lat="44.0573" lon="7.45197">
        <ele>2168.716</ele>
        <time>2020-06-26T12:40:00Z</time>
      </trkpt>
      <trkpt lat="44.0573" lon="7.45197">
        <ele>2168.716</ele>
        <time>2020-06-26T12:40:16Z</time>
      </trkpt>
      <trkpt lat="44.05731" lon="7.45189">
        <ele>2169.048</ele>
        <time>2020-06-26T12:40:32Z</time>
      </trkpt>
      <trkpt lat="44.05731" lon="7.45182">
        <ele>2168.186</ele>
        <time>2020-06-26T12:40:47Z</time>
      </trkpt>
      <trkpt lat="44.05732" lon="7.45177">
        <ele>2168.736</ele>
        <time>2020-06-26T12:41:03Z</time>
      </trkpt>
      <trkpt lat="44.05732" lon="7.45177">
        <ele>2168.736</ele>
        <time>2020-06-26T12:41:19Z</time>
      </trkpt>
      <trkpt lat="44.05732" lon="7.45177">
        <ele>2168.736</ele>
        <time>2020-06-26T12:41:35Z</time>
      </trkpt>
      <trkpt lat="44.05736" lon="7.45166">
        <ele>2167.396</ele>
        <time>2020-06-26T12:41:51Z</time>
      </trkpt>
      <trkpt lat="44.05737" lon="7.45164">
        <ele>2167.385</ele>
        <time>2020-06-26T12:42:07Z</time>
      </trkpt>
      <trkpt lat="44.05737" lon="7.45164">
        <ele>2167.385</ele>
        <time>2020-06-26T12:42:23Z</time>
      </trkpt>
      <trkpt lat="44.05737" lon="7.45164">
        <ele>2167.385</ele>
        <time>2020-06-26T12:42:38Z</time>
      </trkpt>
      <trkpt lat="44.05737" lon="7.45164">
        <ele>2167.385</ele>
        <time>2020-06-26T12:42:54Z</time>
      </trkpt>
      <trkpt lat="44.05737" lon="7.45164">
        <ele>2167.385</ele>
        <time>2020-06-26T12:43:09Z</time>
      </trkpt>
      <trkpt lat="44.05737" lon="7.45164">
        <ele>2167.385</ele>
        <time>2020-06-26T12:43:25Z</time>
      </trkpt>
      <trkpt lat="44.05732" lon="7.45156">
        <ele>2167.715</ele>
        <time>2020-06-26T12:43:41Z</time>
      </trkpt>
      <trkpt lat="44.05726" lon="7.45153">
        <ele>2168.588</ele>
        <time>2020-06-26T12:43:57Z</time>
      </trkpt>
      <trkpt lat="44.05714" lon="7.45142">
        <ele>2171.547</ele>
        <time>2020-06-26T12:44:13Z</time>
      </trkpt>
      <trkpt lat="44.05701" lon="7.45144">
        <ele>2173.644</ele>
        <time>2020-06-26T12:44:28Z</time>
      </trkpt>
      <trkpt lat="44.05695" lon="7.45146">
        <ele>2173.895</ele>
        <time>2020-06-26T12:44:44Z</time>
      </trkpt>
      <trkpt lat="44.05695" lon="7.45145">
        <ele>2174.105</ele>
        <time>2020-06-26T12:44:59Z</time>
      </trkpt>
      <trkpt lat="44.05692" lon="7.4513">
        <ele>2179.537</ele>
        <time>2020-06-26T12:45:15Z</time>
      </trkpt>
      <trkpt lat="44.05685" lon="7.45117">
        <ele>2182.31</ele>
        <time>2020-06-26T12:45:30Z</time>
      </trkpt>
      <trkpt lat="44.05685" lon="7.45117">
        <ele>2182.31</ele>
        <time>2020-06-26T12:45:46Z</time>
      </trkpt>
      <trkpt lat="44.05685" lon="7.45102">
        <ele>2181.073</ele>
        <time>2020-06-26T12:46:01Z</time>
      </trkpt>
      <trkpt lat="44.05685" lon="7.45102">
        <ele>2181.073</ele>
        <time>2020-06-26T12:46:17Z</time>
      </trkpt>
      <trkpt lat="44.05685" lon="7.45102">
        <ele>2181.073</ele>
        <time>2020-06-26T12:46:33Z</time>
      </trkpt>
      <trkpt lat="44.05684" lon="7.45101">
        <ele>2181.931</ele>
        <time>2020-06-26T12:46:49Z</time>
      </trkpt>
      <trkpt lat="44.05681" lon="7.45088">
        <ele>2180.323</ele>
        <time>2020-06-26T12:47:04Z</time>
      </trkpt>
      <trkpt lat="44.05685" lon="7.45072">
        <ele>2181.687</ele>
        <time>2020-06-26T12:47:20Z</time>
      </trkpt>
      <trkpt lat="44.05687" lon="7.45065">
        <ele>2182.537</ele>
        <time>2020-06-26T12:47:36Z</time>
      </trkpt>
      <trkpt lat="44.05686" lon="7.45069">
        <ele>2181.677</ele>
        <time>2020-06-26T12:47:52Z</time>
      </trkpt>
      <trkpt lat="44.05682" lon="7.45094">
        <ele>2181.709</ele>
        <time>2020-06-26T12:48:07Z</time>
      </trkpt>
      <trkpt lat="44.05683" lon="7.45114">
        <ele>2181.656</ele>
        <time>2020-06-26T12:48:23Z</time>
      </trkpt>
      <trkpt lat="44.05669" lon="7.45118">
        <ele>2179.493</ele>
        <time>2020-06-26T12:48:38Z</time>
      </trkpt>
      <trkpt lat="44.05657" lon="7.45123">
        <ele>2178.871</ele>
        <time>2020-06-26T12:48:53Z</time>
      </trkpt>
      <trkpt lat="44.05655" lon="7.4514">
        <ele>2184.575</ele>
        <time>2020-06-26T12:49:09Z</time>
      </trkpt>
      <trkpt lat="44.05651" lon="7.4516">
        <ele>2184.92</ele>
        <time>2020-06-26T12:49:25Z</time>
      </trkpt>
      <trkpt lat="44.05648" lon="7.45179">
        <ele>2188.149</ele>
        <time>2020-06-26T12:49:40Z</time>
      </trkpt>
      <trkpt lat="44.0564" lon="7.45193">
        <ele>2192.886</ele>
        <time>2020-06-26T12:49:55Z</time>
      </trkpt>
      <trkpt lat="44.05634" lon="7.45196">
        <ele>2195.821</ele>
        <time>2020-06-26T12:50:11Z</time>
      </trkpt>
      <trkpt lat="44.05629" lon="7.45203">
        <ele>2193.994</ele>
        <time>2020-06-26T12:50:27Z</time>
      </trkpt>
      <trkpt lat="44.05622" lon="7.45201">
        <ele>2193.227</ele>
        <time>2020-06-26T12:50:42Z</time>
      </trkpt>
      <trkpt lat="44.05622" lon="7.452">
        <ele>2193.599</ele>
        <time>2020-06-26T12:50:58Z</time>
      </trkpt>
      <trkpt lat="44.05624" lon="7.45189">
        <ele>2191.842</ele>
        <time>2020-06-26T12:51:14Z</time>
      </trkpt>
      <trkpt lat="44.05624" lon="7.45189">
        <ele>2191.842</ele>
        <time>2020-06-26T12:51:30Z</time>
      </trkpt>
      <trkpt lat="44.05617" lon="7.45205">
        <ele>2190.824</ele>
        <time>2020-06-26T12:51:46Z</time>
      </trkpt>
      <trkpt lat="44.05615" lon="7.45222">
        <ele>2190.831</ele>
        <time>2020-06-26T12:52:02Z</time>
      </trkpt>
      <trkpt lat="44.05615" lon="7.45222">
        <ele>2190.696</ele>
        <time>2020-06-26T12:52:17Z</time>
      </trkpt>
      <trkpt lat="44.05615" lon="7.45224">
        <ele>2190.582</ele>
        <time>2020-06-26T12:52:33Z</time>
      </trkpt>
      <trkpt lat="44.05614" lon="7.45239">
        <ele>2192.136</ele>
        <time>2020-06-26T12:52:48Z</time>
      </trkpt>
      <trkpt lat="44.05609" lon="7.4525">
        <ele>2193.166</ele>
        <time>2020-06-26T12:53:03Z</time>
      </trkpt>
      <trkpt lat="44.05607" lon="7.4525">
        <ele>2192.228</ele>
        <time>2020-06-26T12:53:18Z</time>
      </trkpt>
      <trkpt lat="44.05606" lon="7.45274">
        <ele>2192.708</ele>
        <time>2020-06-26T12:53:34Z</time>
      </trkpt>
      <trkpt lat="44.05603" lon="7.45291">
        <ele>2193.276</ele>
        <time>2020-06-26T12:53:49Z</time>
      </trkpt>
      <trkpt lat="44.05594" lon="7.45294">
        <ele>2193.204</ele>
        <time>2020-06-26T12:54:05Z</time>
      </trkpt>
      <trkpt lat="44.05594" lon="7.45294">
        <ele>2193.204</ele>
        <time>2020-06-26T12:54:21Z</time>
      </trkpt>
      <trkpt lat="44.05595" lon="7.45294">
        <ele>2192.485</ele>
        <time>2020-06-26T12:54:36Z</time>
      </trkpt>
      <trkpt lat="44.05596" lon="7.45296">
        <ele>2191.393</ele>
        <time>2020-06-26T12:54:51Z</time>
      </trkpt>
      <trkpt lat="44.05596" lon="7.45296">
        <ele>2191.393</ele>
        <time>2020-06-26T12:55:07Z</time>
      </trkpt>
      <trkpt lat="44.05596" lon="7.45296">
        <ele>2191.393</ele>
        <time>2020-06-26T12:55:23Z</time>
      </trkpt>
      <trkpt lat="44.05596" lon="7.45296">
        <ele>2191.393</ele>
        <time>2020-06-26T12:55:39Z</time>
      </trkpt>
      <trkpt lat="44.05596" lon="7.45286">
        <ele>2190.906</ele>
        <time>2020-06-26T12:55:54Z</time>
      </trkpt>
      <trkpt lat="44.05595" lon="7.45268">
        <ele>2191.999</ele>
        <time>2020-06-26T12:56:09Z</time>
      </trkpt>
      <trkpt lat="44.05588" lon="7.45268">
        <ele>2189.067</ele>
        <time>2020-06-26T12:56:25Z</time>
      </trkpt>
      <trkpt lat="44.05585" lon="7.45265">
        <ele>2187.62</ele>
        <time>2020-06-26T12:56:40Z</time>
      </trkpt>
      <trkpt lat="44.05585" lon="7.45265">
        <ele>2187.62</ele>
        <time>2020-06-26T12:56:56Z</time>
      </trkpt>
      <trkpt lat="44.05585" lon="7.45265">
        <ele>2187.958</ele>
        <time>2020-06-26T12:57:11Z</time>
      </trkpt>
      <trkpt lat="44.05585" lon="7.45266">
        <ele>2188.757</ele>
        <time>2020-06-26T12:57:27Z</time>
      </trkpt>
      <trkpt lat="44.05585" lon="7.45266">
        <ele>2188.757</ele>
        <time>2020-06-26T12:57:43Z</time>
      </trkpt>
      <trkpt lat="44.05591" lon="7.45267">
        <ele>2189.161</ele>
        <time>2020-06-26T12:57:58Z</time>
      </trkpt>
      <trkpt lat="44.05603" lon="7.45266">
        <ele>2194.454</ele>
        <time>2020-06-26T12:58:14Z</time>
      </trkpt>
      <trkpt lat="44.05609" lon="7.45274">
        <ele>2195.293</ele>
        <time>2020-06-26T12:58:30Z</time>
      </trkpt>
      <trkpt lat="44.05618" lon="7.45295">
        <ele>2192.365</ele>
        <time>2020-06-26T12:58:46Z</time>
      </trkpt>
      <trkpt lat="44.05628" lon="7.45312">
        <ele>2194.75</ele>
        <time>2020-06-26T12:59:01Z</time>
      </trkpt>
      <trkpt lat="44.05635" lon="7.45329">
        <ele>2194.782</ele>
        <time>2020-06-26T12:59:17Z</time>
      </trkpt>
      <trkpt lat="44.05643" lon="7.45331">
        <ele>2194.931</ele>
        <time>2020-06-26T12:59:33Z</time>
      </trkpt>
      <trkpt lat="44.05649" lon="7.45336">
        <ele>2193.686</ele>
        <time>2020-06-26T12:59:48Z</time>
      </trkpt>
      <trkpt lat="44.05654" lon="7.45342">
        <ele>2193.268</ele>
        <time>2020-06-26T13:00:03Z</time>
      </trkpt>
      <trkpt lat="44.05654" lon="7.45342">
        <ele>2193.268</ele>
        <time>2020-06-26T13:00:19Z</time>
      </trkpt>
      <trkpt lat="44.05654" lon="7.45342">
        <ele>2193.268</ele>
        <time>2020-06-26T13:00:35Z</time>
      </trkpt>
      <trkpt lat="44.05654" lon="7.45342">
        <ele>2193.268</ele>
        <time>2020-06-26T13:00:51Z</time>
      </trkpt>
      <trkpt lat="44.05654" lon="7.45341">
        <ele>2193.217</ele>
        <time>2020-06-26T13:01:07Z</time>
      </trkpt>
      <trkpt lat="44.05658" lon="7.4533">
        <ele>2190.444</ele>
        <time>2020-06-26T13:01:23Z</time>
      </trkpt>
      <trkpt lat="44.05666" lon="7.45338">
        <ele>2187.958</ele>
        <time>2020-06-26T13:01:39Z</time>
      </trkpt>
      <trkpt lat="44.05667" lon="7.45342">
        <ele>2186.224</ele>
        <time>2020-06-26T13:01:55Z</time>
      </trkpt>
      <trkpt lat="44.05668" lon="7.45342">
        <ele>2185.42</ele>
        <time>2020-06-26T13:02:11Z</time>
      </trkpt>
      <trkpt lat="44.05668" lon="7.45342">
        <ele>2185.42</ele>
        <time>2020-06-26T13:02:26Z</time>
      </trkpt>
      <trkpt lat="44.05666" lon="7.45341">
        <ele>2185.251</ele>
        <time>2020-06-26T13:02:41Z</time>
      </trkpt>
      <trkpt lat="44.05666" lon="7.45341">
        <ele>2184.827</ele>
        <time>2020-06-26T13:02:57Z</time>
      </trkpt>
      <trkpt lat="44.05666" lon="7.45341">
        <ele>2184.827</ele>
        <time>2020-06-26T13:03:13Z</time>
      </trkpt>
      <trkpt lat="44.05666" lon="7.45341">
        <ele>2184.827</ele>
        <time>2020-06-26T13:03:28Z</time>
      </trkpt>
      <trkpt lat="44.05665" lon="7.45341">
        <ele>2184.724</ele>
        <time>2020-06-26T13:03:43Z</time>
      </trkpt>
      <trkpt lat="44.05663" lon="7.45341">
        <ele>2184.44</ele>
        <time>2020-06-26T13:03:59Z</time>
      </trkpt>
      <trkpt lat="44.05663" lon="7.45338">
        <ele>2185.207</ele>
        <time>2020-06-26T13:04:14Z</time>
      </trkpt>
      <trkpt lat="44.05663" lon="7.45338">
        <ele>2185.207</ele>
        <time>2020-06-26T13:04:30Z</time>
      </trkpt>
      <trkpt lat="44.05663" lon="7.45338">
        <ele>2185.207</ele>
        <time>2020-06-26T13:04:45Z</time>
      </trkpt>
      <trkpt lat="44.05663" lon="7.45338">
        <ele>2185.207</ele>
        <time>2020-06-26T13:05:01Z</time>
      </trkpt>
      <trkpt lat="44.05663" lon="7.45338">
        <ele>2185.207</ele>
        <time>2020-06-26T13:05:17Z</time>
      </trkpt>
      <trkpt lat="44.05663" lon="7.45338">
        <ele>2185.207</ele>
        <time>2020-06-26T13:05:32Z</time>
      </trkpt>
      <trkpt lat="44.05663" lon="7.45338">
        <ele>2185.207</ele>
        <time>2020-06-26T13:05:48Z</time>
      </trkpt>
      <trkpt lat="44.05663" lon="7.45338">
        <ele>2185.207</ele>
        <time>2020-06-26T13:06:03Z</time>
      </trkpt>
      <trkpt lat="44.05663" lon="7.45338">
        <ele>2185.207</ele>
        <time>2020-06-26T13:06:18Z</time>
      </trkpt>
      <trkpt lat="44.05663" lon="7.45338">
        <ele>2185.207</ele>
        <time>2020-06-26T13:06:33Z</time>
      </trkpt>
      <trkpt lat="44.05663" lon="7.45338">
        <ele>2185.207</ele>
        <time>2020-06-26T13:06:49Z</time>
      </trkpt>
      <trkpt lat="44.05663" lon="7.45338">
        <ele>2185.207</ele>
        <time>2020-06-26T13:07:05Z</time>
      </trkpt>
      <trkpt lat="44.05663" lon="7.45338">
        <ele>2185.207</ele>
        <time>2020-06-26T13:07:21Z</time>
      </trkpt>
      <trkpt lat="44.05663" lon="7.45338">
        <ele>2185.207</ele>
        <time>2020-06-26T13:07:36Z</time>
      </trkpt>
      <trkpt lat="44.05663" lon="7.45338">
        <ele>2185.207</ele>
        <time>2020-06-26T13:07:52Z</time>
      </trkpt>
      <trkpt lat="44.05663" lon="7.45338">
        <ele>2185.207</ele>
        <time>2020-06-26T13:08:08Z</time>
      </trkpt>
      <trkpt lat="44.05664" lon="7.45338">
        <ele>2185.597</ele>
        <time>2020-06-26T13:08:24Z</time>
      </trkpt>
      <trkpt lat="44.05664" lon="7.45338">
        <ele>2185.597</ele>
        <time>2020-06-26T13:08:39Z</time>
      </trkpt>
      <trkpt lat="44.05664" lon="7.45338">
        <ele>2185.597</ele>
        <time>2020-06-26T13:08:54Z</time>
      </trkpt>
      <trkpt lat="44.05664" lon="7.45338">
        <ele>2185.597</ele>
        <time>2020-06-26T13:09:09Z</time>
      </trkpt>
      <trkpt lat="44.05664" lon="7.45338">
        <ele>2185.597</ele>
        <time>2020-06-26T13:09:25Z</time>
      </trkpt>
      <trkpt lat="44.05664" lon="7.45338">
        <ele>2185.597</ele>
        <time>2020-06-26T13:09:41Z</time>
      </trkpt>
      <trkpt lat="44.05664" lon="7.45338">
        <ele>2185.597</ele>
        <time>2020-06-26T13:09:57Z</time>
      </trkpt>
      <trkpt lat="44.05664" lon="7.45338">
        <ele>2185.597</ele>
        <time>2020-06-26T13:10:13Z</time>
      </trkpt>
      <trkpt lat="44.05664" lon="7.45338">
        <ele>2185.597</ele>
        <time>2020-06-26T13:10:29Z</time>
      </trkpt>
      <trkpt lat="44.05664" lon="7.45338">
        <ele>2185.597</ele>
        <time>2020-06-26T13:10:44Z</time>
      </trkpt>
      <trkpt lat="44.05664" lon="7.45338">
        <ele>2185.597</ele>
        <time>2020-06-26T13:11:00Z</time>
      </trkpt>
      <trkpt lat="44.05664" lon="7.45338">
        <ele>2185.459</ele>
        <time>2020-06-26T13:11:16Z</time>
      </trkpt>
      <trkpt lat="44.05665" lon="7.45339">
        <ele>2185.08</ele>
        <time>2020-06-26T13:11:32Z</time>
      </trkpt>
      <trkpt lat="44.05666" lon="7.45339">
        <ele>2185.421</ele>
        <time>2020-06-26T13:11:47Z</time>
      </trkpt>
      <trkpt lat="44.05666" lon="7.45339">
        <ele>2185.421</ele>
        <time>2020-06-26T13:12:03Z</time>
      </trkpt>
      <trkpt lat="44.05666" lon="7.45339">
        <ele>2185.421</ele>
        <time>2020-06-26T13:12:19Z</time>
      </trkpt>
      <trkpt lat="44.05666" lon="7.45339">
        <ele>2185.421</ele>
        <time>2020-06-26T13:12:34Z</time>
      </trkpt>
      <trkpt lat="44.05667" lon="7.45326">
        <ele>2185.586</ele>
        <time>2020-06-26T13:12:50Z</time>
      </trkpt>
      <trkpt lat="44.05671" lon="7.4531">
        <ele>2181.949</ele>
        <time>2020-06-26T13:13:06Z</time>
      </trkpt>
      <trkpt lat="44.05684" lon="7.453">
        <ele>2180.163</ele>
        <time>2020-06-26T13:13:21Z</time>
      </trkpt>
      <trkpt lat="44.05695" lon="7.45288">
        <ele>2178.78</ele>
        <time>2020-06-26T13:13:37Z</time>
      </trkpt>
      <trkpt lat="44.057" lon="7.45265">
        <ele>2176.74</ele>
        <time>2020-06-26T13:13:53Z</time>
      </trkpt>
      <trkpt lat="44.05705" lon="7.45247">
        <ele>2177.302</ele>
        <time>2020-06-26T13:14:08Z</time>
      </trkpt>
      <trkpt lat="44.05708" lon="7.45237">
        <ele>2176.695</ele>
        <time>2020-06-26T13:14:24Z</time>
      </trkpt>
      <trkpt lat="44.05716" lon="7.45224">
        <ele>2175.318</ele>
        <time>2020-06-26T13:14:40Z</time>
      </trkpt>
      <trkpt lat="44.05722" lon="7.45217">
        <ele>2173.744</ele>
        <time>2020-06-26T13:14:55Z</time>
      </trkpt>
      <trkpt lat="44.05732" lon="7.45209">
        <ele>2172.908</ele>
        <time>2020-06-26T13:15:11Z</time>
      </trkpt>
      <trkpt lat="44.05735" lon="7.45215">
        <ele>2169.195</ele>
        <time>2020-06-26T13:15:26Z</time>
      </trkpt>
      <trkpt lat="44.05741" lon="7.45235">
        <ele>2165.868</ele>
        <time>2020-06-26T13:15:42Z</time>
      </trkpt>
      <trkpt lat="44.05752" lon="7.45251">
        <ele>2165.798</ele>
        <time>2020-06-26T13:15:58Z</time>
      </trkpt>
      <trkpt lat="44.05761" lon="7.45257">
        <ele>2162.711</ele>
        <time>2020-06-26T13:16:13Z</time>
      </trkpt>
      <trkpt lat="44.05766" lon="7.45262">
        <ele>2162.5</ele>
        <time>2020-06-26T13:16:29Z</time>
      </trkpt>
      <trkpt lat="44.05764" lon="7.45272">
        <ele>2161.821</ele>
        <time>2020-06-26T13:16:45Z</time>
      </trkpt>
      <trkpt lat="44.05764" lon="7.45289">
        <ele>2162.574</ele>
        <time>2020-06-26T13:17:01Z</time>
      </trkpt>
      <trkpt lat="44.05764" lon="7.45289">
        <ele>2162.574</ele>
        <time>2020-06-26T13:17:17Z</time>
      </trkpt>
      <trkpt lat="44.05764" lon="7.45289">
        <ele>2162.574</ele>
        <time>2020-06-26T13:17:33Z</time>
      </trkpt>
      <trkpt lat="44.05764" lon="7.45289">
        <ele>2162.574</ele>
        <time>2020-06-26T13:17:48Z</time>
      </trkpt>
      <trkpt lat="44.05764" lon="7.45289">
        <ele>2162.574</ele>
        <time>2020-06-26T13:18:04Z</time>
      </trkpt>
      <trkpt lat="44.05764" lon="7.45289">
        <ele>2162.574</ele>
        <time>2020-06-26T13:18:19Z</time>
      </trkpt>
      <trkpt lat="44.05763" lon="7.45289">
        <ele>2161.576</ele>
        <time>2020-06-26T13:18:34Z</time>
      </trkpt>
      <trkpt lat="44.05763" lon="7.45289">
        <ele>2161.576</ele>
        <time>2020-06-26T13:18:50Z</time>
      </trkpt>
      <trkpt lat="44.05763" lon="7.45289">
        <ele>2161.576</ele>
        <time>2020-06-26T13:19:06Z</time>
      </trkpt>
      <trkpt lat="44.05763" lon="7.45289">
        <ele>2161.576</ele>
        <time>2020-06-26T13:19:21Z</time>
      </trkpt>
      <trkpt lat="44.05763" lon="7.45289">
        <ele>2161.576</ele>
        <time>2020-06-26T13:19:36Z</time>
      </trkpt>
      <trkpt lat="44.05763" lon="7.4529">
        <ele>2161.262</ele>
        <time>2020-06-26T13:19:52Z</time>
      </trkpt>
      <trkpt lat="44.05763" lon="7.4529">
        <ele>2161.262</ele>
        <time>2020-06-26T13:20:08Z</time>
      </trkpt>
      <trkpt lat="44.05763" lon="7.4529">
        <ele>2161.262</ele>
        <time>2020-06-26T13:20:23Z</time>
      </trkpt>
      <trkpt lat="44.05763" lon="7.4529">
        <ele>2161.262</ele>
        <time>2020-06-26T13:20:39Z</time>
      </trkpt>
      <trkpt lat="44.05763" lon="7.4529">
        <ele>2161.262</ele>
        <time>2020-06-26T13:20:55Z</time>
      </trkpt>
      <trkpt lat="44.05763" lon="7.4529">
        <ele>2161.262</ele>
        <time>2020-06-26T13:21:11Z</time>
      </trkpt>
      <trkpt lat="44.05763" lon="7.4529">
        <ele>2161.262</ele>
        <time>2020-06-26T13:21:27Z</time>
      </trkpt>
      <trkpt lat="44.05763" lon="7.4529">
        <ele>2161.262</ele>
        <time>2020-06-26T13:21:43Z</time>
      </trkpt>
      <trkpt lat="44.05763" lon="7.4529">
        <ele>2161.262</ele>
        <time>2020-06-26T13:21:59Z</time>
      </trkpt>
      <trkpt lat="44.05763" lon="7.4529">
        <ele>2161.262</ele>
        <time>2020-06-26T13:22:15Z</time>
      </trkpt>
      <trkpt lat="44.05763" lon="7.4529">
        <ele>2161.262</ele>
        <time>2020-06-26T13:22:31Z</time>
      </trkpt>
      <trkpt lat="44.05763" lon="7.4529">
        <ele>2161.262</ele>
        <time>2020-06-26T13:22:46Z</time>
      </trkpt>
      <trkpt lat="44.05763" lon="7.4529">
        <ele>2161.262</ele>
        <time>2020-06-26T13:23:02Z</time>
      </trkpt>
      <trkpt lat="44.05763" lon="7.4529">
        <ele>2161.262</ele>
        <time>2020-06-26T13:23:17Z</time>
      </trkpt>
      <trkpt lat="44.05763" lon="7.4529">
        <ele>2161.262</ele>
        <time>2020-06-26T13:23:33Z</time>
      </trkpt>
      <trkpt lat="44.05763" lon="7.4529">
        <ele>2161.262</ele>
        <time>2020-06-26T13:23:49Z</time>
      </trkpt>
      <trkpt lat="44.05763" lon="7.4529">
        <ele>2161.262</ele>
        <time>2020-06-26T13:24:05Z</time>
      </trkpt>
      <trkpt lat="44.05763" lon="7.4529">
        <ele>2161.262</ele>
        <time>2020-06-26T13:24:21Z</time>
      </trkpt>
      <trkpt lat="44.05763" lon="7.4529">
        <ele>2161.262</ele>
        <time>2020-06-26T13:24:37Z</time>
      </trkpt>
      <trkpt lat="44.05763" lon="7.4529">
        <ele>2161.262</ele>
        <time>2020-06-26T13:24:53Z</time>
      </trkpt>
      <trkpt lat="44.05763" lon="7.4529">
        <ele>2161.262</ele>
        <time>2020-06-26T13:25:08Z</time>
      </trkpt>
      <trkpt lat="44.05766" lon="7.45298">
        <ele>2159.308</ele>
        <time>2020-06-26T13:27:23Z</time>
      </trkpt>
      <trkpt lat="44.05766" lon="7.45287">
        <ele>2178.333</ele>
        <time>2020-06-26T13:27:39Z</time>
      </trkpt>
      <trkpt lat="44.05766" lon="7.45288">
        <ele>2176.086</ele>
        <time>2020-06-26T13:27:54Z</time>
      </trkpt>
      <trkpt lat="44.05765" lon="7.45288">
        <ele>2173.594</ele>
        <time>2020-06-26T13:28:10Z</time>
      </trkpt>
      <trkpt lat="44.05766" lon="7.45288">
        <ele>2171.592</ele>
        <time>2020-06-26T13:28:26Z</time>
      </trkpt>
      <trkpt lat="44.05766" lon="7.45288">
        <ele>2171.592</ele>
        <time>2020-06-26T13:28:42Z</time>
      </trkpt>
      <trkpt lat="44.05766" lon="7.45288">
        <ele>2171.592</ele>
        <time>2020-06-26T13:28:57Z</time>
      </trkpt>
      <trkpt lat="44.05766" lon="7.45288">
        <ele>2171.592</ele>
        <time>2020-06-26T13:29:12Z</time>
      </trkpt>
      <trkpt lat="44.05766" lon="7.45288">
        <ele>2171.592</ele>
        <time>2020-06-26T13:29:28Z</time>
      </trkpt>
      <trkpt lat="44.05766" lon="7.45288">
        <ele>2171.592</ele>
        <time>2020-06-26T13:29:43Z</time>
      </trkpt>
      <trkpt lat="44.05766" lon="7.45288">
        <ele>2171.592</ele>
        <time>2020-06-26T13:29:59Z</time>
      </trkpt>
      <trkpt lat="44.05766" lon="7.45288">
        <ele>2171.592</ele>
        <time>2020-06-26T13:30:14Z</time>
      </trkpt>
      <trkpt lat="44.05766" lon="7.45288">
        <ele>2171.592</ele>
        <time>2020-06-26T13:30:29Z</time>
      </trkpt>
      <trkpt lat="44.05766" lon="7.45288">
        <ele>2171.592</ele>
        <time>2020-06-26T13:30:45Z</time>
      </trkpt>
      <trkpt lat="44.05766" lon="7.45288">
        <ele>2171.592</ele>
        <time>2020-06-26T13:31:01Z</time>
      </trkpt>
      <trkpt lat="44.05766" lon="7.45288">
        <ele>2171.592</ele>
        <time>2020-06-26T13:31:16Z</time>
      </trkpt>
      <trkpt lat="44.05766" lon="7.45288">
        <ele>2171.592</ele>
        <time>2020-06-26T13:31:31Z</time>
      </trkpt>
      <trkpt lat="44.05766" lon="7.45288">
        <ele>2171.592</ele>
        <time>2020-06-26T13:31:47Z</time>
      </trkpt>
      <trkpt lat="44.05766" lon="7.45288">
        <ele>2171.592</ele>
        <time>2020-06-26T13:32:02Z</time>
      </trkpt>
      <trkpt lat="44.05766" lon="7.45288">
        <ele>2171.592</ele>
        <time>2020-06-26T13:32:18Z</time>
      </trkpt>
      <trkpt lat="44.05766" lon="7.45288">
        <ele>2171.592</ele>
        <time>2020-06-26T13:32:33Z</time>
      </trkpt>
      <trkpt lat="44.05766" lon="7.45288">
        <ele>2171.592</ele>
        <time>2020-06-26T13:32:49Z</time>
      </trkpt>
      <trkpt lat="44.05766" lon="7.45288">
        <ele>2171.592</ele>
        <time>2020-06-26T13:33:05Z</time>
      </trkpt>
      <trkpt lat="44.05766" lon="7.45288">
        <ele>2171.592</ele>
        <time>2020-06-26T13:33:21Z</time>
      </trkpt>
      <trkpt lat="44.05766" lon="7.45288">
        <ele>2171.592</ele>
        <time>2020-06-26T13:33:36Z</time>
      </trkpt>
      <trkpt lat="44.05766" lon="7.45288">
        <ele>2171.592</ele>
        <time>2020-06-26T13:33:51Z</time>
      </trkpt>
      <trkpt lat="44.05766" lon="7.45288">
        <ele>2171.592</ele>
        <time>2020-06-26T13:34:07Z</time>
      </trkpt>
      <trkpt lat="44.05766" lon="7.45288">
        <ele>2171.592</ele>
        <time>2020-06-26T13:34:23Z</time>
      </trkpt>
      <trkpt lat="44.05766" lon="7.45288">
        <ele>2171.592</ele>
        <time>2020-06-26T13:34:39Z</time>
      </trkpt>
      <trkpt lat="44.05766" lon="7.45288">
        <ele>2171.592</ele>
        <time>2020-06-26T13:34:55Z</time>
      </trkpt>
      <trkpt lat="44.05766" lon="7.45288">
        <ele>2171.592</ele>
        <time>2020-06-26T13:35:11Z</time>
      </trkpt>
      <trkpt lat="44.05766" lon="7.45288">
        <ele>2171.592</ele>
        <time>2020-06-26T13:35:26Z</time>
      </trkpt>
      <trkpt lat="44.05766" lon="7.45288">
        <ele>2171.592</ele>
        <time>2020-06-26T13:35:42Z</time>
      </trkpt>
      <trkpt lat="44.0578" lon="7.45285">
        <ele>2184.056</ele>
        <time>2020-06-26T13:51:02Z</time>
      </trkpt>
    </trkseg>
  </trk>
  <trk>
    <name><![CDATA[GR52 / GR5 par Menton_4]]></name>
    <trkseg>
      <trkpt lat="44.05766" lon="7.45196">
        <ele>2096.567</ele>
        <time>2020-06-27T05:11:06Z</time>
      </trkpt>
      <trkpt lat="44.05715" lon="7.45175">
        <ele>2177.745</ele>
        <time>2020-06-27T05:11:22Z</time>
      </trkpt>
      <trkpt lat="44.05716" lon="7.45175">
        <ele>2178.572</ele>
        <time>2020-06-27T05:11:38Z</time>
      </trkpt>
      <trkpt lat="44.05716" lon="7.45175">
        <ele>2178.572</ele>
        <time>2020-06-27T05:11:54Z</time>
      </trkpt>
      <trkpt lat="44.05725" lon="7.45166">
        <ele>2173.5</ele>
        <time>2020-06-27T05:12:10Z</time>
      </trkpt>
      <trkpt lat="44.05735" lon="7.45157">
        <ele>2167.641</ele>
        <time>2020-06-27T05:12:25Z</time>
      </trkpt>
      <trkpt lat="44.05729" lon="7.45154">
        <ele>2170.402</ele>
        <time>2020-06-27T05:12:41Z</time>
      </trkpt>
      <trkpt lat="44.05721" lon="7.4515">
        <ele>2169.587</ele>
        <time>2020-06-27T05:12:56Z</time>
      </trkpt>
      <trkpt lat="44.05715" lon="7.45143">
        <ele>2171.272</ele>
        <time>2020-06-27T05:13:11Z</time>
      </trkpt>
      <trkpt lat="44.05703" lon="7.45145">
        <ele>2170.845</ele>
        <time>2020-06-27T05:13:27Z</time>
      </trkpt>
      <trkpt lat="44.05693" lon="7.45163">
        <ele>2177.39</ele>
        <time>2020-06-27T05:13:43Z</time>
      </trkpt>
      <trkpt lat="44.05685" lon="7.45172">
        <ele>2177.121</ele>
        <time>2020-06-27T05:13:58Z</time>
      </trkpt>
      <trkpt lat="44.05677" lon="7.45182">
        <ele>2181.901</ele>
        <time>2020-06-27T05:14:14Z</time>
      </trkpt>
      <trkpt lat="44.0567" lon="7.45203">
        <ele>2187.888</ele>
        <time>2020-06-27T05:14:30Z</time>
      </trkpt>
      <trkpt lat="44.05664" lon="7.45219">
        <ele>2187.396</ele>
        <time>2020-06-27T05:14:45Z</time>
      </trkpt>
      <trkpt lat="44.05664" lon="7.45229">
        <ele>2189.042</ele>
        <time>2020-06-27T05:15:01Z</time>
      </trkpt>
      <trkpt lat="44.05664" lon="7.45229">
        <ele>2189.126</ele>
        <time>2020-06-27T05:15:17Z</time>
      </trkpt>
      <trkpt lat="44.05656" lon="7.4522">
        <ele>2187.92</ele>
        <time>2020-06-27T05:15:33Z</time>
      </trkpt>
      <trkpt lat="44.05649" lon="7.45204">
        <ele>2187.615</ele>
        <time>2020-06-27T05:15:49Z</time>
      </trkpt>
      <trkpt lat="44.05642" lon="7.45192">
        <ele>2189.539</ele>
        <time>2020-06-27T05:16:05Z</time>
      </trkpt>
      <trkpt lat="44.05646" lon="7.45177">
        <ele>2194.059</ele>
        <time>2020-06-27T05:16:21Z</time>
      </trkpt>
      <trkpt lat="44.05652" lon="7.45157">
        <ele>2194.356</ele>
        <time>2020-06-27T05:16:37Z</time>
      </trkpt>
      <trkpt lat="44.05655" lon="7.45133">
        <ele>2191.67</ele>
        <time>2020-06-27T05:16:53Z</time>
      </trkpt>
      <trkpt lat="44.05658" lon="7.45114">
        <ele>2188.435</ele>
        <time>2020-06-27T05:17:08Z</time>
      </trkpt>
      <trkpt lat="44.0567" lon="7.45111">
        <ele>2186.267</ele>
        <time>2020-06-27T05:17:24Z</time>
      </trkpt>
      <trkpt lat="44.0568" lon="7.45106">
        <ele>2184.358</ele>
        <time>2020-06-27T05:17:40Z</time>
      </trkpt>
      <trkpt lat="44.05677" lon="7.4509">
        <ele>2184.666</ele>
        <time>2020-06-27T05:17:56Z</time>
      </trkpt>
      <trkpt lat="44.05682" lon="7.45067">
        <ele>2186.287</ele>
        <time>2020-06-27T05:18:11Z</time>
      </trkpt>
      <trkpt lat="44.05685" lon="7.45044">
        <ele>2186.444</ele>
        <time>2020-06-27T05:18:27Z</time>
      </trkpt>
      <trkpt lat="44.05694" lon="7.45025">
        <ele>2182.999</ele>
        <time>2020-06-27T05:18:43Z</time>
      </trkpt>
      <trkpt lat="44.05694" lon="7.45003">
        <ele>2182.832</ele>
        <time>2020-06-27T05:18:59Z</time>
      </trkpt>
      <trkpt lat="44.05697" lon="7.44988">
        <ele>2185.472</ele>
        <time>2020-06-27T05:19:15Z</time>
      </trkpt>
      <trkpt lat="44.05699" lon="7.44971">
        <ele>2186.696</ele>
        <time>2020-06-27T05:19:31Z</time>
      </trkpt>
      <trkpt lat="44.05699" lon="7.44961">
        <ele>2185.961</ele>
        <time>2020-06-27T05:19:47Z</time>
      </trkpt>
      <trkpt lat="44.05696" lon="7.44968">
        <ele>2184.476</ele>
        <time>2020-06-27T05:20:02Z</time>
      </trkpt>
      <trkpt lat="44.05699" lon="7.44949">
        <ele>2185.306</ele>
        <time>2020-06-27T05:20:18Z</time>
      </trkpt>
      <trkpt lat="44.057" lon="7.44929">
        <ele>2191.1</ele>
        <time>2020-06-27T05:20:33Z</time>
      </trkpt>
      <trkpt lat="44.05698" lon="7.4491">
        <ele>2193.848</ele>
        <time>2020-06-27T05:20:49Z</time>
      </trkpt>
      <trkpt lat="44.05698" lon="7.44909">
        <ele>2193.802</ele>
        <time>2020-06-27T05:21:04Z</time>
      </trkpt>
      <trkpt lat="44.05699" lon="7.44901">
        <ele>2197.664</ele>
        <time>2020-06-27T05:21:20Z</time>
      </trkpt>
      <trkpt lat="44.05697" lon="7.44886">
        <ele>2198.508</ele>
        <time>2020-06-27T05:21:35Z</time>
      </trkpt>
      <trkpt lat="44.05701" lon="7.44862">
        <ele>2196.653</ele>
        <time>2020-06-27T05:21:51Z</time>
      </trkpt>
      <trkpt lat="44.05704" lon="7.44841">
        <ele>2197.005</ele>
        <time>2020-06-27T05:22:07Z</time>
      </trkpt>
      <trkpt lat="44.05705" lon="7.44828">
        <ele>2202.089</ele>
        <time>2020-06-27T05:22:23Z</time>
      </trkpt>
      <trkpt lat="44.05703" lon="7.44813">
        <ele>2203.234</ele>
        <time>2020-06-27T05:22:38Z</time>
      </trkpt>
      <trkpt lat="44.05703" lon="7.44796">
        <ele>2201.126</ele>
        <time>2020-06-27T05:22:54Z</time>
      </trkpt>
      <trkpt lat="44.05702" lon="7.44779">
        <ele>2202.651</ele>
        <time>2020-06-27T05:23:10Z</time>
      </trkpt>
      <trkpt lat="44.05699" lon="7.44763">
        <ele>2203.739</ele>
        <time>2020-06-27T05:23:25Z</time>
      </trkpt>
      <trkpt lat="44.05704" lon="7.44744">
        <ele>2206.163</ele>
        <time>2020-06-27T05:23:40Z</time>
      </trkpt>
      <trkpt lat="44.05707" lon="7.44727">
        <ele>2206.821</ele>
        <time>2020-06-27T05:23:56Z</time>
      </trkpt>
      <trkpt lat="44.05706" lon="7.44704">
        <ele>2212.585</ele>
        <time>2020-06-27T05:24:12Z</time>
      </trkpt>
      <trkpt lat="44.05708" lon="7.44682">
        <ele>2214.157</ele>
        <time>2020-06-27T05:24:27Z</time>
      </trkpt>
      <trkpt lat="44.05711" lon="7.4466">
        <ele>2215.789</ele>
        <time>2020-06-27T05:24:43Z</time>
      </trkpt>
      <trkpt lat="44.0571" lon="7.44632">
        <ele>2217.43</ele>
        <time>2020-06-27T05:24:59Z</time>
      </trkpt>
      <trkpt lat="44.05721" lon="7.44614">
        <ele>2217.546</ele>
        <time>2020-06-27T05:25:14Z</time>
      </trkpt>
      <trkpt lat="44.05725" lon="7.44586">
        <ele>2213.538</ele>
        <time>2020-06-27T05:25:30Z</time>
      </trkpt>
      <trkpt lat="44.05738" lon="7.44572">
        <ele>2211.284</ele>
        <time>2020-06-27T05:25:46Z</time>
      </trkpt>
      <trkpt lat="44.05743" lon="7.44549">
        <ele>2211.932</ele>
        <time>2020-06-27T05:26:01Z</time>
      </trkpt>
      <trkpt lat="44.05746" lon="7.4453">
        <ele>2212.071</ele>
        <time>2020-06-27T05:26:16Z</time>
      </trkpt>
      <trkpt lat="44.05751" lon="7.44507">
        <ele>2214.099</ele>
        <time>2020-06-27T05:26:32Z</time>
      </trkpt>
      <trkpt lat="44.05761" lon="7.44487">
        <ele>2215.489</ele>
        <time>2020-06-27T05:26:48Z</time>
      </trkpt>
      <trkpt lat="44.05764" lon="7.44467">
        <ele>2217.122</ele>
        <time>2020-06-27T05:27:03Z</time>
      </trkpt>
      <trkpt lat="44.05775" lon="7.44451">
        <ele>2220.537</ele>
        <time>2020-06-27T05:27:19Z</time>
      </trkpt>
      <trkpt lat="44.05783" lon="7.44425">
        <ele>2217.879</ele>
        <time>2020-06-27T05:27:35Z</time>
      </trkpt>
      <trkpt lat="44.05788" lon="7.44406">
        <ele>2215.694</ele>
        <time>2020-06-27T05:27:50Z</time>
      </trkpt>
      <trkpt lat="44.05797" lon="7.44383">
        <ele>2214.799</ele>
        <time>2020-06-27T05:28:06Z</time>
      </trkpt>
      <trkpt lat="44.05802" lon="7.44363">
        <ele>2216.185</ele>
        <time>2020-06-27T05:28:21Z</time>
      </trkpt>
      <trkpt lat="44.05803" lon="7.44336">
        <ele>2215.858</ele>
        <time>2020-06-27T05:28:37Z</time>
      </trkpt>
      <trkpt lat="44.05813" lon="7.44324">
        <ele>2215.662</ele>
        <time>2020-06-27T05:28:53Z</time>
      </trkpt>
      <trkpt lat="44.05824" lon="7.44308">
        <ele>2216.614</ele>
        <time>2020-06-27T05:29:08Z</time>
      </trkpt>
      <trkpt lat="44.05838" lon="7.44295">
        <ele>2216.918</ele>
        <time>2020-06-27T05:29:24Z</time>
      </trkpt>
      <trkpt lat="44.05842" lon="7.4429">
        <ele>2216.301</ele>
        <time>2020-06-27T05:29:39Z</time>
      </trkpt>
      <trkpt lat="44.05851" lon="7.44281">
        <ele>2219.835</ele>
        <time>2020-06-27T05:29:54Z</time>
      </trkpt>
      <trkpt lat="44.05856" lon="7.4427">
        <ele>2221.316</ele>
        <time>2020-06-27T05:30:10Z</time>
      </trkpt>
      <trkpt lat="44.05867" lon="7.44253">
        <ele>2221.103</ele>
        <time>2020-06-27T05:30:26Z</time>
      </trkpt>
      <trkpt lat="44.0588" lon="7.44244">
        <ele>2224.506</ele>
        <time>2020-06-27T05:30:41Z</time>
      </trkpt>
      <trkpt lat="44.05895" lon="7.44243">
        <ele>2226.338</ele>
        <time>2020-06-27T05:30:57Z</time>
      </trkpt>
      <trkpt lat="44.05908" lon="7.44247">
        <ele>2227.262</ele>
        <time>2020-06-27T05:31:13Z</time>
      </trkpt>
      <trkpt lat="44.05922" lon="7.44258">
        <ele>2229.12</ele>
        <time>2020-06-27T05:31:29Z</time>
      </trkpt>
      <trkpt lat="44.05934" lon="7.44273">
        <ele>2225.318</ele>
        <time>2020-06-27T05:31:44Z</time>
      </trkpt>
      <trkpt lat="44.05942" lon="7.4428">
        <ele>2222.925</ele>
        <time>2020-06-27T05:32:00Z</time>
      </trkpt>
      <trkpt lat="44.05957" lon="7.44279">
        <ele>2223.427</ele>
        <time>2020-06-27T05:32:15Z</time>
      </trkpt>
      <trkpt lat="44.05967" lon="7.44275">
        <ele>2226.529</ele>
        <time>2020-06-27T05:32:31Z</time>
      </trkpt>
      <trkpt lat="44.05987" lon="7.44272">
        <ele>2226.532</ele>
        <time>2020-06-27T05:32:46Z</time>
      </trkpt>
      <trkpt lat="44.05999" lon="7.44271">
        <ele>2224.745</ele>
        <time>2020-06-27T05:33:01Z</time>
      </trkpt>
      <trkpt lat="44.06003" lon="7.44269">
        <ele>2224.375</ele>
        <time>2020-06-27T05:33:17Z</time>
      </trkpt>
      <trkpt lat="44.06017" lon="7.44285">
        <ele>2221.76</ele>
        <time>2020-06-27T05:33:33Z</time>
      </trkpt>
      <trkpt lat="44.06021" lon="7.44305">
        <ele>2218.728</ele>
        <time>2020-06-27T05:33:48Z</time>
      </trkpt>
      <trkpt lat="44.06032" lon="7.4432">
        <ele>2218.021</ele>
        <time>2020-06-27T05:34:04Z</time>
      </trkpt>
      <trkpt lat="44.0605" lon="7.44314">
        <ele>2217.606</ele>
        <time>2020-06-27T05:34:20Z</time>
      </trkpt>
      <trkpt lat="44.06072" lon="7.44322">
        <ele>2221.576</ele>
        <time>2020-06-27T05:34:36Z</time>
      </trkpt>
      <trkpt lat="44.06076" lon="7.44323">
        <ele>2225.427</ele>
        <time>2020-06-27T05:34:51Z</time>
      </trkpt>
      <trkpt lat="44.06083" lon="7.44321">
        <ele>2227.808</ele>
        <time>2020-06-27T05:35:06Z</time>
      </trkpt>
      <trkpt lat="44.06095" lon="7.4432">
        <ele>2230.263</ele>
        <time>2020-06-27T05:35:22Z</time>
      </trkpt>
      <trkpt lat="44.06101" lon="7.44318">
        <ele>2229.92</ele>
        <time>2020-06-27T05:35:37Z</time>
      </trkpt>
      <trkpt lat="44.06113" lon="7.44318">
        <ele>2232.013</ele>
        <time>2020-06-27T05:35:53Z</time>
      </trkpt>
      <trkpt lat="44.0612" lon="7.44312">
        <ele>2233.104</ele>
        <time>2020-06-27T05:36:08Z</time>
      </trkpt>
      <trkpt lat="44.06129" lon="7.4431">
        <ele>2234.873</ele>
        <time>2020-06-27T05:36:24Z</time>
      </trkpt>
      <trkpt lat="44.06137" lon="7.44308">
        <ele>2238.399</ele>
        <time>2020-06-27T05:36:40Z</time>
      </trkpt>
      <trkpt lat="44.06151" lon="7.44316">
        <ele>2238.131</ele>
        <time>2020-06-27T05:36:55Z</time>
      </trkpt>
      <trkpt lat="44.06158" lon="7.44326">
        <ele>2243.885</ele>
        <time>2020-06-27T05:37:11Z</time>
      </trkpt>
      <trkpt lat="44.06153" lon="7.44319">
        <ele>2245.637</ele>
        <time>2020-06-27T05:37:26Z</time>
      </trkpt>
      <trkpt lat="44.06155" lon="7.44309">
        <ele>2249.576</ele>
        <time>2020-06-27T05:37:42Z</time>
      </trkpt>
      <trkpt lat="44.06156" lon="7.44302">
        <ele>2253.726</ele>
        <time>2020-06-27T05:37:57Z</time>
      </trkpt>
      <trkpt lat="44.06159" lon="7.44305">
        <ele>2259.676</ele>
        <time>2020-06-27T05:38:13Z</time>
      </trkpt>
      <trkpt lat="44.06164" lon="7.44318">
        <ele>2260.619</ele>
        <time>2020-06-27T05:38:28Z</time>
      </trkpt>
      <trkpt lat="44.06179" lon="7.44316">
        <ele>2261.927</ele>
        <time>2020-06-27T05:38:44Z</time>
      </trkpt>
      <trkpt lat="44.06189" lon="7.44315">
        <ele>2266.883</ele>
        <time>2020-06-27T05:39:00Z</time>
      </trkpt>
      <trkpt lat="44.06198" lon="7.44305">
        <ele>2270.022</ele>
        <time>2020-06-27T05:39:15Z</time>
      </trkpt>
      <trkpt lat="44.06208" lon="7.44294">
        <ele>2269.038</ele>
        <time>2020-06-27T05:39:31Z</time>
      </trkpt>
      <trkpt lat="44.06216" lon="7.44281">
        <ele>2269.272</ele>
        <time>2020-06-27T05:39:46Z</time>
      </trkpt>
      <trkpt lat="44.0622" lon="7.44273">
        <ele>2271.794</ele>
        <time>2020-06-27T05:40:02Z</time>
      </trkpt>
      <trkpt lat="44.06233" lon="7.4426">
        <ele>2271.094</ele>
        <time>2020-06-27T05:40:18Z</time>
      </trkpt>
      <trkpt lat="44.06248" lon="7.44256">
        <ele>2270.891</ele>
        <time>2020-06-27T05:40:33Z</time>
      </trkpt>
      <trkpt lat="44.0625" lon="7.4426">
        <ele>2263.53</ele>
        <time>2020-06-27T05:40:49Z</time>
      </trkpt>
      <trkpt lat="44.0625" lon="7.4426">
        <ele>2263.53</ele>
        <time>2020-06-27T05:41:05Z</time>
      </trkpt>
      <trkpt lat="44.06248" lon="7.44262">
        <ele>2263.449</ele>
        <time>2020-06-27T05:41:21Z</time>
      </trkpt>
      <trkpt lat="44.06251" lon="7.44266">
        <ele>2263.549</ele>
        <time>2020-06-27T05:41:37Z</time>
      </trkpt>
      <trkpt lat="44.06258" lon="7.4428">
        <ele>2265.303</ele>
        <time>2020-06-27T05:41:53Z</time>
      </trkpt>
      <trkpt lat="44.06268" lon="7.44288">
        <ele>2264.265</ele>
        <time>2020-06-27T05:42:09Z</time>
      </trkpt>
      <trkpt lat="44.06277" lon="7.44292">
        <ele>2264.331</ele>
        <time>2020-06-27T05:42:24Z</time>
      </trkpt>
      <trkpt lat="44.0629" lon="7.44295">
        <ele>2266.647</ele>
        <time>2020-06-27T05:42:40Z</time>
      </trkpt>
      <trkpt lat="44.06302" lon="7.44296">
        <ele>2268.368</ele>
        <time>2020-06-27T05:42:56Z</time>
      </trkpt>
      <trkpt lat="44.06312" lon="7.44295">
        <ele>2267.138</ele>
        <time>2020-06-27T05:43:11Z</time>
      </trkpt>
      <trkpt lat="44.06318" lon="7.44302">
        <ele>2267.763</ele>
        <time>2020-06-27T05:43:27Z</time>
      </trkpt>
      <trkpt lat="44.06319" lon="7.44319">
        <ele>2268.936</ele>
        <time>2020-06-27T05:43:42Z</time>
      </trkpt>
      <trkpt lat="44.06335" lon="7.44322">
        <ele>2271.784</ele>
        <time>2020-06-27T05:43:58Z</time>
      </trkpt>
      <trkpt lat="44.0635" lon="7.44321">
        <ele>2271.915</ele>
        <time>2020-06-27T05:44:13Z</time>
      </trkpt>
      <trkpt lat="44.06361" lon="7.44314">
        <ele>2274.076</ele>
        <time>2020-06-27T05:44:28Z</time>
      </trkpt>
      <trkpt lat="44.06373" lon="7.44322">
        <ele>2273.674</ele>
        <time>2020-06-27T05:44:44Z</time>
      </trkpt>
      <trkpt lat="44.06374" lon="7.44318">
        <ele>2277.146</ele>
        <time>2020-06-27T05:44:59Z</time>
      </trkpt>
      <trkpt lat="44.06391" lon="7.44324">
        <ele>2283.47</ele>
        <time>2020-06-27T05:45:15Z</time>
      </trkpt>
      <trkpt lat="44.06393" lon="7.4434">
        <ele>2286.763</ele>
        <time>2020-06-27T05:45:31Z</time>
      </trkpt>
      <trkpt lat="44.06385" lon="7.44343">
        <ele>2288.222</ele>
        <time>2020-06-27T05:45:47Z</time>
      </trkpt>
      <trkpt lat="44.06389" lon="7.44333">
        <ele>2294.037</ele>
        <time>2020-06-27T05:46:03Z</time>
      </trkpt>
      <trkpt lat="44.06397" lon="7.4433">
        <ele>2289.77</ele>
        <time>2020-06-27T05:46:18Z</time>
      </trkpt>
      <trkpt lat="44.06404" lon="7.44331">
        <ele>2288.482</ele>
        <time>2020-06-27T05:46:34Z</time>
      </trkpt>
      <trkpt lat="44.06404" lon="7.44341">
        <ele>2292.552</ele>
        <time>2020-06-27T05:46:49Z</time>
      </trkpt>
      <trkpt lat="44.06405" lon="7.44342">
        <ele>2292.701</ele>
        <time>2020-06-27T05:47:05Z</time>
      </trkpt>
      <trkpt lat="44.06393" lon="7.44324">
        <ele>2284.714</ele>
        <time>2020-06-27T05:47:20Z</time>
      </trkpt>
      <trkpt lat="44.06397" lon="7.44327">
        <ele>2282.455</ele>
        <time>2020-06-27T05:47:35Z</time>
      </trkpt>
      <trkpt lat="44.06399" lon="7.44325">
        <ele>2282.58</ele>
        <time>2020-06-27T05:47:51Z</time>
      </trkpt>
      <trkpt lat="44.06416" lon="7.44319">
        <ele>2281.136</ele>
        <time>2020-06-27T05:48:07Z</time>
      </trkpt>
      <trkpt lat="44.06416" lon="7.44319">
        <ele>2281.136</ele>
        <time>2020-06-27T05:48:23Z</time>
      </trkpt>
      <trkpt lat="44.06409" lon="7.44311">
        <ele>2281.158</ele>
        <time>2020-06-27T05:48:38Z</time>
      </trkpt>
      <trkpt lat="44.06409" lon="7.44307">
        <ele>2278.56</ele>
        <time>2020-06-27T05:48:53Z</time>
      </trkpt>
      <trkpt lat="44.06414" lon="7.44308">
        <ele>2276.55</ele>
        <time>2020-06-27T05:49:08Z</time>
      </trkpt>
      <trkpt lat="44.06416" lon="7.44308">
        <ele>2275.484</ele>
        <time>2020-06-27T05:49:24Z</time>
      </trkpt>
      <trkpt lat="44.06412" lon="7.44306">
        <ele>2274.637</ele>
        <time>2020-06-27T05:49:40Z</time>
      </trkpt>
      <trkpt lat="44.06415" lon="7.44305">
        <ele>2275.224</ele>
        <time>2020-06-27T05:49:55Z</time>
      </trkpt>
      <trkpt lat="44.06425" lon="7.44297">
        <ele>2277.927</ele>
        <time>2020-06-27T05:50:11Z</time>
      </trkpt>
      <trkpt lat="44.06436" lon="7.44293">
        <ele>2277.114</ele>
        <time>2020-06-27T05:50:27Z</time>
      </trkpt>
      <trkpt lat="44.06464" lon="7.44294">
        <ele>2282.398</ele>
        <time>2020-06-27T05:50:43Z</time>
      </trkpt>
      <trkpt lat="44.0647" lon="7.44283">
        <ele>2279.84</ele>
        <time>2020-06-27T05:50:59Z</time>
      </trkpt>
      <trkpt lat="44.06462" lon="7.44281">
        <ele>2277.473</ele>
        <time>2020-06-27T05:51:15Z</time>
      </trkpt>
      <trkpt lat="44.06469" lon="7.44264">
        <ele>2276.232</ele>
        <time>2020-06-27T05:51:31Z</time>
      </trkpt>
      <trkpt lat="44.06479" lon="7.44252">
        <ele>2277.202</ele>
        <time>2020-06-27T05:51:47Z</time>
      </trkpt>
      <trkpt lat="44.06483" lon="7.44232">
        <ele>2273.716</ele>
        <time>2020-06-27T05:52:03Z</time>
      </trkpt>
      <trkpt lat="44.06496" lon="7.44217">
        <ele>2278.443</ele>
        <time>2020-06-27T05:52:19Z</time>
      </trkpt>
      <trkpt lat="44.06509" lon="7.44209">
        <ele>2280.476</ele>
        <time>2020-06-27T05:52:34Z</time>
      </trkpt>
      <trkpt lat="44.06522" lon="7.44199">
        <ele>2284.334</ele>
        <time>2020-06-27T05:52:49Z</time>
      </trkpt>
      <trkpt lat="44.06535" lon="7.44192">
        <ele>2285.847</ele>
        <time>2020-06-27T05:53:05Z</time>
      </trkpt>
      <trkpt lat="44.06545" lon="7.44187">
        <ele>2284.623</ele>
        <time>2020-06-27T05:53:21Z</time>
      </trkpt>
      <trkpt lat="44.06551" lon="7.44189">
        <ele>2286.934</ele>
        <time>2020-06-27T05:53:36Z</time>
      </trkpt>
      <trkpt lat="44.06555" lon="7.44191">
        <ele>2292.754</ele>
        <time>2020-06-27T05:53:52Z</time>
      </trkpt>
      <trkpt lat="44.06564" lon="7.44195">
        <ele>2292.318</ele>
        <time>2020-06-27T05:54:07Z</time>
      </trkpt>
      <trkpt lat="44.06571" lon="7.44205">
        <ele>2289.572</ele>
        <time>2020-06-27T05:54:23Z</time>
      </trkpt>
      <trkpt lat="44.06585" lon="7.44214">
        <ele>2293.016</ele>
        <time>2020-06-27T05:54:38Z</time>
      </trkpt>
      <trkpt lat="44.06585" lon="7.44214">
        <ele>2293.684</ele>
        <time>2020-06-27T05:54:54Z</time>
      </trkpt>
      <trkpt lat="44.06584" lon="7.44215">
        <ele>2294.892</ele>
        <time>2020-06-27T05:55:10Z</time>
      </trkpt>
      <trkpt lat="44.06583" lon="7.44223">
        <ele>2296.785</ele>
        <time>2020-06-27T05:55:25Z</time>
      </trkpt>
      <trkpt lat="44.06587" lon="7.44239">
        <ele>2293.672</ele>
        <time>2020-06-27T05:55:41Z</time>
      </trkpt>
      <trkpt lat="44.06592" lon="7.44247">
        <ele>2292.788</ele>
        <time>2020-06-27T05:55:57Z</time>
      </trkpt>
      <trkpt lat="44.06595" lon="7.4426">
        <ele>2294.596</ele>
        <time>2020-06-27T05:56:13Z</time>
      </trkpt>
      <trkpt lat="44.06594" lon="7.44263">
        <ele>2294.112</ele>
        <time>2020-06-27T05:56:29Z</time>
      </trkpt>
      <trkpt lat="44.06595" lon="7.44265">
        <ele>2293.664</ele>
        <time>2020-06-27T05:56:44Z</time>
      </trkpt>
      <trkpt lat="44.06591" lon="7.44279">
        <ele>2292.806</ele>
        <time>2020-06-27T05:57:00Z</time>
      </trkpt>
      <trkpt lat="44.06588" lon="7.44285">
        <ele>2291.076</ele>
        <time>2020-06-27T05:57:15Z</time>
      </trkpt>
      <trkpt lat="44.06591" lon="7.44284">
        <ele>2293.814</ele>
        <time>2020-06-27T05:57:31Z</time>
      </trkpt>
      <trkpt lat="44.06591" lon="7.44284">
        <ele>2293.814</ele>
        <time>2020-06-27T05:57:46Z</time>
      </trkpt>
      <trkpt lat="44.0659" lon="7.44286">
        <ele>2292.93</ele>
        <time>2020-06-27T05:58:02Z</time>
      </trkpt>
      <trkpt lat="44.06593" lon="7.44289">
        <ele>2293.984</ele>
        <time>2020-06-27T05:58:17Z</time>
      </trkpt>
      <trkpt lat="44.06592" lon="7.44289">
        <ele>2296.581</ele>
        <time>2020-06-27T05:58:33Z</time>
      </trkpt>
      <trkpt lat="44.06596" lon="7.44283">
        <ele>2296.232</ele>
        <time>2020-06-27T05:58:48Z</time>
      </trkpt>
      <trkpt lat="44.06602" lon="7.4427">
        <ele>2300.845</ele>
        <time>2020-06-27T05:59:04Z</time>
      </trkpt>
      <trkpt lat="44.06613" lon="7.44259">
        <ele>2305.214</ele>
        <time>2020-06-27T05:59:19Z</time>
      </trkpt>
      <trkpt lat="44.06621" lon="7.44248">
        <ele>2302.255</ele>
        <time>2020-06-27T05:59:35Z</time>
      </trkpt>
      <trkpt lat="44.0662" lon="7.44249">
        <ele>2300.233</ele>
        <time>2020-06-27T05:59:50Z</time>
      </trkpt>
      <trkpt lat="44.06627" lon="7.44249">
        <ele>2305.797</ele>
        <time>2020-06-27T06:00:06Z</time>
      </trkpt>
      <trkpt lat="44.06633" lon="7.44244">
        <ele>2305.192</ele>
        <time>2020-06-27T06:00:22Z</time>
      </trkpt>
      <trkpt lat="44.06635" lon="7.44242">
        <ele>2305.684</ele>
        <time>2020-06-27T06:00:37Z</time>
      </trkpt>
      <trkpt lat="44.06639" lon="7.44241">
        <ele>2307.549</ele>
        <time>2020-06-27T06:00:53Z</time>
      </trkpt>
      <trkpt lat="44.06646" lon="7.44242">
        <ele>2312.484</ele>
        <time>2020-06-27T06:01:09Z</time>
      </trkpt>
      <trkpt lat="44.06647" lon="7.4424">
        <ele>2311.833</ele>
        <time>2020-06-27T06:01:24Z</time>
      </trkpt>
      <trkpt lat="44.0665" lon="7.44241">
        <ele>2317.96</ele>
        <time>2020-06-27T06:01:40Z</time>
      </trkpt>
      <trkpt lat="44.06655" lon="7.44237">
        <ele>2318.147</ele>
        <time>2020-06-27T06:01:56Z</time>
      </trkpt>
      <trkpt lat="44.06664" lon="7.44235">
        <ele>2321.63</ele>
        <time>2020-06-27T06:02:12Z</time>
      </trkpt>
      <trkpt lat="44.06671" lon="7.44228">
        <ele>2322.806</ele>
        <time>2020-06-27T06:02:27Z</time>
      </trkpt>
      <trkpt lat="44.06674" lon="7.44225">
        <ele>2321.543</ele>
        <time>2020-06-27T06:02:43Z</time>
      </trkpt>
      <trkpt lat="44.06674" lon="7.44225">
        <ele>2321.543</ele>
        <time>2020-06-27T06:02:58Z</time>
      </trkpt>
      <trkpt lat="44.06679" lon="7.44218">
        <ele>2319.963</ele>
        <time>2020-06-27T06:03:14Z</time>
      </trkpt>
      <trkpt lat="44.06684" lon="7.44204">
        <ele>2336.048</ele>
        <time>2020-06-27T06:03:29Z</time>
      </trkpt>
      <trkpt lat="44.06696" lon="7.44194">
        <ele>2342.793</ele>
        <time>2020-06-27T06:03:45Z</time>
      </trkpt>
      <trkpt lat="44.067" lon="7.44195">
        <ele>2348.64</ele>
        <time>2020-06-27T06:04:01Z</time>
      </trkpt>
      <trkpt lat="44.06708" lon="7.44191">
        <ele>2353.056</ele>
        <time>2020-06-27T06:04:17Z</time>
      </trkpt>
      <trkpt lat="44.06719" lon="7.44183">
        <ele>2355.459</ele>
        <time>2020-06-27T06:04:32Z</time>
      </trkpt>
      <trkpt lat="44.06726" lon="7.44179">
        <ele>2354.656</ele>
        <time>2020-06-27T06:04:48Z</time>
      </trkpt>
      <trkpt lat="44.06732" lon="7.44174">
        <ele>2355.862</ele>
        <time>2020-06-27T06:05:03Z</time>
      </trkpt>
      <trkpt lat="44.0674" lon="7.44171">
        <ele>2357.393</ele>
        <time>2020-06-27T06:05:19Z</time>
      </trkpt>
      <trkpt lat="44.06749" lon="7.44167">
        <ele>2363.967</ele>
        <time>2020-06-27T06:05:34Z</time>
      </trkpt>
      <trkpt lat="44.06756" lon="7.44162">
        <ele>2366.706</ele>
        <time>2020-06-27T06:05:50Z</time>
      </trkpt>
      <trkpt lat="44.06766" lon="7.4417">
        <ele>2365.714</ele>
        <time>2020-06-27T06:06:05Z</time>
      </trkpt>
      <trkpt lat="44.06777" lon="7.44169">
        <ele>2364.846</ele>
        <time>2020-06-27T06:06:21Z</time>
      </trkpt>
      <trkpt lat="44.06778" lon="7.44168">
        <ele>2365.135</ele>
        <time>2020-06-27T06:06:37Z</time>
      </trkpt>
      <trkpt lat="44.06777" lon="7.4417">
        <ele>2362.833</ele>
        <time>2020-06-27T06:06:53Z</time>
      </trkpt>
      <trkpt lat="44.0678" lon="7.44174">
        <ele>2360.944</ele>
        <time>2020-06-27T06:07:09Z</time>
      </trkpt>
      <trkpt lat="44.06786" lon="7.44167">
        <ele>2361.973</ele>
        <time>2020-06-27T06:07:25Z</time>
      </trkpt>
      <trkpt lat="44.06796" lon="7.44158">
        <ele>2363.584</ele>
        <time>2020-06-27T06:07:40Z</time>
      </trkpt>
      <trkpt lat="44.06808" lon="7.44154">
        <ele>2362.632</ele>
        <time>2020-06-27T06:07:55Z</time>
      </trkpt>
      <trkpt lat="44.06809" lon="7.44154">
        <ele>2362.157</ele>
        <time>2020-06-27T06:08:11Z</time>
      </trkpt>
      <trkpt lat="44.06811" lon="7.44159">
        <ele>2362.282</ele>
        <time>2020-06-27T06:08:26Z</time>
      </trkpt>
      <trkpt lat="44.06811" lon="7.4416">
        <ele>2362.587</ele>
        <time>2020-06-27T06:08:41Z</time>
      </trkpt>
      <trkpt lat="44.06827" lon="7.44161">
        <ele>2360.239</ele>
        <time>2020-06-27T06:08:56Z</time>
      </trkpt>
      <trkpt lat="44.06839" lon="7.44167">
        <ele>2357.03</ele>
        <time>2020-06-27T06:09:11Z</time>
      </trkpt>
      <trkpt lat="44.06851" lon="7.44169">
        <ele>2356.391</ele>
        <time>2020-06-27T06:09:27Z</time>
      </trkpt>
      <trkpt lat="44.06862" lon="7.44173">
        <ele>2358.392</ele>
        <time>2020-06-27T06:09:42Z</time>
      </trkpt>
      <trkpt lat="44.06866" lon="7.44174">
        <ele>2357.875</ele>
        <time>2020-06-27T06:09:57Z</time>
      </trkpt>
      <trkpt lat="44.06866" lon="7.44174">
        <ele>2357.875</ele>
        <time>2020-06-27T06:10:13Z</time>
      </trkpt>
      <trkpt lat="44.06879" lon="7.4417">
        <ele>2360.344</ele>
        <time>2020-06-27T06:10:29Z</time>
      </trkpt>
      <trkpt lat="44.06897" lon="7.44173">
        <ele>2359.683</ele>
        <time>2020-06-27T06:10:45Z</time>
      </trkpt>
      <trkpt lat="44.06911" lon="7.4417">
        <ele>2359.659</ele>
        <time>2020-06-27T06:11:00Z</time>
      </trkpt>
      <trkpt lat="44.06917" lon="7.44146">
        <ele>2365.181</ele>
        <time>2020-06-27T06:11:16Z</time>
      </trkpt>
      <trkpt lat="44.06933" lon="7.44132">
        <ele>2364.697</ele>
        <time>2020-06-27T06:11:32Z</time>
      </trkpt>
      <trkpt lat="44.06947" lon="7.44126">
        <ele>2365.172</ele>
        <time>2020-06-27T06:11:47Z</time>
      </trkpt>
      <trkpt lat="44.0696" lon="7.44114">
        <ele>2367.354</ele>
        <time>2020-06-27T06:12:03Z</time>
      </trkpt>
      <trkpt lat="44.06965" lon="7.44112">
        <ele>2367.853</ele>
        <time>2020-06-27T06:12:18Z</time>
      </trkpt>
      <trkpt lat="44.06974" lon="7.44111">
        <ele>2367.055</ele>
        <time>2020-06-27T06:12:33Z</time>
      </trkpt>
      <trkpt lat="44.0698" lon="7.44093">
        <ele>2367.23</ele>
        <time>2020-06-27T06:12:49Z</time>
      </trkpt>
      <trkpt lat="44.06988" lon="7.44089">
        <ele>2368.929</ele>
        <time>2020-06-27T06:13:05Z</time>
      </trkpt>
      <trkpt lat="44.06998" lon="7.44086">
        <ele>2368.289</ele>
        <time>2020-06-27T06:13:21Z</time>
      </trkpt>
      <trkpt lat="44.07009" lon="7.44082">
        <ele>2368.76</ele>
        <time>2020-06-27T06:13:36Z</time>
      </trkpt>
      <trkpt lat="44.07015" lon="7.44076">
        <ele>2366.385</ele>
        <time>2020-06-27T06:13:51Z</time>
      </trkpt>
      <trkpt lat="44.07021" lon="7.44069">
        <ele>2367.35</ele>
        <time>2020-06-27T06:14:06Z</time>
      </trkpt>
      <trkpt lat="44.07021" lon="7.44069">
        <ele>2367.35</ele>
        <time>2020-06-27T06:14:22Z</time>
      </trkpt>
      <trkpt lat="44.07028" lon="7.44057">
        <ele>2372.064</ele>
        <time>2020-06-27T06:14:37Z</time>
      </trkpt>
      <trkpt lat="44.07038" lon="7.44056">
        <ele>2367.25</ele>
        <time>2020-06-27T06:14:53Z</time>
      </trkpt>
      <trkpt lat="44.07055" lon="7.44059">
        <ele>2360.818</ele>
        <time>2020-06-27T06:15:08Z</time>
      </trkpt>
      <trkpt lat="44.07063" lon="7.44057">
        <ele>2356.295</ele>
        <time>2020-06-27T06:15:24Z</time>
      </trkpt>
      <trkpt lat="44.07077" lon="7.44053">
        <ele>2355.347</ele>
        <time>2020-06-27T06:15:39Z</time>
      </trkpt>
      <trkpt lat="44.07085" lon="7.44047">
        <ele>2356.939</ele>
        <time>2020-06-27T06:15:55Z</time>
      </trkpt>
      <trkpt lat="44.07092" lon="7.44036">
        <ele>2359.14</ele>
        <time>2020-06-27T06:16:11Z</time>
      </trkpt>
      <trkpt lat="44.07092" lon="7.44034">
        <ele>2359.187</ele>
        <time>2020-06-27T06:16:27Z</time>
      </trkpt>
      <trkpt lat="44.07091" lon="7.44033">
        <ele>2356.31</ele>
        <time>2020-06-27T06:16:43Z</time>
      </trkpt>
      <trkpt lat="44.07106" lon="7.44032">
        <ele>2358.817</ele>
        <time>2020-06-27T06:16:58Z</time>
      </trkpt>
      <trkpt lat="44.07111" lon="7.44008">
        <ele>2360.513</ele>
        <time>2020-06-27T06:17:14Z</time>
      </trkpt>
      <trkpt lat="44.07125" lon="7.43986">
        <ele>2354.644</ele>
        <time>2020-06-27T06:17:29Z</time>
      </trkpt>
      <trkpt lat="44.07142" lon="7.43977">
        <ele>2347.759</ele>
        <time>2020-06-27T06:17:45Z</time>
      </trkpt>
      <trkpt lat="44.0716" lon="7.43968">
        <ele>2344.376</ele>
        <time>2020-06-27T06:18:01Z</time>
      </trkpt>
      <trkpt lat="44.07181" lon="7.43967">
        <ele>2340.438</ele>
        <time>2020-06-27T06:18:17Z</time>
      </trkpt>
      <trkpt lat="44.0719" lon="7.43968">
        <ele>2340.168</ele>
        <time>2020-06-27T06:18:33Z</time>
      </trkpt>
      <trkpt lat="44.07202" lon="7.43967">
        <ele>2343.769</ele>
        <time>2020-06-27T06:18:49Z</time>
      </trkpt>
      <trkpt lat="44.07213" lon="7.43962">
        <ele>2346.788</ele>
        <time>2020-06-27T06:19:04Z</time>
      </trkpt>
      <trkpt lat="44.07218" lon="7.43963">
        <ele>2353.671</ele>
        <time>2020-06-27T06:19:20Z</time>
      </trkpt>
      <trkpt lat="44.0723" lon="7.43961">
        <ele>2364.479</ele>
        <time>2020-06-27T06:19:36Z</time>
      </trkpt>
      <trkpt lat="44.07243" lon="7.43963">
        <ele>2371.072</ele>
        <time>2020-06-27T06:19:51Z</time>
      </trkpt>
      <trkpt lat="44.07254" lon="7.43979">
        <ele>2372.685</ele>
        <time>2020-06-27T06:20:07Z</time>
      </trkpt>
      <trkpt lat="44.07254" lon="7.43976">
        <ele>2373.837</ele>
        <time>2020-06-27T06:20:23Z</time>
      </trkpt>
      <trkpt lat="44.07258" lon="7.43975">
        <ele>2377.716</ele>
        <time>2020-06-27T06:20:38Z</time>
      </trkpt>
      <trkpt lat="44.07268" lon="7.43968">
        <ele>2378.061</ele>
        <time>2020-06-27T06:20:54Z</time>
      </trkpt>
      <trkpt lat="44.07278" lon="7.43955">
        <ele>2381.862</ele>
        <time>2020-06-27T06:21:10Z</time>
      </trkpt>
      <trkpt lat="44.07291" lon="7.4395">
        <ele>2386.587</ele>
        <time>2020-06-27T06:21:26Z</time>
      </trkpt>
      <trkpt lat="44.07292" lon="7.43952">
        <ele>2387.137</ele>
        <time>2020-06-27T06:21:41Z</time>
      </trkpt>
      <trkpt lat="44.07296" lon="7.43957">
        <ele>2389.524</ele>
        <time>2020-06-27T06:21:57Z</time>
      </trkpt>
      <trkpt lat="44.073" lon="7.43962">
        <ele>2390.022</ele>
        <time>2020-06-27T06:22:13Z</time>
      </trkpt>
      <trkpt lat="44.07302" lon="7.43965">
        <ele>2390.761</ele>
        <time>2020-06-27T06:22:29Z</time>
      </trkpt>
      <trkpt lat="44.07305" lon="7.43965">
        <ele>2392.361</ele>
        <time>2020-06-27T06:22:44Z</time>
      </trkpt>
      <trkpt lat="44.07312" lon="7.43965">
        <ele>2392.319</ele>
        <time>2020-06-27T06:23:00Z</time>
      </trkpt>
      <trkpt lat="44.07322" lon="7.43965">
        <ele>2395.346</ele>
        <time>2020-06-27T06:23:16Z</time>
      </trkpt>
      <trkpt lat="44.07326" lon="7.43961">
        <ele>2394.896</ele>
        <time>2020-06-27T06:23:32Z</time>
      </trkpt>
      <trkpt lat="44.07337" lon="7.43951">
        <ele>2398.468</ele>
        <time>2020-06-27T06:23:48Z</time>
      </trkpt>
      <trkpt lat="44.07343" lon="7.43939">
        <ele>2399.83</ele>
        <time>2020-06-27T06:24:03Z</time>
      </trkpt>
      <trkpt lat="44.07345" lon="7.43929">
        <ele>2398.948</ele>
        <time>2020-06-27T06:24:19Z</time>
      </trkpt>
      <trkpt lat="44.07357" lon="7.43927">
        <ele>2399.531</ele>
        <time>2020-06-27T06:24:34Z</time>
      </trkpt>
      <trkpt lat="44.07358" lon="7.4392">
        <ele>2402.932</ele>
        <time>2020-06-27T06:24:50Z</time>
      </trkpt>
      <trkpt lat="44.07367" lon="7.43928">
        <ele>2403.277</ele>
        <time>2020-06-27T06:25:06Z</time>
      </trkpt>
      <trkpt lat="44.07375" lon="7.43929">
        <ele>2403.048</ele>
        <time>2020-06-27T06:25:22Z</time>
      </trkpt>
      <trkpt lat="44.07377" lon="7.43922">
        <ele>2403.594</ele>
        <time>2020-06-27T06:25:37Z</time>
      </trkpt>
      <trkpt lat="44.07388" lon="7.43915">
        <ele>2406.715</ele>
        <time>2020-06-27T06:25:52Z</time>
      </trkpt>
      <trkpt lat="44.07399" lon="7.43912">
        <ele>2408.211</ele>
        <time>2020-06-27T06:26:08Z</time>
      </trkpt>
      <trkpt lat="44.07404" lon="7.43907">
        <ele>2408.716</ele>
        <time>2020-06-27T06:26:23Z</time>
      </trkpt>
      <trkpt lat="44.07404" lon="7.43907">
        <ele>2409.126</ele>
        <time>2020-06-27T06:26:39Z</time>
      </trkpt>
      <trkpt lat="44.07407" lon="7.43907">
        <ele>2408.232</ele>
        <time>2020-06-27T06:26:55Z</time>
      </trkpt>
      <trkpt lat="44.07409" lon="7.43907">
        <ele>2408.453</ele>
        <time>2020-06-27T06:27:10Z</time>
      </trkpt>
      <trkpt lat="44.07412" lon="7.43897">
        <ele>2409.966</ele>
        <time>2020-06-27T06:27:26Z</time>
      </trkpt>
      <trkpt lat="44.07421" lon="7.4388">
        <ele>2421.433</ele>
        <time>2020-06-27T06:27:42Z</time>
      </trkpt>
      <trkpt lat="44.07431" lon="7.43874">
        <ele>2423.843</ele>
        <time>2020-06-27T06:27:57Z</time>
      </trkpt>
      <trkpt lat="44.07443" lon="7.43853">
        <ele>2430.44</ele>
        <time>2020-06-27T06:28:13Z</time>
      </trkpt>
      <trkpt lat="44.07452" lon="7.43843">
        <ele>2441.095</ele>
        <time>2020-06-27T06:28:28Z</time>
      </trkpt>
      <trkpt lat="44.07466" lon="7.43843">
        <ele>2445.162</ele>
        <time>2020-06-27T06:28:44Z</time>
      </trkpt>
      <trkpt lat="44.07465" lon="7.43842">
        <ele>2445.257</ele>
        <time>2020-06-27T06:28:59Z</time>
      </trkpt>
      <trkpt lat="44.07465" lon="7.43842">
        <ele>2445.257</ele>
        <time>2020-06-27T06:29:15Z</time>
      </trkpt>
      <trkpt lat="44.0747" lon="7.43855">
        <ele>2446.049</ele>
        <time>2020-06-27T06:29:31Z</time>
      </trkpt>
      <trkpt lat="44.0748" lon="7.43851">
        <ele>2442.784</ele>
        <time>2020-06-27T06:29:47Z</time>
      </trkpt>
      <trkpt lat="44.07484" lon="7.43847">
        <ele>2443.031</ele>
        <time>2020-06-27T06:30:02Z</time>
      </trkpt>
      <trkpt lat="44.07491" lon="7.43845">
        <ele>2442.128</ele>
        <time>2020-06-27T06:30:18Z</time>
      </trkpt>
      <trkpt lat="44.07503" lon="7.43846">
        <ele>2438.354</ele>
        <time>2020-06-27T06:30:33Z</time>
      </trkpt>
      <trkpt lat="44.07512" lon="7.43837">
        <ele>2435.551</ele>
        <time>2020-06-27T06:30:49Z</time>
      </trkpt>
      <trkpt lat="44.07523" lon="7.43834">
        <ele>2437.426</ele>
        <time>2020-06-27T06:31:05Z</time>
      </trkpt>
      <trkpt lat="44.07537" lon="7.43836">
        <ele>2436.149</ele>
        <time>2020-06-27T06:31:21Z</time>
      </trkpt>
      <trkpt lat="44.07549" lon="7.43825">
        <ele>2432.002</ele>
        <time>2020-06-27T06:31:36Z</time>
      </trkpt>
      <trkpt lat="44.07557" lon="7.43819">
        <ele>2433.196</ele>
        <time>2020-06-27T06:31:52Z</time>
      </trkpt>
      <trkpt lat="44.07569" lon="7.43814">
        <ele>2433.274</ele>
        <time>2020-06-27T06:32:07Z</time>
      </trkpt>
      <trkpt lat="44.07581" lon="7.4381">
        <ele>2445.623</ele>
        <time>2020-06-27T06:32:22Z</time>
      </trkpt>
      <trkpt lat="44.07593" lon="7.43798">
        <ele>2453.704</ele>
        <time>2020-06-27T06:32:38Z</time>
      </trkpt>
      <trkpt lat="44.07609" lon="7.43807">
        <ele>2448.767</ele>
        <time>2020-06-27T06:32:53Z</time>
      </trkpt>
      <trkpt lat="44.07621" lon="7.43819">
        <ele>2443.971</ele>
        <time>2020-06-27T06:33:09Z</time>
      </trkpt>
      <trkpt lat="44.07634" lon="7.43802">
        <ele>2439.414</ele>
        <time>2020-06-27T06:33:24Z</time>
      </trkpt>
      <trkpt lat="44.07647" lon="7.43785">
        <ele>2439.691</ele>
        <time>2020-06-27T06:33:39Z</time>
      </trkpt>
      <trkpt lat="44.07663" lon="7.43773">
        <ele>2448.067</ele>
        <time>2020-06-27T06:33:55Z</time>
      </trkpt>
      <trkpt lat="44.07679" lon="7.43774">
        <ele>2448.045</ele>
        <time>2020-06-27T06:34:11Z</time>
      </trkpt>
      <trkpt lat="44.07695" lon="7.43765">
        <ele>2450.169</ele>
        <time>2020-06-27T06:34:27Z</time>
      </trkpt>
      <trkpt lat="44.07713" lon="7.4376">
        <ele>2450.376</ele>
        <time>2020-06-27T06:34:43Z</time>
      </trkpt>
      <trkpt lat="44.07726" lon="7.43754">
        <ele>2447.44</ele>
        <time>2020-06-27T06:34:59Z</time>
      </trkpt>
      <trkpt lat="44.07726" lon="7.43754">
        <ele>2447.44</ele>
        <time>2020-06-27T06:35:15Z</time>
      </trkpt>
      <trkpt lat="44.07726" lon="7.43754">
        <ele>2447.44</ele>
        <time>2020-06-27T06:35:31Z</time>
      </trkpt>
      <trkpt lat="44.07727" lon="7.43755">
        <ele>2448.416</ele>
        <time>2020-06-27T06:35:46Z</time>
      </trkpt>
      <trkpt lat="44.07737" lon="7.43746">
        <ele>2445.624</ele>
        <time>2020-06-27T06:36:02Z</time>
      </trkpt>
      <trkpt lat="44.07741" lon="7.4374">
        <ele>2446.893</ele>
        <time>2020-06-27T06:36:18Z</time>
      </trkpt>
      <trkpt lat="44.07745" lon="7.43734">
        <ele>2444.768</ele>
        <time>2020-06-27T06:36:33Z</time>
      </trkpt>
      <trkpt lat="44.07747" lon="7.43732">
        <ele>2444.368</ele>
        <time>2020-06-27T06:36:49Z</time>
      </trkpt>
      <trkpt lat="44.07753" lon="7.4373">
        <ele>2448.879</ele>
        <time>2020-06-27T06:37:05Z</time>
      </trkpt>
      <trkpt lat="44.07758" lon="7.43731">
        <ele>2449.168</ele>
        <time>2020-06-27T06:37:21Z</time>
      </trkpt>
      <trkpt lat="44.07777" lon="7.43734">
        <ele>2446.186</ele>
        <time>2020-06-27T06:37:37Z</time>
      </trkpt>
      <trkpt lat="44.07791" lon="7.43729">
        <ele>2439.698</ele>
        <time>2020-06-27T06:37:53Z</time>
      </trkpt>
      <trkpt lat="44.07803" lon="7.43743">
        <ele>2434.49</ele>
        <time>2020-06-27T06:38:08Z</time>
      </trkpt>
      <trkpt lat="44.07814" lon="7.43754">
        <ele>2431.486</ele>
        <time>2020-06-27T06:38:23Z</time>
      </trkpt>
      <trkpt lat="44.07818" lon="7.43767">
        <ele>2433.337</ele>
        <time>2020-06-27T06:38:39Z</time>
      </trkpt>
      <trkpt lat="44.07823" lon="7.43776">
        <ele>2433.389</ele>
        <time>2020-06-27T06:38:55Z</time>
      </trkpt>
      <trkpt lat="44.07834" lon="7.43788">
        <ele>2432.076</ele>
        <time>2020-06-27T06:39:10Z</time>
      </trkpt>
      <trkpt lat="44.07832" lon="7.43796">
        <ele>2434.376</ele>
        <time>2020-06-27T06:39:25Z</time>
      </trkpt>
      <trkpt lat="44.07837" lon="7.43794">
        <ele>2436.04</ele>
        <time>2020-06-27T06:39:41Z</time>
      </trkpt>
      <trkpt lat="44.07842" lon="7.43794">
        <ele>2438.553</ele>
        <time>2020-06-27T06:39:56Z</time>
      </trkpt>
      <trkpt lat="44.07844" lon="7.43795">
        <ele>2440.007</ele>
        <time>2020-06-27T06:40:11Z</time>
      </trkpt>
      <trkpt lat="44.07842" lon="7.4379">
        <ele>2442.66</ele>
        <time>2020-06-27T06:40:27Z</time>
      </trkpt>
      <trkpt lat="44.07842" lon="7.4378">
        <ele>2443.905</ele>
        <time>2020-06-27T06:40:43Z</time>
      </trkpt>
      <trkpt lat="44.07837" lon="7.43768">
        <ele>2448.368</ele>
        <time>2020-06-27T06:40:58Z</time>
      </trkpt>
      <trkpt lat="44.07832" lon="7.43759">
        <ele>2451.186</ele>
        <time>2020-06-27T06:41:14Z</time>
      </trkpt>
      <trkpt lat="44.07829" lon="7.43748">
        <ele>2454.905</ele>
        <time>2020-06-27T06:41:30Z</time>
      </trkpt>
      <trkpt lat="44.07825" lon="7.43736">
        <ele>2461.959</ele>
        <time>2020-06-27T06:41:45Z</time>
      </trkpt>
      <trkpt lat="44.07825" lon="7.43739">
        <ele>2475.573</ele>
        <time>2020-06-27T06:42:01Z</time>
      </trkpt>
      <trkpt lat="44.07823" lon="7.43726">
        <ele>2477.126</ele>
        <time>2020-06-27T06:42:17Z</time>
      </trkpt>
      <trkpt lat="44.07827" lon="7.43718">
        <ele>2482.757</ele>
        <time>2020-06-27T06:42:32Z</time>
      </trkpt>
      <trkpt lat="44.07832" lon="7.43718">
        <ele>2481.371</ele>
        <time>2020-06-27T06:42:48Z</time>
      </trkpt>
      <trkpt lat="44.07838" lon="7.43728">
        <ele>2481.093</ele>
        <time>2020-06-27T06:43:04Z</time>
      </trkpt>
      <trkpt lat="44.07846" lon="7.43741">
        <ele>2481.648</ele>
        <time>2020-06-27T06:43:19Z</time>
      </trkpt>
      <trkpt lat="44.07855" lon="7.43751">
        <ele>2483.189</ele>
        <time>2020-06-27T06:43:35Z</time>
      </trkpt>
      <trkpt lat="44.07867" lon="7.43756">
        <ele>2483.311</ele>
        <time>2020-06-27T06:43:50Z</time>
      </trkpt>
      <trkpt lat="44.0788" lon="7.43754">
        <ele>2481.116</ele>
        <time>2020-06-27T06:44:06Z</time>
      </trkpt>
      <trkpt lat="44.07874" lon="7.43746">
        <ele>2478.497</ele>
        <time>2020-06-27T06:44:22Z</time>
      </trkpt>
      <trkpt lat="44.07873" lon="7.4374">
        <ele>2477.196</ele>
        <time>2020-06-27T06:44:37Z</time>
      </trkpt>
      <trkpt lat="44.07868" lon="7.43725">
        <ele>2478.144</ele>
        <time>2020-06-27T06:44:53Z</time>
      </trkpt>
      <trkpt lat="44.07869" lon="7.43713">
        <ele>2487.563</ele>
        <time>2020-06-27T06:45:09Z</time>
      </trkpt>
      <trkpt lat="44.07875" lon="7.43718">
        <ele>2494.246</ele>
        <time>2020-06-27T06:45:24Z</time>
      </trkpt>
      <trkpt lat="44.0788" lon="7.4372">
        <ele>2498.359</ele>
        <time>2020-06-27T06:45:40Z</time>
      </trkpt>
      <trkpt lat="44.07885" lon="7.43724">
        <ele>2498.905</ele>
        <time>2020-06-27T06:45:56Z</time>
      </trkpt>
      <trkpt lat="44.07894" lon="7.43729">
        <ele>2497.533</ele>
        <time>2020-06-27T06:46:12Z</time>
      </trkpt>
      <trkpt lat="44.07901" lon="7.43735">
        <ele>2499.484</ele>
        <time>2020-06-27T06:46:28Z</time>
      </trkpt>
      <trkpt lat="44.07912" lon="7.43746">
        <ele>2497.905</ele>
        <time>2020-06-27T06:46:44Z</time>
      </trkpt>
      <trkpt lat="44.07909" lon="7.43739">
        <ele>2501.673</ele>
        <time>2020-06-27T06:46:59Z</time>
      </trkpt>
      <trkpt lat="44.07906" lon="7.43727">
        <ele>2504.737</ele>
        <time>2020-06-27T06:47:15Z</time>
      </trkpt>
      <trkpt lat="44.07904" lon="7.43718">
        <ele>2506.969</ele>
        <time>2020-06-27T06:47:31Z</time>
      </trkpt>
      <trkpt lat="44.07903" lon="7.4371">
        <ele>2507.716</ele>
        <time>2020-06-27T06:47:47Z</time>
      </trkpt>
      <trkpt lat="44.07902" lon="7.43701">
        <ele>2508.22</ele>
        <time>2020-06-27T06:48:03Z</time>
      </trkpt>
      <trkpt lat="44.07904" lon="7.43699">
        <ele>2506.736</ele>
        <time>2020-06-27T06:48:18Z</time>
      </trkpt>
      <trkpt lat="44.07904" lon="7.43699">
        <ele>2506.986</ele>
        <time>2020-06-27T06:48:34Z</time>
      </trkpt>
      <trkpt lat="44.07902" lon="7.43699">
        <ele>2509.279</ele>
        <time>2020-06-27T06:48:49Z</time>
      </trkpt>
      <trkpt lat="44.07901" lon="7.43696">
        <ele>2510.478</ele>
        <time>2020-06-27T06:49:05Z</time>
      </trkpt>
      <trkpt lat="44.079" lon="7.43695">
        <ele>2511.683</ele>
        <time>2020-06-27T06:49:21Z</time>
      </trkpt>
      <trkpt lat="44.079" lon="7.43695">
        <ele>2511.683</ele>
        <time>2020-06-27T06:49:36Z</time>
      </trkpt>
      <trkpt lat="44.07898" lon="7.43695">
        <ele>2513.212</ele>
        <time>2020-06-27T06:49:52Z</time>
      </trkpt>
      <trkpt lat="44.07898" lon="7.43694">
        <ele>2511.346</ele>
        <time>2020-06-27T06:50:07Z</time>
      </trkpt>
      <trkpt lat="44.07902" lon="7.43699">
        <ele>2516.667</ele>
        <time>2020-06-27T06:50:23Z</time>
      </trkpt>
      <trkpt lat="44.07921" lon="7.43707">
        <ele>2517.5</ele>
        <time>2020-06-27T06:50:39Z</time>
      </trkpt>
      <trkpt lat="44.07921" lon="7.43725">
        <ele>2534.097</ele>
        <time>2020-06-27T06:50:54Z</time>
      </trkpt>
      <trkpt lat="44.07925" lon="7.4373">
        <ele>2534.505</ele>
        <time>2020-06-27T06:51:10Z</time>
      </trkpt>
      <trkpt lat="44.07924" lon="7.43739">
        <ele>2535.771</ele>
        <time>2020-06-27T06:51:25Z</time>
      </trkpt>
      <trkpt lat="44.07932" lon="7.4374">
        <ele>2538.13</ele>
        <time>2020-06-27T06:51:41Z</time>
      </trkpt>
      <trkpt lat="44.0794" lon="7.43741">
        <ele>2539.453</ele>
        <time>2020-06-27T06:51:57Z</time>
      </trkpt>
      <trkpt lat="44.0794" lon="7.43741">
        <ele>2539.453</ele>
        <time>2020-06-27T06:52:13Z</time>
      </trkpt>
      <trkpt lat="44.07947" lon="7.43735">
        <ele>2538.947</ele>
        <time>2020-06-27T06:52:29Z</time>
      </trkpt>
      <trkpt lat="44.07954" lon="7.43743">
        <ele>2536.383</ele>
        <time>2020-06-27T06:52:44Z</time>
      </trkpt>
      <trkpt lat="44.07968" lon="7.43753">
        <ele>2540.218</ele>
        <time>2020-06-27T06:53:00Z</time>
      </trkpt>
      <trkpt lat="44.07969" lon="7.43758">
        <ele>2540.836</ele>
        <time>2020-06-27T06:53:15Z</time>
      </trkpt>
      <trkpt lat="44.07981" lon="7.43762">
        <ele>2542.324</ele>
        <time>2020-06-27T06:53:31Z</time>
      </trkpt>
      <trkpt lat="44.07983" lon="7.43771">
        <ele>2542.337</ele>
        <time>2020-06-27T06:53:47Z</time>
      </trkpt>
      <trkpt lat="44.07975" lon="7.43766">
        <ele>2543.395</ele>
        <time>2020-06-27T06:54:03Z</time>
      </trkpt>
      <trkpt lat="44.07978" lon="7.43761">
        <ele>2544.147</ele>
        <time>2020-06-27T06:54:18Z</time>
      </trkpt>
      <trkpt lat="44.07978" lon="7.43754">
        <ele>2543.417</ele>
        <time>2020-06-27T06:54:33Z</time>
      </trkpt>
      <trkpt lat="44.07976" lon="7.43741">
        <ele>2548.625</ele>
        <time>2020-06-27T06:54:49Z</time>
      </trkpt>
      <trkpt lat="44.07978" lon="7.4374">
        <ele>2549.977</ele>
        <time>2020-06-27T06:55:04Z</time>
      </trkpt>
      <trkpt lat="44.07979" lon="7.43734">
        <ele>2554.856</ele>
        <time>2020-06-27T06:55:20Z</time>
      </trkpt>
      <trkpt lat="44.07983" lon="7.43734">
        <ele>2555.11</ele>
        <time>2020-06-27T06:55:36Z</time>
      </trkpt>
      <trkpt lat="44.07982" lon="7.43721">
        <ele>2557.492</ele>
        <time>2020-06-27T06:55:52Z</time>
      </trkpt>
      <trkpt lat="44.07976" lon="7.43715">
        <ele>2561.007</ele>
        <time>2020-06-27T06:56:07Z</time>
      </trkpt>
      <trkpt lat="44.07981" lon="7.43721">
        <ele>2566.959</ele>
        <time>2020-06-27T06:56:23Z</time>
      </trkpt>
      <trkpt lat="44.07982" lon="7.43727">
        <ele>2569.492</ele>
        <time>2020-06-27T06:56:39Z</time>
      </trkpt>
      <trkpt lat="44.07985" lon="7.43728">
        <ele>2570.456</ele>
        <time>2020-06-27T06:56:54Z</time>
      </trkpt>
      <trkpt lat="44.07996" lon="7.43732">
        <ele>2570.292</ele>
        <time>2020-06-27T06:57:10Z</time>
      </trkpt>
      <trkpt lat="44.07997" lon="7.43747">
        <ele>2575.322</ele>
        <time>2020-06-27T06:57:25Z</time>
      </trkpt>
      <trkpt lat="44.07995" lon="7.43761">
        <ele>2582.257</ele>
        <time>2020-06-27T06:57:41Z</time>
      </trkpt>
      <trkpt lat="44.07995" lon="7.43766">
        <ele>2582.983</ele>
        <time>2020-06-27T06:57:57Z</time>
      </trkpt>
      <trkpt lat="44.07998" lon="7.43775">
        <ele>2583.904</ele>
        <time>2020-06-27T06:58:13Z</time>
      </trkpt>
      <trkpt lat="44.08002" lon="7.43781">
        <ele>2585.876</ele>
        <time>2020-06-27T06:58:29Z</time>
      </trkpt>
      <trkpt lat="44.0801" lon="7.43792">
        <ele>2587.127</ele>
        <time>2020-06-27T06:58:44Z</time>
      </trkpt>
      <trkpt lat="44.08016" lon="7.43814">
        <ele>2590.07</ele>
        <time>2020-06-27T06:59:00Z</time>
      </trkpt>
      <trkpt lat="44.08019" lon="7.43822">
        <ele>2589.181</ele>
        <time>2020-06-27T06:59:16Z</time>
      </trkpt>
      <trkpt lat="44.08024" lon="7.4383">
        <ele>2591.302</ele>
        <time>2020-06-27T06:59:31Z</time>
      </trkpt>
      <trkpt lat="44.08027" lon="7.43819">
        <ele>2591.928</ele>
        <time>2020-06-27T06:59:47Z</time>
      </trkpt>
      <trkpt lat="44.08029" lon="7.43824">
        <ele>2590.954</ele>
        <time>2020-06-27T07:00:03Z</time>
      </trkpt>
      <trkpt lat="44.08026" lon="7.43824">
        <ele>2591.921</ele>
        <time>2020-06-27T07:00:18Z</time>
      </trkpt>
      <trkpt lat="44.08026" lon="7.43824">
        <ele>2591.921</ele>
        <time>2020-06-27T07:00:33Z</time>
      </trkpt>
      <trkpt lat="44.08026" lon="7.43823">
        <ele>2592.774</ele>
        <time>2020-06-27T07:00:49Z</time>
      </trkpt>
      <trkpt lat="44.08028" lon="7.43815">
        <ele>2597.05</ele>
        <time>2020-06-27T07:01:05Z</time>
      </trkpt>
      <trkpt lat="44.08028" lon="7.43821">
        <ele>2597.334</ele>
        <time>2020-06-27T07:01:20Z</time>
      </trkpt>
      <trkpt lat="44.08029" lon="7.43829">
        <ele>2598.766</ele>
        <time>2020-06-27T07:01:35Z</time>
      </trkpt>
      <trkpt lat="44.08033" lon="7.43818">
        <ele>2597.851</ele>
        <time>2020-06-27T07:01:50Z</time>
      </trkpt>
      <trkpt lat="44.08034" lon="7.43834">
        <ele>2600.337</ele>
        <time>2020-06-27T07:02:06Z</time>
      </trkpt>
      <trkpt lat="44.0804" lon="7.43842">
        <ele>2598.802</ele>
        <time>2020-06-27T07:02:21Z</time>
      </trkpt>
      <trkpt lat="44.0804" lon="7.43842">
        <ele>2598.802</ele>
        <time>2020-06-27T07:02:37Z</time>
      </trkpt>
      <trkpt lat="44.0804" lon="7.43842">
        <ele>2598.802</ele>
        <time>2020-06-27T07:02:52Z</time>
      </trkpt>
      <trkpt lat="44.08038" lon="7.43832">
        <ele>2602.129</ele>
        <time>2020-06-27T07:03:08Z</time>
      </trkpt>
      <trkpt lat="44.08038" lon="7.43826">
        <ele>2605.456</ele>
        <time>2020-06-27T07:03:24Z</time>
      </trkpt>
      <trkpt lat="44.08039" lon="7.43828">
        <ele>2604.917</ele>
        <time>2020-06-27T07:03:39Z</time>
      </trkpt>
      <trkpt lat="44.08039" lon="7.43828">
        <ele>2604.917</ele>
        <time>2020-06-27T07:03:54Z</time>
      </trkpt>
      <trkpt lat="44.08039" lon="7.43828">
        <ele>2604.917</ele>
        <time>2020-06-27T07:04:10Z</time>
      </trkpt>
      <trkpt lat="44.08039" lon="7.43828">
        <ele>2604.917</ele>
        <time>2020-06-27T07:04:25Z</time>
      </trkpt>
      <trkpt lat="44.08039" lon="7.43828">
        <ele>2604.917</ele>
        <time>2020-06-27T07:04:41Z</time>
      </trkpt>
      <trkpt lat="44.08039" lon="7.43828">
        <ele>2605.729</ele>
        <time>2020-06-27T07:04:57Z</time>
      </trkpt>
      <trkpt lat="44.08046" lon="7.4384">
        <ele>2607.475</ele>
        <time>2020-06-27T07:05:12Z</time>
      </trkpt>
      <trkpt lat="44.08051" lon="7.43848">
        <ele>2608.371</ele>
        <time>2020-06-27T07:05:28Z</time>
      </trkpt>
      <trkpt lat="44.08049" lon="7.43845">
        <ele>2608.319</ele>
        <time>2020-06-27T07:05:43Z</time>
      </trkpt>
      <trkpt lat="44.08048" lon="7.43845">
        <ele>2607.374</ele>
        <time>2020-06-27T07:05:59Z</time>
      </trkpt>
      <trkpt lat="44.08046" lon="7.43845">
        <ele>2607.15</ele>
        <time>2020-06-27T07:06:14Z</time>
      </trkpt>
      <trkpt lat="44.08046" lon="7.43846">
        <ele>2607.267</ele>
        <time>2020-06-27T07:06:30Z</time>
      </trkpt>
      <trkpt lat="44.08046" lon="7.43846">
        <ele>2607.267</ele>
        <time>2020-06-27T07:06:46Z</time>
      </trkpt>
      <trkpt lat="44.08044" lon="7.43846">
        <ele>2604.788</ele>
        <time>2020-06-27T07:07:01Z</time>
      </trkpt>
      <trkpt lat="44.08045" lon="7.43846">
        <ele>2604.921</ele>
        <time>2020-06-27T07:07:17Z</time>
      </trkpt>
      <trkpt lat="44.08045" lon="7.43846">
        <ele>2604.921</ele>
        <time>2020-06-27T07:07:32Z</time>
      </trkpt>
      <trkpt lat="44.08045" lon="7.43846">
        <ele>2604.921</ele>
        <time>2020-06-27T07:07:48Z</time>
      </trkpt>
      <trkpt lat="44.08047" lon="7.43847">
        <ele>2601.814</ele>
        <time>2020-06-27T07:08:03Z</time>
      </trkpt>
      <trkpt lat="44.08047" lon="7.43847">
        <ele>2601.814</ele>
        <time>2020-06-27T07:08:19Z</time>
      </trkpt>
      <trkpt lat="44.0804" lon="7.43843">
        <ele>2601.236</ele>
        <time>2020-06-27T07:08:34Z</time>
      </trkpt>
      <trkpt lat="44.0804" lon="7.43843">
        <ele>2601.236</ele>
        <time>2020-06-27T07:08:50Z</time>
      </trkpt>
      <trkpt lat="44.08039" lon="7.43844">
        <ele>2598.081</ele>
        <time>2020-06-27T07:09:06Z</time>
      </trkpt>
      <trkpt lat="44.08039" lon="7.43844">
        <ele>2598.081</ele>
        <time>2020-06-27T07:09:22Z</time>
      </trkpt>
      <trkpt lat="44.0804" lon="7.43843">
        <ele>2598.492</ele>
        <time>2020-06-27T07:09:37Z</time>
      </trkpt>
      <trkpt lat="44.0804" lon="7.43843">
        <ele>2598.492</ele>
        <time>2020-06-27T07:09:53Z</time>
      </trkpt>
      <trkpt lat="44.0804" lon="7.43843">
        <ele>2598.492</ele>
        <time>2020-06-27T07:10:09Z</time>
      </trkpt>
      <trkpt lat="44.0804" lon="7.43843">
        <ele>2598.492</ele>
        <time>2020-06-27T07:10:25Z</time>
      </trkpt>
      <trkpt lat="44.0804" lon="7.43843">
        <ele>2598.492</ele>
        <time>2020-06-27T07:10:41Z</time>
      </trkpt>
      <trkpt lat="44.08043" lon="7.43844">
        <ele>2599.911</ele>
        <time>2020-06-27T07:10:57Z</time>
      </trkpt>
      <trkpt lat="44.08045" lon="7.43844">
        <ele>2601.64</ele>
        <time>2020-06-27T07:11:13Z</time>
      </trkpt>
      <trkpt lat="44.08044" lon="7.43842">
        <ele>2602.434</ele>
        <time>2020-06-27T07:11:29Z</time>
      </trkpt>
      <trkpt lat="44.08044" lon="7.43842">
        <ele>2602.434</ele>
        <time>2020-06-27T07:11:44Z</time>
      </trkpt>
      <trkpt lat="44.08044" lon="7.43842">
        <ele>2602.434</ele>
        <time>2020-06-27T07:12:00Z</time>
      </trkpt>
      <trkpt lat="44.08048" lon="7.43853">
        <ele>2600.643</ele>
        <time>2020-06-27T07:12:15Z</time>
      </trkpt>
      <trkpt lat="44.08054" lon="7.43867">
        <ele>2600.706</ele>
        <time>2020-06-27T07:12:31Z</time>
      </trkpt>
      <trkpt lat="44.08059" lon="7.43877">
        <ele>2601.079</ele>
        <time>2020-06-27T07:12:47Z</time>
      </trkpt>
      <trkpt lat="44.08065" lon="7.4389">
        <ele>2599.376</ele>
        <time>2020-06-27T07:13:03Z</time>
      </trkpt>
      <trkpt lat="44.08071" lon="7.43892">
        <ele>2597.199</ele>
        <time>2020-06-27T07:13:18Z</time>
      </trkpt>
      <trkpt lat="44.08074" lon="7.43895">
        <ele>2598.002</ele>
        <time>2020-06-27T07:13:34Z</time>
      </trkpt>
      <trkpt lat="44.08082" lon="7.43898">
        <ele>2591.36</ele>
        <time>2020-06-27T07:13:50Z</time>
      </trkpt>
      <trkpt lat="44.08086" lon="7.439">
        <ele>2589.291</ele>
        <time>2020-06-27T07:14:05Z</time>
      </trkpt>
      <trkpt lat="44.08091" lon="7.43904">
        <ele>2586.154</ele>
        <time>2020-06-27T07:14:21Z</time>
      </trkpt>
      <trkpt lat="44.08096" lon="7.43905">
        <ele>2582.454</ele>
        <time>2020-06-27T07:14:36Z</time>
      </trkpt>
      <trkpt lat="44.08097" lon="7.43906">
        <ele>2582.078</ele>
        <time>2020-06-27T07:14:52Z</time>
      </trkpt>
      <trkpt lat="44.0811" lon="7.43906">
        <ele>2578.662</ele>
        <time>2020-06-27T07:15:08Z</time>
      </trkpt>
      <trkpt lat="44.08118" lon="7.43904">
        <ele>2570.644</ele>
        <time>2020-06-27T07:15:23Z</time>
      </trkpt>
      <trkpt lat="44.08124" lon="7.43901">
        <ele>2572.596</ele>
        <time>2020-06-27T07:15:39Z</time>
      </trkpt>
      <trkpt lat="44.08134" lon="7.43903">
        <ele>2572.045</ele>
        <time>2020-06-27T07:15:54Z</time>
      </trkpt>
      <trkpt lat="44.08136" lon="7.43909">
        <ele>2567.862</ele>
        <time>2020-06-27T07:16:09Z</time>
      </trkpt>
      <trkpt lat="44.08147" lon="7.43912">
        <ele>2557.336</ele>
        <time>2020-06-27T07:16:25Z</time>
      </trkpt>
      <trkpt lat="44.08152" lon="7.43907">
        <ele>2549.96</ele>
        <time>2020-06-27T07:16:41Z</time>
      </trkpt>
      <trkpt lat="44.08148" lon="7.43891">
        <ele>2544.988</ele>
        <time>2020-06-27T07:16:57Z</time>
      </trkpt>
      <trkpt lat="44.08145" lon="7.43876">
        <ele>2535.916</ele>
        <time>2020-06-27T07:17:13Z</time>
      </trkpt>
      <trkpt lat="44.08143" lon="7.43856">
        <ele>2531.088</ele>
        <time>2020-06-27T07:17:29Z</time>
      </trkpt>
      <trkpt lat="44.08153" lon="7.43845">
        <ele>2535.173</ele>
        <time>2020-06-27T07:17:45Z</time>
      </trkpt>
      <trkpt lat="44.08173" lon="7.43846">
        <ele>2540.694</ele>
        <time>2020-06-27T07:18:01Z</time>
      </trkpt>
      <trkpt lat="44.08182" lon="7.43845">
        <ele>2542.145</ele>
        <time>2020-06-27T07:18:17Z</time>
      </trkpt>
      <trkpt lat="44.08191" lon="7.43848">
        <ele>2540.335</ele>
        <time>2020-06-27T07:18:32Z</time>
      </trkpt>
      <trkpt lat="44.082" lon="7.43855">
        <ele>2532.561</ele>
        <time>2020-06-27T07:18:48Z</time>
      </trkpt>
      <trkpt lat="44.08206" lon="7.43863">
        <ele>2531.427</ele>
        <time>2020-06-27T07:19:04Z</time>
      </trkpt>
      <trkpt lat="44.08206" lon="7.43857">
        <ele>2529.937</ele>
        <time>2020-06-27T07:19:20Z</time>
      </trkpt>
      <trkpt lat="44.08208" lon="7.43852">
        <ele>2527.562</ele>
        <time>2020-06-27T07:19:36Z</time>
      </trkpt>
      <trkpt lat="44.08212" lon="7.43846">
        <ele>2524.605</ele>
        <time>2020-06-27T07:19:52Z</time>
      </trkpt>
      <trkpt lat="44.0821" lon="7.43842">
        <ele>2522.433</ele>
        <time>2020-06-27T07:20:07Z</time>
      </trkpt>
      <trkpt lat="44.0821" lon="7.43828">
        <ele>2521.25</ele>
        <time>2020-06-27T07:20:23Z</time>
      </trkpt>
      <trkpt lat="44.08207" lon="7.43816">
        <ele>2512.353</ele>
        <time>2020-06-27T07:20:38Z</time>
      </trkpt>
      <trkpt lat="44.08211" lon="7.438">
        <ele>2512.52</ele>
        <time>2020-06-27T07:20:54Z</time>
      </trkpt>
      <trkpt lat="44.08213" lon="7.43788">
        <ele>2508.254</ele>
        <time>2020-06-27T07:21:10Z</time>
      </trkpt>
      <trkpt lat="44.08223" lon="7.43798">
        <ele>2508.756</ele>
        <time>2020-06-27T07:21:26Z</time>
      </trkpt>
      <trkpt lat="44.08241" lon="7.43812">
        <ele>2513.899</ele>
        <time>2020-06-27T07:21:42Z</time>
      </trkpt>
      <trkpt lat="44.08248" lon="7.43818">
        <ele>2512.725</ele>
        <time>2020-06-27T07:21:58Z</time>
      </trkpt>
      <trkpt lat="44.08257" lon="7.43823">
        <ele>2510.834</ele>
        <time>2020-06-27T07:22:14Z</time>
      </trkpt>
      <trkpt lat="44.08264" lon="7.43824">
        <ele>2514.778</ele>
        <time>2020-06-27T07:22:29Z</time>
      </trkpt>
      <trkpt lat="44.08274" lon="7.43825">
        <ele>2518.013</ele>
        <time>2020-06-27T07:22:44Z</time>
      </trkpt>
      <trkpt lat="44.08282" lon="7.43823">
        <ele>2524.443</ele>
        <time>2020-06-27T07:23:00Z</time>
      </trkpt>
      <trkpt lat="44.08289" lon="7.43817">
        <ele>2520.831</ele>
        <time>2020-06-27T07:23:15Z</time>
      </trkpt>
      <trkpt lat="44.083" lon="7.43811">
        <ele>2512.542</ele>
        <time>2020-06-27T07:23:31Z</time>
      </trkpt>
      <trkpt lat="44.08304" lon="7.43816">
        <ele>2505.378</ele>
        <time>2020-06-27T07:23:47Z</time>
      </trkpt>
      <trkpt lat="44.08313" lon="7.43819">
        <ele>2500.255</ele>
        <time>2020-06-27T07:24:02Z</time>
      </trkpt>
      <trkpt lat="44.08319" lon="7.43821">
        <ele>2496.018</ele>
        <time>2020-06-27T07:24:18Z</time>
      </trkpt>
      <trkpt lat="44.08321" lon="7.43827">
        <ele>2491.971</ele>
        <time>2020-06-27T07:24:34Z</time>
      </trkpt>
      <trkpt lat="44.08322" lon="7.43823">
        <ele>2489.291</ele>
        <time>2020-06-27T07:24:50Z</time>
      </trkpt>
      <trkpt lat="44.08325" lon="7.43818">
        <ele>2486.489</ele>
        <time>2020-06-27T07:25:06Z</time>
      </trkpt>
      <trkpt lat="44.08328" lon="7.43814">
        <ele>2484.1</ele>
        <time>2020-06-27T07:25:22Z</time>
      </trkpt>
      <trkpt lat="44.08334" lon="7.4381">
        <ele>2481.377</ele>
        <time>2020-06-27T07:25:38Z</time>
      </trkpt>
      <trkpt lat="44.08341" lon="7.43803">
        <ele>2480.442</ele>
        <time>2020-06-27T07:25:54Z</time>
      </trkpt>
      <trkpt lat="44.08342" lon="7.438">
        <ele>2481.136</ele>
        <time>2020-06-27T07:26:09Z</time>
      </trkpt>
      <trkpt lat="44.08353" lon="7.4379">
        <ele>2479.194</ele>
        <time>2020-06-27T07:26:24Z</time>
      </trkpt>
      <trkpt lat="44.08362" lon="7.43781">
        <ele>2473.666</ele>
        <time>2020-06-27T07:26:40Z</time>
      </trkpt>
      <trkpt lat="44.08362" lon="7.43775">
        <ele>2473.85</ele>
        <time>2020-06-27T07:26:56Z</time>
      </trkpt>
      <trkpt lat="44.08362" lon="7.43775">
        <ele>2473.85</ele>
        <time>2020-06-27T07:27:11Z</time>
      </trkpt>
      <trkpt lat="44.08362" lon="7.43775">
        <ele>2473.85</ele>
        <time>2020-06-27T07:27:27Z</time>
      </trkpt>
      <trkpt lat="44.08369" lon="7.43765">
        <ele>2475.352</ele>
        <time>2020-06-27T07:27:43Z</time>
      </trkpt>
      <trkpt lat="44.08375" lon="7.43759">
        <ele>2475.977</ele>
        <time>2020-06-27T07:27:59Z</time>
      </trkpt>
      <trkpt lat="44.08385" lon="7.43751">
        <ele>2475.866</ele>
        <time>2020-06-27T07:28:15Z</time>
      </trkpt>
      <trkpt lat="44.08393" lon="7.43747">
        <ele>2475.619</ele>
        <time>2020-06-27T07:28:31Z</time>
      </trkpt>
      <trkpt lat="44.08405" lon="7.43741">
        <ele>2476.113</ele>
        <time>2020-06-27T07:28:46Z</time>
      </trkpt>
      <trkpt lat="44.08409" lon="7.43735">
        <ele>2476.445</ele>
        <time>2020-06-27T07:29:02Z</time>
      </trkpt>
      <trkpt lat="44.0842" lon="7.43729">
        <ele>2479.029</ele>
        <time>2020-06-27T07:29:18Z</time>
      </trkpt>
      <trkpt lat="44.08428" lon="7.43721">
        <ele>2472.672</ele>
        <time>2020-06-27T07:29:33Z</time>
      </trkpt>
      <trkpt lat="44.08444" lon="7.43714">
        <ele>2466.556</ele>
        <time>2020-06-27T07:29:49Z</time>
      </trkpt>
      <trkpt lat="44.08454" lon="7.43718">
        <ele>2464.076</ele>
        <time>2020-06-27T07:30:04Z</time>
      </trkpt>
      <trkpt lat="44.08455" lon="7.43718">
        <ele>2463.857</ele>
        <time>2020-06-27T07:30:19Z</time>
      </trkpt>
      <trkpt lat="44.08455" lon="7.43718">
        <ele>2463.857</ele>
        <time>2020-06-27T07:30:35Z</time>
      </trkpt>
      <trkpt lat="44.08455" lon="7.43718">
        <ele>2463.857</ele>
        <time>2020-06-27T07:30:50Z</time>
      </trkpt>
      <trkpt lat="44.08455" lon="7.43718">
        <ele>2463.857</ele>
        <time>2020-06-27T07:31:06Z</time>
      </trkpt>
      <trkpt lat="44.08455" lon="7.43718">
        <ele>2463.857</ele>
        <time>2020-06-27T07:31:22Z</time>
      </trkpt>
      <trkpt lat="44.08458" lon="7.43715">
        <ele>2463.581</ele>
        <time>2020-06-27T07:31:37Z</time>
      </trkpt>
      <trkpt lat="44.08464" lon="7.43716">
        <ele>2458.323</ele>
        <time>2020-06-27T07:31:53Z</time>
      </trkpt>
      <trkpt lat="44.0846" lon="7.43709">
        <ele>2457.321</ele>
        <time>2020-06-27T07:32:09Z</time>
      </trkpt>
      <trkpt lat="44.08462" lon="7.43702">
        <ele>2460.13</ele>
        <time>2020-06-27T07:32:25Z</time>
      </trkpt>
      <trkpt lat="44.08458" lon="7.43695">
        <ele>2456.907</ele>
        <time>2020-06-27T07:32:40Z</time>
      </trkpt>
      <trkpt lat="44.08456" lon="7.43689">
        <ele>2455.596</ele>
        <time>2020-06-27T07:32:56Z</time>
      </trkpt>
      <trkpt lat="44.08456" lon="7.43689">
        <ele>2455.596</ele>
        <time>2020-06-27T07:33:11Z</time>
      </trkpt>
      <trkpt lat="44.08457" lon="7.43679">
        <ele>2457.911</ele>
        <time>2020-06-27T07:33:26Z</time>
      </trkpt>
      <trkpt lat="44.08457" lon="7.43654">
        <ele>2455.939</ele>
        <time>2020-06-27T07:33:41Z</time>
      </trkpt>
      <trkpt lat="44.08457" lon="7.43654">
        <ele>2455.939</ele>
        <time>2020-06-27T07:33:57Z</time>
      </trkpt>
      <trkpt lat="44.08462" lon="7.43647">
        <ele>2457.905</ele>
        <time>2020-06-27T07:34:12Z</time>
      </trkpt>
      <trkpt lat="44.08467" lon="7.43636">
        <ele>2460.54</ele>
        <time>2020-06-27T07:34:28Z</time>
      </trkpt>
      <trkpt lat="44.08467" lon="7.43632">
        <ele>2459.825</ele>
        <time>2020-06-27T07:34:43Z</time>
      </trkpt>
      <trkpt lat="44.08477" lon="7.43634">
        <ele>2463.939</ele>
        <time>2020-06-27T07:34:58Z</time>
      </trkpt>
      <trkpt lat="44.08478" lon="7.43633">
        <ele>2464.343</ele>
        <time>2020-06-27T07:35:14Z</time>
      </trkpt>
      <trkpt lat="44.08478" lon="7.43633">
        <ele>2465.122</ele>
        <time>2020-06-27T07:35:30Z</time>
      </trkpt>
      <trkpt lat="44.08478" lon="7.43633">
        <ele>2465.122</ele>
        <time>2020-06-27T07:35:46Z</time>
      </trkpt>
      <trkpt lat="44.08486" lon="7.43628">
        <ele>2465.528</ele>
        <time>2020-06-27T07:36:02Z</time>
      </trkpt>
      <trkpt lat="44.08478" lon="7.43618">
        <ele>2463.123</ele>
        <time>2020-06-27T07:36:17Z</time>
      </trkpt>
      <trkpt lat="44.08478" lon="7.43617">
        <ele>2462.858</ele>
        <time>2020-06-27T07:36:33Z</time>
      </trkpt>
      <trkpt lat="44.08484" lon="7.43608">
        <ele>2467.968</ele>
        <time>2020-06-27T07:36:48Z</time>
      </trkpt>
      <trkpt lat="44.08494" lon="7.436">
        <ele>2469.269</ele>
        <time>2020-06-27T07:37:03Z</time>
      </trkpt>
      <trkpt lat="44.08504" lon="7.43597">
        <ele>2476.616</ele>
        <time>2020-06-27T07:37:18Z</time>
      </trkpt>
      <trkpt lat="44.08506" lon="7.43596">
        <ele>2478.48</ele>
        <time>2020-06-27T07:37:34Z</time>
      </trkpt>
      <trkpt lat="44.08509" lon="7.43592">
        <ele>2480.817</ele>
        <time>2020-06-27T07:37:49Z</time>
      </trkpt>
      <trkpt lat="44.08512" lon="7.43591">
        <ele>2482.413</ele>
        <time>2020-06-27T07:38:04Z</time>
      </trkpt>
      <trkpt lat="44.08517" lon="7.43588">
        <ele>2482.436</ele>
        <time>2020-06-27T07:38:20Z</time>
      </trkpt>
      <trkpt lat="44.08521" lon="7.43581">
        <ele>2484.575</ele>
        <time>2020-06-27T07:38:36Z</time>
      </trkpt>
      <trkpt lat="44.08526" lon="7.43581">
        <ele>2487.347</ele>
        <time>2020-06-27T07:38:52Z</time>
      </trkpt>
      <trkpt lat="44.08539" lon="7.43576">
        <ele>2496.5</ele>
        <time>2020-06-27T07:39:07Z</time>
      </trkpt>
      <trkpt lat="44.08541" lon="7.43571">
        <ele>2498.383</ele>
        <time>2020-06-27T07:39:23Z</time>
      </trkpt>
      <trkpt lat="44.08558" lon="7.43573">
        <ele>2506.467</ele>
        <time>2020-06-27T07:39:38Z</time>
      </trkpt>
      <trkpt lat="44.08574" lon="7.43573">
        <ele>2515.036</ele>
        <time>2020-06-27T07:39:53Z</time>
      </trkpt>
      <trkpt lat="44.08577" lon="7.43573">
        <ele>2515.009</ele>
        <time>2020-06-27T07:40:09Z</time>
      </trkpt>
      <trkpt lat="44.08577" lon="7.43573">
        <ele>2515.009</ele>
        <time>2020-06-27T07:40:24Z</time>
      </trkpt>
      <trkpt lat="44.08581" lon="7.43569">
        <ele>2502.279</ele>
        <time>2020-06-27T07:40:39Z</time>
      </trkpt>
      <trkpt lat="44.08589" lon="7.43563">
        <ele>2500.874</ele>
        <time>2020-06-27T07:40:55Z</time>
      </trkpt>
      <trkpt lat="44.086" lon="7.43556">
        <ele>2495.59</ele>
        <time>2020-06-27T07:41:11Z</time>
      </trkpt>
      <trkpt lat="44.0861" lon="7.43553">
        <ele>2488.027</ele>
        <time>2020-06-27T07:41:26Z</time>
      </trkpt>
      <trkpt lat="44.08616" lon="7.43543">
        <ele>2495.649</ele>
        <time>2020-06-27T07:41:42Z</time>
      </trkpt>
      <trkpt lat="44.08627" lon="7.43544">
        <ele>2498.792</ele>
        <time>2020-06-27T07:41:57Z</time>
      </trkpt>
      <trkpt lat="44.0864" lon="7.43538">
        <ele>2501.472</ele>
        <time>2020-06-27T07:42:13Z</time>
      </trkpt>
      <trkpt lat="44.08648" lon="7.43536">
        <ele>2504.884</ele>
        <time>2020-06-27T07:42:29Z</time>
      </trkpt>
      <trkpt lat="44.08652" lon="7.43533">
        <ele>2507.856</ele>
        <time>2020-06-27T07:42:44Z</time>
      </trkpt>
      <trkpt lat="44.08661" lon="7.43536">
        <ele>2508.731</ele>
        <time>2020-06-27T07:43:00Z</time>
      </trkpt>
      <trkpt lat="44.0867" lon="7.43533">
        <ele>2512.17</ele>
        <time>2020-06-27T07:43:15Z</time>
      </trkpt>
      <trkpt lat="44.0867" lon="7.4353">
        <ele>2508.499</ele>
        <time>2020-06-27T07:43:31Z</time>
      </trkpt>
      <trkpt lat="44.08674" lon="7.43524">
        <ele>2504.795</ele>
        <time>2020-06-27T07:43:47Z</time>
      </trkpt>
      <trkpt lat="44.08685" lon="7.43513">
        <ele>2507.84</ele>
        <time>2020-06-27T07:44:03Z</time>
      </trkpt>
      <trkpt lat="44.0869" lon="7.43508">
        <ele>2508.68</ele>
        <time>2020-06-27T07:44:18Z</time>
      </trkpt>
      <trkpt lat="44.08691" lon="7.43501">
        <ele>2509.052</ele>
        <time>2020-06-27T07:44:34Z</time>
      </trkpt>
      <trkpt lat="44.08698" lon="7.43498">
        <ele>2506.806</ele>
        <time>2020-06-27T07:44:49Z</time>
      </trkpt>
      <trkpt lat="44.08698" lon="7.43498">
        <ele>2506.806</ele>
        <time>2020-06-27T07:45:04Z</time>
      </trkpt>
      <trkpt lat="44.08695" lon="7.43497">
        <ele>2507.558</ele>
        <time>2020-06-27T07:45:20Z</time>
      </trkpt>
      <trkpt lat="44.08695" lon="7.43497">
        <ele>2507.558</ele>
        <time>2020-06-27T07:45:36Z</time>
      </trkpt>
      <trkpt lat="44.08694" lon="7.43492">
        <ele>2505.721</ele>
        <time>2020-06-27T07:45:52Z</time>
      </trkpt>
      <trkpt lat="44.08699" lon="7.43486">
        <ele>2506.159</ele>
        <time>2020-06-27T07:46:08Z</time>
      </trkpt>
      <trkpt lat="44.08706" lon="7.43476">
        <ele>2512.642</ele>
        <time>2020-06-27T07:46:24Z</time>
      </trkpt>
      <trkpt lat="44.08712" lon="7.43473">
        <ele>2513.278</ele>
        <time>2020-06-27T07:46:40Z</time>
      </trkpt>
      <trkpt lat="44.0871" lon="7.43462">
        <ele>2511.527</ele>
        <time>2020-06-27T07:46:55Z</time>
      </trkpt>
      <trkpt lat="44.0872" lon="7.43453">
        <ele>2516.461</ele>
        <time>2020-06-27T07:47:11Z</time>
      </trkpt>
      <trkpt lat="44.0873" lon="7.43443">
        <ele>2521.001</ele>
        <time>2020-06-27T07:47:27Z</time>
      </trkpt>
      <trkpt lat="44.08747" lon="7.43435">
        <ele>2522.731</ele>
        <time>2020-06-27T07:47:43Z</time>
      </trkpt>
      <trkpt lat="44.08749" lon="7.43435">
        <ele>2522.05</ele>
        <time>2020-06-27T07:47:59Z</time>
      </trkpt>
      <trkpt lat="44.08751" lon="7.43429">
        <ele>2522.682</ele>
        <time>2020-06-27T07:48:14Z</time>
      </trkpt>
      <trkpt lat="44.08752" lon="7.43435">
        <ele>2523.038</ele>
        <time>2020-06-27T07:48:30Z</time>
      </trkpt>
      <trkpt lat="44.08752" lon="7.43435">
        <ele>2523.038</ele>
        <time>2020-06-27T07:48:45Z</time>
      </trkpt>
      <trkpt lat="44.08749" lon="7.43433">
        <ele>2523.39</ele>
        <time>2020-06-27T07:49:01Z</time>
      </trkpt>
      <trkpt lat="44.08742" lon="7.4342">
        <ele>2519.924</ele>
        <time>2020-06-27T07:49:16Z</time>
      </trkpt>
      <trkpt lat="44.08748" lon="7.43424">
        <ele>2518.461</ele>
        <time>2020-06-27T07:49:31Z</time>
      </trkpt>
      <trkpt lat="44.08748" lon="7.43424">
        <ele>2518.461</ele>
        <time>2020-06-27T07:49:47Z</time>
      </trkpt>
      <trkpt lat="44.08753" lon="7.43428">
        <ele>2523.842</ele>
        <time>2020-06-27T07:50:03Z</time>
      </trkpt>
      <trkpt lat="44.08753" lon="7.43428">
        <ele>2523.842</ele>
        <time>2020-06-27T07:50:19Z</time>
      </trkpt>
      <trkpt lat="44.0875" lon="7.43428">
        <ele>2519.071</ele>
        <time>2020-06-27T07:50:35Z</time>
      </trkpt>
      <trkpt lat="44.08756" lon="7.43428">
        <ele>2519.128</ele>
        <time>2020-06-27T07:50:50Z</time>
      </trkpt>
      <trkpt lat="44.08756" lon="7.43429">
        <ele>2518.386</ele>
        <time>2020-06-27T07:51:06Z</time>
      </trkpt>
      <trkpt lat="44.08756" lon="7.43429">
        <ele>2518.386</ele>
        <time>2020-06-27T07:51:21Z</time>
      </trkpt>
      <trkpt lat="44.08752" lon="7.43427">
        <ele>2518.583</ele>
        <time>2020-06-27T07:51:37Z</time>
      </trkpt>
      <trkpt lat="44.08753" lon="7.4343">
        <ele>2517.923</ele>
        <time>2020-06-27T07:51:52Z</time>
      </trkpt>
      <trkpt lat="44.08753" lon="7.4343">
        <ele>2517.923</ele>
        <time>2020-06-27T07:52:08Z</time>
      </trkpt>
      <trkpt lat="44.08754" lon="7.4343">
        <ele>2519.753</ele>
        <time>2020-06-27T07:52:23Z</time>
      </trkpt>
      <trkpt lat="44.08754" lon="7.43427">
        <ele>2520.342</ele>
        <time>2020-06-27T07:52:38Z</time>
      </trkpt>
      <trkpt lat="44.08754" lon="7.43427">
        <ele>2520.342</ele>
        <time>2020-06-27T07:52:53Z</time>
      </trkpt>
      <trkpt lat="44.08755" lon="7.43422">
        <ele>2519.749</ele>
        <time>2020-06-27T07:53:09Z</time>
      </trkpt>
      <trkpt lat="44.08757" lon="7.43412">
        <ele>2520.41</ele>
        <time>2020-06-27T07:53:24Z</time>
      </trkpt>
      <trkpt lat="44.08762" lon="7.43403">
        <ele>2517.739</ele>
        <time>2020-06-27T07:53:39Z</time>
      </trkpt>
      <trkpt lat="44.08765" lon="7.43395">
        <ele>2513.11</ele>
        <time>2020-06-27T07:53:55Z</time>
      </trkpt>
      <trkpt lat="44.08765" lon="7.43379">
        <ele>2506.17</ele>
        <time>2020-06-27T07:54:10Z</time>
      </trkpt>
      <trkpt lat="44.08769" lon="7.43379">
        <ele>2511.111</ele>
        <time>2020-06-27T07:54:26Z</time>
      </trkpt>
      <trkpt lat="44.08769" lon="7.43379">
        <ele>2511.111</ele>
        <time>2020-06-27T07:54:42Z</time>
      </trkpt>
      <trkpt lat="44.08774" lon="7.43374">
        <ele>2508.568</ele>
        <time>2020-06-27T07:54:57Z</time>
      </trkpt>
      <trkpt lat="44.08775" lon="7.43372">
        <ele>2507.842</ele>
        <time>2020-06-27T07:55:13Z</time>
      </trkpt>
      <trkpt lat="44.08775" lon="7.43371">
        <ele>2506.25</ele>
        <time>2020-06-27T07:55:28Z</time>
      </trkpt>
      <trkpt lat="44.08775" lon="7.43371">
        <ele>2506.25</ele>
        <time>2020-06-27T07:55:44Z</time>
      </trkpt>
      <trkpt lat="44.0879" lon="7.43367">
        <ele>2512.248</ele>
        <time>2020-06-27T07:56:00Z</time>
      </trkpt>
      <trkpt lat="44.08792" lon="7.43369">
        <ele>2514.206</ele>
        <time>2020-06-27T07:56:15Z</time>
      </trkpt>
      <trkpt lat="44.08795" lon="7.43372">
        <ele>2514.706</ele>
        <time>2020-06-27T07:56:31Z</time>
      </trkpt>
      <trkpt lat="44.08807" lon="7.43364">
        <ele>2509.012</ele>
        <time>2020-06-27T07:56:47Z</time>
      </trkpt>
      <trkpt lat="44.08821" lon="7.43359">
        <ele>2504.247</ele>
        <time>2020-06-27T07:57:03Z</time>
      </trkpt>
      <trkpt lat="44.0884" lon="7.43347">
        <ele>2500.35</ele>
        <time>2020-06-27T07:57:19Z</time>
      </trkpt>
      <trkpt lat="44.08845" lon="7.43341">
        <ele>2495.669</ele>
        <time>2020-06-27T07:57:35Z</time>
      </trkpt>
      <trkpt lat="44.08842" lon="7.43336">
        <ele>2491.305</ele>
        <time>2020-06-27T07:57:50Z</time>
      </trkpt>
      <trkpt lat="44.08847" lon="7.43329">
        <ele>2493.618</ele>
        <time>2020-06-27T07:58:05Z</time>
      </trkpt>
      <trkpt lat="44.08863" lon="7.43319">
        <ele>2493.918</ele>
        <time>2020-06-27T07:58:21Z</time>
      </trkpt>
      <trkpt lat="44.08869" lon="7.43318">
        <ele>2491.996</ele>
        <time>2020-06-27T07:58:37Z</time>
      </trkpt>
      <trkpt lat="44.08878" lon="7.43315">
        <ele>2494.383</ele>
        <time>2020-06-27T07:58:52Z</time>
      </trkpt>
      <trkpt lat="44.08882" lon="7.43316">
        <ele>2496.16</ele>
        <time>2020-06-27T07:59:07Z</time>
      </trkpt>
      <trkpt lat="44.08888" lon="7.43324">
        <ele>2497.176</ele>
        <time>2020-06-27T07:59:23Z</time>
      </trkpt>
      <trkpt lat="44.08897" lon="7.4332">
        <ele>2499.795</ele>
        <time>2020-06-27T07:59:39Z</time>
      </trkpt>
      <trkpt lat="44.08907" lon="7.43317">
        <ele>2504.081</ele>
        <time>2020-06-27T07:59:54Z</time>
      </trkpt>
      <trkpt lat="44.08907" lon="7.43312">
        <ele>2506.85</ele>
        <time>2020-06-27T08:00:09Z</time>
      </trkpt>
      <trkpt lat="44.08907" lon="7.43312">
        <ele>2506.85</ele>
        <time>2020-06-27T08:00:25Z</time>
      </trkpt>
      <trkpt lat="44.08907" lon="7.43312">
        <ele>2506.85</ele>
        <time>2020-06-27T08:00:41Z</time>
      </trkpt>
      <trkpt lat="44.08913" lon="7.43303">
        <ele>2510.022</ele>
        <time>2020-06-27T08:00:57Z</time>
      </trkpt>
      <trkpt lat="44.08925" lon="7.43298">
        <ele>2513.088</ele>
        <time>2020-06-27T08:01:13Z</time>
      </trkpt>
      <trkpt lat="44.08923" lon="7.4329">
        <ele>2513.501</ele>
        <time>2020-06-27T08:01:29Z</time>
      </trkpt>
      <trkpt lat="44.08926" lon="7.43286">
        <ele>2514.236</ele>
        <time>2020-06-27T08:01:44Z</time>
      </trkpt>
      <trkpt lat="44.08932" lon="7.43285">
        <ele>2519.804</ele>
        <time>2020-06-27T08:02:00Z</time>
      </trkpt>
      <trkpt lat="44.08941" lon="7.43283">
        <ele>2522.929</ele>
        <time>2020-06-27T08:02:16Z</time>
      </trkpt>
      <trkpt lat="44.08945" lon="7.43281">
        <ele>2525.646</ele>
        <time>2020-06-27T08:02:31Z</time>
      </trkpt>
      <trkpt lat="44.08948" lon="7.43275">
        <ele>2530.723</ele>
        <time>2020-06-27T08:02:46Z</time>
      </trkpt>
      <trkpt lat="44.08951" lon="7.43272">
        <ele>2532.058</ele>
        <time>2020-06-27T08:03:02Z</time>
      </trkpt>
      <trkpt lat="44.08961" lon="7.43268">
        <ele>2534.119</ele>
        <time>2020-06-27T08:03:18Z</time>
      </trkpt>
      <trkpt lat="44.08975" lon="7.43262">
        <ele>2533.394</ele>
        <time>2020-06-27T08:03:33Z</time>
      </trkpt>
      <trkpt lat="44.08981" lon="7.43257">
        <ele>2535.661</ele>
        <time>2020-06-27T08:03:49Z</time>
      </trkpt>
      <trkpt lat="44.08982" lon="7.43247">
        <ele>2532.766</ele>
        <time>2020-06-27T08:04:04Z</time>
      </trkpt>
      <trkpt lat="44.08977" lon="7.43244">
        <ele>2534.494</ele>
        <time>2020-06-27T08:04:20Z</time>
      </trkpt>
      <trkpt lat="44.08982" lon="7.43238">
        <ele>2533.173</ele>
        <time>2020-06-27T08:04:35Z</time>
      </trkpt>
      <trkpt lat="44.08987" lon="7.43231">
        <ele>2531.949</ele>
        <time>2020-06-27T08:04:50Z</time>
      </trkpt>
      <trkpt lat="44.08987" lon="7.43231">
        <ele>2531.949</ele>
        <time>2020-06-27T08:05:06Z</time>
      </trkpt>
      <trkpt lat="44.09003" lon="7.43225">
        <ele>2534.115</ele>
        <time>2020-06-27T08:05:22Z</time>
      </trkpt>
      <trkpt lat="44.09014" lon="7.43216">
        <ele>2533.781</ele>
        <time>2020-06-27T08:05:37Z</time>
      </trkpt>
      <trkpt lat="44.0902" lon="7.43201">
        <ele>2526.742</ele>
        <time>2020-06-27T08:05:53Z</time>
      </trkpt>
      <trkpt lat="44.0902" lon="7.43198">
        <ele>2523.978</ele>
        <time>2020-06-27T08:06:08Z</time>
      </trkpt>
      <trkpt lat="44.0902" lon="7.43197">
        <ele>2524.295</ele>
        <time>2020-06-27T08:06:24Z</time>
      </trkpt>
      <trkpt lat="44.09025" lon="7.43196">
        <ele>2526.686</ele>
        <time>2020-06-27T08:06:39Z</time>
      </trkpt>
      <trkpt lat="44.09027" lon="7.43194">
        <ele>2529.121</ele>
        <time>2020-06-27T08:06:55Z</time>
      </trkpt>
      <trkpt lat="44.09027" lon="7.43194">
        <ele>2529.121</ele>
        <time>2020-06-27T08:07:11Z</time>
      </trkpt>
      <trkpt lat="44.09027" lon="7.43194">
        <ele>2529.121</ele>
        <time>2020-06-27T08:07:26Z</time>
      </trkpt>
      <trkpt lat="44.09026" lon="7.43193">
        <ele>2532.564</ele>
        <time>2020-06-27T08:07:41Z</time>
      </trkpt>
      <trkpt lat="44.09026" lon="7.43189">
        <ele>2532.981</ele>
        <time>2020-06-27T08:07:57Z</time>
      </trkpt>
      <trkpt lat="44.09029" lon="7.43173">
        <ele>2536.908</ele>
        <time>2020-06-27T08:08:13Z</time>
      </trkpt>
      <trkpt lat="44.09032" lon="7.43165">
        <ele>2540.693</ele>
        <time>2020-06-27T08:08:28Z</time>
      </trkpt>
      <trkpt lat="44.09032" lon="7.43165">
        <ele>2540.693</ele>
        <time>2020-06-27T08:08:43Z</time>
      </trkpt>
      <trkpt lat="44.09032" lon="7.43165">
        <ele>2540.693</ele>
        <time>2020-06-27T08:08:59Z</time>
      </trkpt>
      <trkpt lat="44.09032" lon="7.43159">
        <ele>2541.315</ele>
        <time>2020-06-27T08:09:14Z</time>
      </trkpt>
      <trkpt lat="44.09032" lon="7.43156">
        <ele>2541.368</ele>
        <time>2020-06-27T08:09:30Z</time>
      </trkpt>
      <trkpt lat="44.09037" lon="7.43146">
        <ele>2542.529</ele>
        <time>2020-06-27T08:09:46Z</time>
      </trkpt>
      <trkpt lat="44.09056" lon="7.43136">
        <ele>2551.089</ele>
        <time>2020-06-27T08:10:02Z</time>
      </trkpt>
      <trkpt lat="44.09056" lon="7.43136">
        <ele>2551.089</ele>
        <time>2020-06-27T08:10:17Z</time>
      </trkpt>
      <trkpt lat="44.09056" lon="7.43134">
        <ele>2553.715</ele>
        <time>2020-06-27T08:10:33Z</time>
      </trkpt>
      <trkpt lat="44.09056" lon="7.43134">
        <ele>2553.715</ele>
        <time>2020-06-27T08:10:49Z</time>
      </trkpt>
      <trkpt lat="44.09057" lon="7.4313">
        <ele>2553.423</ele>
        <time>2020-06-27T08:11:04Z</time>
      </trkpt>
      <trkpt lat="44.09061" lon="7.43131">
        <ele>2555.964</ele>
        <time>2020-06-27T08:11:20Z</time>
      </trkpt>
      <trkpt lat="44.09065" lon="7.43128">
        <ele>2555.718</ele>
        <time>2020-06-27T08:11:36Z</time>
      </trkpt>
      <trkpt lat="44.09078" lon="7.43131">
        <ele>2565.742</ele>
        <time>2020-06-27T08:11:51Z</time>
      </trkpt>
      <trkpt lat="44.0908" lon="7.43128">
        <ele>2566.8</ele>
        <time>2020-06-27T08:12:07Z</time>
      </trkpt>
      <trkpt lat="44.09084" lon="7.43121">
        <ele>2567.269</ele>
        <time>2020-06-27T08:12:22Z</time>
      </trkpt>
      <trkpt lat="44.09086" lon="7.43118">
        <ele>2568.106</ele>
        <time>2020-06-27T08:12:37Z</time>
      </trkpt>
      <trkpt lat="44.09088" lon="7.43102">
        <ele>2570.255</ele>
        <time>2020-06-27T08:12:53Z</time>
      </trkpt>
      <trkpt lat="44.09087" lon="7.43094">
        <ele>2573.684</ele>
        <time>2020-06-27T08:13:09Z</time>
      </trkpt>
      <trkpt lat="44.09087" lon="7.43094">
        <ele>2573.684</ele>
        <time>2020-06-27T08:13:24Z</time>
      </trkpt>
      <trkpt lat="44.09087" lon="7.43094">
        <ele>2573.684</ele>
        <time>2020-06-27T08:13:39Z</time>
      </trkpt>
      <trkpt lat="44.09088" lon="7.43096">
        <ele>2574.468</ele>
        <time>2020-06-27T08:13:54Z</time>
      </trkpt>
      <trkpt lat="44.09088" lon="7.43095">
        <ele>2574.651</ele>
        <time>2020-06-27T08:14:10Z</time>
      </trkpt>
      <trkpt lat="44.09088" lon="7.43095">
        <ele>2574.651</ele>
        <time>2020-06-27T08:14:25Z</time>
      </trkpt>
      <trkpt lat="44.09088" lon="7.43095">
        <ele>2574.651</ele>
        <time>2020-06-27T08:14:40Z</time>
      </trkpt>
      <trkpt lat="44.09088" lon="7.43095">
        <ele>2574.651</ele>
        <time>2020-06-27T08:14:55Z</time>
      </trkpt>
      <trkpt lat="44.09088" lon="7.43095">
        <ele>2574.651</ele>
        <time>2020-06-27T08:15:11Z</time>
      </trkpt>
      <trkpt lat="44.09088" lon="7.43095">
        <ele>2574.651</ele>
        <time>2020-06-27T08:15:26Z</time>
      </trkpt>
      <trkpt lat="44.09088" lon="7.43095">
        <ele>2574.651</ele>
        <time>2020-06-27T08:15:42Z</time>
      </trkpt>
      <trkpt lat="44.09089" lon="7.43097">
        <ele>2574.821</ele>
        <time>2020-06-27T08:15:57Z</time>
      </trkpt>
      <trkpt lat="44.09089" lon="7.43092">
        <ele>2573.551</ele>
        <time>2020-06-27T08:16:12Z</time>
      </trkpt>
      <trkpt lat="44.09089" lon="7.43092">
        <ele>2573.551</ele>
        <time>2020-06-27T08:16:27Z</time>
      </trkpt>
      <trkpt lat="44.09089" lon="7.43092">
        <ele>2573.551</ele>
        <time>2020-06-27T08:16:43Z</time>
      </trkpt>
      <trkpt lat="44.09091" lon="7.43097">
        <ele>2576.874</ele>
        <time>2020-06-27T08:16:58Z</time>
      </trkpt>
      <trkpt lat="44.09091" lon="7.43097">
        <ele>2576.874</ele>
        <time>2020-06-27T08:17:14Z</time>
      </trkpt>
      <trkpt lat="44.09091" lon="7.43097">
        <ele>2576.874</ele>
        <time>2020-06-27T08:17:30Z</time>
      </trkpt>
      <trkpt lat="44.09091" lon="7.43097">
        <ele>2576.874</ele>
        <time>2020-06-27T08:17:46Z</time>
      </trkpt>
      <trkpt lat="44.09091" lon="7.431">
        <ele>2578.2</ele>
        <time>2020-06-27T08:18:01Z</time>
      </trkpt>
      <trkpt lat="44.09091" lon="7.431">
        <ele>2578.2</ele>
        <time>2020-06-27T08:18:16Z</time>
      </trkpt>
      <trkpt lat="44.09091" lon="7.431">
        <ele>2578.2</ele>
        <time>2020-06-27T08:18:32Z</time>
      </trkpt>
      <trkpt lat="44.09091" lon="7.431">
        <ele>2578.2</ele>
        <time>2020-06-27T08:18:47Z</time>
      </trkpt>
      <trkpt lat="44.09091" lon="7.431">
        <ele>2578.2</ele>
        <time>2020-06-27T08:19:03Z</time>
      </trkpt>
      <trkpt lat="44.09091" lon="7.431">
        <ele>2578.2</ele>
        <time>2020-06-27T08:19:19Z</time>
      </trkpt>
      <trkpt lat="44.09091" lon="7.431">
        <ele>2578.2</ele>
        <time>2020-06-27T08:19:34Z</time>
      </trkpt>
      <trkpt lat="44.09091" lon="7.431">
        <ele>2578.2</ele>
        <time>2020-06-27T08:19:50Z</time>
      </trkpt>
      <trkpt lat="44.09091" lon="7.431">
        <ele>2578.2</ele>
        <time>2020-06-27T08:20:05Z</time>
      </trkpt>
      <trkpt lat="44.09091" lon="7.43101">
        <ele>2580.223</ele>
        <time>2020-06-27T08:20:21Z</time>
      </trkpt>
      <trkpt lat="44.09091" lon="7.43101">
        <ele>2580.223</ele>
        <time>2020-06-27T08:20:36Z</time>
      </trkpt>
      <trkpt lat="44.09091" lon="7.43101">
        <ele>2580.223</ele>
        <time>2020-06-27T08:20:52Z</time>
      </trkpt>
      <trkpt lat="44.09091" lon="7.43101">
        <ele>2580.223</ele>
        <time>2020-06-27T08:21:07Z</time>
      </trkpt>
      <trkpt lat="44.09091" lon="7.43101">
        <ele>2580.223</ele>
        <time>2020-06-27T08:21:23Z</time>
      </trkpt>
      <trkpt lat="44.09091" lon="7.43101">
        <ele>2580.223</ele>
        <time>2020-06-27T08:21:38Z</time>
      </trkpt>
      <trkpt lat="44.09091" lon="7.43101">
        <ele>2580.223</ele>
        <time>2020-06-27T08:21:54Z</time>
      </trkpt>
      <trkpt lat="44.09091" lon="7.43101">
        <ele>2580.223</ele>
        <time>2020-06-27T08:22:10Z</time>
      </trkpt>
      <trkpt lat="44.09091" lon="7.43101">
        <ele>2580.223</ele>
        <time>2020-06-27T08:22:25Z</time>
      </trkpt>
      <trkpt lat="44.09091" lon="7.43101">
        <ele>2580.223</ele>
        <time>2020-06-27T08:22:41Z</time>
      </trkpt>
      <trkpt lat="44.09091" lon="7.43101">
        <ele>2580.223</ele>
        <time>2020-06-27T08:22:57Z</time>
      </trkpt>
      <trkpt lat="44.09091" lon="7.43101">
        <ele>2580.223</ele>
        <time>2020-06-27T08:23:13Z</time>
      </trkpt>
      <trkpt lat="44.09091" lon="7.43101">
        <ele>2580.223</ele>
        <time>2020-06-27T08:23:28Z</time>
      </trkpt>
      <trkpt lat="44.09091" lon="7.43101">
        <ele>2580.223</ele>
        <time>2020-06-27T08:23:44Z</time>
      </trkpt>
      <trkpt lat="44.09091" lon="7.43101">
        <ele>2580.223</ele>
        <time>2020-06-27T08:23:59Z</time>
      </trkpt>
      <trkpt lat="44.09091" lon="7.43101">
        <ele>2580.223</ele>
        <time>2020-06-27T08:24:14Z</time>
      </trkpt>
      <trkpt lat="44.09091" lon="7.43101">
        <ele>2580.223</ele>
        <time>2020-06-27T08:24:30Z</time>
      </trkpt>
      <trkpt lat="44.09091" lon="7.43101">
        <ele>2580.223</ele>
        <time>2020-06-27T08:24:45Z</time>
      </trkpt>
      <trkpt lat="44.09091" lon="7.43101">
        <ele>2580.223</ele>
        <time>2020-06-27T08:25:01Z</time>
      </trkpt>
      <trkpt lat="44.09091" lon="7.43101">
        <ele>2580.223</ele>
        <time>2020-06-27T08:25:17Z</time>
      </trkpt>
      <trkpt lat="44.09095" lon="7.43094">
        <ele>2580.383</ele>
        <time>2020-06-27T08:25:32Z</time>
      </trkpt>
      <trkpt lat="44.09096" lon="7.43091">
        <ele>2580.223</ele>
        <time>2020-06-27T08:25:47Z</time>
      </trkpt>
      <trkpt lat="44.09096" lon="7.43091">
        <ele>2580.223</ele>
        <time>2020-06-27T08:26:03Z</time>
      </trkpt>
      <trkpt lat="44.09096" lon="7.43091">
        <ele>2580.223</ele>
        <time>2020-06-27T08:26:18Z</time>
      </trkpt>
      <trkpt lat="44.09096" lon="7.43091">
        <ele>2580.223</ele>
        <time>2020-06-27T08:26:33Z</time>
      </trkpt>
      <trkpt lat="44.09096" lon="7.43091">
        <ele>2580.223</ele>
        <time>2020-06-27T08:26:48Z</time>
      </trkpt>
      <trkpt lat="44.09096" lon="7.43091">
        <ele>2580.223</ele>
        <time>2020-06-27T08:27:04Z</time>
      </trkpt>
      <trkpt lat="44.09096" lon="7.43091">
        <ele>2580.223</ele>
        <time>2020-06-27T08:27:19Z</time>
      </trkpt>
      <trkpt lat="44.09096" lon="7.43091">
        <ele>2580.223</ele>
        <time>2020-06-27T08:27:35Z</time>
      </trkpt>
      <trkpt lat="44.09096" lon="7.43091">
        <ele>2580.223</ele>
        <time>2020-06-27T08:27:51Z</time>
      </trkpt>
      <trkpt lat="44.09093" lon="7.43093">
        <ele>2580.553</ele>
        <time>2020-06-27T08:28:07Z</time>
      </trkpt>
      <trkpt lat="44.09093" lon="7.43093">
        <ele>2580.553</ele>
        <time>2020-06-27T08:28:23Z</time>
      </trkpt>
      <trkpt lat="44.09093" lon="7.43093">
        <ele>2580.553</ele>
        <time>2020-06-27T08:28:38Z</time>
      </trkpt>
      <trkpt lat="44.09093" lon="7.43093">
        <ele>2580.553</ele>
        <time>2020-06-27T08:28:54Z</time>
      </trkpt>
      <trkpt lat="44.09093" lon="7.43093">
        <ele>2580.553</ele>
        <time>2020-06-27T08:29:09Z</time>
      </trkpt>
      <trkpt lat="44.09089" lon="7.43097">
        <ele>2579.086</ele>
        <time>2020-06-27T08:29:25Z</time>
      </trkpt>
      <trkpt lat="44.09089" lon="7.43097">
        <ele>2579.086</ele>
        <time>2020-06-27T08:29:40Z</time>
      </trkpt>
      <trkpt lat="44.09089" lon="7.43097">
        <ele>2579.086</ele>
        <time>2020-06-27T08:29:55Z</time>
      </trkpt>
      <trkpt lat="44.09089" lon="7.43097">
        <ele>2579.086</ele>
        <time>2020-06-27T08:30:11Z</time>
      </trkpt>
      <trkpt lat="44.09089" lon="7.43097">
        <ele>2579.086</ele>
        <time>2020-06-27T08:30:27Z</time>
      </trkpt>
      <trkpt lat="44.09089" lon="7.43097">
        <ele>2579.086</ele>
        <time>2020-06-27T08:30:43Z</time>
      </trkpt>
      <trkpt lat="44.09089" lon="7.43097">
        <ele>2579.086</ele>
        <time>2020-06-27T08:30:59Z</time>
      </trkpt>
      <trkpt lat="44.09089" lon="7.43097">
        <ele>2579.086</ele>
        <time>2020-06-27T08:31:14Z</time>
      </trkpt>
      <trkpt lat="44.09089" lon="7.43097">
        <ele>2579.086</ele>
        <time>2020-06-27T08:31:30Z</time>
      </trkpt>
      <trkpt lat="44.09089" lon="7.43097">
        <ele>2579.086</ele>
        <time>2020-06-27T08:31:46Z</time>
      </trkpt>
      <trkpt lat="44.09088" lon="7.43095">
        <ele>2578.788</ele>
        <time>2020-06-27T08:32:02Z</time>
      </trkpt>
      <trkpt lat="44.09088" lon="7.43095">
        <ele>2578.788</ele>
        <time>2020-06-27T08:32:18Z</time>
      </trkpt>
      <trkpt lat="44.09085" lon="7.43092">
        <ele>2579.866</ele>
        <time>2020-06-27T08:32:33Z</time>
      </trkpt>
      <trkpt lat="44.09081" lon="7.43087">
        <ele>2578.241</ele>
        <time>2020-06-27T08:32:48Z</time>
      </trkpt>
      <trkpt lat="44.09083" lon="7.43088">
        <ele>2578.426</ele>
        <time>2020-06-27T08:33:04Z</time>
      </trkpt>
      <trkpt lat="44.09093" lon="7.43089">
        <ele>2583.732</ele>
        <time>2020-06-27T08:33:19Z</time>
      </trkpt>
      <trkpt lat="44.09095" lon="7.43078">
        <ele>2582.937</ele>
        <time>2020-06-27T08:33:35Z</time>
      </trkpt>
      <trkpt lat="44.09096" lon="7.43068">
        <ele>2584.32</ele>
        <time>2020-06-27T08:33:50Z</time>
      </trkpt>
      <trkpt lat="44.09098" lon="7.4305">
        <ele>2579.658</ele>
        <time>2020-06-27T08:34:06Z</time>
      </trkpt>
      <trkpt lat="44.09102" lon="7.43039">
        <ele>2576.384</ele>
        <time>2020-06-27T08:34:22Z</time>
      </trkpt>
      <trkpt lat="44.09106" lon="7.43026">
        <ele>2582.656</ele>
        <time>2020-06-27T08:34:38Z</time>
      </trkpt>
      <trkpt lat="44.0911" lon="7.43014">
        <ele>2584.026</ele>
        <time>2020-06-27T08:34:54Z</time>
      </trkpt>
      <trkpt lat="44.09119" lon="7.43002">
        <ele>2586.137</ele>
        <time>2020-06-27T08:35:10Z</time>
      </trkpt>
      <trkpt lat="44.09126" lon="7.42993">
        <ele>2589.684</ele>
        <time>2020-06-27T08:35:26Z</time>
      </trkpt>
      <trkpt lat="44.09137" lon="7.42986">
        <ele>2588.22</ele>
        <time>2020-06-27T08:35:41Z</time>
      </trkpt>
      <trkpt lat="44.0914" lon="7.42983">
        <ele>2586.231</ele>
        <time>2020-06-27T08:35:56Z</time>
      </trkpt>
      <trkpt lat="44.09148" lon="7.42975">
        <ele>2585.283</ele>
        <time>2020-06-27T08:36:12Z</time>
      </trkpt>
      <trkpt lat="44.09156" lon="7.42968">
        <ele>2589.152</ele>
        <time>2020-06-27T08:36:28Z</time>
      </trkpt>
      <trkpt lat="44.0916" lon="7.42961">
        <ele>2593.415</ele>
        <time>2020-06-27T08:36:44Z</time>
      </trkpt>
      <trkpt lat="44.09161" lon="7.42945">
        <ele>2591.067</ele>
        <time>2020-06-27T08:36:59Z</time>
      </trkpt>
      <trkpt lat="44.09163" lon="7.42935">
        <ele>2592.088</ele>
        <time>2020-06-27T08:37:15Z</time>
      </trkpt>
      <trkpt lat="44.09171" lon="7.42939">
        <ele>2588.037</ele>
        <time>2020-06-27T08:37:31Z</time>
      </trkpt>
      <trkpt lat="44.09183" lon="7.42946">
        <ele>2591.33</ele>
        <time>2020-06-27T08:37:46Z</time>
      </trkpt>
      <trkpt lat="44.09203" lon="7.42943">
        <ele>2596.856</ele>
        <time>2020-06-27T08:38:02Z</time>
      </trkpt>
      <trkpt lat="44.09213" lon="7.42942">
        <ele>2602.372</ele>
        <time>2020-06-27T08:38:17Z</time>
      </trkpt>
      <trkpt lat="44.09226" lon="7.4294">
        <ele>2610.162</ele>
        <time>2020-06-27T08:38:33Z</time>
      </trkpt>
      <trkpt lat="44.09231" lon="7.42941">
        <ele>2612.622</ele>
        <time>2020-06-27T08:38:48Z</time>
      </trkpt>
      <trkpt lat="44.09235" lon="7.42946">
        <ele>2613.626</ele>
        <time>2020-06-27T08:39:04Z</time>
      </trkpt>
      <trkpt lat="44.09238" lon="7.42952">
        <ele>2612.993</ele>
        <time>2020-06-27T08:39:19Z</time>
      </trkpt>
      <trkpt lat="44.09246" lon="7.42956">
        <ele>2610.916</ele>
        <time>2020-06-27T08:39:35Z</time>
      </trkpt>
      <trkpt lat="44.09255" lon="7.42949">
        <ele>2610.268</ele>
        <time>2020-06-27T08:39:51Z</time>
      </trkpt>
      <trkpt lat="44.09261" lon="7.42941">
        <ele>2609.691</ele>
        <time>2020-06-27T08:40:07Z</time>
      </trkpt>
      <trkpt lat="44.09262" lon="7.42937">
        <ele>2610.518</ele>
        <time>2020-06-27T08:40:22Z</time>
      </trkpt>
      <trkpt lat="44.09264" lon="7.42933">
        <ele>2611.139</ele>
        <time>2020-06-27T08:40:37Z</time>
      </trkpt>
      <trkpt lat="44.09268" lon="7.42933">
        <ele>2609.555</ele>
        <time>2020-06-27T08:40:53Z</time>
      </trkpt>
      <trkpt lat="44.0927" lon="7.42927">
        <ele>2608.04</ele>
        <time>2020-06-27T08:41:09Z</time>
      </trkpt>
      <trkpt lat="44.09289" lon="7.42926">
        <ele>2605.559</ele>
        <time>2020-06-27T08:41:25Z</time>
      </trkpt>
      <trkpt lat="44.09289" lon="7.42925">
        <ele>2604.316</ele>
        <time>2020-06-27T08:41:41Z</time>
      </trkpt>
      <trkpt lat="44.09296" lon="7.4291">
        <ele>2599.64</ele>
        <time>2020-06-27T08:41:56Z</time>
      </trkpt>
      <trkpt lat="44.09305" lon="7.42907">
        <ele>2608.627</ele>
        <time>2020-06-27T08:42:11Z</time>
      </trkpt>
      <trkpt lat="44.09325" lon="7.42911">
        <ele>2609.559</ele>
        <time>2020-06-27T08:42:27Z</time>
      </trkpt>
      <trkpt lat="44.0933" lon="7.42905">
        <ele>2611.306</ele>
        <time>2020-06-27T08:42:43Z</time>
      </trkpt>
      <trkpt lat="44.09335" lon="7.42902">
        <ele>2613.423</ele>
        <time>2020-06-27T08:42:58Z</time>
      </trkpt>
      <trkpt lat="44.09338" lon="7.42896">
        <ele>2613.162</ele>
        <time>2020-06-27T08:43:14Z</time>
      </trkpt>
      <trkpt lat="44.09344" lon="7.42882">
        <ele>2616.918</ele>
        <time>2020-06-27T08:43:30Z</time>
      </trkpt>
      <trkpt lat="44.09363" lon="7.42898">
        <ele>2622.576</ele>
        <time>2020-06-27T08:43:46Z</time>
      </trkpt>
      <trkpt lat="44.09371" lon="7.42898">
        <ele>2624.853</ele>
        <time>2020-06-27T08:44:02Z</time>
      </trkpt>
      <trkpt lat="44.09378" lon="7.42904">
        <ele>2630.29</ele>
        <time>2020-06-27T08:44:18Z</time>
      </trkpt>
      <trkpt lat="44.09375" lon="7.42897">
        <ele>2631.134</ele>
        <time>2020-06-27T08:44:33Z</time>
      </trkpt>
      <trkpt lat="44.09378" lon="7.42889">
        <ele>2631.83</ele>
        <time>2020-06-27T08:44:48Z</time>
      </trkpt>
      <trkpt lat="44.09387" lon="7.42889">
        <ele>2643.483</ele>
        <time>2020-06-27T08:45:04Z</time>
      </trkpt>
      <trkpt lat="44.0939" lon="7.42891">
        <ele>2646.449</ele>
        <time>2020-06-27T08:45:20Z</time>
      </trkpt>
      <trkpt lat="44.09397" lon="7.4289">
        <ele>2648.317</ele>
        <time>2020-06-27T08:45:35Z</time>
      </trkpt>
      <trkpt lat="44.09401" lon="7.42886">
        <ele>2648.734</ele>
        <time>2020-06-27T08:45:51Z</time>
      </trkpt>
      <trkpt lat="44.09401" lon="7.42886">
        <ele>2648.734</ele>
        <time>2020-06-27T08:46:07Z</time>
      </trkpt>
      <trkpt lat="44.09409" lon="7.42873">
        <ele>2647.079</ele>
        <time>2020-06-27T08:46:22Z</time>
      </trkpt>
      <trkpt lat="44.09412" lon="7.42858">
        <ele>2645.637</ele>
        <time>2020-06-27T08:46:37Z</time>
      </trkpt>
      <trkpt lat="44.09424" lon="7.42846">
        <ele>2649.505</ele>
        <time>2020-06-27T08:46:53Z</time>
      </trkpt>
      <trkpt lat="44.09425" lon="7.42843">
        <ele>2648.701</ele>
        <time>2020-06-27T08:47:08Z</time>
      </trkpt>
      <trkpt lat="44.09433" lon="7.42844">
        <ele>2648.771</ele>
        <time>2020-06-27T08:47:23Z</time>
      </trkpt>
      <trkpt lat="44.09436" lon="7.42832">
        <ele>2652.174</ele>
        <time>2020-06-27T08:47:38Z</time>
      </trkpt>
      <trkpt lat="44.09447" lon="7.42834">
        <ele>2651.312</ele>
        <time>2020-06-27T08:47:54Z</time>
      </trkpt>
      <trkpt lat="44.09456" lon="7.42832">
        <ele>2651.728</ele>
        <time>2020-06-27T08:48:10Z</time>
      </trkpt>
      <trkpt lat="44.09468" lon="7.42831">
        <ele>2653.572</ele>
        <time>2020-06-27T08:48:25Z</time>
      </trkpt>
      <trkpt lat="44.09473" lon="7.4283">
        <ele>2654.836</ele>
        <time>2020-06-27T08:48:41Z</time>
      </trkpt>
      <trkpt lat="44.09484" lon="7.42832">
        <ele>2656.804</ele>
        <time>2020-06-27T08:48:57Z</time>
      </trkpt>
      <trkpt lat="44.09486" lon="7.42821">
        <ele>2661.143</ele>
        <time>2020-06-27T08:49:13Z</time>
      </trkpt>
      <trkpt lat="44.09487" lon="7.42821">
        <ele>2662.082</ele>
        <time>2020-06-27T08:49:29Z</time>
      </trkpt>
      <trkpt lat="44.0949" lon="7.42823">
        <ele>2661.733</ele>
        <time>2020-06-27T08:49:44Z</time>
      </trkpt>
      <trkpt lat="44.09492" lon="7.42803">
        <ele>2662.241</ele>
        <time>2020-06-27T08:50:00Z</time>
      </trkpt>
      <trkpt lat="44.09498" lon="7.42795">
        <ele>2667.312</ele>
        <time>2020-06-27T08:50:16Z</time>
      </trkpt>
      <trkpt lat="44.09505" lon="7.42795">
        <ele>2670.853</ele>
        <time>2020-06-27T08:50:32Z</time>
      </trkpt>
      <trkpt lat="44.09521" lon="7.42795">
        <ele>2670.766</ele>
        <time>2020-06-27T08:50:48Z</time>
      </trkpt>
      <trkpt lat="44.09526" lon="7.42789">
        <ele>2673.895</ele>
        <time>2020-06-27T08:51:03Z</time>
      </trkpt>
      <trkpt lat="44.09528" lon="7.42784">
        <ele>2676.071</ele>
        <time>2020-06-27T08:51:19Z</time>
      </trkpt>
      <trkpt lat="44.09537" lon="7.42791">
        <ele>2677.87</ele>
        <time>2020-06-27T08:51:34Z</time>
      </trkpt>
      <trkpt lat="44.09538" lon="7.42792">
        <ele>2676.642</ele>
        <time>2020-06-27T08:51:49Z</time>
      </trkpt>
      <trkpt lat="44.09542" lon="7.42794">
        <ele>2679.573</ele>
        <time>2020-06-27T08:52:05Z</time>
      </trkpt>
      <trkpt lat="44.09552" lon="7.428">
        <ele>2680.031</ele>
        <time>2020-06-27T08:52:21Z</time>
      </trkpt>
      <trkpt lat="44.0956" lon="7.42798">
        <ele>2683.912</ele>
        <time>2020-06-27T08:52:36Z</time>
      </trkpt>
      <trkpt lat="44.09571" lon="7.42798">
        <ele>2688.945</ele>
        <time>2020-06-27T08:52:52Z</time>
      </trkpt>
      <trkpt lat="44.09567" lon="7.42795">
        <ele>2692.117</ele>
        <time>2020-06-27T08:53:07Z</time>
      </trkpt>
      <trkpt lat="44.09567" lon="7.42788">
        <ele>2693.01</ele>
        <time>2020-06-27T08:53:23Z</time>
      </trkpt>
      <trkpt lat="44.09569" lon="7.42784">
        <ele>2692.362</ele>
        <time>2020-06-27T08:53:39Z</time>
      </trkpt>
      <trkpt lat="44.09574" lon="7.42779">
        <ele>2691.703</ele>
        <time>2020-06-27T08:53:54Z</time>
      </trkpt>
      <trkpt lat="44.09579" lon="7.42774">
        <ele>2695.03</ele>
        <time>2020-06-27T08:54:10Z</time>
      </trkpt>
      <trkpt lat="44.09579" lon="7.42774">
        <ele>2695.03</ele>
        <time>2020-06-27T08:54:26Z</time>
      </trkpt>
      <trkpt lat="44.09585" lon="7.42772">
        <ele>2695.129</ele>
        <time>2020-06-27T08:54:42Z</time>
      </trkpt>
      <trkpt lat="44.0959" lon="7.42766">
        <ele>2694.372</ele>
        <time>2020-06-27T08:54:57Z</time>
      </trkpt>
      <trkpt lat="44.09593" lon="7.42765">
        <ele>2692.562</ele>
        <time>2020-06-27T08:55:13Z</time>
      </trkpt>
      <trkpt lat="44.09592" lon="7.42763">
        <ele>2694.74</ele>
        <time>2020-06-27T08:55:28Z</time>
      </trkpt>
      <trkpt lat="44.09592" lon="7.42763">
        <ele>2694.74</ele>
        <time>2020-06-27T08:55:44Z</time>
      </trkpt>
      <trkpt lat="44.09591" lon="7.42762">
        <ele>2695.206</ele>
        <time>2020-06-27T08:56:00Z</time>
      </trkpt>
      <trkpt lat="44.09597" lon="7.42762">
        <ele>2698.253</ele>
        <time>2020-06-27T08:56:16Z</time>
      </trkpt>
      <trkpt lat="44.09598" lon="7.42761">
        <ele>2698.851</ele>
        <time>2020-06-27T08:56:32Z</time>
      </trkpt>
      <trkpt lat="44.09599" lon="7.42762">
        <ele>2701.432</ele>
        <time>2020-06-27T08:56:47Z</time>
      </trkpt>
      <trkpt lat="44.09611" lon="7.42761">
        <ele>2703.486</ele>
        <time>2020-06-27T08:57:02Z</time>
      </trkpt>
      <trkpt lat="44.09613" lon="7.42762">
        <ele>2708.218</ele>
        <time>2020-06-27T08:57:18Z</time>
      </trkpt>
      <trkpt lat="44.09617" lon="7.42761">
        <ele>2712.616</ele>
        <time>2020-06-27T08:57:33Z</time>
      </trkpt>
      <trkpt lat="44.09622" lon="7.42764">
        <ele>2716.064</ele>
        <time>2020-06-27T08:57:49Z</time>
      </trkpt>
      <trkpt lat="44.0963" lon="7.42771">
        <ele>2719.115</ele>
        <time>2020-06-27T08:58:05Z</time>
      </trkpt>
      <trkpt lat="44.0964" lon="7.42781">
        <ele>2726.649</ele>
        <time>2020-06-27T08:58:21Z</time>
      </trkpt>
      <trkpt lat="44.09644" lon="7.42787">
        <ele>2724.851</ele>
        <time>2020-06-27T08:58:37Z</time>
      </trkpt>
      <trkpt lat="44.09647" lon="7.4279">
        <ele>2725.577</ele>
        <time>2020-06-27T08:58:53Z</time>
      </trkpt>
      <trkpt lat="44.09656" lon="7.42787">
        <ele>2728.76</ele>
        <time>2020-06-27T08:59:08Z</time>
      </trkpt>
      <trkpt lat="44.09656" lon="7.42784">
        <ele>2729.008</ele>
        <time>2020-06-27T08:59:24Z</time>
      </trkpt>
      <trkpt lat="44.09657" lon="7.42783">
        <ele>2732.058</ele>
        <time>2020-06-27T08:59:39Z</time>
      </trkpt>
      <trkpt lat="44.09654" lon="7.42773">
        <ele>2736.777</ele>
        <time>2020-06-27T08:59:55Z</time>
      </trkpt>
      <trkpt lat="44.09653" lon="7.42768">
        <ele>2738.227</ele>
        <time>2020-06-27T09:00:10Z</time>
      </trkpt>
      <trkpt lat="44.09658" lon="7.42766">
        <ele>2736.731</ele>
        <time>2020-06-27T09:00:25Z</time>
      </trkpt>
      <trkpt lat="44.09663" lon="7.42765">
        <ele>2736.366</ele>
        <time>2020-06-27T09:00:41Z</time>
      </trkpt>
      <trkpt lat="44.09663" lon="7.42765">
        <ele>2736.366</ele>
        <time>2020-06-27T09:00:56Z</time>
      </trkpt>
      <trkpt lat="44.09663" lon="7.42765">
        <ele>2736.366</ele>
        <time>2020-06-27T09:01:12Z</time>
      </trkpt>
      <trkpt lat="44.09662" lon="7.42766">
        <ele>2735.939</ele>
        <time>2020-06-27T09:01:27Z</time>
      </trkpt>
      <trkpt lat="44.09666" lon="7.42765">
        <ele>2737.39</ele>
        <time>2020-06-27T09:01:43Z</time>
      </trkpt>
      <trkpt lat="44.09666" lon="7.42763">
        <ele>2738.935</ele>
        <time>2020-06-27T09:01:58Z</time>
      </trkpt>
      <trkpt lat="44.09665" lon="7.42764">
        <ele>2739.239</ele>
        <time>2020-06-27T09:02:14Z</time>
      </trkpt>
      <trkpt lat="44.09665" lon="7.42764">
        <ele>2739.239</ele>
        <time>2020-06-27T09:02:30Z</time>
      </trkpt>
      <trkpt lat="44.09665" lon="7.42764">
        <ele>2739.239</ele>
        <time>2020-06-27T09:02:46Z</time>
      </trkpt>
      <trkpt lat="44.09664" lon="7.42762">
        <ele>2739.45</ele>
        <time>2020-06-27T09:03:02Z</time>
      </trkpt>
      <trkpt lat="44.09663" lon="7.42761">
        <ele>2740.507</ele>
        <time>2020-06-27T09:03:18Z</time>
      </trkpt>
      <trkpt lat="44.09665" lon="7.4276">
        <ele>2738.522</ele>
        <time>2020-06-27T09:03:34Z</time>
      </trkpt>
      <trkpt lat="44.09662" lon="7.42759">
        <ele>2739.221</ele>
        <time>2020-06-27T09:03:50Z</time>
      </trkpt>
      <trkpt lat="44.09666" lon="7.42767">
        <ele>2738.376</ele>
        <time>2020-06-27T09:04:06Z</time>
      </trkpt>
      <trkpt lat="44.0967" lon="7.42767">
        <ele>2738.668</ele>
        <time>2020-06-27T09:04:22Z</time>
      </trkpt>
      <trkpt lat="44.0967" lon="7.42767">
        <ele>2738.668</ele>
        <time>2020-06-27T09:04:38Z</time>
      </trkpt>
      <trkpt lat="44.0967" lon="7.42763">
        <ele>2740.992</ele>
        <time>2020-06-27T09:04:54Z</time>
      </trkpt>
      <trkpt lat="44.0967" lon="7.42763">
        <ele>2740.992</ele>
        <time>2020-06-27T09:05:09Z</time>
      </trkpt>
      <trkpt lat="44.09669" lon="7.42765">
        <ele>2740.87</ele>
        <time>2020-06-27T09:05:25Z</time>
      </trkpt>
      <trkpt lat="44.09664" lon="7.42762">
        <ele>2741.405</ele>
        <time>2020-06-27T09:05:41Z</time>
      </trkpt>
      <trkpt lat="44.09666" lon="7.4276">
        <ele>2740.979</ele>
        <time>2020-06-27T09:05:56Z</time>
      </trkpt>
      <trkpt lat="44.09667" lon="7.42761">
        <ele>2740.353</ele>
        <time>2020-06-27T09:06:12Z</time>
      </trkpt>
      <trkpt lat="44.09666" lon="7.42757">
        <ele>2742.001</ele>
        <time>2020-06-27T09:06:27Z</time>
      </trkpt>
      <trkpt lat="44.09666" lon="7.42757">
        <ele>2742.001</ele>
        <time>2020-06-27T09:06:43Z</time>
      </trkpt>
      <trkpt lat="44.09665" lon="7.42753">
        <ele>2741.243</ele>
        <time>2020-06-27T09:06:58Z</time>
      </trkpt>
      <trkpt lat="44.09664" lon="7.4275">
        <ele>2740.87</ele>
        <time>2020-06-27T09:07:14Z</time>
      </trkpt>
      <trkpt lat="44.09665" lon="7.42746">
        <ele>2738.392</ele>
        <time>2020-06-27T09:07:29Z</time>
      </trkpt>
      <trkpt lat="44.09668" lon="7.42746">
        <ele>2734.73</ele>
        <time>2020-06-27T09:07:45Z</time>
      </trkpt>
      <trkpt lat="44.0967" lon="7.42748">
        <ele>2735.461</ele>
        <time>2020-06-27T09:08:01Z</time>
      </trkpt>
      <trkpt lat="44.0967" lon="7.42742">
        <ele>2732.699</ele>
        <time>2020-06-27T09:08:17Z</time>
      </trkpt>
      <trkpt lat="44.09667" lon="7.42736">
        <ele>2734.642</ele>
        <time>2020-06-27T09:08:33Z</time>
      </trkpt>
      <trkpt lat="44.09668" lon="7.42737">
        <ele>2736.047</ele>
        <time>2020-06-27T09:08:48Z</time>
      </trkpt>
      <trkpt lat="44.09668" lon="7.42737">
        <ele>2736.047</ele>
        <time>2020-06-27T09:09:04Z</time>
      </trkpt>
      <trkpt lat="44.09667" lon="7.42735">
        <ele>2735.527</ele>
        <time>2020-06-27T09:09:20Z</time>
      </trkpt>
      <trkpt lat="44.09666" lon="7.42731">
        <ele>2734.681</ele>
        <time>2020-06-27T09:09:35Z</time>
      </trkpt>
      <trkpt lat="44.09668" lon="7.42731">
        <ele>2729.976</ele>
        <time>2020-06-27T09:09:51Z</time>
      </trkpt>
      <trkpt lat="44.09668" lon="7.42728">
        <ele>2727.822</ele>
        <time>2020-06-27T09:10:07Z</time>
      </trkpt>
      <trkpt lat="44.09668" lon="7.42728">
        <ele>2727.822</ele>
        <time>2020-06-27T09:10:23Z</time>
      </trkpt>
      <trkpt lat="44.09668" lon="7.42728">
        <ele>2727.822</ele>
        <time>2020-06-27T09:10:39Z</time>
      </trkpt>
      <trkpt lat="44.09668" lon="7.42728">
        <ele>2727.822</ele>
        <time>2020-06-27T09:10:55Z</time>
      </trkpt>
      <trkpt lat="44.09669" lon="7.42728">
        <ele>2726.37</ele>
        <time>2020-06-27T09:11:10Z</time>
      </trkpt>
      <trkpt lat="44.09671" lon="7.42723">
        <ele>2722.991</ele>
        <time>2020-06-27T09:11:26Z</time>
      </trkpt>
      <trkpt lat="44.09668" lon="7.42722">
        <ele>2721.025</ele>
        <time>2020-06-27T09:11:41Z</time>
      </trkpt>
      <trkpt lat="44.09667" lon="7.42721">
        <ele>2720.57</ele>
        <time>2020-06-27T09:11:56Z</time>
      </trkpt>
      <trkpt lat="44.09665" lon="7.42715">
        <ele>2717.526</ele>
        <time>2020-06-27T09:12:12Z</time>
      </trkpt>
      <trkpt lat="44.09668" lon="7.42708">
        <ele>2708.072</ele>
        <time>2020-06-27T09:12:27Z</time>
      </trkpt>
      <trkpt lat="44.09665" lon="7.42705">
        <ele>2706.402</ele>
        <time>2020-06-27T09:12:43Z</time>
      </trkpt>
      <trkpt lat="44.09665" lon="7.42705">
        <ele>2706.402</ele>
        <time>2020-06-27T09:12:58Z</time>
      </trkpt>
      <trkpt lat="44.09659" lon="7.42698">
        <ele>2704.809</ele>
        <time>2020-06-27T09:13:14Z</time>
      </trkpt>
      <trkpt lat="44.09659" lon="7.42698">
        <ele>2700.698</ele>
        <time>2020-06-27T09:13:30Z</time>
      </trkpt>
      <trkpt lat="44.09659" lon="7.4269">
        <ele>2698.694</ele>
        <time>2020-06-27T09:13:46Z</time>
      </trkpt>
      <trkpt lat="44.09659" lon="7.4269">
        <ele>2698.694</ele>
        <time>2020-06-27T09:14:02Z</time>
      </trkpt>
      <trkpt lat="44.09659" lon="7.4269">
        <ele>2698.694</ele>
        <time>2020-06-27T09:14:17Z</time>
      </trkpt>
      <trkpt lat="44.09659" lon="7.4269">
        <ele>2698.694</ele>
        <time>2020-06-27T09:14:33Z</time>
      </trkpt>
      <trkpt lat="44.09655" lon="7.42692">
        <ele>2692.138</ele>
        <time>2020-06-27T09:14:49Z</time>
      </trkpt>
      <trkpt lat="44.09662" lon="7.42679">
        <ele>2701.718</ele>
        <time>2020-06-27T09:15:05Z</time>
      </trkpt>
      <trkpt lat="44.09662" lon="7.42679">
        <ele>2701.718</ele>
        <time>2020-06-27T09:15:21Z</time>
      </trkpt>
      <trkpt lat="44.09662" lon="7.42679">
        <ele>2701.718</ele>
        <time>2020-06-27T09:15:37Z</time>
      </trkpt>
      <trkpt lat="44.09662" lon="7.42679">
        <ele>2701.718</ele>
        <time>2020-06-27T09:15:52Z</time>
      </trkpt>
      <trkpt lat="44.09671" lon="7.42684">
        <ele>2697.252</ele>
        <time>2020-06-27T09:16:07Z</time>
      </trkpt>
      <trkpt lat="44.09678" lon="7.42693">
        <ele>2690.136</ele>
        <time>2020-06-27T09:16:22Z</time>
      </trkpt>
      <trkpt lat="44.09678" lon="7.42693">
        <ele>2690.136</ele>
        <time>2020-06-27T09:16:38Z</time>
      </trkpt>
      <trkpt lat="44.09681" lon="7.42692">
        <ele>2690.413</ele>
        <time>2020-06-27T09:16:54Z</time>
      </trkpt>
      <trkpt lat="44.09681" lon="7.42692">
        <ele>2690.413</ele>
        <time>2020-06-27T09:17:10Z</time>
      </trkpt>
      <trkpt lat="44.09681" lon="7.42692">
        <ele>2688.197</ele>
        <time>2020-06-27T09:17:26Z</time>
      </trkpt>
      <trkpt lat="44.09683" lon="7.4269">
        <ele>2687.684</ele>
        <time>2020-06-27T09:17:42Z</time>
      </trkpt>
      <trkpt lat="44.0969" lon="7.42681">
        <ele>2691.321</ele>
        <time>2020-06-27T09:17:58Z</time>
      </trkpt>
      <trkpt lat="44.09691" lon="7.42678">
        <ele>2691.086</ele>
        <time>2020-06-27T09:18:13Z</time>
      </trkpt>
      <trkpt lat="44.09693" lon="7.42678">
        <ele>2689.607</ele>
        <time>2020-06-27T09:18:28Z</time>
      </trkpt>
      <trkpt lat="44.09701" lon="7.42672">
        <ele>2681.77</ele>
        <time>2020-06-27T09:18:43Z</time>
      </trkpt>
      <trkpt lat="44.09709" lon="7.42674">
        <ele>2677.445</ele>
        <time>2020-06-27T09:18:58Z</time>
      </trkpt>
      <trkpt lat="44.09721" lon="7.42666">
        <ele>2672.627</ele>
        <time>2020-06-27T09:19:14Z</time>
      </trkpt>
      <trkpt lat="44.09728" lon="7.42645">
        <ele>2670.199</ele>
        <time>2020-06-27T09:19:29Z</time>
      </trkpt>
      <trkpt lat="44.09726" lon="7.42623">
        <ele>2668.501</ele>
        <time>2020-06-27T09:19:44Z</time>
      </trkpt>
      <trkpt lat="44.09727" lon="7.42609">
        <ele>2668.1</ele>
        <time>2020-06-27T09:20:00Z</time>
      </trkpt>
      <trkpt lat="44.09725" lon="7.42594">
        <ele>2668.026</ele>
        <time>2020-06-27T09:20:15Z</time>
      </trkpt>
      <trkpt lat="44.09724" lon="7.42585">
        <ele>2665.608</ele>
        <time>2020-06-27T09:20:31Z</time>
      </trkpt>
      <trkpt lat="44.09722" lon="7.42576">
        <ele>2665.359</ele>
        <time>2020-06-27T09:20:47Z</time>
      </trkpt>
      <trkpt lat="44.09725" lon="7.42565">
        <ele>2665.311</ele>
        <time>2020-06-27T09:21:03Z</time>
      </trkpt>
      <trkpt lat="44.09725" lon="7.42555">
        <ele>2664.387</ele>
        <time>2020-06-27T09:21:19Z</time>
      </trkpt>
      <trkpt lat="44.0973" lon="7.42542">
        <ele>2663.484</ele>
        <time>2020-06-27T09:21:35Z</time>
      </trkpt>
      <trkpt lat="44.09729" lon="7.42528">
        <ele>2661.355</ele>
        <time>2020-06-27T09:21:50Z</time>
      </trkpt>
      <trkpt lat="44.09729" lon="7.4252">
        <ele>2658.966</ele>
        <time>2020-06-27T09:22:06Z</time>
      </trkpt>
      <trkpt lat="44.09728" lon="7.42517">
        <ele>2659.281</ele>
        <time>2020-06-27T09:22:22Z</time>
      </trkpt>
      <trkpt lat="44.09725" lon="7.42503">
        <ele>2658.594</ele>
        <time>2020-06-27T09:22:38Z</time>
      </trkpt>
      <trkpt lat="44.09722" lon="7.425">
        <ele>2658.203</ele>
        <time>2020-06-27T09:22:53Z</time>
      </trkpt>
      <trkpt lat="44.09722" lon="7.425">
        <ele>2658.203</ele>
        <time>2020-06-27T09:23:09Z</time>
      </trkpt>
      <trkpt lat="44.09723" lon="7.42494">
        <ele>2657.078</ele>
        <time>2020-06-27T09:23:25Z</time>
      </trkpt>
      <trkpt lat="44.0972" lon="7.42489">
        <ele>2658.493</ele>
        <time>2020-06-27T09:23:41Z</time>
      </trkpt>
      <trkpt lat="44.0972" lon="7.42489">
        <ele>2658.493</ele>
        <time>2020-06-27T09:23:56Z</time>
      </trkpt>
      <trkpt lat="44.0972" lon="7.42489">
        <ele>2658.493</ele>
        <time>2020-06-27T09:24:12Z</time>
      </trkpt>
      <trkpt lat="44.0972" lon="7.42484">
        <ele>2656.799</ele>
        <time>2020-06-27T09:24:27Z</time>
      </trkpt>
      <trkpt lat="44.0972" lon="7.42484">
        <ele>2656.799</ele>
        <time>2020-06-27T09:24:43Z</time>
      </trkpt>
      <trkpt lat="44.0972" lon="7.42484">
        <ele>2656.799</ele>
        <time>2020-06-27T09:24:59Z</time>
      </trkpt>
      <trkpt lat="44.09721" lon="7.4248">
        <ele>2654.704</ele>
        <time>2020-06-27T09:25:14Z</time>
      </trkpt>
      <trkpt lat="44.09722" lon="7.42465">
        <ele>2649.765</ele>
        <time>2020-06-27T09:25:30Z</time>
      </trkpt>
      <trkpt lat="44.09722" lon="7.42461">
        <ele>2648.54</ele>
        <time>2020-06-27T09:25:46Z</time>
      </trkpt>
      <trkpt lat="44.09723" lon="7.42453">
        <ele>2646.03</ele>
        <time>2020-06-27T09:26:01Z</time>
      </trkpt>
      <trkpt lat="44.09726" lon="7.42442">
        <ele>2644.35</ele>
        <time>2020-06-27T09:26:16Z</time>
      </trkpt>
      <trkpt lat="44.09726" lon="7.42441">
        <ele>2644.104</ele>
        <time>2020-06-27T09:26:31Z</time>
      </trkpt>
      <trkpt lat="44.09724" lon="7.42429">
        <ele>2643.542</ele>
        <time>2020-06-27T09:26:47Z</time>
      </trkpt>
      <trkpt lat="44.09732" lon="7.42425">
        <ele>2639.935</ele>
        <time>2020-06-27T09:27:03Z</time>
      </trkpt>
      <trkpt lat="44.09731" lon="7.42424">
        <ele>2638.311</ele>
        <time>2020-06-27T09:27:19Z</time>
      </trkpt>
      <trkpt lat="44.09735" lon="7.42423">
        <ele>2637.784</ele>
        <time>2020-06-27T09:27:35Z</time>
      </trkpt>
      <trkpt lat="44.09735" lon="7.42423">
        <ele>2637.784</ele>
        <time>2020-06-27T09:27:51Z</time>
      </trkpt>
      <trkpt lat="44.09733" lon="7.42421">
        <ele>2636.468</ele>
        <time>2020-06-27T09:28:07Z</time>
      </trkpt>
      <trkpt lat="44.09733" lon="7.42421">
        <ele>2636.468</ele>
        <time>2020-06-27T09:28:23Z</time>
      </trkpt>
      <trkpt lat="44.09735" lon="7.42429">
        <ele>2632.642</ele>
        <time>2020-06-27T09:28:39Z</time>
      </trkpt>
      <trkpt lat="44.09738" lon="7.42431">
        <ele>2631.156</ele>
        <time>2020-06-27T09:28:55Z</time>
      </trkpt>
      <trkpt lat="44.09738" lon="7.42431">
        <ele>2631.156</ele>
        <time>2020-06-27T09:29:11Z</time>
      </trkpt>
      <trkpt lat="44.09738" lon="7.42433">
        <ele>2627.399</ele>
        <time>2020-06-27T09:29:27Z</time>
      </trkpt>
      <trkpt lat="44.09738" lon="7.42433">
        <ele>2627.399</ele>
        <time>2020-06-27T09:29:43Z</time>
      </trkpt>
      <trkpt lat="44.09741" lon="7.42429">
        <ele>2624.902</ele>
        <time>2020-06-27T09:29:58Z</time>
      </trkpt>
      <trkpt lat="44.09743" lon="7.4243">
        <ele>2623.523</ele>
        <time>2020-06-27T09:30:14Z</time>
      </trkpt>
      <trkpt lat="44.09743" lon="7.4243">
        <ele>2623.523</ele>
        <time>2020-06-27T09:30:29Z</time>
      </trkpt>
      <trkpt lat="44.09743" lon="7.4243">
        <ele>2623.523</ele>
        <time>2020-06-27T09:30:45Z</time>
      </trkpt>
      <trkpt lat="44.09746" lon="7.42428">
        <ele>2622.233</ele>
        <time>2020-06-27T09:31:01Z</time>
      </trkpt>
      <trkpt lat="44.0975" lon="7.42423">
        <ele>2621.561</ele>
        <time>2020-06-27T09:31:17Z</time>
      </trkpt>
      <trkpt lat="44.09747" lon="7.42418">
        <ele>2613.657</ele>
        <time>2020-06-27T09:31:33Z</time>
      </trkpt>
      <trkpt lat="44.09746" lon="7.42415">
        <ele>2613.494</ele>
        <time>2020-06-27T09:31:49Z</time>
      </trkpt>
      <trkpt lat="44.09752" lon="7.42407">
        <ele>2614.559</ele>
        <time>2020-06-27T09:32:05Z</time>
      </trkpt>
      <trkpt lat="44.09752" lon="7.42407">
        <ele>2614.559</ele>
        <time>2020-06-27T09:32:21Z</time>
      </trkpt>
      <trkpt lat="44.09752" lon="7.42407">
        <ele>2614.559</ele>
        <time>2020-06-27T09:32:37Z</time>
      </trkpt>
      <trkpt lat="44.0975" lon="7.42406">
        <ele>2609.921</ele>
        <time>2020-06-27T09:32:53Z</time>
      </trkpt>
      <trkpt lat="44.0975" lon="7.42403">
        <ele>2607.99</ele>
        <time>2020-06-27T09:33:09Z</time>
      </trkpt>
      <trkpt lat="44.09753" lon="7.42404">
        <ele>2606.505</ele>
        <time>2020-06-27T09:33:24Z</time>
      </trkpt>
      <trkpt lat="44.09752" lon="7.42403">
        <ele>2605.881</ele>
        <time>2020-06-27T09:33:39Z</time>
      </trkpt>
      <trkpt lat="44.09753" lon="7.42402">
        <ele>2604.696</ele>
        <time>2020-06-27T09:33:55Z</time>
      </trkpt>
      <trkpt lat="44.09753" lon="7.42402">
        <ele>2604.696</ele>
        <time>2020-06-27T09:34:11Z</time>
      </trkpt>
      <trkpt lat="44.09754" lon="7.42398">
        <ele>2604.367</ele>
        <time>2020-06-27T09:34:26Z</time>
      </trkpt>
      <trkpt lat="44.09756" lon="7.42388">
        <ele>2603.221</ele>
        <time>2020-06-27T09:34:42Z</time>
      </trkpt>
      <trkpt lat="44.09757" lon="7.42385">
        <ele>2604.119</ele>
        <time>2020-06-27T09:34:57Z</time>
      </trkpt>
      <trkpt lat="44.09757" lon="7.42384">
        <ele>2602.917</ele>
        <time>2020-06-27T09:35:13Z</time>
      </trkpt>
      <trkpt lat="44.09759" lon="7.42384">
        <ele>2601.224</ele>
        <time>2020-06-27T09:35:29Z</time>
      </trkpt>
      <trkpt lat="44.09763" lon="7.42381">
        <ele>2597.609</ele>
        <time>2020-06-27T09:35:45Z</time>
      </trkpt>
      <trkpt lat="44.09763" lon="7.42381">
        <ele>2597.609</ele>
        <time>2020-06-27T09:36:01Z</time>
      </trkpt>
      <trkpt lat="44.09765" lon="7.4237">
        <ele>2597.275</ele>
        <time>2020-06-27T09:36:16Z</time>
      </trkpt>
      <trkpt lat="44.09767" lon="7.42367">
        <ele>2595.926</ele>
        <time>2020-06-27T09:36:32Z</time>
      </trkpt>
      <trkpt lat="44.09768" lon="7.42367">
        <ele>2593.579</ele>
        <time>2020-06-27T09:36:48Z</time>
      </trkpt>
      <trkpt lat="44.0977" lon="7.42366">
        <ele>2591.804</ele>
        <time>2020-06-27T09:37:04Z</time>
      </trkpt>
      <trkpt lat="44.09774" lon="7.42361">
        <ele>2589.314</ele>
        <time>2020-06-27T09:37:20Z</time>
      </trkpt>
      <trkpt lat="44.09773" lon="7.42358">
        <ele>2586.21</ele>
        <time>2020-06-27T09:37:35Z</time>
      </trkpt>
      <trkpt lat="44.09775" lon="7.42357">
        <ele>2586.749</ele>
        <time>2020-06-27T09:37:50Z</time>
      </trkpt>
      <trkpt lat="44.09777" lon="7.42351">
        <ele>2581.719</ele>
        <time>2020-06-27T09:38:06Z</time>
      </trkpt>
      <trkpt lat="44.0978" lon="7.42349">
        <ele>2574.207</ele>
        <time>2020-06-27T09:38:21Z</time>
      </trkpt>
      <trkpt lat="44.09779" lon="7.42345">
        <ele>2570.858</ele>
        <time>2020-06-27T09:38:37Z</time>
      </trkpt>
      <trkpt lat="44.09788" lon="7.42343">
        <ele>2571.189</ele>
        <time>2020-06-27T09:38:53Z</time>
      </trkpt>
      <trkpt lat="44.09788" lon="7.42345">
        <ele>2570.731</ele>
        <time>2020-06-27T09:39:09Z</time>
      </trkpt>
      <trkpt lat="44.09795" lon="7.42342">
        <ele>2573.938</ele>
        <time>2020-06-27T09:39:24Z</time>
      </trkpt>
      <trkpt lat="44.09797" lon="7.42342">
        <ele>2574.525</ele>
        <time>2020-06-27T09:39:39Z</time>
      </trkpt>
      <trkpt lat="44.09797" lon="7.42341">
        <ele>2574.919</ele>
        <time>2020-06-27T09:39:55Z</time>
      </trkpt>
      <trkpt lat="44.09798" lon="7.42343">
        <ele>2570.443</ele>
        <time>2020-06-27T09:40:11Z</time>
      </trkpt>
      <trkpt lat="44.09796" lon="7.42342">
        <ele>2566.186</ele>
        <time>2020-06-27T09:40:27Z</time>
      </trkpt>
      <trkpt lat="44.09794" lon="7.42339">
        <ele>2564.997</ele>
        <time>2020-06-27T09:40:42Z</time>
      </trkpt>
      <trkpt lat="44.09798" lon="7.42332">
        <ele>2563.51</ele>
        <time>2020-06-27T09:40:58Z</time>
      </trkpt>
      <trkpt lat="44.09803" lon="7.42321">
        <ele>2560.738</ele>
        <time>2020-06-27T09:41:14Z</time>
      </trkpt>
      <trkpt lat="44.09807" lon="7.42316">
        <ele>2556.93</ele>
        <time>2020-06-27T09:41:29Z</time>
      </trkpt>
      <trkpt lat="44.09816" lon="7.42305">
        <ele>2554.402</ele>
        <time>2020-06-27T09:41:45Z</time>
      </trkpt>
      <trkpt lat="44.09817" lon="7.42287">
        <ele>2552.272</ele>
        <time>2020-06-27T09:42:01Z</time>
      </trkpt>
      <trkpt lat="44.0982" lon="7.42281">
        <ele>2550.595</ele>
        <time>2020-06-27T09:42:16Z</time>
      </trkpt>
      <trkpt lat="44.09822" lon="7.42271">
        <ele>2540.898</ele>
        <time>2020-06-27T09:42:32Z</time>
      </trkpt>
      <trkpt lat="44.09825" lon="7.42262">
        <ele>2533.814</ele>
        <time>2020-06-27T09:42:47Z</time>
      </trkpt>
      <trkpt lat="44.09831" lon="7.42247">
        <ele>2526.269</ele>
        <time>2020-06-27T09:43:02Z</time>
      </trkpt>
      <trkpt lat="44.09831" lon="7.42245">
        <ele>2528.582</ele>
        <time>2020-06-27T09:43:17Z</time>
      </trkpt>
      <trkpt lat="44.09833" lon="7.42236">
        <ele>2522.559</ele>
        <time>2020-06-27T09:43:33Z</time>
      </trkpt>
      <trkpt lat="44.09836" lon="7.42222">
        <ele>2517.762</ele>
        <time>2020-06-27T09:43:49Z</time>
      </trkpt>
      <trkpt lat="44.0984" lon="7.42213">
        <ele>2512.77</ele>
        <time>2020-06-27T09:44:04Z</time>
      </trkpt>
      <trkpt lat="44.09845" lon="7.42207">
        <ele>2507.084</ele>
        <time>2020-06-27T09:44:19Z</time>
      </trkpt>
      <trkpt lat="44.09847" lon="7.42192">
        <ele>2504.926</ele>
        <time>2020-06-27T09:44:34Z</time>
      </trkpt>
      <trkpt lat="44.09847" lon="7.42192">
        <ele>2504.926</ele>
        <time>2020-06-27T09:44:50Z</time>
      </trkpt>
      <trkpt lat="44.09848" lon="7.42185">
        <ele>2504.836</ele>
        <time>2020-06-27T09:45:05Z</time>
      </trkpt>
      <trkpt lat="44.09851" lon="7.42174">
        <ele>2503.149</ele>
        <time>2020-06-27T09:45:20Z</time>
      </trkpt>
      <trkpt lat="44.09849" lon="7.42157">
        <ele>2505.461</ele>
        <time>2020-06-27T09:45:36Z</time>
      </trkpt>
      <trkpt lat="44.0985" lon="7.42143">
        <ele>2503.534</ele>
        <time>2020-06-27T09:45:51Z</time>
      </trkpt>
      <trkpt lat="44.09849" lon="7.42123">
        <ele>2500.763</ele>
        <time>2020-06-27T09:46:07Z</time>
      </trkpt>
      <trkpt lat="44.09844" lon="7.42122">
        <ele>2495.105</ele>
        <time>2020-06-27T09:46:23Z</time>
      </trkpt>
      <trkpt lat="44.09844" lon="7.42122">
        <ele>2495.105</ele>
        <time>2020-06-27T09:46:38Z</time>
      </trkpt>
      <trkpt lat="44.0985" lon="7.42114">
        <ele>2490.892</ele>
        <time>2020-06-27T09:46:54Z</time>
      </trkpt>
      <trkpt lat="44.09857" lon="7.42099">
        <ele>2491.667</ele>
        <time>2020-06-27T09:47:10Z</time>
      </trkpt>
      <trkpt lat="44.09859" lon="7.42084">
        <ele>2485.056</ele>
        <time>2020-06-27T09:47:25Z</time>
      </trkpt>
      <trkpt lat="44.09861" lon="7.4207">
        <ele>2478.967</ele>
        <time>2020-06-27T09:47:41Z</time>
      </trkpt>
      <trkpt lat="44.09867" lon="7.42062">
        <ele>2472.645</ele>
        <time>2020-06-27T09:47:57Z</time>
      </trkpt>
      <trkpt lat="44.09872" lon="7.42047">
        <ele>2469.857</ele>
        <time>2020-06-27T09:48:12Z</time>
      </trkpt>
      <trkpt lat="44.09874" lon="7.42038">
        <ele>2470.206</ele>
        <time>2020-06-27T09:48:28Z</time>
      </trkpt>
      <trkpt lat="44.09877" lon="7.42028">
        <ele>2472.746</ele>
        <time>2020-06-27T09:48:44Z</time>
      </trkpt>
      <trkpt lat="44.09878" lon="7.42015">
        <ele>2470.919</ele>
        <time>2020-06-27T09:48:59Z</time>
      </trkpt>
      <trkpt lat="44.09879" lon="7.42012">
        <ele>2469.552</ele>
        <time>2020-06-27T09:49:14Z</time>
      </trkpt>
      <trkpt lat="44.09877" lon="7.42003">
        <ele>2465.887</ele>
        <time>2020-06-27T09:49:29Z</time>
      </trkpt>
      <trkpt lat="44.09885" lon="7.41988">
        <ele>2458.507</ele>
        <time>2020-06-27T09:49:45Z</time>
      </trkpt>
      <trkpt lat="44.09888" lon="7.41972">
        <ele>2448.762</ele>
        <time>2020-06-27T09:50:01Z</time>
      </trkpt>
      <trkpt lat="44.09896" lon="7.41965">
        <ele>2438.443</ele>
        <time>2020-06-27T09:50:16Z</time>
      </trkpt>
      <trkpt lat="44.09901" lon="7.41949">
        <ele>2438.427</ele>
        <time>2020-06-27T09:50:31Z</time>
      </trkpt>
      <trkpt lat="44.09906" lon="7.41934">
        <ele>2428.178</ele>
        <time>2020-06-27T09:50:47Z</time>
      </trkpt>
      <trkpt lat="44.09906" lon="7.41916">
        <ele>2417.28</ele>
        <time>2020-06-27T09:51:03Z</time>
      </trkpt>
      <trkpt lat="44.09911" lon="7.41901">
        <ele>2415.89</ele>
        <time>2020-06-27T09:51:19Z</time>
      </trkpt>
      <trkpt lat="44.09912" lon="7.41895">
        <ele>2413.71</ele>
        <time>2020-06-27T09:51:35Z</time>
      </trkpt>
      <trkpt lat="44.09927" lon="7.4188">
        <ele>2416.461</ele>
        <time>2020-06-27T09:51:50Z</time>
      </trkpt>
      <trkpt lat="44.09936" lon="7.41867">
        <ele>2417.772</ele>
        <time>2020-06-27T09:52:06Z</time>
      </trkpt>
      <trkpt lat="44.09948" lon="7.41863">
        <ele>2416.407</ele>
        <time>2020-06-27T09:52:22Z</time>
      </trkpt>
      <trkpt lat="44.09949" lon="7.41851">
        <ele>2414.534</ele>
        <time>2020-06-27T09:52:37Z</time>
      </trkpt>
      <trkpt lat="44.09945" lon="7.4184">
        <ele>2415.929</ele>
        <time>2020-06-27T09:52:53Z</time>
      </trkpt>
      <trkpt lat="44.09947" lon="7.41829">
        <ele>2413.348</ele>
        <time>2020-06-27T09:53:09Z</time>
      </trkpt>
      <trkpt lat="44.09955" lon="7.41834">
        <ele>2413.284</ele>
        <time>2020-06-27T09:53:25Z</time>
      </trkpt>
      <trkpt lat="44.09955" lon="7.41834">
        <ele>2413.284</ele>
        <time>2020-06-27T09:53:40Z</time>
      </trkpt>
      <trkpt lat="44.09955" lon="7.41834">
        <ele>2413.284</ele>
        <time>2020-06-27T09:53:56Z</time>
      </trkpt>
      <trkpt lat="44.09955" lon="7.41834">
        <ele>2413.284</ele>
        <time>2020-06-27T09:54:11Z</time>
      </trkpt>
      <trkpt lat="44.09953" lon="7.41831">
        <ele>2412.107</ele>
        <time>2020-06-27T09:54:27Z</time>
      </trkpt>
      <trkpt lat="44.09964" lon="7.41815">
        <ele>2413.931</ele>
        <time>2020-06-27T09:54:43Z</time>
      </trkpt>
      <trkpt lat="44.09964" lon="7.418">
        <ele>2415.064</ele>
        <time>2020-06-27T09:54:59Z</time>
      </trkpt>
      <trkpt lat="44.0997" lon="7.41782">
        <ele>2415.266</ele>
        <time>2020-06-27T09:55:15Z</time>
      </trkpt>
      <trkpt lat="44.09984" lon="7.41776">
        <ele>2418.294</ele>
        <time>2020-06-27T09:55:31Z</time>
      </trkpt>
      <trkpt lat="44.09996" lon="7.41759">
        <ele>2417.359</ele>
        <time>2020-06-27T09:55:46Z</time>
      </trkpt>
      <trkpt lat="44.10004" lon="7.41751">
        <ele>2413.956</ele>
        <time>2020-06-27T09:56:02Z</time>
      </trkpt>
      <trkpt lat="44.10012" lon="7.41735">
        <ele>2415.322</ele>
        <time>2020-06-27T09:56:17Z</time>
      </trkpt>
      <trkpt lat="44.10012" lon="7.41726">
        <ele>2415.798</ele>
        <time>2020-06-27T09:56:33Z</time>
      </trkpt>
      <trkpt lat="44.10019" lon="7.41715">
        <ele>2415.117</ele>
        <time>2020-06-27T09:56:48Z</time>
      </trkpt>
      <trkpt lat="44.10026" lon="7.41707">
        <ele>2413.047</ele>
        <time>2020-06-27T09:57:03Z</time>
      </trkpt>
      <trkpt lat="44.10027" lon="7.41691">
        <ele>2408.968</ele>
        <time>2020-06-27T09:57:19Z</time>
      </trkpt>
      <trkpt lat="44.10023" lon="7.41689">
        <ele>2406.139</ele>
        <time>2020-06-27T09:57:35Z</time>
      </trkpt>
      <trkpt lat="44.10036" lon="7.41694">
        <ele>2414.177</ele>
        <time>2020-06-27T09:57:50Z</time>
      </trkpt>
      <trkpt lat="44.10054" lon="7.41693">
        <ele>2416.491</ele>
        <time>2020-06-27T09:58:06Z</time>
      </trkpt>
      <trkpt lat="44.10061" lon="7.41687">
        <ele>2417.528</ele>
        <time>2020-06-27T09:58:22Z</time>
      </trkpt>
      <trkpt lat="44.10074" lon="7.41682">
        <ele>2414.056</ele>
        <time>2020-06-27T09:58:37Z</time>
      </trkpt>
      <trkpt lat="44.10078" lon="7.41677">
        <ele>2415.19</ele>
        <time>2020-06-27T09:58:52Z</time>
      </trkpt>
      <trkpt lat="44.10073" lon="7.41674">
        <ele>2414.837</ele>
        <time>2020-06-27T09:59:07Z</time>
      </trkpt>
      <trkpt lat="44.10075" lon="7.41678">
        <ele>2415.212</ele>
        <time>2020-06-27T09:59:23Z</time>
      </trkpt>
      <trkpt lat="44.10075" lon="7.41678">
        <ele>2415.212</ele>
        <time>2020-06-27T09:59:38Z</time>
      </trkpt>
      <trkpt lat="44.10075" lon="7.41678">
        <ele>2416.739</ele>
        <time>2020-06-27T09:59:54Z</time>
      </trkpt>
      <trkpt lat="44.10075" lon="7.4167">
        <ele>2415.593</ele>
        <time>2020-06-27T10:00:09Z</time>
      </trkpt>
      <trkpt lat="44.10074" lon="7.4167">
        <ele>2417.612</ele>
        <time>2020-06-27T10:00:25Z</time>
      </trkpt>
      <trkpt lat="44.10074" lon="7.4167">
        <ele>2417.612</ele>
        <time>2020-06-27T10:00:40Z</time>
      </trkpt>
      <trkpt lat="44.10074" lon="7.41667">
        <ele>2418.673</ele>
        <time>2020-06-27T10:00:56Z</time>
      </trkpt>
      <trkpt lat="44.10089" lon="7.4168">
        <ele>2415.956</ele>
        <time>2020-06-27T10:01:12Z</time>
      </trkpt>
      <trkpt lat="44.10092" lon="7.41678">
        <ele>2414.452</ele>
        <time>2020-06-27T10:01:27Z</time>
      </trkpt>
      <trkpt lat="44.10098" lon="7.41679">
        <ele>2414.26</ele>
        <time>2020-06-27T10:01:43Z</time>
      </trkpt>
      <trkpt lat="44.10102" lon="7.4168">
        <ele>2410.938</ele>
        <time>2020-06-27T10:01:59Z</time>
      </trkpt>
      <trkpt lat="44.10108" lon="7.41683">
        <ele>2410.953</ele>
        <time>2020-06-27T10:02:15Z</time>
      </trkpt>
      <trkpt lat="44.1011" lon="7.41681">
        <ele>2412.489</ele>
        <time>2020-06-27T10:02:30Z</time>
      </trkpt>
      <trkpt lat="44.1011" lon="7.41671">
        <ele>2414.054</ele>
        <time>2020-06-27T10:02:45Z</time>
      </trkpt>
      <trkpt lat="44.10111" lon="7.41662">
        <ele>2415.423</ele>
        <time>2020-06-27T10:03:00Z</time>
      </trkpt>
      <trkpt lat="44.10113" lon="7.41654">
        <ele>2420.272</ele>
        <time>2020-06-27T10:03:16Z</time>
      </trkpt>
      <trkpt lat="44.10119" lon="7.41645">
        <ele>2420.961</ele>
        <time>2020-06-27T10:03:31Z</time>
      </trkpt>
      <trkpt lat="44.10117" lon="7.41625">
        <ele>2419.306</ele>
        <time>2020-06-27T10:03:46Z</time>
      </trkpt>
      <trkpt lat="44.10119" lon="7.41598">
        <ele>2427.531</ele>
        <time>2020-06-27T10:04:02Z</time>
      </trkpt>
      <trkpt lat="44.10122" lon="7.41587">
        <ele>2423.712</ele>
        <time>2020-06-27T10:04:18Z</time>
      </trkpt>
      <trkpt lat="44.10121" lon="7.41564">
        <ele>2422.219</ele>
        <time>2020-06-27T10:04:34Z</time>
      </trkpt>
      <trkpt lat="44.10131" lon="7.41548">
        <ele>2418.469</ele>
        <time>2020-06-27T10:04:49Z</time>
      </trkpt>
      <trkpt lat="44.10128" lon="7.41532">
        <ele>2413.453</ele>
        <time>2020-06-27T10:05:04Z</time>
      </trkpt>
      <trkpt lat="44.10125" lon="7.41522">
        <ele>2413.179</ele>
        <time>2020-06-27T10:05:19Z</time>
      </trkpt>
      <trkpt lat="44.10125" lon="7.41522">
        <ele>2413.179</ele>
        <time>2020-06-27T10:05:35Z</time>
      </trkpt>
      <trkpt lat="44.10128" lon="7.41508">
        <ele>2420.959</ele>
        <time>2020-06-27T10:05:51Z</time>
      </trkpt>
      <trkpt lat="44.1013" lon="7.41477">
        <ele>2418.79</ele>
        <time>2020-06-27T10:06:06Z</time>
      </trkpt>
      <trkpt lat="44.10129" lon="7.41454">
        <ele>2420.924</ele>
        <time>2020-06-27T10:06:22Z</time>
      </trkpt>
      <trkpt lat="44.10126" lon="7.41431">
        <ele>2422.449</ele>
        <time>2020-06-27T10:06:37Z</time>
      </trkpt>
      <trkpt lat="44.10125" lon="7.41408">
        <ele>2422.764</ele>
        <time>2020-06-27T10:06:53Z</time>
      </trkpt>
      <trkpt lat="44.10118" lon="7.41379">
        <ele>2420.88</ele>
        <time>2020-06-27T10:07:09Z</time>
      </trkpt>
      <trkpt lat="44.10121" lon="7.41353">
        <ele>2423.641</ele>
        <time>2020-06-27T10:07:24Z</time>
      </trkpt>
      <trkpt lat="44.10122" lon="7.41353">
        <ele>2422.241</ele>
        <time>2020-06-27T10:07:40Z</time>
      </trkpt>
      <trkpt lat="44.10122" lon="7.41353">
        <ele>2424.116</ele>
        <time>2020-06-27T10:07:55Z</time>
      </trkpt>
      <trkpt lat="44.1012" lon="7.41328">
        <ele>2424.61</ele>
        <time>2020-06-27T10:08:10Z</time>
      </trkpt>
      <trkpt lat="44.10119" lon="7.41312">
        <ele>2422.437</ele>
        <time>2020-06-27T10:08:26Z</time>
      </trkpt>
      <trkpt lat="44.10113" lon="7.41295">
        <ele>2421.302</ele>
        <time>2020-06-27T10:08:41Z</time>
      </trkpt>
      <trkpt lat="44.10109" lon="7.41275">
        <ele>2409.897</ele>
        <time>2020-06-27T10:08:56Z</time>
      </trkpt>
      <trkpt lat="44.10106" lon="7.41261">
        <ele>2408.51</ele>
        <time>2020-06-27T10:09:11Z</time>
      </trkpt>
      <trkpt lat="44.10107" lon="7.41243">
        <ele>2410.657</ele>
        <time>2020-06-27T10:09:26Z</time>
      </trkpt>
      <trkpt lat="44.10109" lon="7.41228">
        <ele>2412.905</ele>
        <time>2020-06-27T10:09:42Z</time>
      </trkpt>
      <trkpt lat="44.10104" lon="7.41218">
        <ele>2415.342</ele>
        <time>2020-06-27T10:09:57Z</time>
      </trkpt>
      <trkpt lat="44.10098" lon="7.412">
        <ele>2408.677</ele>
        <time>2020-06-27T10:10:12Z</time>
      </trkpt>
      <trkpt lat="44.10092" lon="7.41194">
        <ele>2405.304</ele>
        <time>2020-06-27T10:10:28Z</time>
      </trkpt>
      <trkpt lat="44.10094" lon="7.41188">
        <ele>2407.056</ele>
        <time>2020-06-27T10:10:44Z</time>
      </trkpt>
      <trkpt lat="44.10097" lon="7.41181">
        <ele>2407.814</ele>
        <time>2020-06-27T10:11:00Z</time>
      </trkpt>
      <trkpt lat="44.10098" lon="7.41168">
        <ele>2406.831</ele>
        <time>2020-06-27T10:11:16Z</time>
      </trkpt>
      <trkpt lat="44.10098" lon="7.4115">
        <ele>2409.449</ele>
        <time>2020-06-27T10:11:31Z</time>
      </trkpt>
      <trkpt lat="44.10098" lon="7.41128">
        <ele>2414.53</ele>
        <time>2020-06-27T10:11:47Z</time>
      </trkpt>
      <trkpt lat="44.10097" lon="7.41101">
        <ele>2407.472</ele>
        <time>2020-06-27T10:12:03Z</time>
      </trkpt>
      <trkpt lat="44.10099" lon="7.41095">
        <ele>2402.034</ele>
        <time>2020-06-27T10:12:18Z</time>
      </trkpt>
      <trkpt lat="44.10106" lon="7.41083">
        <ele>2405.417</ele>
        <time>2020-06-27T10:12:34Z</time>
      </trkpt>
      <trkpt lat="44.10112" lon="7.41059">
        <ele>2408.285</ele>
        <time>2020-06-27T10:12:50Z</time>
      </trkpt>
      <trkpt lat="44.10119" lon="7.4103">
        <ele>2410.167</ele>
        <time>2020-06-27T10:13:06Z</time>
      </trkpt>
      <trkpt lat="44.10123" lon="7.41018">
        <ele>2408.125</ele>
        <time>2020-06-27T10:13:21Z</time>
      </trkpt>
      <trkpt lat="44.10129" lon="7.41012">
        <ele>2407.416</ele>
        <time>2020-06-27T10:13:37Z</time>
      </trkpt>
      <trkpt lat="44.10135" lon="7.41005">
        <ele>2407.885</ele>
        <time>2020-06-27T10:13:53Z</time>
      </trkpt>
      <trkpt lat="44.10142" lon="7.40985">
        <ele>2406.166</ele>
        <time>2020-06-27T10:14:08Z</time>
      </trkpt>
      <trkpt lat="44.10138" lon="7.40966">
        <ele>2410.947</ele>
        <time>2020-06-27T10:14:24Z</time>
      </trkpt>
      <trkpt lat="44.10137" lon="7.40949">
        <ele>2411.42</ele>
        <time>2020-06-27T10:14:39Z</time>
      </trkpt>
      <trkpt lat="44.10139" lon="7.4094">
        <ele>2409.217</ele>
        <time>2020-06-27T10:14:55Z</time>
      </trkpt>
      <trkpt lat="44.10141" lon="7.40939">
        <ele>2407.247</ele>
        <time>2020-06-27T10:15:10Z</time>
      </trkpt>
      <trkpt lat="44.10141" lon="7.4094">
        <ele>2409.418</ele>
        <time>2020-06-27T10:15:26Z</time>
      </trkpt>
      <trkpt lat="44.10141" lon="7.40939">
        <ele>2410.062</ele>
        <time>2020-06-27T10:15:42Z</time>
      </trkpt>
      <trkpt lat="44.10141" lon="7.40939">
        <ele>2410.062</ele>
        <time>2020-06-27T10:15:58Z</time>
      </trkpt>
      <trkpt lat="44.10141" lon="7.40939">
        <ele>2410.062</ele>
        <time>2020-06-27T10:16:13Z</time>
      </trkpt>
      <trkpt lat="44.1014" lon="7.40936">
        <ele>2408.466</ele>
        <time>2020-06-27T10:16:29Z</time>
      </trkpt>
      <trkpt lat="44.10142" lon="7.40921">
        <ele>2411.649</ele>
        <time>2020-06-27T10:16:44Z</time>
      </trkpt>
      <trkpt lat="44.10148" lon="7.40904">
        <ele>2409.953</ele>
        <time>2020-06-27T10:17:00Z</time>
      </trkpt>
      <trkpt lat="44.10159" lon="7.40901">
        <ele>2408.754</ele>
        <time>2020-06-27T10:17:15Z</time>
      </trkpt>
      <trkpt lat="44.10169" lon="7.40903">
        <ele>2405.983</ele>
        <time>2020-06-27T10:17:31Z</time>
      </trkpt>
      <trkpt lat="44.10168" lon="7.40899">
        <ele>2407.757</ele>
        <time>2020-06-27T10:17:47Z</time>
      </trkpt>
      <trkpt lat="44.10171" lon="7.40902">
        <ele>2406.658</ele>
        <time>2020-06-27T10:18:03Z</time>
      </trkpt>
      <trkpt lat="44.10178" lon="7.40905">
        <ele>2405.769</ele>
        <time>2020-06-27T10:18:18Z</time>
      </trkpt>
      <trkpt lat="44.1018" lon="7.40906">
        <ele>2405.685</ele>
        <time>2020-06-27T10:18:34Z</time>
      </trkpt>
      <trkpt lat="44.1018" lon="7.40897">
        <ele>2405.174</ele>
        <time>2020-06-27T10:18:50Z</time>
      </trkpt>
      <trkpt lat="44.10183" lon="7.40889">
        <ele>2403.248</ele>
        <time>2020-06-27T10:19:06Z</time>
      </trkpt>
      <trkpt lat="44.10182" lon="7.40883">
        <ele>2399.616</ele>
        <time>2020-06-27T10:19:21Z</time>
      </trkpt>
      <trkpt lat="44.10183" lon="7.4087">
        <ele>2397.192</ele>
        <time>2020-06-27T10:19:37Z</time>
      </trkpt>
      <trkpt lat="44.10187" lon="7.40862">
        <ele>2391.205</ele>
        <time>2020-06-27T10:19:52Z</time>
      </trkpt>
      <trkpt lat="44.1019" lon="7.40852">
        <ele>2388.802</ele>
        <time>2020-06-27T10:20:08Z</time>
      </trkpt>
      <trkpt lat="44.10191" lon="7.40838">
        <ele>2389.892</ele>
        <time>2020-06-27T10:20:23Z</time>
      </trkpt>
      <trkpt lat="44.10196" lon="7.40821">
        <ele>2387.222</ele>
        <time>2020-06-27T10:20:39Z</time>
      </trkpt>
      <trkpt lat="44.10203" lon="7.40801">
        <ele>2385.145</ele>
        <time>2020-06-27T10:20:54Z</time>
      </trkpt>
      <trkpt lat="44.10207" lon="7.40789">
        <ele>2381.883</ele>
        <time>2020-06-27T10:21:10Z</time>
      </trkpt>
      <trkpt lat="44.10218" lon="7.40781">
        <ele>2379.603</ele>
        <time>2020-06-27T10:21:26Z</time>
      </trkpt>
      <trkpt lat="44.10227" lon="7.40776">
        <ele>2375.308</ele>
        <time>2020-06-27T10:21:42Z</time>
      </trkpt>
      <trkpt lat="44.10232" lon="7.40771">
        <ele>2373.202</ele>
        <time>2020-06-27T10:21:57Z</time>
      </trkpt>
      <trkpt lat="44.10245" lon="7.40766">
        <ele>2372.731</ele>
        <time>2020-06-27T10:22:13Z</time>
      </trkpt>
      <trkpt lat="44.10256" lon="7.40764">
        <ele>2371.035</ele>
        <time>2020-06-27T10:22:28Z</time>
      </trkpt>
      <trkpt lat="44.10262" lon="7.40771">
        <ele>2367.029</ele>
        <time>2020-06-27T10:22:43Z</time>
      </trkpt>
      <trkpt lat="44.10273" lon="7.40775">
        <ele>2362.041</ele>
        <time>2020-06-27T10:22:59Z</time>
      </trkpt>
      <trkpt lat="44.10275" lon="7.40783">
        <ele>2362.723</ele>
        <time>2020-06-27T10:23:15Z</time>
      </trkpt>
      <trkpt lat="44.1028" lon="7.40783">
        <ele>2363.813</ele>
        <time>2020-06-27T10:23:31Z</time>
      </trkpt>
      <trkpt lat="44.10292" lon="7.40784">
        <ele>2359.714</ele>
        <time>2020-06-27T10:23:47Z</time>
      </trkpt>
      <trkpt lat="44.10298" lon="7.40799">
        <ele>2357.754</ele>
        <time>2020-06-27T10:24:03Z</time>
      </trkpt>
      <trkpt lat="44.10302" lon="7.40802">
        <ele>2354.938</ele>
        <time>2020-06-27T10:24:19Z</time>
      </trkpt>
      <trkpt lat="44.10306" lon="7.40801">
        <ele>2352.677</ele>
        <time>2020-06-27T10:24:34Z</time>
      </trkpt>
      <trkpt lat="44.10308" lon="7.40803">
        <ele>2352.139</ele>
        <time>2020-06-27T10:24:50Z</time>
      </trkpt>
      <trkpt lat="44.10307" lon="7.40794">
        <ele>2353.238</ele>
        <time>2020-06-27T10:25:06Z</time>
      </trkpt>
      <trkpt lat="44.10309" lon="7.40777">
        <ele>2349.78</ele>
        <time>2020-06-27T10:25:22Z</time>
      </trkpt>
      <trkpt lat="44.10314" lon="7.40769">
        <ele>2345.236</ele>
        <time>2020-06-27T10:25:37Z</time>
      </trkpt>
      <trkpt lat="44.10316" lon="7.40758">
        <ele>2342.166</ele>
        <time>2020-06-27T10:25:53Z</time>
      </trkpt>
      <trkpt lat="44.10315" lon="7.40741">
        <ele>2337.285</ele>
        <time>2020-06-27T10:26:09Z</time>
      </trkpt>
      <trkpt lat="44.10313" lon="7.40727">
        <ele>2336.569</ele>
        <time>2020-06-27T10:26:24Z</time>
      </trkpt>
      <trkpt lat="44.10315" lon="7.40711">
        <ele>2334.66</ele>
        <time>2020-06-27T10:26:40Z</time>
      </trkpt>
      <trkpt lat="44.10318" lon="7.40706">
        <ele>2333.054</ele>
        <time>2020-06-27T10:26:56Z</time>
      </trkpt>
      <trkpt lat="44.1032" lon="7.40692">
        <ele>2328.487</ele>
        <time>2020-06-27T10:27:12Z</time>
      </trkpt>
      <trkpt lat="44.10318" lon="7.40673">
        <ele>2328.694</ele>
        <time>2020-06-27T10:27:27Z</time>
      </trkpt>
      <trkpt lat="44.10311" lon="7.40668">
        <ele>2327.501</ele>
        <time>2020-06-27T10:27:42Z</time>
      </trkpt>
      <trkpt lat="44.10311" lon="7.40668">
        <ele>2327.501</ele>
        <time>2020-06-27T10:27:57Z</time>
      </trkpt>
      <trkpt lat="44.1031" lon="7.40657">
        <ele>2326.208</ele>
        <time>2020-06-27T10:28:13Z</time>
      </trkpt>
      <trkpt lat="44.1031" lon="7.40657">
        <ele>2326.404</ele>
        <time>2020-06-27T10:28:29Z</time>
      </trkpt>
      <trkpt lat="44.1031" lon="7.40657">
        <ele>2326.404</ele>
        <time>2020-06-27T10:28:45Z</time>
      </trkpt>
      <trkpt lat="44.10301" lon="7.40666">
        <ele>2324.265</ele>
        <time>2020-06-27T10:29:01Z</time>
      </trkpt>
      <trkpt lat="44.10302" lon="7.40658">
        <ele>2323.012</ele>
        <time>2020-06-27T10:29:16Z</time>
      </trkpt>
      <trkpt lat="44.10294" lon="7.40656">
        <ele>2321.417</ele>
        <time>2020-06-27T10:29:31Z</time>
      </trkpt>
      <trkpt lat="44.10295" lon="7.40646">
        <ele>2319.792</ele>
        <time>2020-06-27T10:29:47Z</time>
      </trkpt>
      <trkpt lat="44.1029" lon="7.40639">
        <ele>2317.841</ele>
        <time>2020-06-27T10:30:02Z</time>
      </trkpt>
      <trkpt lat="44.10294" lon="7.40635">
        <ele>2315.904</ele>
        <time>2020-06-27T10:30:18Z</time>
      </trkpt>
      <trkpt lat="44.103" lon="7.40623">
        <ele>2313.686</ele>
        <time>2020-06-27T10:30:34Z</time>
      </trkpt>
      <trkpt lat="44.10304" lon="7.40618">
        <ele>2313.452</ele>
        <time>2020-06-27T10:30:50Z</time>
      </trkpt>
      <trkpt lat="44.10307" lon="7.40614">
        <ele>2313.264</ele>
        <time>2020-06-27T10:31:05Z</time>
      </trkpt>
      <trkpt lat="44.10308" lon="7.4061">
        <ele>2313.989</ele>
        <time>2020-06-27T10:31:21Z</time>
      </trkpt>
      <trkpt lat="44.10307" lon="7.40609">
        <ele>2314.715</ele>
        <time>2020-06-27T10:31:36Z</time>
      </trkpt>
      <trkpt lat="44.10299" lon="7.40605">
        <ele>2312.365</ele>
        <time>2020-06-27T10:31:52Z</time>
      </trkpt>
      <trkpt lat="44.103" lon="7.40599">
        <ele>2312.626</ele>
        <time>2020-06-27T10:32:08Z</time>
      </trkpt>
      <trkpt lat="44.10312" lon="7.40581">
        <ele>2310.249</ele>
        <time>2020-06-27T10:32:24Z</time>
      </trkpt>
      <trkpt lat="44.10316" lon="7.40564">
        <ele>2308.295</ele>
        <time>2020-06-27T10:32:39Z</time>
      </trkpt>
      <trkpt lat="44.10321" lon="7.40551">
        <ele>2311.968</ele>
        <time>2020-06-27T10:32:54Z</time>
      </trkpt>
      <trkpt lat="44.10318" lon="7.40527">
        <ele>2315.38</ele>
        <time>2020-06-27T10:33:10Z</time>
      </trkpt>
      <trkpt lat="44.10328" lon="7.40519">
        <ele>2314.916</ele>
        <time>2020-06-27T10:33:26Z</time>
      </trkpt>
      <trkpt lat="44.10339" lon="7.40505">
        <ele>2307.75</ele>
        <time>2020-06-27T10:33:41Z</time>
      </trkpt>
      <trkpt lat="44.10341" lon="7.40483">
        <ele>2304.937</ele>
        <time>2020-06-27T10:33:57Z</time>
      </trkpt>
      <trkpt lat="44.1034" lon="7.40467">
        <ele>2302.11</ele>
        <time>2020-06-27T10:34:13Z</time>
      </trkpt>
      <trkpt lat="44.10344" lon="7.40454">
        <ele>2302.808</ele>
        <time>2020-06-27T10:34:29Z</time>
      </trkpt>
      <trkpt lat="44.10346" lon="7.40438">
        <ele>2306.644</ele>
        <time>2020-06-27T10:34:44Z</time>
      </trkpt>
      <trkpt lat="44.10346" lon="7.40417">
        <ele>2306.798</ele>
        <time>2020-06-27T10:34:59Z</time>
      </trkpt>
      <trkpt lat="44.10345" lon="7.40399">
        <ele>2307.228</ele>
        <time>2020-06-27T10:35:15Z</time>
      </trkpt>
      <trkpt lat="44.1036" lon="7.40397">
        <ele>2310.639</ele>
        <time>2020-06-27T10:35:30Z</time>
      </trkpt>
      <trkpt lat="44.10361" lon="7.40394">
        <ele>2306.734</ele>
        <time>2020-06-27T10:35:46Z</time>
      </trkpt>
      <trkpt lat="44.10368" lon="7.40388">
        <ele>2302.652</ele>
        <time>2020-06-27T10:36:02Z</time>
      </trkpt>
      <trkpt lat="44.10369" lon="7.40381">
        <ele>2302.864</ele>
        <time>2020-06-27T10:36:17Z</time>
      </trkpt>
      <trkpt lat="44.10372" lon="7.4037">
        <ele>2297.897</ele>
        <time>2020-06-27T10:36:32Z</time>
      </trkpt>
      <trkpt lat="44.10379" lon="7.40366">
        <ele>2295.325</ele>
        <time>2020-06-27T10:36:48Z</time>
      </trkpt>
      <trkpt lat="44.10387" lon="7.40363">
        <ele>2289.574</ele>
        <time>2020-06-27T10:37:04Z</time>
      </trkpt>
      <trkpt lat="44.10403" lon="7.40362">
        <ele>2288.725</ele>
        <time>2020-06-27T10:37:19Z</time>
      </trkpt>
      <trkpt lat="44.10404" lon="7.40363">
        <ele>2288.513</ele>
        <time>2020-06-27T10:37:35Z</time>
      </trkpt>
      <trkpt lat="44.10399" lon="7.40366">
        <ele>2287.225</ele>
        <time>2020-06-27T10:37:51Z</time>
      </trkpt>
      <trkpt lat="44.10404" lon="7.40355">
        <ele>2286.372</ele>
        <time>2020-06-27T10:38:07Z</time>
      </trkpt>
      <trkpt lat="44.10404" lon="7.40355">
        <ele>2282.798</ele>
        <time>2020-06-27T10:38:23Z</time>
      </trkpt>
      <trkpt lat="44.10422" lon="7.40378">
        <ele>2282.349</ele>
        <time>2020-06-27T10:38:38Z</time>
      </trkpt>
      <trkpt lat="44.10426" lon="7.4037">
        <ele>2281.854</ele>
        <time>2020-06-27T10:38:54Z</time>
      </trkpt>
      <trkpt lat="44.10436" lon="7.40357">
        <ele>2286.347</ele>
        <time>2020-06-27T10:39:09Z</time>
      </trkpt>
      <trkpt lat="44.10438" lon="7.40341">
        <ele>2285.026</ele>
        <time>2020-06-27T10:39:24Z</time>
      </trkpt>
      <trkpt lat="44.10452" lon="7.40333">
        <ele>2286.555</ele>
        <time>2020-06-27T10:39:39Z</time>
      </trkpt>
      <trkpt lat="44.10451" lon="7.40315">
        <ele>2289.229</ele>
        <time>2020-06-27T10:39:55Z</time>
      </trkpt>
      <trkpt lat="44.10455" lon="7.40303">
        <ele>2294.896</ele>
        <time>2020-06-27T10:40:11Z</time>
      </trkpt>
      <trkpt lat="44.10465" lon="7.40266">
        <ele>2305.659</ele>
        <time>2020-06-27T10:40:39Z</time>
      </trkpt>
      <trkpt lat="44.10467" lon="7.40248">
        <ele>2299.148</ele>
        <time>2020-06-27T10:40:55Z</time>
      </trkpt>
      <trkpt lat="44.10474" lon="7.40228">
        <ele>2299.784</ele>
        <time>2020-06-27T10:41:11Z</time>
      </trkpt>
      <trkpt lat="44.10472" lon="7.40209">
        <ele>2298.331</ele>
        <time>2020-06-27T10:41:27Z</time>
      </trkpt>
      <trkpt lat="44.10474" lon="7.40193">
        <ele>2297.276</ele>
        <time>2020-06-27T10:41:43Z</time>
      </trkpt>
      <trkpt lat="44.10473" lon="7.40177">
        <ele>2295.903</ele>
        <time>2020-06-27T10:41:58Z</time>
      </trkpt>
      <trkpt lat="44.10475" lon="7.4017">
        <ele>2294.482</ele>
        <time>2020-06-27T10:42:14Z</time>
      </trkpt>
      <trkpt lat="44.10474" lon="7.40165">
        <ele>2294.449</ele>
        <time>2020-06-27T10:42:30Z</time>
      </trkpt>
      <trkpt lat="44.10476" lon="7.40149">
        <ele>2293.573</ele>
        <time>2020-06-27T10:42:45Z</time>
      </trkpt>
      <trkpt lat="44.10476" lon="7.40141">
        <ele>2292.54</ele>
        <time>2020-06-27T10:43:01Z</time>
      </trkpt>
      <trkpt lat="44.10478" lon="7.40132">
        <ele>2292.399</ele>
        <time>2020-06-27T10:43:16Z</time>
      </trkpt>
      <trkpt lat="44.10479" lon="7.40114">
        <ele>2291.051</ele>
        <time>2020-06-27T10:43:32Z</time>
      </trkpt>
      <trkpt lat="44.10477" lon="7.40109">
        <ele>2288.953</ele>
        <time>2020-06-27T10:43:48Z</time>
      </trkpt>
      <trkpt lat="44.1047" lon="7.40101">
        <ele>2285.854</ele>
        <time>2020-06-27T10:44:03Z</time>
      </trkpt>
      <trkpt lat="44.10463" lon="7.4009">
        <ele>2280.278</ele>
        <time>2020-06-27T10:44:18Z</time>
      </trkpt>
      <trkpt lat="44.10449" lon="7.40069">
        <ele>2277.878</ele>
        <time>2020-06-27T10:44:34Z</time>
      </trkpt>
      <trkpt lat="44.10448" lon="7.40056">
        <ele>2276.763</ele>
        <time>2020-06-27T10:44:49Z</time>
      </trkpt>
      <trkpt lat="44.10447" lon="7.40056">
        <ele>2276.535</ele>
        <time>2020-06-27T10:45:05Z</time>
      </trkpt>
      <trkpt lat="44.10445" lon="7.40051">
        <ele>2278.642</ele>
        <time>2020-06-27T10:45:21Z</time>
      </trkpt>
      <trkpt lat="44.1045" lon="7.40051">
        <ele>2280.591</ele>
        <time>2020-06-27T10:45:37Z</time>
      </trkpt>
      <trkpt lat="44.1045" lon="7.40051">
        <ele>2280.591</ele>
        <time>2020-06-27T10:45:52Z</time>
      </trkpt>
      <trkpt lat="44.1045" lon="7.40051">
        <ele>2280.591</ele>
        <time>2020-06-27T10:46:08Z</time>
      </trkpt>
      <trkpt lat="44.1045" lon="7.40051">
        <ele>2280.591</ele>
        <time>2020-06-27T10:46:24Z</time>
      </trkpt>
      <trkpt lat="44.1045" lon="7.40051">
        <ele>2280.591</ele>
        <time>2020-06-27T10:46:39Z</time>
      </trkpt>
      <trkpt lat="44.1045" lon="7.40051">
        <ele>2280.591</ele>
        <time>2020-06-27T10:46:55Z</time>
      </trkpt>
      <trkpt lat="44.1045" lon="7.40051">
        <ele>2280.591</ele>
        <time>2020-06-27T10:47:10Z</time>
      </trkpt>
      <trkpt lat="44.1045" lon="7.40051">
        <ele>2280.591</ele>
        <time>2020-06-27T10:47:26Z</time>
      </trkpt>
      <trkpt lat="44.1045" lon="7.40051">
        <ele>2280.591</ele>
        <time>2020-06-27T10:47:41Z</time>
      </trkpt>
      <trkpt lat="44.1045" lon="7.40051">
        <ele>2280.591</ele>
        <time>2020-06-27T10:47:56Z</time>
      </trkpt>
      <trkpt lat="44.1045" lon="7.40051">
        <ele>2280.591</ele>
        <time>2020-06-27T10:48:12Z</time>
      </trkpt>
      <trkpt lat="44.1045" lon="7.40051">
        <ele>2280.591</ele>
        <time>2020-06-27T10:48:28Z</time>
      </trkpt>
      <trkpt lat="44.1045" lon="7.40051">
        <ele>2280.591</ele>
        <time>2020-06-27T10:48:44Z</time>
      </trkpt>
      <trkpt lat="44.1045" lon="7.40051">
        <ele>2280.591</ele>
        <time>2020-06-27T10:49:00Z</time>
      </trkpt>
      <trkpt lat="44.1045" lon="7.40051">
        <ele>2280.591</ele>
        <time>2020-06-27T10:49:15Z</time>
      </trkpt>
      <trkpt lat="44.1045" lon="7.40051">
        <ele>2280.591</ele>
        <time>2020-06-27T10:49:31Z</time>
      </trkpt>
      <trkpt lat="44.1045" lon="7.40051">
        <ele>2280.591</ele>
        <time>2020-06-27T10:49:47Z</time>
      </trkpt>
      <trkpt lat="44.1045" lon="7.40051">
        <ele>2280.591</ele>
        <time>2020-06-27T10:50:03Z</time>
      </trkpt>
      <trkpt lat="44.1045" lon="7.40051">
        <ele>2280.591</ele>
        <time>2020-06-27T10:50:18Z</time>
      </trkpt>
      <trkpt lat="44.1045" lon="7.40051">
        <ele>2280.591</ele>
        <time>2020-06-27T10:50:34Z</time>
      </trkpt>
      <trkpt lat="44.1045" lon="7.40051">
        <ele>2280.591</ele>
        <time>2020-06-27T10:50:50Z</time>
      </trkpt>
      <trkpt lat="44.1045" lon="7.40051">
        <ele>2280.591</ele>
        <time>2020-06-27T10:51:05Z</time>
      </trkpt>
      <trkpt lat="44.1045" lon="7.40051">
        <ele>2280.591</ele>
        <time>2020-06-27T10:51:20Z</time>
      </trkpt>
      <trkpt lat="44.1045" lon="7.40051">
        <ele>2280.591</ele>
        <time>2020-06-27T10:51:36Z</time>
      </trkpt>
      <trkpt lat="44.1045" lon="7.40051">
        <ele>2280.591</ele>
        <time>2020-06-27T10:51:51Z</time>
      </trkpt>
      <trkpt lat="44.1045" lon="7.40051">
        <ele>2280.591</ele>
        <time>2020-06-27T10:52:06Z</time>
      </trkpt>
      <trkpt lat="44.1045" lon="7.40051">
        <ele>2280.591</ele>
        <time>2020-06-27T10:52:22Z</time>
      </trkpt>
      <trkpt lat="44.1045" lon="7.40051">
        <ele>2280.591</ele>
        <time>2020-06-27T10:52:38Z</time>
      </trkpt>
      <trkpt lat="44.1045" lon="7.40051">
        <ele>2280.591</ele>
        <time>2020-06-27T10:52:53Z</time>
      </trkpt>
      <trkpt lat="44.1045" lon="7.40051">
        <ele>2280.591</ele>
        <time>2020-06-27T10:53:09Z</time>
      </trkpt>
      <trkpt lat="44.1045" lon="7.40051">
        <ele>2280.591</ele>
        <time>2020-06-27T10:53:24Z</time>
      </trkpt>
      <trkpt lat="44.1045" lon="7.40051">
        <ele>2280.591</ele>
        <time>2020-06-27T10:53:40Z</time>
      </trkpt>
      <trkpt lat="44.1045" lon="7.40051">
        <ele>2280.591</ele>
        <time>2020-06-27T10:53:56Z</time>
      </trkpt>
      <trkpt lat="44.1045" lon="7.40051">
        <ele>2280.591</ele>
        <time>2020-06-27T10:54:11Z</time>
      </trkpt>
      <trkpt lat="44.1045" lon="7.40051">
        <ele>2280.591</ele>
        <time>2020-06-27T10:54:26Z</time>
      </trkpt>
      <trkpt lat="44.1045" lon="7.40051">
        <ele>2280.591</ele>
        <time>2020-06-27T10:54:42Z</time>
      </trkpt>
      <trkpt lat="44.1045" lon="7.40051">
        <ele>2280.591</ele>
        <time>2020-06-27T10:54:58Z</time>
      </trkpt>
      <trkpt lat="44.1045" lon="7.40051">
        <ele>2280.591</ele>
        <time>2020-06-27T10:55:13Z</time>
      </trkpt>
      <trkpt lat="44.1045" lon="7.40051">
        <ele>2280.591</ele>
        <time>2020-06-27T10:55:29Z</time>
      </trkpt>
      <trkpt lat="44.1045" lon="7.40051">
        <ele>2280.591</ele>
        <time>2020-06-27T10:55:45Z</time>
      </trkpt>
      <trkpt lat="44.1045" lon="7.40051">
        <ele>2280.591</ele>
        <time>2020-06-27T10:56:01Z</time>
      </trkpt>
      <trkpt lat="44.1045" lon="7.40051">
        <ele>2280.591</ele>
        <time>2020-06-27T10:56:17Z</time>
      </trkpt>
      <trkpt lat="44.1045" lon="7.40051">
        <ele>2280.591</ele>
        <time>2020-06-27T10:56:33Z</time>
      </trkpt>
      <trkpt lat="44.1045" lon="7.40051">
        <ele>2280.591</ele>
        <time>2020-06-27T10:56:48Z</time>
      </trkpt>
      <trkpt lat="44.1045" lon="7.40051">
        <ele>2280.591</ele>
        <time>2020-06-27T10:57:03Z</time>
      </trkpt>
      <trkpt lat="44.1045" lon="7.40051">
        <ele>2280.591</ele>
        <time>2020-06-27T10:57:19Z</time>
      </trkpt>
      <trkpt lat="44.1045" lon="7.40051">
        <ele>2280.591</ele>
        <time>2020-06-27T10:57:35Z</time>
      </trkpt>
      <trkpt lat="44.1045" lon="7.4005">
        <ele>2281.287</ele>
        <time>2020-06-27T10:57:51Z</time>
      </trkpt>
      <trkpt lat="44.1045" lon="7.4005">
        <ele>2281.287</ele>
        <time>2020-06-27T10:58:06Z</time>
      </trkpt>
      <trkpt lat="44.1045" lon="7.4005">
        <ele>2281.287</ele>
        <time>2020-06-27T10:58:22Z</time>
      </trkpt>
      <trkpt lat="44.1045" lon="7.4005">
        <ele>2281.287</ele>
        <time>2020-06-27T10:58:38Z</time>
      </trkpt>
      <trkpt lat="44.1045" lon="7.4005">
        <ele>2281.287</ele>
        <time>2020-06-27T10:58:54Z</time>
      </trkpt>
      <trkpt lat="44.1045" lon="7.4005">
        <ele>2281.287</ele>
        <time>2020-06-27T10:59:09Z</time>
      </trkpt>
      <trkpt lat="44.1045" lon="7.4005">
        <ele>2281.287</ele>
        <time>2020-06-27T10:59:25Z</time>
      </trkpt>
      <trkpt lat="44.1045" lon="7.4005">
        <ele>2281.287</ele>
        <time>2020-06-27T10:59:40Z</time>
      </trkpt>
      <trkpt lat="44.1045" lon="7.4005">
        <ele>2281.287</ele>
        <time>2020-06-27T10:59:55Z</time>
      </trkpt>
      <trkpt lat="44.1045" lon="7.4005">
        <ele>2281.287</ele>
        <time>2020-06-27T11:00:11Z</time>
      </trkpt>
      <trkpt lat="44.1045" lon="7.4005">
        <ele>2281.287</ele>
        <time>2020-06-27T11:00:26Z</time>
      </trkpt>
      <trkpt lat="44.1045" lon="7.4005">
        <ele>2281.287</ele>
        <time>2020-06-27T11:00:42Z</time>
      </trkpt>
      <trkpt lat="44.1045" lon="7.4005">
        <ele>2281.287</ele>
        <time>2020-06-27T11:00:57Z</time>
      </trkpt>
      <trkpt lat="44.1045" lon="7.4005">
        <ele>2281.287</ele>
        <time>2020-06-27T11:01:13Z</time>
      </trkpt>
      <trkpt lat="44.1045" lon="7.4005">
        <ele>2281.287</ele>
        <time>2020-06-27T11:01:28Z</time>
      </trkpt>
      <trkpt lat="44.1045" lon="7.4005">
        <ele>2281.287</ele>
        <time>2020-06-27T11:01:44Z</time>
      </trkpt>
      <trkpt lat="44.1045" lon="7.4005">
        <ele>2281.287</ele>
        <time>2020-06-27T11:02:00Z</time>
      </trkpt>
      <trkpt lat="44.1045" lon="7.4005">
        <ele>2281.287</ele>
        <time>2020-06-27T11:02:15Z</time>
      </trkpt>
      <trkpt lat="44.1045" lon="7.4005">
        <ele>2281.287</ele>
        <time>2020-06-27T11:02:31Z</time>
      </trkpt>
      <trkpt lat="44.1045" lon="7.4005">
        <ele>2281.287</ele>
        <time>2020-06-27T11:02:47Z</time>
      </trkpt>
      <trkpt lat="44.1045" lon="7.4005">
        <ele>2281.287</ele>
        <time>2020-06-27T11:03:03Z</time>
      </trkpt>
      <trkpt lat="44.1045" lon="7.4005">
        <ele>2281.287</ele>
        <time>2020-06-27T11:03:19Z</time>
      </trkpt>
      <trkpt lat="44.1045" lon="7.4005">
        <ele>2281.287</ele>
        <time>2020-06-27T11:03:34Z</time>
      </trkpt>
      <trkpt lat="44.1045" lon="7.4005">
        <ele>2281.287</ele>
        <time>2020-06-27T11:03:50Z</time>
      </trkpt>
      <trkpt lat="44.1045" lon="7.4005">
        <ele>2281.287</ele>
        <time>2020-06-27T11:04:05Z</time>
      </trkpt>
      <trkpt lat="44.1045" lon="7.4005">
        <ele>2281.287</ele>
        <time>2020-06-27T11:04:20Z</time>
      </trkpt>
      <trkpt lat="44.1045" lon="7.4005">
        <ele>2281.287</ele>
        <time>2020-06-27T11:04:36Z</time>
      </trkpt>
      <trkpt lat="44.1045" lon="7.4005">
        <ele>2281.287</ele>
        <time>2020-06-27T11:04:52Z</time>
      </trkpt>
      <trkpt lat="44.1045" lon="7.4005">
        <ele>2281.287</ele>
        <time>2020-06-27T11:05:07Z</time>
      </trkpt>
      <trkpt lat="44.1045" lon="7.4005">
        <ele>2281.287</ele>
        <time>2020-06-27T11:05:23Z</time>
      </trkpt>
      <trkpt lat="44.1045" lon="7.4005">
        <ele>2281.287</ele>
        <time>2020-06-27T11:05:39Z</time>
      </trkpt>
      <trkpt lat="44.1045" lon="7.4005">
        <ele>2281.287</ele>
        <time>2020-06-27T11:05:55Z</time>
      </trkpt>
      <trkpt lat="44.1045" lon="7.4005">
        <ele>2281.287</ele>
        <time>2020-06-27T11:06:11Z</time>
      </trkpt>
      <trkpt lat="44.1045" lon="7.4005">
        <ele>2281.287</ele>
        <time>2020-06-27T11:06:27Z</time>
      </trkpt>
      <trkpt lat="44.1045" lon="7.4005">
        <ele>2281.287</ele>
        <time>2020-06-27T11:06:42Z</time>
      </trkpt>
      <trkpt lat="44.1045" lon="7.4005">
        <ele>2281.287</ele>
        <time>2020-06-27T11:06:57Z</time>
      </trkpt>
      <trkpt lat="44.1045" lon="7.4005">
        <ele>2281.287</ele>
        <time>2020-06-27T11:07:13Z</time>
      </trkpt>
      <trkpt lat="44.1045" lon="7.4005">
        <ele>2281.287</ele>
        <time>2020-06-27T11:07:29Z</time>
      </trkpt>
      <trkpt lat="44.1045" lon="7.4005">
        <ele>2281.287</ele>
        <time>2020-06-27T11:07:45Z</time>
      </trkpt>
      <trkpt lat="44.1045" lon="7.4005">
        <ele>2281.287</ele>
        <time>2020-06-27T11:08:01Z</time>
      </trkpt>
      <trkpt lat="44.1045" lon="7.4005">
        <ele>2281.287</ele>
        <time>2020-06-27T11:08:16Z</time>
      </trkpt>
      <trkpt lat="44.1045" lon="7.4005">
        <ele>2281.287</ele>
        <time>2020-06-27T11:08:32Z</time>
      </trkpt>
      <trkpt lat="44.1045" lon="7.4005">
        <ele>2281.287</ele>
        <time>2020-06-27T11:08:48Z</time>
      </trkpt>
      <trkpt lat="44.1045" lon="7.4005">
        <ele>2281.287</ele>
        <time>2020-06-27T11:09:04Z</time>
      </trkpt>
      <trkpt lat="44.1045" lon="7.4005">
        <ele>2281.287</ele>
        <time>2020-06-27T11:09:20Z</time>
      </trkpt>
      <trkpt lat="44.1045" lon="7.4005">
        <ele>2281.287</ele>
        <time>2020-06-27T11:09:35Z</time>
      </trkpt>
      <trkpt lat="44.1045" lon="7.4005">
        <ele>2281.287</ele>
        <time>2020-06-27T11:09:50Z</time>
      </trkpt>
      <trkpt lat="44.1045" lon="7.4005">
        <ele>2281.287</ele>
        <time>2020-06-27T11:10:05Z</time>
      </trkpt>
      <trkpt lat="44.1045" lon="7.4005">
        <ele>2281.287</ele>
        <time>2020-06-27T11:10:21Z</time>
      </trkpt>
      <trkpt lat="44.1045" lon="7.4005">
        <ele>2281.287</ele>
        <time>2020-06-27T11:10:36Z</time>
      </trkpt>
      <trkpt lat="44.1045" lon="7.4005">
        <ele>2281.287</ele>
        <time>2020-06-27T11:10:52Z</time>
      </trkpt>
      <trkpt lat="44.1045" lon="7.4005">
        <ele>2281.287</ele>
        <time>2020-06-27T11:11:08Z</time>
      </trkpt>
      <trkpt lat="44.1045" lon="7.4005">
        <ele>2281.287</ele>
        <time>2020-06-27T11:11:23Z</time>
      </trkpt>
      <trkpt lat="44.1045" lon="7.4005">
        <ele>2281.287</ele>
        <time>2020-06-27T11:11:39Z</time>
      </trkpt>
      <trkpt lat="44.1045" lon="7.40049">
        <ele>2281.233</ele>
        <time>2020-06-27T11:11:54Z</time>
      </trkpt>
      <trkpt lat="44.1045" lon="7.40052">
        <ele>2280.563</ele>
        <time>2020-06-27T11:12:09Z</time>
      </trkpt>
      <trkpt lat="44.10452" lon="7.40053">
        <ele>2281.454</ele>
        <time>2020-06-27T11:12:25Z</time>
      </trkpt>
      <trkpt lat="44.10452" lon="7.40053">
        <ele>2281.454</ele>
        <time>2020-06-27T11:12:40Z</time>
      </trkpt>
      <trkpt lat="44.10452" lon="7.40053">
        <ele>2281.454</ele>
        <time>2020-06-27T11:12:55Z</time>
      </trkpt>
      <trkpt lat="44.10452" lon="7.40053">
        <ele>2281.454</ele>
        <time>2020-06-27T11:13:11Z</time>
      </trkpt>
      <trkpt lat="44.10452" lon="7.40053">
        <ele>2281.454</ele>
        <time>2020-06-27T11:13:27Z</time>
      </trkpt>
      <trkpt lat="44.10452" lon="7.40053">
        <ele>2281.454</ele>
        <time>2020-06-27T11:13:43Z</time>
      </trkpt>
      <trkpt lat="44.10452" lon="7.40053">
        <ele>2281.454</ele>
        <time>2020-06-27T11:13:58Z</time>
      </trkpt>
      <trkpt lat="44.10452" lon="7.40053">
        <ele>2281.454</ele>
        <time>2020-06-27T11:14:14Z</time>
      </trkpt>
      <trkpt lat="44.10452" lon="7.40053">
        <ele>2281.454</ele>
        <time>2020-06-27T11:14:29Z</time>
      </trkpt>
      <trkpt lat="44.10452" lon="7.40053">
        <ele>2281.454</ele>
        <time>2020-06-27T11:14:45Z</time>
      </trkpt>
      <trkpt lat="44.10452" lon="7.40041">
        <ele>2281.494</ele>
        <time>2020-06-27T11:15:01Z</time>
      </trkpt>
      <trkpt lat="44.10452" lon="7.40041">
        <ele>2281.494</ele>
        <time>2020-06-27T11:15:17Z</time>
      </trkpt>
      <trkpt lat="44.10452" lon="7.40041">
        <ele>2281.494</ele>
        <time>2020-06-27T11:15:33Z</time>
      </trkpt>
      <trkpt lat="44.10452" lon="7.40041">
        <ele>2281.494</ele>
        <time>2020-06-27T11:15:49Z</time>
      </trkpt>
      <trkpt lat="44.10452" lon="7.40041">
        <ele>2281.494</ele>
        <time>2020-06-27T11:16:05Z</time>
      </trkpt>
      <trkpt lat="44.1045" lon="7.40037">
        <ele>2278.175</ele>
        <time>2020-06-27T11:16:20Z</time>
      </trkpt>
      <trkpt lat="44.1045" lon="7.40038">
        <ele>2277.774</ele>
        <time>2020-06-27T11:16:35Z</time>
      </trkpt>
      <trkpt lat="44.1045" lon="7.40038">
        <ele>2277.774</ele>
        <time>2020-06-27T11:16:51Z</time>
      </trkpt>
      <trkpt lat="44.1045" lon="7.40038">
        <ele>2277.774</ele>
        <time>2020-06-27T11:17:06Z</time>
      </trkpt>
      <trkpt lat="44.1045" lon="7.40038">
        <ele>2277.774</ele>
        <time>2020-06-27T11:17:22Z</time>
      </trkpt>
      <trkpt lat="44.1045" lon="7.40038">
        <ele>2277.774</ele>
        <time>2020-06-27T11:17:38Z</time>
      </trkpt>
      <trkpt lat="44.1045" lon="7.40038">
        <ele>2277.774</ele>
        <time>2020-06-27T11:17:53Z</time>
      </trkpt>
      <trkpt lat="44.1045" lon="7.40038">
        <ele>2277.774</ele>
        <time>2020-06-27T11:18:09Z</time>
      </trkpt>
      <trkpt lat="44.1045" lon="7.40038">
        <ele>2277.774</ele>
        <time>2020-06-27T11:18:25Z</time>
      </trkpt>
      <trkpt lat="44.1045" lon="7.40038">
        <ele>2277.774</ele>
        <time>2020-06-27T11:18:41Z</time>
      </trkpt>
      <trkpt lat="44.1045" lon="7.40038">
        <ele>2277.774</ele>
        <time>2020-06-27T11:18:56Z</time>
      </trkpt>
      <trkpt lat="44.1045" lon="7.40038">
        <ele>2277.774</ele>
        <time>2020-06-27T11:19:12Z</time>
      </trkpt>
      <trkpt lat="44.1045" lon="7.40038">
        <ele>2277.774</ele>
        <time>2020-06-27T11:19:27Z</time>
      </trkpt>
      <trkpt lat="44.1045" lon="7.40038">
        <ele>2277.774</ele>
        <time>2020-06-27T11:19:43Z</time>
      </trkpt>
      <trkpt lat="44.1045" lon="7.40038">
        <ele>2277.774</ele>
        <time>2020-06-27T11:19:59Z</time>
      </trkpt>
      <trkpt lat="44.1045" lon="7.40038">
        <ele>2277.774</ele>
        <time>2020-06-27T11:20:14Z</time>
      </trkpt>
      <trkpt lat="44.1045" lon="7.40038">
        <ele>2277.774</ele>
        <time>2020-06-27T11:20:29Z</time>
      </trkpt>
      <trkpt lat="44.1045" lon="7.40038">
        <ele>2277.774</ele>
        <time>2020-06-27T11:20:45Z</time>
      </trkpt>
      <trkpt lat="44.1045" lon="7.40038">
        <ele>2277.774</ele>
        <time>2020-06-27T11:21:00Z</time>
      </trkpt>
      <trkpt lat="44.1045" lon="7.40038">
        <ele>2277.774</ele>
        <time>2020-06-27T11:21:16Z</time>
      </trkpt>
      <trkpt lat="44.1045" lon="7.40038">
        <ele>2277.774</ele>
        <time>2020-06-27T11:21:31Z</time>
      </trkpt>
      <trkpt lat="44.1045" lon="7.40038">
        <ele>2277.774</ele>
        <time>2020-06-27T11:21:46Z</time>
      </trkpt>
      <trkpt lat="44.1045" lon="7.40038">
        <ele>2277.774</ele>
        <time>2020-06-27T11:22:02Z</time>
      </trkpt>
      <trkpt lat="44.1045" lon="7.40038">
        <ele>2277.774</ele>
        <time>2020-06-27T11:22:18Z</time>
      </trkpt>
      <trkpt lat="44.1045" lon="7.40038">
        <ele>2277.774</ele>
        <time>2020-06-27T11:22:33Z</time>
      </trkpt>
      <trkpt lat="44.1045" lon="7.40038">
        <ele>2277.774</ele>
        <time>2020-06-27T11:22:49Z</time>
      </trkpt>
      <trkpt lat="44.1045" lon="7.40038">
        <ele>2277.774</ele>
        <time>2020-06-27T11:23:05Z</time>
      </trkpt>
      <trkpt lat="44.1045" lon="7.40038">
        <ele>2277.774</ele>
        <time>2020-06-27T11:23:20Z</time>
      </trkpt>
      <trkpt lat="44.1045" lon="7.40038">
        <ele>2277.774</ele>
        <time>2020-06-27T11:23:35Z</time>
      </trkpt>
      <trkpt lat="44.1045" lon="7.40038">
        <ele>2277.774</ele>
        <time>2020-06-27T11:23:51Z</time>
      </trkpt>
      <trkpt lat="44.1045" lon="7.40038">
        <ele>2277.774</ele>
        <time>2020-06-27T11:24:07Z</time>
      </trkpt>
      <trkpt lat="44.10448" lon="7.40036">
        <ele>2278.297</ele>
        <time>2020-06-27T11:24:23Z</time>
      </trkpt>
      <trkpt lat="44.10445" lon="7.40036">
        <ele>2279.023</ele>
        <time>2020-06-27T11:24:39Z</time>
      </trkpt>
      <trkpt lat="44.10445" lon="7.40036">
        <ele>2279.023</ele>
        <time>2020-06-27T11:24:55Z</time>
      </trkpt>
      <trkpt lat="44.10445" lon="7.40036">
        <ele>2279.023</ele>
        <time>2020-06-27T11:25:10Z</time>
      </trkpt>
      <trkpt lat="44.10445" lon="7.40036">
        <ele>2279.023</ele>
        <time>2020-06-27T11:25:25Z</time>
      </trkpt>
      <trkpt lat="44.10445" lon="7.40036">
        <ele>2279.023</ele>
        <time>2020-06-27T11:25:41Z</time>
      </trkpt>
      <trkpt lat="44.10445" lon="7.40037">
        <ele>2279.312</ele>
        <time>2020-06-27T11:25:56Z</time>
      </trkpt>
      <trkpt lat="44.10445" lon="7.40037">
        <ele>2279.312</ele>
        <time>2020-06-27T11:26:12Z</time>
      </trkpt>
      <trkpt lat="44.10445" lon="7.40037">
        <ele>2279.312</ele>
        <time>2020-06-27T11:26:27Z</time>
      </trkpt>
      <trkpt lat="44.10445" lon="7.40037">
        <ele>2279.312</ele>
        <time>2020-06-27T11:26:43Z</time>
      </trkpt>
      <trkpt lat="44.10447" lon="7.4004">
        <ele>2281.666</ele>
        <time>2020-06-27T11:26:59Z</time>
      </trkpt>
      <trkpt lat="44.10447" lon="7.4004">
        <ele>2281.666</ele>
        <time>2020-06-27T11:27:14Z</time>
      </trkpt>
      <trkpt lat="44.10447" lon="7.4004">
        <ele>2281.666</ele>
        <time>2020-06-27T11:27:30Z</time>
      </trkpt>
      <trkpt lat="44.10447" lon="7.4004">
        <ele>2281.666</ele>
        <time>2020-06-27T11:27:46Z</time>
      </trkpt>
      <trkpt lat="44.10447" lon="7.4004">
        <ele>2281.666</ele>
        <time>2020-06-27T11:28:02Z</time>
      </trkpt>
      <trkpt lat="44.10452" lon="7.40041">
        <ele>2281.625</ele>
        <time>2020-06-27T11:28:17Z</time>
      </trkpt>
      <trkpt lat="44.10452" lon="7.40041">
        <ele>2281.625</ele>
        <time>2020-06-27T11:28:33Z</time>
      </trkpt>
      <trkpt lat="44.10452" lon="7.40041">
        <ele>2281.625</ele>
        <time>2020-06-27T11:28:49Z</time>
      </trkpt>
      <trkpt lat="44.10452" lon="7.40041">
        <ele>2281.625</ele>
        <time>2020-06-27T11:29:05Z</time>
      </trkpt>
      <trkpt lat="44.10452" lon="7.40041">
        <ele>2281.625</ele>
        <time>2020-06-27T11:29:20Z</time>
      </trkpt>
      <trkpt lat="44.10452" lon="7.40041">
        <ele>2281.625</ele>
        <time>2020-06-27T11:29:36Z</time>
      </trkpt>
      <trkpt lat="44.10452" lon="7.40041">
        <ele>2281.625</ele>
        <time>2020-06-27T11:29:52Z</time>
      </trkpt>
      <trkpt lat="44.10452" lon="7.40041">
        <ele>2281.625</ele>
        <time>2020-06-27T11:30:08Z</time>
      </trkpt>
      <trkpt lat="44.10452" lon="7.40041">
        <ele>2281.625</ele>
        <time>2020-06-27T11:30:24Z</time>
      </trkpt>
      <trkpt lat="44.10452" lon="7.40041">
        <ele>2281.625</ele>
        <time>2020-06-27T11:30:40Z</time>
      </trkpt>
      <trkpt lat="44.10452" lon="7.40041">
        <ele>2281.625</ele>
        <time>2020-06-27T11:30:55Z</time>
      </trkpt>
      <trkpt lat="44.10454" lon="7.40042">
        <ele>2281.667</ele>
        <time>2020-06-27T11:31:11Z</time>
      </trkpt>
      <trkpt lat="44.10454" lon="7.40042">
        <ele>2281.238</ele>
        <time>2020-06-27T11:31:26Z</time>
      </trkpt>
      <trkpt lat="44.10454" lon="7.40042">
        <ele>2281.238</ele>
        <time>2020-06-27T11:31:41Z</time>
      </trkpt>
      <trkpt lat="44.10454" lon="7.40042">
        <ele>2281.238</ele>
        <time>2020-06-27T11:31:57Z</time>
      </trkpt>
      <trkpt lat="44.10454" lon="7.40042">
        <ele>2281.238</ele>
        <time>2020-06-27T11:32:12Z</time>
      </trkpt>
      <trkpt lat="44.10453" lon="7.40043">
        <ele>2282.668</ele>
        <time>2020-06-27T11:32:28Z</time>
      </trkpt>
      <trkpt lat="44.10453" lon="7.40043">
        <ele>2282.668</ele>
        <time>2020-06-27T11:32:44Z</time>
      </trkpt>
      <trkpt lat="44.10453" lon="7.40043">
        <ele>2282.668</ele>
        <time>2020-06-27T11:32:59Z</time>
      </trkpt>
      <trkpt lat="44.10453" lon="7.40043">
        <ele>2282.668</ele>
        <time>2020-06-27T11:33:15Z</time>
      </trkpt>
      <trkpt lat="44.10453" lon="7.40043">
        <ele>2282.668</ele>
        <time>2020-06-27T11:33:31Z</time>
      </trkpt>
      <trkpt lat="44.10453" lon="7.40043">
        <ele>2282.668</ele>
        <time>2020-06-27T11:33:47Z</time>
      </trkpt>
      <trkpt lat="44.1045" lon="7.40041">
        <ele>2283.082</ele>
        <time>2020-06-27T11:34:03Z</time>
      </trkpt>
      <trkpt lat="44.10445" lon="7.40057">
        <ele>2278.28</ele>
        <time>2020-06-27T11:34:18Z</time>
      </trkpt>
      <trkpt lat="44.10456" lon="7.40065">
        <ele>2271.342</ele>
        <time>2020-06-27T11:34:34Z</time>
      </trkpt>
      <trkpt lat="44.10468" lon="7.40068">
        <ele>2259.543</ele>
        <time>2020-06-27T11:34:49Z</time>
      </trkpt>
      <trkpt lat="44.10471" lon="7.40053">
        <ele>2250.846</ele>
        <time>2020-06-27T11:35:05Z</time>
      </trkpt>
      <trkpt lat="44.10474" lon="7.40049">
        <ele>2252.239</ele>
        <time>2020-06-27T11:35:21Z</time>
      </trkpt>
      <trkpt lat="44.10477" lon="7.40051">
        <ele>2249.904</ele>
        <time>2020-06-27T11:35:36Z</time>
      </trkpt>
      <trkpt lat="44.10484" lon="7.4005">
        <ele>2251.3</ele>
        <time>2020-06-27T11:35:51Z</time>
      </trkpt>
      <trkpt lat="44.10491" lon="7.40048">
        <ele>2247.609</ele>
        <time>2020-06-27T11:36:07Z</time>
      </trkpt>
      <trkpt lat="44.10499" lon="7.40051">
        <ele>2244.704</ele>
        <time>2020-06-27T11:36:22Z</time>
      </trkpt>
      <trkpt lat="44.1051" lon="7.40051">
        <ele>2234.416</ele>
        <time>2020-06-27T11:36:37Z</time>
      </trkpt>
      <trkpt lat="44.10512" lon="7.40037">
        <ele>2234.236</ele>
        <time>2020-06-27T11:36:53Z</time>
      </trkpt>
      <trkpt lat="44.10512" lon="7.40016">
        <ele>2231.078</ele>
        <time>2020-06-27T11:37:08Z</time>
      </trkpt>
      <trkpt lat="44.10505" lon="7.39995">
        <ele>2227.645</ele>
        <time>2020-06-27T11:37:24Z</time>
      </trkpt>
      <trkpt lat="44.10501" lon="7.39974">
        <ele>2227.014</ele>
        <time>2020-06-27T11:37:39Z</time>
      </trkpt>
      <trkpt lat="44.10503" lon="7.39953">
        <ele>2224.426</ele>
        <time>2020-06-27T11:37:54Z</time>
      </trkpt>
      <trkpt lat="44.10503" lon="7.39931">
        <ele>2220.619</ele>
        <time>2020-06-27T11:38:10Z</time>
      </trkpt>
      <trkpt lat="44.10503" lon="7.39911">
        <ele>2225.986</ele>
        <time>2020-06-27T11:38:25Z</time>
      </trkpt>
      <trkpt lat="44.10497" lon="7.39887">
        <ele>2229.038</ele>
        <time>2020-06-27T11:38:40Z</time>
      </trkpt>
      <trkpt lat="44.10489" lon="7.39877">
        <ele>2232.711</ele>
        <time>2020-06-27T11:38:55Z</time>
      </trkpt>
      <trkpt lat="44.10484" lon="7.3986">
        <ele>2233.914</ele>
        <time>2020-06-27T11:39:11Z</time>
      </trkpt>
      <trkpt lat="44.10479" lon="7.39838">
        <ele>2231.057</ele>
        <time>2020-06-27T11:39:26Z</time>
      </trkpt>
      <trkpt lat="44.10477" lon="7.39818">
        <ele>2229.369</ele>
        <time>2020-06-27T11:39:42Z</time>
      </trkpt>
      <trkpt lat="44.10474" lon="7.39802">
        <ele>2232.549</ele>
        <time>2020-06-27T11:39:58Z</time>
      </trkpt>
      <trkpt lat="44.10473" lon="7.39782">
        <ele>2235.651</ele>
        <time>2020-06-27T11:40:14Z</time>
      </trkpt>
      <trkpt lat="44.10476" lon="7.39776">
        <ele>2235.655</ele>
        <time>2020-06-27T11:40:30Z</time>
      </trkpt>
      <trkpt lat="44.10476" lon="7.39776">
        <ele>2235.655</ele>
        <time>2020-06-27T11:40:45Z</time>
      </trkpt>
      <trkpt lat="44.10476" lon="7.39776">
        <ele>2235.655</ele>
        <time>2020-06-27T11:41:00Z</time>
      </trkpt>
      <trkpt lat="44.10476" lon="7.39776">
        <ele>2235.655</ele>
        <time>2020-06-27T11:41:16Z</time>
      </trkpt>
      <trkpt lat="44.10476" lon="7.39774">
        <ele>2237.854</ele>
        <time>2020-06-27T11:41:31Z</time>
      </trkpt>
      <trkpt lat="44.10476" lon="7.39774">
        <ele>2237.854</ele>
        <time>2020-06-27T11:41:46Z</time>
      </trkpt>
      <trkpt lat="44.10473" lon="7.39746">
        <ele>2236.175</ele>
        <time>2020-06-27T11:42:02Z</time>
      </trkpt>
      <trkpt lat="44.10466" lon="7.39732">
        <ele>2241.649</ele>
        <time>2020-06-27T11:42:17Z</time>
      </trkpt>
      <trkpt lat="44.10455" lon="7.39726">
        <ele>2244.424</ele>
        <time>2020-06-27T11:42:33Z</time>
      </trkpt>
      <trkpt lat="44.10452" lon="7.39706">
        <ele>2244.163</ele>
        <time>2020-06-27T11:42:48Z</time>
      </trkpt>
      <trkpt lat="44.10451" lon="7.39687">
        <ele>2246.384</ele>
        <time>2020-06-27T11:43:04Z</time>
      </trkpt>
      <trkpt lat="44.10442" lon="7.39671">
        <ele>2248.919</ele>
        <time>2020-06-27T11:43:20Z</time>
      </trkpt>
      <trkpt lat="44.10432" lon="7.39656">
        <ele>2250.945</ele>
        <time>2020-06-27T11:43:36Z</time>
      </trkpt>
      <trkpt lat="44.10422" lon="7.3965">
        <ele>2248.424</ele>
        <time>2020-06-27T11:43:52Z</time>
      </trkpt>
      <trkpt lat="44.10414" lon="7.39647">
        <ele>2249.097</ele>
        <time>2020-06-27T11:44:08Z</time>
      </trkpt>
      <trkpt lat="44.10396" lon="7.39642">
        <ele>2251.066</ele>
        <time>2020-06-27T11:44:23Z</time>
      </trkpt>
      <trkpt lat="44.10382" lon="7.39631">
        <ele>2251.268</ele>
        <time>2020-06-27T11:44:39Z</time>
      </trkpt>
      <trkpt lat="44.1037" lon="7.39626">
        <ele>2247.413</ele>
        <time>2020-06-27T11:44:55Z</time>
      </trkpt>
      <trkpt lat="44.1036" lon="7.39626">
        <ele>2247.72</ele>
        <time>2020-06-27T11:45:10Z</time>
      </trkpt>
      <trkpt lat="44.10345" lon="7.39624">
        <ele>2246.152</ele>
        <time>2020-06-27T11:45:25Z</time>
      </trkpt>
      <trkpt lat="44.1033" lon="7.39622">
        <ele>2248.463</ele>
        <time>2020-06-27T11:45:41Z</time>
      </trkpt>
      <trkpt lat="44.10314" lon="7.39622">
        <ele>2249.551</ele>
        <time>2020-06-27T11:45:57Z</time>
      </trkpt>
      <trkpt lat="44.10299" lon="7.39616">
        <ele>2245.797</ele>
        <time>2020-06-27T11:46:13Z</time>
      </trkpt>
      <trkpt lat="44.10289" lon="7.39609">
        <ele>2244.729</ele>
        <time>2020-06-27T11:46:28Z</time>
      </trkpt>
      <trkpt lat="44.10272" lon="7.39604">
        <ele>2247.263</ele>
        <time>2020-06-27T11:46:44Z</time>
      </trkpt>
      <trkpt lat="44.1027" lon="7.39605">
        <ele>2248.153</ele>
        <time>2020-06-27T11:46:59Z</time>
      </trkpt>
      <trkpt lat="44.10254" lon="7.39605">
        <ele>2246.261</ele>
        <time>2020-06-27T11:47:15Z</time>
      </trkpt>
      <trkpt lat="44.1024" lon="7.39598">
        <ele>2243.969</ele>
        <time>2020-06-27T11:47:30Z</time>
      </trkpt>
      <trkpt lat="44.10222" lon="7.39598">
        <ele>2244.808</ele>
        <time>2020-06-27T11:47:45Z</time>
      </trkpt>
      <trkpt lat="44.10203" lon="7.39597">
        <ele>2245.429</ele>
        <time>2020-06-27T11:48:01Z</time>
      </trkpt>
      <trkpt lat="44.10189" lon="7.39601">
        <ele>2248.91</ele>
        <time>2020-06-27T11:48:17Z</time>
      </trkpt>
      <trkpt lat="44.10176" lon="7.39608">
        <ele>2254.17</ele>
        <time>2020-06-27T11:48:32Z</time>
      </trkpt>
      <trkpt lat="44.10158" lon="7.39613">
        <ele>2259.978</ele>
        <time>2020-06-27T11:48:48Z</time>
      </trkpt>
      <trkpt lat="44.10139" lon="7.39614">
        <ele>2262.248</ele>
        <time>2020-06-27T11:49:04Z</time>
      </trkpt>
      <trkpt lat="44.10125" lon="7.39612">
        <ele>2259.929</ele>
        <time>2020-06-27T11:49:19Z</time>
      </trkpt>
      <trkpt lat="44.10107" lon="7.39616">
        <ele>2256.048</ele>
        <time>2020-06-27T11:49:35Z</time>
      </trkpt>
      <trkpt lat="44.10093" lon="7.39629">
        <ele>2253.385</ele>
        <time>2020-06-27T11:49:50Z</time>
      </trkpt>
      <trkpt lat="44.10078" lon="7.39636">
        <ele>2249.442</ele>
        <time>2020-06-27T11:50:05Z</time>
      </trkpt>
      <trkpt lat="44.10057" lon="7.39637">
        <ele>2248.795</ele>
        <time>2020-06-27T11:50:21Z</time>
      </trkpt>
      <trkpt lat="44.10042" lon="7.39636">
        <ele>2242.199</ele>
        <time>2020-06-27T11:50:36Z</time>
      </trkpt>
      <trkpt lat="44.1004" lon="7.39637">
        <ele>2239.135</ele>
        <time>2020-06-27T11:50:51Z</time>
      </trkpt>
      <trkpt lat="44.10027" lon="7.39634">
        <ele>2241.234</ele>
        <time>2020-06-27T11:51:07Z</time>
      </trkpt>
      <trkpt lat="44.10027" lon="7.39634">
        <ele>2241.234</ele>
        <time>2020-06-27T11:51:22Z</time>
      </trkpt>
      <trkpt lat="44.10026" lon="7.39634">
        <ele>2241.633</ele>
        <time>2020-06-27T11:51:37Z</time>
      </trkpt>
      <trkpt lat="44.10011" lon="7.39636">
        <ele>2242.749</ele>
        <time>2020-06-27T11:51:53Z</time>
      </trkpt>
      <trkpt lat="44.10001" lon="7.39651">
        <ele>2233.62</ele>
        <time>2020-06-27T11:52:08Z</time>
      </trkpt>
      <trkpt lat="44.09982" lon="7.39653">
        <ele>2219.841</ele>
        <time>2020-06-27T11:52:23Z</time>
      </trkpt>
      <trkpt lat="44.09969" lon="7.39642">
        <ele>2211.634</ele>
        <time>2020-06-27T11:52:38Z</time>
      </trkpt>
      <trkpt lat="44.09954" lon="7.39644">
        <ele>2202.614</ele>
        <time>2020-06-27T11:52:54Z</time>
      </trkpt>
      <trkpt lat="44.09944" lon="7.39643">
        <ele>2197.751</ele>
        <time>2020-06-27T11:53:09Z</time>
      </trkpt>
      <trkpt lat="44.09946" lon="7.39646">
        <ele>2196.288</ele>
        <time>2020-06-27T11:53:25Z</time>
      </trkpt>
      <trkpt lat="44.09949" lon="7.3965">
        <ele>2199.546</ele>
        <time>2020-06-27T11:53:40Z</time>
      </trkpt>
      <trkpt lat="44.09948" lon="7.39668">
        <ele>2203.606</ele>
        <time>2020-06-27T11:53:56Z</time>
      </trkpt>
      <trkpt lat="44.09942" lon="7.3968">
        <ele>2208.919</ele>
        <time>2020-06-27T11:54:12Z</time>
      </trkpt>
      <trkpt lat="44.09931" lon="7.39693">
        <ele>2206.515</ele>
        <time>2020-06-27T11:54:27Z</time>
      </trkpt>
      <trkpt lat="44.09914" lon="7.39697">
        <ele>2200.998</ele>
        <time>2020-06-27T11:54:43Z</time>
      </trkpt>
      <trkpt lat="44.09902" lon="7.39697">
        <ele>2199.755</ele>
        <time>2020-06-27T11:54:58Z</time>
      </trkpt>
      <trkpt lat="44.09891" lon="7.39677">
        <ele>2203.359</ele>
        <time>2020-06-27T11:55:14Z</time>
      </trkpt>
      <trkpt lat="44.0988" lon="7.39658">
        <ele>2205.131</ele>
        <time>2020-06-27T11:55:30Z</time>
      </trkpt>
      <trkpt lat="44.0988" lon="7.39641">
        <ele>2199.506</ele>
        <time>2020-06-27T11:55:45Z</time>
      </trkpt>
      <trkpt lat="44.09881" lon="7.3963">
        <ele>2195.716</ele>
        <time>2020-06-27T11:56:01Z</time>
      </trkpt>
      <trkpt lat="44.09887" lon="7.39605">
        <ele>2193.204</ele>
        <time>2020-06-27T11:56:17Z</time>
      </trkpt>
      <trkpt lat="44.09878" lon="7.3959">
        <ele>2198.403</ele>
        <time>2020-06-27T11:56:32Z</time>
      </trkpt>
      <trkpt lat="44.09873" lon="7.39579">
        <ele>2204.037</ele>
        <time>2020-06-27T11:56:48Z</time>
      </trkpt>
      <trkpt lat="44.09872" lon="7.39578">
        <ele>2204.91</ele>
        <time>2020-06-27T11:57:04Z</time>
      </trkpt>
      <trkpt lat="44.09867" lon="7.39568">
        <ele>2204.809</ele>
        <time>2020-06-27T11:57:19Z</time>
      </trkpt>
      <trkpt lat="44.09865" lon="7.3955">
        <ele>2203.963</ele>
        <time>2020-06-27T11:57:35Z</time>
      </trkpt>
      <trkpt lat="44.09859" lon="7.39536">
        <ele>2206.156</ele>
        <time>2020-06-27T11:57:50Z</time>
      </trkpt>
      <trkpt lat="44.09857" lon="7.39521">
        <ele>2207.26</ele>
        <time>2020-06-27T11:58:06Z</time>
      </trkpt>
      <trkpt lat="44.0985" lon="7.39514">
        <ele>2209.991</ele>
        <time>2020-06-27T11:58:21Z</time>
      </trkpt>
      <trkpt lat="44.0985" lon="7.39514">
        <ele>2209.991</ele>
        <time>2020-06-27T11:58:37Z</time>
      </trkpt>
      <trkpt lat="44.0985" lon="7.39514">
        <ele>2209.991</ele>
        <time>2020-06-27T11:58:52Z</time>
      </trkpt>
      <trkpt lat="44.0985" lon="7.39514">
        <ele>2209.991</ele>
        <time>2020-06-27T11:59:07Z</time>
      </trkpt>
      <trkpt lat="44.0985" lon="7.39514">
        <ele>2209.991</ele>
        <time>2020-06-27T11:59:23Z</time>
      </trkpt>
      <trkpt lat="44.0985" lon="7.39514">
        <ele>2209.991</ele>
        <time>2020-06-27T11:59:39Z</time>
      </trkpt>
      <trkpt lat="44.0985" lon="7.39514">
        <ele>2209.991</ele>
        <time>2020-06-27T11:59:55Z</time>
      </trkpt>
      <trkpt lat="44.09849" lon="7.39511">
        <ele>2211.914</ele>
        <time>2020-06-27T12:00:11Z</time>
      </trkpt>
      <trkpt lat="44.09844" lon="7.39502">
        <ele>2212.774</ele>
        <time>2020-06-27T12:00:26Z</time>
      </trkpt>
      <trkpt lat="44.09834" lon="7.39496">
        <ele>2211.18</ele>
        <time>2020-06-27T12:00:42Z</time>
      </trkpt>
      <trkpt lat="44.09834" lon="7.39496">
        <ele>2211.18</ele>
        <time>2020-06-27T12:00:58Z</time>
      </trkpt>
      <trkpt lat="44.0983" lon="7.39491">
        <ele>2209.891</ele>
        <time>2020-06-27T12:01:13Z</time>
      </trkpt>
      <trkpt lat="44.09824" lon="7.39483">
        <ele>2209.348</ele>
        <time>2020-06-27T12:01:29Z</time>
      </trkpt>
      <trkpt lat="44.0982" lon="7.39482">
        <ele>2208.484</ele>
        <time>2020-06-27T12:01:44Z</time>
      </trkpt>
      <trkpt lat="44.09812" lon="7.39478">
        <ele>2212.027</ele>
        <time>2020-06-27T12:02:00Z</time>
      </trkpt>
      <trkpt lat="44.09809" lon="7.39475">
        <ele>2213.201</ele>
        <time>2020-06-27T12:02:16Z</time>
      </trkpt>
      <trkpt lat="44.09801" lon="7.39471">
        <ele>2214.424</ele>
        <time>2020-06-27T12:02:31Z</time>
      </trkpt>
      <trkpt lat="44.09794" lon="7.39466">
        <ele>2215.67</ele>
        <time>2020-06-27T12:02:47Z</time>
      </trkpt>
      <trkpt lat="44.09794" lon="7.39466">
        <ele>2215.67</ele>
        <time>2020-06-27T12:03:02Z</time>
      </trkpt>
      <trkpt lat="44.09794" lon="7.39466">
        <ele>2215.67</ele>
        <time>2020-06-27T12:03:18Z</time>
      </trkpt>
      <trkpt lat="44.09798" lon="7.39457">
        <ele>2217.545</ele>
        <time>2020-06-27T12:03:34Z</time>
      </trkpt>
      <trkpt lat="44.09798" lon="7.39457">
        <ele>2217.545</ele>
        <time>2020-06-27T12:03:50Z</time>
      </trkpt>
      <trkpt lat="44.09797" lon="7.39454">
        <ele>2220.041</ele>
        <time>2020-06-27T12:04:06Z</time>
      </trkpt>
      <trkpt lat="44.09804" lon="7.3944">
        <ele>2220.103</ele>
        <time>2020-06-27T12:04:21Z</time>
      </trkpt>
      <trkpt lat="44.09805" lon="7.39437">
        <ele>2219.865</ele>
        <time>2020-06-27T12:04:36Z</time>
      </trkpt>
      <trkpt lat="44.09806" lon="7.39435">
        <ele>2220.477</ele>
        <time>2020-06-27T12:04:52Z</time>
      </trkpt>
      <trkpt lat="44.09807" lon="7.39434">
        <ele>2220.518</ele>
        <time>2020-06-27T12:05:07Z</time>
      </trkpt>
      <trkpt lat="44.0981" lon="7.39425">
        <ele>2220.75</ele>
        <time>2020-06-27T12:05:23Z</time>
      </trkpt>
      <trkpt lat="44.09821" lon="7.39411">
        <ele>2220.658</ele>
        <time>2020-06-27T12:05:39Z</time>
      </trkpt>
      <trkpt lat="44.09822" lon="7.394">
        <ele>2224.185</ele>
        <time>2020-06-27T12:05:55Z</time>
      </trkpt>
      <trkpt lat="44.09824" lon="7.39399">
        <ele>2224.598</ele>
        <time>2020-06-27T12:06:10Z</time>
      </trkpt>
      <trkpt lat="44.09828" lon="7.39394">
        <ele>2226.396</ele>
        <time>2020-06-27T12:06:26Z</time>
      </trkpt>
      <trkpt lat="44.09828" lon="7.39394">
        <ele>2226.396</ele>
        <time>2020-06-27T12:06:41Z</time>
      </trkpt>
      <trkpt lat="44.09833" lon="7.39385">
        <ele>2225.63</ele>
        <time>2020-06-27T12:06:57Z</time>
      </trkpt>
      <trkpt lat="44.09834" lon="7.39384">
        <ele>2225.871</ele>
        <time>2020-06-27T12:07:12Z</time>
      </trkpt>
      <trkpt lat="44.09836" lon="7.39382">
        <ele>2229.076</ele>
        <time>2020-06-27T12:07:28Z</time>
      </trkpt>
      <trkpt lat="44.09834" lon="7.39381">
        <ele>2237.44</ele>
        <time>2020-06-27T12:07:43Z</time>
      </trkpt>
      <trkpt lat="44.09834" lon="7.39376">
        <ele>2239.795</ele>
        <time>2020-06-27T12:07:59Z</time>
      </trkpt>
      <trkpt lat="44.09836" lon="7.39364">
        <ele>2239.011</ele>
        <time>2020-06-27T12:08:15Z</time>
      </trkpt>
      <trkpt lat="44.09837" lon="7.39359">
        <ele>2237.894</ele>
        <time>2020-06-27T12:08:31Z</time>
      </trkpt>
      <trkpt lat="44.09837" lon="7.39359">
        <ele>2237.894</ele>
        <time>2020-06-27T12:08:47Z</time>
      </trkpt>
      <trkpt lat="44.09837" lon="7.39359">
        <ele>2240.257</ele>
        <time>2020-06-27T12:09:03Z</time>
      </trkpt>
      <trkpt lat="44.09836" lon="7.39355">
        <ele>2241.737</ele>
        <time>2020-06-27T12:09:19Z</time>
      </trkpt>
      <trkpt lat="44.09836" lon="7.39355">
        <ele>2241.737</ele>
        <time>2020-06-27T12:09:35Z</time>
      </trkpt>
      <trkpt lat="44.09838" lon="7.39347">
        <ele>2241.382</ele>
        <time>2020-06-27T12:09:50Z</time>
      </trkpt>
      <trkpt lat="44.09838" lon="7.39347">
        <ele>2241.382</ele>
        <time>2020-06-27T12:10:06Z</time>
      </trkpt>
      <trkpt lat="44.09838" lon="7.39347">
        <ele>2241.382</ele>
        <time>2020-06-27T12:10:22Z</time>
      </trkpt>
      <trkpt lat="44.09838" lon="7.39347">
        <ele>2241.382</ele>
        <time>2020-06-27T12:10:38Z</time>
      </trkpt>
      <trkpt lat="44.09838" lon="7.39347">
        <ele>2241.382</ele>
        <time>2020-06-27T12:10:53Z</time>
      </trkpt>
      <trkpt lat="44.09835" lon="7.39337">
        <ele>2251.053</ele>
        <time>2020-06-27T12:11:09Z</time>
      </trkpt>
      <trkpt lat="44.09835" lon="7.39337">
        <ele>2251.053</ele>
        <time>2020-06-27T12:11:25Z</time>
      </trkpt>
      <trkpt lat="44.09831" lon="7.39333">
        <ele>2253.418</ele>
        <time>2020-06-27T12:11:41Z</time>
      </trkpt>
      <trkpt lat="44.09834" lon="7.39327">
        <ele>2254.935</ele>
        <time>2020-06-27T12:11:56Z</time>
      </trkpt>
      <trkpt lat="44.09852" lon="7.39302">
        <ele>2259.979</ele>
        <time>2020-06-27T12:12:12Z</time>
      </trkpt>
      <trkpt lat="44.09854" lon="7.39299">
        <ele>2263.392</ele>
        <time>2020-06-27T12:12:27Z</time>
      </trkpt>
      <trkpt lat="44.09856" lon="7.39296">
        <ele>2265.985</ele>
        <time>2020-06-27T12:12:43Z</time>
      </trkpt>
      <trkpt lat="44.09856" lon="7.39296">
        <ele>2267.264</ele>
        <time>2020-06-27T12:12:59Z</time>
      </trkpt>
      <trkpt lat="44.09856" lon="7.39296">
        <ele>2267.264</ele>
        <time>2020-06-27T12:13:14Z</time>
      </trkpt>
      <trkpt lat="44.09856" lon="7.39296">
        <ele>2267.264</ele>
        <time>2020-06-27T12:13:30Z</time>
      </trkpt>
      <trkpt lat="44.09856" lon="7.39296">
        <ele>2267.264</ele>
        <time>2020-06-27T12:13:45Z</time>
      </trkpt>
      <trkpt lat="44.09858" lon="7.3928">
        <ele>2269.328</ele>
        <time>2020-06-27T12:14:01Z</time>
      </trkpt>
      <trkpt lat="44.09858" lon="7.3928">
        <ele>2269.328</ele>
        <time>2020-06-27T12:14:17Z</time>
      </trkpt>
      <trkpt lat="44.09858" lon="7.3928">
        <ele>2269.328</ele>
        <time>2020-06-27T12:14:33Z</time>
      </trkpt>
      <trkpt lat="44.09867" lon="7.39262">
        <ele>2267.063</ele>
        <time>2020-06-27T12:14:49Z</time>
      </trkpt>
      <trkpt lat="44.09867" lon="7.39262">
        <ele>2267.063</ele>
        <time>2020-06-27T12:15:05Z</time>
      </trkpt>
      <trkpt lat="44.09871" lon="7.39258">
        <ele>2268.97</ele>
        <time>2020-06-27T12:15:21Z</time>
      </trkpt>
      <trkpt lat="44.09871" lon="7.39258">
        <ele>2268.97</ele>
        <time>2020-06-27T12:15:36Z</time>
      </trkpt>
      <trkpt lat="44.09877" lon="7.39247">
        <ele>2279.306</ele>
        <time>2020-06-27T12:15:52Z</time>
      </trkpt>
      <trkpt lat="44.09885" lon="7.39242">
        <ele>2281.915</ele>
        <time>2020-06-27T12:16:08Z</time>
      </trkpt>
      <trkpt lat="44.09891" lon="7.39242">
        <ele>2292.346</ele>
        <time>2020-06-27T12:16:24Z</time>
      </trkpt>
      <trkpt lat="44.09896" lon="7.39245">
        <ele>2300.743</ele>
        <time>2020-06-27T12:16:40Z</time>
      </trkpt>
      <trkpt lat="44.09903" lon="7.39234">
        <ele>2307.12</ele>
        <time>2020-06-27T12:16:55Z</time>
      </trkpt>
      <trkpt lat="44.09909" lon="7.39229">
        <ele>2309.05</ele>
        <time>2020-06-27T12:17:11Z</time>
      </trkpt>
      <trkpt lat="44.09914" lon="7.39232">
        <ele>2314.629</ele>
        <time>2020-06-27T12:17:27Z</time>
      </trkpt>
      <trkpt lat="44.09914" lon="7.39232">
        <ele>2314.629</ele>
        <time>2020-06-27T12:17:42Z</time>
      </trkpt>
      <trkpt lat="44.09919" lon="7.39226">
        <ele>2314.261</ele>
        <time>2020-06-27T12:17:57Z</time>
      </trkpt>
      <trkpt lat="44.09924" lon="7.39225">
        <ele>2316.888</ele>
        <time>2020-06-27T12:18:13Z</time>
      </trkpt>
      <trkpt lat="44.09924" lon="7.39225">
        <ele>2316.888</ele>
        <time>2020-06-27T12:18:28Z</time>
      </trkpt>
      <trkpt lat="44.09924" lon="7.39225">
        <ele>2316.888</ele>
        <time>2020-06-27T12:18:43Z</time>
      </trkpt>
      <trkpt lat="44.09933" lon="7.39222">
        <ele>2318.432</ele>
        <time>2020-06-27T12:18:59Z</time>
      </trkpt>
      <trkpt lat="44.09943" lon="7.39218">
        <ele>2319.786</ele>
        <time>2020-06-27T12:19:14Z</time>
      </trkpt>
      <trkpt lat="44.09943" lon="7.39218">
        <ele>2319.786</ele>
        <time>2020-06-27T12:19:30Z</time>
      </trkpt>
      <trkpt lat="44.09943" lon="7.39218">
        <ele>2319.786</ele>
        <time>2020-06-27T12:19:46Z</time>
      </trkpt>
      <trkpt lat="44.09943" lon="7.39218">
        <ele>2319.786</ele>
        <time>2020-06-27T12:20:01Z</time>
      </trkpt>
      <trkpt lat="44.09943" lon="7.39218">
        <ele>2319.786</ele>
        <time>2020-06-27T12:20:17Z</time>
      </trkpt>
      <trkpt lat="44.09942" lon="7.39216">
        <ele>2323.393</ele>
        <time>2020-06-27T12:20:32Z</time>
      </trkpt>
      <trkpt lat="44.09948" lon="7.39205">
        <ele>2331.493</ele>
        <time>2020-06-27T12:20:47Z</time>
      </trkpt>
      <trkpt lat="44.09949" lon="7.39201">
        <ele>2333.587</ele>
        <time>2020-06-27T12:21:03Z</time>
      </trkpt>
      <trkpt lat="44.09949" lon="7.39201">
        <ele>2333.587</ele>
        <time>2020-06-27T12:21:19Z</time>
      </trkpt>
      <trkpt lat="44.09953" lon="7.39193">
        <ele>2337.589</ele>
        <time>2020-06-27T12:21:35Z</time>
      </trkpt>
      <trkpt lat="44.09952" lon="7.39192">
        <ele>2337.785</ele>
        <time>2020-06-27T12:21:51Z</time>
      </trkpt>
      <trkpt lat="44.09952" lon="7.39192">
        <ele>2337.785</ele>
        <time>2020-06-27T12:22:06Z</time>
      </trkpt>
      <trkpt lat="44.09953" lon="7.39182">
        <ele>2342.043</ele>
        <time>2020-06-27T12:22:22Z</time>
      </trkpt>
      <trkpt lat="44.09954" lon="7.3917">
        <ele>2345.335</ele>
        <time>2020-06-27T12:22:38Z</time>
      </trkpt>
      <trkpt lat="44.09954" lon="7.39169">
        <ele>2346.556</ele>
        <time>2020-06-27T12:22:53Z</time>
      </trkpt>
      <trkpt lat="44.09954" lon="7.39169">
        <ele>2346.556</ele>
        <time>2020-06-27T12:23:09Z</time>
      </trkpt>
      <trkpt lat="44.09958" lon="7.39161">
        <ele>2346.084</ele>
        <time>2020-06-27T12:23:25Z</time>
      </trkpt>
      <trkpt lat="44.09965" lon="7.39153">
        <ele>2345.216</ele>
        <time>2020-06-27T12:23:41Z</time>
      </trkpt>
      <trkpt lat="44.09965" lon="7.39153">
        <ele>2345.216</ele>
        <time>2020-06-27T12:23:57Z</time>
      </trkpt>
      <trkpt lat="44.09965" lon="7.39153">
        <ele>2345.216</ele>
        <time>2020-06-27T12:24:13Z</time>
      </trkpt>
      <trkpt lat="44.09968" lon="7.39151">
        <ele>2346.881</ele>
        <time>2020-06-27T12:24:29Z</time>
      </trkpt>
      <trkpt lat="44.0997" lon="7.39148">
        <ele>2350.975</ele>
        <time>2020-06-27T12:24:44Z</time>
      </trkpt>
      <trkpt lat="44.09967" lon="7.39147">
        <ele>2354.428</ele>
        <time>2020-06-27T12:25:00Z</time>
      </trkpt>
      <trkpt lat="44.09975" lon="7.39143">
        <ele>2357.676</ele>
        <time>2020-06-27T12:25:15Z</time>
      </trkpt>
      <trkpt lat="44.09975" lon="7.39143">
        <ele>2357.676</ele>
        <time>2020-06-27T12:25:30Z</time>
      </trkpt>
      <trkpt lat="44.09975" lon="7.39143">
        <ele>2357.676</ele>
        <time>2020-06-27T12:25:46Z</time>
      </trkpt>
      <trkpt lat="44.09973" lon="7.39143">
        <ele>2362.731</ele>
        <time>2020-06-27T12:26:02Z</time>
      </trkpt>
      <trkpt lat="44.09979" lon="7.39138">
        <ele>2366.039</ele>
        <time>2020-06-27T12:26:18Z</time>
      </trkpt>
      <trkpt lat="44.09978" lon="7.39136">
        <ele>2368.473</ele>
        <time>2020-06-27T12:26:34Z</time>
      </trkpt>
      <trkpt lat="44.0998" lon="7.39134">
        <ele>2370.267</ele>
        <time>2020-06-27T12:26:50Z</time>
      </trkpt>
      <trkpt lat="44.0998" lon="7.39132">
        <ele>2372.349</ele>
        <time>2020-06-27T12:27:06Z</time>
      </trkpt>
      <trkpt lat="44.09981" lon="7.39127">
        <ele>2372.036</ele>
        <time>2020-06-27T12:27:21Z</time>
      </trkpt>
      <trkpt lat="44.09989" lon="7.39109">
        <ele>2372.127</ele>
        <time>2020-06-27T12:27:37Z</time>
      </trkpt>
      <trkpt lat="44.09991" lon="7.39105">
        <ele>2376.766</ele>
        <time>2020-06-27T12:27:52Z</time>
      </trkpt>
      <trkpt lat="44.09994" lon="7.39103">
        <ele>2376.856</ele>
        <time>2020-06-27T12:28:08Z</time>
      </trkpt>
      <trkpt lat="44.10002" lon="7.39091">
        <ele>2377.492</ele>
        <time>2020-06-27T12:28:23Z</time>
      </trkpt>
      <trkpt lat="44.10004" lon="7.39088">
        <ele>2378.798</ele>
        <time>2020-06-27T12:28:39Z</time>
      </trkpt>
      <trkpt lat="44.10006" lon="7.39087">
        <ele>2378.692</ele>
        <time>2020-06-27T12:28:54Z</time>
      </trkpt>
      <trkpt lat="44.10006" lon="7.39087">
        <ele>2378.692</ele>
        <time>2020-06-27T12:29:10Z</time>
      </trkpt>
      <trkpt lat="44.10006" lon="7.39087">
        <ele>2378.692</ele>
        <time>2020-06-27T12:29:26Z</time>
      </trkpt>
      <trkpt lat="44.10006" lon="7.39087">
        <ele>2378.692</ele>
        <time>2020-06-27T12:29:41Z</time>
      </trkpt>
      <trkpt lat="44.10006" lon="7.39087">
        <ele>2378.692</ele>
        <time>2020-06-27T12:29:57Z</time>
      </trkpt>
      <trkpt lat="44.10006" lon="7.39087">
        <ele>2378.692</ele>
        <time>2020-06-27T12:30:13Z</time>
      </trkpt>
      <trkpt lat="44.10006" lon="7.39087">
        <ele>2378.692</ele>
        <time>2020-06-27T12:30:29Z</time>
      </trkpt>
      <trkpt lat="44.10006" lon="7.39087">
        <ele>2378.692</ele>
        <time>2020-06-27T12:30:45Z</time>
      </trkpt>
      <trkpt lat="44.10006" lon="7.39087">
        <ele>2378.692</ele>
        <time>2020-06-27T12:31:01Z</time>
      </trkpt>
      <trkpt lat="44.10006" lon="7.39087">
        <ele>2378.692</ele>
        <time>2020-06-27T12:31:17Z</time>
      </trkpt>
      <trkpt lat="44.10005" lon="7.39085">
        <ele>2378.806</ele>
        <time>2020-06-27T12:31:33Z</time>
      </trkpt>
      <trkpt lat="44.10005" lon="7.39086">
        <ele>2377.529</ele>
        <time>2020-06-27T12:31:49Z</time>
      </trkpt>
      <trkpt lat="44.10004" lon="7.39084">
        <ele>2377.555</ele>
        <time>2020-06-27T12:32:04Z</time>
      </trkpt>
      <trkpt lat="44.10004" lon="7.39084">
        <ele>2377.555</ele>
        <time>2020-06-27T12:32:19Z</time>
      </trkpt>
      <trkpt lat="44.10004" lon="7.39084">
        <ele>2377.555</ele>
        <time>2020-06-27T12:32:35Z</time>
      </trkpt>
      <trkpt lat="44.10004" lon="7.39084">
        <ele>2377.555</ele>
        <time>2020-06-27T12:32:50Z</time>
      </trkpt>
      <trkpt lat="44.10004" lon="7.39084">
        <ele>2377.555</ele>
        <time>2020-06-27T12:33:05Z</time>
      </trkpt>
      <trkpt lat="44.10008" lon="7.3907">
        <ele>2380.527</ele>
        <time>2020-06-27T12:33:21Z</time>
      </trkpt>
      <trkpt lat="44.10014" lon="7.39054">
        <ele>2387.964</ele>
        <time>2020-06-27T12:33:37Z</time>
      </trkpt>
      <trkpt lat="44.10014" lon="7.3905">
        <ele>2393.614</ele>
        <time>2020-06-27T12:33:53Z</time>
      </trkpt>
      <trkpt lat="44.10014" lon="7.3905">
        <ele>2393.614</ele>
        <time>2020-06-27T12:34:08Z</time>
      </trkpt>
      <trkpt lat="44.10014" lon="7.3905">
        <ele>2393.614</ele>
        <time>2020-06-27T12:34:23Z</time>
      </trkpt>
      <trkpt lat="44.10012" lon="7.3904">
        <ele>2395.432</ele>
        <time>2020-06-27T12:34:39Z</time>
      </trkpt>
      <trkpt lat="44.10015" lon="7.3903">
        <ele>2393.92</ele>
        <time>2020-06-27T12:34:55Z</time>
      </trkpt>
      <trkpt lat="44.10016" lon="7.39005">
        <ele>2387.81</ele>
        <time>2020-06-27T12:35:10Z</time>
      </trkpt>
      <trkpt lat="44.10019" lon="7.38993">
        <ele>2384.622</ele>
        <time>2020-06-27T12:35:25Z</time>
      </trkpt>
      <trkpt lat="44.10019" lon="7.38982">
        <ele>2386.747</ele>
        <time>2020-06-27T12:35:40Z</time>
      </trkpt>
      <trkpt lat="44.10022" lon="7.38978">
        <ele>2387.669</ele>
        <time>2020-06-27T12:35:56Z</time>
      </trkpt>
      <trkpt lat="44.10023" lon="7.38974">
        <ele>2386.46</ele>
        <time>2020-06-27T12:36:11Z</time>
      </trkpt>
      <trkpt lat="44.10024" lon="7.38972">
        <ele>2388.251</ele>
        <time>2020-06-27T12:36:27Z</time>
      </trkpt>
      <trkpt lat="44.10022" lon="7.3897">
        <ele>2388.274</ele>
        <time>2020-06-27T12:36:43Z</time>
      </trkpt>
      <trkpt lat="44.10022" lon="7.38958">
        <ele>2389.62</ele>
        <time>2020-06-27T12:36:58Z</time>
      </trkpt>
      <trkpt lat="44.10022" lon="7.38958">
        <ele>2389.62</ele>
        <time>2020-06-27T12:37:14Z</time>
      </trkpt>
      <trkpt lat="44.10022" lon="7.38958">
        <ele>2389.62</ele>
        <time>2020-06-27T12:37:29Z</time>
      </trkpt>
      <trkpt lat="44.10022" lon="7.38958">
        <ele>2389.62</ele>
        <time>2020-06-27T12:37:44Z</time>
      </trkpt>
      <trkpt lat="44.10022" lon="7.38958">
        <ele>2389.62</ele>
        <time>2020-06-27T12:38:00Z</time>
      </trkpt>
      <trkpt lat="44.10019" lon="7.38952">
        <ele>2391.137</ele>
        <time>2020-06-27T12:38:16Z</time>
      </trkpt>
      <trkpt lat="44.10019" lon="7.38952">
        <ele>2391.137</ele>
        <time>2020-06-27T12:38:31Z</time>
      </trkpt>
      <trkpt lat="44.10018" lon="7.3895">
        <ele>2392.361</ele>
        <time>2020-06-27T12:38:47Z</time>
      </trkpt>
      <trkpt lat="44.10018" lon="7.3895">
        <ele>2392.361</ele>
        <time>2020-06-27T12:39:03Z</time>
      </trkpt>
      <trkpt lat="44.10018" lon="7.3895">
        <ele>2392.361</ele>
        <time>2020-06-27T12:39:18Z</time>
      </trkpt>
      <trkpt lat="44.10018" lon="7.3895">
        <ele>2392.361</ele>
        <time>2020-06-27T12:39:34Z</time>
      </trkpt>
      <trkpt lat="44.10018" lon="7.3895">
        <ele>2392.361</ele>
        <time>2020-06-27T12:39:50Z</time>
      </trkpt>
      <trkpt lat="44.10018" lon="7.3895">
        <ele>2392.361</ele>
        <time>2020-06-27T12:40:05Z</time>
      </trkpt>
      <trkpt lat="44.10011" lon="7.38949">
        <ele>2394.235</ele>
        <time>2020-06-27T12:40:21Z</time>
      </trkpt>
      <trkpt lat="44.10009" lon="7.38944">
        <ele>2397.776</ele>
        <time>2020-06-27T12:40:37Z</time>
      </trkpt>
      <trkpt lat="44.10007" lon="7.38927">
        <ele>2400.272</ele>
        <time>2020-06-27T12:40:53Z</time>
      </trkpt>
      <trkpt lat="44.10008" lon="7.38921">
        <ele>2401.77</ele>
        <time>2020-06-27T12:41:08Z</time>
      </trkpt>
      <trkpt lat="44.10003" lon="7.38911">
        <ele>2401.448</ele>
        <time>2020-06-27T12:41:24Z</time>
      </trkpt>
      <trkpt lat="44.10003" lon="7.38911">
        <ele>2401.448</ele>
        <time>2020-06-27T12:41:40Z</time>
      </trkpt>
      <trkpt lat="44.10002" lon="7.38904">
        <ele>2405.888</ele>
        <time>2020-06-27T12:41:56Z</time>
      </trkpt>
      <trkpt lat="44.10003" lon="7.38894">
        <ele>2409.722</ele>
        <time>2020-06-27T12:42:11Z</time>
      </trkpt>
      <trkpt lat="44.10002" lon="7.38882">
        <ele>2413.997</ele>
        <time>2020-06-27T12:42:27Z</time>
      </trkpt>
      <trkpt lat="44.1" lon="7.38877">
        <ele>2415.478</ele>
        <time>2020-06-27T12:42:43Z</time>
      </trkpt>
      <trkpt lat="44.09999" lon="7.38875">
        <ele>2415.57</ele>
        <time>2020-06-27T12:42:59Z</time>
      </trkpt>
      <trkpt lat="44.1" lon="7.38866">
        <ele>2425.398</ele>
        <time>2020-06-27T12:43:14Z</time>
      </trkpt>
      <trkpt lat="44.1" lon="7.38864">
        <ele>2427.473</ele>
        <time>2020-06-27T12:43:30Z</time>
      </trkpt>
      <trkpt lat="44.1" lon="7.3886">
        <ele>2428.784</ele>
        <time>2020-06-27T12:43:45Z</time>
      </trkpt>
      <trkpt lat="44.1" lon="7.38855">
        <ele>2428.249</ele>
        <time>2020-06-27T12:44:01Z</time>
      </trkpt>
      <trkpt lat="44.10001" lon="7.38848">
        <ele>2429.206</ele>
        <time>2020-06-27T12:44:17Z</time>
      </trkpt>
      <trkpt lat="44.10001" lon="7.38848">
        <ele>2429.206</ele>
        <time>2020-06-27T12:44:32Z</time>
      </trkpt>
      <trkpt lat="44.10001" lon="7.38848">
        <ele>2429.206</ele>
        <time>2020-06-27T12:44:48Z</time>
      </trkpt>
      <trkpt lat="44.10001" lon="7.38847">
        <ele>2429.919</ele>
        <time>2020-06-27T12:45:04Z</time>
      </trkpt>
      <trkpt lat="44.09999" lon="7.38832">
        <ele>2431.546</ele>
        <time>2020-06-27T12:45:19Z</time>
      </trkpt>
      <trkpt lat="44.1" lon="7.38828">
        <ele>2432.212</ele>
        <time>2020-06-27T12:45:35Z</time>
      </trkpt>
      <trkpt lat="44.10001" lon="7.38824">
        <ele>2435.338</ele>
        <time>2020-06-27T12:45:51Z</time>
      </trkpt>
      <trkpt lat="44.10001" lon="7.38824">
        <ele>2435.338</ele>
        <time>2020-06-27T12:46:06Z</time>
      </trkpt>
      <trkpt lat="44.1" lon="7.38817">
        <ele>2436.677</ele>
        <time>2020-06-27T12:46:22Z</time>
      </trkpt>
      <trkpt lat="44.10003" lon="7.38799">
        <ele>2439.183</ele>
        <time>2020-06-27T12:46:38Z</time>
      </trkpt>
      <trkpt lat="44.10001" lon="7.38797">
        <ele>2439.938</ele>
        <time>2020-06-27T12:46:53Z</time>
      </trkpt>
      <trkpt lat="44.10003" lon="7.38788">
        <ele>2441.554</ele>
        <time>2020-06-27T12:47:08Z</time>
      </trkpt>
      <trkpt lat="44.10003" lon="7.38788">
        <ele>2441.554</ele>
        <time>2020-06-27T12:47:24Z</time>
      </trkpt>
      <trkpt lat="44.10003" lon="7.38788">
        <ele>2441.554</ele>
        <time>2020-06-27T12:47:39Z</time>
      </trkpt>
      <trkpt lat="44.10003" lon="7.38788">
        <ele>2441.554</ele>
        <time>2020-06-27T12:47:55Z</time>
      </trkpt>
      <trkpt lat="44.10003" lon="7.38788">
        <ele>2441.554</ele>
        <time>2020-06-27T12:48:11Z</time>
      </trkpt>
      <trkpt lat="44.10007" lon="7.38771">
        <ele>2445.563</ele>
        <time>2020-06-27T12:48:27Z</time>
      </trkpt>
      <trkpt lat="44.10009" lon="7.38765">
        <ele>2447.897</ele>
        <time>2020-06-27T12:48:43Z</time>
      </trkpt>
      <trkpt lat="44.10011" lon="7.38761">
        <ele>2450.674</ele>
        <time>2020-06-27T12:48:59Z</time>
      </trkpt>
      <trkpt lat="44.10011" lon="7.38761">
        <ele>2450.674</ele>
        <time>2020-06-27T12:49:15Z</time>
      </trkpt>
      <trkpt lat="44.10011" lon="7.38761">
        <ele>2450.674</ele>
        <time>2020-06-27T12:49:30Z</time>
      </trkpt>
      <trkpt lat="44.10008" lon="7.38754">
        <ele>2454.874</ele>
        <time>2020-06-27T12:49:45Z</time>
      </trkpt>
      <trkpt lat="44.10008" lon="7.38754">
        <ele>2454.874</ele>
        <time>2020-06-27T12:50:01Z</time>
      </trkpt>
      <trkpt lat="44.10008" lon="7.38754">
        <ele>2454.874</ele>
        <time>2020-06-27T12:50:17Z</time>
      </trkpt>
      <trkpt lat="44.10008" lon="7.38754">
        <ele>2454.874</ele>
        <time>2020-06-27T12:50:33Z</time>
      </trkpt>
      <trkpt lat="44.10008" lon="7.38754">
        <ele>2454.874</ele>
        <time>2020-06-27T12:50:48Z</time>
      </trkpt>
      <trkpt lat="44.10008" lon="7.38754">
        <ele>2454.874</ele>
        <time>2020-06-27T12:51:03Z</time>
      </trkpt>
      <trkpt lat="44.1001" lon="7.38747">
        <ele>2457.356</ele>
        <time>2020-06-27T12:51:19Z</time>
      </trkpt>
      <trkpt lat="44.10011" lon="7.38737">
        <ele>2458.453</ele>
        <time>2020-06-27T12:51:35Z</time>
      </trkpt>
      <trkpt lat="44.10011" lon="7.38737">
        <ele>2458.453</ele>
        <time>2020-06-27T12:51:51Z</time>
      </trkpt>
      <trkpt lat="44.10011" lon="7.38737">
        <ele>2458.453</ele>
        <time>2020-06-27T12:52:06Z</time>
      </trkpt>
      <trkpt lat="44.10011" lon="7.38737">
        <ele>2458.453</ele>
        <time>2020-06-27T12:52:22Z</time>
      </trkpt>
      <trkpt lat="44.10011" lon="7.38737">
        <ele>2458.453</ele>
        <time>2020-06-27T12:52:38Z</time>
      </trkpt>
      <trkpt lat="44.10026" lon="7.38723">
        <ele>2472.39</ele>
        <time>2020-06-27T12:52:53Z</time>
      </trkpt>
      <trkpt lat="44.10026" lon="7.38723">
        <ele>2472.39</ele>
        <time>2020-06-27T12:53:08Z</time>
      </trkpt>
      <trkpt lat="44.10032" lon="7.38712">
        <ele>2476.294</ele>
        <time>2020-06-27T12:53:24Z</time>
      </trkpt>
      <trkpt lat="44.10038" lon="7.38704">
        <ele>2478.586</ele>
        <time>2020-06-27T12:53:40Z</time>
      </trkpt>
      <trkpt lat="44.10038" lon="7.38699">
        <ele>2477.683</ele>
        <time>2020-06-27T12:53:56Z</time>
      </trkpt>
      <trkpt lat="44.10038" lon="7.38699">
        <ele>2477.683</ele>
        <time>2020-06-27T12:54:11Z</time>
      </trkpt>
      <trkpt lat="44.10047" lon="7.38686">
        <ele>2480.62</ele>
        <time>2020-06-27T12:54:27Z</time>
      </trkpt>
      <trkpt lat="44.10047" lon="7.38686">
        <ele>2480.62</ele>
        <time>2020-06-27T12:54:42Z</time>
      </trkpt>
      <trkpt lat="44.10052" lon="7.38675">
        <ele>2483.959</ele>
        <time>2020-06-27T12:54:58Z</time>
      </trkpt>
      <trkpt lat="44.10052" lon="7.38675">
        <ele>2483.959</ele>
        <time>2020-06-27T12:55:14Z</time>
      </trkpt>
      <trkpt lat="44.10064" lon="7.38672">
        <ele>2489.063</ele>
        <time>2020-06-27T12:55:29Z</time>
      </trkpt>
      <trkpt lat="44.10064" lon="7.38672">
        <ele>2489.063</ele>
        <time>2020-06-27T12:55:45Z</time>
      </trkpt>
      <trkpt lat="44.10068" lon="7.38671">
        <ele>2493.11</ele>
        <time>2020-06-27T12:56:01Z</time>
      </trkpt>
      <trkpt lat="44.10076" lon="7.38665">
        <ele>2498.546</ele>
        <time>2020-06-27T12:56:17Z</time>
      </trkpt>
      <trkpt lat="44.10078" lon="7.38661">
        <ele>2501.485</ele>
        <time>2020-06-27T12:56:32Z</time>
      </trkpt>
      <trkpt lat="44.10078" lon="7.38661">
        <ele>2501.485</ele>
        <time>2020-06-27T12:56:48Z</time>
      </trkpt>
      <trkpt lat="44.10078" lon="7.38661">
        <ele>2501.485</ele>
        <time>2020-06-27T12:57:04Z</time>
      </trkpt>
      <trkpt lat="44.10079" lon="7.38648">
        <ele>2504.27</ele>
        <time>2020-06-27T12:57:20Z</time>
      </trkpt>
      <trkpt lat="44.10085" lon="7.38649">
        <ele>2508.774</ele>
        <time>2020-06-27T12:57:35Z</time>
      </trkpt>
      <trkpt lat="44.10085" lon="7.38649">
        <ele>2508.774</ele>
        <time>2020-06-27T12:57:51Z</time>
      </trkpt>
      <trkpt lat="44.10089" lon="7.38651">
        <ele>2511.514</ele>
        <time>2020-06-27T12:58:06Z</time>
      </trkpt>
      <trkpt lat="44.10089" lon="7.38651">
        <ele>2511.514</ele>
        <time>2020-06-27T12:58:22Z</time>
      </trkpt>
      <trkpt lat="44.10089" lon="7.38651">
        <ele>2511.514</ele>
        <time>2020-06-27T12:58:38Z</time>
      </trkpt>
      <trkpt lat="44.10089" lon="7.38651">
        <ele>2511.514</ele>
        <time>2020-06-27T12:58:53Z</time>
      </trkpt>
      <trkpt lat="44.10089" lon="7.38651">
        <ele>2511.514</ele>
        <time>2020-06-27T12:59:09Z</time>
      </trkpt>
      <trkpt lat="44.101" lon="7.3864">
        <ele>2520.225</ele>
        <time>2020-06-27T12:59:24Z</time>
      </trkpt>
      <trkpt lat="44.10111" lon="7.38626">
        <ele>2539.273</ele>
        <time>2020-06-27T12:59:40Z</time>
      </trkpt>
      <trkpt lat="44.10112" lon="7.38627">
        <ele>2541.75</ele>
        <time>2020-06-27T12:59:55Z</time>
      </trkpt>
      <trkpt lat="44.10112" lon="7.38627">
        <ele>2541.75</ele>
        <time>2020-06-27T13:00:11Z</time>
      </trkpt>
      <trkpt lat="44.10112" lon="7.38627">
        <ele>2541.75</ele>
        <time>2020-06-27T13:00:27Z</time>
      </trkpt>
      <trkpt lat="44.10112" lon="7.38627">
        <ele>2541.75</ele>
        <time>2020-06-27T13:00:43Z</time>
      </trkpt>
      <trkpt lat="44.10112" lon="7.38627">
        <ele>2541.75</ele>
        <time>2020-06-27T13:00:59Z</time>
      </trkpt>
      <trkpt lat="44.10112" lon="7.38622">
        <ele>2541.762</ele>
        <time>2020-06-27T13:01:14Z</time>
      </trkpt>
      <trkpt lat="44.10112" lon="7.38622">
        <ele>2541.762</ele>
        <time>2020-06-27T13:01:29Z</time>
      </trkpt>
      <trkpt lat="44.10115" lon="7.38618">
        <ele>2551.476</ele>
        <time>2020-06-27T13:01:44Z</time>
      </trkpt>
      <trkpt lat="44.10115" lon="7.38618">
        <ele>2551.476</ele>
        <time>2020-06-27T13:02:00Z</time>
      </trkpt>
      <trkpt lat="44.10117" lon="7.38613">
        <ele>2552.872</ele>
        <time>2020-06-27T13:02:16Z</time>
      </trkpt>
      <trkpt lat="44.10116" lon="7.38612">
        <ele>2553.011</ele>
        <time>2020-06-27T13:02:31Z</time>
      </trkpt>
      <trkpt lat="44.10116" lon="7.38607">
        <ele>2555.57</ele>
        <time>2020-06-27T13:02:46Z</time>
      </trkpt>
      <trkpt lat="44.10116" lon="7.38607">
        <ele>2555.57</ele>
        <time>2020-06-27T13:03:02Z</time>
      </trkpt>
      <trkpt lat="44.10116" lon="7.38607">
        <ele>2555.57</ele>
        <time>2020-06-27T13:03:17Z</time>
      </trkpt>
      <trkpt lat="44.10116" lon="7.38607">
        <ele>2555.57</ele>
        <time>2020-06-27T13:03:33Z</time>
      </trkpt>
      <trkpt lat="44.10116" lon="7.38605">
        <ele>2558.271</ele>
        <time>2020-06-27T13:03:48Z</time>
      </trkpt>
      <trkpt lat="44.10109" lon="7.38602">
        <ele>2559.882</ele>
        <time>2020-06-27T13:04:03Z</time>
      </trkpt>
      <trkpt lat="44.10109" lon="7.38602">
        <ele>2559.882</ele>
        <time>2020-06-27T13:04:18Z</time>
      </trkpt>
      <trkpt lat="44.10109" lon="7.38602">
        <ele>2559.882</ele>
        <time>2020-06-27T13:04:34Z</time>
      </trkpt>
      <trkpt lat="44.10104" lon="7.38589">
        <ele>2565.632</ele>
        <time>2020-06-27T13:04:50Z</time>
      </trkpt>
      <trkpt lat="44.10104" lon="7.38587">
        <ele>2574.34</ele>
        <time>2020-06-27T13:05:06Z</time>
      </trkpt>
      <trkpt lat="44.10104" lon="7.38587">
        <ele>2574.34</ele>
        <time>2020-06-27T13:05:21Z</time>
      </trkpt>
      <trkpt lat="44.10105" lon="7.38587">
        <ele>2576.198</ele>
        <time>2020-06-27T13:05:37Z</time>
      </trkpt>
      <trkpt lat="44.101" lon="7.38585">
        <ele>2578.166</ele>
        <time>2020-06-27T13:05:53Z</time>
      </trkpt>
      <trkpt lat="44.101" lon="7.38585">
        <ele>2578.166</ele>
        <time>2020-06-27T13:06:08Z</time>
      </trkpt>
      <trkpt lat="44.10098" lon="7.38583">
        <ele>2578.283</ele>
        <time>2020-06-27T13:06:24Z</time>
      </trkpt>
      <trkpt lat="44.10099" lon="7.38583">
        <ele>2578.516</ele>
        <time>2020-06-27T13:06:39Z</time>
      </trkpt>
      <trkpt lat="44.10095" lon="7.38584">
        <ele>2578.419</ele>
        <time>2020-06-27T13:06:55Z</time>
      </trkpt>
      <trkpt lat="44.10096" lon="7.38586">
        <ele>2578.49</ele>
        <time>2020-06-27T13:07:10Z</time>
      </trkpt>
      <trkpt lat="44.10095" lon="7.38586">
        <ele>2579.209</ele>
        <time>2020-06-27T13:07:26Z</time>
      </trkpt>
      <trkpt lat="44.10095" lon="7.38586">
        <ele>2579.209</ele>
        <time>2020-06-27T13:07:41Z</time>
      </trkpt>
      <trkpt lat="44.10095" lon="7.38586">
        <ele>2579.209</ele>
        <time>2020-06-27T13:07:57Z</time>
      </trkpt>
      <trkpt lat="44.10095" lon="7.38586">
        <ele>2579.209</ele>
        <time>2020-06-27T13:08:13Z</time>
      </trkpt>
      <trkpt lat="44.10095" lon="7.38586">
        <ele>2579.209</ele>
        <time>2020-06-27T13:08:29Z</time>
      </trkpt>
      <trkpt lat="44.10092" lon="7.38585">
        <ele>2580.038</ele>
        <time>2020-06-27T13:08:45Z</time>
      </trkpt>
      <trkpt lat="44.10092" lon="7.38585">
        <ele>2580.038</ele>
        <time>2020-06-27T13:09:01Z</time>
      </trkpt>
      <trkpt lat="44.10092" lon="7.38585">
        <ele>2580.038</ele>
        <time>2020-06-27T13:09:17Z</time>
      </trkpt>
      <trkpt lat="44.10092" lon="7.38585">
        <ele>2580.038</ele>
        <time>2020-06-27T13:09:33Z</time>
      </trkpt>
      <trkpt lat="44.10092" lon="7.38585">
        <ele>2580.038</ele>
        <time>2020-06-27T13:09:49Z</time>
      </trkpt>
      <trkpt lat="44.10092" lon="7.38585">
        <ele>2580.038</ele>
        <time>2020-06-27T13:10:04Z</time>
      </trkpt>
      <trkpt lat="44.10095" lon="7.38583">
        <ele>2583.056</ele>
        <time>2020-06-27T13:10:19Z</time>
      </trkpt>
      <trkpt lat="44.10098" lon="7.38581">
        <ele>2582.085</ele>
        <time>2020-06-27T13:10:35Z</time>
      </trkpt>
      <trkpt lat="44.10103" lon="7.38576">
        <ele>2581.381</ele>
        <time>2020-06-27T13:10:51Z</time>
      </trkpt>
      <trkpt lat="44.1011" lon="7.38573">
        <ele>2579.297</ele>
        <time>2020-06-27T13:11:06Z</time>
      </trkpt>
      <trkpt lat="44.10103" lon="7.38567">
        <ele>2576.748</ele>
        <time>2020-06-27T13:11:22Z</time>
      </trkpt>
      <trkpt lat="44.10111" lon="7.38567">
        <ele>2576.961</ele>
        <time>2020-06-27T13:11:38Z</time>
      </trkpt>
      <trkpt lat="44.10114" lon="7.38564">
        <ele>2576.62</ele>
        <time>2020-06-27T13:11:53Z</time>
      </trkpt>
      <trkpt lat="44.10115" lon="7.38563">
        <ele>2575.899</ele>
        <time>2020-06-27T13:12:09Z</time>
      </trkpt>
      <trkpt lat="44.10122" lon="7.38555">
        <ele>2573.851</ele>
        <time>2020-06-27T13:12:24Z</time>
      </trkpt>
      <trkpt lat="44.10122" lon="7.38551">
        <ele>2572.747</ele>
        <time>2020-06-27T13:12:39Z</time>
      </trkpt>
      <trkpt lat="44.10127" lon="7.38548">
        <ele>2569.77</ele>
        <time>2020-06-27T13:12:55Z</time>
      </trkpt>
      <trkpt lat="44.10131" lon="7.38538">
        <ele>2568.062</ele>
        <time>2020-06-27T13:13:10Z</time>
      </trkpt>
      <trkpt lat="44.10131" lon="7.38538">
        <ele>2563.414</ele>
        <time>2020-06-27T13:13:25Z</time>
      </trkpt>
      <trkpt lat="44.10133" lon="7.38527">
        <ele>2565.014</ele>
        <time>2020-06-27T13:13:41Z</time>
      </trkpt>
      <trkpt lat="44.10137" lon="7.38516">
        <ele>2564.295</ele>
        <time>2020-06-27T13:13:57Z</time>
      </trkpt>
      <trkpt lat="44.10136" lon="7.38515">
        <ele>2565.264</ele>
        <time>2020-06-27T13:14:13Z</time>
      </trkpt>
      <trkpt lat="44.10136" lon="7.38515">
        <ele>2565.264</ele>
        <time>2020-06-27T13:14:28Z</time>
      </trkpt>
      <trkpt lat="44.10136" lon="7.38515">
        <ele>2565.264</ele>
        <time>2020-06-27T13:14:43Z</time>
      </trkpt>
      <trkpt lat="44.10135" lon="7.38513">
        <ele>2566.547</ele>
        <time>2020-06-27T13:14:59Z</time>
      </trkpt>
      <trkpt lat="44.10132" lon="7.3851">
        <ele>2564.491</ele>
        <time>2020-06-27T13:15:14Z</time>
      </trkpt>
      <trkpt lat="44.10132" lon="7.3851">
        <ele>2564.491</ele>
        <time>2020-06-27T13:15:29Z</time>
      </trkpt>
      <trkpt lat="44.10132" lon="7.3851">
        <ele>2564.491</ele>
        <time>2020-06-27T13:15:45Z</time>
      </trkpt>
      <trkpt lat="44.10132" lon="7.3851">
        <ele>2564.491</ele>
        <time>2020-06-27T13:16:01Z</time>
      </trkpt>
      <trkpt lat="44.1013" lon="7.38508">
        <ele>2563.836</ele>
        <time>2020-06-27T13:16:17Z</time>
      </trkpt>
      <trkpt lat="44.1013" lon="7.38508">
        <ele>2563.836</ele>
        <time>2020-06-27T13:16:32Z</time>
      </trkpt>
      <trkpt lat="44.10133" lon="7.38509">
        <ele>2560.178</ele>
        <time>2020-06-27T13:16:48Z</time>
      </trkpt>
      <trkpt lat="44.10139" lon="7.38502">
        <ele>2551.613</ele>
        <time>2020-06-27T13:17:04Z</time>
      </trkpt>
      <trkpt lat="44.10141" lon="7.38502">
        <ele>2549.539</ele>
        <time>2020-06-27T13:17:19Z</time>
      </trkpt>
      <trkpt lat="44.1014" lon="7.38498">
        <ele>2549.45</ele>
        <time>2020-06-27T13:17:35Z</time>
      </trkpt>
      <trkpt lat="44.10141" lon="7.38498">
        <ele>2549.435</ele>
        <time>2020-06-27T13:17:51Z</time>
      </trkpt>
      <trkpt lat="44.10146" lon="7.38493">
        <ele>2547.889</ele>
        <time>2020-06-27T13:18:06Z</time>
      </trkpt>
      <trkpt lat="44.1015" lon="7.38492">
        <ele>2545.059</ele>
        <time>2020-06-27T13:18:21Z</time>
      </trkpt>
      <trkpt lat="44.10158" lon="7.3849">
        <ele>2544.033</ele>
        <time>2020-06-27T13:18:37Z</time>
      </trkpt>
      <trkpt lat="44.10158" lon="7.3849">
        <ele>2544.033</ele>
        <time>2020-06-27T13:18:52Z</time>
      </trkpt>
      <trkpt lat="44.1016" lon="7.38487">
        <ele>2544.409</ele>
        <time>2020-06-27T13:19:08Z</time>
      </trkpt>
      <trkpt lat="44.10169" lon="7.38477">
        <ele>2540.922</ele>
        <time>2020-06-27T13:19:24Z</time>
      </trkpt>
      <trkpt lat="44.10174" lon="7.3848">
        <ele>2539.781</ele>
        <time>2020-06-27T13:19:39Z</time>
      </trkpt>
      <trkpt lat="44.10174" lon="7.3848">
        <ele>2539.781</ele>
        <time>2020-06-27T13:19:54Z</time>
      </trkpt>
      <trkpt lat="44.10179" lon="7.38475">
        <ele>2537.977</ele>
        <time>2020-06-27T13:20:10Z</time>
      </trkpt>
      <trkpt lat="44.10183" lon="7.38466">
        <ele>2537.04</ele>
        <time>2020-06-27T13:20:26Z</time>
      </trkpt>
      <trkpt lat="44.10186" lon="7.38456">
        <ele>2537.501</ele>
        <time>2020-06-27T13:20:42Z</time>
      </trkpt>
      <trkpt lat="44.10175" lon="7.38459">
        <ele>2533.731</ele>
        <time>2020-06-27T13:20:57Z</time>
      </trkpt>
      <trkpt lat="44.10166" lon="7.38452">
        <ele>2532.014</ele>
        <time>2020-06-27T13:21:13Z</time>
      </trkpt>
      <trkpt lat="44.10166" lon="7.38445">
        <ele>2526.091</ele>
        <time>2020-06-27T13:21:28Z</time>
      </trkpt>
      <trkpt lat="44.10167" lon="7.3843">
        <ele>2522.294</ele>
        <time>2020-06-27T13:21:44Z</time>
      </trkpt>
      <trkpt lat="44.10167" lon="7.3843">
        <ele>2522.294</ele>
        <time>2020-06-27T13:21:59Z</time>
      </trkpt>
      <trkpt lat="44.10167" lon="7.3843">
        <ele>2522.294</ele>
        <time>2020-06-27T13:22:15Z</time>
      </trkpt>
      <trkpt lat="44.10167" lon="7.38432">
        <ele>2521.446</ele>
        <time>2020-06-27T13:22:30Z</time>
      </trkpt>
      <trkpt lat="44.10173" lon="7.38442">
        <ele>2519.376</ele>
        <time>2020-06-27T13:22:45Z</time>
      </trkpt>
      <trkpt lat="44.10173" lon="7.38435">
        <ele>2518.078</ele>
        <time>2020-06-27T13:23:00Z</time>
      </trkpt>
      <trkpt lat="44.10162" lon="7.38428">
        <ele>2516.182</ele>
        <time>2020-06-27T13:23:15Z</time>
      </trkpt>
      <trkpt lat="44.10165" lon="7.38425">
        <ele>2512.666</ele>
        <time>2020-06-27T13:23:31Z</time>
      </trkpt>
      <trkpt lat="44.10162" lon="7.38422">
        <ele>2512.245</ele>
        <time>2020-06-27T13:23:46Z</time>
      </trkpt>
      <trkpt lat="44.1015" lon="7.38407">
        <ele>2510.654</ele>
        <time>2020-06-27T13:24:02Z</time>
      </trkpt>
      <trkpt lat="44.10149" lon="7.38406">
        <ele>2509.992</ele>
        <time>2020-06-27T13:24:18Z</time>
      </trkpt>
      <trkpt lat="44.10147" lon="7.38405">
        <ele>2509.45</ele>
        <time>2020-06-27T13:24:34Z</time>
      </trkpt>
      <trkpt lat="44.10145" lon="7.38396">
        <ele>2507.214</ele>
        <time>2020-06-27T13:24:49Z</time>
      </trkpt>
      <trkpt lat="44.1014" lon="7.38391">
        <ele>2504.439</ele>
        <time>2020-06-27T13:25:05Z</time>
      </trkpt>
      <trkpt lat="44.1014" lon="7.38383">
        <ele>2504.67</ele>
        <time>2020-06-27T13:25:20Z</time>
      </trkpt>
      <trkpt lat="44.10139" lon="7.3838">
        <ele>2503.494</ele>
        <time>2020-06-27T13:25:36Z</time>
      </trkpt>
      <trkpt lat="44.10136" lon="7.38377">
        <ele>2500.522</ele>
        <time>2020-06-27T13:25:51Z</time>
      </trkpt>
      <trkpt lat="44.10146" lon="7.38367">
        <ele>2492.201</ele>
        <time>2020-06-27T13:26:07Z</time>
      </trkpt>
      <trkpt lat="44.10145" lon="7.38351">
        <ele>2490.152</ele>
        <time>2020-06-27T13:26:22Z</time>
      </trkpt>
      <trkpt lat="44.10135" lon="7.38336">
        <ele>2485.957</ele>
        <time>2020-06-27T13:26:38Z</time>
      </trkpt>
      <trkpt lat="44.10139" lon="7.38314">
        <ele>2480.385</ele>
        <time>2020-06-27T13:26:54Z</time>
      </trkpt>
      <trkpt lat="44.10142" lon="7.38308">
        <ele>2474.843</ele>
        <time>2020-06-27T13:27:10Z</time>
      </trkpt>
      <trkpt lat="44.10156" lon="7.38287">
        <ele>2475.656</ele>
        <time>2020-06-27T13:27:25Z</time>
      </trkpt>
      <trkpt lat="44.10171" lon="7.38272">
        <ele>2475.061</ele>
        <time>2020-06-27T13:27:41Z</time>
      </trkpt>
      <trkpt lat="44.10174" lon="7.38269">
        <ele>2474.437</ele>
        <time>2020-06-27T13:27:57Z</time>
      </trkpt>
      <trkpt lat="44.10172" lon="7.38269">
        <ele>2473.865</ele>
        <time>2020-06-27T13:28:12Z</time>
      </trkpt>
      <trkpt lat="44.10177" lon="7.38266">
        <ele>2474.363</ele>
        <time>2020-06-27T13:28:27Z</time>
      </trkpt>
      <trkpt lat="44.10175" lon="7.38261">
        <ele>2474.286</ele>
        <time>2020-06-27T13:28:43Z</time>
      </trkpt>
      <trkpt lat="44.10176" lon="7.3825">
        <ele>2477.376</ele>
        <time>2020-06-27T13:28:58Z</time>
      </trkpt>
      <trkpt lat="44.10178" lon="7.38238">
        <ele>2475.884</ele>
        <time>2020-06-27T13:29:14Z</time>
      </trkpt>
      <trkpt lat="44.10178" lon="7.38238">
        <ele>2475.884</ele>
        <time>2020-06-27T13:29:30Z</time>
      </trkpt>
      <trkpt lat="44.10178" lon="7.38238">
        <ele>2475.884</ele>
        <time>2020-06-27T13:29:45Z</time>
      </trkpt>
      <trkpt lat="44.10178" lon="7.38238">
        <ele>2475.884</ele>
        <time>2020-06-27T13:30:00Z</time>
      </trkpt>
      <trkpt lat="44.10178" lon="7.38238">
        <ele>2475.884</ele>
        <time>2020-06-27T13:30:15Z</time>
      </trkpt>
      <trkpt lat="44.10178" lon="7.38238">
        <ele>2475.884</ele>
        <time>2020-06-27T13:30:30Z</time>
      </trkpt>
      <trkpt lat="44.10178" lon="7.38238">
        <ele>2475.884</ele>
        <time>2020-06-27T13:30:46Z</time>
      </trkpt>
      <trkpt lat="44.10178" lon="7.38238">
        <ele>2475.884</ele>
        <time>2020-06-27T13:31:01Z</time>
      </trkpt>
      <trkpt lat="44.10178" lon="7.38238">
        <ele>2475.884</ele>
        <time>2020-06-27T13:31:17Z</time>
      </trkpt>
      <trkpt lat="44.10178" lon="7.38238">
        <ele>2475.884</ele>
        <time>2020-06-27T13:31:32Z</time>
      </trkpt>
      <trkpt lat="44.10178" lon="7.38238">
        <ele>2475.884</ele>
        <time>2020-06-27T13:31:48Z</time>
      </trkpt>
      <trkpt lat="44.10178" lon="7.38238">
        <ele>2475.884</ele>
        <time>2020-06-27T13:32:04Z</time>
      </trkpt>
      <trkpt lat="44.10178" lon="7.38238">
        <ele>2475.884</ele>
        <time>2020-06-27T13:32:19Z</time>
      </trkpt>
      <trkpt lat="44.10178" lon="7.38238">
        <ele>2475.884</ele>
        <time>2020-06-27T13:32:34Z</time>
      </trkpt>
      <trkpt lat="44.10186" lon="7.3823">
        <ele>2474.562</ele>
        <time>2020-06-27T13:32:50Z</time>
      </trkpt>
      <trkpt lat="44.10192" lon="7.38226">
        <ele>2474.189</ele>
        <time>2020-06-27T13:33:05Z</time>
      </trkpt>
      <trkpt lat="44.10199" lon="7.38209">
        <ele>2471.332</ele>
        <time>2020-06-27T13:33:21Z</time>
      </trkpt>
      <trkpt lat="44.10205" lon="7.38199">
        <ele>2470.759</ele>
        <time>2020-06-27T13:33:37Z</time>
      </trkpt>
      <trkpt lat="44.10212" lon="7.38192">
        <ele>2469.818</ele>
        <time>2020-06-27T13:33:52Z</time>
      </trkpt>
      <trkpt lat="44.10211" lon="7.38189">
        <ele>2469.954</ele>
        <time>2020-06-27T13:34:08Z</time>
      </trkpt>
      <trkpt lat="44.1021" lon="7.38181">
        <ele>2468.838</ele>
        <time>2020-06-27T13:34:23Z</time>
      </trkpt>
      <trkpt lat="44.10213" lon="7.38162">
        <ele>2467.645</ele>
        <time>2020-06-27T13:34:39Z</time>
      </trkpt>
      <trkpt lat="44.10215" lon="7.38153">
        <ele>2461.038</ele>
        <time>2020-06-27T13:34:55Z</time>
      </trkpt>
      <trkpt lat="44.10213" lon="7.38146">
        <ele>2456.371</ele>
        <time>2020-06-27T13:35:10Z</time>
      </trkpt>
      <trkpt lat="44.10211" lon="7.38142">
        <ele>2453.456</ele>
        <time>2020-06-27T13:35:26Z</time>
      </trkpt>
      <trkpt lat="44.10214" lon="7.38133">
        <ele>2449.747</ele>
        <time>2020-06-27T13:35:41Z</time>
      </trkpt>
      <trkpt lat="44.10215" lon="7.38133">
        <ele>2449.669</ele>
        <time>2020-06-27T13:35:57Z</time>
      </trkpt>
      <trkpt lat="44.10215" lon="7.38133">
        <ele>2449.669</ele>
        <time>2020-06-27T13:36:13Z</time>
      </trkpt>
      <trkpt lat="44.10215" lon="7.38133">
        <ele>2449.669</ele>
        <time>2020-06-27T13:36:28Z</time>
      </trkpt>
      <trkpt lat="44.10217" lon="7.38127">
        <ele>2449.826</ele>
        <time>2020-06-27T13:36:44Z</time>
      </trkpt>
      <trkpt lat="44.10224" lon="7.38123">
        <ele>2450.968</ele>
        <time>2020-06-27T13:36:59Z</time>
      </trkpt>
      <trkpt lat="44.10237" lon="7.38119">
        <ele>2452.21</ele>
        <time>2020-06-27T13:37:15Z</time>
      </trkpt>
      <trkpt lat="44.10252" lon="7.38113">
        <ele>2448.605</ele>
        <time>2020-06-27T13:37:31Z</time>
      </trkpt>
      <trkpt lat="44.10253" lon="7.38099">
        <ele>2446.187</ele>
        <time>2020-06-27T13:37:47Z</time>
      </trkpt>
      <trkpt lat="44.10263" lon="7.38083">
        <ele>2442.18</ele>
        <time>2020-06-27T13:38:03Z</time>
      </trkpt>
      <trkpt lat="44.10263" lon="7.38075">
        <ele>2441.396</ele>
        <time>2020-06-27T13:38:18Z</time>
      </trkpt>
      <trkpt lat="44.1026" lon="7.38055">
        <ele>2439.815</ele>
        <time>2020-06-27T13:38:33Z</time>
      </trkpt>
      <trkpt lat="44.10272" lon="7.38039">
        <ele>2442.348</ele>
        <time>2020-06-27T13:38:48Z</time>
      </trkpt>
      <trkpt lat="44.10282" lon="7.38025">
        <ele>2441.008</ele>
        <time>2020-06-27T13:39:04Z</time>
      </trkpt>
      <trkpt lat="44.10281" lon="7.38003">
        <ele>2437.969</ele>
        <time>2020-06-27T13:39:20Z</time>
      </trkpt>
      <trkpt lat="44.10282" lon="7.37989">
        <ele>2434.653</ele>
        <time>2020-06-27T13:39:36Z</time>
      </trkpt>
      <trkpt lat="44.10282" lon="7.37989">
        <ele>2434.653</ele>
        <time>2020-06-27T13:39:52Z</time>
      </trkpt>
      <trkpt lat="44.10282" lon="7.37989">
        <ele>2434.653</ele>
        <time>2020-06-27T13:40:07Z</time>
      </trkpt>
      <trkpt lat="44.10282" lon="7.37989">
        <ele>2434.653</ele>
        <time>2020-06-27T13:40:23Z</time>
      </trkpt>
      <trkpt lat="44.10283" lon="7.37979">
        <ele>2434.652</ele>
        <time>2020-06-27T13:40:38Z</time>
      </trkpt>
      <trkpt lat="44.10287" lon="7.37975">
        <ele>2430.492</ele>
        <time>2020-06-27T13:40:54Z</time>
      </trkpt>
      <trkpt lat="44.10287" lon="7.37975">
        <ele>2430.492</ele>
        <time>2020-06-27T13:41:09Z</time>
      </trkpt>
      <trkpt lat="44.10288" lon="7.37958">
        <ele>2434.903</ele>
        <time>2020-06-27T13:41:25Z</time>
      </trkpt>
      <trkpt lat="44.10284" lon="7.37941">
        <ele>2435.2</ele>
        <time>2020-06-27T13:41:41Z</time>
      </trkpt>
      <trkpt lat="44.10284" lon="7.37926">
        <ele>2427.204</ele>
        <time>2020-06-27T13:41:57Z</time>
      </trkpt>
      <trkpt lat="44.1028" lon="7.37929">
        <ele>2429.079</ele>
        <time>2020-06-27T13:42:13Z</time>
      </trkpt>
      <trkpt lat="44.10275" lon="7.37931">
        <ele>2430.019</ele>
        <time>2020-06-27T13:42:28Z</time>
      </trkpt>
      <trkpt lat="44.10278" lon="7.37926">
        <ele>2427.766</ele>
        <time>2020-06-27T13:42:44Z</time>
      </trkpt>
      <trkpt lat="44.10269" lon="7.37907">
        <ele>2425.989</ele>
        <time>2020-06-27T13:43:00Z</time>
      </trkpt>
      <trkpt lat="44.10276" lon="7.37887">
        <ele>2423.768</ele>
        <time>2020-06-27T13:43:15Z</time>
      </trkpt>
      <trkpt lat="44.10279" lon="7.37877">
        <ele>2421.828</ele>
        <time>2020-06-27T13:43:30Z</time>
      </trkpt>
      <trkpt lat="44.1027" lon="7.37866">
        <ele>2422.628</ele>
        <time>2020-06-27T13:43:46Z</time>
      </trkpt>
      <trkpt lat="44.1027" lon="7.37857">
        <ele>2421.638</ele>
        <time>2020-06-27T13:44:02Z</time>
      </trkpt>
      <trkpt lat="44.10266" lon="7.37847">
        <ele>2417.813</ele>
        <time>2020-06-27T13:44:18Z</time>
      </trkpt>
      <trkpt lat="44.10264" lon="7.37842">
        <ele>2414.641</ele>
        <time>2020-06-27T13:44:34Z</time>
      </trkpt>
      <trkpt lat="44.10268" lon="7.37836">
        <ele>2411.503</ele>
        <time>2020-06-27T13:44:50Z</time>
      </trkpt>
      <trkpt lat="44.10269" lon="7.37828">
        <ele>2407.434</ele>
        <time>2020-06-27T13:45:06Z</time>
      </trkpt>
      <trkpt lat="44.10272" lon="7.37822">
        <ele>2407.909</ele>
        <time>2020-06-27T13:45:22Z</time>
      </trkpt>
      <trkpt lat="44.10275" lon="7.37804">
        <ele>2403.27</ele>
        <time>2020-06-27T13:45:38Z</time>
      </trkpt>
      <trkpt lat="44.10264" lon="7.37801">
        <ele>2401.016</ele>
        <time>2020-06-27T13:45:54Z</time>
      </trkpt>
      <trkpt lat="44.10257" lon="7.37787">
        <ele>2399.544</ele>
        <time>2020-06-27T13:46:09Z</time>
      </trkpt>
      <trkpt lat="44.10269" lon="7.37769">
        <ele>2392.747</ele>
        <time>2020-06-27T13:46:25Z</time>
      </trkpt>
      <trkpt lat="44.10264" lon="7.37761">
        <ele>2389.793</ele>
        <time>2020-06-27T13:46:41Z</time>
      </trkpt>
      <trkpt lat="44.1027" lon="7.37754">
        <ele>2387.343</ele>
        <time>2020-06-27T13:46:56Z</time>
      </trkpt>
      <trkpt lat="44.10262" lon="7.37743">
        <ele>2379.259</ele>
        <time>2020-06-27T13:47:12Z</time>
      </trkpt>
      <trkpt lat="44.10261" lon="7.37735">
        <ele>2378.635</ele>
        <time>2020-06-27T13:47:28Z</time>
      </trkpt>
      <trkpt lat="44.10259" lon="7.37731">
        <ele>2379.878</ele>
        <time>2020-06-27T13:47:44Z</time>
      </trkpt>
      <trkpt lat="44.10255" lon="7.3772">
        <ele>2377.166</ele>
        <time>2020-06-27T13:47:59Z</time>
      </trkpt>
      <trkpt lat="44.10252" lon="7.37709">
        <ele>2371.661</ele>
        <time>2020-06-27T13:48:14Z</time>
      </trkpt>
      <trkpt lat="44.1025" lon="7.37695">
        <ele>2368.761</ele>
        <time>2020-06-27T13:48:30Z</time>
      </trkpt>
      <trkpt lat="44.10251" lon="7.3769">
        <ele>2368.205</ele>
        <time>2020-06-27T13:48:46Z</time>
      </trkpt>
      <trkpt lat="44.10257" lon="7.37676">
        <ele>2369.078</ele>
        <time>2020-06-27T13:49:02Z</time>
      </trkpt>
      <trkpt lat="44.10258" lon="7.37658">
        <ele>2366.872</ele>
        <time>2020-06-27T13:49:18Z</time>
      </trkpt>
      <trkpt lat="44.10253" lon="7.37641">
        <ele>2364.161</ele>
        <time>2020-06-27T13:49:33Z</time>
      </trkpt>
      <trkpt lat="44.10251" lon="7.37624">
        <ele>2362.036</ele>
        <time>2020-06-27T13:49:49Z</time>
      </trkpt>
      <trkpt lat="44.10252" lon="7.37623">
        <ele>2362.161</ele>
        <time>2020-06-27T13:50:05Z</time>
      </trkpt>
      <trkpt lat="44.10252" lon="7.37623">
        <ele>2362.161</ele>
        <time>2020-06-27T13:50:21Z</time>
      </trkpt>
      <trkpt lat="44.10252" lon="7.37623">
        <ele>2362.161</ele>
        <time>2020-06-27T13:50:37Z</time>
      </trkpt>
      <trkpt lat="44.10252" lon="7.37623">
        <ele>2362.161</ele>
        <time>2020-06-27T13:50:52Z</time>
      </trkpt>
      <trkpt lat="44.10252" lon="7.37623">
        <ele>2362.161</ele>
        <time>2020-06-27T13:51:08Z</time>
      </trkpt>
      <trkpt lat="44.10252" lon="7.37623">
        <ele>2362.161</ele>
        <time>2020-06-27T13:51:23Z</time>
      </trkpt>
      <trkpt lat="44.10252" lon="7.37623">
        <ele>2362.161</ele>
        <time>2020-06-27T13:51:38Z</time>
      </trkpt>
      <trkpt lat="44.10253" lon="7.37623">
        <ele>2361.218</ele>
        <time>2020-06-27T13:51:54Z</time>
      </trkpt>
      <trkpt lat="44.10259" lon="7.37623">
        <ele>2359.233</ele>
        <time>2020-06-27T13:52:09Z</time>
      </trkpt>
      <trkpt lat="44.10259" lon="7.37623">
        <ele>2359.233</ele>
        <time>2020-06-27T13:52:24Z</time>
      </trkpt>
      <trkpt lat="44.10259" lon="7.37623">
        <ele>2359.233</ele>
        <time>2020-06-27T13:52:40Z</time>
      </trkpt>
      <trkpt lat="44.10256" lon="7.3762">
        <ele>2357.157</ele>
        <time>2020-06-27T13:52:55Z</time>
      </trkpt>
      <trkpt lat="44.10255" lon="7.3762">
        <ele>2355.773</ele>
        <time>2020-06-27T13:53:10Z</time>
      </trkpt>
      <trkpt lat="44.10255" lon="7.3762">
        <ele>2355.773</ele>
        <time>2020-06-27T13:53:25Z</time>
      </trkpt>
      <trkpt lat="44.10255" lon="7.37623">
        <ele>2354.765</ele>
        <time>2020-06-27T13:53:41Z</time>
      </trkpt>
      <trkpt lat="44.10255" lon="7.37623">
        <ele>2354.765</ele>
        <time>2020-06-27T13:53:56Z</time>
      </trkpt>
      <trkpt lat="44.10255" lon="7.37622">
        <ele>2356.137</ele>
        <time>2020-06-27T13:54:11Z</time>
      </trkpt>
      <trkpt lat="44.10247" lon="7.37604">
        <ele>2348.819</ele>
        <time>2020-06-27T13:54:27Z</time>
      </trkpt>
      <trkpt lat="44.10243" lon="7.37594">
        <ele>2350.84</ele>
        <time>2020-06-27T13:54:42Z</time>
      </trkpt>
      <trkpt lat="44.10239" lon="7.3758">
        <ele>2349.04</ele>
        <time>2020-06-27T13:54:58Z</time>
      </trkpt>
      <trkpt lat="44.10236" lon="7.37561">
        <ele>2342.578</ele>
        <time>2020-06-27T13:55:13Z</time>
      </trkpt>
      <trkpt lat="44.10242" lon="7.37541">
        <ele>2339.015</ele>
        <time>2020-06-27T13:55:29Z</time>
      </trkpt>
      <trkpt lat="44.10243" lon="7.37533">
        <ele>2340.364</ele>
        <time>2020-06-27T13:55:45Z</time>
      </trkpt>
      <trkpt lat="44.1024" lon="7.37522">
        <ele>2341.256</ele>
        <time>2020-06-27T13:56:01Z</time>
      </trkpt>
      <trkpt lat="44.10235" lon="7.37518">
        <ele>2339.888</ele>
        <time>2020-06-27T13:56:16Z</time>
      </trkpt>
      <trkpt lat="44.10233" lon="7.37513">
        <ele>2338.081</ele>
        <time>2020-06-27T13:56:32Z</time>
      </trkpt>
      <trkpt lat="44.10231" lon="7.37498">
        <ele>2336.944</ele>
        <time>2020-06-27T13:56:48Z</time>
      </trkpt>
      <trkpt lat="44.10228" lon="7.3749">
        <ele>2335.502</ele>
        <time>2020-06-27T13:57:03Z</time>
      </trkpt>
      <trkpt lat="44.10226" lon="7.37481">
        <ele>2334.191</ele>
        <time>2020-06-27T13:57:19Z</time>
      </trkpt>
      <trkpt lat="44.10222" lon="7.37474">
        <ele>2330.119</ele>
        <time>2020-06-27T13:57:34Z</time>
      </trkpt>
      <trkpt lat="44.10223" lon="7.37465">
        <ele>2329.732</ele>
        <time>2020-06-27T13:57:49Z</time>
      </trkpt>
      <trkpt lat="44.10222" lon="7.37448">
        <ele>2327.413</ele>
        <time>2020-06-27T13:58:05Z</time>
      </trkpt>
      <trkpt lat="44.10222" lon="7.37447">
        <ele>2326.979</ele>
        <time>2020-06-27T13:58:20Z</time>
      </trkpt>
      <trkpt lat="44.10216" lon="7.37441">
        <ele>2325.057</ele>
        <time>2020-06-27T13:58:36Z</time>
      </trkpt>
      <trkpt lat="44.10215" lon="7.37443">
        <ele>2322.035</ele>
        <time>2020-06-27T13:58:52Z</time>
      </trkpt>
      <trkpt lat="44.10215" lon="7.37443">
        <ele>2322.035</ele>
        <time>2020-06-27T13:59:07Z</time>
      </trkpt>
      <trkpt lat="44.10215" lon="7.37443">
        <ele>2322.035</ele>
        <time>2020-06-27T13:59:23Z</time>
      </trkpt>
      <trkpt lat="44.10211" lon="7.37442">
        <ele>2320.18</ele>
        <time>2020-06-27T13:59:38Z</time>
      </trkpt>
      <trkpt lat="44.10204" lon="7.37437">
        <ele>2318.838</ele>
        <time>2020-06-27T13:59:54Z</time>
      </trkpt>
      <trkpt lat="44.10196" lon="7.37431">
        <ele>2316.397</ele>
        <time>2020-06-27T14:00:09Z</time>
      </trkpt>
      <trkpt lat="44.10194" lon="7.37425">
        <ele>2320.59</ele>
        <time>2020-06-27T14:00:25Z</time>
      </trkpt>
      <trkpt lat="44.10192" lon="7.37424">
        <ele>2320.788</ele>
        <time>2020-06-27T14:00:40Z</time>
      </trkpt>
      <trkpt lat="44.10192" lon="7.37424">
        <ele>2320.271</ele>
        <time>2020-06-27T14:00:55Z</time>
      </trkpt>
      <trkpt lat="44.10184" lon="7.37418">
        <ele>2319.518</ele>
        <time>2020-06-27T14:01:11Z</time>
      </trkpt>
      <trkpt lat="44.10171" lon="7.37411">
        <ele>2317.879</ele>
        <time>2020-06-27T14:01:26Z</time>
      </trkpt>
      <trkpt lat="44.1017" lon="7.3741">
        <ele>2317.198</ele>
        <time>2020-06-27T14:01:41Z</time>
      </trkpt>
      <trkpt lat="44.10166" lon="7.37404">
        <ele>2314.785</ele>
        <time>2020-06-27T14:01:57Z</time>
      </trkpt>
      <trkpt lat="44.10162" lon="7.37402">
        <ele>2314.058</ele>
        <time>2020-06-27T14:02:12Z</time>
      </trkpt>
      <trkpt lat="44.1016" lon="7.37401">
        <ele>2313.932</ele>
        <time>2020-06-27T14:02:27Z</time>
      </trkpt>
      <trkpt lat="44.1016" lon="7.37401">
        <ele>2314.302</ele>
        <time>2020-06-27T14:02:43Z</time>
      </trkpt>
      <trkpt lat="44.10156" lon="7.37399">
        <ele>2311.888</ele>
        <time>2020-06-27T14:02:58Z</time>
      </trkpt>
      <trkpt lat="44.10144" lon="7.37392">
        <ele>2307.689</ele>
        <time>2020-06-27T14:03:13Z</time>
      </trkpt>
      <trkpt lat="44.10136" lon="7.37379">
        <ele>2302.259</ele>
        <time>2020-06-27T14:03:29Z</time>
      </trkpt>
      <trkpt lat="44.10132" lon="7.37373">
        <ele>2301.014</ele>
        <time>2020-06-27T14:03:44Z</time>
      </trkpt>
      <trkpt lat="44.1013" lon="7.37358">
        <ele>2295.843</ele>
        <time>2020-06-27T14:04:00Z</time>
      </trkpt>
      <trkpt lat="44.10124" lon="7.37345">
        <ele>2292.101</ele>
        <time>2020-06-27T14:04:15Z</time>
      </trkpt>
      <trkpt lat="44.10123" lon="7.37331">
        <ele>2289.979</ele>
        <time>2020-06-27T14:04:31Z</time>
      </trkpt>
      <trkpt lat="44.10122" lon="7.37324">
        <ele>2288.045</ele>
        <time>2020-06-27T14:04:46Z</time>
      </trkpt>
      <trkpt lat="44.10122" lon="7.3731">
        <ele>2284.984</ele>
        <time>2020-06-27T14:05:02Z</time>
      </trkpt>
      <trkpt lat="44.10124" lon="7.3731">
        <ele>2283.722</ele>
        <time>2020-06-27T14:05:18Z</time>
      </trkpt>
      <trkpt lat="44.10125" lon="7.37306">
        <ele>2285.023</ele>
        <time>2020-06-27T14:05:33Z</time>
      </trkpt>
      <trkpt lat="44.10124" lon="7.37304">
        <ele>2284.072</ele>
        <time>2020-06-27T14:05:48Z</time>
      </trkpt>
      <trkpt lat="44.10124" lon="7.37304">
        <ele>2284.072</ele>
        <time>2020-06-27T14:06:04Z</time>
      </trkpt>
      <trkpt lat="44.10123" lon="7.37303">
        <ele>2285.152</ele>
        <time>2020-06-27T14:06:19Z</time>
      </trkpt>
      <trkpt lat="44.10122" lon="7.37295">
        <ele>2285.226</ele>
        <time>2020-06-27T14:06:35Z</time>
      </trkpt>
      <trkpt lat="44.10123" lon="7.37292">
        <ele>2284.905</ele>
        <time>2020-06-27T14:06:51Z</time>
      </trkpt>
      <trkpt lat="44.1012" lon="7.37278">
        <ele>2284.557</ele>
        <time>2020-06-27T14:07:06Z</time>
      </trkpt>
      <trkpt lat="44.10122" lon="7.37264">
        <ele>2284.857</ele>
        <time>2020-06-27T14:07:22Z</time>
      </trkpt>
      <trkpt lat="44.10124" lon="7.37251">
        <ele>2285.232</ele>
        <time>2020-06-27T14:07:37Z</time>
      </trkpt>
      <trkpt lat="44.10117" lon="7.37232">
        <ele>2284.953</ele>
        <time>2020-06-27T14:07:53Z</time>
      </trkpt>
      <trkpt lat="44.10114" lon="7.37218">
        <ele>2278.483</ele>
        <time>2020-06-27T14:08:08Z</time>
      </trkpt>
      <trkpt lat="44.10113" lon="7.37211">
        <ele>2277.196</ele>
        <time>2020-06-27T14:08:24Z</time>
      </trkpt>
      <trkpt lat="44.10112" lon="7.37202">
        <ele>2275.582</ele>
        <time>2020-06-27T14:08:40Z</time>
      </trkpt>
      <trkpt lat="44.1011" lon="7.37198">
        <ele>2272.882</ele>
        <time>2020-06-27T14:08:55Z</time>
      </trkpt>
      <trkpt lat="44.10108" lon="7.37192">
        <ele>2272.166</ele>
        <time>2020-06-27T14:09:11Z</time>
      </trkpt>
      <trkpt lat="44.10103" lon="7.37168">
        <ele>2270.823</ele>
        <time>2020-06-27T14:09:27Z</time>
      </trkpt>
      <trkpt lat="44.10099" lon="7.37154">
        <ele>2269.373</ele>
        <time>2020-06-27T14:09:43Z</time>
      </trkpt>
      <trkpt lat="44.10101" lon="7.37135">
        <ele>2266.11</ele>
        <time>2020-06-27T14:09:58Z</time>
      </trkpt>
      <trkpt lat="44.10101" lon="7.37126">
        <ele>2260.802</ele>
        <time>2020-06-27T14:10:14Z</time>
      </trkpt>
      <trkpt lat="44.10101" lon="7.37108">
        <ele>2258.387</ele>
        <time>2020-06-27T14:10:29Z</time>
      </trkpt>
      <trkpt lat="44.10101" lon="7.37093">
        <ele>2251.362</ele>
        <time>2020-06-27T14:10:44Z</time>
      </trkpt>
      <trkpt lat="44.10099" lon="7.3708">
        <ele>2247.046</ele>
        <time>2020-06-27T14:11:00Z</time>
      </trkpt>
      <trkpt lat="44.10095" lon="7.37062">
        <ele>2245.263</ele>
        <time>2020-06-27T14:11:15Z</time>
      </trkpt>
      <trkpt lat="44.10092" lon="7.37043">
        <ele>2252.018</ele>
        <time>2020-06-27T14:11:31Z</time>
      </trkpt>
      <trkpt lat="44.10092" lon="7.37045">
        <ele>2253.104</ele>
        <time>2020-06-27T14:11:47Z</time>
      </trkpt>
      <trkpt lat="44.10093" lon="7.37039">
        <ele>2252.343</ele>
        <time>2020-06-27T14:12:03Z</time>
      </trkpt>
      <trkpt lat="44.10092" lon="7.37038">
        <ele>2252.17</ele>
        <time>2020-06-27T14:12:18Z</time>
      </trkpt>
      <trkpt lat="44.10094" lon="7.37045">
        <ele>2251.338</ele>
        <time>2020-06-27T14:12:34Z</time>
      </trkpt>
      <trkpt lat="44.10092" lon="7.37041">
        <ele>2253.919</ele>
        <time>2020-06-27T14:12:50Z</time>
      </trkpt>
      <trkpt lat="44.10092" lon="7.37041">
        <ele>2253.919</ele>
        <time>2020-06-27T14:13:05Z</time>
      </trkpt>
      <trkpt lat="44.10092" lon="7.37041">
        <ele>2253.919</ele>
        <time>2020-06-27T14:13:20Z</time>
      </trkpt>
      <trkpt lat="44.10092" lon="7.37041">
        <ele>2253.919</ele>
        <time>2020-06-27T14:13:36Z</time>
      </trkpt>
      <trkpt lat="44.1009" lon="7.3704">
        <ele>2253.45</ele>
        <time>2020-06-27T14:13:51Z</time>
      </trkpt>
      <trkpt lat="44.10091" lon="7.37033">
        <ele>2253.876</ele>
        <time>2020-06-27T14:14:07Z</time>
      </trkpt>
      <trkpt lat="44.10088" lon="7.37025">
        <ele>2256.963</ele>
        <time>2020-06-27T14:14:22Z</time>
      </trkpt>
      <trkpt lat="44.10088" lon="7.37025">
        <ele>2256.963</ele>
        <time>2020-06-27T14:14:37Z</time>
      </trkpt>
      <trkpt lat="44.10088" lon="7.3702">
        <ele>2254.97</ele>
        <time>2020-06-27T14:14:53Z</time>
      </trkpt>
      <trkpt lat="44.10088" lon="7.36998">
        <ele>2246.38</ele>
        <time>2020-06-27T14:15:08Z</time>
      </trkpt>
      <trkpt lat="44.10083" lon="7.36987">
        <ele>2240.398</ele>
        <time>2020-06-27T14:15:24Z</time>
      </trkpt>
      <trkpt lat="44.10083" lon="7.36987">
        <ele>2240.293</ele>
        <time>2020-06-27T14:15:40Z</time>
      </trkpt>
      <trkpt lat="44.10079" lon="7.36975">
        <ele>2239.975</ele>
        <time>2020-06-27T14:15:56Z</time>
      </trkpt>
      <trkpt lat="44.10073" lon="7.36961">
        <ele>2237.096</ele>
        <time>2020-06-27T14:16:11Z</time>
      </trkpt>
      <trkpt lat="44.10071" lon="7.36957">
        <ele>2235.155</ele>
        <time>2020-06-27T14:16:26Z</time>
      </trkpt>
      <trkpt lat="44.10071" lon="7.36948">
        <ele>2233.411</ele>
        <time>2020-06-27T14:16:42Z</time>
      </trkpt>
      <trkpt lat="44.10071" lon="7.3694">
        <ele>2232.306</ele>
        <time>2020-06-27T14:16:58Z</time>
      </trkpt>
      <trkpt lat="44.10071" lon="7.36937">
        <ele>2230.798</ele>
        <time>2020-06-27T14:17:14Z</time>
      </trkpt>
      <trkpt lat="44.10063" lon="7.36922">
        <ele>2227.396</ele>
        <time>2020-06-27T14:17:30Z</time>
      </trkpt>
      <trkpt lat="44.10061" lon="7.36916">
        <ele>2225.235</ele>
        <time>2020-06-27T14:17:46Z</time>
      </trkpt>
      <trkpt lat="44.10061" lon="7.36911">
        <ele>2225.231</ele>
        <time>2020-06-27T14:18:02Z</time>
      </trkpt>
      <trkpt lat="44.10061" lon="7.36908">
        <ele>2224.246</ele>
        <time>2020-06-27T14:18:18Z</time>
      </trkpt>
      <trkpt lat="44.10065" lon="7.36898">
        <ele>2223.393</ele>
        <time>2020-06-27T14:18:34Z</time>
      </trkpt>
      <trkpt lat="44.10066" lon="7.36892">
        <ele>2220.469</ele>
        <time>2020-06-27T14:18:50Z</time>
      </trkpt>
      <trkpt lat="44.10068" lon="7.36881">
        <ele>2218.046</ele>
        <time>2020-06-27T14:19:05Z</time>
      </trkpt>
      <trkpt lat="44.10071" lon="7.3687">
        <ele>2213.678</ele>
        <time>2020-06-27T14:19:21Z</time>
      </trkpt>
      <trkpt lat="44.10079" lon="7.36873">
        <ele>2209.217</ele>
        <time>2020-06-27T14:19:36Z</time>
      </trkpt>
      <trkpt lat="44.10088" lon="7.36873">
        <ele>2209.215</ele>
        <time>2020-06-27T14:19:52Z</time>
      </trkpt>
      <trkpt lat="44.10092" lon="7.36877">
        <ele>2208.31</ele>
        <time>2020-06-27T14:20:08Z</time>
      </trkpt>
      <trkpt lat="44.10094" lon="7.36879">
        <ele>2207.917</ele>
        <time>2020-06-27T14:20:23Z</time>
      </trkpt>
      <trkpt lat="44.10094" lon="7.36879">
        <ele>2207.917</ele>
        <time>2020-06-27T14:20:39Z</time>
      </trkpt>
      <trkpt lat="44.10097" lon="7.36877">
        <ele>2205.837</ele>
        <time>2020-06-27T14:20:54Z</time>
      </trkpt>
      <trkpt lat="44.10102" lon="7.36869">
        <ele>2202.995</ele>
        <time>2020-06-27T14:21:09Z</time>
      </trkpt>
      <trkpt lat="44.10107" lon="7.36857">
        <ele>2195.668</ele>
        <time>2020-06-27T14:21:25Z</time>
      </trkpt>
      <trkpt lat="44.10112" lon="7.36851">
        <ele>2192.25</ele>
        <time>2020-06-27T14:21:41Z</time>
      </trkpt>
      <trkpt lat="44.10112" lon="7.36848">
        <ele>2189.143</ele>
        <time>2020-06-27T14:21:57Z</time>
      </trkpt>
      <trkpt lat="44.10112" lon="7.36842">
        <ele>2184.514</ele>
        <time>2020-06-27T14:22:13Z</time>
      </trkpt>
      <trkpt lat="44.10116" lon="7.36825">
        <ele>2179.068</ele>
        <time>2020-06-27T14:22:29Z</time>
      </trkpt>
      <trkpt lat="44.10116" lon="7.36821">
        <ele>2178.408</ele>
        <time>2020-06-27T14:22:45Z</time>
      </trkpt>
      <trkpt lat="44.10118" lon="7.36811">
        <ele>2177.718</ele>
        <time>2020-06-27T14:23:00Z</time>
      </trkpt>
      <trkpt lat="44.10119" lon="7.36795">
        <ele>2175.915</ele>
        <time>2020-06-27T14:23:16Z</time>
      </trkpt>
      <trkpt lat="44.10125" lon="7.36783">
        <ele>2174.499</ele>
        <time>2020-06-27T14:23:31Z</time>
      </trkpt>
      <trkpt lat="44.10133" lon="7.36767">
        <ele>2168.093</ele>
        <time>2020-06-27T14:23:47Z</time>
      </trkpt>
      <trkpt lat="44.10138" lon="7.36764">
        <ele>2165.482</ele>
        <time>2020-06-27T14:24:02Z</time>
      </trkpt>
      <trkpt lat="44.1015" lon="7.36749">
        <ele>2160.595</ele>
        <time>2020-06-27T14:24:18Z</time>
      </trkpt>
      <trkpt lat="44.10153" lon="7.36742">
        <ele>2157.729</ele>
        <time>2020-06-27T14:24:34Z</time>
      </trkpt>
      <trkpt lat="44.10162" lon="7.36734">
        <ele>2158.213</ele>
        <time>2020-06-27T14:24:50Z</time>
      </trkpt>
      <trkpt lat="44.10162" lon="7.36732">
        <ele>2157.031</ele>
        <time>2020-06-27T14:25:06Z</time>
      </trkpt>
      <trkpt lat="44.10163" lon="7.3673">
        <ele>2156.714</ele>
        <time>2020-06-27T14:25:22Z</time>
      </trkpt>
      <trkpt lat="44.10167" lon="7.36724">
        <ele>2154.752</ele>
        <time>2020-06-27T14:25:38Z</time>
      </trkpt>
      <trkpt lat="44.10179" lon="7.36714">
        <ele>2153.105</ele>
        <time>2020-06-27T14:25:53Z</time>
      </trkpt>
      <trkpt lat="44.10192" lon="7.3671">
        <ele>2147.901</ele>
        <time>2020-06-27T14:26:08Z</time>
      </trkpt>
      <trkpt lat="44.10198" lon="7.36707">
        <ele>2146.426</ele>
        <time>2020-06-27T14:26:23Z</time>
      </trkpt>
      <trkpt lat="44.10201" lon="7.36686">
        <ele>2144.363</ele>
        <time>2020-06-27T14:26:39Z</time>
      </trkpt>
      <trkpt lat="44.10202" lon="7.36675">
        <ele>2143.305</ele>
        <time>2020-06-27T14:26:55Z</time>
      </trkpt>
      <trkpt lat="44.10204" lon="7.36647">
        <ele>2141.374</ele>
        <time>2020-06-27T14:27:11Z</time>
      </trkpt>
      <trkpt lat="44.10205" lon="7.36627">
        <ele>2139.265</ele>
        <time>2020-06-27T14:27:27Z</time>
      </trkpt>
      <trkpt lat="44.10204" lon="7.36616">
        <ele>2138.458</ele>
        <time>2020-06-27T14:27:42Z</time>
      </trkpt>
      <trkpt lat="44.10207" lon="7.36609">
        <ele>2136.93</ele>
        <time>2020-06-27T14:27:57Z</time>
      </trkpt>
      <trkpt lat="44.10211" lon="7.36593">
        <ele>2133.274</ele>
        <time>2020-06-27T14:28:13Z</time>
      </trkpt>
      <trkpt lat="44.1021" lon="7.36593">
        <ele>2133.125</ele>
        <time>2020-06-27T14:28:28Z</time>
      </trkpt>
      <trkpt lat="44.10214" lon="7.36589">
        <ele>2130.682</ele>
        <time>2020-06-27T14:28:44Z</time>
      </trkpt>
      <trkpt lat="44.10216" lon="7.36586">
        <ele>2129.483</ele>
        <time>2020-06-27T14:28:59Z</time>
      </trkpt>
      <trkpt lat="44.10219" lon="7.36581">
        <ele>2129.209</ele>
        <time>2020-06-27T14:29:15Z</time>
      </trkpt>
      <trkpt lat="44.1023" lon="7.3657">
        <ele>2127.745</ele>
        <time>2020-06-27T14:29:31Z</time>
      </trkpt>
      <trkpt lat="44.10239" lon="7.36565">
        <ele>2128.325</ele>
        <time>2020-06-27T14:29:46Z</time>
      </trkpt>
      <trkpt lat="44.1025" lon="7.36551">
        <ele>2123.223</ele>
        <time>2020-06-27T14:30:02Z</time>
      </trkpt>
      <trkpt lat="44.10263" lon="7.36548">
        <ele>2123.146</ele>
        <time>2020-06-27T14:30:18Z</time>
      </trkpt>
      <trkpt lat="44.10272" lon="7.36551">
        <ele>2123.136</ele>
        <time>2020-06-27T14:30:34Z</time>
      </trkpt>
      <trkpt lat="44.10284" lon="7.3656">
        <ele>2121.38</ele>
        <time>2020-06-27T14:30:50Z</time>
      </trkpt>
      <trkpt lat="44.10296" lon="7.36569">
        <ele>2115.758</ele>
        <time>2020-06-27T14:31:05Z</time>
      </trkpt>
      <trkpt lat="44.10305" lon="7.36573">
        <ele>2113.735</ele>
        <time>2020-06-27T14:31:21Z</time>
      </trkpt>
      <trkpt lat="44.10315" lon="7.36575">
        <ele>2118.561</ele>
        <time>2020-06-27T14:31:37Z</time>
      </trkpt>
      <trkpt lat="44.10318" lon="7.36571">
        <ele>2119.253</ele>
        <time>2020-06-27T14:31:53Z</time>
      </trkpt>
      <trkpt lat="44.1032" lon="7.36562">
        <ele>2118.895</ele>
        <time>2020-06-27T14:32:08Z</time>
      </trkpt>
      <trkpt lat="44.10322" lon="7.36564">
        <ele>2119.062</ele>
        <time>2020-06-27T14:32:24Z</time>
      </trkpt>
      <trkpt lat="44.10326" lon="7.36567">
        <ele>2117.089</ele>
        <time>2020-06-27T14:32:40Z</time>
      </trkpt>
      <trkpt lat="44.10326" lon="7.36569">
        <ele>2117.082</ele>
        <time>2020-06-27T14:32:56Z</time>
      </trkpt>
      <trkpt lat="44.10332" lon="7.3656">
        <ele>2116.406</ele>
        <time>2020-06-27T14:33:12Z</time>
      </trkpt>
      <trkpt lat="44.10333" lon="7.36559">
        <ele>2116.537</ele>
        <time>2020-06-27T14:33:28Z</time>
      </trkpt>
      <trkpt lat="44.10338" lon="7.36559">
        <ele>2118.71</ele>
        <time>2020-06-27T14:33:44Z</time>
      </trkpt>
      <trkpt lat="44.10339" lon="7.36559">
        <ele>2118.943</ele>
        <time>2020-06-27T14:33:59Z</time>
      </trkpt>
      <trkpt lat="44.10339" lon="7.36559">
        <ele>2118.943</ele>
        <time>2020-06-27T14:34:15Z</time>
      </trkpt>
      <trkpt lat="44.10337" lon="7.36559">
        <ele>2121.138</ele>
        <time>2020-06-27T14:34:30Z</time>
      </trkpt>
      <trkpt lat="44.10337" lon="7.36547">
        <ele>2116.056</ele>
        <time>2020-06-27T14:34:46Z</time>
      </trkpt>
      <trkpt lat="44.10336" lon="7.36539">
        <ele>2113.6</ele>
        <time>2020-06-27T14:35:02Z</time>
      </trkpt>
      <trkpt lat="44.10343" lon="7.36547">
        <ele>2114.076</ele>
        <time>2020-06-27T14:35:18Z</time>
      </trkpt>
      <trkpt lat="44.10338" lon="7.36554">
        <ele>2112.152</ele>
        <time>2020-06-27T14:35:33Z</time>
      </trkpt>
      <trkpt lat="44.10334" lon="7.36558">
        <ele>2113.734</ele>
        <time>2020-06-27T14:35:49Z</time>
      </trkpt>
      <trkpt lat="44.10334" lon="7.36558">
        <ele>2113.734</ele>
        <time>2020-06-27T14:36:04Z</time>
      </trkpt>
      <trkpt lat="44.10334" lon="7.36558">
        <ele>2113.734</ele>
        <time>2020-06-27T14:36:19Z</time>
      </trkpt>
      <trkpt lat="44.10332" lon="7.36554">
        <ele>2115.187</ele>
        <time>2020-06-27T14:36:35Z</time>
      </trkpt>
      <trkpt lat="44.10338" lon="7.36552">
        <ele>2115.338</ele>
        <time>2020-06-27T14:36:51Z</time>
      </trkpt>
      <trkpt lat="44.10344" lon="7.3655">
        <ele>2113.979</ele>
        <time>2020-06-27T14:37:07Z</time>
      </trkpt>
      <trkpt lat="44.10345" lon="7.36549">
        <ele>2113.501</ele>
        <time>2020-06-27T14:37:22Z</time>
      </trkpt>
      <trkpt lat="44.10345" lon="7.36549">
        <ele>2113.501</ele>
        <time>2020-06-27T14:37:38Z</time>
      </trkpt>
      <trkpt lat="44.10345" lon="7.36549">
        <ele>2113.501</ele>
        <time>2020-06-27T14:37:54Z</time>
      </trkpt>
      <trkpt lat="44.10344" lon="7.36552">
        <ele>2113.234</ele>
        <time>2020-06-27T14:38:09Z</time>
      </trkpt>
      <trkpt lat="44.10347" lon="7.36554">
        <ele>2111.728</ele>
        <time>2020-06-27T14:38:25Z</time>
      </trkpt>
      <trkpt lat="44.10347" lon="7.36554">
        <ele>2111.645</ele>
        <time>2020-06-27T14:38:41Z</time>
      </trkpt>
      <trkpt lat="44.10344" lon="7.36571">
        <ele>2108.63</ele>
        <time>2020-06-27T14:38:56Z</time>
      </trkpt>
      <trkpt lat="44.10345" lon="7.36581">
        <ele>2111.505</ele>
        <time>2020-06-27T14:39:12Z</time>
      </trkpt>
      <trkpt lat="44.10345" lon="7.36581">
        <ele>2111.505</ele>
        <time>2020-06-27T14:39:27Z</time>
      </trkpt>
      <trkpt lat="44.10341" lon="7.36585">
        <ele>2112.131</ele>
        <time>2020-06-27T14:39:43Z</time>
      </trkpt>
      <trkpt lat="44.10336" lon="7.36589">
        <ele>2111.471</ele>
        <time>2020-06-27T14:39:59Z</time>
      </trkpt>
      <trkpt lat="44.10336" lon="7.36589">
        <ele>2111.471</ele>
        <time>2020-06-27T14:40:14Z</time>
      </trkpt>
      <trkpt lat="44.10333" lon="7.36593">
        <ele>2113.915</ele>
        <time>2020-06-27T14:40:29Z</time>
      </trkpt>
      <trkpt lat="44.10324" lon="7.36606">
        <ele>2119.108</ele>
        <time>2020-06-27T14:40:44Z</time>
      </trkpt>
      <trkpt lat="44.10316" lon="7.36623">
        <ele>2119.938</ele>
        <time>2020-06-27T14:41:00Z</time>
      </trkpt>
      <trkpt lat="44.10314" lon="7.36627">
        <ele>2119.157</ele>
        <time>2020-06-27T14:41:16Z</time>
      </trkpt>
      <trkpt lat="44.10308" lon="7.36633">
        <ele>2117.938</ele>
        <time>2020-06-27T14:41:32Z</time>
      </trkpt>
      <trkpt lat="44.103" lon="7.36625">
        <ele>2120.748</ele>
        <time>2020-06-27T14:41:47Z</time>
      </trkpt>
      <trkpt lat="44.10299" lon="7.36625">
        <ele>2122.052</ele>
        <time>2020-06-27T14:42:03Z</time>
      </trkpt>
      <trkpt lat="44.10299" lon="7.36625">
        <ele>2122.052</ele>
        <time>2020-06-27T14:42:18Z</time>
      </trkpt>
      <trkpt lat="44.10299" lon="7.36625">
        <ele>2122.052</ele>
        <time>2020-06-27T14:42:34Z</time>
      </trkpt>
      <trkpt lat="44.10299" lon="7.36625">
        <ele>2122.052</ele>
        <time>2020-06-27T14:42:49Z</time>
      </trkpt>
      <trkpt lat="44.10299" lon="7.36625">
        <ele>2122.052</ele>
        <time>2020-06-27T14:43:05Z</time>
      </trkpt>
      <trkpt lat="44.10299" lon="7.36625">
        <ele>2122.052</ele>
        <time>2020-06-27T14:43:21Z</time>
      </trkpt>
      <trkpt lat="44.10299" lon="7.36625">
        <ele>2122.052</ele>
        <time>2020-06-27T14:43:37Z</time>
      </trkpt>
      <trkpt lat="44.10299" lon="7.36625">
        <ele>2122.052</ele>
        <time>2020-06-27T14:43:53Z</time>
      </trkpt>
      <trkpt lat="44.10299" lon="7.36625">
        <ele>2122.052</ele>
        <time>2020-06-27T14:44:09Z</time>
      </trkpt>
      <trkpt lat="44.10299" lon="7.36625">
        <ele>2122.052</ele>
        <time>2020-06-27T14:44:25Z</time>
      </trkpt>
      <trkpt lat="44.10295" lon="7.36622">
        <ele>2122.565</ele>
        <time>2020-06-27T14:44:41Z</time>
      </trkpt>
      <trkpt lat="44.10295" lon="7.36622">
        <ele>2122.565</ele>
        <time>2020-06-27T14:44:56Z</time>
      </trkpt>
      <trkpt lat="44.10295" lon="7.36622">
        <ele>2122.565</ele>
        <time>2020-06-27T14:45:12Z</time>
      </trkpt>
      <trkpt lat="44.10295" lon="7.36622">
        <ele>2122.565</ele>
        <time>2020-06-27T14:45:28Z</time>
      </trkpt>
      <trkpt lat="44.10295" lon="7.36622">
        <ele>2122.565</ele>
        <time>2020-06-27T14:45:43Z</time>
      </trkpt>
      <trkpt lat="44.10295" lon="7.36622">
        <ele>2122.565</ele>
        <time>2020-06-27T14:45:59Z</time>
      </trkpt>
      <trkpt lat="44.10295" lon="7.36622">
        <ele>2122.565</ele>
        <time>2020-06-27T14:46:14Z</time>
      </trkpt>
      <trkpt lat="44.10295" lon="7.36622">
        <ele>2122.565</ele>
        <time>2020-06-27T14:46:30Z</time>
      </trkpt>
      <trkpt lat="44.10295" lon="7.36622">
        <ele>2122.565</ele>
        <time>2020-06-27T14:46:46Z</time>
      </trkpt>
      <trkpt lat="44.10295" lon="7.36622">
        <ele>2122.565</ele>
        <time>2020-06-27T14:47:02Z</time>
      </trkpt>
      <trkpt lat="44.10295" lon="7.36622">
        <ele>2122.565</ele>
        <time>2020-06-27T14:47:18Z</time>
      </trkpt>
      <trkpt lat="44.10295" lon="7.36622">
        <ele>2122.565</ele>
        <time>2020-06-27T14:47:33Z</time>
      </trkpt>
      <trkpt lat="44.10295" lon="7.36622">
        <ele>2122.565</ele>
        <time>2020-06-27T14:47:49Z</time>
      </trkpt>
      <trkpt lat="44.10295" lon="7.36622">
        <ele>2122.565</ele>
        <time>2020-06-27T14:48:04Z</time>
      </trkpt>
      <trkpt lat="44.10295" lon="7.36622">
        <ele>2122.565</ele>
        <time>2020-06-27T14:48:20Z</time>
      </trkpt>
      <trkpt lat="44.10295" lon="7.36622">
        <ele>2122.565</ele>
        <time>2020-06-27T14:48:36Z</time>
      </trkpt>
      <trkpt lat="44.10295" lon="7.36622">
        <ele>2122.565</ele>
        <time>2020-06-27T14:48:52Z</time>
      </trkpt>
      <trkpt lat="44.10295" lon="7.36622">
        <ele>2122.565</ele>
        <time>2020-06-27T14:49:07Z</time>
      </trkpt>
      <trkpt lat="44.10295" lon="7.36622">
        <ele>2122.565</ele>
        <time>2020-06-27T14:49:23Z</time>
      </trkpt>
      <trkpt lat="44.10295" lon="7.36622">
        <ele>2122.565</ele>
        <time>2020-06-27T14:49:39Z</time>
      </trkpt>
      <trkpt lat="44.10295" lon="7.36622">
        <ele>2122.565</ele>
        <time>2020-06-27T14:49:54Z</time>
      </trkpt>
      <trkpt lat="44.10295" lon="7.36622">
        <ele>2122.565</ele>
        <time>2020-06-27T14:50:09Z</time>
      </trkpt>
      <trkpt lat="44.10295" lon="7.36622">
        <ele>2122.565</ele>
        <time>2020-06-27T14:50:25Z</time>
      </trkpt>
      <trkpt lat="44.10295" lon="7.36622">
        <ele>2122.565</ele>
        <time>2020-06-27T14:50:40Z</time>
      </trkpt>
      <trkpt lat="44.10295" lon="7.36622">
        <ele>2122.565</ele>
        <time>2020-06-27T14:50:56Z</time>
      </trkpt>
      <trkpt lat="44.10295" lon="7.36622">
        <ele>2122.565</ele>
        <time>2020-06-27T14:51:12Z</time>
      </trkpt>
      <trkpt lat="44.10295" lon="7.36622">
        <ele>2122.565</ele>
        <time>2020-06-27T14:51:27Z</time>
      </trkpt>
      <trkpt lat="44.10295" lon="7.36622">
        <ele>2122.565</ele>
        <time>2020-06-27T14:51:42Z</time>
      </trkpt>
      <trkpt lat="44.10295" lon="7.36622">
        <ele>2122.565</ele>
        <time>2020-06-27T14:51:58Z</time>
      </trkpt>
      <trkpt lat="44.10295" lon="7.36622">
        <ele>2122.565</ele>
        <time>2020-06-27T14:52:14Z</time>
      </trkpt>
      <trkpt lat="44.10295" lon="7.36622">
        <ele>2122.565</ele>
        <time>2020-06-27T14:52:29Z</time>
      </trkpt>
      <trkpt lat="44.10295" lon="7.36622">
        <ele>2122.565</ele>
        <time>2020-06-27T14:52:45Z</time>
      </trkpt>
      <trkpt lat="44.10295" lon="7.36622">
        <ele>2122.565</ele>
        <time>2020-06-27T14:53:01Z</time>
      </trkpt>
      <trkpt lat="44.10295" lon="7.36622">
        <ele>2122.565</ele>
        <time>2020-06-27T14:53:16Z</time>
      </trkpt>
      <trkpt lat="44.10295" lon="7.36622">
        <ele>2122.565</ele>
        <time>2020-06-27T14:53:32Z</time>
      </trkpt>
      <trkpt lat="44.10295" lon="7.36622">
        <ele>2122.565</ele>
        <time>2020-06-27T14:53:48Z</time>
      </trkpt>
      <trkpt lat="44.10295" lon="7.36622">
        <ele>2122.565</ele>
        <time>2020-06-27T14:54:04Z</time>
      </trkpt>
      <trkpt lat="44.10295" lon="7.36622">
        <ele>2122.565</ele>
        <time>2020-06-27T14:54:20Z</time>
      </trkpt>
      <trkpt lat="44.10295" lon="7.36622">
        <ele>2122.565</ele>
        <time>2020-06-27T14:54:36Z</time>
      </trkpt>
      <trkpt lat="44.10295" lon="7.36622">
        <ele>2122.565</ele>
        <time>2020-06-27T14:54:51Z</time>
      </trkpt>
      <trkpt lat="44.10295" lon="7.36622">
        <ele>2122.565</ele>
        <time>2020-06-27T14:55:07Z</time>
      </trkpt>
      <trkpt lat="44.10295" lon="7.36622">
        <ele>2122.565</ele>
        <time>2020-06-27T14:55:23Z</time>
      </trkpt>
      <trkpt lat="44.10295" lon="7.36622">
        <ele>2122.565</ele>
        <time>2020-06-27T14:55:39Z</time>
      </trkpt>
      <trkpt lat="44.10295" lon="7.36622">
        <ele>2122.565</ele>
        <time>2020-06-27T14:55:55Z</time>
      </trkpt>
      <trkpt lat="44.10295" lon="7.36622">
        <ele>2122.565</ele>
        <time>2020-06-27T14:56:10Z</time>
      </trkpt>
      <trkpt lat="44.10295" lon="7.36622">
        <ele>2122.565</ele>
        <time>2020-06-27T14:56:26Z</time>
      </trkpt>
      <trkpt lat="44.10295" lon="7.36622">
        <ele>2122.565</ele>
        <time>2020-06-27T14:56:42Z</time>
      </trkpt>
      <trkpt lat="44.10295" lon="7.36622">
        <ele>2122.565</ele>
        <time>2020-06-27T14:56:57Z</time>
      </trkpt>
      <trkpt lat="44.10295" lon="7.36622">
        <ele>2122.565</ele>
        <time>2020-06-27T14:57:12Z</time>
      </trkpt>
      <trkpt lat="44.10295" lon="7.36622">
        <ele>2122.565</ele>
        <time>2020-06-27T14:57:28Z</time>
      </trkpt>
      <trkpt lat="44.10295" lon="7.36622">
        <ele>2122.565</ele>
        <time>2020-06-27T14:57:44Z</time>
      </trkpt>
      <trkpt lat="44.10295" lon="7.36622">
        <ele>2122.565</ele>
        <time>2020-06-27T14:58:00Z</time>
      </trkpt>
      <trkpt lat="44.10295" lon="7.36622">
        <ele>2122.565</ele>
        <time>2020-06-27T14:58:16Z</time>
      </trkpt>
      <trkpt lat="44.10295" lon="7.36622">
        <ele>2122.565</ele>
        <time>2020-06-27T14:58:31Z</time>
      </trkpt>
      <trkpt lat="44.10295" lon="7.36622">
        <ele>2122.565</ele>
        <time>2020-06-27T14:58:47Z</time>
      </trkpt>
      <trkpt lat="44.10295" lon="7.36622">
        <ele>2122.565</ele>
        <time>2020-06-27T14:59:03Z</time>
      </trkpt>
      <trkpt lat="44.10295" lon="7.36622">
        <ele>2122.565</ele>
        <time>2020-06-27T14:59:18Z</time>
      </trkpt>
      <trkpt lat="44.10295" lon="7.36622">
        <ele>2122.565</ele>
        <time>2020-06-27T14:59:34Z</time>
      </trkpt>
      <trkpt lat="44.10295" lon="7.36622">
        <ele>2122.565</ele>
        <time>2020-06-27T14:59:49Z</time>
      </trkpt>
      <trkpt lat="44.10295" lon="7.36622">
        <ele>2122.565</ele>
        <time>2020-06-27T15:00:05Z</time>
      </trkpt>
      <trkpt lat="44.10295" lon="7.36622">
        <ele>2122.565</ele>
        <time>2020-06-27T15:00:20Z</time>
      </trkpt>
      <trkpt lat="44.10295" lon="7.36622">
        <ele>2122.565</ele>
        <time>2020-06-27T15:00:35Z</time>
      </trkpt>
      <trkpt lat="44.10295" lon="7.36622">
        <ele>2122.565</ele>
        <time>2020-06-27T15:00:51Z</time>
      </trkpt>
      <trkpt lat="44.10295" lon="7.36622">
        <ele>2122.565</ele>
        <time>2020-06-27T15:01:07Z</time>
      </trkpt>
      <trkpt lat="44.10295" lon="7.36622">
        <ele>2122.565</ele>
        <time>2020-06-27T15:01:23Z</time>
      </trkpt>
      <trkpt lat="44.10295" lon="7.36622">
        <ele>2122.565</ele>
        <time>2020-06-27T15:01:38Z</time>
      </trkpt>
      <trkpt lat="44.10295" lon="7.36622">
        <ele>2122.565</ele>
        <time>2020-06-27T15:01:54Z</time>
      </trkpt>
      <trkpt lat="44.10295" lon="7.36622">
        <ele>2122.565</ele>
        <time>2020-06-27T15:02:09Z</time>
      </trkpt>
      <trkpt lat="44.10295" lon="7.36622">
        <ele>2122.565</ele>
        <time>2020-06-27T15:02:25Z</time>
      </trkpt>
      <trkpt lat="44.10295" lon="7.36622">
        <ele>2122.565</ele>
        <time>2020-06-27T15:02:41Z</time>
      </trkpt>
      <trkpt lat="44.10295" lon="7.36622">
        <ele>2122.565</ele>
        <time>2020-06-27T15:02:57Z</time>
      </trkpt>
      <trkpt lat="44.10295" lon="7.36622">
        <ele>2122.565</ele>
        <time>2020-06-27T15:03:13Z</time>
      </trkpt>
      <trkpt lat="44.10295" lon="7.36622">
        <ele>2122.565</ele>
        <time>2020-06-27T15:03:29Z</time>
      </trkpt>
      <trkpt lat="44.10295" lon="7.36622">
        <ele>2122.565</ele>
        <time>2020-06-27T15:03:45Z</time>
      </trkpt>
      <trkpt lat="44.10295" lon="7.36622">
        <ele>2122.565</ele>
        <time>2020-06-27T15:04:01Z</time>
      </trkpt>
      <trkpt lat="44.10295" lon="7.36622">
        <ele>2122.565</ele>
        <time>2020-06-27T15:04:17Z</time>
      </trkpt>
      <trkpt lat="44.10295" lon="7.36622">
        <ele>2122.565</ele>
        <time>2020-06-27T15:04:32Z</time>
      </trkpt>
      <trkpt lat="44.10295" lon="7.36622">
        <ele>2122.565</ele>
        <time>2020-06-27T15:04:48Z</time>
      </trkpt>
      <trkpt lat="44.10295" lon="7.36622">
        <ele>2122.565</ele>
        <time>2020-06-27T15:05:04Z</time>
      </trkpt>
      <trkpt lat="44.10295" lon="7.36622">
        <ele>2122.565</ele>
        <time>2020-06-27T15:05:19Z</time>
      </trkpt>
      <trkpt lat="44.10295" lon="7.36622">
        <ele>2122.565</ele>
        <time>2020-06-27T15:05:35Z</time>
      </trkpt>
      <trkpt lat="44.10295" lon="7.36622">
        <ele>2122.565</ele>
        <time>2020-06-27T15:05:50Z</time>
      </trkpt>
      <trkpt lat="44.10295" lon="7.36622">
        <ele>2122.565</ele>
        <time>2020-06-27T15:06:06Z</time>
      </trkpt>
      <trkpt lat="44.10295" lon="7.36622">
        <ele>2122.565</ele>
        <time>2020-06-27T15:06:22Z</time>
      </trkpt>
      <trkpt lat="44.10295" lon="7.36622">
        <ele>2122.565</ele>
        <time>2020-06-27T15:06:38Z</time>
      </trkpt>
      <trkpt lat="44.10295" lon="7.36622">
        <ele>2122.565</ele>
        <time>2020-06-27T15:06:53Z</time>
      </trkpt>
      <trkpt lat="44.10295" lon="7.36622">
        <ele>2122.565</ele>
        <time>2020-06-27T15:07:09Z</time>
      </trkpt>
      <trkpt lat="44.10295" lon="7.36622">
        <ele>2122.565</ele>
        <time>2020-06-27T15:07:24Z</time>
      </trkpt>
      <trkpt lat="44.10295" lon="7.36622">
        <ele>2122.565</ele>
        <time>2020-06-27T15:07:40Z</time>
      </trkpt>
      <trkpt lat="44.10295" lon="7.36622">
        <ele>2122.565</ele>
        <time>2020-06-27T15:07:55Z</time>
      </trkpt>
      <trkpt lat="44.10295" lon="7.36622">
        <ele>2122.565</ele>
        <time>2020-06-27T15:08:11Z</time>
      </trkpt>
      <trkpt lat="44.10295" lon="7.36622">
        <ele>2122.565</ele>
        <time>2020-06-27T15:08:27Z</time>
      </trkpt>
      <trkpt lat="44.10295" lon="7.36622">
        <ele>2122.565</ele>
        <time>2020-06-27T15:08:43Z</time>
      </trkpt>
      <trkpt lat="44.10295" lon="7.36622">
        <ele>2122.565</ele>
        <time>2020-06-27T15:08:58Z</time>
      </trkpt>
      <trkpt lat="44.10295" lon="7.36622">
        <ele>2122.565</ele>
        <time>2020-06-27T15:09:14Z</time>
      </trkpt>
      <trkpt lat="44.10295" lon="7.36622">
        <ele>2122.565</ele>
        <time>2020-06-27T15:09:30Z</time>
      </trkpt>
      <trkpt lat="44.10295" lon="7.36622">
        <ele>2122.565</ele>
        <time>2020-06-27T15:09:46Z</time>
      </trkpt>
      <trkpt lat="44.10295" lon="7.36622">
        <ele>2122.565</ele>
        <time>2020-06-27T15:10:02Z</time>
      </trkpt>
      <trkpt lat="44.10295" lon="7.36622">
        <ele>2122.565</ele>
        <time>2020-06-27T15:10:18Z</time>
      </trkpt>
      <trkpt lat="44.10295" lon="7.36622">
        <ele>2122.565</ele>
        <time>2020-06-27T15:10:33Z</time>
      </trkpt>
      <trkpt lat="44.10295" lon="7.36622">
        <ele>2122.565</ele>
        <time>2020-06-27T15:10:49Z</time>
      </trkpt>
      <trkpt lat="44.10295" lon="7.36622">
        <ele>2122.565</ele>
        <time>2020-06-27T15:11:05Z</time>
      </trkpt>
      <trkpt lat="44.10295" lon="7.36622">
        <ele>2122.565</ele>
        <time>2020-06-27T15:11:21Z</time>
      </trkpt>
      <trkpt lat="44.10295" lon="7.36622">
        <ele>2122.565</ele>
        <time>2020-06-27T15:11:37Z</time>
      </trkpt>
      <trkpt lat="44.10295" lon="7.36622">
        <ele>2122.565</ele>
        <time>2020-06-27T15:11:53Z</time>
      </trkpt>
      <trkpt lat="44.10295" lon="7.36622">
        <ele>2122.565</ele>
        <time>2020-06-27T15:12:08Z</time>
      </trkpt>
      <trkpt lat="44.10295" lon="7.36622">
        <ele>2122.565</ele>
        <time>2020-06-27T15:12:23Z</time>
      </trkpt>
      <trkpt lat="44.10295" lon="7.36622">
        <ele>2122.565</ele>
        <time>2020-06-27T15:12:39Z</time>
      </trkpt>
      <trkpt lat="44.10295" lon="7.36622">
        <ele>2122.565</ele>
        <time>2020-06-27T15:12:54Z</time>
      </trkpt>
      <trkpt lat="44.10295" lon="7.36622">
        <ele>2122.565</ele>
        <time>2020-06-27T15:13:10Z</time>
      </trkpt>
      <trkpt lat="44.10295" lon="7.36622">
        <ele>2122.565</ele>
        <time>2020-06-27T15:13:25Z</time>
      </trkpt>
      <trkpt lat="44.10295" lon="7.36622">
        <ele>2122.565</ele>
        <time>2020-06-27T15:13:41Z</time>
      </trkpt>
      <trkpt lat="44.10295" lon="7.36622">
        <ele>2122.565</ele>
        <time>2020-06-27T15:13:57Z</time>
      </trkpt>
      <trkpt lat="44.10295" lon="7.36622">
        <ele>2122.565</ele>
        <time>2020-06-27T15:14:12Z</time>
      </trkpt>
      <trkpt lat="44.10297" lon="7.36619">
        <ele>2122.829</ele>
        <time>2020-06-27T15:14:28Z</time>
      </trkpt>
      <trkpt lat="44.10297" lon="7.36617">
        <ele>2122.955</ele>
        <time>2020-06-27T15:14:44Z</time>
      </trkpt>
      <trkpt lat="44.10297" lon="7.36617">
        <ele>2122.955</ele>
        <time>2020-06-27T15:14:59Z</time>
      </trkpt>
      <trkpt lat="44.10297" lon="7.36617">
        <ele>2122.955</ele>
        <time>2020-06-27T15:15:14Z</time>
      </trkpt>
      <trkpt lat="44.10297" lon="7.36617">
        <ele>2122.955</ele>
        <time>2020-06-27T15:15:29Z</time>
      </trkpt>
    </trkseg>
  </trk>
  <trk>
    <name><![CDATA[GR52 / GR5 par Menton_5]]></name>
    <trkseg>
      <trkpt lat="44.10353" lon="7.36599">
        <ele>2324.176</ele>
        <time>2020-06-28T05:18:45Z</time>
      </trkpt>
      <trkpt lat="44.10298" lon="7.3663">
        <ele>2125.967</ele>
        <time>2020-06-28T05:19:00Z</time>
      </trkpt>
      <trkpt lat="44.10304" lon="7.36625">
        <ele>2127.512</ele>
        <time>2020-06-28T05:19:16Z</time>
      </trkpt>
      <trkpt lat="44.10323" lon="7.36604">
        <ele>2119.845</ele>
        <time>2020-06-28T05:19:31Z</time>
      </trkpt>
      <trkpt lat="44.10313" lon="7.36591">
        <ele>2115.909</ele>
        <time>2020-06-28T05:19:46Z</time>
      </trkpt>
      <trkpt lat="44.10328" lon="7.36587">
        <ele>2120.592</ele>
        <time>2020-06-28T05:20:02Z</time>
      </trkpt>
      <trkpt lat="44.10337" lon="7.36582">
        <ele>2116.672</ele>
        <time>2020-06-28T05:20:18Z</time>
      </trkpt>
      <trkpt lat="44.10345" lon="7.3658">
        <ele>2111.869</ele>
        <time>2020-06-28T05:20:33Z</time>
      </trkpt>
      <trkpt lat="44.10364" lon="7.36568">
        <ele>2108.522</ele>
        <time>2020-06-28T05:20:49Z</time>
      </trkpt>
      <trkpt lat="44.10377" lon="7.36565">
        <ele>2111.963</ele>
        <time>2020-06-28T05:21:04Z</time>
      </trkpt>
      <trkpt lat="44.10378" lon="7.36562">
        <ele>2111.225</ele>
        <time>2020-06-28T05:21:20Z</time>
      </trkpt>
      <trkpt lat="44.10381" lon="7.36569">
        <ele>2111.401</ele>
        <time>2020-06-28T05:21:35Z</time>
      </trkpt>
      <trkpt lat="44.10383" lon="7.36574">
        <ele>2110.77</ele>
        <time>2020-06-28T05:21:51Z</time>
      </trkpt>
      <trkpt lat="44.10389" lon="7.36576">
        <ele>2107.583</ele>
        <time>2020-06-28T05:22:07Z</time>
      </trkpt>
      <trkpt lat="44.1039" lon="7.36581">
        <ele>2109.313</ele>
        <time>2020-06-28T05:22:23Z</time>
      </trkpt>
      <trkpt lat="44.1039" lon="7.36582">
        <ele>2111.467</ele>
        <time>2020-06-28T05:22:38Z</time>
      </trkpt>
      <trkpt lat="44.10399" lon="7.36574">
        <ele>2110.123</ele>
        <time>2020-06-28T05:22:53Z</time>
      </trkpt>
      <trkpt lat="44.10413" lon="7.36548">
        <ele>2110.783</ele>
        <time>2020-06-28T05:23:09Z</time>
      </trkpt>
      <trkpt lat="44.10425" lon="7.36534">
        <ele>2111.155</ele>
        <time>2020-06-28T05:23:25Z</time>
      </trkpt>
      <trkpt lat="44.10428" lon="7.3652">
        <ele>2114.053</ele>
        <time>2020-06-28T05:23:40Z</time>
      </trkpt>
      <trkpt lat="44.10429" lon="7.36505">
        <ele>2118.325</ele>
        <time>2020-06-28T05:23:56Z</time>
      </trkpt>
      <trkpt lat="44.10438" lon="7.36498">
        <ele>2117.367</ele>
        <time>2020-06-28T05:24:12Z</time>
      </trkpt>
      <trkpt lat="44.10436" lon="7.36488">
        <ele>2122.705</ele>
        <time>2020-06-28T05:24:28Z</time>
      </trkpt>
      <trkpt lat="44.10434" lon="7.3648">
        <ele>2126.509</ele>
        <time>2020-06-28T05:24:44Z</time>
      </trkpt>
      <trkpt lat="44.10429" lon="7.36473">
        <ele>2129.016</ele>
        <time>2020-06-28T05:25:00Z</time>
      </trkpt>
      <trkpt lat="44.10432" lon="7.36463">
        <ele>2131.918</ele>
        <time>2020-06-28T05:25:15Z</time>
      </trkpt>
      <trkpt lat="44.1043" lon="7.36456">
        <ele>2132.597</ele>
        <time>2020-06-28T05:25:31Z</time>
      </trkpt>
      <trkpt lat="44.10425" lon="7.36442">
        <ele>2137.998</ele>
        <time>2020-06-28T05:25:47Z</time>
      </trkpt>
      <trkpt lat="44.10425" lon="7.36436">
        <ele>2138.696</ele>
        <time>2020-06-28T05:26:03Z</time>
      </trkpt>
      <trkpt lat="44.10422" lon="7.36423">
        <ele>2141.116</ele>
        <time>2020-06-28T05:26:19Z</time>
      </trkpt>
      <trkpt lat="44.10418" lon="7.36412">
        <ele>2140.658</ele>
        <time>2020-06-28T05:26:34Z</time>
      </trkpt>
      <trkpt lat="44.10415" lon="7.36405">
        <ele>2142.738</ele>
        <time>2020-06-28T05:26:50Z</time>
      </trkpt>
      <trkpt lat="44.10426" lon="7.36386">
        <ele>2146.555</ele>
        <time>2020-06-28T05:27:05Z</time>
      </trkpt>
      <trkpt lat="44.10426" lon="7.36379">
        <ele>2149.613</ele>
        <time>2020-06-28T05:27:21Z</time>
      </trkpt>
      <trkpt lat="44.10422" lon="7.36375">
        <ele>2152.408</ele>
        <time>2020-06-28T05:27:37Z</time>
      </trkpt>
      <trkpt lat="44.10426" lon="7.36371">
        <ele>2155.71</ele>
        <time>2020-06-28T05:27:52Z</time>
      </trkpt>
      <trkpt lat="44.10424" lon="7.36359">
        <ele>2157.643</ele>
        <time>2020-06-28T05:28:07Z</time>
      </trkpt>
      <trkpt lat="44.10426" lon="7.36349">
        <ele>2158.253</ele>
        <time>2020-06-28T05:28:23Z</time>
      </trkpt>
      <trkpt lat="44.10432" lon="7.36348">
        <ele>2159.818</ele>
        <time>2020-06-28T05:28:38Z</time>
      </trkpt>
      <trkpt lat="44.1044" lon="7.36347">
        <ele>2161.653</ele>
        <time>2020-06-28T05:28:54Z</time>
      </trkpt>
      <trkpt lat="44.10444" lon="7.36336">
        <ele>2165.441</ele>
        <time>2020-06-28T05:29:10Z</time>
      </trkpt>
      <trkpt lat="44.10444" lon="7.36326">
        <ele>2166.929</ele>
        <time>2020-06-28T05:29:26Z</time>
      </trkpt>
      <trkpt lat="44.10441" lon="7.36317">
        <ele>2169.609</ele>
        <time>2020-06-28T05:29:42Z</time>
      </trkpt>
      <trkpt lat="44.10443" lon="7.3631">
        <ele>2172.015</ele>
        <time>2020-06-28T05:29:57Z</time>
      </trkpt>
      <trkpt lat="44.10443" lon="7.36294">
        <ele>2175.505</ele>
        <time>2020-06-28T05:30:13Z</time>
      </trkpt>
      <trkpt lat="44.10442" lon="7.36289">
        <ele>2175.263</ele>
        <time>2020-06-28T05:30:28Z</time>
      </trkpt>
      <trkpt lat="44.10437" lon="7.36281">
        <ele>2177.501</ele>
        <time>2020-06-28T05:30:43Z</time>
      </trkpt>
      <trkpt lat="44.1043" lon="7.36265">
        <ele>2178.9</ele>
        <time>2020-06-28T05:30:59Z</time>
      </trkpt>
      <trkpt lat="44.10424" lon="7.3625">
        <ele>2182.573</ele>
        <time>2020-06-28T05:31:14Z</time>
      </trkpt>
      <trkpt lat="44.10414" lon="7.36236">
        <ele>2185.1</ele>
        <time>2020-06-28T05:31:30Z</time>
      </trkpt>
      <trkpt lat="44.10402" lon="7.36226">
        <ele>2187.44</ele>
        <time>2020-06-28T05:31:45Z</time>
      </trkpt>
      <trkpt lat="44.10402" lon="7.36216">
        <ele>2189.414</ele>
        <time>2020-06-28T05:32:01Z</time>
      </trkpt>
      <trkpt lat="44.10402" lon="7.36216">
        <ele>2189.414</ele>
        <time>2020-06-28T05:32:17Z</time>
      </trkpt>
      <trkpt lat="44.10402" lon="7.36216">
        <ele>2189.414</ele>
        <time>2020-06-28T05:32:32Z</time>
      </trkpt>
      <trkpt lat="44.10402" lon="7.36216">
        <ele>2189.414</ele>
        <time>2020-06-28T05:32:47Z</time>
      </trkpt>
      <trkpt lat="44.10402" lon="7.36216">
        <ele>2189.414</ele>
        <time>2020-06-28T05:33:03Z</time>
      </trkpt>
      <trkpt lat="44.10402" lon="7.36216">
        <ele>2189.414</ele>
        <time>2020-06-28T05:33:19Z</time>
      </trkpt>
      <trkpt lat="44.10402" lon="7.36216">
        <ele>2189.414</ele>
        <time>2020-06-28T05:33:34Z</time>
      </trkpt>
      <trkpt lat="44.10405" lon="7.3621">
        <ele>2188.77</ele>
        <time>2020-06-28T05:33:50Z</time>
      </trkpt>
      <trkpt lat="44.10406" lon="7.36188">
        <ele>2189.788</ele>
        <time>2020-06-28T05:34:06Z</time>
      </trkpt>
      <trkpt lat="44.10411" lon="7.3617">
        <ele>2187.054</ele>
        <time>2020-06-28T05:34:21Z</time>
      </trkpt>
      <trkpt lat="44.10409" lon="7.36145">
        <ele>2184.103</ele>
        <time>2020-06-28T05:34:37Z</time>
      </trkpt>
      <trkpt lat="44.10406" lon="7.36142">
        <ele>2181.616</ele>
        <time>2020-06-28T05:34:52Z</time>
      </trkpt>
      <trkpt lat="44.10403" lon="7.36142">
        <ele>2180.362</ele>
        <time>2020-06-28T05:35:07Z</time>
      </trkpt>
      <trkpt lat="44.104" lon="7.36143">
        <ele>2178.39</ele>
        <time>2020-06-28T05:35:23Z</time>
      </trkpt>
      <trkpt lat="44.10388" lon="7.36151">
        <ele>2176.505</ele>
        <time>2020-06-28T05:35:38Z</time>
      </trkpt>
      <trkpt lat="44.10371" lon="7.36165">
        <ele>2172.753</ele>
        <time>2020-06-28T05:35:53Z</time>
      </trkpt>
      <trkpt lat="44.10361" lon="7.36152">
        <ele>2167.309</ele>
        <time>2020-06-28T05:36:09Z</time>
      </trkpt>
      <trkpt lat="44.10353" lon="7.3616">
        <ele>2167.18</ele>
        <time>2020-06-28T05:36:25Z</time>
      </trkpt>
      <trkpt lat="44.10344" lon="7.36147">
        <ele>2166.442</ele>
        <time>2020-06-28T05:36:40Z</time>
      </trkpt>
      <trkpt lat="44.10331" lon="7.36158">
        <ele>2159.939</ele>
        <time>2020-06-28T05:36:56Z</time>
      </trkpt>
      <trkpt lat="44.10327" lon="7.36135">
        <ele>2156.579</ele>
        <time>2020-06-28T05:37:12Z</time>
      </trkpt>
      <trkpt lat="44.10321" lon="7.36143">
        <ele>2156.215</ele>
        <time>2020-06-28T05:37:28Z</time>
      </trkpt>
      <trkpt lat="44.10314" lon="7.36144">
        <ele>2156.015</ele>
        <time>2020-06-28T05:37:43Z</time>
      </trkpt>
      <trkpt lat="44.10312" lon="7.36128">
        <ele>2152.867</ele>
        <time>2020-06-28T05:37:58Z</time>
      </trkpt>
      <trkpt lat="44.10307" lon="7.36113">
        <ele>2150.721</ele>
        <time>2020-06-28T05:38:13Z</time>
      </trkpt>
      <trkpt lat="44.10298" lon="7.361">
        <ele>2147.779</ele>
        <time>2020-06-28T05:38:29Z</time>
      </trkpt>
      <trkpt lat="44.10282" lon="7.3609">
        <ele>2142.899</ele>
        <time>2020-06-28T05:38:44Z</time>
      </trkpt>
      <trkpt lat="44.10262" lon="7.36079">
        <ele>2136.993</ele>
        <time>2020-06-28T05:39:00Z</time>
      </trkpt>
      <trkpt lat="44.10249" lon="7.36068">
        <ele>2131.622</ele>
        <time>2020-06-28T05:39:15Z</time>
      </trkpt>
      <trkpt lat="44.10236" lon="7.36059">
        <ele>2130.69</ele>
        <time>2020-06-28T05:39:31Z</time>
      </trkpt>
      <trkpt lat="44.10223" lon="7.36045">
        <ele>2129.653</ele>
        <time>2020-06-28T05:39:46Z</time>
      </trkpt>
      <trkpt lat="44.10214" lon="7.36025">
        <ele>2133.228</ele>
        <time>2020-06-28T05:40:02Z</time>
      </trkpt>
      <trkpt lat="44.10209" lon="7.3602">
        <ele>2133.761</ele>
        <time>2020-06-28T05:40:18Z</time>
      </trkpt>
      <trkpt lat="44.10212" lon="7.36005">
        <ele>2133.512</ele>
        <time>2020-06-28T05:40:33Z</time>
      </trkpt>
      <trkpt lat="44.10211" lon="7.35992">
        <ele>2131.423</ele>
        <time>2020-06-28T05:40:48Z</time>
      </trkpt>
      <trkpt lat="44.10204" lon="7.35977">
        <ele>2127.853</ele>
        <time>2020-06-28T05:41:04Z</time>
      </trkpt>
      <trkpt lat="44.10197" lon="7.35958">
        <ele>2121.449</ele>
        <time>2020-06-28T05:41:20Z</time>
      </trkpt>
      <trkpt lat="44.10189" lon="7.35959">
        <ele>2121.578</ele>
        <time>2020-06-28T05:41:36Z</time>
      </trkpt>
      <trkpt lat="44.10177" lon="7.3597">
        <ele>2120.69</ele>
        <time>2020-06-28T05:41:51Z</time>
      </trkpt>
      <trkpt lat="44.10155" lon="7.35984">
        <ele>2116.354</ele>
        <time>2020-06-28T05:42:07Z</time>
      </trkpt>
      <trkpt lat="44.10146" lon="7.35984">
        <ele>2115.407</ele>
        <time>2020-06-28T05:42:23Z</time>
      </trkpt>
      <trkpt lat="44.10146" lon="7.35984">
        <ele>2115.407</ele>
        <time>2020-06-28T05:42:39Z</time>
      </trkpt>
      <trkpt lat="44.10146" lon="7.35984">
        <ele>2115.407</ele>
        <time>2020-06-28T05:42:55Z</time>
      </trkpt>
      <trkpt lat="44.10146" lon="7.35984">
        <ele>2115.407</ele>
        <time>2020-06-28T05:43:11Z</time>
      </trkpt>
      <trkpt lat="44.10146" lon="7.35984">
        <ele>2115.407</ele>
        <time>2020-06-28T05:43:27Z</time>
      </trkpt>
      <trkpt lat="44.10146" lon="7.35984">
        <ele>2115.407</ele>
        <time>2020-06-28T05:43:42Z</time>
      </trkpt>
      <trkpt lat="44.10157" lon="7.35975">
        <ele>2117.793</ele>
        <time>2020-06-28T05:43:58Z</time>
      </trkpt>
      <trkpt lat="44.10163" lon="7.35965">
        <ele>2120.749</ele>
        <time>2020-06-28T05:44:14Z</time>
      </trkpt>
      <trkpt lat="44.1017" lon="7.35952">
        <ele>2121.913</ele>
        <time>2020-06-28T05:44:30Z</time>
      </trkpt>
      <trkpt lat="44.10172" lon="7.35945">
        <ele>2124.585</ele>
        <time>2020-06-28T05:44:46Z</time>
      </trkpt>
      <trkpt lat="44.10176" lon="7.35938">
        <ele>2128.737</ele>
        <time>2020-06-28T05:45:01Z</time>
      </trkpt>
      <trkpt lat="44.10182" lon="7.35933">
        <ele>2130.359</ele>
        <time>2020-06-28T05:45:16Z</time>
      </trkpt>
      <trkpt lat="44.10187" lon="7.35931">
        <ele>2132.466</ele>
        <time>2020-06-28T05:45:31Z</time>
      </trkpt>
      <trkpt lat="44.10201" lon="7.35918">
        <ele>2131.41</ele>
        <time>2020-06-28T05:45:47Z</time>
      </trkpt>
      <trkpt lat="44.10203" lon="7.35919">
        <ele>2133.399</ele>
        <time>2020-06-28T05:46:02Z</time>
      </trkpt>
      <trkpt lat="44.10212" lon="7.35917">
        <ele>2133.975</ele>
        <time>2020-06-28T05:46:17Z</time>
      </trkpt>
      <trkpt lat="44.10223" lon="7.35913">
        <ele>2130.33</ele>
        <time>2020-06-28T05:46:32Z</time>
      </trkpt>
      <trkpt lat="44.10236" lon="7.35909">
        <ele>2133.75</ele>
        <time>2020-06-28T05:46:48Z</time>
      </trkpt>
      <trkpt lat="44.10239" lon="7.35911">
        <ele>2136.474</ele>
        <time>2020-06-28T05:47:03Z</time>
      </trkpt>
      <trkpt lat="44.10244" lon="7.35913">
        <ele>2137.404</ele>
        <time>2020-06-28T05:47:19Z</time>
      </trkpt>
      <trkpt lat="44.10249" lon="7.35915">
        <ele>2139.364</ele>
        <time>2020-06-28T05:47:34Z</time>
      </trkpt>
      <trkpt lat="44.10249" lon="7.35915">
        <ele>2139.364</ele>
        <time>2020-06-28T05:47:50Z</time>
      </trkpt>
      <trkpt lat="44.1025" lon="7.35918">
        <ele>2142.937</ele>
        <time>2020-06-28T05:48:06Z</time>
      </trkpt>
      <trkpt lat="44.10261" lon="7.35915">
        <ele>2149.732</ele>
        <time>2020-06-28T05:48:21Z</time>
      </trkpt>
      <trkpt lat="44.10272" lon="7.35918">
        <ele>2150.064</ele>
        <time>2020-06-28T05:48:37Z</time>
      </trkpt>
      <trkpt lat="44.10278" lon="7.35917">
        <ele>2153.137</ele>
        <time>2020-06-28T05:48:52Z</time>
      </trkpt>
      <trkpt lat="44.10284" lon="7.35918">
        <ele>2154.335</ele>
        <time>2020-06-28T05:49:08Z</time>
      </trkpt>
      <trkpt lat="44.1029" lon="7.35915">
        <ele>2155.539</ele>
        <time>2020-06-28T05:49:23Z</time>
      </trkpt>
      <trkpt lat="44.1029" lon="7.35914">
        <ele>2157.312</ele>
        <time>2020-06-28T05:49:38Z</time>
      </trkpt>
      <trkpt lat="44.1029" lon="7.35914">
        <ele>2157.312</ele>
        <time>2020-06-28T05:49:54Z</time>
      </trkpt>
      <trkpt lat="44.1029" lon="7.35914">
        <ele>2157.312</ele>
        <time>2020-06-28T05:50:09Z</time>
      </trkpt>
      <trkpt lat="44.1029" lon="7.35914">
        <ele>2157.312</ele>
        <time>2020-06-28T05:50:24Z</time>
      </trkpt>
      <trkpt lat="44.10294" lon="7.35912">
        <ele>2158.031</ele>
        <time>2020-06-28T05:50:40Z</time>
      </trkpt>
      <trkpt lat="44.10301" lon="7.3591">
        <ele>2159.097</ele>
        <time>2020-06-28T05:50:55Z</time>
      </trkpt>
      <trkpt lat="44.1031" lon="7.35897">
        <ele>2161.995</ele>
        <time>2020-06-28T05:51:10Z</time>
      </trkpt>
      <trkpt lat="44.10313" lon="7.35895">
        <ele>2167.67</ele>
        <time>2020-06-28T05:51:25Z</time>
      </trkpt>
      <trkpt lat="44.10322" lon="7.35893">
        <ele>2171.395</ele>
        <time>2020-06-28T05:51:41Z</time>
      </trkpt>
      <trkpt lat="44.10325" lon="7.35891">
        <ele>2172.748</ele>
        <time>2020-06-28T05:51:56Z</time>
      </trkpt>
      <trkpt lat="44.1033" lon="7.35896">
        <ele>2172.885</ele>
        <time>2020-06-28T05:52:12Z</time>
      </trkpt>
      <trkpt lat="44.10333" lon="7.35896">
        <ele>2174.086</ele>
        <time>2020-06-28T05:52:27Z</time>
      </trkpt>
      <trkpt lat="44.10333" lon="7.35892">
        <ele>2176.183</ele>
        <time>2020-06-28T05:52:43Z</time>
      </trkpt>
      <trkpt lat="44.10335" lon="7.35892">
        <ele>2178.406</ele>
        <time>2020-06-28T05:52:58Z</time>
      </trkpt>
      <trkpt lat="44.10333" lon="7.35889">
        <ele>2180.917</ele>
        <time>2020-06-28T05:53:13Z</time>
      </trkpt>
      <trkpt lat="44.10342" lon="7.3588">
        <ele>2183.038</ele>
        <time>2020-06-28T05:53:29Z</time>
      </trkpt>
      <trkpt lat="44.10349" lon="7.35869">
        <ele>2188.586</ele>
        <time>2020-06-28T05:53:45Z</time>
      </trkpt>
      <trkpt lat="44.10352" lon="7.35861">
        <ele>2188.328</ele>
        <time>2020-06-28T05:54:00Z</time>
      </trkpt>
      <trkpt lat="44.10348" lon="7.35861">
        <ele>2189.287</ele>
        <time>2020-06-28T05:54:16Z</time>
      </trkpt>
      <trkpt lat="44.10344" lon="7.35861">
        <ele>2191.61</ele>
        <time>2020-06-28T05:54:32Z</time>
      </trkpt>
      <trkpt lat="44.10341" lon="7.35861">
        <ele>2191.41</ele>
        <time>2020-06-28T05:54:47Z</time>
      </trkpt>
      <trkpt lat="44.10339" lon="7.35855">
        <ele>2192.916</ele>
        <time>2020-06-28T05:55:03Z</time>
      </trkpt>
      <trkpt lat="44.1034" lon="7.35854">
        <ele>2193.103</ele>
        <time>2020-06-28T05:55:18Z</time>
      </trkpt>
      <trkpt lat="44.1034" lon="7.35854">
        <ele>2192.606</ele>
        <time>2020-06-28T05:55:33Z</time>
      </trkpt>
      <trkpt lat="44.1034" lon="7.35854">
        <ele>2192.606</ele>
        <time>2020-06-28T05:55:48Z</time>
      </trkpt>
      <trkpt lat="44.1034" lon="7.35856">
        <ele>2192.697</ele>
        <time>2020-06-28T05:56:03Z</time>
      </trkpt>
      <trkpt lat="44.1034" lon="7.35856">
        <ele>2192.697</ele>
        <time>2020-06-28T05:56:19Z</time>
      </trkpt>
      <trkpt lat="44.1034" lon="7.35856">
        <ele>2192.697</ele>
        <time>2020-06-28T05:56:35Z</time>
      </trkpt>
      <trkpt lat="44.1034" lon="7.35856">
        <ele>2192.697</ele>
        <time>2020-06-28T05:56:51Z</time>
      </trkpt>
      <trkpt lat="44.1034" lon="7.35856">
        <ele>2192.697</ele>
        <time>2020-06-28T05:57:07Z</time>
      </trkpt>
      <trkpt lat="44.1034" lon="7.35856">
        <ele>2192.697</ele>
        <time>2020-06-28T05:57:23Z</time>
      </trkpt>
      <trkpt lat="44.10339" lon="7.35858">
        <ele>2196.072</ele>
        <time>2020-06-28T05:57:38Z</time>
      </trkpt>
      <trkpt lat="44.1034" lon="7.35857">
        <ele>2195.623</ele>
        <time>2020-06-28T05:57:54Z</time>
      </trkpt>
      <trkpt lat="44.1034" lon="7.35857">
        <ele>2195.623</ele>
        <time>2020-06-28T05:58:09Z</time>
      </trkpt>
      <trkpt lat="44.1034" lon="7.35857">
        <ele>2195.623</ele>
        <time>2020-06-28T05:58:24Z</time>
      </trkpt>
      <trkpt lat="44.1034" lon="7.35857">
        <ele>2195.623</ele>
        <time>2020-06-28T05:58:40Z</time>
      </trkpt>
      <trkpt lat="44.1034" lon="7.35857">
        <ele>2195.623</ele>
        <time>2020-06-28T05:58:56Z</time>
      </trkpt>
      <trkpt lat="44.10344" lon="7.35856">
        <ele>2195.286</ele>
        <time>2020-06-28T05:59:11Z</time>
      </trkpt>
      <trkpt lat="44.10349" lon="7.35846">
        <ele>2190.653</ele>
        <time>2020-06-28T05:59:27Z</time>
      </trkpt>
      <trkpt lat="44.10348" lon="7.35833">
        <ele>2190.323</ele>
        <time>2020-06-28T05:59:42Z</time>
      </trkpt>
      <trkpt lat="44.10346" lon="7.35822">
        <ele>2191.543</ele>
        <time>2020-06-28T05:59:58Z</time>
      </trkpt>
      <trkpt lat="44.10343" lon="7.35816">
        <ele>2194.476</ele>
        <time>2020-06-28T06:00:14Z</time>
      </trkpt>
      <trkpt lat="44.1034" lon="7.35813">
        <ele>2198.638</ele>
        <time>2020-06-28T06:00:29Z</time>
      </trkpt>
      <trkpt lat="44.10335" lon="7.35808">
        <ele>2201.584</ele>
        <time>2020-06-28T06:00:44Z</time>
      </trkpt>
      <trkpt lat="44.10333" lon="7.35804">
        <ele>2201.577</ele>
        <time>2020-06-28T06:01:00Z</time>
      </trkpt>
      <trkpt lat="44.10338" lon="7.35795">
        <ele>2203.128</ele>
        <time>2020-06-28T06:01:16Z</time>
      </trkpt>
      <trkpt lat="44.10344" lon="7.35784">
        <ele>2204.659</ele>
        <time>2020-06-28T06:01:32Z</time>
      </trkpt>
      <trkpt lat="44.10349" lon="7.35776">
        <ele>2206.052</ele>
        <time>2020-06-28T06:01:48Z</time>
      </trkpt>
      <trkpt lat="44.10349" lon="7.35776">
        <ele>2206.052</ele>
        <time>2020-06-28T06:02:03Z</time>
      </trkpt>
      <trkpt lat="44.10358" lon="7.35761">
        <ele>2209.443</ele>
        <time>2020-06-28T06:02:19Z</time>
      </trkpt>
      <trkpt lat="44.10365" lon="7.35754">
        <ele>2211.735</ele>
        <time>2020-06-28T06:02:35Z</time>
      </trkpt>
      <trkpt lat="44.10372" lon="7.35746">
        <ele>2213.607</ele>
        <time>2020-06-28T06:02:51Z</time>
      </trkpt>
      <trkpt lat="44.10384" lon="7.35742">
        <ele>2218.926</ele>
        <time>2020-06-28T06:03:07Z</time>
      </trkpt>
      <trkpt lat="44.10395" lon="7.35735">
        <ele>2220.771</ele>
        <time>2020-06-28T06:03:23Z</time>
      </trkpt>
      <trkpt lat="44.104" lon="7.35732">
        <ele>2223.144</ele>
        <time>2020-06-28T06:03:39Z</time>
      </trkpt>
      <trkpt lat="44.10399" lon="7.35733">
        <ele>2223.93</ele>
        <time>2020-06-28T06:03:55Z</time>
      </trkpt>
      <trkpt lat="44.10399" lon="7.35733">
        <ele>2225.461</ele>
        <time>2020-06-28T06:04:10Z</time>
      </trkpt>
      <trkpt lat="44.10399" lon="7.35732">
        <ele>2225.548</ele>
        <time>2020-06-28T06:04:25Z</time>
      </trkpt>
      <trkpt lat="44.10405" lon="7.35725">
        <ele>2227.774</ele>
        <time>2020-06-28T06:04:41Z</time>
      </trkpt>
      <trkpt lat="44.10411" lon="7.35714">
        <ele>2230.133</ele>
        <time>2020-06-28T06:04:57Z</time>
      </trkpt>
      <trkpt lat="44.10417" lon="7.35705">
        <ele>2230.782</ele>
        <time>2020-06-28T06:05:12Z</time>
      </trkpt>
      <trkpt lat="44.10422" lon="7.35695">
        <ele>2236.083</ele>
        <time>2020-06-28T06:05:28Z</time>
      </trkpt>
      <trkpt lat="44.10426" lon="7.35689">
        <ele>2238.576</ele>
        <time>2020-06-28T06:05:43Z</time>
      </trkpt>
      <trkpt lat="44.10422" lon="7.35687">
        <ele>2241.179</ele>
        <time>2020-06-28T06:05:59Z</time>
      </trkpt>
      <trkpt lat="44.10426" lon="7.3568">
        <ele>2246.166</ele>
        <time>2020-06-28T06:06:15Z</time>
      </trkpt>
      <trkpt lat="44.10423" lon="7.35681">
        <ele>2247.101</ele>
        <time>2020-06-28T06:06:30Z</time>
      </trkpt>
      <trkpt lat="44.10413" lon="7.35681">
        <ele>2249.805</ele>
        <time>2020-06-28T06:06:45Z</time>
      </trkpt>
      <trkpt lat="44.10402" lon="7.35684">
        <ele>2251.017</ele>
        <time>2020-06-28T06:07:01Z</time>
      </trkpt>
      <trkpt lat="44.10393" lon="7.35683">
        <ele>2254.06</ele>
        <time>2020-06-28T06:07:17Z</time>
      </trkpt>
      <trkpt lat="44.10395" lon="7.35679">
        <ele>2256.883</ele>
        <time>2020-06-28T06:07:32Z</time>
      </trkpt>
      <trkpt lat="44.10399" lon="7.35673">
        <ele>2257.888</ele>
        <time>2020-06-28T06:07:48Z</time>
      </trkpt>
      <trkpt lat="44.1041" lon="7.35664">
        <ele>2257.843</ele>
        <time>2020-06-28T06:08:03Z</time>
      </trkpt>
      <trkpt lat="44.10413" lon="7.35661">
        <ele>2258.504</ele>
        <time>2020-06-28T06:08:19Z</time>
      </trkpt>
      <trkpt lat="44.10422" lon="7.35651">
        <ele>2258.553</ele>
        <time>2020-06-28T06:08:35Z</time>
      </trkpt>
      <trkpt lat="44.10432" lon="7.35638">
        <ele>2261.076</ele>
        <time>2020-06-28T06:08:50Z</time>
      </trkpt>
      <trkpt lat="44.10441" lon="7.3563">
        <ele>2265.272</ele>
        <time>2020-06-28T06:09:06Z</time>
      </trkpt>
      <trkpt lat="44.10451" lon="7.35621">
        <ele>2268.125</ele>
        <time>2020-06-28T06:09:21Z</time>
      </trkpt>
      <trkpt lat="44.10456" lon="7.35617">
        <ele>2269.385</ele>
        <time>2020-06-28T06:09:37Z</time>
      </trkpt>
      <trkpt lat="44.10467" lon="7.35608">
        <ele>2274.317</ele>
        <time>2020-06-28T06:09:53Z</time>
      </trkpt>
      <trkpt lat="44.10474" lon="7.35605">
        <ele>2274.669</ele>
        <time>2020-06-28T06:10:09Z</time>
      </trkpt>
      <trkpt lat="44.10479" lon="7.35602">
        <ele>2274.578</ele>
        <time>2020-06-28T06:10:24Z</time>
      </trkpt>
      <trkpt lat="44.10481" lon="7.35601">
        <ele>2274.05</ele>
        <time>2020-06-28T06:10:39Z</time>
      </trkpt>
      <trkpt lat="44.10492" lon="7.35595">
        <ele>2277.07</ele>
        <time>2020-06-28T06:10:55Z</time>
      </trkpt>
      <trkpt lat="44.105" lon="7.3559">
        <ele>2277.638</ele>
        <time>2020-06-28T06:11:11Z</time>
      </trkpt>
      <trkpt lat="44.105" lon="7.3559">
        <ele>2277.638</ele>
        <time>2020-06-28T06:11:27Z</time>
      </trkpt>
      <trkpt lat="44.105" lon="7.3559">
        <ele>2277.638</ele>
        <time>2020-06-28T06:11:42Z</time>
      </trkpt>
      <trkpt lat="44.105" lon="7.35587">
        <ele>2278.065</ele>
        <time>2020-06-28T06:11:58Z</time>
      </trkpt>
      <trkpt lat="44.105" lon="7.35587">
        <ele>2278.065</ele>
        <time>2020-06-28T06:12:14Z</time>
      </trkpt>
      <trkpt lat="44.10502" lon="7.35581">
        <ele>2279.414</ele>
        <time>2020-06-28T06:12:30Z</time>
      </trkpt>
      <trkpt lat="44.10518" lon="7.35565">
        <ele>2281.152</ele>
        <time>2020-06-28T06:12:46Z</time>
      </trkpt>
      <trkpt lat="44.10526" lon="7.35555">
        <ele>2283.414</ele>
        <time>2020-06-28T06:13:02Z</time>
      </trkpt>
      <trkpt lat="44.10531" lon="7.35551">
        <ele>2282.592</ele>
        <time>2020-06-28T06:13:18Z</time>
      </trkpt>
      <trkpt lat="44.10531" lon="7.35551">
        <ele>2282.592</ele>
        <time>2020-06-28T06:13:33Z</time>
      </trkpt>
      <trkpt lat="44.10531" lon="7.35551">
        <ele>2282.592</ele>
        <time>2020-06-28T06:13:49Z</time>
      </trkpt>
      <trkpt lat="44.10548" lon="7.35531">
        <ele>2283.587</ele>
        <time>2020-06-28T06:14:05Z</time>
      </trkpt>
      <trkpt lat="44.10565" lon="7.35522">
        <ele>2284.753</ele>
        <time>2020-06-28T06:14:21Z</time>
      </trkpt>
      <trkpt lat="44.10568" lon="7.35522">
        <ele>2284.257</ele>
        <time>2020-06-28T06:14:37Z</time>
      </trkpt>
      <trkpt lat="44.10585" lon="7.35523">
        <ele>2287.099</ele>
        <time>2020-06-28T06:14:53Z</time>
      </trkpt>
      <trkpt lat="44.10599" lon="7.35521">
        <ele>2289.769</ele>
        <time>2020-06-28T06:15:08Z</time>
      </trkpt>
      <trkpt lat="44.10606" lon="7.35523">
        <ele>2288.876</ele>
        <time>2020-06-28T06:15:24Z</time>
      </trkpt>
      <trkpt lat="44.10623" lon="7.35519">
        <ele>2287.063</ele>
        <time>2020-06-28T06:15:40Z</time>
      </trkpt>
      <trkpt lat="44.10638" lon="7.3552">
        <ele>2285.443</ele>
        <time>2020-06-28T06:15:55Z</time>
      </trkpt>
      <trkpt lat="44.10653" lon="7.35517">
        <ele>2284.796</ele>
        <time>2020-06-28T06:16:11Z</time>
      </trkpt>
      <trkpt lat="44.10666" lon="7.35512">
        <ele>2288.546</ele>
        <time>2020-06-28T06:16:26Z</time>
      </trkpt>
      <trkpt lat="44.10674" lon="7.35516">
        <ele>2289.661</ele>
        <time>2020-06-28T06:16:42Z</time>
      </trkpt>
      <trkpt lat="44.1069" lon="7.35513">
        <ele>2292.113</ele>
        <time>2020-06-28T06:16:57Z</time>
      </trkpt>
      <trkpt lat="44.10708" lon="7.35512">
        <ele>2288.966</ele>
        <time>2020-06-28T06:17:13Z</time>
      </trkpt>
      <trkpt lat="44.10723" lon="7.35511">
        <ele>2287.816</ele>
        <time>2020-06-28T06:17:28Z</time>
      </trkpt>
      <trkpt lat="44.10736" lon="7.35511">
        <ele>2287.384</ele>
        <time>2020-06-28T06:17:44Z</time>
      </trkpt>
      <trkpt lat="44.1074" lon="7.35511">
        <ele>2287.356</ele>
        <time>2020-06-28T06:17:59Z</time>
      </trkpt>
      <trkpt lat="44.10757" lon="7.35506">
        <ele>2290.955</ele>
        <time>2020-06-28T06:18:15Z</time>
      </trkpt>
      <trkpt lat="44.1077" lon="7.35507">
        <ele>2292.834</ele>
        <time>2020-06-28T06:18:31Z</time>
      </trkpt>
      <trkpt lat="44.10775" lon="7.35511">
        <ele>2294.552</ele>
        <time>2020-06-28T06:18:47Z</time>
      </trkpt>
      <trkpt lat="44.10776" lon="7.35513">
        <ele>2294.051</ele>
        <time>2020-06-28T06:19:03Z</time>
      </trkpt>
      <trkpt lat="44.10783" lon="7.3552">
        <ele>2291.399</ele>
        <time>2020-06-28T06:19:19Z</time>
      </trkpt>
      <trkpt lat="44.10782" lon="7.35519">
        <ele>2291.11</ele>
        <time>2020-06-28T06:19:35Z</time>
      </trkpt>
      <trkpt lat="44.10781" lon="7.35519">
        <ele>2293.307</ele>
        <time>2020-06-28T06:19:50Z</time>
      </trkpt>
      <trkpt lat="44.10786" lon="7.35519">
        <ele>2293.617</ele>
        <time>2020-06-28T06:20:05Z</time>
      </trkpt>
      <trkpt lat="44.10792" lon="7.35518">
        <ele>2292.349</ele>
        <time>2020-06-28T06:20:20Z</time>
      </trkpt>
      <trkpt lat="44.10795" lon="7.35509">
        <ele>2291.091</ele>
        <time>2020-06-28T06:20:35Z</time>
      </trkpt>
      <trkpt lat="44.10802" lon="7.35504">
        <ele>2294.341</ele>
        <time>2020-06-28T06:20:51Z</time>
      </trkpt>
      <trkpt lat="44.10803" lon="7.35502">
        <ele>2293.237</ele>
        <time>2020-06-28T06:21:06Z</time>
      </trkpt>
      <trkpt lat="44.10805" lon="7.35509">
        <ele>2296.117</ele>
        <time>2020-06-28T06:21:22Z</time>
      </trkpt>
      <trkpt lat="44.10806" lon="7.3551">
        <ele>2296.258</ele>
        <time>2020-06-28T06:21:38Z</time>
      </trkpt>
      <trkpt lat="44.10812" lon="7.35507">
        <ele>2297.636</ele>
        <time>2020-06-28T06:21:54Z</time>
      </trkpt>
      <trkpt lat="44.10817" lon="7.35503">
        <ele>2294.669</ele>
        <time>2020-06-28T06:22:10Z</time>
      </trkpt>
      <trkpt lat="44.10818" lon="7.35504">
        <ele>2294.414</ele>
        <time>2020-06-28T06:22:26Z</time>
      </trkpt>
      <trkpt lat="44.10818" lon="7.35504">
        <ele>2294.594</ele>
        <time>2020-06-28T06:22:41Z</time>
      </trkpt>
      <trkpt lat="44.10825" lon="7.35501">
        <ele>2298.463</ele>
        <time>2020-06-28T06:22:57Z</time>
      </trkpt>
      <trkpt lat="44.10833" lon="7.35505">
        <ele>2301.959</ele>
        <time>2020-06-28T06:23:13Z</time>
      </trkpt>
      <trkpt lat="44.10831" lon="7.35497">
        <ele>2302.415</ele>
        <time>2020-06-28T06:23:29Z</time>
      </trkpt>
      <trkpt lat="44.10837" lon="7.35494">
        <ele>2306.22</ele>
        <time>2020-06-28T06:23:45Z</time>
      </trkpt>
      <trkpt lat="44.10838" lon="7.3549">
        <ele>2307.084</ele>
        <time>2020-06-28T06:24:01Z</time>
      </trkpt>
      <trkpt lat="44.10846" lon="7.35484">
        <ele>2304.577</ele>
        <time>2020-06-28T06:24:17Z</time>
      </trkpt>
      <trkpt lat="44.10851" lon="7.35476">
        <ele>2309.705</ele>
        <time>2020-06-28T06:24:32Z</time>
      </trkpt>
      <trkpt lat="44.10854" lon="7.35474">
        <ele>2312.9</ele>
        <time>2020-06-28T06:24:47Z</time>
      </trkpt>
      <trkpt lat="44.10858" lon="7.3548">
        <ele>2317.773</ele>
        <time>2020-06-28T06:25:03Z</time>
      </trkpt>
      <trkpt lat="44.10864" lon="7.35493">
        <ele>2323.505</ele>
        <time>2020-06-28T06:25:19Z</time>
      </trkpt>
      <trkpt lat="44.10867" lon="7.35499">
        <ele>2326.899</ele>
        <time>2020-06-28T06:25:34Z</time>
      </trkpt>
      <trkpt lat="44.10868" lon="7.35497">
        <ele>2333.399</ele>
        <time>2020-06-28T06:25:50Z</time>
      </trkpt>
      <trkpt lat="44.10872" lon="7.355">
        <ele>2341.885</ele>
        <time>2020-06-28T06:26:05Z</time>
      </trkpt>
      <trkpt lat="44.1087" lon="7.35492">
        <ele>2344.589</ele>
        <time>2020-06-28T06:26:20Z</time>
      </trkpt>
      <trkpt lat="44.10871" lon="7.35486">
        <ele>2344.078</ele>
        <time>2020-06-28T06:26:36Z</time>
      </trkpt>
      <trkpt lat="44.10873" lon="7.35483">
        <ele>2345.497</ele>
        <time>2020-06-28T06:26:52Z</time>
      </trkpt>
      <trkpt lat="44.10878" lon="7.35483">
        <ele>2348.892</ele>
        <time>2020-06-28T06:27:08Z</time>
      </trkpt>
      <trkpt lat="44.10882" lon="7.35482">
        <ele>2352.472</ele>
        <time>2020-06-28T06:27:24Z</time>
      </trkpt>
      <trkpt lat="44.10888" lon="7.35478">
        <ele>2354.002</ele>
        <time>2020-06-28T06:27:40Z</time>
      </trkpt>
      <trkpt lat="44.10899" lon="7.35471">
        <ele>2358.221</ele>
        <time>2020-06-28T06:27:56Z</time>
      </trkpt>
      <trkpt lat="44.10908" lon="7.35467">
        <ele>2363.497</ele>
        <time>2020-06-28T06:28:11Z</time>
      </trkpt>
      <trkpt lat="44.10911" lon="7.35464">
        <ele>2364.84</ele>
        <time>2020-06-28T06:28:26Z</time>
      </trkpt>
      <trkpt lat="44.10915" lon="7.35458">
        <ele>2364.408</ele>
        <time>2020-06-28T06:28:42Z</time>
      </trkpt>
      <trkpt lat="44.10916" lon="7.35456">
        <ele>2366.353</ele>
        <time>2020-06-28T06:28:58Z</time>
      </trkpt>
      <trkpt lat="44.10916" lon="7.35456">
        <ele>2366.353</ele>
        <time>2020-06-28T06:29:13Z</time>
      </trkpt>
      <trkpt lat="44.10922" lon="7.35451">
        <ele>2368.054</ele>
        <time>2020-06-28T06:29:29Z</time>
      </trkpt>
      <trkpt lat="44.1093" lon="7.35438">
        <ele>2371.686</ele>
        <time>2020-06-28T06:29:45Z</time>
      </trkpt>
      <trkpt lat="44.10931" lon="7.35437">
        <ele>2371.819</ele>
        <time>2020-06-28T06:30:01Z</time>
      </trkpt>
      <trkpt lat="44.10931" lon="7.35437">
        <ele>2371.819</ele>
        <time>2020-06-28T06:30:16Z</time>
      </trkpt>
      <trkpt lat="44.10931" lon="7.35437">
        <ele>2371.819</ele>
        <time>2020-06-28T06:30:31Z</time>
      </trkpt>
      <trkpt lat="44.10943" lon="7.35428">
        <ele>2373.277</ele>
        <time>2020-06-28T06:30:47Z</time>
      </trkpt>
      <trkpt lat="44.10947" lon="7.35426">
        <ele>2378.169</ele>
        <time>2020-06-28T06:31:03Z</time>
      </trkpt>
      <trkpt lat="44.10947" lon="7.35425">
        <ele>2378.85</ele>
        <time>2020-06-28T06:31:19Z</time>
      </trkpt>
      <trkpt lat="44.10954" lon="7.35424">
        <ele>2382.683</ele>
        <time>2020-06-28T06:31:35Z</time>
      </trkpt>
      <trkpt lat="44.10962" lon="7.35422">
        <ele>2384.721</ele>
        <time>2020-06-28T06:31:51Z</time>
      </trkpt>
      <trkpt lat="44.10969" lon="7.35419">
        <ele>2385.862</ele>
        <time>2020-06-28T06:32:06Z</time>
      </trkpt>
      <trkpt lat="44.10972" lon="7.35414">
        <ele>2390.965</ele>
        <time>2020-06-28T06:32:22Z</time>
      </trkpt>
      <trkpt lat="44.10979" lon="7.3541">
        <ele>2391.718</ele>
        <time>2020-06-28T06:32:38Z</time>
      </trkpt>
      <trkpt lat="44.10989" lon="7.35417">
        <ele>2397.797</ele>
        <time>2020-06-28T06:32:54Z</time>
      </trkpt>
      <trkpt lat="44.10999" lon="7.35413">
        <ele>2399.595</ele>
        <time>2020-06-28T06:33:09Z</time>
      </trkpt>
      <trkpt lat="44.11007" lon="7.35413">
        <ele>2407.519</ele>
        <time>2020-06-28T06:33:25Z</time>
      </trkpt>
      <trkpt lat="44.11012" lon="7.35409">
        <ele>2407.546</ele>
        <time>2020-06-28T06:33:40Z</time>
      </trkpt>
      <trkpt lat="44.11021" lon="7.35406">
        <ele>2410.777</ele>
        <time>2020-06-28T06:33:56Z</time>
      </trkpt>
      <trkpt lat="44.11024" lon="7.35408">
        <ele>2411.279</ele>
        <time>2020-06-28T06:34:11Z</time>
      </trkpt>
      <trkpt lat="44.11031" lon="7.35407">
        <ele>2412.425</ele>
        <time>2020-06-28T06:34:27Z</time>
      </trkpt>
      <trkpt lat="44.11047" lon="7.35406">
        <ele>2415.176</ele>
        <time>2020-06-28T06:34:43Z</time>
      </trkpt>
      <trkpt lat="44.11061" lon="7.354">
        <ele>2416.603</ele>
        <time>2020-06-28T06:34:59Z</time>
      </trkpt>
      <trkpt lat="44.11067" lon="7.35401">
        <ele>2417.169</ele>
        <time>2020-06-28T06:35:14Z</time>
      </trkpt>
      <trkpt lat="44.11067" lon="7.354">
        <ele>2417.833</ele>
        <time>2020-06-28T06:35:29Z</time>
      </trkpt>
      <trkpt lat="44.11069" lon="7.354">
        <ele>2418.434</ele>
        <time>2020-06-28T06:35:45Z</time>
      </trkpt>
      <trkpt lat="44.11069" lon="7.354">
        <ele>2418.434</ele>
        <time>2020-06-28T06:36:01Z</time>
      </trkpt>
      <trkpt lat="44.11069" lon="7.354">
        <ele>2418.434</ele>
        <time>2020-06-28T06:36:17Z</time>
      </trkpt>
      <trkpt lat="44.11069" lon="7.354">
        <ele>2418.434</ele>
        <time>2020-06-28T06:36:32Z</time>
      </trkpt>
      <trkpt lat="44.11069" lon="7.354">
        <ele>2418.434</ele>
        <time>2020-06-28T06:36:48Z</time>
      </trkpt>
      <trkpt lat="44.11069" lon="7.354">
        <ele>2418.434</ele>
        <time>2020-06-28T06:37:03Z</time>
      </trkpt>
      <trkpt lat="44.11069" lon="7.354">
        <ele>2418.434</ele>
        <time>2020-06-28T06:37:19Z</time>
      </trkpt>
      <trkpt lat="44.11071" lon="7.35402">
        <ele>2418.759</ele>
        <time>2020-06-28T06:37:35Z</time>
      </trkpt>
      <trkpt lat="44.11085" lon="7.35398">
        <ele>2419.571</ele>
        <time>2020-06-28T06:37:51Z</time>
      </trkpt>
      <trkpt lat="44.11099" lon="7.35401">
        <ele>2421.266</ele>
        <time>2020-06-28T06:38:07Z</time>
      </trkpt>
      <trkpt lat="44.11108" lon="7.35405">
        <ele>2425.029</ele>
        <time>2020-06-28T06:38:23Z</time>
      </trkpt>
      <trkpt lat="44.11112" lon="7.35404">
        <ele>2427.125</ele>
        <time>2020-06-28T06:38:38Z</time>
      </trkpt>
      <trkpt lat="44.11123" lon="7.35405">
        <ele>2427.513</ele>
        <time>2020-06-28T06:38:54Z</time>
      </trkpt>
      <trkpt lat="44.11132" lon="7.35402">
        <ele>2430.055</ele>
        <time>2020-06-28T06:39:10Z</time>
      </trkpt>
      <trkpt lat="44.11141" lon="7.35391">
        <ele>2430.895</ele>
        <time>2020-06-28T06:39:26Z</time>
      </trkpt>
      <trkpt lat="44.11154" lon="7.35393">
        <ele>2436.271</ele>
        <time>2020-06-28T06:39:42Z</time>
      </trkpt>
      <trkpt lat="44.11161" lon="7.35394">
        <ele>2436.437</ele>
        <time>2020-06-28T06:39:58Z</time>
      </trkpt>
      <trkpt lat="44.11165" lon="7.35387">
        <ele>2439.601</ele>
        <time>2020-06-28T06:40:13Z</time>
      </trkpt>
      <trkpt lat="44.11171" lon="7.35386">
        <ele>2441.155</ele>
        <time>2020-06-28T06:40:28Z</time>
      </trkpt>
      <trkpt lat="44.1118" lon="7.35386">
        <ele>2445.229</ele>
        <time>2020-06-28T06:40:44Z</time>
      </trkpt>
      <trkpt lat="44.11182" lon="7.35387">
        <ele>2447.742</ele>
        <time>2020-06-28T06:40:59Z</time>
      </trkpt>
      <trkpt lat="44.11186" lon="7.35381">
        <ele>2445.752</ele>
        <time>2020-06-28T06:41:15Z</time>
      </trkpt>
      <trkpt lat="44.11189" lon="7.35377">
        <ele>2444.544</ele>
        <time>2020-06-28T06:41:31Z</time>
      </trkpt>
      <trkpt lat="44.11189" lon="7.35367">
        <ele>2446.392</ele>
        <time>2020-06-28T06:41:47Z</time>
      </trkpt>
      <trkpt lat="44.11189" lon="7.35351">
        <ele>2449.683</ele>
        <time>2020-06-28T06:42:02Z</time>
      </trkpt>
      <trkpt lat="44.11197" lon="7.35355">
        <ele>2452.24</ele>
        <time>2020-06-28T06:42:18Z</time>
      </trkpt>
      <trkpt lat="44.11204" lon="7.35361">
        <ele>2453.037</ele>
        <time>2020-06-28T06:42:34Z</time>
      </trkpt>
      <trkpt lat="44.11202" lon="7.3535">
        <ele>2457.435</ele>
        <time>2020-06-28T06:42:50Z</time>
      </trkpt>
      <trkpt lat="44.11204" lon="7.35341">
        <ele>2459.314</ele>
        <time>2020-06-28T06:43:06Z</time>
      </trkpt>
      <trkpt lat="44.11207" lon="7.35341">
        <ele>2460.879</ele>
        <time>2020-06-28T06:43:21Z</time>
      </trkpt>
      <trkpt lat="44.1122" lon="7.35358">
        <ele>2463.245</ele>
        <time>2020-06-28T06:43:37Z</time>
      </trkpt>
      <trkpt lat="44.11227" lon="7.3537">
        <ele>2465.2</ele>
        <time>2020-06-28T06:43:52Z</time>
      </trkpt>
      <trkpt lat="44.11222" lon="7.35359">
        <ele>2467.561</ele>
        <time>2020-06-28T06:44:08Z</time>
      </trkpt>
      <trkpt lat="44.11217" lon="7.35346">
        <ele>2469.721</ele>
        <time>2020-06-28T06:44:23Z</time>
      </trkpt>
      <trkpt lat="44.11222" lon="7.35342">
        <ele>2469.798</ele>
        <time>2020-06-28T06:44:38Z</time>
      </trkpt>
      <trkpt lat="44.11222" lon="7.3534">
        <ele>2470.521</ele>
        <time>2020-06-28T06:44:54Z</time>
      </trkpt>
      <trkpt lat="44.11224" lon="7.35327">
        <ele>2472.188</ele>
        <time>2020-06-28T06:45:10Z</time>
      </trkpt>
      <trkpt lat="44.11239" lon="7.35342">
        <ele>2475.388</ele>
        <time>2020-06-28T06:45:26Z</time>
      </trkpt>
      <trkpt lat="44.11228" lon="7.35327">
        <ele>2479.225</ele>
        <time>2020-06-28T06:45:42Z</time>
      </trkpt>
      <trkpt lat="44.11219" lon="7.35313">
        <ele>2483.902</ele>
        <time>2020-06-28T06:45:57Z</time>
      </trkpt>
      <trkpt lat="44.1123" lon="7.35306">
        <ele>2478.771</ele>
        <time>2020-06-28T06:46:13Z</time>
      </trkpt>
      <trkpt lat="44.11236" lon="7.35306">
        <ele>2476.904</ele>
        <time>2020-06-28T06:46:29Z</time>
      </trkpt>
      <trkpt lat="44.11236" lon="7.35306">
        <ele>2476.904</ele>
        <time>2020-06-28T06:46:45Z</time>
      </trkpt>
      <trkpt lat="44.11243" lon="7.35309">
        <ele>2482.006</ele>
        <time>2020-06-28T06:47:01Z</time>
      </trkpt>
      <trkpt lat="44.11245" lon="7.35308">
        <ele>2483.648</ele>
        <time>2020-06-28T06:47:17Z</time>
      </trkpt>
      <trkpt lat="44.11245" lon="7.35308">
        <ele>2483.648</ele>
        <time>2020-06-28T06:47:32Z</time>
      </trkpt>
      <trkpt lat="44.11245" lon="7.35308">
        <ele>2483.648</ele>
        <time>2020-06-28T06:47:48Z</time>
      </trkpt>
      <trkpt lat="44.11245" lon="7.35308">
        <ele>2483.648</ele>
        <time>2020-06-28T06:48:03Z</time>
      </trkpt>
      <trkpt lat="44.11245" lon="7.35309">
        <ele>2484.225</ele>
        <time>2020-06-28T06:48:19Z</time>
      </trkpt>
      <trkpt lat="44.11245" lon="7.35309">
        <ele>2484.225</ele>
        <time>2020-06-28T06:48:34Z</time>
      </trkpt>
      <trkpt lat="44.11245" lon="7.35309">
        <ele>2484.225</ele>
        <time>2020-06-28T06:48:50Z</time>
      </trkpt>
      <trkpt lat="44.11245" lon="7.35309">
        <ele>2484.225</ele>
        <time>2020-06-28T06:49:06Z</time>
      </trkpt>
      <trkpt lat="44.11245" lon="7.35309">
        <ele>2484.225</ele>
        <time>2020-06-28T06:49:22Z</time>
      </trkpt>
      <trkpt lat="44.11248" lon="7.3531">
        <ele>2487.365</ele>
        <time>2020-06-28T06:49:37Z</time>
      </trkpt>
      <trkpt lat="44.11248" lon="7.3531">
        <ele>2487.365</ele>
        <time>2020-06-28T06:49:53Z</time>
      </trkpt>
      <trkpt lat="44.11248" lon="7.3531">
        <ele>2487.365</ele>
        <time>2020-06-28T06:50:09Z</time>
      </trkpt>
      <trkpt lat="44.11248" lon="7.3531">
        <ele>2487.365</ele>
        <time>2020-06-28T06:50:24Z</time>
      </trkpt>
      <trkpt lat="44.11248" lon="7.3531">
        <ele>2487.365</ele>
        <time>2020-06-28T06:50:39Z</time>
      </trkpt>
      <trkpt lat="44.11248" lon="7.3531">
        <ele>2487.365</ele>
        <time>2020-06-28T06:50:54Z</time>
      </trkpt>
      <trkpt lat="44.11248" lon="7.3531">
        <ele>2487.365</ele>
        <time>2020-06-28T06:51:10Z</time>
      </trkpt>
      <trkpt lat="44.11248" lon="7.3531">
        <ele>2487.365</ele>
        <time>2020-06-28T06:51:25Z</time>
      </trkpt>
      <trkpt lat="44.11248" lon="7.3531">
        <ele>2487.365</ele>
        <time>2020-06-28T06:51:41Z</time>
      </trkpt>
      <trkpt lat="44.11248" lon="7.3531">
        <ele>2487.365</ele>
        <time>2020-06-28T06:51:57Z</time>
      </trkpt>
      <trkpt lat="44.11248" lon="7.3531">
        <ele>2487.365</ele>
        <time>2020-06-28T06:52:13Z</time>
      </trkpt>
      <trkpt lat="44.11248" lon="7.3531">
        <ele>2487.365</ele>
        <time>2020-06-28T06:52:29Z</time>
      </trkpt>
      <trkpt lat="44.11248" lon="7.3531">
        <ele>2487.365</ele>
        <time>2020-06-28T06:52:44Z</time>
      </trkpt>
      <trkpt lat="44.11248" lon="7.3531">
        <ele>2487.365</ele>
        <time>2020-06-28T06:53:00Z</time>
      </trkpt>
      <trkpt lat="44.11248" lon="7.3531">
        <ele>2487.365</ele>
        <time>2020-06-28T06:53:15Z</time>
      </trkpt>
      <trkpt lat="44.11248" lon="7.3531">
        <ele>2487.365</ele>
        <time>2020-06-28T06:53:31Z</time>
      </trkpt>
      <trkpt lat="44.11248" lon="7.3531">
        <ele>2487.365</ele>
        <time>2020-06-28T06:53:47Z</time>
      </trkpt>
      <trkpt lat="44.11248" lon="7.3531">
        <ele>2487.365</ele>
        <time>2020-06-28T06:54:02Z</time>
      </trkpt>
      <trkpt lat="44.11248" lon="7.3531">
        <ele>2487.365</ele>
        <time>2020-06-28T06:54:17Z</time>
      </trkpt>
      <trkpt lat="44.11248" lon="7.3531">
        <ele>2487.365</ele>
        <time>2020-06-28T06:54:33Z</time>
      </trkpt>
      <trkpt lat="44.11248" lon="7.3531">
        <ele>2487.365</ele>
        <time>2020-06-28T06:54:48Z</time>
      </trkpt>
      <trkpt lat="44.11248" lon="7.3531">
        <ele>2487.365</ele>
        <time>2020-06-28T06:55:04Z</time>
      </trkpt>
      <trkpt lat="44.11248" lon="7.3531">
        <ele>2487.365</ele>
        <time>2020-06-28T06:55:20Z</time>
      </trkpt>
      <trkpt lat="44.11249" lon="7.3531">
        <ele>2489.768</ele>
        <time>2020-06-28T06:55:36Z</time>
      </trkpt>
      <trkpt lat="44.11249" lon="7.35311">
        <ele>2490.257</ele>
        <time>2020-06-28T06:55:52Z</time>
      </trkpt>
      <trkpt lat="44.11249" lon="7.35311">
        <ele>2490.257</ele>
        <time>2020-06-28T06:56:08Z</time>
      </trkpt>
      <trkpt lat="44.11249" lon="7.35311">
        <ele>2490.257</ele>
        <time>2020-06-28T06:56:24Z</time>
      </trkpt>
      <trkpt lat="44.11249" lon="7.35311">
        <ele>2490.257</ele>
        <time>2020-06-28T06:56:40Z</time>
      </trkpt>
      <trkpt lat="44.11249" lon="7.35311">
        <ele>2490.257</ele>
        <time>2020-06-28T06:56:55Z</time>
      </trkpt>
      <trkpt lat="44.11249" lon="7.35311">
        <ele>2490.257</ele>
        <time>2020-06-28T06:57:11Z</time>
      </trkpt>
      <trkpt lat="44.11249" lon="7.35311">
        <ele>2490.257</ele>
        <time>2020-06-28T06:57:26Z</time>
      </trkpt>
      <trkpt lat="44.11249" lon="7.35311">
        <ele>2490.257</ele>
        <time>2020-06-28T06:57:42Z</time>
      </trkpt>
      <trkpt lat="44.11251" lon="7.35313">
        <ele>2490.426</ele>
        <time>2020-06-28T06:57:58Z</time>
      </trkpt>
      <trkpt lat="44.11249" lon="7.35311">
        <ele>2492.095</ele>
        <time>2020-06-28T06:58:14Z</time>
      </trkpt>
      <trkpt lat="44.11252" lon="7.35311">
        <ele>2492.097</ele>
        <time>2020-06-28T06:58:30Z</time>
      </trkpt>
      <trkpt lat="44.11252" lon="7.35311">
        <ele>2492.097</ele>
        <time>2020-06-28T06:58:45Z</time>
      </trkpt>
      <trkpt lat="44.11252" lon="7.3531">
        <ele>2492.456</ele>
        <time>2020-06-28T06:59:01Z</time>
      </trkpt>
      <trkpt lat="44.11252" lon="7.3531">
        <ele>2492.456</ele>
        <time>2020-06-28T06:59:16Z</time>
      </trkpt>
      <trkpt lat="44.11251" lon="7.35311">
        <ele>2492.604</ele>
        <time>2020-06-28T06:59:32Z</time>
      </trkpt>
      <trkpt lat="44.11251" lon="7.35311">
        <ele>2492.604</ele>
        <time>2020-06-28T06:59:48Z</time>
      </trkpt>
      <trkpt lat="44.11251" lon="7.35311">
        <ele>2492.604</ele>
        <time>2020-06-28T07:00:03Z</time>
      </trkpt>
      <trkpt lat="44.11251" lon="7.35311">
        <ele>2492.604</ele>
        <time>2020-06-28T07:00:19Z</time>
      </trkpt>
      <trkpt lat="44.11251" lon="7.35311">
        <ele>2492.604</ele>
        <time>2020-06-28T07:00:35Z</time>
      </trkpt>
      <trkpt lat="44.11251" lon="7.35311">
        <ele>2492.604</ele>
        <time>2020-06-28T07:00:51Z</time>
      </trkpt>
      <trkpt lat="44.11251" lon="7.35311">
        <ele>2492.604</ele>
        <time>2020-06-28T07:01:06Z</time>
      </trkpt>
      <trkpt lat="44.11251" lon="7.35311">
        <ele>2492.604</ele>
        <time>2020-06-28T07:01:22Z</time>
      </trkpt>
      <trkpt lat="44.11251" lon="7.35311">
        <ele>2492.604</ele>
        <time>2020-06-28T07:01:37Z</time>
      </trkpt>
      <trkpt lat="44.11251" lon="7.35311">
        <ele>2492.604</ele>
        <time>2020-06-28T07:01:53Z</time>
      </trkpt>
      <trkpt lat="44.11251" lon="7.35311">
        <ele>2492.604</ele>
        <time>2020-06-28T07:02:08Z</time>
      </trkpt>
      <trkpt lat="44.11251" lon="7.35309">
        <ele>2493.622</ele>
        <time>2020-06-28T07:02:24Z</time>
      </trkpt>
      <trkpt lat="44.1125" lon="7.35307">
        <ele>2494.405</ele>
        <time>2020-06-28T07:02:40Z</time>
      </trkpt>
      <trkpt lat="44.1125" lon="7.35307">
        <ele>2494.405</ele>
        <time>2020-06-28T07:02:56Z</time>
      </trkpt>
      <trkpt lat="44.1125" lon="7.35307">
        <ele>2494.405</ele>
        <time>2020-06-28T07:03:12Z</time>
      </trkpt>
      <trkpt lat="44.11257" lon="7.35312">
        <ele>2494.675</ele>
        <time>2020-06-28T07:03:28Z</time>
      </trkpt>
      <trkpt lat="44.11259" lon="7.35302">
        <ele>2497.82</ele>
        <time>2020-06-28T07:03:44Z</time>
      </trkpt>
      <trkpt lat="44.11258" lon="7.35289">
        <ele>2503.589</ele>
        <time>2020-06-28T07:04:00Z</time>
      </trkpt>
      <trkpt lat="44.11259" lon="7.35285">
        <ele>2504.634</ele>
        <time>2020-06-28T07:04:15Z</time>
      </trkpt>
      <trkpt lat="44.11262" lon="7.35283">
        <ele>2505.864</ele>
        <time>2020-06-28T07:04:31Z</time>
      </trkpt>
      <trkpt lat="44.11261" lon="7.35278">
        <ele>2506.301</ele>
        <time>2020-06-28T07:04:46Z</time>
      </trkpt>
      <trkpt lat="44.11262" lon="7.35276">
        <ele>2505.813</ele>
        <time>2020-06-28T07:05:02Z</time>
      </trkpt>
      <trkpt lat="44.11262" lon="7.35276">
        <ele>2505.813</ele>
        <time>2020-06-28T07:05:18Z</time>
      </trkpt>
      <trkpt lat="44.11262" lon="7.35273">
        <ele>2503.175</ele>
        <time>2020-06-28T07:05:34Z</time>
      </trkpt>
      <trkpt lat="44.11264" lon="7.35271">
        <ele>2501.268</ele>
        <time>2020-06-28T07:05:50Z</time>
      </trkpt>
      <trkpt lat="44.11267" lon="7.35261">
        <ele>2498.001</ele>
        <time>2020-06-28T07:06:05Z</time>
      </trkpt>
      <trkpt lat="44.11265" lon="7.35253">
        <ele>2492.451</ele>
        <time>2020-06-28T07:06:21Z</time>
      </trkpt>
      <trkpt lat="44.11263" lon="7.35249">
        <ele>2491.716</ele>
        <time>2020-06-28T07:06:37Z</time>
      </trkpt>
      <trkpt lat="44.1126" lon="7.35244">
        <ele>2489.361</ele>
        <time>2020-06-28T07:06:52Z</time>
      </trkpt>
      <trkpt lat="44.11262" lon="7.35238">
        <ele>2483.097</ele>
        <time>2020-06-28T07:07:08Z</time>
      </trkpt>
      <trkpt lat="44.11263" lon="7.35231">
        <ele>2483.1</ele>
        <time>2020-06-28T07:07:24Z</time>
      </trkpt>
      <trkpt lat="44.11272" lon="7.35231">
        <ele>2481.684</ele>
        <time>2020-06-28T07:07:39Z</time>
      </trkpt>
      <trkpt lat="44.11274" lon="7.35233">
        <ele>2481.231</ele>
        <time>2020-06-28T07:07:55Z</time>
      </trkpt>
      <trkpt lat="44.11274" lon="7.35233">
        <ele>2481.231</ele>
        <time>2020-06-28T07:08:10Z</time>
      </trkpt>
      <trkpt lat="44.1128" lon="7.35227">
        <ele>2475.036</ele>
        <time>2020-06-28T07:08:26Z</time>
      </trkpt>
      <trkpt lat="44.11278" lon="7.35221">
        <ele>2472.281</ele>
        <time>2020-06-28T07:08:41Z</time>
      </trkpt>
      <trkpt lat="44.11289" lon="7.35213">
        <ele>2464.854</ele>
        <time>2020-06-28T07:08:56Z</time>
      </trkpt>
      <trkpt lat="44.11289" lon="7.35212">
        <ele>2464.289</ele>
        <time>2020-06-28T07:09:11Z</time>
      </trkpt>
      <trkpt lat="44.11289" lon="7.35212">
        <ele>2464.289</ele>
        <time>2020-06-28T07:09:27Z</time>
      </trkpt>
      <trkpt lat="44.11282" lon="7.35203">
        <ele>2457.589</ele>
        <time>2020-06-28T07:09:42Z</time>
      </trkpt>
      <trkpt lat="44.11282" lon="7.35202">
        <ele>2456.568</ele>
        <time>2020-06-28T07:09:58Z</time>
      </trkpt>
      <trkpt lat="44.11286" lon="7.35193">
        <ele>2450.109</ele>
        <time>2020-06-28T07:10:13Z</time>
      </trkpt>
      <trkpt lat="44.11289" lon="7.35184">
        <ele>2437.223</ele>
        <time>2020-06-28T07:10:28Z</time>
      </trkpt>
      <trkpt lat="44.11291" lon="7.35174">
        <ele>2434.158</ele>
        <time>2020-06-28T07:10:44Z</time>
      </trkpt>
      <trkpt lat="44.11282" lon="7.35171">
        <ele>2433.275</ele>
        <time>2020-06-28T07:10:59Z</time>
      </trkpt>
      <trkpt lat="44.11281" lon="7.35161">
        <ele>2432.529</ele>
        <time>2020-06-28T07:11:14Z</time>
      </trkpt>
      <trkpt lat="44.11278" lon="7.35153">
        <ele>2431.105</ele>
        <time>2020-06-28T07:11:29Z</time>
      </trkpt>
      <trkpt lat="44.11276" lon="7.35148">
        <ele>2431.813</ele>
        <time>2020-06-28T07:11:45Z</time>
      </trkpt>
      <trkpt lat="44.11282" lon="7.35147">
        <ele>2431.84</ele>
        <time>2020-06-28T07:12:01Z</time>
      </trkpt>
      <trkpt lat="44.11282" lon="7.35147">
        <ele>2431.84</ele>
        <time>2020-06-28T07:12:17Z</time>
      </trkpt>
      <trkpt lat="44.11282" lon="7.35147">
        <ele>2431.84</ele>
        <time>2020-06-28T07:12:32Z</time>
      </trkpt>
      <trkpt lat="44.11283" lon="7.35145">
        <ele>2431.8</ele>
        <time>2020-06-28T07:12:48Z</time>
      </trkpt>
      <trkpt lat="44.11277" lon="7.35145">
        <ele>2431.596</ele>
        <time>2020-06-28T07:13:04Z</time>
      </trkpt>
      <trkpt lat="44.11283" lon="7.35139">
        <ele>2431.501</ele>
        <time>2020-06-28T07:13:20Z</time>
      </trkpt>
      <trkpt lat="44.1129" lon="7.35131">
        <ele>2424.597</ele>
        <time>2020-06-28T07:13:36Z</time>
      </trkpt>
      <trkpt lat="44.11297" lon="7.35131">
        <ele>2417.16</ele>
        <time>2020-06-28T07:13:52Z</time>
      </trkpt>
      <trkpt lat="44.11293" lon="7.35125">
        <ele>2414.009</ele>
        <time>2020-06-28T07:14:07Z</time>
      </trkpt>
      <trkpt lat="44.11282" lon="7.35118">
        <ele>2410.17</ele>
        <time>2020-06-28T07:14:22Z</time>
      </trkpt>
      <trkpt lat="44.11283" lon="7.35112">
        <ele>2400.76</ele>
        <time>2020-06-28T07:14:38Z</time>
      </trkpt>
      <trkpt lat="44.11287" lon="7.35109">
        <ele>2397.839</ele>
        <time>2020-06-28T07:14:53Z</time>
      </trkpt>
      <trkpt lat="44.1128" lon="7.35106">
        <ele>2393.779</ele>
        <time>2020-06-28T07:15:09Z</time>
      </trkpt>
      <trkpt lat="44.11289" lon="7.35099">
        <ele>2384.154</ele>
        <time>2020-06-28T07:15:24Z</time>
      </trkpt>
      <trkpt lat="44.11284" lon="7.35088">
        <ele>2377.962</ele>
        <time>2020-06-28T07:15:40Z</time>
      </trkpt>
      <trkpt lat="44.11291" lon="7.35082">
        <ele>2374.536</ele>
        <time>2020-06-28T07:15:55Z</time>
      </trkpt>
      <trkpt lat="44.1128" lon="7.35061">
        <ele>2374.35</ele>
        <time>2020-06-28T07:16:11Z</time>
      </trkpt>
      <trkpt lat="44.11272" lon="7.35053">
        <ele>2376.154</ele>
        <time>2020-06-28T07:16:27Z</time>
      </trkpt>
      <trkpt lat="44.1126" lon="7.35056">
        <ele>2380.106</ele>
        <time>2020-06-28T07:16:43Z</time>
      </trkpt>
      <trkpt lat="44.11249" lon="7.35053">
        <ele>2378.964</ele>
        <time>2020-06-28T07:16:59Z</time>
      </trkpt>
      <trkpt lat="44.11248" lon="7.35043">
        <ele>2375.462</ele>
        <time>2020-06-28T07:17:15Z</time>
      </trkpt>
      <trkpt lat="44.11248" lon="7.35043">
        <ele>2375.462</ele>
        <time>2020-06-28T07:17:30Z</time>
      </trkpt>
      <trkpt lat="44.11249" lon="7.3504">
        <ele>2375.114</ele>
        <time>2020-06-28T07:17:46Z</time>
      </trkpt>
      <trkpt lat="44.11258" lon="7.35029">
        <ele>2368.268</ele>
        <time>2020-06-28T07:18:02Z</time>
      </trkpt>
      <trkpt lat="44.11265" lon="7.35013">
        <ele>2367.608</ele>
        <time>2020-06-28T07:18:17Z</time>
      </trkpt>
      <trkpt lat="44.11273" lon="7.3501">
        <ele>2361.766</ele>
        <time>2020-06-28T07:18:33Z</time>
      </trkpt>
      <trkpt lat="44.11276" lon="7.35002">
        <ele>2359.952</ele>
        <time>2020-06-28T07:18:49Z</time>
      </trkpt>
      <trkpt lat="44.11287" lon="7.35001">
        <ele>2352.88</ele>
        <time>2020-06-28T07:19:05Z</time>
      </trkpt>
      <trkpt lat="44.11295" lon="7.34997">
        <ele>2351.471</ele>
        <time>2020-06-28T07:19:21Z</time>
      </trkpt>
      <trkpt lat="44.11295" lon="7.34995">
        <ele>2351.506</ele>
        <time>2020-06-28T07:19:37Z</time>
      </trkpt>
      <trkpt lat="44.11292" lon="7.34987">
        <ele>2348.837</ele>
        <time>2020-06-28T07:19:53Z</time>
      </trkpt>
      <trkpt lat="44.11302" lon="7.34985">
        <ele>2347.424</ele>
        <time>2020-06-28T07:20:08Z</time>
      </trkpt>
      <trkpt lat="44.11304" lon="7.34979">
        <ele>2346.839</ele>
        <time>2020-06-28T07:20:24Z</time>
      </trkpt>
      <trkpt lat="44.11299" lon="7.34965">
        <ele>2344.477</ele>
        <time>2020-06-28T07:20:40Z</time>
      </trkpt>
      <trkpt lat="44.11302" lon="7.34958">
        <ele>2339.749</ele>
        <time>2020-06-28T07:20:56Z</time>
      </trkpt>
      <trkpt lat="44.11302" lon="7.34953">
        <ele>2337.741</ele>
        <time>2020-06-28T07:21:12Z</time>
      </trkpt>
      <trkpt lat="44.11308" lon="7.34944">
        <ele>2334.098</ele>
        <time>2020-06-28T07:21:28Z</time>
      </trkpt>
      <trkpt lat="44.11309" lon="7.34929">
        <ele>2333.195</ele>
        <time>2020-06-28T07:21:44Z</time>
      </trkpt>
      <trkpt lat="44.11317" lon="7.3492">
        <ele>2329.838</ele>
        <time>2020-06-28T07:21:59Z</time>
      </trkpt>
      <trkpt lat="44.11322" lon="7.34927">
        <ele>2327.661</ele>
        <time>2020-06-28T07:22:15Z</time>
      </trkpt>
      <trkpt lat="44.11332" lon="7.34928">
        <ele>2327.423</ele>
        <time>2020-06-28T07:22:31Z</time>
      </trkpt>
      <trkpt lat="44.11333" lon="7.34914">
        <ele>2321.519</ele>
        <time>2020-06-28T07:22:47Z</time>
      </trkpt>
      <trkpt lat="44.1134" lon="7.34892">
        <ele>2319.318</ele>
        <time>2020-06-28T07:23:03Z</time>
      </trkpt>
      <trkpt lat="44.11343" lon="7.34878">
        <ele>2314.063</ele>
        <time>2020-06-28T07:23:18Z</time>
      </trkpt>
      <trkpt lat="44.11347" lon="7.34855">
        <ele>2313.925</ele>
        <time>2020-06-28T07:23:34Z</time>
      </trkpt>
      <trkpt lat="44.11354" lon="7.34838">
        <ele>2310.587</ele>
        <time>2020-06-28T07:23:49Z</time>
      </trkpt>
      <trkpt lat="44.11354" lon="7.3482">
        <ele>2305.905</ele>
        <time>2020-06-28T07:24:05Z</time>
      </trkpt>
      <trkpt lat="44.11354" lon="7.3481">
        <ele>2302.106</ele>
        <time>2020-06-28T07:24:20Z</time>
      </trkpt>
      <trkpt lat="44.11353" lon="7.34796">
        <ele>2296.968</ele>
        <time>2020-06-28T07:24:36Z</time>
      </trkpt>
      <trkpt lat="44.11352" lon="7.34787">
        <ele>2295.269</ele>
        <time>2020-06-28T07:24:52Z</time>
      </trkpt>
      <trkpt lat="44.11355" lon="7.34776">
        <ele>2293.569</ele>
        <time>2020-06-28T07:25:08Z</time>
      </trkpt>
      <trkpt lat="44.11359" lon="7.34771">
        <ele>2293.26</ele>
        <time>2020-06-28T07:25:23Z</time>
      </trkpt>
      <trkpt lat="44.11362" lon="7.34753">
        <ele>2293.434</ele>
        <time>2020-06-28T07:25:38Z</time>
      </trkpt>
      <trkpt lat="44.11362" lon="7.34752">
        <ele>2292.714</ele>
        <time>2020-06-28T07:25:54Z</time>
      </trkpt>
      <trkpt lat="44.11362" lon="7.34752">
        <ele>2292.714</ele>
        <time>2020-06-28T07:26:09Z</time>
      </trkpt>
      <trkpt lat="44.11361" lon="7.34748">
        <ele>2292.492</ele>
        <time>2020-06-28T07:26:25Z</time>
      </trkpt>
      <trkpt lat="44.11357" lon="7.34734">
        <ele>2290.551</ele>
        <time>2020-06-28T07:26:41Z</time>
      </trkpt>
      <trkpt lat="44.11364" lon="7.34718">
        <ele>2288.905</ele>
        <time>2020-06-28T07:26:57Z</time>
      </trkpt>
      <trkpt lat="44.11369" lon="7.34704">
        <ele>2288.932</ele>
        <time>2020-06-28T07:27:12Z</time>
      </trkpt>
      <trkpt lat="44.1137" lon="7.34702">
        <ele>2289.256</ele>
        <time>2020-06-28T07:27:28Z</time>
      </trkpt>
      <trkpt lat="44.11367" lon="7.34701">
        <ele>2287.629</ele>
        <time>2020-06-28T07:27:44Z</time>
      </trkpt>
      <trkpt lat="44.11368" lon="7.34701">
        <ele>2287.741</ele>
        <time>2020-06-28T07:27:59Z</time>
      </trkpt>
      <trkpt lat="44.11368" lon="7.347">
        <ele>2288.103</ele>
        <time>2020-06-28T07:28:15Z</time>
      </trkpt>
      <trkpt lat="44.11369" lon="7.347">
        <ele>2289.177</ele>
        <time>2020-06-28T07:28:30Z</time>
      </trkpt>
      <trkpt lat="44.11369" lon="7.347">
        <ele>2289.177</ele>
        <time>2020-06-28T07:28:46Z</time>
      </trkpt>
      <trkpt lat="44.1137" lon="7.347">
        <ele>2287.921</ele>
        <time>2020-06-28T07:29:01Z</time>
      </trkpt>
      <trkpt lat="44.11386" lon="7.34684">
        <ele>2283.022</ele>
        <time>2020-06-28T07:29:17Z</time>
      </trkpt>
      <trkpt lat="44.11399" lon="7.34668">
        <ele>2280.241</ele>
        <time>2020-06-28T07:29:33Z</time>
      </trkpt>
      <trkpt lat="44.11412" lon="7.34667">
        <ele>2276.023</ele>
        <time>2020-06-28T07:29:48Z</time>
      </trkpt>
      <trkpt lat="44.11409" lon="7.34661">
        <ele>2276.006</ele>
        <time>2020-06-28T07:30:04Z</time>
      </trkpt>
      <trkpt lat="44.11413" lon="7.34658">
        <ele>2275.405</ele>
        <time>2020-06-28T07:30:19Z</time>
      </trkpt>
      <trkpt lat="44.1141" lon="7.34658">
        <ele>2274.353</ele>
        <time>2020-06-28T07:30:34Z</time>
      </trkpt>
      <trkpt lat="44.11409" lon="7.34659">
        <ele>2273.642</ele>
        <time>2020-06-28T07:30:50Z</time>
      </trkpt>
      <trkpt lat="44.11411" lon="7.34654">
        <ele>2271.949</ele>
        <time>2020-06-28T07:31:05Z</time>
      </trkpt>
      <trkpt lat="44.11409" lon="7.34651">
        <ele>2271.766</ele>
        <time>2020-06-28T07:31:21Z</time>
      </trkpt>
      <trkpt lat="44.11392" lon="7.34636">
        <ele>2268.414</ele>
        <time>2020-06-28T07:31:37Z</time>
      </trkpt>
      <trkpt lat="44.11392" lon="7.34622">
        <ele>2269.066</ele>
        <time>2020-06-28T07:31:52Z</time>
      </trkpt>
      <trkpt lat="44.11388" lon="7.34594">
        <ele>2270.041</ele>
        <time>2020-06-28T07:32:08Z</time>
      </trkpt>
      <trkpt lat="44.11407" lon="7.3457">
        <ele>2269.507</ele>
        <time>2020-06-28T07:32:23Z</time>
      </trkpt>
      <trkpt lat="44.11417" lon="7.34555">
        <ele>2270.372</ele>
        <time>2020-06-28T07:32:38Z</time>
      </trkpt>
      <trkpt lat="44.11424" lon="7.34535">
        <ele>2270.45</ele>
        <time>2020-06-28T07:32:54Z</time>
      </trkpt>
      <trkpt lat="44.11433" lon="7.34516">
        <ele>2270.03</ele>
        <time>2020-06-28T07:33:09Z</time>
      </trkpt>
      <trkpt lat="44.11439" lon="7.34496">
        <ele>2268.54</ele>
        <time>2020-06-28T07:33:25Z</time>
      </trkpt>
      <trkpt lat="44.11441" lon="7.34494">
        <ele>2268.326</ele>
        <time>2020-06-28T07:33:41Z</time>
      </trkpt>
      <trkpt lat="44.11441" lon="7.34493">
        <ele>2267.511</ele>
        <time>2020-06-28T07:33:56Z</time>
      </trkpt>
      <trkpt lat="44.11451" lon="7.34486">
        <ele>2264.733</ele>
        <time>2020-06-28T07:34:11Z</time>
      </trkpt>
      <trkpt lat="44.1146" lon="7.34496">
        <ele>2264.53</ele>
        <time>2020-06-28T07:34:27Z</time>
      </trkpt>
      <trkpt lat="44.11466" lon="7.34481">
        <ele>2260.454</ele>
        <time>2020-06-28T07:34:43Z</time>
      </trkpt>
      <trkpt lat="44.11472" lon="7.34471">
        <ele>2255.868</ele>
        <time>2020-06-28T07:34:59Z</time>
      </trkpt>
      <trkpt lat="44.11476" lon="7.34453">
        <ele>2251.761</ele>
        <time>2020-06-28T07:35:15Z</time>
      </trkpt>
      <trkpt lat="44.1148" lon="7.34436">
        <ele>2247.59</ele>
        <time>2020-06-28T07:35:30Z</time>
      </trkpt>
      <trkpt lat="44.11489" lon="7.34426">
        <ele>2243.375</ele>
        <time>2020-06-28T07:35:46Z</time>
      </trkpt>
      <trkpt lat="44.11491" lon="7.34413">
        <ele>2242.554</ele>
        <time>2020-06-28T07:36:01Z</time>
      </trkpt>
      <trkpt lat="44.1149" lon="7.34398">
        <ele>2237.267</ele>
        <time>2020-06-28T07:36:16Z</time>
      </trkpt>
      <trkpt lat="44.11491" lon="7.34379">
        <ele>2236.644</ele>
        <time>2020-06-28T07:36:32Z</time>
      </trkpt>
      <trkpt lat="44.11505" lon="7.34368">
        <ele>2233.402</ele>
        <time>2020-06-28T07:36:48Z</time>
      </trkpt>
      <trkpt lat="44.11507" lon="7.34353">
        <ele>2231.725</ele>
        <time>2020-06-28T07:37:03Z</time>
      </trkpt>
      <trkpt lat="44.1152" lon="7.34339">
        <ele>2229.664</ele>
        <time>2020-06-28T07:37:19Z</time>
      </trkpt>
      <trkpt lat="44.11537" lon="7.34328">
        <ele>2226.419</ele>
        <time>2020-06-28T07:37:35Z</time>
      </trkpt>
      <trkpt lat="44.11547" lon="7.34311">
        <ele>2225.124</ele>
        <time>2020-06-28T07:37:50Z</time>
      </trkpt>
      <trkpt lat="44.11549" lon="7.34299">
        <ele>2220.628</ele>
        <time>2020-06-28T07:38:06Z</time>
      </trkpt>
      <trkpt lat="44.11551" lon="7.34294">
        <ele>2219.427</ele>
        <time>2020-06-28T07:38:21Z</time>
      </trkpt>
      <trkpt lat="44.11555" lon="7.34287">
        <ele>2218.147</ele>
        <time>2020-06-28T07:38:37Z</time>
      </trkpt>
      <trkpt lat="44.11559" lon="7.34283">
        <ele>2216.563</ele>
        <time>2020-06-28T07:38:53Z</time>
      </trkpt>
      <trkpt lat="44.11568" lon="7.34265">
        <ele>2213.308</ele>
        <time>2020-06-28T07:39:09Z</time>
      </trkpt>
      <trkpt lat="44.11568" lon="7.34264">
        <ele>2212.878</ele>
        <time>2020-06-28T07:39:24Z</time>
      </trkpt>
      <trkpt lat="44.11568" lon="7.34258">
        <ele>2213.209</ele>
        <time>2020-06-28T07:39:40Z</time>
      </trkpt>
      <trkpt lat="44.11576" lon="7.34235">
        <ele>2210.742</ele>
        <time>2020-06-28T07:39:56Z</time>
      </trkpt>
      <trkpt lat="44.1158" lon="7.34221">
        <ele>2207.028</ele>
        <time>2020-06-28T07:40:12Z</time>
      </trkpt>
      <trkpt lat="44.11583" lon="7.34214">
        <ele>2209.789</ele>
        <time>2020-06-28T07:40:28Z</time>
      </trkpt>
      <trkpt lat="44.11591" lon="7.34203">
        <ele>2203.827</ele>
        <time>2020-06-28T07:40:43Z</time>
      </trkpt>
      <trkpt lat="44.11599" lon="7.34195">
        <ele>2200.095</ele>
        <time>2020-06-28T07:40:59Z</time>
      </trkpt>
      <trkpt lat="44.11603" lon="7.34191">
        <ele>2199.306</ele>
        <time>2020-06-28T07:41:15Z</time>
      </trkpt>
      <trkpt lat="44.11606" lon="7.34185">
        <ele>2195.093</ele>
        <time>2020-06-28T07:41:31Z</time>
      </trkpt>
      <trkpt lat="44.11609" lon="7.34171">
        <ele>2194.702</ele>
        <time>2020-06-28T07:41:47Z</time>
      </trkpt>
      <trkpt lat="44.11609" lon="7.34163">
        <ele>2195.534</ele>
        <time>2020-06-28T07:42:02Z</time>
      </trkpt>
      <trkpt lat="44.11616" lon="7.34143">
        <ele>2192.285</ele>
        <time>2020-06-28T07:42:17Z</time>
      </trkpt>
      <trkpt lat="44.11618" lon="7.34143">
        <ele>2189.562</ele>
        <time>2020-06-28T07:42:33Z</time>
      </trkpt>
      <trkpt lat="44.11613" lon="7.34129">
        <ele>2190.118</ele>
        <time>2020-06-28T07:42:48Z</time>
      </trkpt>
      <trkpt lat="44.11606" lon="7.34119">
        <ele>2192.992</ele>
        <time>2020-06-28T07:43:04Z</time>
      </trkpt>
      <trkpt lat="44.11614" lon="7.34109">
        <ele>2191.185</ele>
        <time>2020-06-28T07:43:19Z</time>
      </trkpt>
      <trkpt lat="44.11615" lon="7.34092">
        <ele>2188.734</ele>
        <time>2020-06-28T07:43:35Z</time>
      </trkpt>
      <trkpt lat="44.11615" lon="7.34074">
        <ele>2186.624</ele>
        <time>2020-06-28T07:43:50Z</time>
      </trkpt>
      <trkpt lat="44.11615" lon="7.34073">
        <ele>2185.735</ele>
        <time>2020-06-28T07:44:06Z</time>
      </trkpt>
      <trkpt lat="44.11615" lon="7.34073">
        <ele>2185.735</ele>
        <time>2020-06-28T07:44:22Z</time>
      </trkpt>
      <trkpt lat="44.11615" lon="7.34073">
        <ele>2185.735</ele>
        <time>2020-06-28T07:44:37Z</time>
      </trkpt>
      <trkpt lat="44.11615" lon="7.34076">
        <ele>2186.818</ele>
        <time>2020-06-28T07:44:52Z</time>
      </trkpt>
      <trkpt lat="44.11615" lon="7.34076">
        <ele>2186.818</ele>
        <time>2020-06-28T07:45:08Z</time>
      </trkpt>
      <trkpt lat="44.11615" lon="7.34076">
        <ele>2186.818</ele>
        <time>2020-06-28T07:45:24Z</time>
      </trkpt>
      <trkpt lat="44.11614" lon="7.34077">
        <ele>2186.778</ele>
        <time>2020-06-28T07:45:40Z</time>
      </trkpt>
      <trkpt lat="44.11612" lon="7.34079">
        <ele>2186.718</ele>
        <time>2020-06-28T07:45:56Z</time>
      </trkpt>
      <trkpt lat="44.11612" lon="7.34079">
        <ele>2186.718</ele>
        <time>2020-06-28T07:46:11Z</time>
      </trkpt>
      <trkpt lat="44.1161" lon="7.34073">
        <ele>2193.928</ele>
        <time>2020-06-28T07:46:27Z</time>
      </trkpt>
      <trkpt lat="44.11609" lon="7.34073">
        <ele>2195.029</ele>
        <time>2020-06-28T07:46:42Z</time>
      </trkpt>
      <trkpt lat="44.11609" lon="7.34073">
        <ele>2195.029</ele>
        <time>2020-06-28T07:46:57Z</time>
      </trkpt>
      <trkpt lat="44.11612" lon="7.34074">
        <ele>2196.265</ele>
        <time>2020-06-28T07:47:12Z</time>
      </trkpt>
      <trkpt lat="44.11612" lon="7.34074">
        <ele>2196.265</ele>
        <time>2020-06-28T07:47:28Z</time>
      </trkpt>
      <trkpt lat="44.11612" lon="7.34074">
        <ele>2196.265</ele>
        <time>2020-06-28T07:47:44Z</time>
      </trkpt>
      <trkpt lat="44.11612" lon="7.34074">
        <ele>2196.265</ele>
        <time>2020-06-28T07:48:00Z</time>
      </trkpt>
      <trkpt lat="44.11612" lon="7.34074">
        <ele>2196.265</ele>
        <time>2020-06-28T07:48:15Z</time>
      </trkpt>
      <trkpt lat="44.11612" lon="7.34074">
        <ele>2196.265</ele>
        <time>2020-06-28T07:48:31Z</time>
      </trkpt>
      <trkpt lat="44.11612" lon="7.34074">
        <ele>2196.265</ele>
        <time>2020-06-28T07:48:47Z</time>
      </trkpt>
      <trkpt lat="44.11612" lon="7.34074">
        <ele>2196.265</ele>
        <time>2020-06-28T07:49:03Z</time>
      </trkpt>
      <trkpt lat="44.11612" lon="7.34074">
        <ele>2196.265</ele>
        <time>2020-06-28T07:49:19Z</time>
      </trkpt>
      <trkpt lat="44.11612" lon="7.34074">
        <ele>2196.265</ele>
        <time>2020-06-28T07:49:34Z</time>
      </trkpt>
      <trkpt lat="44.11612" lon="7.34074">
        <ele>2196.265</ele>
        <time>2020-06-28T07:49:50Z</time>
      </trkpt>
      <trkpt lat="44.11612" lon="7.34074">
        <ele>2196.265</ele>
        <time>2020-06-28T07:50:06Z</time>
      </trkpt>
      <trkpt lat="44.11612" lon="7.34074">
        <ele>2196.265</ele>
        <time>2020-06-28T07:50:21Z</time>
      </trkpt>
      <trkpt lat="44.11612" lon="7.34074">
        <ele>2196.265</ele>
        <time>2020-06-28T07:50:37Z</time>
      </trkpt>
      <trkpt lat="44.11612" lon="7.34074">
        <ele>2196.265</ele>
        <time>2020-06-28T07:50:53Z</time>
      </trkpt>
      <trkpt lat="44.11612" lon="7.34074">
        <ele>2196.265</ele>
        <time>2020-06-28T07:51:08Z</time>
      </trkpt>
      <trkpt lat="44.11612" lon="7.34074">
        <ele>2196.265</ele>
        <time>2020-06-28T07:51:24Z</time>
      </trkpt>
      <trkpt lat="44.11612" lon="7.34074">
        <ele>2196.265</ele>
        <time>2020-06-28T07:51:40Z</time>
      </trkpt>
      <trkpt lat="44.11614" lon="7.34073">
        <ele>2196.396</ele>
        <time>2020-06-28T07:51:55Z</time>
      </trkpt>
      <trkpt lat="44.11611" lon="7.34075">
        <ele>2196.695</ele>
        <time>2020-06-28T07:52:10Z</time>
      </trkpt>
      <trkpt lat="44.11614" lon="7.34074">
        <ele>2196.548</ele>
        <time>2020-06-28T07:52:25Z</time>
      </trkpt>
      <trkpt lat="44.11615" lon="7.34073">
        <ele>2196.523</ele>
        <time>2020-06-28T07:52:40Z</time>
      </trkpt>
      <trkpt lat="44.11617" lon="7.34073">
        <ele>2196.317</ele>
        <time>2020-06-28T07:52:56Z</time>
      </trkpt>
      <trkpt lat="44.11616" lon="7.34075">
        <ele>2198.521</ele>
        <time>2020-06-28T07:53:11Z</time>
      </trkpt>
      <trkpt lat="44.11616" lon="7.34075">
        <ele>2198.377</ele>
        <time>2020-06-28T07:53:27Z</time>
      </trkpt>
      <trkpt lat="44.11616" lon="7.34075">
        <ele>2198.377</ele>
        <time>2020-06-28T07:53:43Z</time>
      </trkpt>
      <trkpt lat="44.11613" lon="7.34076">
        <ele>2196.95</ele>
        <time>2020-06-28T07:53:58Z</time>
      </trkpt>
      <trkpt lat="44.11614" lon="7.34075">
        <ele>2196.424</ele>
        <time>2020-06-28T07:54:14Z</time>
      </trkpt>
      <trkpt lat="44.11615" lon="7.34075">
        <ele>2197.206</ele>
        <time>2020-06-28T07:54:30Z</time>
      </trkpt>
      <trkpt lat="44.11614" lon="7.34073">
        <ele>2197.913</ele>
        <time>2020-06-28T07:54:46Z</time>
      </trkpt>
      <trkpt lat="44.11614" lon="7.34073">
        <ele>2197.913</ele>
        <time>2020-06-28T07:55:01Z</time>
      </trkpt>
      <trkpt lat="44.1162" lon="7.34077">
        <ele>2197.146</ele>
        <time>2020-06-28T07:55:17Z</time>
      </trkpt>
      <trkpt lat="44.1162" lon="7.34077">
        <ele>2197.146</ele>
        <time>2020-06-28T07:55:32Z</time>
      </trkpt>
      <trkpt lat="44.1162" lon="7.34077">
        <ele>2197.146</ele>
        <time>2020-06-28T07:55:47Z</time>
      </trkpt>
      <trkpt lat="44.1162" lon="7.34077">
        <ele>2197.146</ele>
        <time>2020-06-28T07:56:03Z</time>
      </trkpt>
      <trkpt lat="44.1162" lon="7.34077">
        <ele>2197.146</ele>
        <time>2020-06-28T07:56:18Z</time>
      </trkpt>
      <trkpt lat="44.1162" lon="7.34077">
        <ele>2197.146</ele>
        <time>2020-06-28T07:56:33Z</time>
      </trkpt>
      <trkpt lat="44.1162" lon="7.34077">
        <ele>2197.146</ele>
        <time>2020-06-28T07:56:49Z</time>
      </trkpt>
      <trkpt lat="44.1162" lon="7.34077">
        <ele>2197.146</ele>
        <time>2020-06-28T07:57:04Z</time>
      </trkpt>
      <trkpt lat="44.1162" lon="7.34077">
        <ele>2197.146</ele>
        <time>2020-06-28T07:57:20Z</time>
      </trkpt>
      <trkpt lat="44.1162" lon="7.34077">
        <ele>2197.146</ele>
        <time>2020-06-28T07:57:36Z</time>
      </trkpt>
      <trkpt lat="44.1162" lon="7.34077">
        <ele>2197.146</ele>
        <time>2020-06-28T07:57:52Z</time>
      </trkpt>
      <trkpt lat="44.1162" lon="7.34077">
        <ele>2197.146</ele>
        <time>2020-06-28T07:58:07Z</time>
      </trkpt>
      <trkpt lat="44.1162" lon="7.34077">
        <ele>2197.146</ele>
        <time>2020-06-28T07:58:23Z</time>
      </trkpt>
      <trkpt lat="44.1162" lon="7.34077">
        <ele>2197.146</ele>
        <time>2020-06-28T07:58:39Z</time>
      </trkpt>
      <trkpt lat="44.11619" lon="7.34077">
        <ele>2198.092</ele>
        <time>2020-06-28T07:58:55Z</time>
      </trkpt>
      <trkpt lat="44.11619" lon="7.34077">
        <ele>2198.092</ele>
        <time>2020-06-28T07:59:11Z</time>
      </trkpt>
      <trkpt lat="44.11619" lon="7.34077">
        <ele>2198.092</ele>
        <time>2020-06-28T07:59:27Z</time>
      </trkpt>
      <trkpt lat="44.11619" lon="7.34077">
        <ele>2198.092</ele>
        <time>2020-06-28T07:59:42Z</time>
      </trkpt>
      <trkpt lat="44.11619" lon="7.34077">
        <ele>2198.092</ele>
        <time>2020-06-28T07:59:57Z</time>
      </trkpt>
      <trkpt lat="44.11619" lon="7.34077">
        <ele>2198.092</ele>
        <time>2020-06-28T08:00:13Z</time>
      </trkpt>
      <trkpt lat="44.11619" lon="7.34077">
        <ele>2198.092</ele>
        <time>2020-06-28T08:00:28Z</time>
      </trkpt>
      <trkpt lat="44.11619" lon="7.34077">
        <ele>2198.092</ele>
        <time>2020-06-28T08:00:44Z</time>
      </trkpt>
      <trkpt lat="44.11619" lon="7.34077">
        <ele>2198.092</ele>
        <time>2020-06-28T08:00:59Z</time>
      </trkpt>
      <trkpt lat="44.11619" lon="7.34077">
        <ele>2198.092</ele>
        <time>2020-06-28T08:01:15Z</time>
      </trkpt>
      <trkpt lat="44.11617" lon="7.34081">
        <ele>2198.756</ele>
        <time>2020-06-28T08:01:31Z</time>
      </trkpt>
      <trkpt lat="44.11613" lon="7.34079">
        <ele>2199.841</ele>
        <time>2020-06-28T08:01:47Z</time>
      </trkpt>
      <trkpt lat="44.11616" lon="7.34079">
        <ele>2198.207</ele>
        <time>2020-06-28T08:02:02Z</time>
      </trkpt>
      <trkpt lat="44.11618" lon="7.34079">
        <ele>2197.829</ele>
        <time>2020-06-28T08:02:18Z</time>
      </trkpt>
      <trkpt lat="44.11627" lon="7.34074">
        <ele>2194.541</ele>
        <time>2020-06-28T08:02:33Z</time>
      </trkpt>
      <trkpt lat="44.11628" lon="7.34073">
        <ele>2194.741</ele>
        <time>2020-06-28T08:02:48Z</time>
      </trkpt>
      <trkpt lat="44.11632" lon="7.34075">
        <ele>2193.654</ele>
        <time>2020-06-28T08:03:04Z</time>
      </trkpt>
      <trkpt lat="44.11618" lon="7.3408">
        <ele>2190.854</ele>
        <time>2020-06-28T08:03:20Z</time>
      </trkpt>
      <trkpt lat="44.11611" lon="7.341">
        <ele>2199.285</ele>
        <time>2020-06-28T08:03:35Z</time>
      </trkpt>
      <trkpt lat="44.11634" lon="7.34096">
        <ele>2192.707</ele>
        <time>2020-06-28T08:03:51Z</time>
      </trkpt>
      <trkpt lat="44.11646" lon="7.34081">
        <ele>2190.081</ele>
        <time>2020-06-28T08:04:07Z</time>
      </trkpt>
      <trkpt lat="44.11662" lon="7.34068">
        <ele>2193.704</ele>
        <time>2020-06-28T08:04:22Z</time>
      </trkpt>
      <trkpt lat="44.11664" lon="7.34045">
        <ele>2194.412</ele>
        <time>2020-06-28T08:04:38Z</time>
      </trkpt>
      <trkpt lat="44.11665" lon="7.34034">
        <ele>2195.945</ele>
        <time>2020-06-28T08:04:53Z</time>
      </trkpt>
      <trkpt lat="44.11676" lon="7.3402">
        <ele>2194.806</ele>
        <time>2020-06-28T08:05:09Z</time>
      </trkpt>
      <trkpt lat="44.11682" lon="7.34001">
        <ele>2199.006</ele>
        <time>2020-06-28T08:05:24Z</time>
      </trkpt>
      <trkpt lat="44.11693" lon="7.33982">
        <ele>2199.898</ele>
        <time>2020-06-28T08:05:40Z</time>
      </trkpt>
      <trkpt lat="44.117" lon="7.33958">
        <ele>2200.002</ele>
        <time>2020-06-28T08:05:56Z</time>
      </trkpt>
      <trkpt lat="44.11697" lon="7.33947">
        <ele>2199.355</ele>
        <time>2020-06-28T08:06:11Z</time>
      </trkpt>
      <trkpt lat="44.11696" lon="7.33927">
        <ele>2196.879</ele>
        <time>2020-06-28T08:06:27Z</time>
      </trkpt>
      <trkpt lat="44.11706" lon="7.33912">
        <ele>2195.249</ele>
        <time>2020-06-28T08:06:43Z</time>
      </trkpt>
      <trkpt lat="44.11714" lon="7.33893">
        <ele>2195.864</ele>
        <time>2020-06-28T08:06:59Z</time>
      </trkpt>
      <trkpt lat="44.1172" lon="7.33885">
        <ele>2190.762</ele>
        <time>2020-06-28T08:07:15Z</time>
      </trkpt>
      <trkpt lat="44.11727" lon="7.33877">
        <ele>2190.728</ele>
        <time>2020-06-28T08:07:31Z</time>
      </trkpt>
      <trkpt lat="44.11729" lon="7.33868">
        <ele>2190.707</ele>
        <time>2020-06-28T08:07:46Z</time>
      </trkpt>
      <trkpt lat="44.11731" lon="7.33863">
        <ele>2190.13</ele>
        <time>2020-06-28T08:08:01Z</time>
      </trkpt>
      <trkpt lat="44.11736" lon="7.33855">
        <ele>2186.863</ele>
        <time>2020-06-28T08:08:17Z</time>
      </trkpt>
      <trkpt lat="44.11736" lon="7.33855">
        <ele>2186.863</ele>
        <time>2020-06-28T08:08:33Z</time>
      </trkpt>
      <trkpt lat="44.11736" lon="7.33855">
        <ele>2186.863</ele>
        <time>2020-06-28T08:08:48Z</time>
      </trkpt>
      <trkpt lat="44.11736" lon="7.33855">
        <ele>2186.863</ele>
        <time>2020-06-28T08:09:03Z</time>
      </trkpt>
      <trkpt lat="44.11738" lon="7.33851">
        <ele>2186.443</ele>
        <time>2020-06-28T08:09:19Z</time>
      </trkpt>
      <trkpt lat="44.11751" lon="7.33852">
        <ele>2184.653</ele>
        <time>2020-06-28T08:09:35Z</time>
      </trkpt>
      <trkpt lat="44.11756" lon="7.33841">
        <ele>2179.386</ele>
        <time>2020-06-28T08:09:51Z</time>
      </trkpt>
      <trkpt lat="44.11762" lon="7.33837">
        <ele>2174.922</ele>
        <time>2020-06-28T08:10:07Z</time>
      </trkpt>
      <trkpt lat="44.11767" lon="7.33833">
        <ele>2165.395</ele>
        <time>2020-06-28T08:10:22Z</time>
      </trkpt>
      <trkpt lat="44.11765" lon="7.33823">
        <ele>2164.343</ele>
        <time>2020-06-28T08:10:38Z</time>
      </trkpt>
      <trkpt lat="44.11767" lon="7.3381">
        <ele>2168.16</ele>
        <time>2020-06-28T08:10:53Z</time>
      </trkpt>
      <trkpt lat="44.11775" lon="7.33806">
        <ele>2165.156</ele>
        <time>2020-06-28T08:11:08Z</time>
      </trkpt>
      <trkpt lat="44.11786" lon="7.33799">
        <ele>2163.29</ele>
        <time>2020-06-28T08:11:24Z</time>
      </trkpt>
      <trkpt lat="44.11793" lon="7.33795">
        <ele>2160.451</ele>
        <time>2020-06-28T08:11:40Z</time>
      </trkpt>
      <trkpt lat="44.1181" lon="7.33787">
        <ele>2156.67</ele>
        <time>2020-06-28T08:11:56Z</time>
      </trkpt>
      <trkpt lat="44.1182" lon="7.33768">
        <ele>2155.106</ele>
        <time>2020-06-28T08:12:11Z</time>
      </trkpt>
      <trkpt lat="44.11836" lon="7.33754">
        <ele>2155.441</ele>
        <time>2020-06-28T08:12:27Z</time>
      </trkpt>
      <trkpt lat="44.11844" lon="7.33738">
        <ele>2155.423</ele>
        <time>2020-06-28T08:12:43Z</time>
      </trkpt>
      <trkpt lat="44.11851" lon="7.33729">
        <ele>2153.772</ele>
        <time>2020-06-28T08:12:59Z</time>
      </trkpt>
      <trkpt lat="44.11857" lon="7.33719">
        <ele>2155.634</ele>
        <time>2020-06-28T08:13:15Z</time>
      </trkpt>
      <trkpt lat="44.11866" lon="7.33712">
        <ele>2154.994</ele>
        <time>2020-06-28T08:13:30Z</time>
      </trkpt>
      <trkpt lat="44.11873" lon="7.33702">
        <ele>2153.396</ele>
        <time>2020-06-28T08:13:46Z</time>
      </trkpt>
      <trkpt lat="44.11874" lon="7.33691">
        <ele>2153.156</ele>
        <time>2020-06-28T08:14:01Z</time>
      </trkpt>
      <trkpt lat="44.11877" lon="7.33685">
        <ele>2150.98</ele>
        <time>2020-06-28T08:14:16Z</time>
      </trkpt>
      <trkpt lat="44.11881" lon="7.33672">
        <ele>2148.213</ele>
        <time>2020-06-28T08:14:32Z</time>
      </trkpt>
      <trkpt lat="44.11883" lon="7.33668">
        <ele>2148.14</ele>
        <time>2020-06-28T08:14:48Z</time>
      </trkpt>
      <trkpt lat="44.11882" lon="7.33659">
        <ele>2146.957</ele>
        <time>2020-06-28T08:15:04Z</time>
      </trkpt>
      <trkpt lat="44.11886" lon="7.33642">
        <ele>2147.098</ele>
        <time>2020-06-28T08:15:20Z</time>
      </trkpt>
      <trkpt lat="44.11887" lon="7.33637">
        <ele>2145.318</ele>
        <time>2020-06-28T08:15:35Z</time>
      </trkpt>
      <trkpt lat="44.11887" lon="7.33635">
        <ele>2146.389</ele>
        <time>2020-06-28T08:15:50Z</time>
      </trkpt>
      <trkpt lat="44.11885" lon="7.33631">
        <ele>2150.564</ele>
        <time>2020-06-28T08:16:06Z</time>
      </trkpt>
      <trkpt lat="44.11883" lon="7.33618">
        <ele>2148.721</ele>
        <time>2020-06-28T08:16:21Z</time>
      </trkpt>
      <trkpt lat="44.11886" lon="7.33613">
        <ele>2149.067</ele>
        <time>2020-06-28T08:16:37Z</time>
      </trkpt>
      <trkpt lat="44.11894" lon="7.33608">
        <ele>2149.941</ele>
        <time>2020-06-28T08:16:53Z</time>
      </trkpt>
      <trkpt lat="44.119" lon="7.33594">
        <ele>2143.453</ele>
        <time>2020-06-28T08:17:09Z</time>
      </trkpt>
      <trkpt lat="44.11897" lon="7.33585">
        <ele>2143.466</ele>
        <time>2020-06-28T08:17:25Z</time>
      </trkpt>
      <trkpt lat="44.11903" lon="7.33582">
        <ele>2143.976</ele>
        <time>2020-06-28T08:17:40Z</time>
      </trkpt>
      <trkpt lat="44.11907" lon="7.33572">
        <ele>2144.113</ele>
        <time>2020-06-28T08:17:55Z</time>
      </trkpt>
      <trkpt lat="44.11917" lon="7.33557">
        <ele>2140.662</ele>
        <time>2020-06-28T08:18:10Z</time>
      </trkpt>
      <trkpt lat="44.11921" lon="7.33546">
        <ele>2140.886</ele>
        <time>2020-06-28T08:18:26Z</time>
      </trkpt>
      <trkpt lat="44.11921" lon="7.33546">
        <ele>2140.886</ele>
        <time>2020-06-28T08:18:41Z</time>
      </trkpt>
      <trkpt lat="44.11921" lon="7.33546">
        <ele>2140.886</ele>
        <time>2020-06-28T08:18:57Z</time>
      </trkpt>
      <trkpt lat="44.11921" lon="7.33546">
        <ele>2140.886</ele>
        <time>2020-06-28T08:19:13Z</time>
      </trkpt>
      <trkpt lat="44.11921" lon="7.33545">
        <ele>2140.953</ele>
        <time>2020-06-28T08:19:29Z</time>
      </trkpt>
      <trkpt lat="44.11928" lon="7.33528">
        <ele>2137.417</ele>
        <time>2020-06-28T08:19:44Z</time>
      </trkpt>
      <trkpt lat="44.11932" lon="7.33529">
        <ele>2136.976</ele>
        <time>2020-06-28T08:20:00Z</time>
      </trkpt>
      <trkpt lat="44.11941" lon="7.33515">
        <ele>2136.396</ele>
        <time>2020-06-28T08:20:15Z</time>
      </trkpt>
      <trkpt lat="44.11956" lon="7.33501">
        <ele>2134.83</ele>
        <time>2020-06-28T08:20:31Z</time>
      </trkpt>
      <trkpt lat="44.11965" lon="7.3351">
        <ele>2130.215</ele>
        <time>2020-06-28T08:20:47Z</time>
      </trkpt>
      <trkpt lat="44.11972" lon="7.33514">
        <ele>2131.343</ele>
        <time>2020-06-28T08:21:02Z</time>
      </trkpt>
      <trkpt lat="44.11979" lon="7.33505">
        <ele>2132.207</ele>
        <time>2020-06-28T08:21:17Z</time>
      </trkpt>
      <trkpt lat="44.11987" lon="7.33505">
        <ele>2132.424</ele>
        <time>2020-06-28T08:21:33Z</time>
      </trkpt>
      <trkpt lat="44.12" lon="7.33507">
        <ele>2134.899</ele>
        <time>2020-06-28T08:21:49Z</time>
      </trkpt>
      <trkpt lat="44.12013" lon="7.33513">
        <ele>2131.911</ele>
        <time>2020-06-28T08:22:04Z</time>
      </trkpt>
      <trkpt lat="44.12016" lon="7.33511">
        <ele>2130.112</ele>
        <time>2020-06-28T08:22:20Z</time>
      </trkpt>
      <trkpt lat="44.12029" lon="7.3352">
        <ele>2127.062</ele>
        <time>2020-06-28T08:22:36Z</time>
      </trkpt>
      <trkpt lat="44.12042" lon="7.33519">
        <ele>2124.932</ele>
        <time>2020-06-28T08:22:51Z</time>
      </trkpt>
      <trkpt lat="44.12057" lon="7.3351">
        <ele>2124.847</ele>
        <time>2020-06-28T08:23:07Z</time>
      </trkpt>
      <trkpt lat="44.12067" lon="7.33511">
        <ele>2125.476</ele>
        <time>2020-06-28T08:23:23Z</time>
      </trkpt>
      <trkpt lat="44.12073" lon="7.33513">
        <ele>2123.336</ele>
        <time>2020-06-28T08:23:38Z</time>
      </trkpt>
      <trkpt lat="44.12085" lon="7.33513">
        <ele>2125.643</ele>
        <time>2020-06-28T08:23:53Z</time>
      </trkpt>
      <trkpt lat="44.12083" lon="7.3351">
        <ele>2126.251</ele>
        <time>2020-06-28T08:24:09Z</time>
      </trkpt>
      <trkpt lat="44.12084" lon="7.33509">
        <ele>2126.68</ele>
        <time>2020-06-28T08:24:24Z</time>
      </trkpt>
      <trkpt lat="44.12084" lon="7.33509">
        <ele>2126.68</ele>
        <time>2020-06-28T08:24:40Z</time>
      </trkpt>
      <trkpt lat="44.12084" lon="7.33509">
        <ele>2126.68</ele>
        <time>2020-06-28T08:24:56Z</time>
      </trkpt>
      <trkpt lat="44.12085" lon="7.33508">
        <ele>2126.217</ele>
        <time>2020-06-28T08:25:11Z</time>
      </trkpt>
      <trkpt lat="44.12092" lon="7.33506">
        <ele>2127.077</ele>
        <time>2020-06-28T08:25:26Z</time>
      </trkpt>
      <trkpt lat="44.12113" lon="7.33512">
        <ele>2121.835</ele>
        <time>2020-06-28T08:25:41Z</time>
      </trkpt>
      <trkpt lat="44.12128" lon="7.33507">
        <ele>2119.739</ele>
        <time>2020-06-28T08:25:56Z</time>
      </trkpt>
      <trkpt lat="44.12144" lon="7.33509">
        <ele>2118.625</ele>
        <time>2020-06-28T08:26:12Z</time>
      </trkpt>
      <trkpt lat="44.12154" lon="7.33511">
        <ele>2115.985</ele>
        <time>2020-06-28T08:26:27Z</time>
      </trkpt>
      <trkpt lat="44.1217" lon="7.33518">
        <ele>2112.305</ele>
        <time>2020-06-28T08:26:43Z</time>
      </trkpt>
      <trkpt lat="44.12181" lon="7.33511">
        <ele>2115.693</ele>
        <time>2020-06-28T08:26:58Z</time>
      </trkpt>
      <trkpt lat="44.12191" lon="7.33521">
        <ele>2112.133</ele>
        <time>2020-06-28T08:27:14Z</time>
      </trkpt>
      <trkpt lat="44.12192" lon="7.33516">
        <ele>2111.598</ele>
        <time>2020-06-28T08:27:30Z</time>
      </trkpt>
      <trkpt lat="44.12192" lon="7.33516">
        <ele>2111.598</ele>
        <time>2020-06-28T08:27:45Z</time>
      </trkpt>
      <trkpt lat="44.12192" lon="7.33516">
        <ele>2111.598</ele>
        <time>2020-06-28T08:28:01Z</time>
      </trkpt>
      <trkpt lat="44.12209" lon="7.33506">
        <ele>2111.993</ele>
        <time>2020-06-28T08:28:16Z</time>
      </trkpt>
      <trkpt lat="44.12229" lon="7.33499">
        <ele>2111.602</ele>
        <time>2020-06-28T08:28:31Z</time>
      </trkpt>
      <trkpt lat="44.12235" lon="7.33499">
        <ele>2111.242</ele>
        <time>2020-06-28T08:28:47Z</time>
      </trkpt>
      <trkpt lat="44.12237" lon="7.33501">
        <ele>2111.861</ele>
        <time>2020-06-28T08:29:02Z</time>
      </trkpt>
      <trkpt lat="44.12238" lon="7.33501">
        <ele>2111.847</ele>
        <time>2020-06-28T08:29:17Z</time>
      </trkpt>
      <trkpt lat="44.12249" lon="7.3349">
        <ele>2112.678</ele>
        <time>2020-06-28T08:29:32Z</time>
      </trkpt>
      <trkpt lat="44.1226" lon="7.33493">
        <ele>2112.55</ele>
        <time>2020-06-28T08:29:48Z</time>
      </trkpt>
      <trkpt lat="44.1226" lon="7.33493">
        <ele>2112.55</ele>
        <time>2020-06-28T08:30:03Z</time>
      </trkpt>
      <trkpt lat="44.12268" lon="7.33494">
        <ele>2109.585</ele>
        <time>2020-06-28T08:30:18Z</time>
      </trkpt>
      <trkpt lat="44.12276" lon="7.33487">
        <ele>2109.871</ele>
        <time>2020-06-28T08:30:34Z</time>
      </trkpt>
      <trkpt lat="44.12288" lon="7.33484">
        <ele>2110.286</ele>
        <time>2020-06-28T08:30:50Z</time>
      </trkpt>
      <trkpt lat="44.12299" lon="7.33483">
        <ele>2111.597</ele>
        <time>2020-06-28T08:31:06Z</time>
      </trkpt>
      <trkpt lat="44.12308" lon="7.33489">
        <ele>2112.74</ele>
        <time>2020-06-28T08:31:22Z</time>
      </trkpt>
      <trkpt lat="44.1232" lon="7.33499">
        <ele>2119.07</ele>
        <time>2020-06-28T08:31:38Z</time>
      </trkpt>
      <trkpt lat="44.12328" lon="7.33497">
        <ele>2119.463</ele>
        <time>2020-06-28T08:31:53Z</time>
      </trkpt>
      <trkpt lat="44.12332" lon="7.33495">
        <ele>2123.178</ele>
        <time>2020-06-28T08:32:09Z</time>
      </trkpt>
      <trkpt lat="44.12346" lon="7.33504">
        <ele>2121.872</ele>
        <time>2020-06-28T08:32:25Z</time>
      </trkpt>
      <trkpt lat="44.12356" lon="7.33505">
        <ele>2125.407</ele>
        <time>2020-06-28T08:32:40Z</time>
      </trkpt>
      <trkpt lat="44.12371" lon="7.33518">
        <ele>2126.962</ele>
        <time>2020-06-28T08:32:55Z</time>
      </trkpt>
      <trkpt lat="44.1238" lon="7.33516">
        <ele>2130.045</ele>
        <time>2020-06-28T08:33:10Z</time>
      </trkpt>
      <trkpt lat="44.12383" lon="7.33519">
        <ele>2131.111</ele>
        <time>2020-06-28T08:33:26Z</time>
      </trkpt>
      <trkpt lat="44.12391" lon="7.33523">
        <ele>2131.019</ele>
        <time>2020-06-28T08:33:41Z</time>
      </trkpt>
      <trkpt lat="44.12394" lon="7.33523">
        <ele>2132.676</ele>
        <time>2020-06-28T08:33:57Z</time>
      </trkpt>
      <trkpt lat="44.12398" lon="7.33519">
        <ele>2134.384</ele>
        <time>2020-06-28T08:34:13Z</time>
      </trkpt>
      <trkpt lat="44.12413" lon="7.33513">
        <ele>2135.689</ele>
        <time>2020-06-28T08:34:28Z</time>
      </trkpt>
      <trkpt lat="44.12428" lon="7.33508">
        <ele>2133.494</ele>
        <time>2020-06-28T08:34:44Z</time>
      </trkpt>
      <trkpt lat="44.12436" lon="7.33501">
        <ele>2133.278</ele>
        <time>2020-06-28T08:34:59Z</time>
      </trkpt>
      <trkpt lat="44.12448" lon="7.33494">
        <ele>2132.192</ele>
        <time>2020-06-28T08:35:14Z</time>
      </trkpt>
      <trkpt lat="44.12455" lon="7.33489">
        <ele>2134.258</ele>
        <time>2020-06-28T08:35:30Z</time>
      </trkpt>
      <trkpt lat="44.12467" lon="7.33487">
        <ele>2131.364</ele>
        <time>2020-06-28T08:35:46Z</time>
      </trkpt>
      <trkpt lat="44.12477" lon="7.3348">
        <ele>2136.034</ele>
        <time>2020-06-28T08:36:02Z</time>
      </trkpt>
      <trkpt lat="44.1249" lon="7.33477">
        <ele>2139.332</ele>
        <time>2020-06-28T08:36:17Z</time>
      </trkpt>
      <trkpt lat="44.12497" lon="7.33477">
        <ele>2137.57</ele>
        <time>2020-06-28T08:36:33Z</time>
      </trkpt>
      <trkpt lat="44.12509" lon="7.33469">
        <ele>2135.239</ele>
        <time>2020-06-28T08:36:49Z</time>
      </trkpt>
      <trkpt lat="44.12519" lon="7.33461">
        <ele>2137.979</ele>
        <time>2020-06-28T08:37:05Z</time>
      </trkpt>
      <trkpt lat="44.12531" lon="7.33451">
        <ele>2138.453</ele>
        <time>2020-06-28T08:37:21Z</time>
      </trkpt>
      <trkpt lat="44.12535" lon="7.33449">
        <ele>2139.588</ele>
        <time>2020-06-28T08:37:37Z</time>
      </trkpt>
      <trkpt lat="44.12547" lon="7.33442">
        <ele>2140.042</ele>
        <time>2020-06-28T08:37:52Z</time>
      </trkpt>
      <trkpt lat="44.12552" lon="7.33434">
        <ele>2142.49</ele>
        <time>2020-06-28T08:38:07Z</time>
      </trkpt>
      <trkpt lat="44.12553" lon="7.33419">
        <ele>2142.507</ele>
        <time>2020-06-28T08:38:23Z</time>
      </trkpt>
      <trkpt lat="44.12566" lon="7.33411">
        <ele>2142.188</ele>
        <time>2020-06-28T08:38:39Z</time>
      </trkpt>
      <trkpt lat="44.12569" lon="7.33393">
        <ele>2145.263</ele>
        <time>2020-06-28T08:38:54Z</time>
      </trkpt>
      <trkpt lat="44.1257" lon="7.33388">
        <ele>2145.185</ele>
        <time>2020-06-28T08:39:10Z</time>
      </trkpt>
      <trkpt lat="44.12568" lon="7.33368">
        <ele>2144.478</ele>
        <time>2020-06-28T08:39:26Z</time>
      </trkpt>
      <trkpt lat="44.12565" lon="7.33349">
        <ele>2147.742</ele>
        <time>2020-06-28T08:39:42Z</time>
      </trkpt>
      <trkpt lat="44.12566" lon="7.33327">
        <ele>2151.193</ele>
        <time>2020-06-28T08:39:58Z</time>
      </trkpt>
      <trkpt lat="44.12569" lon="7.33302">
        <ele>2150.689</ele>
        <time>2020-06-28T08:40:14Z</time>
      </trkpt>
      <trkpt lat="44.12582" lon="7.33294">
        <ele>2148.658</ele>
        <time>2020-06-28T08:40:30Z</time>
      </trkpt>
      <trkpt lat="44.12585" lon="7.33283">
        <ele>2147.585</ele>
        <time>2020-06-28T08:40:45Z</time>
      </trkpt>
      <trkpt lat="44.12585" lon="7.33272">
        <ele>2147.204</ele>
        <time>2020-06-28T08:41:00Z</time>
      </trkpt>
      <trkpt lat="44.12585" lon="7.33258">
        <ele>2147.744</ele>
        <time>2020-06-28T08:41:16Z</time>
      </trkpt>
      <trkpt lat="44.12587" lon="7.33249">
        <ele>2147.257</ele>
        <time>2020-06-28T08:41:32Z</time>
      </trkpt>
      <trkpt lat="44.12588" lon="7.33248">
        <ele>2147.472</ele>
        <time>2020-06-28T08:41:48Z</time>
      </trkpt>
      <trkpt lat="44.12588" lon="7.33247">
        <ele>2147.348</ele>
        <time>2020-06-28T08:42:03Z</time>
      </trkpt>
      <trkpt lat="44.12595" lon="7.33235">
        <ele>2149.746</ele>
        <time>2020-06-28T08:42:18Z</time>
      </trkpt>
      <trkpt lat="44.12595" lon="7.33235">
        <ele>2149.746</ele>
        <time>2020-06-28T08:42:33Z</time>
      </trkpt>
      <trkpt lat="44.12598" lon="7.33232">
        <ele>2149.29</ele>
        <time>2020-06-28T08:42:49Z</time>
      </trkpt>
      <trkpt lat="44.12602" lon="7.33231">
        <ele>2153.384</ele>
        <time>2020-06-28T08:43:04Z</time>
      </trkpt>
      <trkpt lat="44.12603" lon="7.33229">
        <ele>2153.463</ele>
        <time>2020-06-28T08:43:20Z</time>
      </trkpt>
      <trkpt lat="44.12604" lon="7.33229">
        <ele>2152.534</ele>
        <time>2020-06-28T08:43:35Z</time>
      </trkpt>
      <trkpt lat="44.12602" lon="7.33225">
        <ele>2153.718</ele>
        <time>2020-06-28T08:43:50Z</time>
      </trkpt>
      <trkpt lat="44.12613" lon="7.33218">
        <ele>2151.987</ele>
        <time>2020-06-28T08:44:06Z</time>
      </trkpt>
      <trkpt lat="44.1262" lon="7.33214">
        <ele>2152.671</ele>
        <time>2020-06-28T08:44:21Z</time>
      </trkpt>
      <trkpt lat="44.12621" lon="7.33209">
        <ele>2154.967</ele>
        <time>2020-06-28T08:44:36Z</time>
      </trkpt>
      <trkpt lat="44.12621" lon="7.33209">
        <ele>2154.967</ele>
        <time>2020-06-28T08:44:52Z</time>
      </trkpt>
      <trkpt lat="44.1263" lon="7.33213">
        <ele>2156.101</ele>
        <time>2020-06-28T08:45:08Z</time>
      </trkpt>
      <trkpt lat="44.12633" lon="7.33206">
        <ele>2159.455</ele>
        <time>2020-06-28T08:45:24Z</time>
      </trkpt>
      <trkpt lat="44.12633" lon="7.33204">
        <ele>2158.94</ele>
        <time>2020-06-28T08:45:40Z</time>
      </trkpt>
      <trkpt lat="44.12645" lon="7.33198">
        <ele>2156.691</ele>
        <time>2020-06-28T08:45:55Z</time>
      </trkpt>
      <trkpt lat="44.12645" lon="7.33174">
        <ele>2154.222</ele>
        <time>2020-06-28T08:46:10Z</time>
      </trkpt>
      <trkpt lat="44.1264" lon="7.3316">
        <ele>2147.335</ele>
        <time>2020-06-28T08:46:26Z</time>
      </trkpt>
      <trkpt lat="44.12633" lon="7.33144">
        <ele>2152.129</ele>
        <time>2020-06-28T08:46:41Z</time>
      </trkpt>
      <trkpt lat="44.12624" lon="7.33123">
        <ele>2157.661</ele>
        <time>2020-06-28T08:46:57Z</time>
      </trkpt>
      <trkpt lat="44.1262" lon="7.33112">
        <ele>2155.468</ele>
        <time>2020-06-28T08:47:12Z</time>
      </trkpt>
      <trkpt lat="44.12621" lon="7.33097">
        <ele>2151.791</ele>
        <time>2020-06-28T08:47:28Z</time>
      </trkpt>
      <trkpt lat="44.1263" lon="7.33084">
        <ele>2152.85</ele>
        <time>2020-06-28T08:47:44Z</time>
      </trkpt>
      <trkpt lat="44.12624" lon="7.33087">
        <ele>2154.115</ele>
        <time>2020-06-28T08:47:59Z</time>
      </trkpt>
      <trkpt lat="44.12624" lon="7.33088">
        <ele>2154.134</ele>
        <time>2020-06-28T08:48:14Z</time>
      </trkpt>
      <trkpt lat="44.12624" lon="7.33088">
        <ele>2154.134</ele>
        <time>2020-06-28T08:48:30Z</time>
      </trkpt>
      <trkpt lat="44.12624" lon="7.33088">
        <ele>2154.134</ele>
        <time>2020-06-28T08:48:46Z</time>
      </trkpt>
      <trkpt lat="44.12624" lon="7.33088">
        <ele>2154.134</ele>
        <time>2020-06-28T08:49:01Z</time>
      </trkpt>
      <trkpt lat="44.12624" lon="7.33088">
        <ele>2154.134</ele>
        <time>2020-06-28T08:49:17Z</time>
      </trkpt>
      <trkpt lat="44.12624" lon="7.33088">
        <ele>2154.134</ele>
        <time>2020-06-28T08:49:32Z</time>
      </trkpt>
      <trkpt lat="44.12624" lon="7.33088">
        <ele>2154.134</ele>
        <time>2020-06-28T08:49:47Z</time>
      </trkpt>
      <trkpt lat="44.12624" lon="7.33088">
        <ele>2154.134</ele>
        <time>2020-06-28T08:50:03Z</time>
      </trkpt>
      <trkpt lat="44.12624" lon="7.33088">
        <ele>2154.134</ele>
        <time>2020-06-28T08:50:19Z</time>
      </trkpt>
      <trkpt lat="44.12626" lon="7.33085">
        <ele>2153.218</ele>
        <time>2020-06-28T08:50:34Z</time>
      </trkpt>
      <trkpt lat="44.12627" lon="7.33082">
        <ele>2155.233</ele>
        <time>2020-06-28T08:50:50Z</time>
      </trkpt>
      <trkpt lat="44.12627" lon="7.33082">
        <ele>2155.233</ele>
        <time>2020-06-28T08:51:06Z</time>
      </trkpt>
      <trkpt lat="44.12627" lon="7.33082">
        <ele>2155.233</ele>
        <time>2020-06-28T08:51:22Z</time>
      </trkpt>
      <trkpt lat="44.12627" lon="7.33082">
        <ele>2155.233</ele>
        <time>2020-06-28T08:51:38Z</time>
      </trkpt>
      <trkpt lat="44.12627" lon="7.33082">
        <ele>2155.233</ele>
        <time>2020-06-28T08:51:53Z</time>
      </trkpt>
      <trkpt lat="44.12627" lon="7.33082">
        <ele>2155.233</ele>
        <time>2020-06-28T08:52:09Z</time>
      </trkpt>
      <trkpt lat="44.12627" lon="7.33082">
        <ele>2155.233</ele>
        <time>2020-06-28T08:52:24Z</time>
      </trkpt>
      <trkpt lat="44.12627" lon="7.33082">
        <ele>2155.233</ele>
        <time>2020-06-28T08:52:40Z</time>
      </trkpt>
      <trkpt lat="44.12627" lon="7.33082">
        <ele>2155.233</ele>
        <time>2020-06-28T08:52:56Z</time>
      </trkpt>
      <trkpt lat="44.12627" lon="7.33082">
        <ele>2155.233</ele>
        <time>2020-06-28T08:53:12Z</time>
      </trkpt>
      <trkpt lat="44.12627" lon="7.33084">
        <ele>2154.971</ele>
        <time>2020-06-28T08:53:28Z</time>
      </trkpt>
      <trkpt lat="44.12626" lon="7.33083">
        <ele>2154.482</ele>
        <time>2020-06-28T08:53:43Z</time>
      </trkpt>
      <trkpt lat="44.12626" lon="7.33083">
        <ele>2154.482</ele>
        <time>2020-06-28T08:53:58Z</time>
      </trkpt>
      <trkpt lat="44.12625" lon="7.33085">
        <ele>2155.756</ele>
        <time>2020-06-28T08:54:14Z</time>
      </trkpt>
      <trkpt lat="44.12625" lon="7.33085">
        <ele>2155.756</ele>
        <time>2020-06-28T08:54:29Z</time>
      </trkpt>
      <trkpt lat="44.12625" lon="7.33089">
        <ele>2159.302</ele>
        <time>2020-06-28T08:54:44Z</time>
      </trkpt>
      <trkpt lat="44.12624" lon="7.33086">
        <ele>2163.439</ele>
        <time>2020-06-28T08:55:00Z</time>
      </trkpt>
      <trkpt lat="44.12624" lon="7.33086">
        <ele>2163.439</ele>
        <time>2020-06-28T08:55:16Z</time>
      </trkpt>
      <trkpt lat="44.12624" lon="7.33086">
        <ele>2163.439</ele>
        <time>2020-06-28T08:55:31Z</time>
      </trkpt>
      <trkpt lat="44.12624" lon="7.33086">
        <ele>2163.439</ele>
        <time>2020-06-28T08:55:47Z</time>
      </trkpt>
      <trkpt lat="44.12622" lon="7.33086">
        <ele>2165.572</ele>
        <time>2020-06-28T08:56:03Z</time>
      </trkpt>
      <trkpt lat="44.12622" lon="7.33086">
        <ele>2165.572</ele>
        <time>2020-06-28T08:56:19Z</time>
      </trkpt>
      <trkpt lat="44.12622" lon="7.33086">
        <ele>2165.572</ele>
        <time>2020-06-28T08:56:35Z</time>
      </trkpt>
      <trkpt lat="44.12622" lon="7.33086">
        <ele>2165.572</ele>
        <time>2020-06-28T08:56:51Z</time>
      </trkpt>
      <trkpt lat="44.12622" lon="7.33086">
        <ele>2165.572</ele>
        <time>2020-06-28T08:57:07Z</time>
      </trkpt>
      <trkpt lat="44.12622" lon="7.33086">
        <ele>2165.572</ele>
        <time>2020-06-28T08:57:22Z</time>
      </trkpt>
      <trkpt lat="44.12622" lon="7.33086">
        <ele>2165.572</ele>
        <time>2020-06-28T08:57:37Z</time>
      </trkpt>
      <trkpt lat="44.12622" lon="7.33086">
        <ele>2165.572</ele>
        <time>2020-06-28T08:57:52Z</time>
      </trkpt>
      <trkpt lat="44.12622" lon="7.33086">
        <ele>2165.572</ele>
        <time>2020-06-28T08:58:07Z</time>
      </trkpt>
      <trkpt lat="44.12623" lon="7.33086">
        <ele>2164.329</ele>
        <time>2020-06-28T08:58:23Z</time>
      </trkpt>
      <trkpt lat="44.12623" lon="7.33086">
        <ele>2164.329</ele>
        <time>2020-06-28T08:58:39Z</time>
      </trkpt>
      <trkpt lat="44.12626" lon="7.33087">
        <ele>2162.027</ele>
        <time>2020-06-28T08:58:54Z</time>
      </trkpt>
      <trkpt lat="44.12626" lon="7.33087">
        <ele>2162.027</ele>
        <time>2020-06-28T08:59:09Z</time>
      </trkpt>
      <trkpt lat="44.12626" lon="7.33087">
        <ele>2162.027</ele>
        <time>2020-06-28T08:59:25Z</time>
      </trkpt>
      <trkpt lat="44.12626" lon="7.33087">
        <ele>2162.027</ele>
        <time>2020-06-28T08:59:40Z</time>
      </trkpt>
      <trkpt lat="44.12626" lon="7.33087">
        <ele>2162.027</ele>
        <time>2020-06-28T08:59:55Z</time>
      </trkpt>
      <trkpt lat="44.12626" lon="7.33087">
        <ele>2162.027</ele>
        <time>2020-06-28T09:00:11Z</time>
      </trkpt>
      <trkpt lat="44.12626" lon="7.33087">
        <ele>2162.027</ele>
        <time>2020-06-28T09:00:26Z</time>
      </trkpt>
      <trkpt lat="44.12626" lon="7.33084">
        <ele>2162.354</ele>
        <time>2020-06-28T09:00:42Z</time>
      </trkpt>
      <trkpt lat="44.12626" lon="7.33084">
        <ele>2162.354</ele>
        <time>2020-06-28T09:00:58Z</time>
      </trkpt>
      <trkpt lat="44.12627" lon="7.33083">
        <ele>2160.981</ele>
        <time>2020-06-28T09:01:14Z</time>
      </trkpt>
      <trkpt lat="44.12627" lon="7.33083">
        <ele>2160.981</ele>
        <time>2020-06-28T09:01:30Z</time>
      </trkpt>
      <trkpt lat="44.12627" lon="7.33083">
        <ele>2160.981</ele>
        <time>2020-06-28T09:01:45Z</time>
      </trkpt>
      <trkpt lat="44.12627" lon="7.33083">
        <ele>2160.981</ele>
        <time>2020-06-28T09:02:00Z</time>
      </trkpt>
      <trkpt lat="44.12627" lon="7.33083">
        <ele>2161.095</ele>
        <time>2020-06-28T09:02:16Z</time>
      </trkpt>
      <trkpt lat="44.12627" lon="7.33083">
        <ele>2161.095</ele>
        <time>2020-06-28T09:02:31Z</time>
      </trkpt>
      <trkpt lat="44.12627" lon="7.33083">
        <ele>2161.095</ele>
        <time>2020-06-28T09:02:47Z</time>
      </trkpt>
      <trkpt lat="44.12627" lon="7.33083">
        <ele>2161.095</ele>
        <time>2020-06-28T09:03:02Z</time>
      </trkpt>
      <trkpt lat="44.12627" lon="7.33083">
        <ele>2161.095</ele>
        <time>2020-06-28T09:03:18Z</time>
      </trkpt>
      <trkpt lat="44.12627" lon="7.33083">
        <ele>2161.095</ele>
        <time>2020-06-28T09:03:34Z</time>
      </trkpt>
      <trkpt lat="44.12627" lon="7.33083">
        <ele>2161.095</ele>
        <time>2020-06-28T09:03:50Z</time>
      </trkpt>
      <trkpt lat="44.12627" lon="7.33083">
        <ele>2161.095</ele>
        <time>2020-06-28T09:04:05Z</time>
      </trkpt>
      <trkpt lat="44.12627" lon="7.33083">
        <ele>2161.095</ele>
        <time>2020-06-28T09:04:20Z</time>
      </trkpt>
      <trkpt lat="44.12627" lon="7.33083">
        <ele>2160.967</ele>
        <time>2020-06-28T09:04:36Z</time>
      </trkpt>
      <trkpt lat="44.12627" lon="7.33082">
        <ele>2159.696</ele>
        <time>2020-06-28T09:04:51Z</time>
      </trkpt>
      <trkpt lat="44.12633" lon="7.33082">
        <ele>2157.484</ele>
        <time>2020-06-28T09:05:06Z</time>
      </trkpt>
      <trkpt lat="44.12633" lon="7.33082">
        <ele>2157.484</ele>
        <time>2020-06-28T09:05:22Z</time>
      </trkpt>
      <trkpt lat="44.12632" lon="7.33083">
        <ele>2159.517</ele>
        <time>2020-06-28T09:05:38Z</time>
      </trkpt>
      <trkpt lat="44.12632" lon="7.33083">
        <ele>2159.517</ele>
        <time>2020-06-28T09:05:54Z</time>
      </trkpt>
      <trkpt lat="44.12628" lon="7.33085">
        <ele>2160.5</ele>
        <time>2020-06-28T09:06:09Z</time>
      </trkpt>
      <trkpt lat="44.12626" lon="7.33086">
        <ele>2161.869</ele>
        <time>2020-06-28T09:06:24Z</time>
      </trkpt>
      <trkpt lat="44.12626" lon="7.33086">
        <ele>2161.869</ele>
        <time>2020-06-28T09:06:40Z</time>
      </trkpt>
      <trkpt lat="44.12626" lon="7.33086">
        <ele>2161.869</ele>
        <time>2020-06-28T09:06:55Z</time>
      </trkpt>
      <trkpt lat="44.12626" lon="7.33086">
        <ele>2161.869</ele>
        <time>2020-06-28T09:07:11Z</time>
      </trkpt>
      <trkpt lat="44.12628" lon="7.33084">
        <ele>2162.277</ele>
        <time>2020-06-28T09:07:27Z</time>
      </trkpt>
      <trkpt lat="44.12627" lon="7.33085">
        <ele>2162.567</ele>
        <time>2020-06-28T09:07:43Z</time>
      </trkpt>
      <trkpt lat="44.12627" lon="7.33085">
        <ele>2162.567</ele>
        <time>2020-06-28T09:07:59Z</time>
      </trkpt>
      <trkpt lat="44.12627" lon="7.33085">
        <ele>2162.567</ele>
        <time>2020-06-28T09:08:15Z</time>
      </trkpt>
      <trkpt lat="44.12627" lon="7.33085">
        <ele>2162.567</ele>
        <time>2020-06-28T09:08:30Z</time>
      </trkpt>
      <trkpt lat="44.12627" lon="7.33085">
        <ele>2162.567</ele>
        <time>2020-06-28T09:08:45Z</time>
      </trkpt>
      <trkpt lat="44.12625" lon="7.33086">
        <ele>2164.608</ele>
        <time>2020-06-28T09:09:01Z</time>
      </trkpt>
      <trkpt lat="44.12624" lon="7.33084">
        <ele>2165.27</ele>
        <time>2020-06-28T09:09:16Z</time>
      </trkpt>
      <trkpt lat="44.12624" lon="7.33084">
        <ele>2165.27</ele>
        <time>2020-06-28T09:09:31Z</time>
      </trkpt>
      <trkpt lat="44.12624" lon="7.33084">
        <ele>2165.27</ele>
        <time>2020-06-28T09:09:47Z</time>
      </trkpt>
      <trkpt lat="44.12624" lon="7.33084">
        <ele>2165.27</ele>
        <time>2020-06-28T09:10:02Z</time>
      </trkpt>
      <trkpt lat="44.12624" lon="7.33084">
        <ele>2165.27</ele>
        <time>2020-06-28T09:10:18Z</time>
      </trkpt>
      <trkpt lat="44.12624" lon="7.33084">
        <ele>2165.27</ele>
        <time>2020-06-28T09:10:34Z</time>
      </trkpt>
      <trkpt lat="44.12624" lon="7.33084">
        <ele>2165.27</ele>
        <time>2020-06-28T09:10:49Z</time>
      </trkpt>
      <trkpt lat="44.12624" lon="7.33084">
        <ele>2165.27</ele>
        <time>2020-06-28T09:11:05Z</time>
      </trkpt>
      <trkpt lat="44.12624" lon="7.33084">
        <ele>2165.27</ele>
        <time>2020-06-28T09:11:21Z</time>
      </trkpt>
      <trkpt lat="44.12624" lon="7.33084">
        <ele>2165.27</ele>
        <time>2020-06-28T09:11:36Z</time>
      </trkpt>
      <trkpt lat="44.12624" lon="7.33084">
        <ele>2165.27</ele>
        <time>2020-06-28T09:11:51Z</time>
      </trkpt>
      <trkpt lat="44.12624" lon="7.33083">
        <ele>2164.052</ele>
        <time>2020-06-28T09:12:06Z</time>
      </trkpt>
      <trkpt lat="44.12625" lon="7.33079">
        <ele>2163.696</ele>
        <time>2020-06-28T09:12:21Z</time>
      </trkpt>
      <trkpt lat="44.12621" lon="7.33072">
        <ele>2164.815</ele>
        <time>2020-06-28T09:12:37Z</time>
      </trkpt>
      <trkpt lat="44.1262" lon="7.33073">
        <ele>2164.489</ele>
        <time>2020-06-28T09:12:53Z</time>
      </trkpt>
      <trkpt lat="44.12625" lon="7.33075">
        <ele>2165.447</ele>
        <time>2020-06-28T09:13:09Z</time>
      </trkpt>
      <trkpt lat="44.1261" lon="7.33099">
        <ele>2166.568</ele>
        <time>2020-06-28T09:13:25Z</time>
      </trkpt>
      <trkpt lat="44.12617" lon="7.33085">
        <ele>2169.329</ele>
        <time>2020-06-28T09:13:41Z</time>
      </trkpt>
      <trkpt lat="44.12617" lon="7.33085">
        <ele>2169.329</ele>
        <time>2020-06-28T09:13:57Z</time>
      </trkpt>
      <trkpt lat="44.12615" lon="7.33088">
        <ele>2175.792</ele>
        <time>2020-06-28T09:14:12Z</time>
      </trkpt>
      <trkpt lat="44.12615" lon="7.33088">
        <ele>2175.792</ele>
        <time>2020-06-28T09:14:28Z</time>
      </trkpt>
      <trkpt lat="44.12615" lon="7.33088">
        <ele>2175.792</ele>
        <time>2020-06-28T09:14:44Z</time>
      </trkpt>
      <trkpt lat="44.12615" lon="7.33088">
        <ele>2175.792</ele>
        <time>2020-06-28T09:14:59Z</time>
      </trkpt>
      <trkpt lat="44.12616" lon="7.33093">
        <ele>2174.737</ele>
        <time>2020-06-28T09:15:14Z</time>
      </trkpt>
      <trkpt lat="44.12623" lon="7.33107">
        <ele>2176.774</ele>
        <time>2020-06-28T09:15:29Z</time>
      </trkpt>
      <trkpt lat="44.12625" lon="7.33088">
        <ele>2174.28</ele>
        <time>2020-06-28T09:15:45Z</time>
      </trkpt>
      <trkpt lat="44.12618" lon="7.33089">
        <ele>2173.993</ele>
        <time>2020-06-28T09:16:01Z</time>
      </trkpt>
      <trkpt lat="44.12618" lon="7.33084">
        <ele>2170.867</ele>
        <time>2020-06-28T09:16:17Z</time>
      </trkpt>
      <trkpt lat="44.12618" lon="7.33085">
        <ele>2169.758</ele>
        <time>2020-06-28T09:16:33Z</time>
      </trkpt>
      <trkpt lat="44.12617" lon="7.33084">
        <ele>2171.532</ele>
        <time>2020-06-28T09:16:48Z</time>
      </trkpt>
      <trkpt lat="44.1262" lon="7.33053">
        <ele>2169.043</ele>
        <time>2020-06-28T09:17:04Z</time>
      </trkpt>
      <trkpt lat="44.1262" lon="7.33058">
        <ele>2170.215</ele>
        <time>2020-06-28T09:17:20Z</time>
      </trkpt>
      <trkpt lat="44.12622" lon="7.33083">
        <ele>2176.131</ele>
        <time>2020-06-28T09:17:35Z</time>
      </trkpt>
      <trkpt lat="44.12622" lon="7.3309">
        <ele>2176.125</ele>
        <time>2020-06-28T09:17:51Z</time>
      </trkpt>
      <trkpt lat="44.12617" lon="7.33081">
        <ele>2177.754</ele>
        <time>2020-06-28T09:18:07Z</time>
      </trkpt>
      <trkpt lat="44.1263" lon="7.33066">
        <ele>2172.808</ele>
        <time>2020-06-28T09:18:22Z</time>
      </trkpt>
      <trkpt lat="44.12622" lon="7.33078">
        <ele>2171.78</ele>
        <time>2020-06-28T09:18:38Z</time>
      </trkpt>
      <trkpt lat="44.12602" lon="7.33091">
        <ele>2167.951</ele>
        <time>2020-06-28T09:18:54Z</time>
      </trkpt>
      <trkpt lat="44.1261" lon="7.33101">
        <ele>2173.086</ele>
        <time>2020-06-28T09:19:10Z</time>
      </trkpt>
      <trkpt lat="44.12618" lon="7.33101">
        <ele>2174.122</ele>
        <time>2020-06-28T09:19:26Z</time>
      </trkpt>
      <trkpt lat="44.12626" lon="7.33106">
        <ele>2172.649</ele>
        <time>2020-06-28T09:19:41Z</time>
      </trkpt>
      <trkpt lat="44.12626" lon="7.33103">
        <ele>2174.285</ele>
        <time>2020-06-28T09:19:57Z</time>
      </trkpt>
      <trkpt lat="44.12627" lon="7.33107">
        <ele>2178.632</ele>
        <time>2020-06-28T09:20:13Z</time>
      </trkpt>
      <trkpt lat="44.12626" lon="7.33107">
        <ele>2179.524</ele>
        <time>2020-06-28T09:20:28Z</time>
      </trkpt>
      <trkpt lat="44.12624" lon="7.3311">
        <ele>2180.487</ele>
        <time>2020-06-28T09:20:43Z</time>
      </trkpt>
      <trkpt lat="44.12625" lon="7.33105">
        <ele>2183.511</ele>
        <time>2020-06-28T09:20:59Z</time>
      </trkpt>
      <trkpt lat="44.12626" lon="7.33102">
        <ele>2183.735</ele>
        <time>2020-06-28T09:21:15Z</time>
      </trkpt>
      <trkpt lat="44.12626" lon="7.33099">
        <ele>2179.657</ele>
        <time>2020-06-28T09:21:31Z</time>
      </trkpt>
      <trkpt lat="44.12644" lon="7.33084">
        <ele>2175.7</ele>
        <time>2020-06-28T09:21:47Z</time>
      </trkpt>
      <trkpt lat="44.12636" lon="7.33067">
        <ele>2171.063</ele>
        <time>2020-06-28T09:22:02Z</time>
      </trkpt>
      <trkpt lat="44.12625" lon="7.33067">
        <ele>2168.509</ele>
        <time>2020-06-28T09:22:18Z</time>
      </trkpt>
      <trkpt lat="44.12623" lon="7.33081">
        <ele>2170.366</ele>
        <time>2020-06-28T09:22:34Z</time>
      </trkpt>
      <trkpt lat="44.12622" lon="7.33082">
        <ele>2170.777</ele>
        <time>2020-06-28T09:22:49Z</time>
      </trkpt>
      <trkpt lat="44.1262" lon="7.33082">
        <ele>2170.595</ele>
        <time>2020-06-28T09:23:04Z</time>
      </trkpt>
      <trkpt lat="44.12619" lon="7.33077">
        <ele>2169.092</ele>
        <time>2020-06-28T09:23:20Z</time>
      </trkpt>
      <trkpt lat="44.12617" lon="7.33079">
        <ele>2169.688</ele>
        <time>2020-06-28T09:23:35Z</time>
      </trkpt>
      <trkpt lat="44.12612" lon="7.33085">
        <ele>2166.391</ele>
        <time>2020-06-28T09:23:51Z</time>
      </trkpt>
      <trkpt lat="44.12612" lon="7.33085">
        <ele>2166.391</ele>
        <time>2020-06-28T09:24:07Z</time>
      </trkpt>
      <trkpt lat="44.12612" lon="7.33085">
        <ele>2166.391</ele>
        <time>2020-06-28T09:24:23Z</time>
      </trkpt>
      <trkpt lat="44.12613" lon="7.33085">
        <ele>2168.013</ele>
        <time>2020-06-28T09:24:39Z</time>
      </trkpt>
      <trkpt lat="44.12634" lon="7.33092">
        <ele>2168.213</ele>
        <time>2020-06-28T09:24:55Z</time>
      </trkpt>
      <trkpt lat="44.12632" lon="7.33085">
        <ele>2168.111</ele>
        <time>2020-06-28T09:25:11Z</time>
      </trkpt>
      <trkpt lat="44.12634" lon="7.33084">
        <ele>2168.11</ele>
        <time>2020-06-28T09:25:27Z</time>
      </trkpt>
      <trkpt lat="44.12678" lon="7.33079">
        <ele>2168.612</ele>
        <time>2020-06-28T09:25:42Z</time>
      </trkpt>
      <trkpt lat="44.1266" lon="7.33112">
        <ele>2168.649</ele>
        <time>2020-06-28T09:28:08Z</time>
      </trkpt>
      <trkpt lat="44.12628" lon="7.33046">
        <ele>2176.163</ele>
        <time>2020-06-28T09:28:24Z</time>
      </trkpt>
      <trkpt lat="44.1263" lon="7.33049">
        <ele>2182.186</ele>
        <time>2020-06-28T09:28:40Z</time>
      </trkpt>
      <trkpt lat="44.12644" lon="7.33062">
        <ele>2170.235</ele>
        <time>2020-06-28T09:28:56Z</time>
      </trkpt>
      <trkpt lat="44.12659" lon="7.33066">
        <ele>2162.756</ele>
        <time>2020-06-28T09:29:11Z</time>
      </trkpt>
      <trkpt lat="44.12639" lon="7.33078">
        <ele>2173.26</ele>
        <time>2020-06-28T09:29:27Z</time>
      </trkpt>
      <trkpt lat="44.12639" lon="7.33066">
        <ele>2146.94</ele>
        <time>2020-06-28T09:29:42Z</time>
      </trkpt>
      <trkpt lat="44.1263" lon="7.33058">
        <ele>2177.251</ele>
        <time>2020-06-28T09:31:54Z</time>
      </trkpt>
      <trkpt lat="44.12625" lon="7.33078">
        <ele>2175.535</ele>
        <time>2020-06-28T09:32:09Z</time>
      </trkpt>
      <trkpt lat="44.12622" lon="7.3308">
        <ele>2180.95</ele>
        <time>2020-06-28T09:32:25Z</time>
      </trkpt>
      <trkpt lat="44.12617" lon="7.33083">
        <ele>2185.249</ele>
        <time>2020-06-28T09:32:41Z</time>
      </trkpt>
      <trkpt lat="44.12618" lon="7.33082">
        <ele>2185.506</ele>
        <time>2020-06-28T09:32:56Z</time>
      </trkpt>
      <trkpt lat="44.12618" lon="7.33082">
        <ele>2185.506</ele>
        <time>2020-06-28T09:33:11Z</time>
      </trkpt>
      <trkpt lat="44.12617" lon="7.33083">
        <ele>2173.806</ele>
        <time>2020-06-28T09:33:27Z</time>
      </trkpt>
      <trkpt lat="44.12615" lon="7.33083">
        <ele>2165.224</ele>
        <time>2020-06-28T09:33:42Z</time>
      </trkpt>
      <trkpt lat="44.12618" lon="7.33082">
        <ele>2161.08</ele>
        <time>2020-06-28T09:33:58Z</time>
      </trkpt>
      <trkpt lat="44.12617" lon="7.33084">
        <ele>2158.253</ele>
        <time>2020-06-28T09:34:13Z</time>
      </trkpt>
      <trkpt lat="44.12617" lon="7.33087">
        <ele>2156.981</ele>
        <time>2020-06-28T09:34:29Z</time>
      </trkpt>
      <trkpt lat="44.12619" lon="7.3309">
        <ele>2152.461</ele>
        <time>2020-06-28T09:34:44Z</time>
      </trkpt>
      <trkpt lat="44.12623" lon="7.33091">
        <ele>2152.108</ele>
        <time>2020-06-28T09:35:00Z</time>
      </trkpt>
      <trkpt lat="44.12627" lon="7.33079">
        <ele>2148.195</ele>
        <time>2020-06-28T09:35:15Z</time>
      </trkpt>
      <trkpt lat="44.12627" lon="7.33079">
        <ele>2148.195</ele>
        <time>2020-06-28T09:35:31Z</time>
      </trkpt>
      <trkpt lat="44.12627" lon="7.33079">
        <ele>2148.195</ele>
        <time>2020-06-28T09:35:47Z</time>
      </trkpt>
      <trkpt lat="44.12628" lon="7.33079">
        <ele>2149.646</ele>
        <time>2020-06-28T09:36:02Z</time>
      </trkpt>
      <trkpt lat="44.12627" lon="7.33078">
        <ele>2148.426</ele>
        <time>2020-06-28T09:36:18Z</time>
      </trkpt>
      <trkpt lat="44.12627" lon="7.33078">
        <ele>2148.426</ele>
        <time>2020-06-28T09:36:33Z</time>
      </trkpt>
      <trkpt lat="44.12627" lon="7.33078">
        <ele>2148.426</ele>
        <time>2020-06-28T09:36:49Z</time>
      </trkpt>
      <trkpt lat="44.12627" lon="7.33078">
        <ele>2148.426</ele>
        <time>2020-06-28T09:37:04Z</time>
      </trkpt>
      <trkpt lat="44.12627" lon="7.33078">
        <ele>2148.426</ele>
        <time>2020-06-28T09:37:19Z</time>
      </trkpt>
      <trkpt lat="44.12627" lon="7.33078">
        <ele>2148.426</ele>
        <time>2020-06-28T09:37:34Z</time>
      </trkpt>
      <trkpt lat="44.1262" lon="7.33076">
        <ele>2149.212</ele>
        <time>2020-06-28T09:37:49Z</time>
      </trkpt>
      <trkpt lat="44.12623" lon="7.33082">
        <ele>2147.646</ele>
        <time>2020-06-28T09:38:05Z</time>
      </trkpt>
      <trkpt lat="44.12626" lon="7.33088">
        <ele>2155.581</ele>
        <time>2020-06-28T09:38:20Z</time>
      </trkpt>
      <trkpt lat="44.12626" lon="7.33089">
        <ele>2156.043</ele>
        <time>2020-06-28T09:38:35Z</time>
      </trkpt>
      <trkpt lat="44.12626" lon="7.3309">
        <ele>2156.699</ele>
        <time>2020-06-28T09:38:51Z</time>
      </trkpt>
      <trkpt lat="44.1263" lon="7.33088">
        <ele>2166.173</ele>
        <time>2020-06-28T09:39:07Z</time>
      </trkpt>
      <trkpt lat="44.12631" lon="7.33088">
        <ele>2167.02</ele>
        <time>2020-06-28T09:39:22Z</time>
      </trkpt>
      <trkpt lat="44.12632" lon="7.33088">
        <ele>2167.638</ele>
        <time>2020-06-28T09:39:37Z</time>
      </trkpt>
      <trkpt lat="44.12632" lon="7.33088">
        <ele>2167.638</ele>
        <time>2020-06-28T09:39:52Z</time>
      </trkpt>
      <trkpt lat="44.12632" lon="7.33088">
        <ele>2167.638</ele>
        <time>2020-06-28T09:40:08Z</time>
      </trkpt>
      <trkpt lat="44.12632" lon="7.33088">
        <ele>2167.638</ele>
        <time>2020-06-28T09:40:24Z</time>
      </trkpt>
      <trkpt lat="44.12631" lon="7.33092">
        <ele>2172.058</ele>
        <time>2020-06-28T09:40:40Z</time>
      </trkpt>
      <trkpt lat="44.1263" lon="7.33091">
        <ele>2175.908</ele>
        <time>2020-06-28T09:40:55Z</time>
      </trkpt>
      <trkpt lat="44.1263" lon="7.33091">
        <ele>2175.908</ele>
        <time>2020-06-28T09:41:10Z</time>
      </trkpt>
      <trkpt lat="44.12631" lon="7.33091">
        <ele>2176.266</ele>
        <time>2020-06-28T09:41:26Z</time>
      </trkpt>
      <trkpt lat="44.12631" lon="7.33092">
        <ele>2176.528</ele>
        <time>2020-06-28T09:41:41Z</time>
      </trkpt>
      <trkpt lat="44.12629" lon="7.33093">
        <ele>2176.986</ele>
        <time>2020-06-28T09:41:57Z</time>
      </trkpt>
      <trkpt lat="44.12627" lon="7.33095">
        <ele>2179.891</ele>
        <time>2020-06-28T09:42:13Z</time>
      </trkpt>
      <trkpt lat="44.12627" lon="7.33095">
        <ele>2179.891</ele>
        <time>2020-06-28T09:42:28Z</time>
      </trkpt>
      <trkpt lat="44.12627" lon="7.33095">
        <ele>2179.891</ele>
        <time>2020-06-28T09:42:44Z</time>
      </trkpt>
      <trkpt lat="44.12623" lon="7.33101">
        <ele>2179.38</ele>
        <time>2020-06-28T09:42:59Z</time>
      </trkpt>
      <trkpt lat="44.12628" lon="7.33114">
        <ele>2169.256</ele>
        <time>2020-06-28T09:43:15Z</time>
      </trkpt>
      <trkpt lat="44.12638" lon="7.3313">
        <ele>2165.957</ele>
        <time>2020-06-28T09:43:31Z</time>
      </trkpt>
      <trkpt lat="44.12633" lon="7.33144">
        <ele>2166.646</ele>
        <time>2020-06-28T09:43:47Z</time>
      </trkpt>
      <trkpt lat="44.12622" lon="7.33144">
        <ele>2164.327</ele>
        <time>2020-06-28T09:44:03Z</time>
      </trkpt>
      <trkpt lat="44.12606" lon="7.33143">
        <ele>2161.118</ele>
        <time>2020-06-28T09:44:19Z</time>
      </trkpt>
      <trkpt lat="44.12604" lon="7.33145">
        <ele>2160.641</ele>
        <time>2020-06-28T09:44:35Z</time>
      </trkpt>
      <trkpt lat="44.12602" lon="7.33145">
        <ele>2158.851</ele>
        <time>2020-06-28T09:44:50Z</time>
      </trkpt>
      <trkpt lat="44.12581" lon="7.33155">
        <ele>2157.206</ele>
        <time>2020-06-28T09:45:06Z</time>
      </trkpt>
      <trkpt lat="44.12572" lon="7.33154">
        <ele>2156.028</ele>
        <time>2020-06-28T09:45:22Z</time>
      </trkpt>
      <trkpt lat="44.12562" lon="7.33156">
        <ele>2151.661</ele>
        <time>2020-06-28T09:45:37Z</time>
      </trkpt>
      <trkpt lat="44.12554" lon="7.33162">
        <ele>2148.537</ele>
        <time>2020-06-28T09:45:53Z</time>
      </trkpt>
      <trkpt lat="44.12544" lon="7.33168">
        <ele>2145.743</ele>
        <time>2020-06-28T09:46:08Z</time>
      </trkpt>
      <trkpt lat="44.12536" lon="7.33167">
        <ele>2141.767</ele>
        <time>2020-06-28T09:46:24Z</time>
      </trkpt>
      <trkpt lat="44.12526" lon="7.33173">
        <ele>2142.266</ele>
        <time>2020-06-28T09:46:40Z</time>
      </trkpt>
      <trkpt lat="44.12515" lon="7.33177">
        <ele>2141.769</ele>
        <time>2020-06-28T09:46:55Z</time>
      </trkpt>
      <trkpt lat="44.12506" lon="7.33176">
        <ele>2134.421</ele>
        <time>2020-06-28T09:47:11Z</time>
      </trkpt>
      <trkpt lat="44.12504" lon="7.3316">
        <ele>2124.298</ele>
        <time>2020-06-28T09:47:27Z</time>
      </trkpt>
      <trkpt lat="44.12499" lon="7.33169">
        <ele>2124.422</ele>
        <time>2020-06-28T09:47:43Z</time>
      </trkpt>
      <trkpt lat="44.12496" lon="7.3317">
        <ele>2123.06</ele>
        <time>2020-06-28T09:47:59Z</time>
      </trkpt>
      <trkpt lat="44.12494" lon="7.33154">
        <ele>2121.135</ele>
        <time>2020-06-28T09:48:14Z</time>
      </trkpt>
      <trkpt lat="44.12505" lon="7.33132">
        <ele>2128.939</ele>
        <time>2020-06-28T09:48:30Z</time>
      </trkpt>
      <trkpt lat="44.12508" lon="7.33122">
        <ele>2120.565</ele>
        <time>2020-06-28T09:48:45Z</time>
      </trkpt>
      <trkpt lat="44.12506" lon="7.33108">
        <ele>2120.924</ele>
        <time>2020-06-28T09:49:01Z</time>
      </trkpt>
      <trkpt lat="44.1251" lon="7.33096">
        <ele>2122.966</ele>
        <time>2020-06-28T09:49:17Z</time>
      </trkpt>
      <trkpt lat="44.12523" lon="7.33083">
        <ele>2123.772</ele>
        <time>2020-06-28T09:49:33Z</time>
      </trkpt>
      <trkpt lat="44.12523" lon="7.33066">
        <ele>2120.509</ele>
        <time>2020-06-28T09:49:49Z</time>
      </trkpt>
      <trkpt lat="44.12524" lon="7.33045">
        <ele>2114.985</ele>
        <time>2020-06-28T09:50:05Z</time>
      </trkpt>
      <trkpt lat="44.12519" lon="7.33039">
        <ele>2113.78</ele>
        <time>2020-06-28T09:50:20Z</time>
      </trkpt>
      <trkpt lat="44.12519" lon="7.3303">
        <ele>2114.117</ele>
        <time>2020-06-28T09:50:36Z</time>
      </trkpt>
      <trkpt lat="44.12514" lon="7.33013">
        <ele>2114.123</ele>
        <time>2020-06-28T09:50:52Z</time>
      </trkpt>
      <trkpt lat="44.12508" lon="7.33001">
        <ele>2113.915</ele>
        <time>2020-06-28T09:51:08Z</time>
      </trkpt>
      <trkpt lat="44.12496" lon="7.32986">
        <ele>2110.685</ele>
        <time>2020-06-28T09:51:24Z</time>
      </trkpt>
      <trkpt lat="44.12491" lon="7.32985">
        <ele>2113.392</ele>
        <time>2020-06-28T09:51:40Z</time>
      </trkpt>
      <trkpt lat="44.12486" lon="7.3297">
        <ele>2113.198</ele>
        <time>2020-06-28T09:51:55Z</time>
      </trkpt>
      <trkpt lat="44.12482" lon="7.32963">
        <ele>2107.423</ele>
        <time>2020-06-28T09:52:11Z</time>
      </trkpt>
      <trkpt lat="44.1247" lon="7.32965">
        <ele>2101.837</ele>
        <time>2020-06-28T09:52:27Z</time>
      </trkpt>
      <trkpt lat="44.12461" lon="7.3296">
        <ele>2100.993</ele>
        <time>2020-06-28T09:52:42Z</time>
      </trkpt>
      <trkpt lat="44.12452" lon="7.32956">
        <ele>2099.499</ele>
        <time>2020-06-28T09:52:57Z</time>
      </trkpt>
      <trkpt lat="44.12434" lon="7.32942">
        <ele>2095.959</ele>
        <time>2020-06-28T09:53:13Z</time>
      </trkpt>
      <trkpt lat="44.12425" lon="7.32928">
        <ele>2095.013</ele>
        <time>2020-06-28T09:53:29Z</time>
      </trkpt>
      <trkpt lat="44.12425" lon="7.32918">
        <ele>2095.693</ele>
        <time>2020-06-28T09:53:44Z</time>
      </trkpt>
      <trkpt lat="44.12411" lon="7.32926">
        <ele>2100.354</ele>
        <time>2020-06-28T09:54:00Z</time>
      </trkpt>
      <trkpt lat="44.12408" lon="7.32927">
        <ele>2095.258</ele>
        <time>2020-06-28T09:54:15Z</time>
      </trkpt>
      <trkpt lat="44.12408" lon="7.32922">
        <ele>2089.501</ele>
        <time>2020-06-28T09:54:31Z</time>
      </trkpt>
      <trkpt lat="44.12397" lon="7.32918">
        <ele>2086.543</ele>
        <time>2020-06-28T09:54:47Z</time>
      </trkpt>
      <trkpt lat="44.12393" lon="7.32915">
        <ele>2089.101</ele>
        <time>2020-06-28T09:55:02Z</time>
      </trkpt>
      <trkpt lat="44.12375" lon="7.32906">
        <ele>2088.046</ele>
        <time>2020-06-28T09:55:18Z</time>
      </trkpt>
      <trkpt lat="44.12367" lon="7.32914">
        <ele>2082.149</ele>
        <time>2020-06-28T09:55:34Z</time>
      </trkpt>
      <trkpt lat="44.12372" lon="7.32915">
        <ele>2080.533</ele>
        <time>2020-06-28T09:55:50Z</time>
      </trkpt>
      <trkpt lat="44.12367" lon="7.32918">
        <ele>2078.027</ele>
        <time>2020-06-28T09:56:06Z</time>
      </trkpt>
      <trkpt lat="44.12375" lon="7.32929">
        <ele>2078.888</ele>
        <time>2020-06-28T09:56:22Z</time>
      </trkpt>
      <trkpt lat="44.12376" lon="7.32942">
        <ele>2079.245</ele>
        <time>2020-06-28T09:56:38Z</time>
      </trkpt>
      <trkpt lat="44.1238" lon="7.32951">
        <ele>2078.47</ele>
        <time>2020-06-28T09:56:53Z</time>
      </trkpt>
      <trkpt lat="44.12383" lon="7.32958">
        <ele>2076.476</ele>
        <time>2020-06-28T09:57:09Z</time>
      </trkpt>
      <trkpt lat="44.12389" lon="7.32965">
        <ele>2075.004</ele>
        <time>2020-06-28T09:57:24Z</time>
      </trkpt>
      <trkpt lat="44.1239" lon="7.32981">
        <ele>2070.531</ele>
        <time>2020-06-28T09:57:40Z</time>
      </trkpt>
      <trkpt lat="44.12384" lon="7.32982">
        <ele>2071.243</ele>
        <time>2020-06-28T09:57:55Z</time>
      </trkpt>
      <trkpt lat="44.12373" lon="7.32988">
        <ele>2064.268</ele>
        <time>2020-06-28T09:58:11Z</time>
      </trkpt>
      <trkpt lat="44.12363" lon="7.32998">
        <ele>2059.414</ele>
        <time>2020-06-28T09:58:27Z</time>
      </trkpt>
      <trkpt lat="44.12354" lon="7.33006">
        <ele>2056.501</ele>
        <time>2020-06-28T09:58:42Z</time>
      </trkpt>
      <trkpt lat="44.12346" lon="7.33015">
        <ele>2056.771</ele>
        <time>2020-06-28T09:58:57Z</time>
      </trkpt>
      <trkpt lat="44.12335" lon="7.33023">
        <ele>2053.467</ele>
        <time>2020-06-28T09:59:13Z</time>
      </trkpt>
      <trkpt lat="44.12331" lon="7.33022">
        <ele>2050.08</ele>
        <time>2020-06-28T09:59:29Z</time>
      </trkpt>
      <trkpt lat="44.12326" lon="7.33022">
        <ele>2048.235</ele>
        <time>2020-06-28T09:59:45Z</time>
      </trkpt>
      <trkpt lat="44.12304" lon="7.33026">
        <ele>2047.999</ele>
        <time>2020-06-28T10:00:00Z</time>
      </trkpt>
      <trkpt lat="44.12289" lon="7.33022">
        <ele>2050.729</ele>
        <time>2020-06-28T10:00:16Z</time>
      </trkpt>
      <trkpt lat="44.12278" lon="7.33011">
        <ele>2051.437</ele>
        <time>2020-06-28T10:00:32Z</time>
      </trkpt>
      <trkpt lat="44.12263" lon="7.33009">
        <ele>2055.783</ele>
        <time>2020-06-28T10:00:47Z</time>
      </trkpt>
      <trkpt lat="44.12262" lon="7.33007">
        <ele>2055.139</ele>
        <time>2020-06-28T10:01:03Z</time>
      </trkpt>
      <trkpt lat="44.12261" lon="7.33007">
        <ele>2056.247</ele>
        <time>2020-06-28T10:01:18Z</time>
      </trkpt>
      <trkpt lat="44.12261" lon="7.33007">
        <ele>2056.247</ele>
        <time>2020-06-28T10:01:34Z</time>
      </trkpt>
      <trkpt lat="44.12252" lon="7.33017">
        <ele>2057.958</ele>
        <time>2020-06-28T10:01:49Z</time>
      </trkpt>
      <trkpt lat="44.12242" lon="7.33012">
        <ele>2046.129</ele>
        <time>2020-06-28T10:02:05Z</time>
      </trkpt>
      <trkpt lat="44.12244" lon="7.3301">
        <ele>2047.845</ele>
        <time>2020-06-28T10:02:21Z</time>
      </trkpt>
      <trkpt lat="44.12245" lon="7.33009">
        <ele>2044.488</ele>
        <time>2020-06-28T10:02:37Z</time>
      </trkpt>
      <trkpt lat="44.1224" lon="7.3302">
        <ele>2040.307</ele>
        <time>2020-06-28T10:02:52Z</time>
      </trkpt>
      <trkpt lat="44.12243" lon="7.33027">
        <ele>2039.05</ele>
        <time>2020-06-28T10:03:08Z</time>
      </trkpt>
      <trkpt lat="44.12241" lon="7.33026">
        <ele>2039.662</ele>
        <time>2020-06-28T10:03:24Z</time>
      </trkpt>
      <trkpt lat="44.12222" lon="7.33033">
        <ele>2041.054</ele>
        <time>2020-06-28T10:03:39Z</time>
      </trkpt>
      <trkpt lat="44.12218" lon="7.33036">
        <ele>2041.484</ele>
        <time>2020-06-28T10:03:54Z</time>
      </trkpt>
      <trkpt lat="44.12205" lon="7.3305">
        <ele>2040.912</ele>
        <time>2020-06-28T10:04:09Z</time>
      </trkpt>
      <trkpt lat="44.12196" lon="7.33052">
        <ele>2036.067</ele>
        <time>2020-06-28T10:04:25Z</time>
      </trkpt>
      <trkpt lat="44.12177" lon="7.33059">
        <ele>2033.486</ele>
        <time>2020-06-28T10:04:40Z</time>
      </trkpt>
      <trkpt lat="44.12166" lon="7.33062">
        <ele>2031.301</ele>
        <time>2020-06-28T10:04:56Z</time>
      </trkpt>
      <trkpt lat="44.12157" lon="7.3306">
        <ele>2027.008</ele>
        <time>2020-06-28T10:05:12Z</time>
      </trkpt>
      <trkpt lat="44.12155" lon="7.33062">
        <ele>2026.589</ele>
        <time>2020-06-28T10:05:27Z</time>
      </trkpt>
      <trkpt lat="44.12155" lon="7.33065">
        <ele>2023.725</ele>
        <time>2020-06-28T10:05:43Z</time>
      </trkpt>
      <trkpt lat="44.12144" lon="7.33071">
        <ele>2023.25</ele>
        <time>2020-06-28T10:05:59Z</time>
      </trkpt>
      <trkpt lat="44.12145" lon="7.33079">
        <ele>2023.251</ele>
        <time>2020-06-28T10:06:15Z</time>
      </trkpt>
      <trkpt lat="44.12141" lon="7.33094">
        <ele>2019.454</ele>
        <time>2020-06-28T10:06:31Z</time>
      </trkpt>
      <trkpt lat="44.1213" lon="7.33102">
        <ele>2018.212</ele>
        <time>2020-06-28T10:06:46Z</time>
      </trkpt>
      <trkpt lat="44.12127" lon="7.33103">
        <ele>2015.974</ele>
        <time>2020-06-28T10:07:01Z</time>
      </trkpt>
      <trkpt lat="44.12121" lon="7.33108">
        <ele>2015.096</ele>
        <time>2020-06-28T10:07:17Z</time>
      </trkpt>
      <trkpt lat="44.12105" lon="7.33113">
        <ele>2014.421</ele>
        <time>2020-06-28T10:07:33Z</time>
      </trkpt>
      <trkpt lat="44.12101" lon="7.33108">
        <ele>2010.106</ele>
        <time>2020-06-28T10:07:48Z</time>
      </trkpt>
      <trkpt lat="44.12094" lon="7.33101">
        <ele>2006.215</ele>
        <time>2020-06-28T10:08:04Z</time>
      </trkpt>
      <trkpt lat="44.12081" lon="7.33102">
        <ele>2006.054</ele>
        <time>2020-06-28T10:08:19Z</time>
      </trkpt>
      <trkpt lat="44.12078" lon="7.33093">
        <ele>2002.706</ele>
        <time>2020-06-28T10:08:35Z</time>
      </trkpt>
      <trkpt lat="44.12084" lon="7.33081">
        <ele>2000.154</ele>
        <time>2020-06-28T10:08:50Z</time>
      </trkpt>
      <trkpt lat="44.12069" lon="7.33083">
        <ele>1997.847</ele>
        <time>2020-06-28T10:09:06Z</time>
      </trkpt>
      <trkpt lat="44.12063" lon="7.33079">
        <ele>1995.625</ele>
        <time>2020-06-28T10:09:21Z</time>
      </trkpt>
      <trkpt lat="44.12061" lon="7.33061">
        <ele>1995.062</ele>
        <time>2020-06-28T10:09:36Z</time>
      </trkpt>
      <trkpt lat="44.12055" lon="7.33059">
        <ele>1985.285</ele>
        <time>2020-06-28T10:09:52Z</time>
      </trkpt>
      <trkpt lat="44.12044" lon="7.33055">
        <ele>1981.869</ele>
        <time>2020-06-28T10:10:07Z</time>
      </trkpt>
      <trkpt lat="44.12031" lon="7.33042">
        <ele>1980.594</ele>
        <time>2020-06-28T10:10:23Z</time>
      </trkpt>
      <trkpt lat="44.12016" lon="7.33045">
        <ele>1978.499</ele>
        <time>2020-06-28T10:10:39Z</time>
      </trkpt>
      <trkpt lat="44.12012" lon="7.33054">
        <ele>1973.961</ele>
        <time>2020-06-28T10:10:54Z</time>
      </trkpt>
      <trkpt lat="44.12012" lon="7.33054">
        <ele>1973.961</ele>
        <time>2020-06-28T10:11:10Z</time>
      </trkpt>
      <trkpt lat="44.12012" lon="7.33054">
        <ele>1973.961</ele>
        <time>2020-06-28T10:11:25Z</time>
      </trkpt>
      <trkpt lat="44.12009" lon="7.33058">
        <ele>1970.373</ele>
        <time>2020-06-28T10:11:41Z</time>
      </trkpt>
      <trkpt lat="44.12007" lon="7.33054">
        <ele>1967.934</ele>
        <time>2020-06-28T10:11:56Z</time>
      </trkpt>
      <trkpt lat="44.12" lon="7.33026">
        <ele>1964.092</ele>
        <time>2020-06-28T10:12:12Z</time>
      </trkpt>
      <trkpt lat="44.11993" lon="7.33008">
        <ele>1971.316</ele>
        <time>2020-06-28T10:12:28Z</time>
      </trkpt>
      <trkpt lat="44.11983" lon="7.33">
        <ele>1971.841</ele>
        <time>2020-06-28T10:12:44Z</time>
      </trkpt>
      <trkpt lat="44.11978" lon="7.3299">
        <ele>1972.107</ele>
        <time>2020-06-28T10:12:59Z</time>
      </trkpt>
      <trkpt lat="44.11978" lon="7.32989">
        <ele>1973.256</ele>
        <time>2020-06-28T10:13:14Z</time>
      </trkpt>
      <trkpt lat="44.11976" lon="7.32994">
        <ele>1974.696</ele>
        <time>2020-06-28T10:13:30Z</time>
      </trkpt>
      <trkpt lat="44.11958" lon="7.32986">
        <ele>1967.682</ele>
        <time>2020-06-28T10:13:46Z</time>
      </trkpt>
      <trkpt lat="44.11949" lon="7.32972">
        <ele>1970.366</ele>
        <time>2020-06-28T10:14:02Z</time>
      </trkpt>
      <trkpt lat="44.11937" lon="7.32955">
        <ele>1972.135</ele>
        <time>2020-06-28T10:14:18Z</time>
      </trkpt>
      <trkpt lat="44.11933" lon="7.32939">
        <ele>1974.015</ele>
        <time>2020-06-28T10:14:33Z</time>
      </trkpt>
      <trkpt lat="44.11931" lon="7.32925">
        <ele>1977.493</ele>
        <time>2020-06-28T10:14:49Z</time>
      </trkpt>
      <trkpt lat="44.11932" lon="7.32926">
        <ele>1976.342</ele>
        <time>2020-06-28T10:15:05Z</time>
      </trkpt>
      <trkpt lat="44.11923" lon="7.32926">
        <ele>1973.797</ele>
        <time>2020-06-28T10:15:20Z</time>
      </trkpt>
      <trkpt lat="44.11908" lon="7.32918">
        <ele>1967.764</ele>
        <time>2020-06-28T10:15:36Z</time>
      </trkpt>
      <trkpt lat="44.11895" lon="7.32913">
        <ele>1972.74</ele>
        <time>2020-06-28T10:15:51Z</time>
      </trkpt>
      <trkpt lat="44.11889" lon="7.32906">
        <ele>1973.349</ele>
        <time>2020-06-28T10:16:07Z</time>
      </trkpt>
      <trkpt lat="44.11876" lon="7.32901">
        <ele>1972.542</ele>
        <time>2020-06-28T10:16:23Z</time>
      </trkpt>
      <trkpt lat="44.11864" lon="7.32894">
        <ele>1968.068</ele>
        <time>2020-06-28T10:16:39Z</time>
      </trkpt>
      <trkpt lat="44.11864" lon="7.32895">
        <ele>1969.406</ele>
        <time>2020-06-28T10:16:54Z</time>
      </trkpt>
      <trkpt lat="44.11851" lon="7.3288">
        <ele>1964.839</ele>
        <time>2020-06-28T10:17:09Z</time>
      </trkpt>
      <trkpt lat="44.11849" lon="7.32871">
        <ele>1966.025</ele>
        <time>2020-06-28T10:17:25Z</time>
      </trkpt>
      <trkpt lat="44.11849" lon="7.32866">
        <ele>1968.07</ele>
        <time>2020-06-28T10:17:40Z</time>
      </trkpt>
      <trkpt lat="44.1185" lon="7.32871">
        <ele>1966.439</ele>
        <time>2020-06-28T10:17:56Z</time>
      </trkpt>
      <trkpt lat="44.11845" lon="7.32871">
        <ele>1963.602</ele>
        <time>2020-06-28T10:18:11Z</time>
      </trkpt>
      <trkpt lat="44.11846" lon="7.32865">
        <ele>1964.82</ele>
        <time>2020-06-28T10:18:26Z</time>
      </trkpt>
      <trkpt lat="44.11846" lon="7.32867">
        <ele>1967.948</ele>
        <time>2020-06-28T10:18:42Z</time>
      </trkpt>
      <trkpt lat="44.11834" lon="7.32873">
        <ele>1969.014</ele>
        <time>2020-06-28T10:18:58Z</time>
      </trkpt>
      <trkpt lat="44.11826" lon="7.32875">
        <ele>1967.594</ele>
        <time>2020-06-28T10:19:13Z</time>
      </trkpt>
      <trkpt lat="44.11811" lon="7.32869">
        <ele>1962.02</ele>
        <time>2020-06-28T10:19:28Z</time>
      </trkpt>
      <trkpt lat="44.11806" lon="7.32861">
        <ele>1960.914</ele>
        <time>2020-06-28T10:19:44Z</time>
      </trkpt>
      <trkpt lat="44.11806" lon="7.32861">
        <ele>1960.914</ele>
        <time>2020-06-28T10:20:00Z</time>
      </trkpt>
      <trkpt lat="44.11806" lon="7.32861">
        <ele>1960.914</ele>
        <time>2020-06-28T10:20:15Z</time>
      </trkpt>
      <trkpt lat="44.11789" lon="7.32852">
        <ele>1961.058</ele>
        <time>2020-06-28T10:20:31Z</time>
      </trkpt>
      <trkpt lat="44.1178" lon="7.32848">
        <ele>1960.483</ele>
        <time>2020-06-28T10:20:47Z</time>
      </trkpt>
      <trkpt lat="44.11768" lon="7.32844">
        <ele>1958.435</ele>
        <time>2020-06-28T10:21:03Z</time>
      </trkpt>
      <trkpt lat="44.1176" lon="7.32825">
        <ele>1957.637</ele>
        <time>2020-06-28T10:21:18Z</time>
      </trkpt>
      <trkpt lat="44.11744" lon="7.32827">
        <ele>1956.837</ele>
        <time>2020-06-28T10:21:33Z</time>
      </trkpt>
      <trkpt lat="44.11737" lon="7.32816">
        <ele>1953.486</ele>
        <time>2020-06-28T10:21:49Z</time>
      </trkpt>
      <trkpt lat="44.11725" lon="7.32808">
        <ele>1953.639</ele>
        <time>2020-06-28T10:22:05Z</time>
      </trkpt>
      <trkpt lat="44.11724" lon="7.32803">
        <ele>1952.294</ele>
        <time>2020-06-28T10:22:21Z</time>
      </trkpt>
      <trkpt lat="44.11725" lon="7.32798">
        <ele>1951.896</ele>
        <time>2020-06-28T10:22:36Z</time>
      </trkpt>
      <trkpt lat="44.11717" lon="7.32749">
        <ele>1947.658</ele>
        <time>2020-06-28T10:22:52Z</time>
      </trkpt>
      <trkpt lat="44.11699" lon="7.3275">
        <ele>1938.008</ele>
        <time>2020-06-28T10:23:07Z</time>
      </trkpt>
      <trkpt lat="44.11696" lon="7.32743">
        <ele>1935.256</ele>
        <time>2020-06-28T10:23:22Z</time>
      </trkpt>
      <trkpt lat="44.11685" lon="7.32752">
        <ele>1935.603</ele>
        <time>2020-06-28T10:23:38Z</time>
      </trkpt>
      <trkpt lat="44.11685" lon="7.32752">
        <ele>1935.603</ele>
        <time>2020-06-28T10:23:53Z</time>
      </trkpt>
      <trkpt lat="44.11685" lon="7.32752">
        <ele>1935.603</ele>
        <time>2020-06-28T10:24:09Z</time>
      </trkpt>
      <trkpt lat="44.11685" lon="7.32752">
        <ele>1935.603</ele>
        <time>2020-06-28T10:24:24Z</time>
      </trkpt>
      <trkpt lat="44.11685" lon="7.32752">
        <ele>1935.603</ele>
        <time>2020-06-28T10:24:39Z</time>
      </trkpt>
      <trkpt lat="44.1168" lon="7.32744">
        <ele>1934.852</ele>
        <time>2020-06-28T10:24:55Z</time>
      </trkpt>
      <trkpt lat="44.11649" lon="7.32755">
        <ele>1933.816</ele>
        <time>2020-06-28T10:25:10Z</time>
      </trkpt>
      <trkpt lat="44.11645" lon="7.32738">
        <ele>1932.464</ele>
        <time>2020-06-28T10:25:25Z</time>
      </trkpt>
      <trkpt lat="44.11636" lon="7.32734">
        <ele>1929.793</ele>
        <time>2020-06-28T10:25:41Z</time>
      </trkpt>
      <trkpt lat="44.11626" lon="7.32715">
        <ele>1927.888</ele>
        <time>2020-06-28T10:25:57Z</time>
      </trkpt>
      <trkpt lat="44.11616" lon="7.32715">
        <ele>1929.332</ele>
        <time>2020-06-28T10:26:12Z</time>
      </trkpt>
      <trkpt lat="44.11611" lon="7.32691">
        <ele>1925.768</ele>
        <time>2020-06-28T10:26:27Z</time>
      </trkpt>
      <trkpt lat="44.11599" lon="7.32674">
        <ele>1924.989</ele>
        <time>2020-06-28T10:26:42Z</time>
      </trkpt>
      <trkpt lat="44.11592" lon="7.32656">
        <ele>1921.636</ele>
        <time>2020-06-28T10:26:57Z</time>
      </trkpt>
      <trkpt lat="44.11588" lon="7.32633">
        <ele>1922.32</ele>
        <time>2020-06-28T10:27:13Z</time>
      </trkpt>
      <trkpt lat="44.11583" lon="7.32617">
        <ele>1919.078</ele>
        <time>2020-06-28T10:27:29Z</time>
      </trkpt>
      <trkpt lat="44.11586" lon="7.32603">
        <ele>1920.334</ele>
        <time>2020-06-28T10:27:45Z</time>
      </trkpt>
      <trkpt lat="44.11592" lon="7.32578">
        <ele>1918.443</ele>
        <time>2020-06-28T10:28:00Z</time>
      </trkpt>
      <trkpt lat="44.11579" lon="7.32589">
        <ele>1920.557</ele>
        <time>2020-06-28T10:28:16Z</time>
      </trkpt>
      <trkpt lat="44.11582" lon="7.32584">
        <ele>1921.563</ele>
        <time>2020-06-28T10:28:31Z</time>
      </trkpt>
      <trkpt lat="44.11583" lon="7.3258">
        <ele>1918.518</ele>
        <time>2020-06-28T10:28:47Z</time>
      </trkpt>
      <trkpt lat="44.11568" lon="7.32586">
        <ele>1916.294</ele>
        <time>2020-06-28T10:29:03Z</time>
      </trkpt>
      <trkpt lat="44.11574" lon="7.32581">
        <ele>1912.659</ele>
        <time>2020-06-28T10:29:18Z</time>
      </trkpt>
      <trkpt lat="44.11579" lon="7.32571">
        <ele>1912.742</ele>
        <time>2020-06-28T10:29:34Z</time>
      </trkpt>
      <trkpt lat="44.11586" lon="7.32549">
        <ele>1913.952</ele>
        <time>2020-06-28T10:29:49Z</time>
      </trkpt>
      <trkpt lat="44.11587" lon="7.32541">
        <ele>1914.307</ele>
        <time>2020-06-28T10:30:04Z</time>
      </trkpt>
      <trkpt lat="44.11573" lon="7.32542">
        <ele>1913.871</ele>
        <time>2020-06-28T10:30:20Z</time>
      </trkpt>
      <trkpt lat="44.11583" lon="7.32514">
        <ele>1913.27</ele>
        <time>2020-06-28T10:30:36Z</time>
      </trkpt>
      <trkpt lat="44.11556" lon="7.32525">
        <ele>1914.177</ele>
        <time>2020-06-28T10:30:51Z</time>
      </trkpt>
      <trkpt lat="44.11524" lon="7.32541">
        <ele>1918.88</ele>
        <time>2020-06-28T10:31:07Z</time>
      </trkpt>
      <trkpt lat="44.1153" lon="7.32516">
        <ele>1921.734</ele>
        <time>2020-06-28T10:31:23Z</time>
      </trkpt>
      <trkpt lat="44.11521" lon="7.32494">
        <ele>1918.647</ele>
        <time>2020-06-28T10:31:39Z</time>
      </trkpt>
      <trkpt lat="44.11515" lon="7.32482">
        <ele>1917.692</ele>
        <time>2020-06-28T10:31:55Z</time>
      </trkpt>
      <trkpt lat="44.11511" lon="7.32463">
        <ele>1919.131</ele>
        <time>2020-06-28T10:32:10Z</time>
      </trkpt>
      <trkpt lat="44.11494" lon="7.32447">
        <ele>1916.171</ele>
        <time>2020-06-28T10:32:26Z</time>
      </trkpt>
      <trkpt lat="44.11465" lon="7.32441">
        <ele>1913.778</ele>
        <time>2020-06-28T10:32:42Z</time>
      </trkpt>
      <trkpt lat="44.11454" lon="7.32427">
        <ele>1910.275</ele>
        <time>2020-06-28T10:32:58Z</time>
      </trkpt>
      <trkpt lat="44.1146" lon="7.32379">
        <ele>1898.588</ele>
        <time>2020-06-28T10:33:13Z</time>
      </trkpt>
      <trkpt lat="44.11453" lon="7.32359">
        <ele>1900.545</ele>
        <time>2020-06-28T10:33:29Z</time>
      </trkpt>
      <trkpt lat="44.11454" lon="7.32357">
        <ele>1901.059</ele>
        <time>2020-06-28T10:33:44Z</time>
      </trkpt>
      <trkpt lat="44.11449" lon="7.32351">
        <ele>1902.513</ele>
        <time>2020-06-28T10:34:00Z</time>
      </trkpt>
      <trkpt lat="44.11449" lon="7.32352">
        <ele>1903.181</ele>
        <time>2020-06-28T10:34:15Z</time>
      </trkpt>
      <trkpt lat="44.11449" lon="7.32352">
        <ele>1903.181</ele>
        <time>2020-06-28T10:34:31Z</time>
      </trkpt>
      <trkpt lat="44.11449" lon="7.32352">
        <ele>1903.181</ele>
        <time>2020-06-28T10:34:47Z</time>
      </trkpt>
      <trkpt lat="44.11452" lon="7.32349">
        <ele>1904.821</ele>
        <time>2020-06-28T10:35:02Z</time>
      </trkpt>
      <trkpt lat="44.11454" lon="7.32348">
        <ele>1904.06</ele>
        <time>2020-06-28T10:35:18Z</time>
      </trkpt>
      <trkpt lat="44.11456" lon="7.3234">
        <ele>1903.665</ele>
        <time>2020-06-28T10:35:34Z</time>
      </trkpt>
      <trkpt lat="44.11452" lon="7.32329">
        <ele>1903.85</ele>
        <time>2020-06-28T10:35:49Z</time>
      </trkpt>
      <trkpt lat="44.11451" lon="7.32323">
        <ele>1906.042</ele>
        <time>2020-06-28T10:36:04Z</time>
      </trkpt>
      <trkpt lat="44.11444" lon="7.32319">
        <ele>1903.563</ele>
        <time>2020-06-28T10:36:20Z</time>
      </trkpt>
      <trkpt lat="44.11444" lon="7.32287">
        <ele>1899.972</ele>
        <time>2020-06-28T10:36:35Z</time>
      </trkpt>
      <trkpt lat="44.11435" lon="7.32271">
        <ele>1901.23</ele>
        <time>2020-06-28T10:36:51Z</time>
      </trkpt>
      <trkpt lat="44.11428" lon="7.3225">
        <ele>1904.457</ele>
        <time>2020-06-28T10:37:07Z</time>
      </trkpt>
      <trkpt lat="44.11431" lon="7.3223">
        <ele>1902.778</ele>
        <time>2020-06-28T10:37:23Z</time>
      </trkpt>
      <trkpt lat="44.11423" lon="7.32212">
        <ele>1905.306</ele>
        <time>2020-06-28T10:37:39Z</time>
      </trkpt>
      <trkpt lat="44.11421" lon="7.32192">
        <ele>1900.601</ele>
        <time>2020-06-28T10:37:54Z</time>
      </trkpt>
      <trkpt lat="44.11417" lon="7.32171">
        <ele>1896.215</ele>
        <time>2020-06-28T10:38:10Z</time>
      </trkpt>
      <trkpt lat="44.11412" lon="7.32154">
        <ele>1900.98</ele>
        <time>2020-06-28T10:38:26Z</time>
      </trkpt>
      <trkpt lat="44.11405" lon="7.32142">
        <ele>1897.355</ele>
        <time>2020-06-28T10:38:42Z</time>
      </trkpt>
      <trkpt lat="44.11399" lon="7.32132">
        <ele>1894.298</ele>
        <time>2020-06-28T10:38:57Z</time>
      </trkpt>
      <trkpt lat="44.11399" lon="7.32127">
        <ele>1891.107</ele>
        <time>2020-06-28T10:39:12Z</time>
      </trkpt>
      <trkpt lat="44.11395" lon="7.32122">
        <ele>1891.099</ele>
        <time>2020-06-28T10:39:28Z</time>
      </trkpt>
      <trkpt lat="44.11375" lon="7.32111">
        <ele>1890.884</ele>
        <time>2020-06-28T10:39:44Z</time>
      </trkpt>
      <trkpt lat="44.1137" lon="7.32099">
        <ele>1895.957</ele>
        <time>2020-06-28T10:39:59Z</time>
      </trkpt>
      <trkpt lat="44.11357" lon="7.32081">
        <ele>1887.001</ele>
        <time>2020-06-28T10:40:15Z</time>
      </trkpt>
      <trkpt lat="44.11354" lon="7.32072">
        <ele>1888.47</ele>
        <time>2020-06-28T10:40:30Z</time>
      </trkpt>
      <trkpt lat="44.11351" lon="7.3206">
        <ele>1887.711</ele>
        <time>2020-06-28T10:40:46Z</time>
      </trkpt>
      <trkpt lat="44.11351" lon="7.32058">
        <ele>1888.019</ele>
        <time>2020-06-28T10:41:01Z</time>
      </trkpt>
      <trkpt lat="44.11342" lon="7.32048">
        <ele>1885.24</ele>
        <time>2020-06-28T10:41:17Z</time>
      </trkpt>
      <trkpt lat="44.11342" lon="7.32047">
        <ele>1885.197</ele>
        <time>2020-06-28T10:41:33Z</time>
      </trkpt>
      <trkpt lat="44.11337" lon="7.32043">
        <ele>1886.283</ele>
        <time>2020-06-28T10:41:49Z</time>
      </trkpt>
      <trkpt lat="44.11341" lon="7.32034">
        <ele>1884.465</ele>
        <time>2020-06-28T10:42:04Z</time>
      </trkpt>
      <trkpt lat="44.11343" lon="7.32016">
        <ele>1884.185</ele>
        <time>2020-06-28T10:42:20Z</time>
      </trkpt>
      <trkpt lat="44.11337" lon="7.3202">
        <ele>1884.47</ele>
        <time>2020-06-28T10:42:35Z</time>
      </trkpt>
      <trkpt lat="44.11338" lon="7.32024">
        <ele>1885.617</ele>
        <time>2020-06-28T10:42:51Z</time>
      </trkpt>
      <trkpt lat="44.11336" lon="7.3202">
        <ele>1877.499</ele>
        <time>2020-06-28T10:43:07Z</time>
      </trkpt>
      <trkpt lat="44.11334" lon="7.32005">
        <ele>1872.442</ele>
        <time>2020-06-28T10:43:22Z</time>
      </trkpt>
      <trkpt lat="44.11333" lon="7.32006">
        <ele>1873.977</ele>
        <time>2020-06-28T10:43:38Z</time>
      </trkpt>
      <trkpt lat="44.11331" lon="7.32008">
        <ele>1872.625</ele>
        <time>2020-06-28T10:43:53Z</time>
      </trkpt>
      <trkpt lat="44.11332" lon="7.32003">
        <ele>1869.671</ele>
        <time>2020-06-28T10:44:08Z</time>
      </trkpt>
      <trkpt lat="44.11332" lon="7.32001">
        <ele>1869.873</ele>
        <time>2020-06-28T10:44:24Z</time>
      </trkpt>
      <trkpt lat="44.11314" lon="7.31977">
        <ele>1871.834</ele>
        <time>2020-06-28T10:44:40Z</time>
      </trkpt>
      <trkpt lat="44.11315" lon="7.31972">
        <ele>1866.68</ele>
        <time>2020-06-28T10:44:56Z</time>
      </trkpt>
      <trkpt lat="44.11323" lon="7.31971">
        <ele>1872.653</ele>
        <time>2020-06-28T10:45:11Z</time>
      </trkpt>
      <trkpt lat="44.11317" lon="7.31966">
        <ele>1869.872</ele>
        <time>2020-06-28T10:45:26Z</time>
      </trkpt>
      <trkpt lat="44.113" lon="7.31956">
        <ele>1861.907</ele>
        <time>2020-06-28T10:45:42Z</time>
      </trkpt>
      <trkpt lat="44.113" lon="7.31952">
        <ele>1861.178</ele>
        <time>2020-06-28T10:45:58Z</time>
      </trkpt>
      <trkpt lat="44.11292" lon="7.31943">
        <ele>1859.33</ele>
        <time>2020-06-28T10:46:13Z</time>
      </trkpt>
      <trkpt lat="44.1129" lon="7.31941">
        <ele>1858.699</ele>
        <time>2020-06-28T10:46:29Z</time>
      </trkpt>
      <trkpt lat="44.11291" lon="7.31939">
        <ele>1859.746</ele>
        <time>2020-06-28T10:46:44Z</time>
      </trkpt>
      <trkpt lat="44.11291" lon="7.31938">
        <ele>1861.771</ele>
        <time>2020-06-28T10:47:00Z</time>
      </trkpt>
      <trkpt lat="44.11288" lon="7.31941">
        <ele>1862.781</ele>
        <time>2020-06-28T10:47:15Z</time>
      </trkpt>
      <trkpt lat="44.11288" lon="7.31939">
        <ele>1862.211</ele>
        <time>2020-06-28T10:47:30Z</time>
      </trkpt>
      <trkpt lat="44.11286" lon="7.31937">
        <ele>1862.908</ele>
        <time>2020-06-28T10:47:46Z</time>
      </trkpt>
      <trkpt lat="44.11287" lon="7.3194">
        <ele>1862.785</ele>
        <time>2020-06-28T10:48:01Z</time>
      </trkpt>
      <trkpt lat="44.11287" lon="7.3194">
        <ele>1862.785</ele>
        <time>2020-06-28T10:48:16Z</time>
      </trkpt>
      <trkpt lat="44.11287" lon="7.31933">
        <ele>1864.197</ele>
        <time>2020-06-28T10:48:32Z</time>
      </trkpt>
      <trkpt lat="44.11284" lon="7.31937">
        <ele>1861.841</ele>
        <time>2020-06-28T10:48:47Z</time>
      </trkpt>
      <trkpt lat="44.11276" lon="7.31937">
        <ele>1860.165</ele>
        <time>2020-06-28T10:49:02Z</time>
      </trkpt>
      <trkpt lat="44.11273" lon="7.31926">
        <ele>1861.528</ele>
        <time>2020-06-28T10:49:18Z</time>
      </trkpt>
      <trkpt lat="44.11277" lon="7.31923">
        <ele>1857.345</ele>
        <time>2020-06-28T10:49:33Z</time>
      </trkpt>
      <trkpt lat="44.1127" lon="7.31922">
        <ele>1860.878</ele>
        <time>2020-06-28T10:49:48Z</time>
      </trkpt>
      <trkpt lat="44.11265" lon="7.31921">
        <ele>1862.253</ele>
        <time>2020-06-28T10:50:04Z</time>
      </trkpt>
      <trkpt lat="44.11265" lon="7.31916">
        <ele>1862.118</ele>
        <time>2020-06-28T10:50:20Z</time>
      </trkpt>
      <trkpt lat="44.11259" lon="7.31937">
        <ele>1866.565</ele>
        <time>2020-06-28T10:50:35Z</time>
      </trkpt>
      <trkpt lat="44.11261" lon="7.31937">
        <ele>1863.609</ele>
        <time>2020-06-28T10:50:51Z</time>
      </trkpt>
      <trkpt lat="44.11263" lon="7.31942">
        <ele>1860.406</ele>
        <time>2020-06-28T10:51:07Z</time>
      </trkpt>
      <trkpt lat="44.11252" lon="7.3194">
        <ele>1858.126</ele>
        <time>2020-06-28T10:51:22Z</time>
      </trkpt>
      <trkpt lat="44.11251" lon="7.31936">
        <ele>1851.89</ele>
        <time>2020-06-28T10:51:38Z</time>
      </trkpt>
      <trkpt lat="44.1124" lon="7.31928">
        <ele>1849.522</ele>
        <time>2020-06-28T10:51:54Z</time>
      </trkpt>
      <trkpt lat="44.11232" lon="7.31934">
        <ele>1845.499</ele>
        <time>2020-06-28T10:52:10Z</time>
      </trkpt>
      <trkpt lat="44.1123" lon="7.31933">
        <ele>1847</ele>
        <time>2020-06-28T10:52:25Z</time>
      </trkpt>
      <trkpt lat="44.11229" lon="7.31926">
        <ele>1847.157</ele>
        <time>2020-06-28T10:52:41Z</time>
      </trkpt>
      <trkpt lat="44.11226" lon="7.31925">
        <ele>1846.824</ele>
        <time>2020-06-28T10:52:57Z</time>
      </trkpt>
      <trkpt lat="44.1123" lon="7.31926">
        <ele>1843.158</ele>
        <time>2020-06-28T10:53:13Z</time>
      </trkpt>
      <trkpt lat="44.11227" lon="7.31922">
        <ele>1842.351</ele>
        <time>2020-06-28T10:53:29Z</time>
      </trkpt>
      <trkpt lat="44.11225" lon="7.31924">
        <ele>1845.167</ele>
        <time>2020-06-28T10:53:45Z</time>
      </trkpt>
      <trkpt lat="44.11223" lon="7.31923">
        <ele>1843.362</ele>
        <time>2020-06-28T10:54:01Z</time>
      </trkpt>
      <trkpt lat="44.11227" lon="7.31939">
        <ele>1840.197</ele>
        <time>2020-06-28T10:54:16Z</time>
      </trkpt>
      <trkpt lat="44.11219" lon="7.31946">
        <ele>1840.463</ele>
        <time>2020-06-28T10:54:32Z</time>
      </trkpt>
      <trkpt lat="44.11213" lon="7.31947">
        <ele>1838.148</ele>
        <time>2020-06-28T10:54:47Z</time>
      </trkpt>
      <trkpt lat="44.11213" lon="7.31954">
        <ele>1835.707</ele>
        <time>2020-06-28T10:55:03Z</time>
      </trkpt>
      <trkpt lat="44.11207" lon="7.31951">
        <ele>1835.883</ele>
        <time>2020-06-28T10:55:19Z</time>
      </trkpt>
      <trkpt lat="44.11209" lon="7.31952">
        <ele>1836.088</ele>
        <time>2020-06-28T10:55:34Z</time>
      </trkpt>
      <trkpt lat="44.11204" lon="7.31941">
        <ele>1833.234</ele>
        <time>2020-06-28T10:55:50Z</time>
      </trkpt>
      <trkpt lat="44.11196" lon="7.31932">
        <ele>1833.736</ele>
        <time>2020-06-28T10:56:05Z</time>
      </trkpt>
      <trkpt lat="44.11183" lon="7.31919">
        <ele>1832.615</ele>
        <time>2020-06-28T10:56:21Z</time>
      </trkpt>
      <trkpt lat="44.1117" lon="7.31904">
        <ele>1831.886</ele>
        <time>2020-06-28T10:56:37Z</time>
      </trkpt>
      <trkpt lat="44.11162" lon="7.31895">
        <ele>1826.277</ele>
        <time>2020-06-28T10:56:52Z</time>
      </trkpt>
      <trkpt lat="44.1116" lon="7.31901">
        <ele>1820.011</ele>
        <time>2020-06-28T10:57:07Z</time>
      </trkpt>
      <trkpt lat="44.11157" lon="7.31906">
        <ele>1818.784</ele>
        <time>2020-06-28T10:57:23Z</time>
      </trkpt>
      <trkpt lat="44.11159" lon="7.31903">
        <ele>1820.645</ele>
        <time>2020-06-28T10:57:39Z</time>
      </trkpt>
      <trkpt lat="44.11158" lon="7.31901">
        <ele>1815.216</ele>
        <time>2020-06-28T10:57:54Z</time>
      </trkpt>
      <trkpt lat="44.11158" lon="7.31896">
        <ele>1814.907</ele>
        <time>2020-06-28T10:58:10Z</time>
      </trkpt>
      <trkpt lat="44.11152" lon="7.31888">
        <ele>1815.279</ele>
        <time>2020-06-28T10:58:26Z</time>
      </trkpt>
      <trkpt lat="44.11155" lon="7.31892">
        <ele>1817.737</ele>
        <time>2020-06-28T10:58:42Z</time>
      </trkpt>
      <trkpt lat="44.11153" lon="7.31897">
        <ele>1817.619</ele>
        <time>2020-06-28T10:58:57Z</time>
      </trkpt>
      <trkpt lat="44.11148" lon="7.31905">
        <ele>1817.41</ele>
        <time>2020-06-28T10:59:13Z</time>
      </trkpt>
      <trkpt lat="44.11141" lon="7.31899">
        <ele>1817.155</ele>
        <time>2020-06-28T10:59:28Z</time>
      </trkpt>
      <trkpt lat="44.11139" lon="7.3189">
        <ele>1817.402</ele>
        <time>2020-06-28T10:59:44Z</time>
      </trkpt>
      <trkpt lat="44.1114" lon="7.31894">
        <ele>1818.257</ele>
        <time>2020-06-28T11:00:00Z</time>
      </trkpt>
      <trkpt lat="44.1114" lon="7.31897">
        <ele>1816.018</ele>
        <time>2020-06-28T11:00:15Z</time>
      </trkpt>
      <trkpt lat="44.11137" lon="7.31906">
        <ele>1812.477</ele>
        <time>2020-06-28T11:00:31Z</time>
      </trkpt>
      <trkpt lat="44.11133" lon="7.31912">
        <ele>1808.939</ele>
        <time>2020-06-28T11:00:47Z</time>
      </trkpt>
      <trkpt lat="44.1114" lon="7.31921">
        <ele>1811.262</ele>
        <time>2020-06-28T11:01:02Z</time>
      </trkpt>
      <trkpt lat="44.11131" lon="7.3191">
        <ele>1811.893</ele>
        <time>2020-06-28T11:01:18Z</time>
      </trkpt>
      <trkpt lat="44.11133" lon="7.31906">
        <ele>1810.746</ele>
        <time>2020-06-28T11:01:33Z</time>
      </trkpt>
      <trkpt lat="44.11138" lon="7.31877">
        <ele>1811.803</ele>
        <time>2020-06-28T11:01:49Z</time>
      </trkpt>
      <trkpt lat="44.11132" lon="7.31867">
        <ele>1816.469</ele>
        <time>2020-06-28T11:02:04Z</time>
      </trkpt>
      <trkpt lat="44.11124" lon="7.31856">
        <ele>1815.023</ele>
        <time>2020-06-28T11:02:20Z</time>
      </trkpt>
      <trkpt lat="44.11123" lon="7.31857">
        <ele>1817.305</ele>
        <time>2020-06-28T11:02:35Z</time>
      </trkpt>
      <trkpt lat="44.11109" lon="7.31822">
        <ele>1813.369</ele>
        <time>2020-06-28T11:02:51Z</time>
      </trkpt>
      <trkpt lat="44.11094" lon="7.31814">
        <ele>1804.495</ele>
        <time>2020-06-28T11:03:07Z</time>
      </trkpt>
      <trkpt lat="44.11097" lon="7.31806">
        <ele>1805.779</ele>
        <time>2020-06-28T11:03:22Z</time>
      </trkpt>
      <trkpt lat="44.11096" lon="7.31808">
        <ele>1806.616</ele>
        <time>2020-06-28T11:03:38Z</time>
      </trkpt>
      <trkpt lat="44.11083" lon="7.31802">
        <ele>1801.173</ele>
        <time>2020-06-28T11:03:53Z</time>
      </trkpt>
      <trkpt lat="44.11078" lon="7.31789">
        <ele>1801.371</ele>
        <time>2020-06-28T11:04:09Z</time>
      </trkpt>
      <trkpt lat="44.11068" lon="7.3179">
        <ele>1798.239</ele>
        <time>2020-06-28T11:04:25Z</time>
      </trkpt>
      <trkpt lat="44.11052" lon="7.31764">
        <ele>1795.404</ele>
        <time>2020-06-28T11:04:41Z</time>
      </trkpt>
      <trkpt lat="44.11052" lon="7.31757">
        <ele>1800.585</ele>
        <time>2020-06-28T11:04:57Z</time>
      </trkpt>
      <trkpt lat="44.1105" lon="7.3175">
        <ele>1798.536</ele>
        <time>2020-06-28T11:05:13Z</time>
      </trkpt>
      <trkpt lat="44.11032" lon="7.31748">
        <ele>1789.506</ele>
        <time>2020-06-28T11:05:29Z</time>
      </trkpt>
      <trkpt lat="44.11019" lon="7.31753">
        <ele>1782.371</ele>
        <time>2020-06-28T11:05:44Z</time>
      </trkpt>
      <trkpt lat="44.11018" lon="7.31742">
        <ele>1779.02</ele>
        <time>2020-06-28T11:05:59Z</time>
      </trkpt>
      <trkpt lat="44.11014" lon="7.31741">
        <ele>1779.188</ele>
        <time>2020-06-28T11:06:14Z</time>
      </trkpt>
      <trkpt lat="44.11005" lon="7.31735">
        <ele>1775.682</ele>
        <time>2020-06-28T11:06:30Z</time>
      </trkpt>
      <trkpt lat="44.11002" lon="7.31724">
        <ele>1774.852</ele>
        <time>2020-06-28T11:06:45Z</time>
      </trkpt>
      <trkpt lat="44.10995" lon="7.31709">
        <ele>1774.232</ele>
        <time>2020-06-28T11:07:01Z</time>
      </trkpt>
      <trkpt lat="44.10991" lon="7.31704">
        <ele>1776.071</ele>
        <time>2020-06-28T11:07:17Z</time>
      </trkpt>
      <trkpt lat="44.10991" lon="7.31704">
        <ele>1773.58</ele>
        <time>2020-06-28T11:07:32Z</time>
      </trkpt>
      <trkpt lat="44.10984" lon="7.31713">
        <ele>1775.129</ele>
        <time>2020-06-28T11:07:48Z</time>
      </trkpt>
      <trkpt lat="44.1098" lon="7.31715">
        <ele>1775.334</ele>
        <time>2020-06-28T11:08:03Z</time>
      </trkpt>
      <trkpt lat="44.10982" lon="7.31709">
        <ele>1774.385</ele>
        <time>2020-06-28T11:08:19Z</time>
      </trkpt>
      <trkpt lat="44.10986" lon="7.31697">
        <ele>1772.656</ele>
        <time>2020-06-28T11:08:35Z</time>
      </trkpt>
      <trkpt lat="44.10986" lon="7.31682">
        <ele>1770.552</ele>
        <time>2020-06-28T11:08:50Z</time>
      </trkpt>
      <trkpt lat="44.10972" lon="7.31663">
        <ele>1766.976</ele>
        <time>2020-06-28T11:09:06Z</time>
      </trkpt>
      <trkpt lat="44.10971" lon="7.31659">
        <ele>1763.5</ele>
        <time>2020-06-28T11:09:22Z</time>
      </trkpt>
      <trkpt lat="44.10967" lon="7.31664">
        <ele>1758.047</ele>
        <time>2020-06-28T11:09:38Z</time>
      </trkpt>
      <trkpt lat="44.10965" lon="7.31652">
        <ele>1758.081</ele>
        <time>2020-06-28T11:09:53Z</time>
      </trkpt>
      <trkpt lat="44.10962" lon="7.31638">
        <ele>1757.437</ele>
        <time>2020-06-28T11:10:08Z</time>
      </trkpt>
      <trkpt lat="44.10975" lon="7.3161">
        <ele>1753.754</ele>
        <time>2020-06-28T11:10:24Z</time>
      </trkpt>
      <trkpt lat="44.10972" lon="7.31608">
        <ele>1755.2</ele>
        <time>2020-06-28T11:10:40Z</time>
      </trkpt>
      <trkpt lat="44.10958" lon="7.31569">
        <ele>1755.729</ele>
        <time>2020-06-28T11:10:55Z</time>
      </trkpt>
      <trkpt lat="44.1096" lon="7.31568">
        <ele>1755.552</ele>
        <time>2020-06-28T11:11:11Z</time>
      </trkpt>
      <trkpt lat="44.10958" lon="7.31556">
        <ele>1753.264</ele>
        <time>2020-06-28T11:11:27Z</time>
      </trkpt>
      <trkpt lat="44.10951" lon="7.31532">
        <ele>1750.025</ele>
        <time>2020-06-28T11:11:42Z</time>
      </trkpt>
      <trkpt lat="44.1096" lon="7.31518">
        <ele>1747.412</ele>
        <time>2020-06-28T11:11:58Z</time>
      </trkpt>
      <trkpt lat="44.10975" lon="7.3151">
        <ele>1743.924</ele>
        <time>2020-06-28T11:12:14Z</time>
      </trkpt>
      <trkpt lat="44.10978" lon="7.31507">
        <ele>1743.569</ele>
        <time>2020-06-28T11:12:29Z</time>
      </trkpt>
      <trkpt lat="44.10967" lon="7.31472">
        <ele>1738.978</ele>
        <time>2020-06-28T11:12:44Z</time>
      </trkpt>
      <trkpt lat="44.10974" lon="7.31457">
        <ele>1736.662</ele>
        <time>2020-06-28T11:12:59Z</time>
      </trkpt>
      <trkpt lat="44.10996" lon="7.31435">
        <ele>1737.731</ele>
        <time>2020-06-28T11:13:15Z</time>
      </trkpt>
      <trkpt lat="44.11003" lon="7.31415">
        <ele>1720.858</ele>
        <time>2020-06-28T11:13:31Z</time>
      </trkpt>
      <trkpt lat="44.11009" lon="7.31392">
        <ele>1720.509</ele>
        <time>2020-06-28T11:13:47Z</time>
      </trkpt>
      <trkpt lat="44.11024" lon="7.31378">
        <ele>1715.245</ele>
        <time>2020-06-28T11:14:03Z</time>
      </trkpt>
      <trkpt lat="44.11033" lon="7.31356">
        <ele>1709.414</ele>
        <time>2020-06-28T11:14:18Z</time>
      </trkpt>
      <trkpt lat="44.11035" lon="7.31342">
        <ele>1709.403</ele>
        <time>2020-06-28T11:14:33Z</time>
      </trkpt>
      <trkpt lat="44.11038" lon="7.31313">
        <ele>1710.794</ele>
        <time>2020-06-28T11:14:48Z</time>
      </trkpt>
      <trkpt lat="44.11036" lon="7.31306">
        <ele>1713.036</ele>
        <time>2020-06-28T11:15:04Z</time>
      </trkpt>
      <trkpt lat="44.1103" lon="7.313">
        <ele>1713.253</ele>
        <time>2020-06-28T11:15:20Z</time>
      </trkpt>
      <trkpt lat="44.11032" lon="7.31286">
        <ele>1713.783</ele>
        <time>2020-06-28T11:15:35Z</time>
      </trkpt>
      <trkpt lat="44.11034" lon="7.31279">
        <ele>1713.938</ele>
        <time>2020-06-28T11:15:50Z</time>
      </trkpt>
      <trkpt lat="44.11044" lon="7.31266">
        <ele>1709.821</ele>
        <time>2020-06-28T11:16:06Z</time>
      </trkpt>
      <trkpt lat="44.11051" lon="7.31246">
        <ele>1705.674</ele>
        <time>2020-06-28T11:16:21Z</time>
      </trkpt>
      <trkpt lat="44.11055" lon="7.31234">
        <ele>1707.822</ele>
        <time>2020-06-28T11:16:37Z</time>
      </trkpt>
      <trkpt lat="44.1106" lon="7.31219">
        <ele>1705.193</ele>
        <time>2020-06-28T11:16:53Z</time>
      </trkpt>
      <trkpt lat="44.11063" lon="7.31201">
        <ele>1703.635</ele>
        <time>2020-06-28T11:17:08Z</time>
      </trkpt>
      <trkpt lat="44.1106" lon="7.31196">
        <ele>1704.197</ele>
        <time>2020-06-28T11:17:24Z</time>
      </trkpt>
      <trkpt lat="44.11051" lon="7.31185">
        <ele>1708.917</ele>
        <time>2020-06-28T11:17:40Z</time>
      </trkpt>
      <trkpt lat="44.11052" lon="7.31178">
        <ele>1712.796</ele>
        <time>2020-06-28T11:17:55Z</time>
      </trkpt>
      <trkpt lat="44.11046" lon="7.31173">
        <ele>1711.389</ele>
        <time>2020-06-28T11:18:11Z</time>
      </trkpt>
      <trkpt lat="44.11051" lon="7.31172">
        <ele>1706.186</ele>
        <time>2020-06-28T11:18:27Z</time>
      </trkpt>
      <trkpt lat="44.11067" lon="7.31164">
        <ele>1705.665</ele>
        <time>2020-06-28T11:18:43Z</time>
      </trkpt>
      <trkpt lat="44.11083" lon="7.31179">
        <ele>1695.766</ele>
        <time>2020-06-28T11:18:58Z</time>
      </trkpt>
      <trkpt lat="44.11083" lon="7.31179">
        <ele>1695.766</ele>
        <time>2020-06-28T11:19:15Z</time>
      </trkpt>
      <trkpt lat="44.11091" lon="7.31165">
        <ele>1692.778</ele>
        <time>2020-06-28T11:19:31Z</time>
      </trkpt>
      <trkpt lat="44.11101" lon="7.31154">
        <ele>1691.217</ele>
        <time>2020-06-28T11:19:46Z</time>
      </trkpt>
      <trkpt lat="44.11096" lon="7.31124">
        <ele>1683.83</ele>
        <time>2020-06-28T11:20:02Z</time>
      </trkpt>
      <trkpt lat="44.111" lon="7.31085">
        <ele>1674.958</ele>
        <time>2020-06-28T11:20:17Z</time>
      </trkpt>
      <trkpt lat="44.111" lon="7.31074">
        <ele>1673.025</ele>
        <time>2020-06-28T11:20:33Z</time>
      </trkpt>
      <trkpt lat="44.11101" lon="7.31059">
        <ele>1677.696</ele>
        <time>2020-06-28T11:20:49Z</time>
      </trkpt>
      <trkpt lat="44.11103" lon="7.31029">
        <ele>1674.244</ele>
        <time>2020-06-28T11:21:04Z</time>
      </trkpt>
      <trkpt lat="44.11106" lon="7.31013">
        <ele>1672.444</ele>
        <time>2020-06-28T11:21:19Z</time>
      </trkpt>
      <trkpt lat="44.11111" lon="7.31007">
        <ele>1675.516</ele>
        <time>2020-06-28T11:21:35Z</time>
      </trkpt>
      <trkpt lat="44.11107" lon="7.30999">
        <ele>1677.286</ele>
        <time>2020-06-28T11:21:51Z</time>
      </trkpt>
      <trkpt lat="44.1111" lon="7.30984">
        <ele>1678.53</ele>
        <time>2020-06-28T11:22:07Z</time>
      </trkpt>
      <trkpt lat="44.11118" lon="7.3096">
        <ele>1682.232</ele>
        <time>2020-06-28T11:22:23Z</time>
      </trkpt>
      <trkpt lat="44.11133" lon="7.30952">
        <ele>1679.064</ele>
        <time>2020-06-28T11:22:39Z</time>
      </trkpt>
      <trkpt lat="44.11134" lon="7.3094">
        <ele>1684.902</ele>
        <time>2020-06-28T11:22:54Z</time>
      </trkpt>
      <trkpt lat="44.11142" lon="7.30919">
        <ele>1688.394</ele>
        <time>2020-06-28T11:23:10Z</time>
      </trkpt>
      <trkpt lat="44.11152" lon="7.30898">
        <ele>1685.264</ele>
        <time>2020-06-28T11:23:26Z</time>
      </trkpt>
      <trkpt lat="44.11163" lon="7.30891">
        <ele>1688.539</ele>
        <time>2020-06-28T11:23:42Z</time>
      </trkpt>
      <trkpt lat="44.11164" lon="7.30873">
        <ele>1691.129</ele>
        <time>2020-06-28T11:23:58Z</time>
      </trkpt>
      <trkpt lat="44.11168" lon="7.30841">
        <ele>1695.552</ele>
        <time>2020-06-28T11:24:14Z</time>
      </trkpt>
      <trkpt lat="44.11174" lon="7.30839">
        <ele>1692.2</ele>
        <time>2020-06-28T11:24:29Z</time>
      </trkpt>
      <trkpt lat="44.11192" lon="7.30814">
        <ele>1688.916</ele>
        <time>2020-06-28T11:24:45Z</time>
      </trkpt>
      <trkpt lat="44.1121" lon="7.30787">
        <ele>1690.105</ele>
        <time>2020-06-28T11:25:01Z</time>
      </trkpt>
      <trkpt lat="44.1121" lon="7.30786">
        <ele>1692.456</ele>
        <time>2020-06-28T11:25:16Z</time>
      </trkpt>
      <trkpt lat="44.11217" lon="7.3078">
        <ele>1689.414</ele>
        <time>2020-06-28T11:25:31Z</time>
      </trkpt>
      <trkpt lat="44.11222" lon="7.30772">
        <ele>1691.054</ele>
        <time>2020-06-28T11:25:46Z</time>
      </trkpt>
      <trkpt lat="44.11222" lon="7.30758">
        <ele>1691.772</ele>
        <time>2020-06-28T11:26:02Z</time>
      </trkpt>
      <trkpt lat="44.11228" lon="7.30751">
        <ele>1693.594</ele>
        <time>2020-06-28T11:26:17Z</time>
      </trkpt>
      <trkpt lat="44.11226" lon="7.30716">
        <ele>1698.964</ele>
        <time>2020-06-28T11:26:33Z</time>
      </trkpt>
      <trkpt lat="44.11217" lon="7.30699">
        <ele>1699.256</ele>
        <time>2020-06-28T11:26:48Z</time>
      </trkpt>
      <trkpt lat="44.11212" lon="7.30684">
        <ele>1697.268</ele>
        <time>2020-06-28T11:27:03Z</time>
      </trkpt>
      <trkpt lat="44.11214" lon="7.30675">
        <ele>1693.017</ele>
        <time>2020-06-28T11:27:19Z</time>
      </trkpt>
      <trkpt lat="44.11225" lon="7.30673">
        <ele>1698.077</ele>
        <time>2020-06-28T11:27:34Z</time>
      </trkpt>
      <trkpt lat="44.11229" lon="7.30675">
        <ele>1698.027</ele>
        <time>2020-06-28T11:27:49Z</time>
      </trkpt>
      <trkpt lat="44.11226" lon="7.30672">
        <ele>1698.221</ele>
        <time>2020-06-28T11:28:05Z</time>
      </trkpt>
      <trkpt lat="44.11221" lon="7.30648">
        <ele>1702.77</ele>
        <time>2020-06-28T11:28:20Z</time>
      </trkpt>
      <trkpt lat="44.11228" lon="7.3064">
        <ele>1706.988</ele>
        <time>2020-06-28T11:28:35Z</time>
      </trkpt>
      <trkpt lat="44.11229" lon="7.30629">
        <ele>1705.974</ele>
        <time>2020-06-28T11:28:51Z</time>
      </trkpt>
      <trkpt lat="44.11226" lon="7.30622">
        <ele>1707.898</ele>
        <time>2020-06-28T11:29:06Z</time>
      </trkpt>
      <trkpt lat="44.11224" lon="7.30619">
        <ele>1710.024</ele>
        <time>2020-06-28T11:29:22Z</time>
      </trkpt>
      <trkpt lat="44.11222" lon="7.3062">
        <ele>1711.643</ele>
        <time>2020-06-28T11:29:38Z</time>
      </trkpt>
      <trkpt lat="44.11222" lon="7.30619">
        <ele>1714.721</ele>
        <time>2020-06-28T11:29:54Z</time>
      </trkpt>
      <trkpt lat="44.11222" lon="7.30619">
        <ele>1714.721</ele>
        <time>2020-06-28T11:30:09Z</time>
      </trkpt>
      <trkpt lat="44.11223" lon="7.30611">
        <ele>1715.801</ele>
        <time>2020-06-28T11:30:25Z</time>
      </trkpt>
      <trkpt lat="44.11224" lon="7.306">
        <ele>1720.817</ele>
        <time>2020-06-28T11:30:40Z</time>
      </trkpt>
      <trkpt lat="44.11225" lon="7.30592">
        <ele>1723.137</ele>
        <time>2020-06-28T11:30:55Z</time>
      </trkpt>
      <trkpt lat="44.11225" lon="7.30592">
        <ele>1723.137</ele>
        <time>2020-06-28T11:31:10Z</time>
      </trkpt>
      <trkpt lat="44.11225" lon="7.30592">
        <ele>1723.137</ele>
        <time>2020-06-28T11:31:26Z</time>
      </trkpt>
      <trkpt lat="44.11229" lon="7.3058">
        <ele>1730.911</ele>
        <time>2020-06-28T11:31:42Z</time>
      </trkpt>
      <trkpt lat="44.1123" lon="7.30562">
        <ele>1727.282</ele>
        <time>2020-06-28T11:31:57Z</time>
      </trkpt>
      <trkpt lat="44.1123" lon="7.30561">
        <ele>1727.038</ele>
        <time>2020-06-28T11:32:13Z</time>
      </trkpt>
      <trkpt lat="44.1123" lon="7.30561">
        <ele>1727.038</ele>
        <time>2020-06-28T11:32:29Z</time>
      </trkpt>
      <trkpt lat="44.1123" lon="7.30561">
        <ele>1727.038</ele>
        <time>2020-06-28T11:32:44Z</time>
      </trkpt>
      <trkpt lat="44.11234" lon="7.30536">
        <ele>1730.523</ele>
        <time>2020-06-28T11:32:59Z</time>
      </trkpt>
      <trkpt lat="44.11251" lon="7.3052">
        <ele>1730.821</ele>
        <time>2020-06-28T11:33:15Z</time>
      </trkpt>
      <trkpt lat="44.1125" lon="7.30513">
        <ele>1735.154</ele>
        <time>2020-06-28T11:33:31Z</time>
      </trkpt>
      <trkpt lat="44.11266" lon="7.30494">
        <ele>1731.21</ele>
        <time>2020-06-28T11:33:47Z</time>
      </trkpt>
      <trkpt lat="44.11278" lon="7.30488">
        <ele>1729.371</ele>
        <time>2020-06-28T11:34:03Z</time>
      </trkpt>
      <trkpt lat="44.11282" lon="7.30497">
        <ele>1727.11</ele>
        <time>2020-06-28T11:34:19Z</time>
      </trkpt>
      <trkpt lat="44.11292" lon="7.30479">
        <ele>1724.195</ele>
        <time>2020-06-28T11:34:34Z</time>
      </trkpt>
      <trkpt lat="44.11295" lon="7.30467">
        <ele>1730.605</ele>
        <time>2020-06-28T11:34:50Z</time>
      </trkpt>
      <trkpt lat="44.11295" lon="7.30447">
        <ele>1729.818</ele>
        <time>2020-06-28T11:35:05Z</time>
      </trkpt>
      <trkpt lat="44.11285" lon="7.30405">
        <ele>1728.613</ele>
        <time>2020-06-28T11:35:21Z</time>
      </trkpt>
      <trkpt lat="44.11307" lon="7.30398">
        <ele>1726.948</ele>
        <time>2020-06-28T11:35:37Z</time>
      </trkpt>
      <trkpt lat="44.11318" lon="7.30388">
        <ele>1730.1</ele>
        <time>2020-06-28T11:35:53Z</time>
      </trkpt>
      <trkpt lat="44.1132" lon="7.30358">
        <ele>1725.022</ele>
        <time>2020-06-28T11:36:08Z</time>
      </trkpt>
      <trkpt lat="44.11323" lon="7.3033">
        <ele>1733.442</ele>
        <time>2020-06-28T11:36:24Z</time>
      </trkpt>
      <trkpt lat="44.11325" lon="7.3033">
        <ele>1732.813</ele>
        <time>2020-06-28T11:36:40Z</time>
      </trkpt>
      <trkpt lat="44.11325" lon="7.30313">
        <ele>1730.578</ele>
        <time>2020-06-28T11:36:56Z</time>
      </trkpt>
      <trkpt lat="44.1133" lon="7.30306">
        <ele>1728.1</ele>
        <time>2020-06-28T11:37:11Z</time>
      </trkpt>
      <trkpt lat="44.11338" lon="7.30288">
        <ele>1728.197</ele>
        <time>2020-06-28T11:37:26Z</time>
      </trkpt>
      <trkpt lat="44.11348" lon="7.30273">
        <ele>1732.055</ele>
        <time>2020-06-28T11:37:42Z</time>
      </trkpt>
      <trkpt lat="44.11353" lon="7.30243">
        <ele>1731.995</ele>
        <time>2020-06-28T11:37:58Z</time>
      </trkpt>
      <trkpt lat="44.11353" lon="7.3023">
        <ele>1730.234</ele>
        <time>2020-06-28T11:38:13Z</time>
      </trkpt>
      <trkpt lat="44.11363" lon="7.30204">
        <ele>1728.939</ele>
        <time>2020-06-28T11:38:29Z</time>
      </trkpt>
      <trkpt lat="44.11371" lon="7.30191">
        <ele>1728.236</ele>
        <time>2020-06-28T11:38:44Z</time>
      </trkpt>
      <trkpt lat="44.11372" lon="7.3019">
        <ele>1728.438</ele>
        <time>2020-06-28T11:39:00Z</time>
      </trkpt>
      <trkpt lat="44.11379" lon="7.30166">
        <ele>1727.397</ele>
        <time>2020-06-28T11:39:16Z</time>
      </trkpt>
      <trkpt lat="44.11388" lon="7.30141">
        <ele>1729.999</ele>
        <time>2020-06-28T11:39:32Z</time>
      </trkpt>
      <trkpt lat="44.11387" lon="7.30115">
        <ele>1733.463</ele>
        <time>2020-06-28T11:39:48Z</time>
      </trkpt>
      <trkpt lat="44.11396" lon="7.30095">
        <ele>1739.278</ele>
        <time>2020-06-28T11:40:04Z</time>
      </trkpt>
      <trkpt lat="44.11402" lon="7.30075">
        <ele>1738.782</ele>
        <time>2020-06-28T11:40:20Z</time>
      </trkpt>
      <trkpt lat="44.11412" lon="7.30055">
        <ele>1737.412</ele>
        <time>2020-06-28T11:40:36Z</time>
      </trkpt>
      <trkpt lat="44.11422" lon="7.30034">
        <ele>1736.064</ele>
        <time>2020-06-28T11:40:51Z</time>
      </trkpt>
      <trkpt lat="44.11422" lon="7.3002">
        <ele>1734.343</ele>
        <time>2020-06-28T11:41:06Z</time>
      </trkpt>
      <trkpt lat="44.11435" lon="7.30013">
        <ele>1731.627</ele>
        <time>2020-06-28T11:41:22Z</time>
      </trkpt>
      <trkpt lat="44.11437" lon="7.30003">
        <ele>1731.391</ele>
        <time>2020-06-28T11:41:38Z</time>
      </trkpt>
      <trkpt lat="44.11432" lon="7.29978">
        <ele>1733.627</ele>
        <time>2020-06-28T11:41:53Z</time>
      </trkpt>
      <trkpt lat="44.11436" lon="7.29963">
        <ele>1734.784</ele>
        <time>2020-06-28T11:42:09Z</time>
      </trkpt>
      <trkpt lat="44.11447" lon="7.2994">
        <ele>1736.085</ele>
        <time>2020-06-28T11:42:24Z</time>
      </trkpt>
      <trkpt lat="44.11457" lon="7.29915">
        <ele>1736.177</ele>
        <time>2020-06-28T11:42:40Z</time>
      </trkpt>
      <trkpt lat="44.11465" lon="7.29901">
        <ele>1737.154</ele>
        <time>2020-06-28T11:42:55Z</time>
      </trkpt>
      <trkpt lat="44.11468" lon="7.29885">
        <ele>1734.577</ele>
        <time>2020-06-28T11:43:10Z</time>
      </trkpt>
      <trkpt lat="44.11465" lon="7.29868">
        <ele>1739.925</ele>
        <time>2020-06-28T11:43:26Z</time>
      </trkpt>
      <trkpt lat="44.1147" lon="7.29858">
        <ele>1738.144</ele>
        <time>2020-06-28T11:43:41Z</time>
      </trkpt>
      <trkpt lat="44.11472" lon="7.29844">
        <ele>1741.104</ele>
        <time>2020-06-28T11:43:57Z</time>
      </trkpt>
      <trkpt lat="44.11478" lon="7.29823">
        <ele>1746.003</ele>
        <time>2020-06-28T11:44:13Z</time>
      </trkpt>
      <trkpt lat="44.11485" lon="7.29798">
        <ele>1745.501</ele>
        <time>2020-06-28T11:44:28Z</time>
      </trkpt>
      <trkpt lat="44.11482" lon="7.29762">
        <ele>1741.234</ele>
        <time>2020-06-28T11:44:44Z</time>
      </trkpt>
      <trkpt lat="44.11492" lon="7.29748">
        <ele>1734.11</ele>
        <time>2020-06-28T11:45:00Z</time>
      </trkpt>
      <trkpt lat="44.115" lon="7.29729">
        <ele>1728.613</ele>
        <time>2020-06-28T11:45:16Z</time>
      </trkpt>
      <trkpt lat="44.11508" lon="7.29709">
        <ele>1729.652</ele>
        <time>2020-06-28T11:45:31Z</time>
      </trkpt>
      <trkpt lat="44.11506" lon="7.29689">
        <ele>1732.829</ele>
        <time>2020-06-28T11:45:47Z</time>
      </trkpt>
      <trkpt lat="44.11513" lon="7.29676">
        <ele>1732.808</ele>
        <time>2020-06-28T11:46:02Z</time>
      </trkpt>
      <trkpt lat="44.11523" lon="7.29654">
        <ele>1730.577</ele>
        <time>2020-06-28T11:46:18Z</time>
      </trkpt>
      <trkpt lat="44.11533" lon="7.29631">
        <ele>1730.237</ele>
        <time>2020-06-28T11:46:33Z</time>
      </trkpt>
      <trkpt lat="44.11538" lon="7.29598">
        <ele>1730.845</ele>
        <time>2020-06-28T11:46:49Z</time>
      </trkpt>
      <trkpt lat="44.11546" lon="7.29573">
        <ele>1729.272</ele>
        <time>2020-06-28T11:47:05Z</time>
      </trkpt>
      <trkpt lat="44.11557" lon="7.29564">
        <ele>1732.618</ele>
        <time>2020-06-28T11:47:21Z</time>
      </trkpt>
      <trkpt lat="44.11567" lon="7.29535">
        <ele>1730.065</ele>
        <time>2020-06-28T11:47:36Z</time>
      </trkpt>
      <trkpt lat="44.1157" lon="7.29523">
        <ele>1732.44</ele>
        <time>2020-06-28T11:47:52Z</time>
      </trkpt>
      <trkpt lat="44.1158" lon="7.29501">
        <ele>1726.288</ele>
        <time>2020-06-28T11:48:08Z</time>
      </trkpt>
      <trkpt lat="44.11595" lon="7.29491">
        <ele>1729.015</ele>
        <time>2020-06-28T11:48:23Z</time>
      </trkpt>
      <trkpt lat="44.11616" lon="7.29476">
        <ele>1730.805</ele>
        <time>2020-06-28T11:48:38Z</time>
      </trkpt>
      <trkpt lat="44.11623" lon="7.29452">
        <ele>1734.689</ele>
        <time>2020-06-28T11:48:54Z</time>
      </trkpt>
      <trkpt lat="44.11632" lon="7.29454">
        <ele>1729.026</ele>
        <time>2020-06-28T11:49:10Z</time>
      </trkpt>
      <trkpt lat="44.11643" lon="7.2944">
        <ele>1732.532</ele>
        <time>2020-06-28T11:49:25Z</time>
      </trkpt>
      <trkpt lat="44.11655" lon="7.2944">
        <ele>1728.303</ele>
        <time>2020-06-28T11:49:41Z</time>
      </trkpt>
      <trkpt lat="44.11652" lon="7.29433">
        <ele>1726.479</ele>
        <time>2020-06-28T11:49:57Z</time>
      </trkpt>
      <trkpt lat="44.11631" lon="7.29432">
        <ele>1724.502</ele>
        <time>2020-06-28T11:50:13Z</time>
      </trkpt>
      <trkpt lat="44.1162" lon="7.29423">
        <ele>1721.754</ele>
        <time>2020-06-28T11:50:29Z</time>
      </trkpt>
      <trkpt lat="44.1161" lon="7.29427">
        <ele>1719.533</ele>
        <time>2020-06-28T11:50:45Z</time>
      </trkpt>
      <trkpt lat="44.11616" lon="7.29428">
        <ele>1717.359</ele>
        <time>2020-06-28T11:51:00Z</time>
      </trkpt>
      <trkpt lat="44.11613" lon="7.29421">
        <ele>1712.878</ele>
        <time>2020-06-28T11:51:16Z</time>
      </trkpt>
      <trkpt lat="44.11618" lon="7.2942">
        <ele>1710.962</ele>
        <time>2020-06-28T11:51:31Z</time>
      </trkpt>
      <trkpt lat="44.11618" lon="7.29407">
        <ele>1709.13</ele>
        <time>2020-06-28T11:51:47Z</time>
      </trkpt>
      <trkpt lat="44.11637" lon="7.29412">
        <ele>1711.035</ele>
        <time>2020-06-28T11:52:02Z</time>
      </trkpt>
      <trkpt lat="44.11649" lon="7.29396">
        <ele>1707.344</ele>
        <time>2020-06-28T11:52:17Z</time>
      </trkpt>
      <trkpt lat="44.11658" lon="7.29385">
        <ele>1706.113</ele>
        <time>2020-06-28T11:52:32Z</time>
      </trkpt>
      <trkpt lat="44.11667" lon="7.29363">
        <ele>1709.489</ele>
        <time>2020-06-28T11:52:48Z</time>
      </trkpt>
      <trkpt lat="44.11673" lon="7.29362">
        <ele>1708.112</ele>
        <time>2020-06-28T11:53:04Z</time>
      </trkpt>
      <trkpt lat="44.1167" lon="7.29357">
        <ele>1706.662</ele>
        <time>2020-06-28T11:53:20Z</time>
      </trkpt>
      <trkpt lat="44.11663" lon="7.29338">
        <ele>1704.935</ele>
        <time>2020-06-28T11:53:35Z</time>
      </trkpt>
      <trkpt lat="44.11646" lon="7.29323">
        <ele>1707.319</ele>
        <time>2020-06-28T11:53:51Z</time>
      </trkpt>
      <trkpt lat="44.11655" lon="7.2931">
        <ele>1703.168</ele>
        <time>2020-06-28T11:54:07Z</time>
      </trkpt>
      <trkpt lat="44.11665" lon="7.29301">
        <ele>1701.862</ele>
        <time>2020-06-28T11:54:23Z</time>
      </trkpt>
      <trkpt lat="44.11678" lon="7.29295">
        <ele>1702.549</ele>
        <time>2020-06-28T11:54:39Z</time>
      </trkpt>
      <trkpt lat="44.11678" lon="7.293">
        <ele>1702.259</ele>
        <time>2020-06-28T11:54:54Z</time>
      </trkpt>
      <trkpt lat="44.11686" lon="7.29317">
        <ele>1701.692</ele>
        <time>2020-06-28T11:55:10Z</time>
      </trkpt>
      <trkpt lat="44.11676" lon="7.2925">
        <ele>1706.244</ele>
        <time>2020-06-28T11:55:25Z</time>
      </trkpt>
      <trkpt lat="44.11675" lon="7.29251">
        <ele>1706.198</ele>
        <time>2020-06-28T11:55:40Z</time>
      </trkpt>
      <trkpt lat="44.11672" lon="7.29245">
        <ele>1706.249</ele>
        <time>2020-06-28T11:55:56Z</time>
      </trkpt>
      <trkpt lat="44.11672" lon="7.29233">
        <ele>1699.024</ele>
        <time>2020-06-28T11:56:11Z</time>
      </trkpt>
      <trkpt lat="44.11663" lon="7.29216">
        <ele>1696.251</ele>
        <time>2020-06-28T11:56:27Z</time>
      </trkpt>
      <trkpt lat="44.11663" lon="7.29222">
        <ele>1695.421</ele>
        <time>2020-06-28T11:56:43Z</time>
      </trkpt>
      <trkpt lat="44.11654" lon="7.29204">
        <ele>1690.459</ele>
        <time>2020-06-28T11:56:58Z</time>
      </trkpt>
      <trkpt lat="44.1165" lon="7.29196">
        <ele>1685.341</ele>
        <time>2020-06-28T11:57:14Z</time>
      </trkpt>
      <trkpt lat="44.11646" lon="7.29187">
        <ele>1683.423</ele>
        <time>2020-06-28T11:57:30Z</time>
      </trkpt>
      <trkpt lat="44.11648" lon="7.29179">
        <ele>1686.578</ele>
        <time>2020-06-28T11:57:45Z</time>
      </trkpt>
      <trkpt lat="44.11645" lon="7.29153">
        <ele>1690.083</ele>
        <time>2020-06-28T11:58:01Z</time>
      </trkpt>
      <trkpt lat="44.11648" lon="7.29134">
        <ele>1688.218</ele>
        <time>2020-06-28T11:58:17Z</time>
      </trkpt>
      <trkpt lat="44.11647" lon="7.29132">
        <ele>1687.145</ele>
        <time>2020-06-28T11:58:33Z</time>
      </trkpt>
      <trkpt lat="44.11648" lon="7.29123">
        <ele>1687.93</ele>
        <time>2020-06-28T11:58:49Z</time>
      </trkpt>
      <trkpt lat="44.11642" lon="7.29107">
        <ele>1686.522</ele>
        <time>2020-06-28T11:59:05Z</time>
      </trkpt>
      <trkpt lat="44.11628" lon="7.29082">
        <ele>1681.958</ele>
        <time>2020-06-28T11:59:21Z</time>
      </trkpt>
      <trkpt lat="44.11618" lon="7.29049">
        <ele>1671.129</ele>
        <time>2020-06-28T11:59:37Z</time>
      </trkpt>
      <trkpt lat="44.11607" lon="7.29045">
        <ele>1663.304</ele>
        <time>2020-06-28T11:59:52Z</time>
      </trkpt>
      <trkpt lat="44.11602" lon="7.29038">
        <ele>1667.661</ele>
        <time>2020-06-28T12:00:07Z</time>
      </trkpt>
      <trkpt lat="44.11591" lon="7.29031">
        <ele>1657.239</ele>
        <time>2020-06-28T12:00:23Z</time>
      </trkpt>
      <trkpt lat="44.11586" lon="7.29028">
        <ele>1650.619</ele>
        <time>2020-06-28T12:00:38Z</time>
      </trkpt>
      <trkpt lat="44.11586" lon="7.29029">
        <ele>1652.376</ele>
        <time>2020-06-28T12:00:53Z</time>
      </trkpt>
      <trkpt lat="44.11579" lon="7.29017">
        <ele>1652.464</ele>
        <time>2020-06-28T12:01:09Z</time>
      </trkpt>
      <trkpt lat="44.11562" lon="7.29021">
        <ele>1645.46</ele>
        <time>2020-06-28T12:01:25Z</time>
      </trkpt>
      <trkpt lat="44.11556" lon="7.29012">
        <ele>1637.542</ele>
        <time>2020-06-28T12:01:41Z</time>
      </trkpt>
      <trkpt lat="44.11552" lon="7.28998">
        <ele>1634.944</ele>
        <time>2020-06-28T12:01:56Z</time>
      </trkpt>
      <trkpt lat="44.11546" lon="7.28977">
        <ele>1628.338</ele>
        <time>2020-06-28T12:02:12Z</time>
      </trkpt>
      <trkpt lat="44.11534" lon="7.2896">
        <ele>1621.633</ele>
        <time>2020-06-28T12:02:28Z</time>
      </trkpt>
      <trkpt lat="44.11522" lon="7.28946">
        <ele>1622.558</ele>
        <time>2020-06-28T12:02:43Z</time>
      </trkpt>
      <trkpt lat="44.11523" lon="7.2893">
        <ele>1624.777</ele>
        <time>2020-06-28T12:02:59Z</time>
      </trkpt>
      <trkpt lat="44.11518" lon="7.28936">
        <ele>1623.008</ele>
        <time>2020-06-28T12:03:15Z</time>
      </trkpt>
      <trkpt lat="44.11524" lon="7.28928">
        <ele>1621.963</ele>
        <time>2020-06-28T12:03:31Z</time>
      </trkpt>
      <trkpt lat="44.11535" lon="7.28947">
        <ele>1620.652</ele>
        <time>2020-06-28T12:03:47Z</time>
      </trkpt>
      <trkpt lat="44.11515" lon="7.28923">
        <ele>1622.495</ele>
        <time>2020-06-28T12:04:02Z</time>
      </trkpt>
      <trkpt lat="44.1151" lon="7.28907">
        <ele>1620.176</ele>
        <time>2020-06-28T12:04:18Z</time>
      </trkpt>
      <trkpt lat="44.11514" lon="7.28896">
        <ele>1615.779</ele>
        <time>2020-06-28T12:04:34Z</time>
      </trkpt>
      <trkpt lat="44.1151" lon="7.28873">
        <ele>1617.744</ele>
        <time>2020-06-28T12:04:49Z</time>
      </trkpt>
      <trkpt lat="44.11507" lon="7.28846">
        <ele>1612.47</ele>
        <time>2020-06-28T12:05:04Z</time>
      </trkpt>
      <trkpt lat="44.11505" lon="7.28825">
        <ele>1611.779</ele>
        <time>2020-06-28T12:05:20Z</time>
      </trkpt>
      <trkpt lat="44.11498" lon="7.28801">
        <ele>1613.056</ele>
        <time>2020-06-28T12:05:35Z</time>
      </trkpt>
      <trkpt lat="44.11495" lon="7.2878">
        <ele>1617.758</ele>
        <time>2020-06-28T12:05:51Z</time>
      </trkpt>
      <trkpt lat="44.11495" lon="7.28757">
        <ele>1621.118</ele>
        <time>2020-06-28T12:06:07Z</time>
      </trkpt>
      <trkpt lat="44.11476" lon="7.28771">
        <ele>1627.137</ele>
        <time>2020-06-28T12:06:22Z</time>
      </trkpt>
      <trkpt lat="44.11465" lon="7.28793">
        <ele>1617.485</ele>
        <time>2020-06-28T12:06:38Z</time>
      </trkpt>
      <trkpt lat="44.11462" lon="7.28813">
        <ele>1603.459</ele>
        <time>2020-06-28T12:06:53Z</time>
      </trkpt>
      <trkpt lat="44.11453" lon="7.28823">
        <ele>1593.264</ele>
        <time>2020-06-28T12:07:09Z</time>
      </trkpt>
      <trkpt lat="44.11444" lon="7.28801">
        <ele>1592.967</ele>
        <time>2020-06-28T12:07:25Z</time>
      </trkpt>
      <trkpt lat="44.11444" lon="7.28791">
        <ele>1594.086</ele>
        <time>2020-06-28T12:07:41Z</time>
      </trkpt>
      <trkpt lat="44.11446" lon="7.28773">
        <ele>1595.132</ele>
        <time>2020-06-28T12:07:57Z</time>
      </trkpt>
      <trkpt lat="44.11446" lon="7.28772">
        <ele>1595.123</ele>
        <time>2020-06-28T12:08:12Z</time>
      </trkpt>
      <trkpt lat="44.11446" lon="7.28764">
        <ele>1590.709</ele>
        <time>2020-06-28T12:08:28Z</time>
      </trkpt>
      <trkpt lat="44.11444" lon="7.2874">
        <ele>1585.86</ele>
        <time>2020-06-28T12:08:43Z</time>
      </trkpt>
      <trkpt lat="44.11442" lon="7.28715">
        <ele>1583.769</ele>
        <time>2020-06-28T12:08:59Z</time>
      </trkpt>
      <trkpt lat="44.11442" lon="7.2869">
        <ele>1579.543</ele>
        <time>2020-06-28T12:09:14Z</time>
      </trkpt>
      <trkpt lat="44.11444" lon="7.28666">
        <ele>1576.625</ele>
        <time>2020-06-28T12:09:30Z</time>
      </trkpt>
      <trkpt lat="44.11437" lon="7.28662">
        <ele>1577.979</ele>
        <time>2020-06-28T12:09:45Z</time>
      </trkpt>
      <trkpt lat="44.11434" lon="7.28674">
        <ele>1572.654</ele>
        <time>2020-06-28T12:10:01Z</time>
      </trkpt>
      <trkpt lat="44.11434" lon="7.28674">
        <ele>1572.654</ele>
        <time>2020-06-28T12:10:17Z</time>
      </trkpt>
      <trkpt lat="44.11434" lon="7.28674">
        <ele>1572.654</ele>
        <time>2020-06-28T12:10:33Z</time>
      </trkpt>
      <trkpt lat="44.11434" lon="7.28674">
        <ele>1572.654</ele>
        <time>2020-06-28T12:10:48Z</time>
      </trkpt>
      <trkpt lat="44.11434" lon="7.28674">
        <ele>1572.654</ele>
        <time>2020-06-28T12:11:05Z</time>
      </trkpt>
      <trkpt lat="44.11434" lon="7.28674">
        <ele>1572.654</ele>
        <time>2020-06-28T12:11:21Z</time>
      </trkpt>
      <trkpt lat="44.11437" lon="7.28673">
        <ele>1572.311</ele>
        <time>2020-06-28T12:11:36Z</time>
      </trkpt>
      <trkpt lat="44.11437" lon="7.28673">
        <ele>1572.311</ele>
        <time>2020-06-28T12:11:52Z</time>
      </trkpt>
      <trkpt lat="44.11437" lon="7.28673">
        <ele>1572.311</ele>
        <time>2020-06-28T12:12:07Z</time>
      </trkpt>
      <trkpt lat="44.11437" lon="7.28673">
        <ele>1572.311</ele>
        <time>2020-06-28T12:12:23Z</time>
      </trkpt>
      <trkpt lat="44.11437" lon="7.28673">
        <ele>1572.311</ele>
        <time>2020-06-28T12:12:39Z</time>
      </trkpt>
      <trkpt lat="44.11437" lon="7.28673">
        <ele>1572.311</ele>
        <time>2020-06-28T12:12:55Z</time>
      </trkpt>
      <trkpt lat="44.11437" lon="7.28673">
        <ele>1572.311</ele>
        <time>2020-06-28T12:13:10Z</time>
      </trkpt>
      <trkpt lat="44.11437" lon="7.28673">
        <ele>1572.311</ele>
        <time>2020-06-28T12:13:25Z</time>
      </trkpt>
      <trkpt lat="44.11438" lon="7.28674">
        <ele>1572.095</ele>
        <time>2020-06-28T12:13:41Z</time>
      </trkpt>
      <trkpt lat="44.11438" lon="7.28674">
        <ele>1572.095</ele>
        <time>2020-06-28T12:13:56Z</time>
      </trkpt>
      <trkpt lat="44.1144" lon="7.28672">
        <ele>1571.753</ele>
        <time>2020-06-28T12:14:11Z</time>
      </trkpt>
      <trkpt lat="44.1144" lon="7.28672">
        <ele>1571.753</ele>
        <time>2020-06-28T12:14:26Z</time>
      </trkpt>
      <trkpt lat="44.1144" lon="7.28672">
        <ele>1571.753</ele>
        <time>2020-06-28T12:14:42Z</time>
      </trkpt>
      <trkpt lat="44.11434" lon="7.28674">
        <ele>1571.828</ele>
        <time>2020-06-28T12:14:57Z</time>
      </trkpt>
      <trkpt lat="44.11433" lon="7.28667">
        <ele>1569.908</ele>
        <time>2020-06-28T12:15:12Z</time>
      </trkpt>
      <trkpt lat="44.11433" lon="7.28663">
        <ele>1570.599</ele>
        <time>2020-06-28T12:15:27Z</time>
      </trkpt>
      <trkpt lat="44.11433" lon="7.28663">
        <ele>1570.599</ele>
        <time>2020-06-28T12:15:43Z</time>
      </trkpt>
      <trkpt lat="44.11437" lon="7.28664">
        <ele>1571.028</ele>
        <time>2020-06-28T12:15:59Z</time>
      </trkpt>
      <trkpt lat="44.11437" lon="7.28664">
        <ele>1571.028</ele>
        <time>2020-06-28T12:16:14Z</time>
      </trkpt>
      <trkpt lat="44.11436" lon="7.28664">
        <ele>1568.002</ele>
        <time>2020-06-28T12:16:30Z</time>
      </trkpt>
      <trkpt lat="44.11436" lon="7.28664">
        <ele>1568.002</ele>
        <time>2020-06-28T12:16:45Z</time>
      </trkpt>
      <trkpt lat="44.11442" lon="7.28655">
        <ele>1571.082</ele>
        <time>2020-06-28T12:17:01Z</time>
      </trkpt>
      <trkpt lat="44.11448" lon="7.28657">
        <ele>1570.518</ele>
        <time>2020-06-28T12:17:17Z</time>
      </trkpt>
      <trkpt lat="44.11449" lon="7.28657">
        <ele>1570.804</ele>
        <time>2020-06-28T12:17:32Z</time>
      </trkpt>
      <trkpt lat="44.11449" lon="7.28656">
        <ele>1570.799</ele>
        <time>2020-06-28T12:17:47Z</time>
      </trkpt>
      <trkpt lat="44.11454" lon="7.28659">
        <ele>1568.972</ele>
        <time>2020-06-28T12:18:03Z</time>
      </trkpt>
      <trkpt lat="44.11451" lon="7.28659">
        <ele>1570.719</ele>
        <time>2020-06-28T12:18:18Z</time>
      </trkpt>
      <trkpt lat="44.11451" lon="7.28659">
        <ele>1570.719</ele>
        <time>2020-06-28T12:18:34Z</time>
      </trkpt>
      <trkpt lat="44.11451" lon="7.28659">
        <ele>1570.719</ele>
        <time>2020-06-28T12:18:50Z</time>
      </trkpt>
      <trkpt lat="44.11451" lon="7.28659">
        <ele>1570.719</ele>
        <time>2020-06-28T12:19:06Z</time>
      </trkpt>
      <trkpt lat="44.1145" lon="7.2866">
        <ele>1569.199</ele>
        <time>2020-06-28T12:19:22Z</time>
      </trkpt>
      <trkpt lat="44.11448" lon="7.28647">
        <ele>1570.773</ele>
        <time>2020-06-28T12:19:37Z</time>
      </trkpt>
      <trkpt lat="44.11458" lon="7.28632">
        <ele>1572.164</ele>
        <time>2020-06-28T12:19:52Z</time>
      </trkpt>
      <trkpt lat="44.1147" lon="7.28617">
        <ele>1565.532</ele>
        <time>2020-06-28T12:20:08Z</time>
      </trkpt>
      <trkpt lat="44.11475" lon="7.2859">
        <ele>1560.229</ele>
        <time>2020-06-28T12:20:24Z</time>
      </trkpt>
      <trkpt lat="44.11479" lon="7.28569">
        <ele>1564.479</ele>
        <time>2020-06-28T12:20:40Z</time>
      </trkpt>
      <trkpt lat="44.11483" lon="7.28544">
        <ele>1568.594</ele>
        <time>2020-06-28T12:20:55Z</time>
      </trkpt>
      <trkpt lat="44.11483" lon="7.28541">
        <ele>1569.71</ele>
        <time>2020-06-28T12:21:11Z</time>
      </trkpt>
      <trkpt lat="44.11492" lon="7.2852">
        <ele>1574.136</ele>
        <time>2020-06-28T12:21:27Z</time>
      </trkpt>
      <trkpt lat="44.11501" lon="7.285">
        <ele>1573.569</ele>
        <time>2020-06-28T12:21:42Z</time>
      </trkpt>
      <trkpt lat="44.11508" lon="7.28478">
        <ele>1576.744</ele>
        <time>2020-06-28T12:21:58Z</time>
      </trkpt>
      <trkpt lat="44.1152" lon="7.28462">
        <ele>1578.686</ele>
        <time>2020-06-28T12:22:13Z</time>
      </trkpt>
      <trkpt lat="44.11526" lon="7.28439">
        <ele>1583.714</ele>
        <time>2020-06-28T12:22:29Z</time>
      </trkpt>
      <trkpt lat="44.11534" lon="7.28412">
        <ele>1583.511</ele>
        <time>2020-06-28T12:22:45Z</time>
      </trkpt>
      <trkpt lat="44.11541" lon="7.28385">
        <ele>1584.126</ele>
        <time>2020-06-28T12:23:00Z</time>
      </trkpt>
      <trkpt lat="44.11545" lon="7.2836">
        <ele>1581.274</ele>
        <time>2020-06-28T12:23:15Z</time>
      </trkpt>
      <trkpt lat="44.11552" lon="7.28335">
        <ele>1579.368</ele>
        <time>2020-06-28T12:23:31Z</time>
      </trkpt>
      <trkpt lat="44.1156" lon="7.28312">
        <ele>1578.786</ele>
        <time>2020-06-28T12:23:47Z</time>
      </trkpt>
      <trkpt lat="44.11572" lon="7.28299">
        <ele>1577.554</ele>
        <time>2020-06-28T12:24:03Z</time>
      </trkpt>
      <trkpt lat="44.11578" lon="7.28282">
        <ele>1578.61</ele>
        <time>2020-06-28T12:24:18Z</time>
      </trkpt>
      <trkpt lat="44.11578" lon="7.28257">
        <ele>1579.153</ele>
        <time>2020-06-28T12:24:33Z</time>
      </trkpt>
      <trkpt lat="44.1158" lon="7.28229">
        <ele>1580.777</ele>
        <time>2020-06-28T12:24:49Z</time>
      </trkpt>
      <trkpt lat="44.11584" lon="7.28207">
        <ele>1584.634</ele>
        <time>2020-06-28T12:25:04Z</time>
      </trkpt>
      <trkpt lat="44.11589" lon="7.28188">
        <ele>1588.246</ele>
        <time>2020-06-28T12:25:19Z</time>
      </trkpt>
      <trkpt lat="44.11586" lon="7.28161">
        <ele>1590.849</ele>
        <time>2020-06-28T12:25:35Z</time>
      </trkpt>
      <trkpt lat="44.11581" lon="7.28136">
        <ele>1597.278</ele>
        <time>2020-06-28T12:25:51Z</time>
      </trkpt>
      <trkpt lat="44.11574" lon="7.28104">
        <ele>1604.386</ele>
        <time>2020-06-28T12:26:07Z</time>
      </trkpt>
      <trkpt lat="44.11571" lon="7.28075">
        <ele>1602.162</ele>
        <time>2020-06-28T12:26:23Z</time>
      </trkpt>
      <trkpt lat="44.11571" lon="7.28044">
        <ele>1598.777</ele>
        <time>2020-06-28T12:26:39Z</time>
      </trkpt>
      <trkpt lat="44.11571" lon="7.28016">
        <ele>1590.148</ele>
        <time>2020-06-28T12:26:55Z</time>
      </trkpt>
      <trkpt lat="44.11577" lon="7.27998">
        <ele>1589.436</ele>
        <time>2020-06-28T12:27:11Z</time>
      </trkpt>
      <trkpt lat="44.11593" lon="7.27986">
        <ele>1587.301</ele>
        <time>2020-06-28T12:27:27Z</time>
      </trkpt>
      <trkpt lat="44.11608" lon="7.27966">
        <ele>1580.635</ele>
        <time>2020-06-28T12:27:42Z</time>
      </trkpt>
      <trkpt lat="44.11622" lon="7.27948">
        <ele>1574.797</ele>
        <time>2020-06-28T12:27:58Z</time>
      </trkpt>
      <trkpt lat="44.11635" lon="7.2793">
        <ele>1576.255</ele>
        <time>2020-06-28T12:28:13Z</time>
      </trkpt>
      <trkpt lat="44.11644" lon="7.27915">
        <ele>1578.91</ele>
        <time>2020-06-28T12:28:29Z</time>
      </trkpt>
      <trkpt lat="44.11654" lon="7.27895">
        <ele>1582.25</ele>
        <time>2020-06-28T12:28:44Z</time>
      </trkpt>
      <trkpt lat="44.11669" lon="7.27887">
        <ele>1582.532</ele>
        <time>2020-06-28T12:29:00Z</time>
      </trkpt>
      <trkpt lat="44.11687" lon="7.27889">
        <ele>1581.355</ele>
        <time>2020-06-28T12:29:15Z</time>
      </trkpt>
      <trkpt lat="44.11706" lon="7.27873">
        <ele>1575.364</ele>
        <time>2020-06-28T12:29:31Z</time>
      </trkpt>
      <trkpt lat="44.11712" lon="7.27849">
        <ele>1576.191</ele>
        <time>2020-06-28T12:29:47Z</time>
      </trkpt>
      <trkpt lat="44.11722" lon="7.27832">
        <ele>1572.919</ele>
        <time>2020-06-28T12:30:02Z</time>
      </trkpt>
      <trkpt lat="44.11735" lon="7.27819">
        <ele>1579.212</ele>
        <time>2020-06-28T12:30:17Z</time>
      </trkpt>
      <trkpt lat="44.11749" lon="7.27818">
        <ele>1581.717</ele>
        <time>2020-06-28T12:30:33Z</time>
      </trkpt>
      <trkpt lat="44.11761" lon="7.27798">
        <ele>1582.216</ele>
        <time>2020-06-28T12:30:48Z</time>
      </trkpt>
      <trkpt lat="44.11769" lon="7.2778">
        <ele>1584.342</ele>
        <time>2020-06-28T12:31:04Z</time>
      </trkpt>
      <trkpt lat="44.11782" lon="7.27762">
        <ele>1582.828</ele>
        <time>2020-06-28T12:31:19Z</time>
      </trkpt>
      <trkpt lat="44.11795" lon="7.27745">
        <ele>1589.957</ele>
        <time>2020-06-28T12:31:35Z</time>
      </trkpt>
      <trkpt lat="44.11805" lon="7.27734">
        <ele>1584.725</ele>
        <time>2020-06-28T12:31:50Z</time>
      </trkpt>
      <trkpt lat="44.11819" lon="7.27723">
        <ele>1583.497</ele>
        <time>2020-06-28T12:32:05Z</time>
      </trkpt>
      <trkpt lat="44.1183" lon="7.27707">
        <ele>1578.848</ele>
        <time>2020-06-28T12:32:21Z</time>
      </trkpt>
      <trkpt lat="44.11841" lon="7.27695">
        <ele>1579.118</ele>
        <time>2020-06-28T12:32:37Z</time>
      </trkpt>
      <trkpt lat="44.11852" lon="7.27675">
        <ele>1582.73</ele>
        <time>2020-06-28T12:32:53Z</time>
      </trkpt>
      <trkpt lat="44.11865" lon="7.2767">
        <ele>1585.09</ele>
        <time>2020-06-28T12:33:09Z</time>
      </trkpt>
      <trkpt lat="44.11873" lon="7.27638">
        <ele>1592.224</ele>
        <time>2020-06-28T12:33:25Z</time>
      </trkpt>
      <trkpt lat="44.11871" lon="7.27627">
        <ele>1595.948</ele>
        <time>2020-06-28T12:33:42Z</time>
      </trkpt>
      <trkpt lat="44.11871" lon="7.27627">
        <ele>1595.948</ele>
        <time>2020-06-28T12:33:57Z</time>
      </trkpt>
      <trkpt lat="44.11871" lon="7.27627">
        <ele>1595.948</ele>
        <time>2020-06-28T12:34:12Z</time>
      </trkpt>
      <trkpt lat="44.11871" lon="7.27628">
        <ele>1595.304</ele>
        <time>2020-06-28T12:34:28Z</time>
      </trkpt>
      <trkpt lat="44.11872" lon="7.27629">
        <ele>1596.275</ele>
        <time>2020-06-28T12:34:44Z</time>
      </trkpt>
      <trkpt lat="44.11872" lon="7.27629">
        <ele>1596.275</ele>
        <time>2020-06-28T12:35:00Z</time>
      </trkpt>
      <trkpt lat="44.11872" lon="7.27629">
        <ele>1596.275</ele>
        <time>2020-06-28T12:35:15Z</time>
      </trkpt>
      <trkpt lat="44.11872" lon="7.27627">
        <ele>1598.531</ele>
        <time>2020-06-28T12:35:31Z</time>
      </trkpt>
      <trkpt lat="44.11872" lon="7.27627">
        <ele>1598.531</ele>
        <time>2020-06-28T12:35:47Z</time>
      </trkpt>
      <trkpt lat="44.11876" lon="7.27625">
        <ele>1595.525</ele>
        <time>2020-06-28T12:36:03Z</time>
      </trkpt>
      <trkpt lat="44.11888" lon="7.27618">
        <ele>1595.334</ele>
        <time>2020-06-28T12:36:18Z</time>
      </trkpt>
      <trkpt lat="44.11888" lon="7.27618">
        <ele>1595.421</ele>
        <time>2020-06-28T12:36:34Z</time>
      </trkpt>
      <trkpt lat="44.11888" lon="7.27618">
        <ele>1595.421</ele>
        <time>2020-06-28T12:36:50Z</time>
      </trkpt>
      <trkpt lat="44.11888" lon="7.27618">
        <ele>1595.421</ele>
        <time>2020-06-28T12:37:06Z</time>
      </trkpt>
      <trkpt lat="44.11885" lon="7.27621">
        <ele>1595.168</ele>
        <time>2020-06-28T12:37:21Z</time>
      </trkpt>
      <trkpt lat="44.11885" lon="7.27621">
        <ele>1595.168</ele>
        <time>2020-06-28T12:37:37Z</time>
      </trkpt>
      <trkpt lat="44.11885" lon="7.27621">
        <ele>1595.168</ele>
        <time>2020-06-28T12:37:53Z</time>
      </trkpt>
      <trkpt lat="44.11885" lon="7.27621">
        <ele>1595.168</ele>
        <time>2020-06-28T12:38:08Z</time>
      </trkpt>
      <trkpt lat="44.11885" lon="7.27621">
        <ele>1595.168</ele>
        <time>2020-06-28T12:38:24Z</time>
      </trkpt>
      <trkpt lat="44.11885" lon="7.27621">
        <ele>1595.168</ele>
        <time>2020-06-28T12:38:39Z</time>
      </trkpt>
      <trkpt lat="44.11885" lon="7.27621">
        <ele>1595.168</ele>
        <time>2020-06-28T12:38:54Z</time>
      </trkpt>
      <trkpt lat="44.11885" lon="7.27621">
        <ele>1595.168</ele>
        <time>2020-06-28T12:39:10Z</time>
      </trkpt>
      <trkpt lat="44.11885" lon="7.27619">
        <ele>1597.052</ele>
        <time>2020-06-28T12:39:26Z</time>
      </trkpt>
      <trkpt lat="44.11886" lon="7.27619">
        <ele>1596.074</ele>
        <time>2020-06-28T12:39:41Z</time>
      </trkpt>
      <trkpt lat="44.11887" lon="7.2762">
        <ele>1593.808</ele>
        <time>2020-06-28T12:39:56Z</time>
      </trkpt>
      <trkpt lat="44.11887" lon="7.2762">
        <ele>1593.808</ele>
        <time>2020-06-28T12:40:12Z</time>
      </trkpt>
      <trkpt lat="44.11887" lon="7.2762">
        <ele>1593.808</ele>
        <time>2020-06-28T12:40:27Z</time>
      </trkpt>
      <trkpt lat="44.1189" lon="7.27617">
        <ele>1593.529</ele>
        <time>2020-06-28T12:40:43Z</time>
      </trkpt>
      <trkpt lat="44.1189" lon="7.27617">
        <ele>1593.529</ele>
        <time>2020-06-28T12:40:58Z</time>
      </trkpt>
      <trkpt lat="44.1189" lon="7.27617">
        <ele>1593.529</ele>
        <time>2020-06-28T12:41:14Z</time>
      </trkpt>
      <trkpt lat="44.1189" lon="7.27617">
        <ele>1593.529</ele>
        <time>2020-06-28T12:41:29Z</time>
      </trkpt>
      <trkpt lat="44.1189" lon="7.27617">
        <ele>1593.529</ele>
        <time>2020-06-28T12:41:45Z</time>
      </trkpt>
      <trkpt lat="44.1189" lon="7.27617">
        <ele>1593.529</ele>
        <time>2020-06-28T12:42:01Z</time>
      </trkpt>
      <trkpt lat="44.1189" lon="7.27617">
        <ele>1593.529</ele>
        <time>2020-06-28T12:42:16Z</time>
      </trkpt>
      <trkpt lat="44.1189" lon="7.27617">
        <ele>1593.529</ele>
        <time>2020-06-28T12:42:32Z</time>
      </trkpt>
      <trkpt lat="44.1189" lon="7.27617">
        <ele>1593.529</ele>
        <time>2020-06-28T12:42:47Z</time>
      </trkpt>
      <trkpt lat="44.11891" lon="7.27616">
        <ele>1593.762</ele>
        <time>2020-06-28T12:43:03Z</time>
      </trkpt>
      <trkpt lat="44.11891" lon="7.27616">
        <ele>1593.762</ele>
        <time>2020-06-28T12:43:19Z</time>
      </trkpt>
      <trkpt lat="44.11892" lon="7.27617">
        <ele>1594.332</ele>
        <time>2020-06-28T12:43:35Z</time>
      </trkpt>
      <trkpt lat="44.11889" lon="7.27617">
        <ele>1594.318</ele>
        <time>2020-06-28T12:43:51Z</time>
      </trkpt>
      <trkpt lat="44.11886" lon="7.2762">
        <ele>1594.957</ele>
        <time>2020-06-28T12:44:07Z</time>
      </trkpt>
      <trkpt lat="44.11893" lon="7.27619">
        <ele>1593.775</ele>
        <time>2020-06-28T12:44:23Z</time>
      </trkpt>
      <trkpt lat="44.11907" lon="7.27605">
        <ele>1591.526</ele>
        <time>2020-06-28T12:44:38Z</time>
      </trkpt>
      <trkpt lat="44.11912" lon="7.27601">
        <ele>1594.565</ele>
        <time>2020-06-28T12:44:53Z</time>
      </trkpt>
      <trkpt lat="44.11922" lon="7.27597">
        <ele>1603.251</ele>
        <time>2020-06-28T12:45:09Z</time>
      </trkpt>
      <trkpt lat="44.11931" lon="7.27583">
        <ele>1603.983</ele>
        <time>2020-06-28T12:45:25Z</time>
      </trkpt>
      <trkpt lat="44.11931" lon="7.27569">
        <ele>1603.976</ele>
        <time>2020-06-28T12:45:40Z</time>
      </trkpt>
      <trkpt lat="44.11927" lon="7.27549">
        <ele>1602.126</ele>
        <time>2020-06-28T12:45:55Z</time>
      </trkpt>
      <trkpt lat="44.11925" lon="7.27523">
        <ele>1601.315</ele>
        <time>2020-06-28T12:46:10Z</time>
      </trkpt>
      <trkpt lat="44.1194" lon="7.2751">
        <ele>1601.741</ele>
        <time>2020-06-28T12:46:26Z</time>
      </trkpt>
      <trkpt lat="44.11954" lon="7.275">
        <ele>1607.096</ele>
        <time>2020-06-28T12:46:41Z</time>
      </trkpt>
      <trkpt lat="44.1197" lon="7.27495">
        <ele>1612.649</ele>
        <time>2020-06-28T12:46:57Z</time>
      </trkpt>
      <trkpt lat="44.11985" lon="7.27477">
        <ele>1610.142</ele>
        <time>2020-06-28T12:47:13Z</time>
      </trkpt>
      <trkpt lat="44.11986" lon="7.27468">
        <ele>1611.735</ele>
        <time>2020-06-28T12:47:29Z</time>
      </trkpt>
      <trkpt lat="44.11986" lon="7.27446">
        <ele>1615.391</ele>
        <time>2020-06-28T12:47:45Z</time>
      </trkpt>
      <trkpt lat="44.11986" lon="7.27428">
        <ele>1610.747</ele>
        <time>2020-06-28T12:48:00Z</time>
      </trkpt>
      <trkpt lat="44.11994" lon="7.27409">
        <ele>1615.177</ele>
        <time>2020-06-28T12:48:16Z</time>
      </trkpt>
      <trkpt lat="44.12006" lon="7.27393">
        <ele>1620.35</ele>
        <time>2020-06-28T12:48:31Z</time>
      </trkpt>
      <trkpt lat="44.12018" lon="7.27376">
        <ele>1624.421</ele>
        <time>2020-06-28T12:48:47Z</time>
      </trkpt>
      <trkpt lat="44.12029" lon="7.27361">
        <ele>1628.573</ele>
        <time>2020-06-28T12:49:02Z</time>
      </trkpt>
      <trkpt lat="44.12039" lon="7.27345">
        <ele>1630.64</ele>
        <time>2020-06-28T12:49:17Z</time>
      </trkpt>
      <trkpt lat="44.12045" lon="7.27329">
        <ele>1633.499</ele>
        <time>2020-06-28T12:49:32Z</time>
      </trkpt>
      <trkpt lat="44.12055" lon="7.27321">
        <ele>1640.722</ele>
        <time>2020-06-28T12:49:47Z</time>
      </trkpt>
      <trkpt lat="44.12067" lon="7.27303">
        <ele>1640.975</ele>
        <time>2020-06-28T12:50:03Z</time>
      </trkpt>
      <trkpt lat="44.12083" lon="7.27283">
        <ele>1638.066</ele>
        <time>2020-06-28T12:50:18Z</time>
      </trkpt>
      <trkpt lat="44.12092" lon="7.2727">
        <ele>1640.073</ele>
        <time>2020-06-28T12:50:34Z</time>
      </trkpt>
      <trkpt lat="44.12102" lon="7.27249">
        <ele>1637.522</ele>
        <time>2020-06-28T12:50:50Z</time>
      </trkpt>
      <trkpt lat="44.12109" lon="7.27237">
        <ele>1640.51</ele>
        <time>2020-06-28T12:51:05Z</time>
      </trkpt>
      <trkpt lat="44.1212" lon="7.27227">
        <ele>1641.297</ele>
        <time>2020-06-28T12:51:21Z</time>
      </trkpt>
      <trkpt lat="44.12134" lon="7.2721">
        <ele>1637.314</ele>
        <time>2020-06-28T12:51:37Z</time>
      </trkpt>
      <trkpt lat="44.12147" lon="7.27195">
        <ele>1638.496</ele>
        <time>2020-06-28T12:51:52Z</time>
      </trkpt>
      <trkpt lat="44.12162" lon="7.27186">
        <ele>1637.769</ele>
        <time>2020-06-28T12:52:07Z</time>
      </trkpt>
      <trkpt lat="44.12176" lon="7.27171">
        <ele>1639.832</ele>
        <time>2020-06-28T12:52:23Z</time>
      </trkpt>
      <trkpt lat="44.12188" lon="7.27162">
        <ele>1640.405</ele>
        <time>2020-06-28T12:52:38Z</time>
      </trkpt>
      <trkpt lat="44.12196" lon="7.27156">
        <ele>1639.925</ele>
        <time>2020-06-28T12:52:54Z</time>
      </trkpt>
      <trkpt lat="44.12208" lon="7.27146">
        <ele>1646.224</ele>
        <time>2020-06-28T12:53:10Z</time>
      </trkpt>
      <trkpt lat="44.12221" lon="7.27142">
        <ele>1648.814</ele>
        <time>2020-06-28T12:53:26Z</time>
      </trkpt>
      <trkpt lat="44.12222" lon="7.2714">
        <ele>1650.315</ele>
        <time>2020-06-28T12:53:41Z</time>
      </trkpt>
      <trkpt lat="44.12222" lon="7.27139">
        <ele>1652.914</ele>
        <time>2020-06-28T12:53:57Z</time>
      </trkpt>
      <trkpt lat="44.1222" lon="7.27139">
        <ele>1654.368</ele>
        <time>2020-06-28T12:54:12Z</time>
      </trkpt>
      <trkpt lat="44.1222" lon="7.27139">
        <ele>1654.368</ele>
        <time>2020-06-28T12:54:27Z</time>
      </trkpt>
      <trkpt lat="44.1222" lon="7.27141">
        <ele>1655.128</ele>
        <time>2020-06-28T12:54:43Z</time>
      </trkpt>
      <trkpt lat="44.12219" lon="7.2713">
        <ele>1660.86</ele>
        <time>2020-06-28T12:54:58Z</time>
      </trkpt>
      <trkpt lat="44.12228" lon="7.27113">
        <ele>1662.52</ele>
        <time>2020-06-28T12:55:13Z</time>
      </trkpt>
      <trkpt lat="44.12232" lon="7.27116">
        <ele>1659.684</ele>
        <time>2020-06-28T12:55:29Z</time>
      </trkpt>
      <trkpt lat="44.12232" lon="7.27112">
        <ele>1658.163</ele>
        <time>2020-06-28T12:55:45Z</time>
      </trkpt>
      <trkpt lat="44.12229" lon="7.2711">
        <ele>1656.537</ele>
        <time>2020-06-28T12:56:01Z</time>
      </trkpt>
      <trkpt lat="44.12225" lon="7.27102">
        <ele>1656.251</ele>
        <time>2020-06-28T12:56:16Z</time>
      </trkpt>
      <trkpt lat="44.12223" lon="7.2709">
        <ele>1657.003</ele>
        <time>2020-06-28T12:56:32Z</time>
      </trkpt>
      <trkpt lat="44.12222" lon="7.27086">
        <ele>1656</ele>
        <time>2020-06-28T12:56:48Z</time>
      </trkpt>
      <trkpt lat="44.12217" lon="7.2708">
        <ele>1655.426</ele>
        <time>2020-06-28T12:57:03Z</time>
      </trkpt>
      <trkpt lat="44.12217" lon="7.2708">
        <ele>1655.426</ele>
        <time>2020-06-28T12:57:19Z</time>
      </trkpt>
      <trkpt lat="44.12216" lon="7.27078">
        <ele>1655.345</ele>
        <time>2020-06-28T12:57:35Z</time>
      </trkpt>
      <trkpt lat="44.12217" lon="7.27067">
        <ele>1653.835</ele>
        <time>2020-06-28T12:57:50Z</time>
      </trkpt>
      <trkpt lat="44.12216" lon="7.27059">
        <ele>1651.314</ele>
        <time>2020-06-28T12:58:06Z</time>
      </trkpt>
      <trkpt lat="44.12217" lon="7.27059">
        <ele>1650.618</ele>
        <time>2020-06-28T12:58:21Z</time>
      </trkpt>
      <trkpt lat="44.12217" lon="7.27059">
        <ele>1650.618</ele>
        <time>2020-06-28T12:58:37Z</time>
      </trkpt>
      <trkpt lat="44.12217" lon="7.27059">
        <ele>1650.618</ele>
        <time>2020-06-28T12:58:53Z</time>
      </trkpt>
      <trkpt lat="44.12217" lon="7.27059">
        <ele>1650.618</ele>
        <time>2020-06-28T12:59:08Z</time>
      </trkpt>
      <trkpt lat="44.12217" lon="7.27059">
        <ele>1650.618</ele>
        <time>2020-06-28T12:59:23Z</time>
      </trkpt>
      <trkpt lat="44.12217" lon="7.27059">
        <ele>1650.618</ele>
        <time>2020-06-28T12:59:38Z</time>
      </trkpt>
      <trkpt lat="44.12217" lon="7.27059">
        <ele>1650.618</ele>
        <time>2020-06-28T12:59:54Z</time>
      </trkpt>
      <trkpt lat="44.12217" lon="7.27059">
        <ele>1650.618</ele>
        <time>2020-06-28T13:00:09Z</time>
      </trkpt>
      <trkpt lat="44.12217" lon="7.27059">
        <ele>1650.618</ele>
        <time>2020-06-28T13:00:25Z</time>
      </trkpt>
      <trkpt lat="44.12217" lon="7.27059">
        <ele>1650.618</ele>
        <time>2020-06-28T13:00:41Z</time>
      </trkpt>
      <trkpt lat="44.12217" lon="7.27059">
        <ele>1650.618</ele>
        <time>2020-06-28T13:00:57Z</time>
      </trkpt>
      <trkpt lat="44.12216" lon="7.27058">
        <ele>1650.727</ele>
        <time>2020-06-28T13:01:13Z</time>
      </trkpt>
      <trkpt lat="44.12216" lon="7.27058">
        <ele>1650.727</ele>
        <time>2020-06-28T13:01:28Z</time>
      </trkpt>
      <trkpt lat="44.12216" lon="7.27058">
        <ele>1650.727</ele>
        <time>2020-06-28T13:01:44Z</time>
      </trkpt>
      <trkpt lat="44.12216" lon="7.27058">
        <ele>1650.727</ele>
        <time>2020-06-28T13:01:59Z</time>
      </trkpt>
      <trkpt lat="44.12216" lon="7.27058">
        <ele>1650.727</ele>
        <time>2020-06-28T13:02:15Z</time>
      </trkpt>
      <trkpt lat="44.12216" lon="7.27058">
        <ele>1650.727</ele>
        <time>2020-06-28T13:02:31Z</time>
      </trkpt>
      <trkpt lat="44.12216" lon="7.27058">
        <ele>1650.727</ele>
        <time>2020-06-28T13:02:46Z</time>
      </trkpt>
      <trkpt lat="44.12216" lon="7.27058">
        <ele>1650.727</ele>
        <time>2020-06-28T13:03:01Z</time>
      </trkpt>
      <trkpt lat="44.1222" lon="7.27059">
        <ele>1647.384</ele>
        <time>2020-06-28T13:03:17Z</time>
      </trkpt>
      <trkpt lat="44.12216" lon="7.27055">
        <ele>1645.408</ele>
        <time>2020-06-28T13:03:32Z</time>
      </trkpt>
      <trkpt lat="44.12221" lon="7.27055">
        <ele>1644.707</ele>
        <time>2020-06-28T13:03:48Z</time>
      </trkpt>
      <trkpt lat="44.12221" lon="7.27055">
        <ele>1644.707</ele>
        <time>2020-06-28T13:04:04Z</time>
      </trkpt>
      <trkpt lat="44.12221" lon="7.27055">
        <ele>1644.707</ele>
        <time>2020-06-28T13:04:20Z</time>
      </trkpt>
      <trkpt lat="44.12221" lon="7.27055">
        <ele>1644.707</ele>
        <time>2020-06-28T13:04:36Z</time>
      </trkpt>
      <trkpt lat="44.12221" lon="7.27055">
        <ele>1644.707</ele>
        <time>2020-06-28T13:04:52Z</time>
      </trkpt>
      <trkpt lat="44.12219" lon="7.27052">
        <ele>1643.377</ele>
        <time>2020-06-28T13:05:08Z</time>
      </trkpt>
      <trkpt lat="44.12217" lon="7.27044">
        <ele>1640.948</ele>
        <time>2020-06-28T13:05:24Z</time>
      </trkpt>
      <trkpt lat="44.12217" lon="7.27044">
        <ele>1640.948</ele>
        <time>2020-06-28T13:05:39Z</time>
      </trkpt>
      <trkpt lat="44.12217" lon="7.27044">
        <ele>1640.948</ele>
        <time>2020-06-28T13:05:54Z</time>
      </trkpt>
      <trkpt lat="44.12217" lon="7.27044">
        <ele>1640.948</ele>
        <time>2020-06-28T13:06:09Z</time>
      </trkpt>
      <trkpt lat="44.12217" lon="7.27044">
        <ele>1640.948</ele>
        <time>2020-06-28T13:06:25Z</time>
      </trkpt>
      <trkpt lat="44.12217" lon="7.27044">
        <ele>1640.948</ele>
        <time>2020-06-28T13:06:41Z</time>
      </trkpt>
      <trkpt lat="44.12217" lon="7.27044">
        <ele>1640.948</ele>
        <time>2020-06-28T13:06:57Z</time>
      </trkpt>
      <trkpt lat="44.12218" lon="7.27048">
        <ele>1641.793</ele>
        <time>2020-06-28T13:07:12Z</time>
      </trkpt>
      <trkpt lat="44.12218" lon="7.27048">
        <ele>1641.793</ele>
        <time>2020-06-28T13:07:28Z</time>
      </trkpt>
      <trkpt lat="44.12216" lon="7.27053">
        <ele>1641.307</ele>
        <time>2020-06-28T13:07:44Z</time>
      </trkpt>
      <trkpt lat="44.12218" lon="7.27056">
        <ele>1642.532</ele>
        <time>2020-06-28T13:07:59Z</time>
      </trkpt>
      <trkpt lat="44.12207" lon="7.27058">
        <ele>1651.098</ele>
        <time>2020-06-28T13:08:15Z</time>
      </trkpt>
      <trkpt lat="44.12208" lon="7.27057">
        <ele>1652.964</ele>
        <time>2020-06-28T13:08:30Z</time>
      </trkpt>
      <trkpt lat="44.12208" lon="7.27057">
        <ele>1652.964</ele>
        <time>2020-06-28T13:08:45Z</time>
      </trkpt>
      <trkpt lat="44.12218" lon="7.27054">
        <ele>1647.372</ele>
        <time>2020-06-28T13:09:01Z</time>
      </trkpt>
      <trkpt lat="44.12219" lon="7.27051">
        <ele>1648.944</ele>
        <time>2020-06-28T13:09:16Z</time>
      </trkpt>
      <trkpt lat="44.12219" lon="7.27055">
        <ele>1648.681</ele>
        <time>2020-06-28T13:09:32Z</time>
      </trkpt>
      <trkpt lat="44.12219" lon="7.27055">
        <ele>1648.681</ele>
        <time>2020-06-28T13:09:48Z</time>
      </trkpt>
      <trkpt lat="44.12219" lon="7.27055">
        <ele>1648.681</ele>
        <time>2020-06-28T13:10:04Z</time>
      </trkpt>
      <trkpt lat="44.1222" lon="7.27057">
        <ele>1651.662</ele>
        <time>2020-06-28T13:10:19Z</time>
      </trkpt>
      <trkpt lat="44.12226" lon="7.27065">
        <ele>1652.621</ele>
        <time>2020-06-28T13:10:34Z</time>
      </trkpt>
      <trkpt lat="44.12226" lon="7.27065">
        <ele>1652.621</ele>
        <time>2020-06-28T13:10:50Z</time>
      </trkpt>
      <trkpt lat="44.12225" lon="7.27064">
        <ele>1652.453</ele>
        <time>2020-06-28T13:11:06Z</time>
      </trkpt>
      <trkpt lat="44.12225" lon="7.27063">
        <ele>1652.036</ele>
        <time>2020-06-28T13:11:21Z</time>
      </trkpt>
      <trkpt lat="44.12224" lon="7.27051">
        <ele>1648.017</ele>
        <time>2020-06-28T13:11:36Z</time>
      </trkpt>
      <trkpt lat="44.12224" lon="7.27051">
        <ele>1648.017</ele>
        <time>2020-06-28T13:11:52Z</time>
      </trkpt>
      <trkpt lat="44.12224" lon="7.27051">
        <ele>1648.017</ele>
        <time>2020-06-28T13:12:07Z</time>
      </trkpt>
      <trkpt lat="44.12219" lon="7.27051">
        <ele>1646.149</ele>
        <time>2020-06-28T13:12:23Z</time>
      </trkpt>
      <trkpt lat="44.12208" lon="7.27051">
        <ele>1644.813</ele>
        <time>2020-06-28T13:12:38Z</time>
      </trkpt>
      <trkpt lat="44.12218" lon="7.27062">
        <ele>1646.792</ele>
        <time>2020-06-28T13:12:54Z</time>
      </trkpt>
      <trkpt lat="44.12218" lon="7.27062">
        <ele>1646.792</ele>
        <time>2020-06-28T13:13:10Z</time>
      </trkpt>
      <trkpt lat="44.12218" lon="7.27057">
        <ele>1645.344</ele>
        <time>2020-06-28T13:13:26Z</time>
      </trkpt>
      <trkpt lat="44.1222" lon="7.27051">
        <ele>1645.174</ele>
        <time>2020-06-28T13:13:42Z</time>
      </trkpt>
      <trkpt lat="44.1222" lon="7.27051">
        <ele>1645.174</ele>
        <time>2020-06-28T13:13:58Z</time>
      </trkpt>
      <trkpt lat="44.12218" lon="7.2705">
        <ele>1643.837</ele>
        <time>2020-06-28T13:14:14Z</time>
      </trkpt>
      <trkpt lat="44.12215" lon="7.27043">
        <ele>1642.102</ele>
        <time>2020-06-28T13:14:30Z</time>
      </trkpt>
      <trkpt lat="44.12205" lon="7.27037">
        <ele>1639.425</ele>
        <time>2020-06-28T13:14:45Z</time>
      </trkpt>
      <trkpt lat="44.12208" lon="7.27041">
        <ele>1640.321</ele>
        <time>2020-06-28T13:15:01Z</time>
      </trkpt>
      <trkpt lat="44.1221" lon="7.2704">
        <ele>1640.902</ele>
        <time>2020-06-28T13:15:16Z</time>
      </trkpt>
      <trkpt lat="44.1221" lon="7.2704">
        <ele>1640.902</ele>
        <time>2020-06-28T13:15:32Z</time>
      </trkpt>
      <trkpt lat="44.1221" lon="7.2704">
        <ele>1640.902</ele>
        <time>2020-06-28T13:15:48Z</time>
      </trkpt>
      <trkpt lat="44.1221" lon="7.2704">
        <ele>1640.902</ele>
        <time>2020-06-28T13:16:03Z</time>
      </trkpt>
      <trkpt lat="44.12214" lon="7.27042">
        <ele>1639.765</ele>
        <time>2020-06-28T13:16:18Z</time>
      </trkpt>
      <trkpt lat="44.12213" lon="7.2704">
        <ele>1640.373</ele>
        <time>2020-06-28T13:16:34Z</time>
      </trkpt>
      <trkpt lat="44.12217" lon="7.27042">
        <ele>1640.802</ele>
        <time>2020-06-28T13:16:49Z</time>
      </trkpt>
      <trkpt lat="44.12233" lon="7.27055">
        <ele>1643.781</ele>
        <time>2020-06-28T13:17:05Z</time>
      </trkpt>
      <trkpt lat="44.12231" lon="7.27052">
        <ele>1645.196</ele>
        <time>2020-06-28T13:17:21Z</time>
      </trkpt>
      <trkpt lat="44.12224" lon="7.27041">
        <ele>1646.389</ele>
        <time>2020-06-28T13:17:37Z</time>
      </trkpt>
      <trkpt lat="44.12224" lon="7.27041">
        <ele>1646.389</ele>
        <time>2020-06-28T13:17:53Z</time>
      </trkpt>
      <trkpt lat="44.12227" lon="7.27042">
        <ele>1651.357</ele>
        <time>2020-06-28T13:18:09Z</time>
      </trkpt>
      <trkpt lat="44.12227" lon="7.27042">
        <ele>1651.357</ele>
        <time>2020-06-28T13:18:24Z</time>
      </trkpt>
      <trkpt lat="44.12227" lon="7.27045">
        <ele>1650.39</ele>
        <time>2020-06-28T13:18:40Z</time>
      </trkpt>
      <trkpt lat="44.12227" lon="7.27045">
        <ele>1650.39</ele>
        <time>2020-06-28T13:18:55Z</time>
      </trkpt>
      <trkpt lat="44.12227" lon="7.27045">
        <ele>1650.39</ele>
        <time>2020-06-28T13:19:11Z</time>
      </trkpt>
      <trkpt lat="44.12223" lon="7.27046">
        <ele>1649.187</ele>
        <time>2020-06-28T13:19:27Z</time>
      </trkpt>
      <trkpt lat="44.12223" lon="7.27046">
        <ele>1649.187</ele>
        <time>2020-06-28T13:19:42Z</time>
      </trkpt>
      <trkpt lat="44.12223" lon="7.27046">
        <ele>1649.187</ele>
        <time>2020-06-28T13:19:57Z</time>
      </trkpt>
      <trkpt lat="44.12223" lon="7.27046">
        <ele>1649.187</ele>
        <time>2020-06-28T13:20:13Z</time>
      </trkpt>
      <trkpt lat="44.12223" lon="7.27046">
        <ele>1649.187</ele>
        <time>2020-06-28T13:20:28Z</time>
      </trkpt>
      <trkpt lat="44.1223" lon="7.2705">
        <ele>1649.658</ele>
        <time>2020-06-28T13:20:43Z</time>
      </trkpt>
      <trkpt lat="44.12222" lon="7.27048">
        <ele>1652.181</ele>
        <time>2020-06-28T13:20:59Z</time>
      </trkpt>
      <trkpt lat="44.12222" lon="7.27048">
        <ele>1652.181</ele>
        <time>2020-06-28T13:21:15Z</time>
      </trkpt>
      <trkpt lat="44.12221" lon="7.27048">
        <ele>1655.395</ele>
        <time>2020-06-28T13:21:31Z</time>
      </trkpt>
      <trkpt lat="44.12224" lon="7.2705">
        <ele>1656.951</ele>
        <time>2020-06-28T13:21:46Z</time>
      </trkpt>
      <trkpt lat="44.12224" lon="7.2705">
        <ele>1656.951</ele>
        <time>2020-06-28T13:22:02Z</time>
      </trkpt>
      <trkpt lat="44.12224" lon="7.2705">
        <ele>1656.951</ele>
        <time>2020-06-28T13:22:18Z</time>
      </trkpt>
      <trkpt lat="44.12224" lon="7.2705">
        <ele>1656.951</ele>
        <time>2020-06-28T13:22:33Z</time>
      </trkpt>
      <trkpt lat="44.12224" lon="7.2705">
        <ele>1656.951</ele>
        <time>2020-06-28T13:22:49Z</time>
      </trkpt>
      <trkpt lat="44.12224" lon="7.2705">
        <ele>1656.951</ele>
        <time>2020-06-28T13:23:05Z</time>
      </trkpt>
      <trkpt lat="44.12224" lon="7.2705">
        <ele>1656.951</ele>
        <time>2020-06-28T13:23:20Z</time>
      </trkpt>
      <trkpt lat="44.12224" lon="7.2705">
        <ele>1656.951</ele>
        <time>2020-06-28T13:23:36Z</time>
      </trkpt>
      <trkpt lat="44.12222" lon="7.27052">
        <ele>1657.747</ele>
        <time>2020-06-28T13:23:51Z</time>
      </trkpt>
      <trkpt lat="44.12222" lon="7.27063">
        <ele>1660.002</ele>
        <time>2020-06-28T13:24:07Z</time>
      </trkpt>
      <trkpt lat="44.12219" lon="7.27063">
        <ele>1660.366</ele>
        <time>2020-06-28T13:24:23Z</time>
      </trkpt>
      <trkpt lat="44.12219" lon="7.27063">
        <ele>1660.366</ele>
        <time>2020-06-28T13:24:39Z</time>
      </trkpt>
      <trkpt lat="44.12215" lon="7.27064">
        <ele>1661.476</ele>
        <time>2020-06-28T13:24:54Z</time>
      </trkpt>
      <trkpt lat="44.1221" lon="7.27058">
        <ele>1659.913</ele>
        <time>2020-06-28T13:25:10Z</time>
      </trkpt>
      <trkpt lat="44.12207" lon="7.27052">
        <ele>1657.055</ele>
        <time>2020-06-28T13:25:25Z</time>
      </trkpt>
      <trkpt lat="44.12207" lon="7.27052">
        <ele>1657.055</ele>
        <time>2020-06-28T13:25:40Z</time>
      </trkpt>
      <trkpt lat="44.12207" lon="7.27052">
        <ele>1657.055</ele>
        <time>2020-06-28T13:25:55Z</time>
      </trkpt>
      <trkpt lat="44.12225" lon="7.27059">
        <ele>1659.331</ele>
        <time>2020-06-28T13:26:11Z</time>
      </trkpt>
      <trkpt lat="44.12229" lon="7.27062">
        <ele>1657.079</ele>
        <time>2020-06-28T13:26:26Z</time>
      </trkpt>
      <trkpt lat="44.12232" lon="7.27071">
        <ele>1656.167</ele>
        <time>2020-06-28T13:26:42Z</time>
      </trkpt>
      <trkpt lat="44.12232" lon="7.27071">
        <ele>1656.167</ele>
        <time>2020-06-28T13:26:57Z</time>
      </trkpt>
      <trkpt lat="44.12236" lon="7.27071">
        <ele>1657.804</ele>
        <time>2020-06-28T13:27:13Z</time>
      </trkpt>
      <trkpt lat="44.12229" lon="7.27069">
        <ele>1661.738</ele>
        <time>2020-06-28T13:27:29Z</time>
      </trkpt>
      <trkpt lat="44.1223" lon="7.27064">
        <ele>1664.414</ele>
        <time>2020-06-28T13:27:45Z</time>
      </trkpt>
      <trkpt lat="44.12232" lon="7.27059">
        <ele>1669.684</ele>
        <time>2020-06-28T13:28:01Z</time>
      </trkpt>
      <trkpt lat="44.12224" lon="7.27064">
        <ele>1676.337</ele>
        <time>2020-06-28T13:28:17Z</time>
      </trkpt>
      <trkpt lat="44.12221" lon="7.27065">
        <ele>1677.716</ele>
        <time>2020-06-28T13:28:33Z</time>
      </trkpt>
      <trkpt lat="44.12221" lon="7.27065">
        <ele>1677.716</ele>
        <time>2020-06-28T13:28:48Z</time>
      </trkpt>
      <trkpt lat="44.12221" lon="7.27065">
        <ele>1677.716</ele>
        <time>2020-06-28T13:29:04Z</time>
      </trkpt>
      <trkpt lat="44.12222" lon="7.27065">
        <ele>1678.939</ele>
        <time>2020-06-28T13:29:19Z</time>
      </trkpt>
      <trkpt lat="44.12222" lon="7.27065">
        <ele>1678.939</ele>
        <time>2020-06-28T13:29:35Z</time>
      </trkpt>
      <trkpt lat="44.12222" lon="7.27065">
        <ele>1678.939</ele>
        <time>2020-06-28T13:29:51Z</time>
      </trkpt>
      <trkpt lat="44.12222" lon="7.27065">
        <ele>1678.939</ele>
        <time>2020-06-28T13:30:07Z</time>
      </trkpt>
      <trkpt lat="44.12222" lon="7.27065">
        <ele>1678.939</ele>
        <time>2020-06-28T13:30:22Z</time>
      </trkpt>
      <trkpt lat="44.12218" lon="7.27066">
        <ele>1676.664</ele>
        <time>2020-06-28T13:30:38Z</time>
      </trkpt>
      <trkpt lat="44.12231" lon="7.27069">
        <ele>1675.292</ele>
        <time>2020-06-28T13:30:54Z</time>
      </trkpt>
      <trkpt lat="44.1223" lon="7.27066">
        <ele>1674.559</ele>
        <time>2020-06-28T13:31:09Z</time>
      </trkpt>
      <trkpt lat="44.1223" lon="7.27066">
        <ele>1674.559</ele>
        <time>2020-06-28T13:31:24Z</time>
      </trkpt>
      <trkpt lat="44.1223" lon="7.27066">
        <ele>1674.559</ele>
        <time>2020-06-28T13:31:39Z</time>
      </trkpt>
      <trkpt lat="44.12229" lon="7.27069">
        <ele>1674.757</ele>
        <time>2020-06-28T13:31:55Z</time>
      </trkpt>
      <trkpt lat="44.12229" lon="7.27069">
        <ele>1674.757</ele>
        <time>2020-06-28T13:32:10Z</time>
      </trkpt>
      <trkpt lat="44.12229" lon="7.27063">
        <ele>1676</ele>
        <time>2020-06-28T13:32:25Z</time>
      </trkpt>
      <trkpt lat="44.12237" lon="7.2707">
        <ele>1675.968</ele>
        <time>2020-06-28T13:32:41Z</time>
      </trkpt>
      <trkpt lat="44.12233" lon="7.27062">
        <ele>1673.743</ele>
        <time>2020-06-28T13:32:56Z</time>
      </trkpt>
      <trkpt lat="44.12233" lon="7.27062">
        <ele>1673.743</ele>
        <time>2020-06-28T13:33:12Z</time>
      </trkpt>
      <trkpt lat="44.12231" lon="7.27061">
        <ele>1674.78</ele>
        <time>2020-06-28T13:33:27Z</time>
      </trkpt>
      <trkpt lat="44.12231" lon="7.27061">
        <ele>1674.78</ele>
        <time>2020-06-28T13:33:42Z</time>
      </trkpt>
      <trkpt lat="44.12231" lon="7.27061">
        <ele>1674.78</ele>
        <time>2020-06-28T13:33:58Z</time>
      </trkpt>
      <trkpt lat="44.12231" lon="7.27061">
        <ele>1674.78</ele>
        <time>2020-06-28T13:34:14Z</time>
      </trkpt>
      <trkpt lat="44.12231" lon="7.27061">
        <ele>1674.78</ele>
        <time>2020-06-28T13:34:29Z</time>
      </trkpt>
      <trkpt lat="44.12231" lon="7.27061">
        <ele>1675.098</ele>
        <time>2020-06-28T13:34:45Z</time>
      </trkpt>
      <trkpt lat="44.12231" lon="7.27062">
        <ele>1674.651</ele>
        <time>2020-06-28T13:35:00Z</time>
      </trkpt>
      <trkpt lat="44.12231" lon="7.27062">
        <ele>1674.651</ele>
        <time>2020-06-28T13:35:16Z</time>
      </trkpt>
      <trkpt lat="44.12231" lon="7.27062">
        <ele>1674.651</ele>
        <time>2020-06-28T13:35:32Z</time>
      </trkpt>
      <trkpt lat="44.12234" lon="7.27064">
        <ele>1675.072</ele>
        <time>2020-06-28T13:35:47Z</time>
      </trkpt>
      <trkpt lat="44.12233" lon="7.27061">
        <ele>1677.194</ele>
        <time>2020-06-28T13:36:03Z</time>
      </trkpt>
      <trkpt lat="44.12233" lon="7.27061">
        <ele>1677.194</ele>
        <time>2020-06-28T13:36:19Z</time>
      </trkpt>
      <trkpt lat="44.12222" lon="7.27056">
        <ele>1676.689</ele>
        <time>2020-06-28T13:36:35Z</time>
      </trkpt>
      <trkpt lat="44.12204" lon="7.27049">
        <ele>1677.489</ele>
        <time>2020-06-28T13:36:51Z</time>
      </trkpt>
      <trkpt lat="44.12203" lon="7.2705">
        <ele>1677.605</ele>
        <time>2020-06-28T13:37:06Z</time>
      </trkpt>
      <trkpt lat="44.12217" lon="7.27046">
        <ele>1677.609</ele>
        <time>2020-06-28T13:37:22Z</time>
      </trkpt>
      <trkpt lat="44.12217" lon="7.27041">
        <ele>1675.155</ele>
        <time>2020-06-28T13:37:38Z</time>
      </trkpt>
      <trkpt lat="44.12217" lon="7.27041">
        <ele>1675.155</ele>
        <time>2020-06-28T13:37:54Z</time>
      </trkpt>
      <trkpt lat="44.12216" lon="7.27043">
        <ele>1673.963</ele>
        <time>2020-06-28T13:38:09Z</time>
      </trkpt>
      <trkpt lat="44.12211" lon="7.27046">
        <ele>1672.749</ele>
        <time>2020-06-28T13:38:25Z</time>
      </trkpt>
      <trkpt lat="44.12214" lon="7.27048">
        <ele>1671.93</ele>
        <time>2020-06-28T13:38:41Z</time>
      </trkpt>
      <trkpt lat="44.12217" lon="7.27043">
        <ele>1675.108</ele>
        <time>2020-06-28T13:38:56Z</time>
      </trkpt>
      <trkpt lat="44.12225" lon="7.27068">
        <ele>1668.974</ele>
        <time>2020-06-28T13:39:12Z</time>
      </trkpt>
      <trkpt lat="44.1223" lon="7.27064">
        <ele>1671.192</ele>
        <time>2020-06-28T13:39:28Z</time>
      </trkpt>
      <trkpt lat="44.12224" lon="7.2706">
        <ele>1671.369</ele>
        <time>2020-06-28T13:39:43Z</time>
      </trkpt>
      <trkpt lat="44.12224" lon="7.2706">
        <ele>1671.369</ele>
        <time>2020-06-28T13:39:58Z</time>
      </trkpt>
      <trkpt lat="44.12212" lon="7.27062">
        <ele>1670.634</ele>
        <time>2020-06-28T13:40:14Z</time>
      </trkpt>
      <trkpt lat="44.12212" lon="7.27063">
        <ele>1670.584</ele>
        <time>2020-06-28T13:40:29Z</time>
      </trkpt>
      <trkpt lat="44.12212" lon="7.27063">
        <ele>1670.584</ele>
        <time>2020-06-28T13:40:45Z</time>
      </trkpt>
      <trkpt lat="44.12202" lon="7.27044">
        <ele>1668.815</ele>
        <time>2020-06-28T13:41:01Z</time>
      </trkpt>
      <trkpt lat="44.1219" lon="7.2705">
        <ele>1661.733</ele>
        <time>2020-06-28T13:41:17Z</time>
      </trkpt>
      <trkpt lat="44.12186" lon="7.27051">
        <ele>1657.094</ele>
        <time>2020-06-28T13:41:33Z</time>
      </trkpt>
      <trkpt lat="44.12186" lon="7.27051">
        <ele>1657.094</ele>
        <time>2020-06-28T13:41:49Z</time>
      </trkpt>
      <trkpt lat="44.12186" lon="7.27051">
        <ele>1657.094</ele>
        <time>2020-06-28T13:42:05Z</time>
      </trkpt>
      <trkpt lat="44.12187" lon="7.27046">
        <ele>1658.695</ele>
        <time>2020-06-28T13:42:20Z</time>
      </trkpt>
      <trkpt lat="44.12187" lon="7.27046">
        <ele>1658.695</ele>
        <time>2020-06-28T13:42:35Z</time>
      </trkpt>
      <trkpt lat="44.12187" lon="7.27046">
        <ele>1658.695</ele>
        <time>2020-06-28T13:42:51Z</time>
      </trkpt>
      <trkpt lat="44.12187" lon="7.27046">
        <ele>1658.695</ele>
        <time>2020-06-28T13:43:07Z</time>
      </trkpt>
      <trkpt lat="44.12187" lon="7.27046">
        <ele>1658.695</ele>
        <time>2020-06-28T13:43:22Z</time>
      </trkpt>
      <trkpt lat="44.12187" lon="7.27046">
        <ele>1658.695</ele>
        <time>2020-06-28T13:43:37Z</time>
      </trkpt>
      <trkpt lat="44.12187" lon="7.27046">
        <ele>1658.695</ele>
        <time>2020-06-28T13:43:52Z</time>
      </trkpt>
      <trkpt lat="44.12192" lon="7.27039">
        <ele>1659.657</ele>
        <time>2020-06-28T13:44:08Z</time>
      </trkpt>
      <trkpt lat="44.12194" lon="7.27033">
        <ele>1658.899</ele>
        <time>2020-06-28T13:44:24Z</time>
      </trkpt>
      <trkpt lat="44.12211" lon="7.27032">
        <ele>1658.098</ele>
        <time>2020-06-28T13:44:39Z</time>
      </trkpt>
      <trkpt lat="44.12217" lon="7.27013">
        <ele>1660.68</ele>
        <time>2020-06-28T13:44:55Z</time>
      </trkpt>
      <trkpt lat="44.12229" lon="7.27003">
        <ele>1659.961</ele>
        <time>2020-06-28T13:45:11Z</time>
      </trkpt>
      <trkpt lat="44.12252" lon="7.26979">
        <ele>1659.454</ele>
        <time>2020-06-28T13:45:26Z</time>
      </trkpt>
      <trkpt lat="44.12264" lon="7.2696">
        <ele>1655.199</ele>
        <time>2020-06-28T13:45:42Z</time>
      </trkpt>
      <trkpt lat="44.1227" lon="7.26933">
        <ele>1650.949</ele>
        <time>2020-06-28T13:45:57Z</time>
      </trkpt>
      <trkpt lat="44.12288" lon="7.26921">
        <ele>1646.247</ele>
        <time>2020-06-28T13:46:13Z</time>
      </trkpt>
      <trkpt lat="44.12293" lon="7.26898">
        <ele>1641.167</ele>
        <time>2020-06-28T13:46:29Z</time>
      </trkpt>
      <trkpt lat="44.12303" lon="7.26889">
        <ele>1639.914</ele>
        <time>2020-06-28T13:46:44Z</time>
      </trkpt>
      <trkpt lat="44.1231" lon="7.26864">
        <ele>1637.233</ele>
        <time>2020-06-28T13:47:00Z</time>
      </trkpt>
      <trkpt lat="44.12322" lon="7.26845">
        <ele>1641.96</ele>
        <time>2020-06-28T13:47:15Z</time>
      </trkpt>
      <trkpt lat="44.12315" lon="7.26835">
        <ele>1643.609</ele>
        <time>2020-06-28T13:47:30Z</time>
      </trkpt>
      <trkpt lat="44.1231" lon="7.26826">
        <ele>1645.393</ele>
        <time>2020-06-28T13:47:45Z</time>
      </trkpt>
      <trkpt lat="44.12304" lon="7.26809">
        <ele>1643.45</ele>
        <time>2020-06-28T13:48:01Z</time>
      </trkpt>
      <trkpt lat="44.12307" lon="7.26795">
        <ele>1638.763</ele>
        <time>2020-06-28T13:48:16Z</time>
      </trkpt>
      <trkpt lat="44.12308" lon="7.26786">
        <ele>1640.698</ele>
        <time>2020-06-28T13:48:32Z</time>
      </trkpt>
      <trkpt lat="44.12313" lon="7.26766">
        <ele>1641.299</ele>
        <time>2020-06-28T13:48:48Z</time>
      </trkpt>
      <trkpt lat="44.12313" lon="7.26764">
        <ele>1641.312</ele>
        <time>2020-06-28T13:49:03Z</time>
      </trkpt>
      <trkpt lat="44.12341" lon="7.26747">
        <ele>1647.952</ele>
        <time>2020-06-28T13:49:18Z</time>
      </trkpt>
      <trkpt lat="44.1236" lon="7.26741">
        <ele>1651.4</ele>
        <time>2020-06-28T13:49:34Z</time>
      </trkpt>
      <trkpt lat="44.1236" lon="7.26741">
        <ele>1651.4</ele>
        <time>2020-06-28T13:49:49Z</time>
      </trkpt>
      <trkpt lat="44.12367" lon="7.26721">
        <ele>1653.683</ele>
        <time>2020-06-28T13:50:05Z</time>
      </trkpt>
      <trkpt lat="44.12379" lon="7.26712">
        <ele>1659.856</ele>
        <time>2020-06-28T13:50:21Z</time>
      </trkpt>
      <trkpt lat="44.12388" lon="7.26706">
        <ele>1662.293</ele>
        <time>2020-06-28T13:50:37Z</time>
      </trkpt>
      <trkpt lat="44.12402" lon="7.26694">
        <ele>1659.433</ele>
        <time>2020-06-28T13:50:52Z</time>
      </trkpt>
      <trkpt lat="44.12413" lon="7.26678">
        <ele>1666.946</ele>
        <time>2020-06-28T13:51:08Z</time>
      </trkpt>
      <trkpt lat="44.1241" lon="7.26668">
        <ele>1669.851</ele>
        <time>2020-06-28T13:51:24Z</time>
      </trkpt>
      <trkpt lat="44.12414" lon="7.26659">
        <ele>1674.842</ele>
        <time>2020-06-28T13:51:40Z</time>
      </trkpt>
      <trkpt lat="44.12419" lon="7.26655">
        <ele>1676.889</ele>
        <time>2020-06-28T13:51:55Z</time>
      </trkpt>
      <trkpt lat="44.12427" lon="7.26659">
        <ele>1683.256</ele>
        <time>2020-06-28T13:52:10Z</time>
      </trkpt>
      <trkpt lat="44.12437" lon="7.26633">
        <ele>1688.836</ele>
        <time>2020-06-28T13:52:26Z</time>
      </trkpt>
      <trkpt lat="44.12441" lon="7.26624">
        <ele>1687.701</ele>
        <time>2020-06-28T13:52:41Z</time>
      </trkpt>
      <trkpt lat="44.12445" lon="7.26622">
        <ele>1687.875</ele>
        <time>2020-06-28T13:52:57Z</time>
      </trkpt>
      <trkpt lat="44.12446" lon="7.26605">
        <ele>1688.368</ele>
        <time>2020-06-28T13:53:12Z</time>
      </trkpt>
      <trkpt lat="44.12456" lon="7.26587">
        <ele>1680.914</ele>
        <time>2020-06-28T13:53:28Z</time>
      </trkpt>
      <trkpt lat="44.12465" lon="7.26568">
        <ele>1677.12</ele>
        <time>2020-06-28T13:53:43Z</time>
      </trkpt>
      <trkpt lat="44.12472" lon="7.26555">
        <ele>1673.571</ele>
        <time>2020-06-28T13:53:59Z</time>
      </trkpt>
      <trkpt lat="44.12477" lon="7.2654">
        <ele>1675.95</ele>
        <time>2020-06-28T13:54:14Z</time>
      </trkpt>
      <trkpt lat="44.12482" lon="7.26523">
        <ele>1679.021</ele>
        <time>2020-06-28T13:54:30Z</time>
      </trkpt>
      <trkpt lat="44.12481" lon="7.26519">
        <ele>1680.07</ele>
        <time>2020-06-28T13:54:45Z</time>
      </trkpt>
      <trkpt lat="44.12487" lon="7.26504">
        <ele>1679.107</ele>
        <time>2020-06-28T13:55:01Z</time>
      </trkpt>
      <trkpt lat="44.12493" lon="7.26484">
        <ele>1683.459</ele>
        <time>2020-06-28T13:55:17Z</time>
      </trkpt>
      <trkpt lat="44.12492" lon="7.26471">
        <ele>1683.556</ele>
        <time>2020-06-28T13:55:33Z</time>
      </trkpt>
      <trkpt lat="44.12488" lon="7.2646">
        <ele>1683.651</ele>
        <time>2020-06-28T13:55:49Z</time>
      </trkpt>
      <trkpt lat="44.12483" lon="7.26445">
        <ele>1679.285</ele>
        <time>2020-06-28T13:56:05Z</time>
      </trkpt>
      <trkpt lat="44.12487" lon="7.26422">
        <ele>1682.223</ele>
        <time>2020-06-28T13:56:21Z</time>
      </trkpt>
      <trkpt lat="44.12492" lon="7.26411">
        <ele>1688.241</ele>
        <time>2020-06-28T13:56:37Z</time>
      </trkpt>
      <trkpt lat="44.12498" lon="7.2641">
        <ele>1690.696</ele>
        <time>2020-06-28T13:56:52Z</time>
      </trkpt>
      <trkpt lat="44.12502" lon="7.26403">
        <ele>1689.21</ele>
        <time>2020-06-28T13:57:08Z</time>
      </trkpt>
      <trkpt lat="44.12514" lon="7.26384">
        <ele>1686.017</ele>
        <time>2020-06-28T13:57:24Z</time>
      </trkpt>
      <trkpt lat="44.12518" lon="7.2637">
        <ele>1685.316</ele>
        <time>2020-06-28T13:57:40Z</time>
      </trkpt>
      <trkpt lat="44.12519" lon="7.26366">
        <ele>1687.063</ele>
        <time>2020-06-28T13:57:56Z</time>
      </trkpt>
      <trkpt lat="44.12535" lon="7.26342">
        <ele>1691.333</ele>
        <time>2020-06-28T13:58:12Z</time>
      </trkpt>
      <trkpt lat="44.12542" lon="7.26321">
        <ele>1693.449</ele>
        <time>2020-06-28T13:58:27Z</time>
      </trkpt>
      <trkpt lat="44.12549" lon="7.26306">
        <ele>1697.273</ele>
        <time>2020-06-28T13:58:43Z</time>
      </trkpt>
      <trkpt lat="44.12539" lon="7.2628">
        <ele>1701.751</ele>
        <time>2020-06-28T13:58:59Z</time>
      </trkpt>
      <trkpt lat="44.12541" lon="7.26272">
        <ele>1702.572</ele>
        <time>2020-06-28T13:59:15Z</time>
      </trkpt>
      <trkpt lat="44.12546" lon="7.2626">
        <ele>1706.771</ele>
        <time>2020-06-28T13:59:31Z</time>
      </trkpt>
      <trkpt lat="44.12551" lon="7.26246">
        <ele>1711.142</ele>
        <time>2020-06-28T13:59:47Z</time>
      </trkpt>
      <trkpt lat="44.12551" lon="7.26243">
        <ele>1711.01</ele>
        <time>2020-06-28T14:00:02Z</time>
      </trkpt>
      <trkpt lat="44.1255" lon="7.26219">
        <ele>1709.831</ele>
        <time>2020-06-28T14:00:18Z</time>
      </trkpt>
      <trkpt lat="44.12548" lon="7.26198">
        <ele>1710.315</ele>
        <time>2020-06-28T14:00:33Z</time>
      </trkpt>
      <trkpt lat="44.12551" lon="7.26182">
        <ele>1707.711</ele>
        <time>2020-06-28T14:00:49Z</time>
      </trkpt>
      <trkpt lat="44.12552" lon="7.26174">
        <ele>1704.469</ele>
        <time>2020-06-28T14:01:04Z</time>
      </trkpt>
      <trkpt lat="44.12554" lon="7.26164">
        <ele>1706.402</ele>
        <time>2020-06-28T14:01:20Z</time>
      </trkpt>
      <trkpt lat="44.12565" lon="7.26147">
        <ele>1711.807</ele>
        <time>2020-06-28T14:01:35Z</time>
      </trkpt>
      <trkpt lat="44.12569" lon="7.26133">
        <ele>1719.279</ele>
        <time>2020-06-28T14:01:50Z</time>
      </trkpt>
      <trkpt lat="44.12583" lon="7.26129">
        <ele>1719.984</ele>
        <time>2020-06-28T14:02:05Z</time>
      </trkpt>
      <trkpt lat="44.12586" lon="7.26119">
        <ele>1723.139</ele>
        <time>2020-06-28T14:02:21Z</time>
      </trkpt>
      <trkpt lat="44.1258" lon="7.26097">
        <ele>1719.144</ele>
        <time>2020-06-28T14:02:37Z</time>
      </trkpt>
      <trkpt lat="44.12578" lon="7.26088">
        <ele>1718.577</ele>
        <time>2020-06-28T14:02:52Z</time>
      </trkpt>
      <trkpt lat="44.12586" lon="7.26069">
        <ele>1713.836</ele>
        <time>2020-06-28T14:03:08Z</time>
      </trkpt>
      <trkpt lat="44.12587" lon="7.26067">
        <ele>1714.134</ele>
        <time>2020-06-28T14:03:23Z</time>
      </trkpt>
      <trkpt lat="44.12603" lon="7.26058">
        <ele>1711.686</ele>
        <time>2020-06-28T14:03:38Z</time>
      </trkpt>
      <trkpt lat="44.12603" lon="7.26059">
        <ele>1716.986</ele>
        <time>2020-06-28T14:03:53Z</time>
      </trkpt>
      <trkpt lat="44.12585" lon="7.2604">
        <ele>1716.136</ele>
        <time>2020-06-28T14:04:09Z</time>
      </trkpt>
      <trkpt lat="44.12582" lon="7.26028">
        <ele>1717.715</ele>
        <time>2020-06-28T14:04:24Z</time>
      </trkpt>
      <trkpt lat="44.12587" lon="7.26014">
        <ele>1717.251</ele>
        <time>2020-06-28T14:04:40Z</time>
      </trkpt>
      <trkpt lat="44.12598" lon="7.26001">
        <ele>1722.486</ele>
        <time>2020-06-28T14:04:55Z</time>
      </trkpt>
      <trkpt lat="44.12609" lon="7.2598">
        <ele>1727.362</ele>
        <time>2020-06-28T14:05:11Z</time>
      </trkpt>
      <trkpt lat="44.12618" lon="7.25964">
        <ele>1726.064</ele>
        <time>2020-06-28T14:05:26Z</time>
      </trkpt>
      <trkpt lat="44.12617" lon="7.25947">
        <ele>1726.437</ele>
        <time>2020-06-28T14:05:41Z</time>
      </trkpt>
      <trkpt lat="44.12619" lon="7.25938">
        <ele>1734.105</ele>
        <time>2020-06-28T14:05:57Z</time>
      </trkpt>
      <trkpt lat="44.12615" lon="7.2593">
        <ele>1733.703</ele>
        <time>2020-06-28T14:06:13Z</time>
      </trkpt>
      <trkpt lat="44.12608" lon="7.25904">
        <ele>1736.502</ele>
        <time>2020-06-28T14:06:28Z</time>
      </trkpt>
      <trkpt lat="44.12602" lon="7.2589">
        <ele>1737.582</ele>
        <time>2020-06-28T14:06:43Z</time>
      </trkpt>
      <trkpt lat="44.12602" lon="7.25889">
        <ele>1737.147</ele>
        <time>2020-06-28T14:06:59Z</time>
      </trkpt>
      <trkpt lat="44.12599" lon="7.25875">
        <ele>1739.218</ele>
        <time>2020-06-28T14:07:14Z</time>
      </trkpt>
      <trkpt lat="44.12591" lon="7.25852">
        <ele>1747.765</ele>
        <time>2020-06-28T14:07:30Z</time>
      </trkpt>
      <trkpt lat="44.12593" lon="7.25836">
        <ele>1753.048</ele>
        <time>2020-06-28T14:07:45Z</time>
      </trkpt>
      <trkpt lat="44.12596" lon="7.25817">
        <ele>1756.767</ele>
        <time>2020-06-28T14:08:01Z</time>
      </trkpt>
      <trkpt lat="44.12605" lon="7.25803">
        <ele>1762.163</ele>
        <time>2020-06-28T14:08:16Z</time>
      </trkpt>
      <trkpt lat="44.12605" lon="7.25803">
        <ele>1762.163</ele>
        <time>2020-06-28T14:08:31Z</time>
      </trkpt>
      <trkpt lat="44.12613" lon="7.25787">
        <ele>1763.971</ele>
        <time>2020-06-28T14:08:47Z</time>
      </trkpt>
      <trkpt lat="44.12615" lon="7.25764">
        <ele>1763.013</ele>
        <time>2020-06-28T14:09:03Z</time>
      </trkpt>
      <trkpt lat="44.12618" lon="7.25752">
        <ele>1765.202</ele>
        <time>2020-06-28T14:09:19Z</time>
      </trkpt>
      <trkpt lat="44.12621" lon="7.25748">
        <ele>1761.774</ele>
        <time>2020-06-28T14:09:35Z</time>
      </trkpt>
      <trkpt lat="44.1263" lon="7.25739">
        <ele>1762.25</ele>
        <time>2020-06-28T14:09:50Z</time>
      </trkpt>
      <trkpt lat="44.12637" lon="7.25733">
        <ele>1758.745</ele>
        <time>2020-06-28T14:10:06Z</time>
      </trkpt>
      <trkpt lat="44.12632" lon="7.25724">
        <ele>1765.721</ele>
        <time>2020-06-28T14:10:21Z</time>
      </trkpt>
      <trkpt lat="44.12633" lon="7.25725">
        <ele>1767.845</ele>
        <time>2020-06-28T14:10:36Z</time>
      </trkpt>
      <trkpt lat="44.12639" lon="7.25722">
        <ele>1773.25</ele>
        <time>2020-06-28T14:10:51Z</time>
      </trkpt>
      <trkpt lat="44.12638" lon="7.25718">
        <ele>1774.783</ele>
        <time>2020-06-28T14:11:07Z</time>
      </trkpt>
      <trkpt lat="44.12639" lon="7.25721">
        <ele>1777.94</ele>
        <time>2020-06-28T14:11:22Z</time>
      </trkpt>
      <trkpt lat="44.12631" lon="7.25703">
        <ele>1783.841</ele>
        <time>2020-06-28T14:11:38Z</time>
      </trkpt>
      <trkpt lat="44.12634" lon="7.2569">
        <ele>1788.916</ele>
        <time>2020-06-28T14:11:54Z</time>
      </trkpt>
      <trkpt lat="44.12634" lon="7.2569">
        <ele>1788.916</ele>
        <time>2020-06-28T14:12:09Z</time>
      </trkpt>
      <trkpt lat="44.12642" lon="7.25678">
        <ele>1788.215</ele>
        <time>2020-06-28T14:12:25Z</time>
      </trkpt>
      <trkpt lat="44.12645" lon="7.25664">
        <ele>1787.135</ele>
        <time>2020-06-28T14:12:40Z</time>
      </trkpt>
      <trkpt lat="44.12656" lon="7.25648">
        <ele>1786.958</ele>
        <time>2020-06-28T14:12:56Z</time>
      </trkpt>
      <trkpt lat="44.12656" lon="7.25648">
        <ele>1786.958</ele>
        <time>2020-06-28T14:13:11Z</time>
      </trkpt>
      <trkpt lat="44.12655" lon="7.25638">
        <ele>1788.328</ele>
        <time>2020-06-28T14:13:27Z</time>
      </trkpt>
      <trkpt lat="44.12659" lon="7.25605">
        <ele>1791.443</ele>
        <time>2020-06-28T14:13:43Z</time>
      </trkpt>
      <trkpt lat="44.12656" lon="7.25599">
        <ele>1792.032</ele>
        <time>2020-06-28T14:13:58Z</time>
      </trkpt>
      <trkpt lat="44.1264" lon="7.25575">
        <ele>1793.228</ele>
        <time>2020-06-28T14:14:13Z</time>
      </trkpt>
      <trkpt lat="44.1264" lon="7.25562">
        <ele>1792.035</ele>
        <time>2020-06-28T14:14:29Z</time>
      </trkpt>
      <trkpt lat="44.12651" lon="7.25545">
        <ele>1786.041</ele>
        <time>2020-06-28T14:14:45Z</time>
      </trkpt>
      <trkpt lat="44.12651" lon="7.25545">
        <ele>1786.041</ele>
        <time>2020-06-28T14:15:00Z</time>
      </trkpt>
      <trkpt lat="44.12647" lon="7.25526">
        <ele>1787.688</ele>
        <time>2020-06-28T14:15:16Z</time>
      </trkpt>
      <trkpt lat="44.1265" lon="7.25508">
        <ele>1789.13</ele>
        <time>2020-06-28T14:15:32Z</time>
      </trkpt>
      <trkpt lat="44.12656" lon="7.25488">
        <ele>1790.517</ele>
        <time>2020-06-28T14:15:48Z</time>
      </trkpt>
      <trkpt lat="44.12654" lon="7.25462">
        <ele>1792.597</ele>
        <time>2020-06-28T14:16:04Z</time>
      </trkpt>
      <trkpt lat="44.1266" lon="7.25459">
        <ele>1799.485</ele>
        <time>2020-06-28T14:16:20Z</time>
      </trkpt>
      <trkpt lat="44.12665" lon="7.2545">
        <ele>1802.432</ele>
        <time>2020-06-28T14:16:35Z</time>
      </trkpt>
      <trkpt lat="44.12665" lon="7.25436">
        <ele>1806.36</ele>
        <time>2020-06-28T14:16:51Z</time>
      </trkpt>
      <trkpt lat="44.1267" lon="7.25416">
        <ele>1814.021</ele>
        <time>2020-06-28T14:17:06Z</time>
      </trkpt>
      <trkpt lat="44.12674" lon="7.25411">
        <ele>1818.357</ele>
        <time>2020-06-28T14:17:22Z</time>
      </trkpt>
      <trkpt lat="44.12682" lon="7.25391">
        <ele>1821.713</ele>
        <time>2020-06-28T14:17:38Z</time>
      </trkpt>
      <trkpt lat="44.1269" lon="7.25384">
        <ele>1827.162</ele>
        <time>2020-06-28T14:17:54Z</time>
      </trkpt>
      <trkpt lat="44.1269" lon="7.25374">
        <ele>1832.304</ele>
        <time>2020-06-28T14:18:10Z</time>
      </trkpt>
      <trkpt lat="44.12689" lon="7.25363">
        <ele>1831.071</ele>
        <time>2020-06-28T14:18:26Z</time>
      </trkpt>
      <trkpt lat="44.12694" lon="7.25343">
        <ele>1831.811</ele>
        <time>2020-06-28T14:18:41Z</time>
      </trkpt>
      <trkpt lat="44.12697" lon="7.25327">
        <ele>1829.86</ele>
        <time>2020-06-28T14:18:57Z</time>
      </trkpt>
      <trkpt lat="44.12696" lon="7.25311">
        <ele>1832.349</ele>
        <time>2020-06-28T14:19:12Z</time>
      </trkpt>
      <trkpt lat="44.12697" lon="7.25289">
        <ele>1835.933</ele>
        <time>2020-06-28T14:19:28Z</time>
      </trkpt>
      <trkpt lat="44.12698" lon="7.25288">
        <ele>1837.054</ele>
        <time>2020-06-28T14:19:44Z</time>
      </trkpt>
      <trkpt lat="44.12696" lon="7.25287">
        <ele>1837.476</ele>
        <time>2020-06-28T14:20:00Z</time>
      </trkpt>
      <trkpt lat="44.12688" lon="7.25283">
        <ele>1842.238</ele>
        <time>2020-06-28T14:20:16Z</time>
      </trkpt>
      <trkpt lat="44.1268" lon="7.25288">
        <ele>1849.1</ele>
        <time>2020-06-28T14:20:31Z</time>
      </trkpt>
      <trkpt lat="44.12677" lon="7.2529">
        <ele>1852.272</ele>
        <time>2020-06-28T14:20:47Z</time>
      </trkpt>
      <trkpt lat="44.12671" lon="7.25285">
        <ele>1851.877</ele>
        <time>2020-06-28T14:21:02Z</time>
      </trkpt>
      <trkpt lat="44.1267" lon="7.25277">
        <ele>1851.675</ele>
        <time>2020-06-28T14:21:18Z</time>
      </trkpt>
      <trkpt lat="44.12669" lon="7.2527">
        <ele>1851.148</ele>
        <time>2020-06-28T14:21:33Z</time>
      </trkpt>
      <trkpt lat="44.12668" lon="7.2526">
        <ele>1850.757</ele>
        <time>2020-06-28T14:21:49Z</time>
      </trkpt>
      <trkpt lat="44.12679" lon="7.25248">
        <ele>1853.66</ele>
        <time>2020-06-28T14:22:05Z</time>
      </trkpt>
      <trkpt lat="44.1268" lon="7.25238">
        <ele>1852.414</ele>
        <time>2020-06-28T14:22:21Z</time>
      </trkpt>
      <trkpt lat="44.1268" lon="7.25234">
        <ele>1850.003</ele>
        <time>2020-06-28T14:22:37Z</time>
      </trkpt>
      <trkpt lat="44.12689" lon="7.25217">
        <ele>1855.326</ele>
        <time>2020-06-28T14:22:52Z</time>
      </trkpt>
      <trkpt lat="44.12697" lon="7.25224">
        <ele>1860.115</ele>
        <time>2020-06-28T14:23:08Z</time>
      </trkpt>
      <trkpt lat="44.12704" lon="7.25229">
        <ele>1856.953</ele>
        <time>2020-06-28T14:23:24Z</time>
      </trkpt>
      <trkpt lat="44.1271" lon="7.25229">
        <ele>1857.885</ele>
        <time>2020-06-28T14:23:40Z</time>
      </trkpt>
      <trkpt lat="44.12713" lon="7.25232">
        <ele>1858.071</ele>
        <time>2020-06-28T14:23:56Z</time>
      </trkpt>
      <trkpt lat="44.12711" lon="7.25234">
        <ele>1859.693</ele>
        <time>2020-06-28T14:24:11Z</time>
      </trkpt>
      <trkpt lat="44.12711" lon="7.25233">
        <ele>1859.972</ele>
        <time>2020-06-28T14:24:27Z</time>
      </trkpt>
      <trkpt lat="44.12707" lon="7.25232">
        <ele>1856.084</ele>
        <time>2020-06-28T14:24:43Z</time>
      </trkpt>
      <trkpt lat="44.12705" lon="7.25231">
        <ele>1854.891</ele>
        <time>2020-06-28T14:24:59Z</time>
      </trkpt>
      <trkpt lat="44.12699" lon="7.2522">
        <ele>1853.246</ele>
        <time>2020-06-28T14:25:14Z</time>
      </trkpt>
      <trkpt lat="44.12694" lon="7.25214">
        <ele>1852.086</ele>
        <time>2020-06-28T14:25:30Z</time>
      </trkpt>
      <trkpt lat="44.1269" lon="7.25206">
        <ele>1852.43</ele>
        <time>2020-06-28T14:25:46Z</time>
      </trkpt>
      <trkpt lat="44.12689" lon="7.25205">
        <ele>1853.3</ele>
        <time>2020-06-28T14:26:01Z</time>
      </trkpt>
      <trkpt lat="44.12687" lon="7.25197">
        <ele>1853.578</ele>
        <time>2020-06-28T14:26:16Z</time>
      </trkpt>
      <trkpt lat="44.12682" lon="7.25189">
        <ele>1853.096</ele>
        <time>2020-06-28T14:26:32Z</time>
      </trkpt>
      <trkpt lat="44.12678" lon="7.25182">
        <ele>1854.503</ele>
        <time>2020-06-28T14:26:47Z</time>
      </trkpt>
      <trkpt lat="44.12682" lon="7.25178">
        <ele>1857.676</ele>
        <time>2020-06-28T14:27:03Z</time>
      </trkpt>
      <trkpt lat="44.12681" lon="7.25176">
        <ele>1860.758</ele>
        <time>2020-06-28T14:27:18Z</time>
      </trkpt>
      <trkpt lat="44.1268" lon="7.25177">
        <ele>1865.123</ele>
        <time>2020-06-28T14:27:33Z</time>
      </trkpt>
      <trkpt lat="44.12676" lon="7.25173">
        <ele>1866.209</ele>
        <time>2020-06-28T14:27:49Z</time>
      </trkpt>
      <trkpt lat="44.12676" lon="7.25164">
        <ele>1866.551</ele>
        <time>2020-06-28T14:28:04Z</time>
      </trkpt>
      <trkpt lat="44.12678" lon="7.25154">
        <ele>1868.16</ele>
        <time>2020-06-28T14:28:20Z</time>
      </trkpt>
      <trkpt lat="44.12683" lon="7.25135">
        <ele>1874.737</ele>
        <time>2020-06-28T14:28:35Z</time>
      </trkpt>
      <trkpt lat="44.12677" lon="7.25127">
        <ele>1886.882</ele>
        <time>2020-06-28T14:28:51Z</time>
      </trkpt>
      <trkpt lat="44.12677" lon="7.25135">
        <ele>1888.383</ele>
        <time>2020-06-28T14:29:06Z</time>
      </trkpt>
      <trkpt lat="44.12674" lon="7.25133">
        <ele>1891.328</ele>
        <time>2020-06-28T14:29:21Z</time>
      </trkpt>
      <trkpt lat="44.12671" lon="7.2514">
        <ele>1891.558</ele>
        <time>2020-06-28T14:29:37Z</time>
      </trkpt>
      <trkpt lat="44.12668" lon="7.2514">
        <ele>1893.845</ele>
        <time>2020-06-28T14:29:52Z</time>
      </trkpt>
      <trkpt lat="44.12666" lon="7.25137">
        <ele>1892.49</ele>
        <time>2020-06-28T14:30:08Z</time>
      </trkpt>
      <trkpt lat="44.12665" lon="7.25128">
        <ele>1892.305</ele>
        <time>2020-06-28T14:30:23Z</time>
      </trkpt>
      <trkpt lat="44.12671" lon="7.25119">
        <ele>1894.497</ele>
        <time>2020-06-28T14:30:39Z</time>
      </trkpt>
      <trkpt lat="44.12672" lon="7.25114">
        <ele>1897.842</ele>
        <time>2020-06-28T14:30:55Z</time>
      </trkpt>
      <trkpt lat="44.12675" lon="7.25105">
        <ele>1894.834</ele>
        <time>2020-06-28T14:31:11Z</time>
      </trkpt>
      <trkpt lat="44.1268" lon="7.25089">
        <ele>1894.707</ele>
        <time>2020-06-28T14:31:26Z</time>
      </trkpt>
      <trkpt lat="44.1268" lon="7.25087">
        <ele>1900.329</ele>
        <time>2020-06-28T14:31:41Z</time>
      </trkpt>
      <trkpt lat="44.12679" lon="7.25091">
        <ele>1900.02</ele>
        <time>2020-06-28T14:31:57Z</time>
      </trkpt>
      <trkpt lat="44.12669" lon="7.251">
        <ele>1903.34</ele>
        <time>2020-06-28T14:32:13Z</time>
      </trkpt>
      <trkpt lat="44.12668" lon="7.25109">
        <ele>1903.499</ele>
        <time>2020-06-28T14:32:29Z</time>
      </trkpt>
      <trkpt lat="44.12665" lon="7.25106">
        <ele>1902.941</ele>
        <time>2020-06-28T14:32:45Z</time>
      </trkpt>
      <trkpt lat="44.12656" lon="7.25116">
        <ele>1905.403</ele>
        <time>2020-06-28T14:33:00Z</time>
      </trkpt>
      <trkpt lat="44.12651" lon="7.2512">
        <ele>1909.918</ele>
        <time>2020-06-28T14:33:16Z</time>
      </trkpt>
      <trkpt lat="44.12649" lon="7.25118">
        <ele>1907.934</ele>
        <time>2020-06-28T14:33:31Z</time>
      </trkpt>
      <trkpt lat="44.12649" lon="7.25118">
        <ele>1907.934</ele>
        <time>2020-06-28T14:33:47Z</time>
      </trkpt>
      <trkpt lat="44.12649" lon="7.25118">
        <ele>1907.934</ele>
        <time>2020-06-28T14:34:03Z</time>
      </trkpt>
      <trkpt lat="44.12645" lon="7.25114">
        <ele>1913.816</ele>
        <time>2020-06-28T14:34:18Z</time>
      </trkpt>
      <trkpt lat="44.12646" lon="7.25107">
        <ele>1916.075</ele>
        <time>2020-06-28T14:34:34Z</time>
      </trkpt>
      <trkpt lat="44.12642" lon="7.25089">
        <ele>1914.882</ele>
        <time>2020-06-28T14:34:49Z</time>
      </trkpt>
      <trkpt lat="44.12642" lon="7.25089">
        <ele>1914.882</ele>
        <time>2020-06-28T14:35:05Z</time>
      </trkpt>
      <trkpt lat="44.12642" lon="7.25087">
        <ele>1912.738</ele>
        <time>2020-06-28T14:35:21Z</time>
      </trkpt>
      <trkpt lat="44.1264" lon="7.25079">
        <ele>1914.068</ele>
        <time>2020-06-28T14:35:37Z</time>
      </trkpt>
      <trkpt lat="44.12631" lon="7.25094">
        <ele>1918.898</ele>
        <time>2020-06-28T14:35:53Z</time>
      </trkpt>
      <trkpt lat="44.12628" lon="7.25104">
        <ele>1922.748</ele>
        <time>2020-06-28T14:36:08Z</time>
      </trkpt>
      <trkpt lat="44.12622" lon="7.25104">
        <ele>1923.759</ele>
        <time>2020-06-28T14:36:24Z</time>
      </trkpt>
      <trkpt lat="44.12611" lon="7.25109">
        <ele>1923.067</ele>
        <time>2020-06-28T14:36:39Z</time>
      </trkpt>
      <trkpt lat="44.12598" lon="7.2512">
        <ele>1927.884</ele>
        <time>2020-06-28T14:36:55Z</time>
      </trkpt>
      <trkpt lat="44.12593" lon="7.25122">
        <ele>1926.611</ele>
        <time>2020-06-28T14:37:11Z</time>
      </trkpt>
      <trkpt lat="44.12578" lon="7.25113">
        <ele>1925.781</ele>
        <time>2020-06-28T14:37:26Z</time>
      </trkpt>
      <trkpt lat="44.12569" lon="7.25106">
        <ele>1922.966</ele>
        <time>2020-06-28T14:37:42Z</time>
      </trkpt>
      <trkpt lat="44.12566" lon="7.25109">
        <ele>1922.197</ele>
        <time>2020-06-28T14:37:58Z</time>
      </trkpt>
      <trkpt lat="44.12565" lon="7.2511">
        <ele>1922.264</ele>
        <time>2020-06-28T14:38:14Z</time>
      </trkpt>
      <trkpt lat="44.12558" lon="7.25119">
        <ele>1927.731</ele>
        <time>2020-06-28T14:38:29Z</time>
      </trkpt>
      <trkpt lat="44.12557" lon="7.25118">
        <ele>1927.047</ele>
        <time>2020-06-28T14:38:44Z</time>
      </trkpt>
      <trkpt lat="44.12553" lon="7.25119">
        <ele>1926.22</ele>
        <time>2020-06-28T14:39:00Z</time>
      </trkpt>
      <trkpt lat="44.12537" lon="7.25108">
        <ele>1921.285</ele>
        <time>2020-06-28T14:39:15Z</time>
      </trkpt>
      <trkpt lat="44.12517" lon="7.25111">
        <ele>1928.627</ele>
        <time>2020-06-28T14:39:30Z</time>
      </trkpt>
      <trkpt lat="44.12505" lon="7.25121">
        <ele>1935.482</ele>
        <time>2020-06-28T14:39:45Z</time>
      </trkpt>
      <trkpt lat="44.12495" lon="7.25118">
        <ele>1925.231</ele>
        <time>2020-06-28T14:40:00Z</time>
      </trkpt>
      <trkpt lat="44.12487" lon="7.25119">
        <ele>1930.465</ele>
        <time>2020-06-28T14:40:16Z</time>
      </trkpt>
      <trkpt lat="44.12486" lon="7.25117">
        <ele>1931.462</ele>
        <time>2020-06-28T14:40:32Z</time>
      </trkpt>
      <trkpt lat="44.12482" lon="7.25107">
        <ele>1930.311</ele>
        <time>2020-06-28T14:40:47Z</time>
      </trkpt>
      <trkpt lat="44.12483" lon="7.25105">
        <ele>1931.075</ele>
        <time>2020-06-28T14:41:03Z</time>
      </trkpt>
      <trkpt lat="44.12487" lon="7.25103">
        <ele>1934.332</ele>
        <time>2020-06-28T14:41:19Z</time>
      </trkpt>
      <trkpt lat="44.12493" lon="7.25099">
        <ele>1936.664</ele>
        <time>2020-06-28T14:41:34Z</time>
      </trkpt>
      <trkpt lat="44.12507" lon="7.25095">
        <ele>1942.913</ele>
        <time>2020-06-28T14:41:49Z</time>
      </trkpt>
      <trkpt lat="44.12509" lon="7.25104">
        <ele>1950.234</ele>
        <time>2020-06-28T14:42:05Z</time>
      </trkpt>
      <trkpt lat="44.12521" lon="7.25091">
        <ele>1950.176</ele>
        <time>2020-06-28T14:42:20Z</time>
      </trkpt>
      <trkpt lat="44.12528" lon="7.25086">
        <ele>1954.6</ele>
        <time>2020-06-28T14:42:36Z</time>
      </trkpt>
      <trkpt lat="44.12539" lon="7.25077">
        <ele>1957.902</ele>
        <time>2020-06-28T14:42:51Z</time>
      </trkpt>
      <trkpt lat="44.12547" lon="7.25077">
        <ele>1961.881</ele>
        <time>2020-06-28T14:43:07Z</time>
      </trkpt>
      <trkpt lat="44.12561" lon="7.25066">
        <ele>1970.158</ele>
        <time>2020-06-28T14:43:23Z</time>
      </trkpt>
      <trkpt lat="44.1257" lon="7.25055">
        <ele>1966.748</ele>
        <time>2020-06-28T14:43:39Z</time>
      </trkpt>
      <trkpt lat="44.12573" lon="7.25036">
        <ele>1971.849</ele>
        <time>2020-06-28T14:43:55Z</time>
      </trkpt>
      <trkpt lat="44.12583" lon="7.2503">
        <ele>1974.487</ele>
        <time>2020-06-28T14:44:11Z</time>
      </trkpt>
      <trkpt lat="44.12585" lon="7.2502">
        <ele>1971.78</ele>
        <time>2020-06-28T14:44:26Z</time>
      </trkpt>
      <trkpt lat="44.12596" lon="7.25009">
        <ele>1976.008</ele>
        <time>2020-06-28T14:44:42Z</time>
      </trkpt>
      <trkpt lat="44.12597" lon="7.25005">
        <ele>1978.11</ele>
        <time>2020-06-28T14:44:57Z</time>
      </trkpt>
      <trkpt lat="44.12597" lon="7.25005">
        <ele>1978.11</ele>
        <time>2020-06-28T14:45:13Z</time>
      </trkpt>
      <trkpt lat="44.12597" lon="7.25005">
        <ele>1978.11</ele>
        <time>2020-06-28T14:45:29Z</time>
      </trkpt>
      <trkpt lat="44.12597" lon="7.25005">
        <ele>1978.11</ele>
        <time>2020-06-28T14:45:45Z</time>
      </trkpt>
      <trkpt lat="44.12597" lon="7.25005">
        <ele>1978.11</ele>
        <time>2020-06-28T14:46:00Z</time>
      </trkpt>
      <trkpt lat="44.12598" lon="7.25002">
        <ele>1980.199</ele>
        <time>2020-06-28T14:46:16Z</time>
      </trkpt>
      <trkpt lat="44.12601" lon="7.24999">
        <ele>1982.552</ele>
        <time>2020-06-28T14:46:31Z</time>
      </trkpt>
      <trkpt lat="44.12598" lon="7.25002">
        <ele>1982.069</ele>
        <time>2020-06-28T14:46:47Z</time>
      </trkpt>
      <trkpt lat="44.12596" lon="7.25013">
        <ele>1984.201</ele>
        <time>2020-06-28T14:47:03Z</time>
      </trkpt>
      <trkpt lat="44.12587" lon="7.2502">
        <ele>1986.412</ele>
        <time>2020-06-28T14:47:18Z</time>
      </trkpt>
      <trkpt lat="44.12576" lon="7.25029">
        <ele>1987.57</ele>
        <time>2020-06-28T14:47:34Z</time>
      </trkpt>
      <trkpt lat="44.12571" lon="7.25033">
        <ele>1987.778</ele>
        <time>2020-06-28T14:47:49Z</time>
      </trkpt>
      <trkpt lat="44.1256" lon="7.25046">
        <ele>1987.23</ele>
        <time>2020-06-28T14:48:05Z</time>
      </trkpt>
      <trkpt lat="44.12553" lon="7.25048">
        <ele>1987.089</ele>
        <time>2020-06-28T14:48:21Z</time>
      </trkpt>
      <trkpt lat="44.12548" lon="7.2505">
        <ele>1988.114</ele>
        <time>2020-06-28T14:48:37Z</time>
      </trkpt>
      <trkpt lat="44.12543" lon="7.2505">
        <ele>1988.714</ele>
        <time>2020-06-28T14:48:53Z</time>
      </trkpt>
      <trkpt lat="44.1254" lon="7.2504">
        <ele>1989.104</ele>
        <time>2020-06-28T14:49:08Z</time>
      </trkpt>
      <trkpt lat="44.12538" lon="7.25039">
        <ele>1991.316</ele>
        <time>2020-06-28T14:49:23Z</time>
      </trkpt>
      <trkpt lat="44.12546" lon="7.25032">
        <ele>1994.01</ele>
        <time>2020-06-28T14:49:39Z</time>
      </trkpt>
      <trkpt lat="44.12557" lon="7.25025">
        <ele>1998.403</ele>
        <time>2020-06-28T14:49:55Z</time>
      </trkpt>
      <trkpt lat="44.12558" lon="7.25017">
        <ele>1999.011</ele>
        <time>2020-06-28T14:50:11Z</time>
      </trkpt>
      <trkpt lat="44.12565" lon="7.25014">
        <ele>1999.546</ele>
        <time>2020-06-28T14:50:27Z</time>
      </trkpt>
      <trkpt lat="44.12579" lon="7.25002">
        <ele>2002.249</ele>
        <time>2020-06-28T14:50:42Z</time>
      </trkpt>
      <trkpt lat="44.12584" lon="7.25002">
        <ele>2004.117</ele>
        <time>2020-06-28T14:50:58Z</time>
      </trkpt>
      <trkpt lat="44.12587" lon="7.24994">
        <ele>2006.11</ele>
        <time>2020-06-28T14:51:13Z</time>
      </trkpt>
      <trkpt lat="44.12586" lon="7.24995">
        <ele>2009.667</ele>
        <time>2020-06-28T14:51:29Z</time>
      </trkpt>
      <trkpt lat="44.12587" lon="7.24994">
        <ele>2009.369</ele>
        <time>2020-06-28T14:51:45Z</time>
      </trkpt>
      <trkpt lat="44.12587" lon="7.24983">
        <ele>2009.445</ele>
        <time>2020-06-28T14:52:00Z</time>
      </trkpt>
      <trkpt lat="44.12587" lon="7.24984">
        <ele>2010.059</ele>
        <time>2020-06-28T14:52:16Z</time>
      </trkpt>
      <trkpt lat="44.12583" lon="7.24986">
        <ele>2012.529</ele>
        <time>2020-06-28T14:52:31Z</time>
      </trkpt>
      <trkpt lat="44.12576" lon="7.24989">
        <ele>2014.16</ele>
        <time>2020-06-28T14:52:47Z</time>
      </trkpt>
      <trkpt lat="44.12567" lon="7.24991">
        <ele>2016.209</ele>
        <time>2020-06-28T14:53:03Z</time>
      </trkpt>
      <trkpt lat="44.12567" lon="7.24991">
        <ele>2016.209</ele>
        <time>2020-06-28T14:53:19Z</time>
      </trkpt>
      <trkpt lat="44.12549" lon="7.25002">
        <ele>2020.783</ele>
        <time>2020-06-28T14:53:34Z</time>
      </trkpt>
      <trkpt lat="44.12536" lon="7.2501">
        <ele>2023.457</ele>
        <time>2020-06-28T14:53:50Z</time>
      </trkpt>
      <trkpt lat="44.12533" lon="7.25011">
        <ele>2025.596</ele>
        <time>2020-06-28T14:54:05Z</time>
      </trkpt>
      <trkpt lat="44.12526" lon="7.25019">
        <ele>2027.066</ele>
        <time>2020-06-28T14:54:21Z</time>
      </trkpt>
      <trkpt lat="44.12519" lon="7.25025">
        <ele>2029.539</ele>
        <time>2020-06-28T14:54:37Z</time>
      </trkpt>
      <trkpt lat="44.12517" lon="7.25026">
        <ele>2030.579</ele>
        <time>2020-06-28T14:54:53Z</time>
      </trkpt>
      <trkpt lat="44.1251" lon="7.25026">
        <ele>2031.054</ele>
        <time>2020-06-28T14:55:08Z</time>
      </trkpt>
      <trkpt lat="44.12501" lon="7.25022">
        <ele>2035.542</ele>
        <time>2020-06-28T14:55:23Z</time>
      </trkpt>
      <trkpt lat="44.12492" lon="7.25021">
        <ele>2038.974</ele>
        <time>2020-06-28T14:55:39Z</time>
      </trkpt>
      <trkpt lat="44.12494" lon="7.2502">
        <ele>2042.09</ele>
        <time>2020-06-28T14:55:55Z</time>
      </trkpt>
      <trkpt lat="44.12496" lon="7.25017">
        <ele>2042.635</ele>
        <time>2020-06-28T14:56:11Z</time>
      </trkpt>
      <trkpt lat="44.12496" lon="7.25017">
        <ele>2042.635</ele>
        <time>2020-06-28T14:56:27Z</time>
      </trkpt>
      <trkpt lat="44.12496" lon="7.25017">
        <ele>2042.635</ele>
        <time>2020-06-28T14:56:42Z</time>
      </trkpt>
      <trkpt lat="44.12498" lon="7.25008">
        <ele>2043.909</ele>
        <time>2020-06-28T14:56:58Z</time>
      </trkpt>
      <trkpt lat="44.12501" lon="7.25014">
        <ele>2044.59</ele>
        <time>2020-06-28T14:57:14Z</time>
      </trkpt>
      <trkpt lat="44.12501" lon="7.25014">
        <ele>2044.59</ele>
        <time>2020-06-28T14:57:29Z</time>
      </trkpt>
      <trkpt lat="44.12502" lon="7.25011">
        <ele>2043.473</ele>
        <time>2020-06-28T14:57:44Z</time>
      </trkpt>
      <trkpt lat="44.12504" lon="7.25011">
        <ele>2045.73</ele>
        <time>2020-06-28T14:58:00Z</time>
      </trkpt>
      <trkpt lat="44.12503" lon="7.25001">
        <ele>2046.594</ele>
        <time>2020-06-28T14:58:15Z</time>
      </trkpt>
      <trkpt lat="44.12512" lon="7.24989">
        <ele>2047.319</ele>
        <time>2020-06-28T14:58:31Z</time>
      </trkpt>
      <trkpt lat="44.12516" lon="7.24985">
        <ele>2047.572</ele>
        <time>2020-06-28T14:58:47Z</time>
      </trkpt>
      <trkpt lat="44.12514" lon="7.24985">
        <ele>2048.796</ele>
        <time>2020-06-28T14:59:03Z</time>
      </trkpt>
      <trkpt lat="44.12506" lon="7.2499">
        <ele>2055</ele>
        <time>2020-06-28T14:59:19Z</time>
      </trkpt>
      <trkpt lat="44.12491" lon="7.24986">
        <ele>2055.755</ele>
        <time>2020-06-28T14:59:35Z</time>
      </trkpt>
      <trkpt lat="44.12489" lon="7.24987">
        <ele>2054.773</ele>
        <time>2020-06-28T14:59:50Z</time>
      </trkpt>
      <trkpt lat="44.12474" lon="7.24987">
        <ele>2057.761</ele>
        <time>2020-06-28T15:00:05Z</time>
      </trkpt>
      <trkpt lat="44.12462" lon="7.24989">
        <ele>2058.547</ele>
        <time>2020-06-28T15:00:21Z</time>
      </trkpt>
      <trkpt lat="44.12454" lon="7.2499">
        <ele>2059.391</ele>
        <time>2020-06-28T15:00:37Z</time>
      </trkpt>
      <trkpt lat="44.12441" lon="7.2499">
        <ele>2059.073</ele>
        <time>2020-06-28T15:00:53Z</time>
      </trkpt>
      <trkpt lat="44.12432" lon="7.25001">
        <ele>2062.686</ele>
        <time>2020-06-28T15:01:09Z</time>
      </trkpt>
      <trkpt lat="44.12422" lon="7.25004">
        <ele>2066.211</ele>
        <time>2020-06-28T15:01:25Z</time>
      </trkpt>
      <trkpt lat="44.12414" lon="7.25006">
        <ele>2067.669</ele>
        <time>2020-06-28T15:01:40Z</time>
      </trkpt>
      <trkpt lat="44.12404" lon="7.25006">
        <ele>2069.08</ele>
        <time>2020-06-28T15:01:56Z</time>
      </trkpt>
      <trkpt lat="44.12393" lon="7.25023">
        <ele>2078.78</ele>
        <time>2020-06-28T15:02:11Z</time>
      </trkpt>
      <trkpt lat="44.1239" lon="7.25033">
        <ele>2081.73</ele>
        <time>2020-06-28T15:02:27Z</time>
      </trkpt>
      <trkpt lat="44.12383" lon="7.25047">
        <ele>2084.363</ele>
        <time>2020-06-28T15:02:43Z</time>
      </trkpt>
      <trkpt lat="44.12375" lon="7.25051">
        <ele>2086.832</ele>
        <time>2020-06-28T15:02:58Z</time>
      </trkpt>
      <trkpt lat="44.12363" lon="7.25058">
        <ele>2084.599</ele>
        <time>2020-06-28T15:03:14Z</time>
      </trkpt>
      <trkpt lat="44.12355" lon="7.25059">
        <ele>2085.27</ele>
        <time>2020-06-28T15:03:29Z</time>
      </trkpt>
      <trkpt lat="44.12349" lon="7.25058">
        <ele>2087.124</ele>
        <time>2020-06-28T15:03:45Z</time>
      </trkpt>
      <trkpt lat="44.12336" lon="7.25065">
        <ele>2085.687</ele>
        <time>2020-06-28T15:04:00Z</time>
      </trkpt>
      <trkpt lat="44.12328" lon="7.25062">
        <ele>2086.624</ele>
        <time>2020-06-28T15:04:15Z</time>
      </trkpt>
      <trkpt lat="44.12321" lon="7.25066">
        <ele>2088.874</ele>
        <time>2020-06-28T15:04:30Z</time>
      </trkpt>
      <trkpt lat="44.12322" lon="7.2506">
        <ele>2089.074</ele>
        <time>2020-06-28T15:04:46Z</time>
      </trkpt>
      <trkpt lat="44.12324" lon="7.25051">
        <ele>2090.376</ele>
        <time>2020-06-28T15:05:01Z</time>
      </trkpt>
      <trkpt lat="44.12324" lon="7.25051">
        <ele>2090.376</ele>
        <time>2020-06-28T15:05:18Z</time>
      </trkpt>
      <trkpt lat="44.12324" lon="7.25051">
        <ele>2090.376</ele>
        <time>2020-06-28T15:05:34Z</time>
      </trkpt>
      <trkpt lat="44.12324" lon="7.25051">
        <ele>2090.376</ele>
        <time>2020-06-28T15:05:50Z</time>
      </trkpt>
      <trkpt lat="44.12324" lon="7.25051">
        <ele>2090.376</ele>
        <time>2020-06-28T15:06:05Z</time>
      </trkpt>
      <trkpt lat="44.12319" lon="7.25036">
        <ele>2091.385</ele>
        <time>2020-06-28T15:06:21Z</time>
      </trkpt>
      <trkpt lat="44.12318" lon="7.25033">
        <ele>2091.378</ele>
        <time>2020-06-28T15:06:37Z</time>
      </trkpt>
      <trkpt lat="44.12318" lon="7.25033">
        <ele>2091.378</ele>
        <time>2020-06-28T15:06:52Z</time>
      </trkpt>
      <trkpt lat="44.12322" lon="7.2502">
        <ele>2092.723</ele>
        <time>2020-06-28T15:07:08Z</time>
      </trkpt>
      <trkpt lat="44.12326" lon="7.2501">
        <ele>2094.501</ele>
        <time>2020-06-28T15:07:23Z</time>
      </trkpt>
      <trkpt lat="44.1234" lon="7.24995">
        <ele>2097.866</ele>
        <time>2020-06-28T15:07:38Z</time>
      </trkpt>
      <trkpt lat="44.12346" lon="7.24988">
        <ele>2099.883</ele>
        <time>2020-06-28T15:07:54Z</time>
      </trkpt>
      <trkpt lat="44.12347" lon="7.2498">
        <ele>2101.418</ele>
        <time>2020-06-28T15:08:09Z</time>
      </trkpt>
      <trkpt lat="44.12351" lon="7.2497">
        <ele>2104.772</ele>
        <time>2020-06-28T15:08:24Z</time>
      </trkpt>
      <trkpt lat="44.12353" lon="7.24966">
        <ele>2106.16</ele>
        <time>2020-06-28T15:08:40Z</time>
      </trkpt>
      <trkpt lat="44.12359" lon="7.24955">
        <ele>2105.584</ele>
        <time>2020-06-28T15:08:55Z</time>
      </trkpt>
      <trkpt lat="44.12366" lon="7.24946">
        <ele>2108.181</ele>
        <time>2020-06-28T15:09:11Z</time>
      </trkpt>
      <trkpt lat="44.12366" lon="7.24942">
        <ele>2109.002</ele>
        <time>2020-06-28T15:09:27Z</time>
      </trkpt>
      <trkpt lat="44.12377" lon="7.24931">
        <ele>2112.937</ele>
        <time>2020-06-28T15:09:42Z</time>
      </trkpt>
      <trkpt lat="44.12386" lon="7.2491">
        <ele>2115.278</ele>
        <time>2020-06-28T15:09:58Z</time>
      </trkpt>
      <trkpt lat="44.12386" lon="7.24907">
        <ele>2115.032</ele>
        <time>2020-06-28T15:10:13Z</time>
      </trkpt>
      <trkpt lat="44.12388" lon="7.249">
        <ele>2115.824</ele>
        <time>2020-06-28T15:10:29Z</time>
      </trkpt>
      <trkpt lat="44.12392" lon="7.2488">
        <ele>2115.897</ele>
        <time>2020-06-28T15:10:45Z</time>
      </trkpt>
      <trkpt lat="44.12394" lon="7.24869">
        <ele>2116.689</ele>
        <time>2020-06-28T15:11:01Z</time>
      </trkpt>
      <trkpt lat="44.12404" lon="7.24849">
        <ele>2122.36</ele>
        <time>2020-06-28T15:11:17Z</time>
      </trkpt>
      <trkpt lat="44.1241" lon="7.24838">
        <ele>2125</ele>
        <time>2020-06-28T15:11:32Z</time>
      </trkpt>
      <trkpt lat="44.12411" lon="7.2483">
        <ele>2125.706</ele>
        <time>2020-06-28T15:11:48Z</time>
      </trkpt>
      <trkpt lat="44.12413" lon="7.24822">
        <ele>2126.258</ele>
        <time>2020-06-28T15:12:03Z</time>
      </trkpt>
      <trkpt lat="44.12412" lon="7.24812">
        <ele>2127.38</ele>
        <time>2020-06-28T15:12:19Z</time>
      </trkpt>
      <trkpt lat="44.12411" lon="7.24801">
        <ele>2127.225</ele>
        <time>2020-06-28T15:12:35Z</time>
      </trkpt>
      <trkpt lat="44.12408" lon="7.24789">
        <ele>2128.366</ele>
        <time>2020-06-28T15:12:51Z</time>
      </trkpt>
      <trkpt lat="44.12406" lon="7.24784">
        <ele>2129.154</ele>
        <time>2020-06-28T15:13:07Z</time>
      </trkpt>
      <trkpt lat="44.124" lon="7.2477">
        <ele>2130.318</ele>
        <time>2020-06-28T15:13:22Z</time>
      </trkpt>
      <trkpt lat="44.12396" lon="7.24743">
        <ele>2135.095</ele>
        <time>2020-06-28T15:13:38Z</time>
      </trkpt>
      <trkpt lat="44.12397" lon="7.24731">
        <ele>2137.382</ele>
        <time>2020-06-28T15:13:54Z</time>
      </trkpt>
      <trkpt lat="44.1239" lon="7.24723">
        <ele>2139.995</ele>
        <time>2020-06-28T15:14:10Z</time>
      </trkpt>
      <trkpt lat="44.12387" lon="7.24711">
        <ele>2140.09</ele>
        <time>2020-06-28T15:14:26Z</time>
      </trkpt>
      <trkpt lat="44.12382" lon="7.24686">
        <ele>2141.33</ele>
        <time>2020-06-28T15:14:41Z</time>
      </trkpt>
      <trkpt lat="44.12383" lon="7.24683">
        <ele>2141.967</ele>
        <time>2020-06-28T15:14:57Z</time>
      </trkpt>
      <trkpt lat="44.12385" lon="7.24674">
        <ele>2141.667</ele>
        <time>2020-06-28T15:15:12Z</time>
      </trkpt>
      <trkpt lat="44.12383" lon="7.24653">
        <ele>2144.594</ele>
        <time>2020-06-28T15:15:28Z</time>
      </trkpt>
      <trkpt lat="44.12385" lon="7.2463">
        <ele>2147.256</ele>
        <time>2020-06-28T15:15:43Z</time>
      </trkpt>
      <trkpt lat="44.12381" lon="7.24614">
        <ele>2147.512</ele>
        <time>2020-06-28T15:15:59Z</time>
      </trkpt>
      <trkpt lat="44.12387" lon="7.24597">
        <ele>2144.807</ele>
        <time>2020-06-28T15:16:14Z</time>
      </trkpt>
      <trkpt lat="44.12395" lon="7.24568">
        <ele>2145.94</ele>
        <time>2020-06-28T15:16:30Z</time>
      </trkpt>
      <trkpt lat="44.12397" lon="7.2456">
        <ele>2146.483</ele>
        <time>2020-06-28T15:16:45Z</time>
      </trkpt>
      <trkpt lat="44.12405" lon="7.24542">
        <ele>2147.802</ele>
        <time>2020-06-28T15:17:00Z</time>
      </trkpt>
      <trkpt lat="44.12413" lon="7.24534">
        <ele>2145.006</ele>
        <time>2020-06-28T15:17:16Z</time>
      </trkpt>
      <trkpt lat="44.12419" lon="7.24519">
        <ele>2146.696</ele>
        <time>2020-06-28T15:17:32Z</time>
      </trkpt>
      <trkpt lat="44.12419" lon="7.24501">
        <ele>2150.954</ele>
        <time>2020-06-28T15:17:48Z</time>
      </trkpt>
      <trkpt lat="44.12425" lon="7.24475">
        <ele>2156.461</ele>
        <time>2020-06-28T15:18:04Z</time>
      </trkpt>
      <trkpt lat="44.12436" lon="7.24457">
        <ele>2151.643</ele>
        <time>2020-06-28T15:18:19Z</time>
      </trkpt>
      <trkpt lat="44.12446" lon="7.24444">
        <ele>2153.136</ele>
        <time>2020-06-28T15:18:35Z</time>
      </trkpt>
      <trkpt lat="44.12446" lon="7.24441">
        <ele>2153.359</ele>
        <time>2020-06-28T15:18:50Z</time>
      </trkpt>
      <trkpt lat="44.12446" lon="7.24441">
        <ele>2153.359</ele>
        <time>2020-06-28T15:19:06Z</time>
      </trkpt>
      <trkpt lat="44.1246" lon="7.24438">
        <ele>2153.469</ele>
        <time>2020-06-28T15:19:21Z</time>
      </trkpt>
      <trkpt lat="44.1246" lon="7.24438">
        <ele>2153.469</ele>
        <time>2020-06-28T15:19:37Z</time>
      </trkpt>
      <trkpt lat="44.1246" lon="7.24438">
        <ele>2153.469</ele>
        <time>2020-06-28T15:19:53Z</time>
      </trkpt>
      <trkpt lat="44.1246" lon="7.24438">
        <ele>2153.469</ele>
        <time>2020-06-28T15:20:08Z</time>
      </trkpt>
      <trkpt lat="44.12477" lon="7.2446">
        <ele>2154.283</ele>
        <time>2020-06-28T15:20:24Z</time>
      </trkpt>
      <trkpt lat="44.12435" lon="7.24445">
        <ele>2159.947</ele>
        <time>2020-06-28T15:20:39Z</time>
      </trkpt>
      <trkpt lat="44.12435" lon="7.24446">
        <ele>2159.791</ele>
        <time>2020-06-28T15:20:55Z</time>
      </trkpt>
      <trkpt lat="44.12454" lon="7.2445">
        <ele>2160.396</ele>
        <time>2020-06-28T15:21:11Z</time>
      </trkpt>
      <trkpt lat="44.12454" lon="7.2445">
        <ele>2160.396</ele>
        <time>2020-06-28T15:21:27Z</time>
      </trkpt>
      <trkpt lat="44.12462" lon="7.24447">
        <ele>2161.481</ele>
        <time>2020-06-28T15:21:43Z</time>
      </trkpt>
      <trkpt lat="44.12461" lon="7.24445">
        <ele>2163.866</ele>
        <time>2020-06-28T15:21:59Z</time>
      </trkpt>
      <trkpt lat="44.12471" lon="7.24442">
        <ele>2166.866</ele>
        <time>2020-06-28T15:22:15Z</time>
      </trkpt>
      <trkpt lat="44.12471" lon="7.24442">
        <ele>2166.866</ele>
        <time>2020-06-28T15:22:31Z</time>
      </trkpt>
      <trkpt lat="44.12469" lon="7.24442">
        <ele>2165.663</ele>
        <time>2020-06-28T15:22:47Z</time>
      </trkpt>
      <trkpt lat="44.12468" lon="7.24443">
        <ele>2164.452</ele>
        <time>2020-06-28T15:23:02Z</time>
      </trkpt>
      <trkpt lat="44.12468" lon="7.24443">
        <ele>2164.452</ele>
        <time>2020-06-28T15:23:18Z</time>
      </trkpt>
      <trkpt lat="44.12487" lon="7.24424">
        <ele>2163.154</ele>
        <time>2020-06-28T15:23:33Z</time>
      </trkpt>
      <trkpt lat="44.12453" lon="7.24438">
        <ele>2156.475</ele>
        <time>2020-06-28T15:23:49Z</time>
      </trkpt>
      <trkpt lat="44.12453" lon="7.24438">
        <ele>2156.475</ele>
        <time>2020-06-28T15:24:05Z</time>
      </trkpt>
      <trkpt lat="44.12453" lon="7.24438">
        <ele>2156.475</ele>
        <time>2020-06-28T15:24:21Z</time>
      </trkpt>
      <trkpt lat="44.12453" lon="7.24438">
        <ele>2156.475</ele>
        <time>2020-06-28T15:24:37Z</time>
      </trkpt>
      <trkpt lat="44.12453" lon="7.24438">
        <ele>2156.475</ele>
        <time>2020-06-28T15:24:53Z</time>
      </trkpt>
      <trkpt lat="44.12453" lon="7.24438">
        <ele>2156.475</ele>
        <time>2020-06-28T15:25:09Z</time>
      </trkpt>
      <trkpt lat="44.12463" lon="7.24437">
        <ele>2158.355</ele>
        <time>2020-06-28T15:25:24Z</time>
      </trkpt>
      <trkpt lat="44.12463" lon="7.24437">
        <ele>2158.355</ele>
        <time>2020-06-28T15:25:40Z</time>
      </trkpt>
      <trkpt lat="44.12462" lon="7.24437">
        <ele>2155.62</ele>
        <time>2020-06-28T15:25:56Z</time>
      </trkpt>
      <trkpt lat="44.12457" lon="7.24434">
        <ele>2156.057</ele>
        <time>2020-06-28T15:26:11Z</time>
      </trkpt>
      <trkpt lat="44.12465" lon="7.2444">
        <ele>2158.289</ele>
        <time>2020-06-28T15:26:27Z</time>
      </trkpt>
      <trkpt lat="44.12465" lon="7.2444">
        <ele>2158.289</ele>
        <time>2020-06-28T15:26:43Z</time>
      </trkpt>
      <trkpt lat="44.12465" lon="7.2444">
        <ele>2158.289</ele>
        <time>2020-06-28T15:26:59Z</time>
      </trkpt>
      <trkpt lat="44.12465" lon="7.2444">
        <ele>2158.289</ele>
        <time>2020-06-28T15:27:14Z</time>
      </trkpt>
      <trkpt lat="44.12465" lon="7.2444">
        <ele>2158.289</ele>
        <time>2020-06-28T15:27:30Z</time>
      </trkpt>
      <trkpt lat="44.12464" lon="7.24441">
        <ele>2157.848</ele>
        <time>2020-06-28T15:27:46Z</time>
      </trkpt>
      <trkpt lat="44.12461" lon="7.24438">
        <ele>2157.58</ele>
        <time>2020-06-28T15:28:01Z</time>
      </trkpt>
      <trkpt lat="44.12459" lon="7.24441">
        <ele>2158.08</ele>
        <time>2020-06-28T15:28:17Z</time>
      </trkpt>
      <trkpt lat="44.12456" lon="7.24434">
        <ele>2158.82</ele>
        <time>2020-06-28T15:28:33Z</time>
      </trkpt>
      <trkpt lat="44.12455" lon="7.24436">
        <ele>2157.299</ele>
        <time>2020-06-28T15:28:49Z</time>
      </trkpt>
      <trkpt lat="44.12449" lon="7.24432">
        <ele>2154.257</ele>
        <time>2020-06-28T15:29:04Z</time>
      </trkpt>
      <trkpt lat="44.12437" lon="7.24417">
        <ele>2155.105</ele>
        <time>2020-06-28T15:29:20Z</time>
      </trkpt>
      <trkpt lat="44.12434" lon="7.24396">
        <ele>2155.138</ele>
        <time>2020-06-28T15:29:35Z</time>
      </trkpt>
      <trkpt lat="44.12433" lon="7.24379">
        <ele>2156.252</ele>
        <time>2020-06-28T15:29:51Z</time>
      </trkpt>
      <trkpt lat="44.12428" lon="7.24374">
        <ele>2158.142</ele>
        <time>2020-06-28T15:30:07Z</time>
      </trkpt>
      <trkpt lat="44.12422" lon="7.24353">
        <ele>2155.143</ele>
        <time>2020-06-28T15:30:23Z</time>
      </trkpt>
      <trkpt lat="44.12419" lon="7.24334">
        <ele>2147.364</ele>
        <time>2020-06-28T15:30:38Z</time>
      </trkpt>
      <trkpt lat="44.12417" lon="7.24311">
        <ele>2144.818</ele>
        <time>2020-06-28T15:30:53Z</time>
      </trkpt>
      <trkpt lat="44.12417" lon="7.24283">
        <ele>2150.891</ele>
        <time>2020-06-28T15:31:09Z</time>
      </trkpt>
      <trkpt lat="44.1242" lon="7.24264">
        <ele>2147.755</ele>
        <time>2020-06-28T15:31:24Z</time>
      </trkpt>
      <trkpt lat="44.12412" lon="7.24248">
        <ele>2154.155</ele>
        <time>2020-06-28T15:31:40Z</time>
      </trkpt>
      <trkpt lat="44.12403" lon="7.24235">
        <ele>2160.338</ele>
        <time>2020-06-28T15:31:56Z</time>
      </trkpt>
      <trkpt lat="44.12386" lon="7.24226">
        <ele>2161.339</ele>
        <time>2020-06-28T15:32:11Z</time>
      </trkpt>
      <trkpt lat="44.12375" lon="7.2421">
        <ele>2164.819</ele>
        <time>2020-06-28T15:32:27Z</time>
      </trkpt>
      <trkpt lat="44.12372" lon="7.24186">
        <ele>2165.797</ele>
        <time>2020-06-28T15:32:42Z</time>
      </trkpt>
      <trkpt lat="44.12377" lon="7.24164">
        <ele>2165.997</ele>
        <time>2020-06-28T15:32:58Z</time>
      </trkpt>
      <trkpt lat="44.12382" lon="7.24153">
        <ele>2167.481</ele>
        <time>2020-06-28T15:33:13Z</time>
      </trkpt>
      <trkpt lat="44.12384" lon="7.24151">
        <ele>2172.298</ele>
        <time>2020-06-28T15:33:28Z</time>
      </trkpt>
      <trkpt lat="44.12381" lon="7.24142">
        <ele>2173.856</ele>
        <time>2020-06-28T15:33:43Z</time>
      </trkpt>
      <trkpt lat="44.12381" lon="7.24129">
        <ele>2175.514</ele>
        <time>2020-06-28T15:33:59Z</time>
      </trkpt>
      <trkpt lat="44.12381" lon="7.24122">
        <ele>2176.301</ele>
        <time>2020-06-28T15:34:15Z</time>
      </trkpt>
      <trkpt lat="44.12379" lon="7.24106">
        <ele>2178.21</ele>
        <time>2020-06-28T15:34:30Z</time>
      </trkpt>
      <trkpt lat="44.12373" lon="7.24083">
        <ele>2182.976</ele>
        <time>2020-06-28T15:34:46Z</time>
      </trkpt>
      <trkpt lat="44.12374" lon="7.24063">
        <ele>2181.157</ele>
        <time>2020-06-28T15:35:01Z</time>
      </trkpt>
      <trkpt lat="44.12386" lon="7.2406">
        <ele>2179.456</ele>
        <time>2020-06-28T15:35:17Z</time>
      </trkpt>
      <trkpt lat="44.12398" lon="7.24063">
        <ele>2179.574</ele>
        <time>2020-06-28T15:35:33Z</time>
      </trkpt>
      <trkpt lat="44.12407" lon="7.24062">
        <ele>2183.535</ele>
        <time>2020-06-28T15:35:48Z</time>
      </trkpt>
      <trkpt lat="44.12416" lon="7.24063">
        <ele>2184.607</ele>
        <time>2020-06-28T15:36:04Z</time>
      </trkpt>
      <trkpt lat="44.12421" lon="7.24059">
        <ele>2185.137</ele>
        <time>2020-06-28T15:36:20Z</time>
      </trkpt>
      <trkpt lat="44.12422" lon="7.24058">
        <ele>2184.887</ele>
        <time>2020-06-28T15:36:35Z</time>
      </trkpt>
      <trkpt lat="44.12422" lon="7.24058">
        <ele>2184.887</ele>
        <time>2020-06-28T15:36:51Z</time>
      </trkpt>
      <trkpt lat="44.12429" lon="7.24051">
        <ele>2182.399</ele>
        <time>2020-06-28T15:37:07Z</time>
      </trkpt>
      <trkpt lat="44.12431" lon="7.24056">
        <ele>2182.476</ele>
        <time>2020-06-28T15:37:23Z</time>
      </trkpt>
      <trkpt lat="44.12435" lon="7.24058">
        <ele>2183.483</ele>
        <time>2020-06-28T15:37:38Z</time>
      </trkpt>
      <trkpt lat="44.12448" lon="7.24082">
        <ele>2182.999</ele>
        <time>2020-06-28T15:37:53Z</time>
      </trkpt>
      <trkpt lat="44.12451" lon="7.24084">
        <ele>2184.198</ele>
        <time>2020-06-28T15:38:09Z</time>
      </trkpt>
      <trkpt lat="44.12451" lon="7.24088">
        <ele>2183.7</ele>
        <time>2020-06-28T15:38:25Z</time>
      </trkpt>
      <trkpt lat="44.12449" lon="7.24093">
        <ele>2183.302</ele>
        <time>2020-06-28T15:38:41Z</time>
      </trkpt>
      <trkpt lat="44.12447" lon="7.24089">
        <ele>2183.995</ele>
        <time>2020-06-28T15:38:57Z</time>
      </trkpt>
      <trkpt lat="44.12447" lon="7.24091">
        <ele>2183.708</ele>
        <time>2020-06-28T15:39:12Z</time>
      </trkpt>
      <trkpt lat="44.12448" lon="7.24092">
        <ele>2184.257</ele>
        <time>2020-06-28T15:39:28Z</time>
      </trkpt>
      <trkpt lat="44.12448" lon="7.24092">
        <ele>2184.257</ele>
        <time>2020-06-28T15:39:44Z</time>
      </trkpt>
    </trkseg>
  </trk>
  <trk>
    <name><![CDATA[GR52 / GR5 par Menton_6]]></name>
    <trkseg>
      <trkpt lat="44.12442" lon="7.24096">
        <ele>2199.96</ele>
        <time>2020-06-29T05:11:25Z</time>
      </trkpt>
      <trkpt lat="44.12447" lon="7.24097">
        <ele>2200.282</ele>
        <time>2020-06-29T05:11:41Z</time>
      </trkpt>
      <trkpt lat="44.12447" lon="7.24097">
        <ele>2200.282</ele>
        <time>2020-06-29T05:11:57Z</time>
      </trkpt>
      <trkpt lat="44.12447" lon="7.24095">
        <ele>2200.291</ele>
        <time>2020-06-29T05:12:12Z</time>
      </trkpt>
      <trkpt lat="44.12448" lon="7.24081">
        <ele>2198.97</ele>
        <time>2020-06-29T05:12:27Z</time>
      </trkpt>
      <trkpt lat="44.12447" lon="7.24079">
        <ele>2198.87</ele>
        <time>2020-06-29T05:12:43Z</time>
      </trkpt>
      <trkpt lat="44.12448" lon="7.24074">
        <ele>2198.96</ele>
        <time>2020-06-29T05:12:59Z</time>
      </trkpt>
      <trkpt lat="44.12446" lon="7.24074">
        <ele>2196.917</ele>
        <time>2020-06-29T05:13:14Z</time>
      </trkpt>
      <trkpt lat="44.12443" lon="7.24063">
        <ele>2193.915</ele>
        <time>2020-06-29T05:13:30Z</time>
      </trkpt>
      <trkpt lat="44.12445" lon="7.24053">
        <ele>2193.545</ele>
        <time>2020-06-29T05:13:46Z</time>
      </trkpt>
      <trkpt lat="44.1244" lon="7.24037">
        <ele>2195.651</ele>
        <time>2020-06-29T05:14:02Z</time>
      </trkpt>
      <trkpt lat="44.12437" lon="7.24021">
        <ele>2197.085</ele>
        <time>2020-06-29T05:14:17Z</time>
      </trkpt>
      <trkpt lat="44.12437" lon="7.24001">
        <ele>2199.441</ele>
        <time>2020-06-29T05:14:33Z</time>
      </trkpt>
      <trkpt lat="44.12445" lon="7.23982">
        <ele>2198.096</ele>
        <time>2020-06-29T05:14:48Z</time>
      </trkpt>
      <trkpt lat="44.12445" lon="7.23969">
        <ele>2197.459</ele>
        <time>2020-06-29T05:15:04Z</time>
      </trkpt>
      <trkpt lat="44.12447" lon="7.2396">
        <ele>2198.225</ele>
        <time>2020-06-29T05:15:20Z</time>
      </trkpt>
      <trkpt lat="44.12454" lon="7.23945">
        <ele>2198.559</ele>
        <time>2020-06-29T05:15:36Z</time>
      </trkpt>
      <trkpt lat="44.12459" lon="7.23933">
        <ele>2199.314</ele>
        <time>2020-06-29T05:15:52Z</time>
      </trkpt>
      <trkpt lat="44.12463" lon="7.23922">
        <ele>2199.772</ele>
        <time>2020-06-29T05:16:08Z</time>
      </trkpt>
      <trkpt lat="44.12475" lon="7.23925">
        <ele>2200.154</ele>
        <time>2020-06-29T05:16:24Z</time>
      </trkpt>
      <trkpt lat="44.12485" lon="7.2392">
        <ele>2201.65</ele>
        <time>2020-06-29T05:16:40Z</time>
      </trkpt>
      <trkpt lat="44.12492" lon="7.23914">
        <ele>2201.342</ele>
        <time>2020-06-29T05:16:55Z</time>
      </trkpt>
      <trkpt lat="44.12506" lon="7.23904">
        <ele>2205.444</ele>
        <time>2020-06-29T05:17:10Z</time>
      </trkpt>
      <trkpt lat="44.12514" lon="7.23891">
        <ele>2206.985</ele>
        <time>2020-06-29T05:17:26Z</time>
      </trkpt>
      <trkpt lat="44.1252" lon="7.2388">
        <ele>2206.809</ele>
        <time>2020-06-29T05:17:42Z</time>
      </trkpt>
      <trkpt lat="44.12527" lon="7.23886">
        <ele>2206.415</ele>
        <time>2020-06-29T05:17:58Z</time>
      </trkpt>
      <trkpt lat="44.12527" lon="7.23886">
        <ele>2205.718</ele>
        <time>2020-06-29T05:18:13Z</time>
      </trkpt>
      <trkpt lat="44.12538" lon="7.23889">
        <ele>2200.695</ele>
        <time>2020-06-29T05:18:29Z</time>
      </trkpt>
      <trkpt lat="44.12537" lon="7.23862">
        <ele>2199.206</ele>
        <time>2020-06-29T05:18:44Z</time>
      </trkpt>
      <trkpt lat="44.12526" lon="7.2385">
        <ele>2194.791</ele>
        <time>2020-06-29T05:19:00Z</time>
      </trkpt>
      <trkpt lat="44.12531" lon="7.2383">
        <ele>2196.449</ele>
        <time>2020-06-29T05:19:16Z</time>
      </trkpt>
      <trkpt lat="44.12531" lon="7.23821">
        <ele>2194.797</ele>
        <time>2020-06-29T05:19:32Z</time>
      </trkpt>
      <trkpt lat="44.12538" lon="7.23804">
        <ele>2192.039</ele>
        <time>2020-06-29T05:19:47Z</time>
      </trkpt>
      <trkpt lat="44.12545" lon="7.23797">
        <ele>2191.117</ele>
        <time>2020-06-29T05:20:03Z</time>
      </trkpt>
      <trkpt lat="44.12555" lon="7.23799">
        <ele>2192.238</ele>
        <time>2020-06-29T05:20:18Z</time>
      </trkpt>
      <trkpt lat="44.12572" lon="7.23808">
        <ele>2199.811</ele>
        <time>2020-06-29T05:20:34Z</time>
      </trkpt>
      <trkpt lat="44.12577" lon="7.23814">
        <ele>2200.523</ele>
        <time>2020-06-29T05:20:50Z</time>
      </trkpt>
      <trkpt lat="44.12576" lon="7.23816">
        <ele>2200.006</ele>
        <time>2020-06-29T05:21:06Z</time>
      </trkpt>
      <trkpt lat="44.12566" lon="7.23818">
        <ele>2196.972</ele>
        <time>2020-06-29T05:21:22Z</time>
      </trkpt>
      <trkpt lat="44.12566" lon="7.23818">
        <ele>2196.972</ele>
        <time>2020-06-29T05:21:38Z</time>
      </trkpt>
      <trkpt lat="44.12566" lon="7.23818">
        <ele>2196.972</ele>
        <time>2020-06-29T05:21:53Z</time>
      </trkpt>
      <trkpt lat="44.12572" lon="7.23815">
        <ele>2194.968</ele>
        <time>2020-06-29T05:22:08Z</time>
      </trkpt>
      <trkpt lat="44.12572" lon="7.23815">
        <ele>2194.968</ele>
        <time>2020-06-29T05:22:23Z</time>
      </trkpt>
      <trkpt lat="44.12572" lon="7.23815">
        <ele>2194.968</ele>
        <time>2020-06-29T05:22:38Z</time>
      </trkpt>
      <trkpt lat="44.12573" lon="7.23818">
        <ele>2195.642</ele>
        <time>2020-06-29T05:22:53Z</time>
      </trkpt>
      <trkpt lat="44.12578" lon="7.23834">
        <ele>2196.125</ele>
        <time>2020-06-29T05:23:09Z</time>
      </trkpt>
      <trkpt lat="44.12587" lon="7.23835">
        <ele>2196.483</ele>
        <time>2020-06-29T05:23:24Z</time>
      </trkpt>
      <trkpt lat="44.12586" lon="7.23838">
        <ele>2194.707</ele>
        <time>2020-06-29T05:23:40Z</time>
      </trkpt>
      <trkpt lat="44.12589" lon="7.23844">
        <ele>2195.637</ele>
        <time>2020-06-29T05:23:56Z</time>
      </trkpt>
      <trkpt lat="44.12592" lon="7.2384">
        <ele>2195.813</ele>
        <time>2020-06-29T05:24:12Z</time>
      </trkpt>
      <trkpt lat="44.12604" lon="7.23836">
        <ele>2196.869</ele>
        <time>2020-06-29T05:24:27Z</time>
      </trkpt>
      <trkpt lat="44.12605" lon="7.23834">
        <ele>2196.797</ele>
        <time>2020-06-29T05:24:43Z</time>
      </trkpt>
      <trkpt lat="44.12604" lon="7.23835">
        <ele>2198.202</ele>
        <time>2020-06-29T05:24:59Z</time>
      </trkpt>
      <trkpt lat="44.12604" lon="7.23835">
        <ele>2198.202</ele>
        <time>2020-06-29T05:25:14Z</time>
      </trkpt>
      <trkpt lat="44.12604" lon="7.23835">
        <ele>2198.202</ele>
        <time>2020-06-29T05:25:30Z</time>
      </trkpt>
      <trkpt lat="44.12597" lon="7.23843">
        <ele>2195.988</ele>
        <time>2020-06-29T05:25:45Z</time>
      </trkpt>
      <trkpt lat="44.12593" lon="7.23847">
        <ele>2197.377</ele>
        <time>2020-06-29T05:26:00Z</time>
      </trkpt>
      <trkpt lat="44.12584" lon="7.23842">
        <ele>2196.154</ele>
        <time>2020-06-29T05:26:16Z</time>
      </trkpt>
      <trkpt lat="44.12572" lon="7.23842">
        <ele>2195.094</ele>
        <time>2020-06-29T05:26:31Z</time>
      </trkpt>
      <trkpt lat="44.12567" lon="7.23824">
        <ele>2194.057</ele>
        <time>2020-06-29T05:26:47Z</time>
      </trkpt>
      <trkpt lat="44.12557" lon="7.23813">
        <ele>2197.336</ele>
        <time>2020-06-29T05:27:03Z</time>
      </trkpt>
      <trkpt lat="44.12552" lon="7.23806">
        <ele>2196.208</ele>
        <time>2020-06-29T05:27:19Z</time>
      </trkpt>
      <trkpt lat="44.12541" lon="7.23805">
        <ele>2192.385</ele>
        <time>2020-06-29T05:27:34Z</time>
      </trkpt>
      <trkpt lat="44.12535" lon="7.23816">
        <ele>2187.126</ele>
        <time>2020-06-29T05:27:50Z</time>
      </trkpt>
      <trkpt lat="44.12536" lon="7.23818">
        <ele>2186.449</ele>
        <time>2020-06-29T05:28:05Z</time>
      </trkpt>
      <trkpt lat="44.12536" lon="7.23818">
        <ele>2186.449</ele>
        <time>2020-06-29T05:28:20Z</time>
      </trkpt>
      <trkpt lat="44.12536" lon="7.23818">
        <ele>2186.449</ele>
        <time>2020-06-29T05:28:36Z</time>
      </trkpt>
      <trkpt lat="44.12535" lon="7.23816">
        <ele>2187.298</ele>
        <time>2020-06-29T05:28:51Z</time>
      </trkpt>
      <trkpt lat="44.12535" lon="7.23816">
        <ele>2187.298</ele>
        <time>2020-06-29T05:29:07Z</time>
      </trkpt>
      <trkpt lat="44.12535" lon="7.23814">
        <ele>2189.48</ele>
        <time>2020-06-29T05:29:23Z</time>
      </trkpt>
      <trkpt lat="44.12534" lon="7.23814">
        <ele>2189.535</ele>
        <time>2020-06-29T05:29:38Z</time>
      </trkpt>
      <trkpt lat="44.12532" lon="7.23814">
        <ele>2189.765</ele>
        <time>2020-06-29T05:29:54Z</time>
      </trkpt>
      <trkpt lat="44.12533" lon="7.23813">
        <ele>2189.843</ele>
        <time>2020-06-29T05:30:10Z</time>
      </trkpt>
      <trkpt lat="44.12535" lon="7.23802">
        <ele>2190.085</ele>
        <time>2020-06-29T05:30:26Z</time>
      </trkpt>
      <trkpt lat="44.12541" lon="7.23791">
        <ele>2193.418</ele>
        <time>2020-06-29T05:30:42Z</time>
      </trkpt>
      <trkpt lat="44.12544" lon="7.23783">
        <ele>2193.926</ele>
        <time>2020-06-29T05:30:58Z</time>
      </trkpt>
      <trkpt lat="44.12541" lon="7.23767">
        <ele>2195.215</ele>
        <time>2020-06-29T05:31:14Z</time>
      </trkpt>
      <trkpt lat="44.12543" lon="7.23758">
        <ele>2197.414</ele>
        <time>2020-06-29T05:31:30Z</time>
      </trkpt>
      <trkpt lat="44.12545" lon="7.23752">
        <ele>2200.508</ele>
        <time>2020-06-29T05:31:46Z</time>
      </trkpt>
      <trkpt lat="44.12544" lon="7.23736">
        <ele>2203.959</ele>
        <time>2020-06-29T05:32:02Z</time>
      </trkpt>
      <trkpt lat="44.12541" lon="7.23722">
        <ele>2205.375</ele>
        <time>2020-06-29T05:32:18Z</time>
      </trkpt>
      <trkpt lat="44.12534" lon="7.23712">
        <ele>2206.63</ele>
        <time>2020-06-29T05:32:33Z</time>
      </trkpt>
      <trkpt lat="44.12534" lon="7.237">
        <ele>2208.493</ele>
        <time>2020-06-29T05:32:49Z</time>
      </trkpt>
      <trkpt lat="44.12538" lon="7.23698">
        <ele>2207.552</ele>
        <time>2020-06-29T05:33:05Z</time>
      </trkpt>
      <trkpt lat="44.12551" lon="7.23693">
        <ele>2204.606</ele>
        <time>2020-06-29T05:33:21Z</time>
      </trkpt>
      <trkpt lat="44.12556" lon="7.2369">
        <ele>2201.937</ele>
        <time>2020-06-29T05:33:37Z</time>
      </trkpt>
      <trkpt lat="44.12556" lon="7.2369">
        <ele>2201.937</ele>
        <time>2020-06-29T05:33:53Z</time>
      </trkpt>
      <trkpt lat="44.12553" lon="7.23682">
        <ele>2201.944</ele>
        <time>2020-06-29T05:34:09Z</time>
      </trkpt>
      <trkpt lat="44.12545" lon="7.23672">
        <ele>2199.333</ele>
        <time>2020-06-29T05:34:24Z</time>
      </trkpt>
      <trkpt lat="44.12538" lon="7.23666">
        <ele>2202.513</ele>
        <time>2020-06-29T05:34:40Z</time>
      </trkpt>
      <trkpt lat="44.12535" lon="7.23659">
        <ele>2208.262</ele>
        <time>2020-06-29T05:34:56Z</time>
      </trkpt>
      <trkpt lat="44.12532" lon="7.23653">
        <ele>2209.863</ele>
        <time>2020-06-29T05:35:12Z</time>
      </trkpt>
      <trkpt lat="44.12519" lon="7.23646">
        <ele>2208.772</ele>
        <time>2020-06-29T05:35:27Z</time>
      </trkpt>
      <trkpt lat="44.12519" lon="7.23646">
        <ele>2208.772</ele>
        <time>2020-06-29T05:35:43Z</time>
      </trkpt>
      <trkpt lat="44.1252" lon="7.23647">
        <ele>2210.886</ele>
        <time>2020-06-29T05:35:58Z</time>
      </trkpt>
      <trkpt lat="44.1252" lon="7.23647">
        <ele>2210.886</ele>
        <time>2020-06-29T05:36:14Z</time>
      </trkpt>
      <trkpt lat="44.12525" lon="7.2364">
        <ele>2211.083</ele>
        <time>2020-06-29T05:36:30Z</time>
      </trkpt>
      <trkpt lat="44.12531" lon="7.23635">
        <ele>2212.36</ele>
        <time>2020-06-29T05:36:45Z</time>
      </trkpt>
      <trkpt lat="44.12533" lon="7.23633">
        <ele>2212.944</ele>
        <time>2020-06-29T05:37:00Z</time>
      </trkpt>
      <trkpt lat="44.12549" lon="7.2363">
        <ele>2217.445</ele>
        <time>2020-06-29T05:37:16Z</time>
      </trkpt>
      <trkpt lat="44.12556" lon="7.2363">
        <ele>2220.577</ele>
        <time>2020-06-29T05:37:32Z</time>
      </trkpt>
      <trkpt lat="44.12559" lon="7.23628">
        <ele>2223.875</ele>
        <time>2020-06-29T05:37:48Z</time>
      </trkpt>
      <trkpt lat="44.1256" lon="7.23623">
        <ele>2224.601</ele>
        <time>2020-06-29T05:38:03Z</time>
      </trkpt>
      <trkpt lat="44.12554" lon="7.23618">
        <ele>2224.679</ele>
        <time>2020-06-29T05:38:18Z</time>
      </trkpt>
      <trkpt lat="44.1255" lon="7.23616">
        <ele>2228.488</ele>
        <time>2020-06-29T05:38:34Z</time>
      </trkpt>
      <trkpt lat="44.1255" lon="7.23616">
        <ele>2228.488</ele>
        <time>2020-06-29T05:38:50Z</time>
      </trkpt>
      <trkpt lat="44.12547" lon="7.23614">
        <ele>2227.5</ele>
        <time>2020-06-29T05:39:05Z</time>
      </trkpt>
      <trkpt lat="44.12536" lon="7.23601">
        <ele>2235.882</ele>
        <time>2020-06-29T05:39:21Z</time>
      </trkpt>
      <trkpt lat="44.12533" lon="7.23599">
        <ele>2240.934</ele>
        <time>2020-06-29T05:39:37Z</time>
      </trkpt>
      <trkpt lat="44.12532" lon="7.23594">
        <ele>2241.576</ele>
        <time>2020-06-29T05:39:53Z</time>
      </trkpt>
      <trkpt lat="44.12529" lon="7.2359">
        <ele>2243.706</ele>
        <time>2020-06-29T05:40:08Z</time>
      </trkpt>
      <trkpt lat="44.12541" lon="7.23583">
        <ele>2248.151</ele>
        <time>2020-06-29T05:40:24Z</time>
      </trkpt>
      <trkpt lat="44.12538" lon="7.23573">
        <ele>2253.615</ele>
        <time>2020-06-29T05:40:40Z</time>
      </trkpt>
      <trkpt lat="44.12536" lon="7.23569">
        <ele>2256.163</ele>
        <time>2020-06-29T05:40:56Z</time>
      </trkpt>
      <trkpt lat="44.12537" lon="7.23571">
        <ele>2256.858</ele>
        <time>2020-06-29T05:41:11Z</time>
      </trkpt>
      <trkpt lat="44.12537" lon="7.23571">
        <ele>2256.858</ele>
        <time>2020-06-29T05:41:27Z</time>
      </trkpt>
      <trkpt lat="44.12537" lon="7.23571">
        <ele>2256.858</ele>
        <time>2020-06-29T05:41:43Z</time>
      </trkpt>
      <trkpt lat="44.12537" lon="7.23571">
        <ele>2256.858</ele>
        <time>2020-06-29T05:41:58Z</time>
      </trkpt>
      <trkpt lat="44.12537" lon="7.23571">
        <ele>2256.858</ele>
        <time>2020-06-29T05:42:14Z</time>
      </trkpt>
      <trkpt lat="44.12537" lon="7.23571">
        <ele>2256.858</ele>
        <time>2020-06-29T05:42:30Z</time>
      </trkpt>
      <trkpt lat="44.12537" lon="7.23571">
        <ele>2256.858</ele>
        <time>2020-06-29T05:42:45Z</time>
      </trkpt>
      <trkpt lat="44.12537" lon="7.23571">
        <ele>2256.858</ele>
        <time>2020-06-29T05:43:00Z</time>
      </trkpt>
      <trkpt lat="44.12537" lon="7.23571">
        <ele>2256.858</ele>
        <time>2020-06-29T05:43:15Z</time>
      </trkpt>
      <trkpt lat="44.12537" lon="7.23571">
        <ele>2256.858</ele>
        <time>2020-06-29T05:43:31Z</time>
      </trkpt>
      <trkpt lat="44.12535" lon="7.23572">
        <ele>2257.973</ele>
        <time>2020-06-29T05:43:47Z</time>
      </trkpt>
      <trkpt lat="44.12534" lon="7.2357">
        <ele>2259.221</ele>
        <time>2020-06-29T05:44:03Z</time>
      </trkpt>
      <trkpt lat="44.12534" lon="7.2357">
        <ele>2259.221</ele>
        <time>2020-06-29T05:44:19Z</time>
      </trkpt>
      <trkpt lat="44.12534" lon="7.2357">
        <ele>2259.221</ele>
        <time>2020-06-29T05:44:34Z</time>
      </trkpt>
      <trkpt lat="44.12533" lon="7.23561">
        <ele>2258.974</ele>
        <time>2020-06-29T05:44:50Z</time>
      </trkpt>
      <trkpt lat="44.1253" lon="7.23537">
        <ele>2259.768</ele>
        <time>2020-06-29T05:45:05Z</time>
      </trkpt>
      <trkpt lat="44.12531" lon="7.23521">
        <ele>2261.387</ele>
        <time>2020-06-29T05:45:21Z</time>
      </trkpt>
      <trkpt lat="44.12531" lon="7.23517">
        <ele>2262.395</ele>
        <time>2020-06-29T05:45:37Z</time>
      </trkpt>
      <trkpt lat="44.12539" lon="7.23498">
        <ele>2262.723</ele>
        <time>2020-06-29T05:45:52Z</time>
      </trkpt>
      <trkpt lat="44.12539" lon="7.23491">
        <ele>2264.023</ele>
        <time>2020-06-29T05:46:07Z</time>
      </trkpt>
      <trkpt lat="44.12538" lon="7.23485">
        <ele>2264.86</ele>
        <time>2020-06-29T05:46:22Z</time>
      </trkpt>
      <trkpt lat="44.12536" lon="7.23473">
        <ele>2268.209</ele>
        <time>2020-06-29T05:46:38Z</time>
      </trkpt>
      <trkpt lat="44.12538" lon="7.23465">
        <ele>2268.875</ele>
        <time>2020-06-29T05:46:53Z</time>
      </trkpt>
      <trkpt lat="44.12536" lon="7.2345">
        <ele>2270.387</ele>
        <time>2020-06-29T05:47:09Z</time>
      </trkpt>
      <trkpt lat="44.12531" lon="7.23433">
        <ele>2272.073</ele>
        <time>2020-06-29T05:47:24Z</time>
      </trkpt>
      <trkpt lat="44.12531" lon="7.23433">
        <ele>2272.073</ele>
        <time>2020-06-29T05:47:40Z</time>
      </trkpt>
      <trkpt lat="44.12523" lon="7.23415">
        <ele>2276.297</ele>
        <time>2020-06-29T05:47:55Z</time>
      </trkpt>
      <trkpt lat="44.12518" lon="7.23396">
        <ele>2279.902</ele>
        <time>2020-06-29T05:48:10Z</time>
      </trkpt>
      <trkpt lat="44.12514" lon="7.23379">
        <ele>2283.574</ele>
        <time>2020-06-29T05:48:26Z</time>
      </trkpt>
      <trkpt lat="44.12507" lon="7.23371">
        <ele>2286.279</ele>
        <time>2020-06-29T05:48:42Z</time>
      </trkpt>
      <trkpt lat="44.12502" lon="7.23365">
        <ele>2287.535</ele>
        <time>2020-06-29T05:48:57Z</time>
      </trkpt>
      <trkpt lat="44.12496" lon="7.23354">
        <ele>2287.726</ele>
        <time>2020-06-29T05:49:13Z</time>
      </trkpt>
      <trkpt lat="44.12489" lon="7.23342">
        <ele>2290.213</ele>
        <time>2020-06-29T05:49:29Z</time>
      </trkpt>
      <trkpt lat="44.12479" lon="7.23329">
        <ele>2292.766</ele>
        <time>2020-06-29T05:49:45Z</time>
      </trkpt>
      <trkpt lat="44.12473" lon="7.2332">
        <ele>2296.652</ele>
        <time>2020-06-29T05:50:00Z</time>
      </trkpt>
      <trkpt lat="44.12464" lon="7.23313">
        <ele>2296.687</ele>
        <time>2020-06-29T05:50:16Z</time>
      </trkpt>
      <trkpt lat="44.12457" lon="7.23308">
        <ele>2296.889</ele>
        <time>2020-06-29T05:50:31Z</time>
      </trkpt>
      <trkpt lat="44.12451" lon="7.23301">
        <ele>2295.549</ele>
        <time>2020-06-29T05:50:47Z</time>
      </trkpt>
      <trkpt lat="44.12449" lon="7.23295">
        <ele>2295.206</ele>
        <time>2020-06-29T05:51:02Z</time>
      </trkpt>
      <trkpt lat="44.12442" lon="7.23281">
        <ele>2297.055</ele>
        <time>2020-06-29T05:51:18Z</time>
      </trkpt>
      <trkpt lat="44.12437" lon="7.23281">
        <ele>2300.313</ele>
        <time>2020-06-29T05:51:34Z</time>
      </trkpt>
      <trkpt lat="44.12431" lon="7.23275">
        <ele>2304.828</ele>
        <time>2020-06-29T05:51:50Z</time>
      </trkpt>
      <trkpt lat="44.12423" lon="7.23267">
        <ele>2304.736</ele>
        <time>2020-06-29T05:52:06Z</time>
      </trkpt>
      <trkpt lat="44.12414" lon="7.23264">
        <ele>2304.482</ele>
        <time>2020-06-29T05:52:22Z</time>
      </trkpt>
      <trkpt lat="44.12408" lon="7.2326">
        <ele>2305.196</ele>
        <time>2020-06-29T05:52:38Z</time>
      </trkpt>
      <trkpt lat="44.12402" lon="7.23249">
        <ele>2304.898</ele>
        <time>2020-06-29T05:52:53Z</time>
      </trkpt>
      <trkpt lat="44.12399" lon="7.23247">
        <ele>2306.018</ele>
        <time>2020-06-29T05:53:09Z</time>
      </trkpt>
      <trkpt lat="44.12384" lon="7.23244">
        <ele>2307.002</ele>
        <time>2020-06-29T05:53:24Z</time>
      </trkpt>
      <trkpt lat="44.12379" lon="7.23241">
        <ele>2308.418</ele>
        <time>2020-06-29T05:53:40Z</time>
      </trkpt>
      <trkpt lat="44.12376" lon="7.23237">
        <ele>2309.003</ele>
        <time>2020-06-29T05:53:55Z</time>
      </trkpt>
      <trkpt lat="44.12374" lon="7.23236">
        <ele>2309.57</ele>
        <time>2020-06-29T05:54:11Z</time>
      </trkpt>
      <trkpt lat="44.12366" lon="7.23231">
        <ele>2308.863</ele>
        <time>2020-06-29T05:54:27Z</time>
      </trkpt>
      <trkpt lat="44.12366" lon="7.23231">
        <ele>2308.863</ele>
        <time>2020-06-29T05:54:43Z</time>
      </trkpt>
      <trkpt lat="44.12357" lon="7.23226">
        <ele>2314.75</ele>
        <time>2020-06-29T05:54:59Z</time>
      </trkpt>
      <trkpt lat="44.12351" lon="7.23225">
        <ele>2316.468</ele>
        <time>2020-06-29T05:55:14Z</time>
      </trkpt>
      <trkpt lat="44.12341" lon="7.23221">
        <ele>2318.125</ele>
        <time>2020-06-29T05:55:30Z</time>
      </trkpt>
      <trkpt lat="44.12337" lon="7.23219">
        <ele>2320.074</ele>
        <time>2020-06-29T05:55:46Z</time>
      </trkpt>
      <trkpt lat="44.12334" lon="7.23219">
        <ele>2323.953</ele>
        <time>2020-06-29T05:56:01Z</time>
      </trkpt>
      <trkpt lat="44.12332" lon="7.23219">
        <ele>2325.92</ele>
        <time>2020-06-29T05:56:17Z</time>
      </trkpt>
      <trkpt lat="44.12323" lon="7.2321">
        <ele>2326.666</ele>
        <time>2020-06-29T05:56:33Z</time>
      </trkpt>
      <trkpt lat="44.12318" lon="7.23206">
        <ele>2327.856</ele>
        <time>2020-06-29T05:56:48Z</time>
      </trkpt>
      <trkpt lat="44.12318" lon="7.23206">
        <ele>2327.856</ele>
        <time>2020-06-29T05:57:04Z</time>
      </trkpt>
      <trkpt lat="44.12318" lon="7.23206">
        <ele>2327.856</ele>
        <time>2020-06-29T05:57:20Z</time>
      </trkpt>
      <trkpt lat="44.1231" lon="7.23201">
        <ele>2333.211</ele>
        <time>2020-06-29T05:57:35Z</time>
      </trkpt>
      <trkpt lat="44.12302" lon="7.23186">
        <ele>2342.597</ele>
        <time>2020-06-29T05:57:51Z</time>
      </trkpt>
      <trkpt lat="44.12297" lon="7.23172">
        <ele>2348.641</ele>
        <time>2020-06-29T05:58:07Z</time>
      </trkpt>
      <trkpt lat="44.12292" lon="7.23156">
        <ele>2347.955</ele>
        <time>2020-06-29T05:58:22Z</time>
      </trkpt>
      <trkpt lat="44.12288" lon="7.23149">
        <ele>2348.683</ele>
        <time>2020-06-29T05:58:38Z</time>
      </trkpt>
      <trkpt lat="44.12284" lon="7.23138">
        <ele>2351.953</ele>
        <time>2020-06-29T05:58:54Z</time>
      </trkpt>
      <trkpt lat="44.12274" lon="7.23129">
        <ele>2356.621</ele>
        <time>2020-06-29T05:59:09Z</time>
      </trkpt>
      <trkpt lat="44.12267" lon="7.23126">
        <ele>2356.556</ele>
        <time>2020-06-29T05:59:25Z</time>
      </trkpt>
      <trkpt lat="44.12256" lon="7.23122">
        <ele>2353.131</ele>
        <time>2020-06-29T05:59:41Z</time>
      </trkpt>
      <trkpt lat="44.12248" lon="7.2312">
        <ele>2353.869</ele>
        <time>2020-06-29T05:59:56Z</time>
      </trkpt>
      <trkpt lat="44.12243" lon="7.23117">
        <ele>2357.594</ele>
        <time>2020-06-29T06:00:12Z</time>
      </trkpt>
      <trkpt lat="44.12243" lon="7.23108">
        <ele>2359.43</ele>
        <time>2020-06-29T06:00:28Z</time>
      </trkpt>
      <trkpt lat="44.12237" lon="7.23099">
        <ele>2359.736</ele>
        <time>2020-06-29T06:00:43Z</time>
      </trkpt>
      <trkpt lat="44.12237" lon="7.2309">
        <ele>2361.679</ele>
        <time>2020-06-29T06:00:59Z</time>
      </trkpt>
      <trkpt lat="44.12237" lon="7.23087">
        <ele>2362.82</ele>
        <time>2020-06-29T06:01:14Z</time>
      </trkpt>
      <trkpt lat="44.12234" lon="7.2308">
        <ele>2363.845</ele>
        <time>2020-06-29T06:01:29Z</time>
      </trkpt>
      <trkpt lat="44.12233" lon="7.23079">
        <ele>2364.235</ele>
        <time>2020-06-29T06:01:45Z</time>
      </trkpt>
      <trkpt lat="44.12225" lon="7.23058">
        <ele>2367.508</ele>
        <time>2020-06-29T06:02:00Z</time>
      </trkpt>
      <trkpt lat="44.12216" lon="7.23048">
        <ele>2375.313</ele>
        <time>2020-06-29T06:02:16Z</time>
      </trkpt>
      <trkpt lat="44.12208" lon="7.23036">
        <ele>2378.147</ele>
        <time>2020-06-29T06:02:32Z</time>
      </trkpt>
      <trkpt lat="44.12201" lon="7.23032">
        <ele>2380.452</ele>
        <time>2020-06-29T06:02:48Z</time>
      </trkpt>
      <trkpt lat="44.12194" lon="7.23028">
        <ele>2387.103</ele>
        <time>2020-06-29T06:03:03Z</time>
      </trkpt>
      <trkpt lat="44.12186" lon="7.2302">
        <ele>2390.126</ele>
        <time>2020-06-29T06:03:19Z</time>
      </trkpt>
      <trkpt lat="44.12179" lon="7.23006">
        <ele>2390.058</ele>
        <time>2020-06-29T06:03:34Z</time>
      </trkpt>
      <trkpt lat="44.12176" lon="7.23005">
        <ele>2394.394</ele>
        <time>2020-06-29T06:03:49Z</time>
      </trkpt>
      <trkpt lat="44.12173" lon="7.23005">
        <ele>2402.986</ele>
        <time>2020-06-29T06:04:05Z</time>
      </trkpt>
      <trkpt lat="44.12171" lon="7.23005">
        <ele>2406.118</ele>
        <time>2020-06-29T06:04:20Z</time>
      </trkpt>
      <trkpt lat="44.12171" lon="7.23005">
        <ele>2406.118</ele>
        <time>2020-06-29T06:04:36Z</time>
      </trkpt>
      <trkpt lat="44.12172" lon="7.23006">
        <ele>2405.723</ele>
        <time>2020-06-29T06:04:52Z</time>
      </trkpt>
      <trkpt lat="44.12172" lon="7.23006">
        <ele>2405.545</ele>
        <time>2020-06-29T06:05:08Z</time>
      </trkpt>
      <trkpt lat="44.12172" lon="7.23006">
        <ele>2405.196</ele>
        <time>2020-06-29T06:05:24Z</time>
      </trkpt>
      <trkpt lat="44.12171" lon="7.23007">
        <ele>2405.667</ele>
        <time>2020-06-29T06:05:40Z</time>
      </trkpt>
      <trkpt lat="44.12171" lon="7.23007">
        <ele>2405.051</ele>
        <time>2020-06-29T06:05:56Z</time>
      </trkpt>
      <trkpt lat="44.12171" lon="7.23006">
        <ele>2405.389</ele>
        <time>2020-06-29T06:06:12Z</time>
      </trkpt>
      <trkpt lat="44.12171" lon="7.23006">
        <ele>2405.389</ele>
        <time>2020-06-29T06:06:27Z</time>
      </trkpt>
      <trkpt lat="44.12171" lon="7.23006">
        <ele>2405.389</ele>
        <time>2020-06-29T06:06:43Z</time>
      </trkpt>
      <trkpt lat="44.12171" lon="7.23006">
        <ele>2405.389</ele>
        <time>2020-06-29T06:06:58Z</time>
      </trkpt>
      <trkpt lat="44.12171" lon="7.23006">
        <ele>2405.389</ele>
        <time>2020-06-29T06:07:14Z</time>
      </trkpt>
      <trkpt lat="44.12171" lon="7.23006">
        <ele>2405.389</ele>
        <time>2020-06-29T06:07:30Z</time>
      </trkpt>
      <trkpt lat="44.12171" lon="7.23006">
        <ele>2405.389</ele>
        <time>2020-06-29T06:07:46Z</time>
      </trkpt>
      <trkpt lat="44.12171" lon="7.23006">
        <ele>2405.389</ele>
        <time>2020-06-29T06:08:01Z</time>
      </trkpt>
      <trkpt lat="44.12171" lon="7.23006">
        <ele>2405.389</ele>
        <time>2020-06-29T06:08:16Z</time>
      </trkpt>
      <trkpt lat="44.12171" lon="7.23006">
        <ele>2405.683</ele>
        <time>2020-06-29T06:08:32Z</time>
      </trkpt>
      <trkpt lat="44.12171" lon="7.23006">
        <ele>2405.683</ele>
        <time>2020-06-29T06:08:48Z</time>
      </trkpt>
      <trkpt lat="44.12171" lon="7.23006">
        <ele>2405.683</ele>
        <time>2020-06-29T06:09:03Z</time>
      </trkpt>
      <trkpt lat="44.12171" lon="7.23006">
        <ele>2405.683</ele>
        <time>2020-06-29T06:09:19Z</time>
      </trkpt>
      <trkpt lat="44.12171" lon="7.23006">
        <ele>2405.683</ele>
        <time>2020-06-29T06:09:35Z</time>
      </trkpt>
      <trkpt lat="44.12171" lon="7.23006">
        <ele>2405.683</ele>
        <time>2020-06-29T06:09:50Z</time>
      </trkpt>
      <trkpt lat="44.12171" lon="7.23006">
        <ele>2405.683</ele>
        <time>2020-06-29T06:10:06Z</time>
      </trkpt>
      <trkpt lat="44.12171" lon="7.23006">
        <ele>2405.683</ele>
        <time>2020-06-29T06:10:21Z</time>
      </trkpt>
      <trkpt lat="44.12171" lon="7.23006">
        <ele>2405.683</ele>
        <time>2020-06-29T06:10:37Z</time>
      </trkpt>
      <trkpt lat="44.12171" lon="7.23006">
        <ele>2405.683</ele>
        <time>2020-06-29T06:10:53Z</time>
      </trkpt>
      <trkpt lat="44.12171" lon="7.23006">
        <ele>2405.683</ele>
        <time>2020-06-29T06:11:08Z</time>
      </trkpt>
      <trkpt lat="44.12171" lon="7.23006">
        <ele>2405.683</ele>
        <time>2020-06-29T06:11:24Z</time>
      </trkpt>
      <trkpt lat="44.12171" lon="7.23006">
        <ele>2405.683</ele>
        <time>2020-06-29T06:11:40Z</time>
      </trkpt>
      <trkpt lat="44.12171" lon="7.23006">
        <ele>2405.683</ele>
        <time>2020-06-29T06:11:56Z</time>
      </trkpt>
      <trkpt lat="44.12171" lon="7.23006">
        <ele>2405.683</ele>
        <time>2020-06-29T06:12:12Z</time>
      </trkpt>
      <trkpt lat="44.12171" lon="7.23006">
        <ele>2405.683</ele>
        <time>2020-06-29T06:12:27Z</time>
      </trkpt>
      <trkpt lat="44.12171" lon="7.23007">
        <ele>2405.678</ele>
        <time>2020-06-29T06:12:42Z</time>
      </trkpt>
      <trkpt lat="44.12171" lon="7.23007">
        <ele>2405.678</ele>
        <time>2020-06-29T06:12:58Z</time>
      </trkpt>
      <trkpt lat="44.12171" lon="7.23007">
        <ele>2405.678</ele>
        <time>2020-06-29T06:13:14Z</time>
      </trkpt>
      <trkpt lat="44.12171" lon="7.23005">
        <ele>2404.578</ele>
        <time>2020-06-29T06:13:29Z</time>
      </trkpt>
      <trkpt lat="44.1217" lon="7.23007">
        <ele>2404.763</ele>
        <time>2020-06-29T06:13:44Z</time>
      </trkpt>
      <trkpt lat="44.12171" lon="7.23007">
        <ele>2405.044</ele>
        <time>2020-06-29T06:14:00Z</time>
      </trkpt>
      <trkpt lat="44.12171" lon="7.23007">
        <ele>2405.044</ele>
        <time>2020-06-29T06:14:15Z</time>
      </trkpt>
      <trkpt lat="44.12171" lon="7.23007">
        <ele>2405.044</ele>
        <time>2020-06-29T06:14:31Z</time>
      </trkpt>
      <trkpt lat="44.12168" lon="7.23008">
        <ele>2404.963</ele>
        <time>2020-06-29T06:14:47Z</time>
      </trkpt>
      <trkpt lat="44.12168" lon="7.23008">
        <ele>2404.963</ele>
        <time>2020-06-29T06:15:03Z</time>
      </trkpt>
      <trkpt lat="44.12168" lon="7.23008">
        <ele>2404.963</ele>
        <time>2020-06-29T06:15:19Z</time>
      </trkpt>
      <trkpt lat="44.12168" lon="7.23008">
        <ele>2404.963</ele>
        <time>2020-06-29T06:15:35Z</time>
      </trkpt>
      <trkpt lat="44.1217" lon="7.23008">
        <ele>2404.659</ele>
        <time>2020-06-29T06:15:50Z</time>
      </trkpt>
      <trkpt lat="44.12167" lon="7.23006">
        <ele>2406.085</ele>
        <time>2020-06-29T06:16:05Z</time>
      </trkpt>
      <trkpt lat="44.12166" lon="7.23002">
        <ele>2409.022</ele>
        <time>2020-06-29T06:16:21Z</time>
      </trkpt>
      <trkpt lat="44.12163" lon="7.22988">
        <ele>2406.829</ele>
        <time>2020-06-29T06:16:37Z</time>
      </trkpt>
      <trkpt lat="44.12157" lon="7.22977">
        <ele>2411.016</ele>
        <time>2020-06-29T06:16:53Z</time>
      </trkpt>
      <trkpt lat="44.12156" lon="7.22977">
        <ele>2410.656</ele>
        <time>2020-06-29T06:17:08Z</time>
      </trkpt>
      <trkpt lat="44.12147" lon="7.22964">
        <ele>2410.358</ele>
        <time>2020-06-29T06:17:24Z</time>
      </trkpt>
      <trkpt lat="44.12144" lon="7.22961">
        <ele>2410.682</ele>
        <time>2020-06-29T06:17:40Z</time>
      </trkpt>
      <trkpt lat="44.12144" lon="7.22963">
        <ele>2411.551</ele>
        <time>2020-06-29T06:17:55Z</time>
      </trkpt>
      <trkpt lat="44.12152" lon="7.22971">
        <ele>2410.321</ele>
        <time>2020-06-29T06:18:10Z</time>
      </trkpt>
      <trkpt lat="44.12162" lon="7.2299">
        <ele>2411.049</ele>
        <time>2020-06-29T06:18:25Z</time>
      </trkpt>
      <trkpt lat="44.1217" lon="7.22999">
        <ele>2410.39</ele>
        <time>2020-06-29T06:18:41Z</time>
      </trkpt>
      <trkpt lat="44.12168" lon="7.22985">
        <ele>2407.176</ele>
        <time>2020-06-29T06:18:57Z</time>
      </trkpt>
      <trkpt lat="44.12176" lon="7.22975">
        <ele>2407.187</ele>
        <time>2020-06-29T06:19:12Z</time>
      </trkpt>
      <trkpt lat="44.12187" lon="7.22961">
        <ele>2411.501</ele>
        <time>2020-06-29T06:19:28Z</time>
      </trkpt>
      <trkpt lat="44.12188" lon="7.22959">
        <ele>2411.967</ele>
        <time>2020-06-29T06:19:43Z</time>
      </trkpt>
      <trkpt lat="44.12188" lon="7.22959">
        <ele>2411.967</ele>
        <time>2020-06-29T06:19:58Z</time>
      </trkpt>
      <trkpt lat="44.12188" lon="7.22959">
        <ele>2411.967</ele>
        <time>2020-06-29T06:20:13Z</time>
      </trkpt>
      <trkpt lat="44.12188" lon="7.22959">
        <ele>2411.967</ele>
        <time>2020-06-29T06:20:29Z</time>
      </trkpt>
      <trkpt lat="44.1218" lon="7.22976">
        <ele>2411.554</ele>
        <time>2020-06-29T06:20:45Z</time>
      </trkpt>
      <trkpt lat="44.1217" lon="7.22986">
        <ele>2410.829</ele>
        <time>2020-06-29T06:21:01Z</time>
      </trkpt>
      <trkpt lat="44.1217" lon="7.22985">
        <ele>2411.645</ele>
        <time>2020-06-29T06:21:17Z</time>
      </trkpt>
      <trkpt lat="44.12168" lon="7.22975">
        <ele>2415.805</ele>
        <time>2020-06-29T06:21:33Z</time>
      </trkpt>
      <trkpt lat="44.12167" lon="7.22966">
        <ele>2416.152</ele>
        <time>2020-06-29T06:21:49Z</time>
      </trkpt>
      <trkpt lat="44.12161" lon="7.22961">
        <ele>2414.501</ele>
        <time>2020-06-29T06:22:05Z</time>
      </trkpt>
      <trkpt lat="44.12159" lon="7.22958">
        <ele>2416.518</ele>
        <time>2020-06-29T06:22:20Z</time>
      </trkpt>
      <trkpt lat="44.12158" lon="7.22957">
        <ele>2416.007</ele>
        <time>2020-06-29T06:22:35Z</time>
      </trkpt>
      <trkpt lat="44.12155" lon="7.2295">
        <ele>2415.868</ele>
        <time>2020-06-29T06:22:51Z</time>
      </trkpt>
      <trkpt lat="44.12155" lon="7.2295">
        <ele>2415.868</ele>
        <time>2020-06-29T06:23:06Z</time>
      </trkpt>
      <trkpt lat="44.12157" lon="7.22941">
        <ele>2418.742</ele>
        <time>2020-06-29T06:23:22Z</time>
      </trkpt>
      <trkpt lat="44.12152" lon="7.22933">
        <ele>2423.046</ele>
        <time>2020-06-29T06:23:37Z</time>
      </trkpt>
      <trkpt lat="44.12147" lon="7.22925">
        <ele>2424.917</ele>
        <time>2020-06-29T06:23:53Z</time>
      </trkpt>
      <trkpt lat="44.12138" lon="7.22916">
        <ele>2421.961</ele>
        <time>2020-06-29T06:24:08Z</time>
      </trkpt>
      <trkpt lat="44.12137" lon="7.22913">
        <ele>2421.809</ele>
        <time>2020-06-29T06:24:23Z</time>
      </trkpt>
      <trkpt lat="44.12131" lon="7.22901">
        <ele>2424.589</ele>
        <time>2020-06-29T06:24:39Z</time>
      </trkpt>
      <trkpt lat="44.12131" lon="7.22899">
        <ele>2429.223</ele>
        <time>2020-06-29T06:24:54Z</time>
      </trkpt>
      <trkpt lat="44.12131" lon="7.22896">
        <ele>2432.299</ele>
        <time>2020-06-29T06:25:10Z</time>
      </trkpt>
      <trkpt lat="44.12129" lon="7.22894">
        <ele>2433.526</ele>
        <time>2020-06-29T06:25:26Z</time>
      </trkpt>
      <trkpt lat="44.12126" lon="7.22879">
        <ele>2437.263</ele>
        <time>2020-06-29T06:25:42Z</time>
      </trkpt>
      <trkpt lat="44.12125" lon="7.22871">
        <ele>2444.584</ele>
        <time>2020-06-29T06:25:58Z</time>
      </trkpt>
      <trkpt lat="44.12124" lon="7.22871">
        <ele>2444.105</ele>
        <time>2020-06-29T06:26:14Z</time>
      </trkpt>
      <trkpt lat="44.12126" lon="7.22874">
        <ele>2443.925</ele>
        <time>2020-06-29T06:26:29Z</time>
      </trkpt>
      <trkpt lat="44.12128" lon="7.22867">
        <ele>2445.382</ele>
        <time>2020-06-29T06:26:44Z</time>
      </trkpt>
      <trkpt lat="44.12125" lon="7.22852">
        <ele>2445.975</ele>
        <time>2020-06-29T06:26:59Z</time>
      </trkpt>
      <trkpt lat="44.12119" lon="7.22849">
        <ele>2443.284</ele>
        <time>2020-06-29T06:27:15Z</time>
      </trkpt>
      <trkpt lat="44.1212" lon="7.22839">
        <ele>2447.524</ele>
        <time>2020-06-29T06:27:31Z</time>
      </trkpt>
      <trkpt lat="44.12117" lon="7.22831">
        <ele>2441.72</ele>
        <time>2020-06-29T06:27:46Z</time>
      </trkpt>
      <trkpt lat="44.12118" lon="7.22826">
        <ele>2439.911</ele>
        <time>2020-06-29T06:28:02Z</time>
      </trkpt>
      <trkpt lat="44.12122" lon="7.22823">
        <ele>2439.715</ele>
        <time>2020-06-29T06:28:17Z</time>
      </trkpt>
      <trkpt lat="44.12125" lon="7.22816">
        <ele>2439.902</ele>
        <time>2020-06-29T06:28:33Z</time>
      </trkpt>
      <trkpt lat="44.12125" lon="7.22816">
        <ele>2439.902</ele>
        <time>2020-06-29T06:28:48Z</time>
      </trkpt>
      <trkpt lat="44.12125" lon="7.22813">
        <ele>2440.559</ele>
        <time>2020-06-29T06:29:04Z</time>
      </trkpt>
      <trkpt lat="44.12123" lon="7.22803">
        <ele>2448.523</ele>
        <time>2020-06-29T06:29:19Z</time>
      </trkpt>
      <trkpt lat="44.12119" lon="7.2279">
        <ele>2453.655</ele>
        <time>2020-06-29T06:29:35Z</time>
      </trkpt>
      <trkpt lat="44.1212" lon="7.22784">
        <ele>2456.102</ele>
        <time>2020-06-29T06:29:51Z</time>
      </trkpt>
      <trkpt lat="44.1212" lon="7.22784">
        <ele>2456.102</ele>
        <time>2020-06-29T06:30:06Z</time>
      </trkpt>
      <trkpt lat="44.12119" lon="7.22784">
        <ele>2456.441</ele>
        <time>2020-06-29T06:30:21Z</time>
      </trkpt>
      <trkpt lat="44.12121" lon="7.22781">
        <ele>2461.867</ele>
        <time>2020-06-29T06:30:37Z</time>
      </trkpt>
      <trkpt lat="44.12114" lon="7.22774">
        <ele>2463.529</ele>
        <time>2020-06-29T06:30:53Z</time>
      </trkpt>
      <trkpt lat="44.12112" lon="7.2277">
        <ele>2466.043</ele>
        <time>2020-06-29T06:31:08Z</time>
      </trkpt>
      <trkpt lat="44.12115" lon="7.22761">
        <ele>2470.36</ele>
        <time>2020-06-29T06:31:24Z</time>
      </trkpt>
      <trkpt lat="44.12109" lon="7.22759">
        <ele>2469.358</ele>
        <time>2020-06-29T06:31:40Z</time>
      </trkpt>
      <trkpt lat="44.12108" lon="7.22756">
        <ele>2471.874</ele>
        <time>2020-06-29T06:31:55Z</time>
      </trkpt>
      <trkpt lat="44.1211" lon="7.22751">
        <ele>2476.554</ele>
        <time>2020-06-29T06:32:11Z</time>
      </trkpt>
      <trkpt lat="44.12109" lon="7.22745">
        <ele>2478.888</ele>
        <time>2020-06-29T06:32:27Z</time>
      </trkpt>
      <trkpt lat="44.1211" lon="7.2274">
        <ele>2483.249</ele>
        <time>2020-06-29T06:32:42Z</time>
      </trkpt>
      <trkpt lat="44.12111" lon="7.22738">
        <ele>2483.85</ele>
        <time>2020-06-29T06:32:58Z</time>
      </trkpt>
      <trkpt lat="44.12111" lon="7.22737">
        <ele>2484.419</ele>
        <time>2020-06-29T06:33:14Z</time>
      </trkpt>
      <trkpt lat="44.12111" lon="7.22735">
        <ele>2486.303</ele>
        <time>2020-06-29T06:33:29Z</time>
      </trkpt>
      <trkpt lat="44.12111" lon="7.22731">
        <ele>2487.956</ele>
        <time>2020-06-29T06:33:45Z</time>
      </trkpt>
      <trkpt lat="44.12111" lon="7.22731">
        <ele>2487.956</ele>
        <time>2020-06-29T06:34:00Z</time>
      </trkpt>
      <trkpt lat="44.12111" lon="7.22731">
        <ele>2487.956</ele>
        <time>2020-06-29T06:34:16Z</time>
      </trkpt>
      <trkpt lat="44.12109" lon="7.22731">
        <ele>2489.746</ele>
        <time>2020-06-29T06:34:32Z</time>
      </trkpt>
      <trkpt lat="44.12108" lon="7.22731">
        <ele>2492.117</ele>
        <time>2020-06-29T06:34:48Z</time>
      </trkpt>
      <trkpt lat="44.12105" lon="7.22728">
        <ele>2491.021</ele>
        <time>2020-06-29T06:35:04Z</time>
      </trkpt>
      <trkpt lat="44.12105" lon="7.22727">
        <ele>2489.948</ele>
        <time>2020-06-29T06:35:19Z</time>
      </trkpt>
      <trkpt lat="44.12103" lon="7.22722">
        <ele>2489.352</ele>
        <time>2020-06-29T06:35:35Z</time>
      </trkpt>
      <trkpt lat="44.121" lon="7.22716">
        <ele>2489.326</ele>
        <time>2020-06-29T06:35:51Z</time>
      </trkpt>
      <trkpt lat="44.12101" lon="7.22715">
        <ele>2490.362</ele>
        <time>2020-06-29T06:36:06Z</time>
      </trkpt>
      <trkpt lat="44.12101" lon="7.22715">
        <ele>2490.362</ele>
        <time>2020-06-29T06:36:22Z</time>
      </trkpt>
      <trkpt lat="44.12099" lon="7.22712">
        <ele>2492.045</ele>
        <time>2020-06-29T06:36:38Z</time>
      </trkpt>
      <trkpt lat="44.12099" lon="7.22712">
        <ele>2492.045</ele>
        <time>2020-06-29T06:36:53Z</time>
      </trkpt>
      <trkpt lat="44.12099" lon="7.22712">
        <ele>2492.045</ele>
        <time>2020-06-29T06:37:08Z</time>
      </trkpt>
      <trkpt lat="44.12099" lon="7.22711">
        <ele>2491.868</ele>
        <time>2020-06-29T06:37:24Z</time>
      </trkpt>
      <trkpt lat="44.12099" lon="7.22711">
        <ele>2491.868</ele>
        <time>2020-06-29T06:37:39Z</time>
      </trkpt>
      <trkpt lat="44.12104" lon="7.22709">
        <ele>2493.784</ele>
        <time>2020-06-29T06:37:55Z</time>
      </trkpt>
      <trkpt lat="44.12104" lon="7.22709">
        <ele>2493.784</ele>
        <time>2020-06-29T06:38:11Z</time>
      </trkpt>
      <trkpt lat="44.12104" lon="7.22709">
        <ele>2493.784</ele>
        <time>2020-06-29T06:38:26Z</time>
      </trkpt>
      <trkpt lat="44.12103" lon="7.22719">
        <ele>2492.023</ele>
        <time>2020-06-29T06:38:42Z</time>
      </trkpt>
      <trkpt lat="44.12103" lon="7.22718">
        <ele>2491.448</ele>
        <time>2020-06-29T06:38:58Z</time>
      </trkpt>
      <trkpt lat="44.12101" lon="7.22718">
        <ele>2491.306</ele>
        <time>2020-06-29T06:39:14Z</time>
      </trkpt>
      <trkpt lat="44.12101" lon="7.22718">
        <ele>2491.366</ele>
        <time>2020-06-29T06:39:29Z</time>
      </trkpt>
      <trkpt lat="44.12101" lon="7.22718">
        <ele>2491.366</ele>
        <time>2020-06-29T06:39:45Z</time>
      </trkpt>
      <trkpt lat="44.12098" lon="7.22718">
        <ele>2491.134</ele>
        <time>2020-06-29T06:40:01Z</time>
      </trkpt>
      <trkpt lat="44.12084" lon="7.22716">
        <ele>2494.864</ele>
        <time>2020-06-29T06:40:17Z</time>
      </trkpt>
      <trkpt lat="44.12081" lon="7.2271">
        <ele>2494.396</ele>
        <time>2020-06-29T06:40:32Z</time>
      </trkpt>
      <trkpt lat="44.12081" lon="7.22711">
        <ele>2494.737</ele>
        <time>2020-06-29T06:40:47Z</time>
      </trkpt>
      <trkpt lat="44.12083" lon="7.22709">
        <ele>2494.784</ele>
        <time>2020-06-29T06:41:02Z</time>
      </trkpt>
      <trkpt lat="44.12083" lon="7.22709">
        <ele>2494.784</ele>
        <time>2020-06-29T06:41:18Z</time>
      </trkpt>
      <trkpt lat="44.12082" lon="7.22702">
        <ele>2494.802</ele>
        <time>2020-06-29T06:41:33Z</time>
      </trkpt>
      <trkpt lat="44.12082" lon="7.22689">
        <ele>2495.543</ele>
        <time>2020-06-29T06:41:49Z</time>
      </trkpt>
      <trkpt lat="44.12085" lon="7.22679">
        <ele>2494.232</ele>
        <time>2020-06-29T06:42:05Z</time>
      </trkpt>
      <trkpt lat="44.12087" lon="7.22676">
        <ele>2491.614</ele>
        <time>2020-06-29T06:42:20Z</time>
      </trkpt>
      <trkpt lat="44.12092" lon="7.22661">
        <ele>2497.553</ele>
        <time>2020-06-29T06:42:36Z</time>
      </trkpt>
      <trkpt lat="44.12095" lon="7.22657">
        <ele>2496.34</ele>
        <time>2020-06-29T06:42:52Z</time>
      </trkpt>
      <trkpt lat="44.12101" lon="7.22652">
        <ele>2498.025</ele>
        <time>2020-06-29T06:43:07Z</time>
      </trkpt>
      <trkpt lat="44.12109" lon="7.22644">
        <ele>2497.779</ele>
        <time>2020-06-29T06:43:23Z</time>
      </trkpt>
      <trkpt lat="44.12116" lon="7.22639">
        <ele>2497.954</ele>
        <time>2020-06-29T06:43:39Z</time>
      </trkpt>
      <trkpt lat="44.12121" lon="7.22628">
        <ele>2497.881</ele>
        <time>2020-06-29T06:43:55Z</time>
      </trkpt>
      <trkpt lat="44.12124" lon="7.22623">
        <ele>2494.456</ele>
        <time>2020-06-29T06:44:11Z</time>
      </trkpt>
      <trkpt lat="44.1213" lon="7.2262">
        <ele>2494.514</ele>
        <time>2020-06-29T06:44:26Z</time>
      </trkpt>
      <trkpt lat="44.12135" lon="7.22609">
        <ele>2498.933</ele>
        <time>2020-06-29T06:44:42Z</time>
      </trkpt>
      <trkpt lat="44.12135" lon="7.22609">
        <ele>2498.933</ele>
        <time>2020-06-29T06:44:57Z</time>
      </trkpt>
      <trkpt lat="44.12148" lon="7.22594">
        <ele>2500.277</ele>
        <time>2020-06-29T06:45:13Z</time>
      </trkpt>
      <trkpt lat="44.12155" lon="7.22584">
        <ele>2505.603</ele>
        <time>2020-06-29T06:45:28Z</time>
      </trkpt>
      <trkpt lat="44.12161" lon="7.22571">
        <ele>2512.124</ele>
        <time>2020-06-29T06:45:43Z</time>
      </trkpt>
      <trkpt lat="44.12161" lon="7.22565">
        <ele>2511.423</ele>
        <time>2020-06-29T06:45:59Z</time>
      </trkpt>
      <trkpt lat="44.12166" lon="7.2255">
        <ele>2512.369</ele>
        <time>2020-06-29T06:46:15Z</time>
      </trkpt>
      <trkpt lat="44.12173" lon="7.22533">
        <ele>2516.675</ele>
        <time>2020-06-29T06:46:30Z</time>
      </trkpt>
      <trkpt lat="44.12179" lon="7.22522">
        <ele>2521.361</ele>
        <time>2020-06-29T06:46:45Z</time>
      </trkpt>
      <trkpt lat="44.12177" lon="7.22507">
        <ele>2521.866</ele>
        <time>2020-06-29T06:47:01Z</time>
      </trkpt>
      <trkpt lat="44.12184" lon="7.22495">
        <ele>2523.641</ele>
        <time>2020-06-29T06:47:16Z</time>
      </trkpt>
      <trkpt lat="44.12186" lon="7.2249">
        <ele>2525.406</ele>
        <time>2020-06-29T06:47:32Z</time>
      </trkpt>
      <trkpt lat="44.12189" lon="7.22486">
        <ele>2525.821</ele>
        <time>2020-06-29T06:47:48Z</time>
      </trkpt>
      <trkpt lat="44.12188" lon="7.22466">
        <ele>2524.426</ele>
        <time>2020-06-29T06:48:03Z</time>
      </trkpt>
      <trkpt lat="44.12191" lon="7.22456">
        <ele>2528.026</ele>
        <time>2020-06-29T06:48:19Z</time>
      </trkpt>
      <trkpt lat="44.12187" lon="7.22441">
        <ele>2526.946</ele>
        <time>2020-06-29T06:48:35Z</time>
      </trkpt>
      <trkpt lat="44.12187" lon="7.2243">
        <ele>2527.426</ele>
        <time>2020-06-29T06:48:51Z</time>
      </trkpt>
      <trkpt lat="44.12187" lon="7.2243">
        <ele>2527.569</ele>
        <time>2020-06-29T06:49:07Z</time>
      </trkpt>
      <trkpt lat="44.12187" lon="7.22427">
        <ele>2530.446</ele>
        <time>2020-06-29T06:49:22Z</time>
      </trkpt>
      <trkpt lat="44.12187" lon="7.22427">
        <ele>2530.446</ele>
        <time>2020-06-29T06:49:38Z</time>
      </trkpt>
      <trkpt lat="44.12186" lon="7.22426">
        <ele>2530.853</ele>
        <time>2020-06-29T06:49:53Z</time>
      </trkpt>
      <trkpt lat="44.12185" lon="7.22426">
        <ele>2531.156</ele>
        <time>2020-06-29T06:50:09Z</time>
      </trkpt>
      <trkpt lat="44.12185" lon="7.22426">
        <ele>2531.156</ele>
        <time>2020-06-29T06:50:24Z</time>
      </trkpt>
      <trkpt lat="44.12185" lon="7.22426">
        <ele>2531.156</ele>
        <time>2020-06-29T06:50:39Z</time>
      </trkpt>
      <trkpt lat="44.12185" lon="7.22426">
        <ele>2531.156</ele>
        <time>2020-06-29T06:50:54Z</time>
      </trkpt>
      <trkpt lat="44.12185" lon="7.22426">
        <ele>2531.156</ele>
        <time>2020-06-29T06:51:10Z</time>
      </trkpt>
      <trkpt lat="44.12184" lon="7.22424">
        <ele>2533.356</ele>
        <time>2020-06-29T06:51:25Z</time>
      </trkpt>
      <trkpt lat="44.12184" lon="7.22424">
        <ele>2533.356</ele>
        <time>2020-06-29T06:51:41Z</time>
      </trkpt>
      <trkpt lat="44.12177" lon="7.22428">
        <ele>2533.675</ele>
        <time>2020-06-29T06:51:56Z</time>
      </trkpt>
      <trkpt lat="44.12163" lon="7.22425">
        <ele>2529.913</ele>
        <time>2020-06-29T06:52:12Z</time>
      </trkpt>
      <trkpt lat="44.12156" lon="7.22419">
        <ele>2529.1</ele>
        <time>2020-06-29T06:52:27Z</time>
      </trkpt>
      <trkpt lat="44.12156" lon="7.22419">
        <ele>2529.1</ele>
        <time>2020-06-29T06:52:43Z</time>
      </trkpt>
      <trkpt lat="44.12151" lon="7.2241">
        <ele>2529.119</ele>
        <time>2020-06-29T06:52:58Z</time>
      </trkpt>
      <trkpt lat="44.12141" lon="7.22408">
        <ele>2529.969</ele>
        <time>2020-06-29T06:53:13Z</time>
      </trkpt>
      <trkpt lat="44.12136" lon="7.224">
        <ele>2531.633</ele>
        <time>2020-06-29T06:53:29Z</time>
      </trkpt>
      <trkpt lat="44.12134" lon="7.22398">
        <ele>2532.201</ele>
        <time>2020-06-29T06:53:45Z</time>
      </trkpt>
      <trkpt lat="44.12129" lon="7.22394">
        <ele>2533.749</ele>
        <time>2020-06-29T06:54:00Z</time>
      </trkpt>
      <trkpt lat="44.12127" lon="7.22391">
        <ele>2535.068</ele>
        <time>2020-06-29T06:54:16Z</time>
      </trkpt>
      <trkpt lat="44.12125" lon="7.22388">
        <ele>2535.198</ele>
        <time>2020-06-29T06:54:31Z</time>
      </trkpt>
      <trkpt lat="44.12125" lon="7.22384">
        <ele>2534.795</ele>
        <time>2020-06-29T06:54:46Z</time>
      </trkpt>
      <trkpt lat="44.12122" lon="7.22371">
        <ele>2537.835</ele>
        <time>2020-06-29T06:55:02Z</time>
      </trkpt>
      <trkpt lat="44.12122" lon="7.22371">
        <ele>2537.835</ele>
        <time>2020-06-29T06:55:18Z</time>
      </trkpt>
      <trkpt lat="44.12106" lon="7.22376">
        <ele>2545.211</ele>
        <time>2020-06-29T06:55:34Z</time>
      </trkpt>
      <trkpt lat="44.12099" lon="7.2238">
        <ele>2543.587</ele>
        <time>2020-06-29T06:55:49Z</time>
      </trkpt>
      <trkpt lat="44.12095" lon="7.22376">
        <ele>2544.021</ele>
        <time>2020-06-29T06:56:05Z</time>
      </trkpt>
      <trkpt lat="44.12095" lon="7.22376">
        <ele>2544.021</ele>
        <time>2020-06-29T06:56:21Z</time>
      </trkpt>
      <trkpt lat="44.12095" lon="7.22376">
        <ele>2544.021</ele>
        <time>2020-06-29T06:56:37Z</time>
      </trkpt>
      <trkpt lat="44.12095" lon="7.22376">
        <ele>2544.021</ele>
        <time>2020-06-29T06:56:52Z</time>
      </trkpt>
      <trkpt lat="44.12095" lon="7.22376">
        <ele>2544.021</ele>
        <time>2020-06-29T06:57:08Z</time>
      </trkpt>
      <trkpt lat="44.12095" lon="7.22376">
        <ele>2544.021</ele>
        <time>2020-06-29T06:57:24Z</time>
      </trkpt>
      <trkpt lat="44.12095" lon="7.22376">
        <ele>2544.021</ele>
        <time>2020-06-29T06:57:40Z</time>
      </trkpt>
      <trkpt lat="44.12095" lon="7.22376">
        <ele>2544.021</ele>
        <time>2020-06-29T06:57:56Z</time>
      </trkpt>
      <trkpt lat="44.12095" lon="7.22376">
        <ele>2544.021</ele>
        <time>2020-06-29T06:58:11Z</time>
      </trkpt>
      <trkpt lat="44.12095" lon="7.22376">
        <ele>2544.021</ele>
        <time>2020-06-29T06:58:27Z</time>
      </trkpt>
      <trkpt lat="44.12095" lon="7.22376">
        <ele>2544.021</ele>
        <time>2020-06-29T06:58:43Z</time>
      </trkpt>
      <trkpt lat="44.12093" lon="7.22375">
        <ele>2544.113</ele>
        <time>2020-06-29T06:58:59Z</time>
      </trkpt>
      <trkpt lat="44.12093" lon="7.22375">
        <ele>2544.113</ele>
        <time>2020-06-29T06:59:14Z</time>
      </trkpt>
      <trkpt lat="44.12093" lon="7.22375">
        <ele>2544.113</ele>
        <time>2020-06-29T06:59:30Z</time>
      </trkpt>
      <trkpt lat="44.12093" lon="7.22375">
        <ele>2544.113</ele>
        <time>2020-06-29T06:59:45Z</time>
      </trkpt>
      <trkpt lat="44.12093" lon="7.22375">
        <ele>2544.113</ele>
        <time>2020-06-29T07:00:01Z</time>
      </trkpt>
      <trkpt lat="44.12093" lon="7.22375">
        <ele>2544.113</ele>
        <time>2020-06-29T07:00:17Z</time>
      </trkpt>
      <trkpt lat="44.12093" lon="7.22375">
        <ele>2544.113</ele>
        <time>2020-06-29T07:00:32Z</time>
      </trkpt>
      <trkpt lat="44.12093" lon="7.22375">
        <ele>2544.113</ele>
        <time>2020-06-29T07:00:48Z</time>
      </trkpt>
      <trkpt lat="44.12092" lon="7.22373">
        <ele>2543.63</ele>
        <time>2020-06-29T07:01:04Z</time>
      </trkpt>
      <trkpt lat="44.12092" lon="7.22373">
        <ele>2543.63</ele>
        <time>2020-06-29T07:01:20Z</time>
      </trkpt>
      <trkpt lat="44.12092" lon="7.22373">
        <ele>2543.63</ele>
        <time>2020-06-29T07:01:35Z</time>
      </trkpt>
      <trkpt lat="44.12092" lon="7.22373">
        <ele>2543.63</ele>
        <time>2020-06-29T07:01:50Z</time>
      </trkpt>
      <trkpt lat="44.12092" lon="7.22373">
        <ele>2543.63</ele>
        <time>2020-06-29T07:02:06Z</time>
      </trkpt>
      <trkpt lat="44.12092" lon="7.22373">
        <ele>2543.63</ele>
        <time>2020-06-29T07:02:21Z</time>
      </trkpt>
      <trkpt lat="44.12092" lon="7.22373">
        <ele>2543.63</ele>
        <time>2020-06-29T07:02:37Z</time>
      </trkpt>
      <trkpt lat="44.12099" lon="7.22376">
        <ele>2546.94</ele>
        <time>2020-06-29T07:02:53Z</time>
      </trkpt>
      <trkpt lat="44.12102" lon="7.22373">
        <ele>2545.475</ele>
        <time>2020-06-29T07:03:08Z</time>
      </trkpt>
      <trkpt lat="44.12105" lon="7.22375">
        <ele>2545.98</ele>
        <time>2020-06-29T07:03:24Z</time>
      </trkpt>
      <trkpt lat="44.12106" lon="7.22376">
        <ele>2546.027</ele>
        <time>2020-06-29T07:03:39Z</time>
      </trkpt>
      <trkpt lat="44.12123" lon="7.22376">
        <ele>2545.643</ele>
        <time>2020-06-29T07:03:55Z</time>
      </trkpt>
      <trkpt lat="44.12123" lon="7.22376">
        <ele>2545.643</ele>
        <time>2020-06-29T07:04:10Z</time>
      </trkpt>
      <trkpt lat="44.12123" lon="7.22376">
        <ele>2545.643</ele>
        <time>2020-06-29T07:04:26Z</time>
      </trkpt>
      <trkpt lat="44.12122" lon="7.22385">
        <ele>2544.345</ele>
        <time>2020-06-29T07:04:42Z</time>
      </trkpt>
      <trkpt lat="44.1213" lon="7.2239">
        <ele>2540.839</ele>
        <time>2020-06-29T07:04:57Z</time>
      </trkpt>
      <trkpt lat="44.12132" lon="7.22394">
        <ele>2537.199</ele>
        <time>2020-06-29T07:05:13Z</time>
      </trkpt>
      <trkpt lat="44.12132" lon="7.22394">
        <ele>2537.199</ele>
        <time>2020-06-29T07:05:28Z</time>
      </trkpt>
      <trkpt lat="44.12147" lon="7.22402">
        <ele>2531.82</ele>
        <time>2020-06-29T07:05:44Z</time>
      </trkpt>
      <trkpt lat="44.12149" lon="7.22406">
        <ele>2529.95</ele>
        <time>2020-06-29T07:06:00Z</time>
      </trkpt>
      <trkpt lat="44.12149" lon="7.22406">
        <ele>2529.95</ele>
        <time>2020-06-29T07:06:15Z</time>
      </trkpt>
      <trkpt lat="44.12149" lon="7.22406">
        <ele>2529.95</ele>
        <time>2020-06-29T07:06:31Z</time>
      </trkpt>
      <trkpt lat="44.12149" lon="7.22406">
        <ele>2529.95</ele>
        <time>2020-06-29T07:06:46Z</time>
      </trkpt>
      <trkpt lat="44.12149" lon="7.22406">
        <ele>2529.95</ele>
        <time>2020-06-29T07:07:01Z</time>
      </trkpt>
      <trkpt lat="44.12149" lon="7.22406">
        <ele>2529.95</ele>
        <time>2020-06-29T07:07:16Z</time>
      </trkpt>
      <trkpt lat="44.12149" lon="7.22406">
        <ele>2529.95</ele>
        <time>2020-06-29T07:07:31Z</time>
      </trkpt>
      <trkpt lat="44.12149" lon="7.22406">
        <ele>2529.95</ele>
        <time>2020-06-29T07:07:47Z</time>
      </trkpt>
      <trkpt lat="44.12149" lon="7.22406">
        <ele>2529.95</ele>
        <time>2020-06-29T07:08:03Z</time>
      </trkpt>
      <trkpt lat="44.12149" lon="7.22406">
        <ele>2529.95</ele>
        <time>2020-06-29T07:08:18Z</time>
      </trkpt>
      <trkpt lat="44.12149" lon="7.22406">
        <ele>2529.95</ele>
        <time>2020-06-29T07:08:33Z</time>
      </trkpt>
      <trkpt lat="44.12157" lon="7.22417">
        <ele>2524.336</ele>
        <time>2020-06-29T07:08:49Z</time>
      </trkpt>
      <trkpt lat="44.12158" lon="7.22418">
        <ele>2523.875</ele>
        <time>2020-06-29T07:09:04Z</time>
      </trkpt>
      <trkpt lat="44.12161" lon="7.22419">
        <ele>2523.767</ele>
        <time>2020-06-29T07:09:20Z</time>
      </trkpt>
      <trkpt lat="44.12162" lon="7.22423">
        <ele>2522.394</ele>
        <time>2020-06-29T07:09:36Z</time>
      </trkpt>
      <trkpt lat="44.12163" lon="7.22424">
        <ele>2522.819</ele>
        <time>2020-06-29T07:09:51Z</time>
      </trkpt>
      <trkpt lat="44.12171" lon="7.22438">
        <ele>2529.063</ele>
        <time>2020-06-29T07:10:07Z</time>
      </trkpt>
      <trkpt lat="44.12176" lon="7.22448">
        <ele>2529.5</ele>
        <time>2020-06-29T07:10:23Z</time>
      </trkpt>
      <trkpt lat="44.12178" lon="7.22463">
        <ele>2526.695</ele>
        <time>2020-06-29T07:10:38Z</time>
      </trkpt>
      <trkpt lat="44.12181" lon="7.22483">
        <ele>2522.728</ele>
        <time>2020-06-29T07:10:54Z</time>
      </trkpt>
      <trkpt lat="44.12179" lon="7.22493">
        <ele>2522.746</ele>
        <time>2020-06-29T07:11:10Z</time>
      </trkpt>
      <trkpt lat="44.12178" lon="7.22515">
        <ele>2521.337</ele>
        <time>2020-06-29T07:11:26Z</time>
      </trkpt>
      <trkpt lat="44.12176" lon="7.22528">
        <ele>2521.901</ele>
        <time>2020-06-29T07:11:41Z</time>
      </trkpt>
      <trkpt lat="44.12176" lon="7.22543">
        <ele>2522.754</ele>
        <time>2020-06-29T07:11:57Z</time>
      </trkpt>
      <trkpt lat="44.12174" lon="7.22553">
        <ele>2523.32</ele>
        <time>2020-06-29T07:12:12Z</time>
      </trkpt>
      <trkpt lat="44.12172" lon="7.22567">
        <ele>2520.813</ele>
        <time>2020-06-29T07:12:27Z</time>
      </trkpt>
      <trkpt lat="44.12167" lon="7.22586">
        <ele>2521.307</ele>
        <time>2020-06-29T07:12:43Z</time>
      </trkpt>
      <trkpt lat="44.12163" lon="7.22605">
        <ele>2523.941</ele>
        <time>2020-06-29T07:12:58Z</time>
      </trkpt>
      <trkpt lat="44.12162" lon="7.22617">
        <ele>2523.462</ele>
        <time>2020-06-29T07:13:14Z</time>
      </trkpt>
      <trkpt lat="44.12162" lon="7.22617">
        <ele>2523.681</ele>
        <time>2020-06-29T07:13:29Z</time>
      </trkpt>
      <trkpt lat="44.12162" lon="7.22617">
        <ele>2523.681</ele>
        <time>2020-06-29T07:13:45Z</time>
      </trkpt>
      <trkpt lat="44.1216" lon="7.22618">
        <ele>2523.484</ele>
        <time>2020-06-29T07:14:00Z</time>
      </trkpt>
      <trkpt lat="44.12161" lon="7.2262">
        <ele>2523.748</ele>
        <time>2020-06-29T07:14:15Z</time>
      </trkpt>
      <trkpt lat="44.12161" lon="7.22622">
        <ele>2524.027</ele>
        <time>2020-06-29T07:14:31Z</time>
      </trkpt>
      <trkpt lat="44.12161" lon="7.22638">
        <ele>2526.183</ele>
        <time>2020-06-29T07:14:47Z</time>
      </trkpt>
      <trkpt lat="44.12153" lon="7.22653">
        <ele>2524.756</ele>
        <time>2020-06-29T07:15:02Z</time>
      </trkpt>
      <trkpt lat="44.12145" lon="7.22669">
        <ele>2524.158</ele>
        <time>2020-06-29T07:15:18Z</time>
      </trkpt>
      <trkpt lat="44.12142" lon="7.22679">
        <ele>2521.482</ele>
        <time>2020-06-29T07:15:33Z</time>
      </trkpt>
      <trkpt lat="44.12134" lon="7.22694">
        <ele>2517.434</ele>
        <time>2020-06-29T07:15:49Z</time>
      </trkpt>
      <trkpt lat="44.12126" lon="7.227">
        <ele>2513.487</ele>
        <time>2020-06-29T07:16:04Z</time>
      </trkpt>
      <trkpt lat="44.12126" lon="7.227">
        <ele>2513.218</ele>
        <time>2020-06-29T07:16:20Z</time>
      </trkpt>
      <trkpt lat="44.12124" lon="7.22695">
        <ele>2511.272</ele>
        <time>2020-06-29T07:16:35Z</time>
      </trkpt>
      <trkpt lat="44.12117" lon="7.22695">
        <ele>2508.914</ele>
        <time>2020-06-29T07:16:51Z</time>
      </trkpt>
      <trkpt lat="44.12113" lon="7.22702">
        <ele>2505.945</ele>
        <time>2020-06-29T07:17:06Z</time>
      </trkpt>
      <trkpt lat="44.1211" lon="7.22707">
        <ele>2503.157</ele>
        <time>2020-06-29T07:17:21Z</time>
      </trkpt>
      <trkpt lat="44.12105" lon="7.22714">
        <ele>2500.297</ele>
        <time>2020-06-29T07:17:37Z</time>
      </trkpt>
      <trkpt lat="44.12106" lon="7.22717">
        <ele>2498.261</ele>
        <time>2020-06-29T07:17:53Z</time>
      </trkpt>
      <trkpt lat="44.12105" lon="7.22717">
        <ele>2497.406</ele>
        <time>2020-06-29T07:18:08Z</time>
      </trkpt>
      <trkpt lat="44.12105" lon="7.22717">
        <ele>2497.406</ele>
        <time>2020-06-29T07:18:24Z</time>
      </trkpt>
      <trkpt lat="44.12105" lon="7.22717">
        <ele>2497.406</ele>
        <time>2020-06-29T07:18:40Z</time>
      </trkpt>
      <trkpt lat="44.1211" lon="7.22725">
        <ele>2494.311</ele>
        <time>2020-06-29T07:18:55Z</time>
      </trkpt>
      <trkpt lat="44.12115" lon="7.22729">
        <ele>2494.074</ele>
        <time>2020-06-29T07:19:11Z</time>
      </trkpt>
      <trkpt lat="44.12116" lon="7.22731">
        <ele>2493.312</ele>
        <time>2020-06-29T07:19:26Z</time>
      </trkpt>
      <trkpt lat="44.12117" lon="7.22733">
        <ele>2492.899</ele>
        <time>2020-06-29T07:19:42Z</time>
      </trkpt>
      <trkpt lat="44.12117" lon="7.22733">
        <ele>2492.899</ele>
        <time>2020-06-29T07:19:58Z</time>
      </trkpt>
      <trkpt lat="44.12117" lon="7.22733">
        <ele>2492.899</ele>
        <time>2020-06-29T07:20:13Z</time>
      </trkpt>
      <trkpt lat="44.12121" lon="7.2274">
        <ele>2492.081</ele>
        <time>2020-06-29T07:20:28Z</time>
      </trkpt>
      <trkpt lat="44.12121" lon="7.22741">
        <ele>2490.937</ele>
        <time>2020-06-29T07:20:44Z</time>
      </trkpt>
      <trkpt lat="44.1212" lon="7.22749">
        <ele>2489.929</ele>
        <time>2020-06-29T07:20:59Z</time>
      </trkpt>
      <trkpt lat="44.12123" lon="7.2275">
        <ele>2488.557</ele>
        <time>2020-06-29T07:21:15Z</time>
      </trkpt>
      <trkpt lat="44.12123" lon="7.2275">
        <ele>2488.557</ele>
        <time>2020-06-29T07:21:31Z</time>
      </trkpt>
      <trkpt lat="44.12123" lon="7.2275">
        <ele>2488.557</ele>
        <time>2020-06-29T07:21:46Z</time>
      </trkpt>
      <trkpt lat="44.12124" lon="7.2276">
        <ele>2486.694</ele>
        <time>2020-06-29T07:22:02Z</time>
      </trkpt>
      <trkpt lat="44.12117" lon="7.22762">
        <ele>2481.54</ele>
        <time>2020-06-29T07:22:18Z</time>
      </trkpt>
      <trkpt lat="44.12117" lon="7.22762">
        <ele>2481.54</ele>
        <time>2020-06-29T07:22:33Z</time>
      </trkpt>
      <trkpt lat="44.12117" lon="7.22762">
        <ele>2481.54</ele>
        <time>2020-06-29T07:22:49Z</time>
      </trkpt>
      <trkpt lat="44.12117" lon="7.22764">
        <ele>2481.314</ele>
        <time>2020-06-29T07:23:05Z</time>
      </trkpt>
      <trkpt lat="44.12118" lon="7.22764">
        <ele>2480.945</ele>
        <time>2020-06-29T07:23:21Z</time>
      </trkpt>
      <trkpt lat="44.12118" lon="7.22765">
        <ele>2480.665</ele>
        <time>2020-06-29T07:23:37Z</time>
      </trkpt>
      <trkpt lat="44.12118" lon="7.22769">
        <ele>2478.899</ele>
        <time>2020-06-29T07:23:52Z</time>
      </trkpt>
      <trkpt lat="44.12117" lon="7.22778">
        <ele>2475.8</ele>
        <time>2020-06-29T07:24:08Z</time>
      </trkpt>
      <trkpt lat="44.12117" lon="7.22779">
        <ele>2475.411</ele>
        <time>2020-06-29T07:24:23Z</time>
      </trkpt>
      <trkpt lat="44.12117" lon="7.22779">
        <ele>2475.411</ele>
        <time>2020-06-29T07:24:38Z</time>
      </trkpt>
      <trkpt lat="44.12115" lon="7.22782">
        <ele>2474.637</ele>
        <time>2020-06-29T07:24:54Z</time>
      </trkpt>
      <trkpt lat="44.12115" lon="7.22782">
        <ele>2474.637</ele>
        <time>2020-06-29T07:25:09Z</time>
      </trkpt>
      <trkpt lat="44.12115" lon="7.22787">
        <ele>2471.783</ele>
        <time>2020-06-29T07:25:24Z</time>
      </trkpt>
      <trkpt lat="44.12115" lon="7.22787">
        <ele>2471.783</ele>
        <time>2020-06-29T07:25:39Z</time>
      </trkpt>
      <trkpt lat="44.12113" lon="7.22791">
        <ele>2470.301</ele>
        <time>2020-06-29T07:25:55Z</time>
      </trkpt>
      <trkpt lat="44.12113" lon="7.22791">
        <ele>2470.301</ele>
        <time>2020-06-29T07:26:10Z</time>
      </trkpt>
      <trkpt lat="44.12113" lon="7.22791">
        <ele>2470.301</ele>
        <time>2020-06-29T07:26:26Z</time>
      </trkpt>
      <trkpt lat="44.12108" lon="7.22798">
        <ele>2467.903</ele>
        <time>2020-06-29T07:26:42Z</time>
      </trkpt>
      <trkpt lat="44.12106" lon="7.22803">
        <ele>2465.565</ele>
        <time>2020-06-29T07:26:58Z</time>
      </trkpt>
      <trkpt lat="44.12106" lon="7.22803">
        <ele>2465.565</ele>
        <time>2020-06-29T07:27:13Z</time>
      </trkpt>
      <trkpt lat="44.12106" lon="7.22803">
        <ele>2465.565</ele>
        <time>2020-06-29T07:27:29Z</time>
      </trkpt>
      <trkpt lat="44.121" lon="7.22805">
        <ele>2462.188</ele>
        <time>2020-06-29T07:27:44Z</time>
      </trkpt>
      <trkpt lat="44.12097" lon="7.22807">
        <ele>2459.519</ele>
        <time>2020-06-29T07:28:00Z</time>
      </trkpt>
      <trkpt lat="44.12096" lon="7.22813">
        <ele>2452.705</ele>
        <time>2020-06-29T07:28:15Z</time>
      </trkpt>
      <trkpt lat="44.12097" lon="7.22815">
        <ele>2450.36</ele>
        <time>2020-06-29T07:28:31Z</time>
      </trkpt>
      <trkpt lat="44.12097" lon="7.22815">
        <ele>2450.36</ele>
        <time>2020-06-29T07:28:46Z</time>
      </trkpt>
      <trkpt lat="44.12097" lon="7.22815">
        <ele>2450.36</ele>
        <time>2020-06-29T07:29:02Z</time>
      </trkpt>
      <trkpt lat="44.12097" lon="7.2282">
        <ele>2447.53</ele>
        <time>2020-06-29T07:29:17Z</time>
      </trkpt>
      <trkpt lat="44.121" lon="7.22822">
        <ele>2446.331</ele>
        <time>2020-06-29T07:29:33Z</time>
      </trkpt>
      <trkpt lat="44.12099" lon="7.22823">
        <ele>2445.765</ele>
        <time>2020-06-29T07:29:49Z</time>
      </trkpt>
      <trkpt lat="44.12099" lon="7.22823">
        <ele>2445.495</ele>
        <time>2020-06-29T07:30:04Z</time>
      </trkpt>
      <trkpt lat="44.12099" lon="7.22822">
        <ele>2444.883</ele>
        <time>2020-06-29T07:30:20Z</time>
      </trkpt>
      <trkpt lat="44.12098" lon="7.22821">
        <ele>2443.951</ele>
        <time>2020-06-29T07:30:36Z</time>
      </trkpt>
      <trkpt lat="44.12095" lon="7.22818">
        <ele>2439.134</ele>
        <time>2020-06-29T07:30:51Z</time>
      </trkpt>
      <trkpt lat="44.12093" lon="7.22824">
        <ele>2435.835</ele>
        <time>2020-06-29T07:31:07Z</time>
      </trkpt>
      <trkpt lat="44.12093" lon="7.22827">
        <ele>2435.183</ele>
        <time>2020-06-29T07:31:23Z</time>
      </trkpt>
      <trkpt lat="44.12084" lon="7.22831">
        <ele>2430.619</ele>
        <time>2020-06-29T07:31:38Z</time>
      </trkpt>
      <trkpt lat="44.1208" lon="7.22835">
        <ele>2428.202</ele>
        <time>2020-06-29T07:31:54Z</time>
      </trkpt>
      <trkpt lat="44.12077" lon="7.22834">
        <ele>2423.955</ele>
        <time>2020-06-29T07:32:09Z</time>
      </trkpt>
      <trkpt lat="44.12075" lon="7.22846">
        <ele>2421.265</ele>
        <time>2020-06-29T07:32:25Z</time>
      </trkpt>
      <trkpt lat="44.12075" lon="7.22846">
        <ele>2421.265</ele>
        <time>2020-06-29T07:32:41Z</time>
      </trkpt>
      <trkpt lat="44.12075" lon="7.22846">
        <ele>2421.265</ele>
        <time>2020-06-29T07:32:56Z</time>
      </trkpt>
      <trkpt lat="44.12079" lon="7.22848">
        <ele>2422.047</ele>
        <time>2020-06-29T07:33:12Z</time>
      </trkpt>
      <trkpt lat="44.1209" lon="7.22864">
        <ele>2424.402</ele>
        <time>2020-06-29T07:33:28Z</time>
      </trkpt>
      <trkpt lat="44.12094" lon="7.22888">
        <ele>2421.043</ele>
        <time>2020-06-29T07:33:44Z</time>
      </trkpt>
      <trkpt lat="44.12103" lon="7.22904">
        <ele>2417.737</ele>
        <time>2020-06-29T07:34:00Z</time>
      </trkpt>
      <trkpt lat="44.12116" lon="7.22921">
        <ele>2418.093</ele>
        <time>2020-06-29T07:34:15Z</time>
      </trkpt>
      <trkpt lat="44.12124" lon="7.22939">
        <ele>2417.87</ele>
        <time>2020-06-29T07:34:31Z</time>
      </trkpt>
      <trkpt lat="44.12139" lon="7.22959">
        <ele>2415.783</ele>
        <time>2020-06-29T07:34:47Z</time>
      </trkpt>
      <trkpt lat="44.1215" lon="7.22973">
        <ele>2412.328</ele>
        <time>2020-06-29T07:35:02Z</time>
      </trkpt>
      <trkpt lat="44.12164" lon="7.22991">
        <ele>2412.597</ele>
        <time>2020-06-29T07:35:18Z</time>
      </trkpt>
      <trkpt lat="44.12164" lon="7.22996">
        <ele>2409.26</ele>
        <time>2020-06-29T07:35:34Z</time>
      </trkpt>
      <trkpt lat="44.12168" lon="7.22997">
        <ele>2409.843</ele>
        <time>2020-06-29T07:35:50Z</time>
      </trkpt>
      <trkpt lat="44.12167" lon="7.22999">
        <ele>2411.538</ele>
        <time>2020-06-29T07:36:05Z</time>
      </trkpt>
      <trkpt lat="44.12167" lon="7.22998">
        <ele>2411.935</ele>
        <time>2020-06-29T07:36:21Z</time>
      </trkpt>
      <trkpt lat="44.12167" lon="7.22998">
        <ele>2411.935</ele>
        <time>2020-06-29T07:36:37Z</time>
      </trkpt>
      <trkpt lat="44.12167" lon="7.22998">
        <ele>2411.935</ele>
        <time>2020-06-29T07:36:52Z</time>
      </trkpt>
      <trkpt lat="44.12167" lon="7.22998">
        <ele>2411.935</ele>
        <time>2020-06-29T07:37:08Z</time>
      </trkpt>
      <trkpt lat="44.12167" lon="7.22998">
        <ele>2411.935</ele>
        <time>2020-06-29T07:37:24Z</time>
      </trkpt>
      <trkpt lat="44.12167" lon="7.22999">
        <ele>2411.235</ele>
        <time>2020-06-29T07:37:40Z</time>
      </trkpt>
      <trkpt lat="44.12163" lon="7.22999">
        <ele>2409.811</ele>
        <time>2020-06-29T07:37:56Z</time>
      </trkpt>
      <trkpt lat="44.12164" lon="7.22993">
        <ele>2408.326</ele>
        <time>2020-06-29T07:38:11Z</time>
      </trkpt>
      <trkpt lat="44.12173" lon="7.22976">
        <ele>2408.533</ele>
        <time>2020-06-29T07:38:27Z</time>
      </trkpt>
      <trkpt lat="44.12188" lon="7.22955">
        <ele>2406.766</ele>
        <time>2020-06-29T07:38:42Z</time>
      </trkpt>
      <trkpt lat="44.12192" lon="7.22942">
        <ele>2407.587</ele>
        <time>2020-06-29T07:38:58Z</time>
      </trkpt>
      <trkpt lat="44.12206" lon="7.22929">
        <ele>2407.731</ele>
        <time>2020-06-29T07:39:14Z</time>
      </trkpt>
      <trkpt lat="44.1222" lon="7.22918">
        <ele>2409.506</ele>
        <time>2020-06-29T07:39:29Z</time>
      </trkpt>
      <trkpt lat="44.12238" lon="7.22917">
        <ele>2410.426</ele>
        <time>2020-06-29T07:39:45Z</time>
      </trkpt>
      <trkpt lat="44.12238" lon="7.22918">
        <ele>2409.875</ele>
        <time>2020-06-29T07:40:01Z</time>
      </trkpt>
      <trkpt lat="44.12252" lon="7.22918">
        <ele>2408.959</ele>
        <time>2020-06-29T07:40:17Z</time>
      </trkpt>
      <trkpt lat="44.12261" lon="7.22917">
        <ele>2408.803</ele>
        <time>2020-06-29T07:40:32Z</time>
      </trkpt>
      <trkpt lat="44.1228" lon="7.22908">
        <ele>2406.972</ele>
        <time>2020-06-29T07:40:48Z</time>
      </trkpt>
      <trkpt lat="44.12284" lon="7.22904">
        <ele>2406.703</ele>
        <time>2020-06-29T07:41:04Z</time>
      </trkpt>
      <trkpt lat="44.12296" lon="7.22896">
        <ele>2405.909</ele>
        <time>2020-06-29T07:41:19Z</time>
      </trkpt>
      <trkpt lat="44.12305" lon="7.22895">
        <ele>2404.721</ele>
        <time>2020-06-29T07:41:35Z</time>
      </trkpt>
      <trkpt lat="44.12317" lon="7.22894">
        <ele>2405.849</ele>
        <time>2020-06-29T07:41:51Z</time>
      </trkpt>
      <trkpt lat="44.12319" lon="7.2289">
        <ele>2407.833</ele>
        <time>2020-06-29T07:42:07Z</time>
      </trkpt>
      <trkpt lat="44.12327" lon="7.22892">
        <ele>2407.997</ele>
        <time>2020-06-29T07:42:23Z</time>
      </trkpt>
      <trkpt lat="44.1234" lon="7.2288">
        <ele>2408.281</ele>
        <time>2020-06-29T07:42:39Z</time>
      </trkpt>
      <trkpt lat="44.12355" lon="7.22871">
        <ele>2408.7</ele>
        <time>2020-06-29T07:42:55Z</time>
      </trkpt>
      <trkpt lat="44.12369" lon="7.22861">
        <ele>2408.279</ele>
        <time>2020-06-29T07:43:11Z</time>
      </trkpt>
      <trkpt lat="44.12381" lon="7.2286">
        <ele>2406.876</ele>
        <time>2020-06-29T07:43:27Z</time>
      </trkpt>
      <trkpt lat="44.12388" lon="7.22866">
        <ele>2405.563</ele>
        <time>2020-06-29T07:43:42Z</time>
      </trkpt>
      <trkpt lat="44.12411" lon="7.22874">
        <ele>2401.707</ele>
        <time>2020-06-29T07:43:58Z</time>
      </trkpt>
      <trkpt lat="44.12427" lon="7.22866">
        <ele>2398.927</ele>
        <time>2020-06-29T07:44:14Z</time>
      </trkpt>
      <trkpt lat="44.12444" lon="7.22853">
        <ele>2398.156</ele>
        <time>2020-06-29T07:44:29Z</time>
      </trkpt>
      <trkpt lat="44.12448" lon="7.22844">
        <ele>2397.525</ele>
        <time>2020-06-29T07:44:45Z</time>
      </trkpt>
      <trkpt lat="44.12462" lon="7.22841">
        <ele>2398.317</ele>
        <time>2020-06-29T07:45:01Z</time>
      </trkpt>
      <trkpt lat="44.12479" lon="7.22839">
        <ele>2395.52</ele>
        <time>2020-06-29T07:45:17Z</time>
      </trkpt>
      <trkpt lat="44.12489" lon="7.22835">
        <ele>2394.578</ele>
        <time>2020-06-29T07:45:33Z</time>
      </trkpt>
      <trkpt lat="44.12514" lon="7.22823">
        <ele>2395.518</ele>
        <time>2020-06-29T07:45:48Z</time>
      </trkpt>
      <trkpt lat="44.12527" lon="7.22823">
        <ele>2395.601</ele>
        <time>2020-06-29T07:46:03Z</time>
      </trkpt>
      <trkpt lat="44.12536" lon="7.22827">
        <ele>2394.118</ele>
        <time>2020-06-29T07:46:19Z</time>
      </trkpt>
      <trkpt lat="44.12542" lon="7.22828">
        <ele>2394.283</ele>
        <time>2020-06-29T07:46:35Z</time>
      </trkpt>
      <trkpt lat="44.12542" lon="7.22828">
        <ele>2394.283</ele>
        <time>2020-06-29T07:46:50Z</time>
      </trkpt>
      <trkpt lat="44.12542" lon="7.22828">
        <ele>2394.283</ele>
        <time>2020-06-29T07:47:05Z</time>
      </trkpt>
      <trkpt lat="44.12552" lon="7.22828">
        <ele>2392.837</ele>
        <time>2020-06-29T07:47:20Z</time>
      </trkpt>
      <trkpt lat="44.12552" lon="7.22828">
        <ele>2392.837</ele>
        <time>2020-06-29T07:47:35Z</time>
      </trkpt>
      <trkpt lat="44.12552" lon="7.22828">
        <ele>2392.837</ele>
        <time>2020-06-29T07:47:50Z</time>
      </trkpt>
      <trkpt lat="44.1256" lon="7.22829">
        <ele>2391.451</ele>
        <time>2020-06-29T07:48:06Z</time>
      </trkpt>
      <trkpt lat="44.12577" lon="7.22831">
        <ele>2388.495</ele>
        <time>2020-06-29T07:48:21Z</time>
      </trkpt>
      <trkpt lat="44.12583" lon="7.22833">
        <ele>2388.083</ele>
        <time>2020-06-29T07:48:37Z</time>
      </trkpt>
      <trkpt lat="44.12598" lon="7.22831">
        <ele>2386.205</ele>
        <time>2020-06-29T07:48:53Z</time>
      </trkpt>
      <trkpt lat="44.12612" lon="7.22832">
        <ele>2381.52</ele>
        <time>2020-06-29T07:49:08Z</time>
      </trkpt>
      <trkpt lat="44.12624" lon="7.22833">
        <ele>2380.419</ele>
        <time>2020-06-29T07:49:24Z</time>
      </trkpt>
      <trkpt lat="44.12623" lon="7.22833">
        <ele>2381.562</ele>
        <time>2020-06-29T07:49:39Z</time>
      </trkpt>
      <trkpt lat="44.12628" lon="7.22831">
        <ele>2381.277</ele>
        <time>2020-06-29T07:49:55Z</time>
      </trkpt>
      <trkpt lat="44.12632" lon="7.22831">
        <ele>2381.028</ele>
        <time>2020-06-29T07:50:11Z</time>
      </trkpt>
      <trkpt lat="44.12648" lon="7.22827">
        <ele>2377.495</ele>
        <time>2020-06-29T07:50:26Z</time>
      </trkpt>
      <trkpt lat="44.12652" lon="7.22827">
        <ele>2376.067</ele>
        <time>2020-06-29T07:50:42Z</time>
      </trkpt>
      <trkpt lat="44.12652" lon="7.22827">
        <ele>2376.067</ele>
        <time>2020-06-29T07:50:58Z</time>
      </trkpt>
      <trkpt lat="44.1267" lon="7.2283">
        <ele>2373.618</ele>
        <time>2020-06-29T07:51:13Z</time>
      </trkpt>
      <trkpt lat="44.12679" lon="7.22834">
        <ele>2371.86</ele>
        <time>2020-06-29T07:51:29Z</time>
      </trkpt>
      <trkpt lat="44.12688" lon="7.22836">
        <ele>2371.503</ele>
        <time>2020-06-29T07:51:44Z</time>
      </trkpt>
      <trkpt lat="44.127" lon="7.22839">
        <ele>2370.002</ele>
        <time>2020-06-29T07:52:00Z</time>
      </trkpt>
      <trkpt lat="44.12711" lon="7.22843">
        <ele>2367.933</ele>
        <time>2020-06-29T07:52:16Z</time>
      </trkpt>
      <trkpt lat="44.12719" lon="7.22851">
        <ele>2366.11</ele>
        <time>2020-06-29T07:52:31Z</time>
      </trkpt>
      <trkpt lat="44.12735" lon="7.22866">
        <ele>2361.741</ele>
        <time>2020-06-29T07:52:47Z</time>
      </trkpt>
      <trkpt lat="44.12739" lon="7.22867">
        <ele>2359.47</ele>
        <time>2020-06-29T07:53:02Z</time>
      </trkpt>
      <trkpt lat="44.12746" lon="7.22866">
        <ele>2357.934</ele>
        <time>2020-06-29T07:53:18Z</time>
      </trkpt>
      <trkpt lat="44.1276" lon="7.22868">
        <ele>2359.701</ele>
        <time>2020-06-29T07:53:34Z</time>
      </trkpt>
      <trkpt lat="44.12772" lon="7.22874">
        <ele>2358.785</ele>
        <time>2020-06-29T07:53:49Z</time>
      </trkpt>
      <trkpt lat="44.1278" lon="7.22879">
        <ele>2357.71</ele>
        <time>2020-06-29T07:54:05Z</time>
      </trkpt>
      <trkpt lat="44.12787" lon="7.22895">
        <ele>2357.847</ele>
        <time>2020-06-29T07:54:20Z</time>
      </trkpt>
      <trkpt lat="44.12792" lon="7.22902">
        <ele>2356.847</ele>
        <time>2020-06-29T07:54:36Z</time>
      </trkpt>
      <trkpt lat="44.12797" lon="7.22907">
        <ele>2356.395</ele>
        <time>2020-06-29T07:54:52Z</time>
      </trkpt>
      <trkpt lat="44.12807" lon="7.22918">
        <ele>2354.024</ele>
        <time>2020-06-29T07:55:07Z</time>
      </trkpt>
      <trkpt lat="44.12807" lon="7.22918">
        <ele>2354.024</ele>
        <time>2020-06-29T07:55:23Z</time>
      </trkpt>
      <trkpt lat="44.12807" lon="7.22918">
        <ele>2354.024</ele>
        <time>2020-06-29T07:55:39Z</time>
      </trkpt>
      <trkpt lat="44.12807" lon="7.22918">
        <ele>2354.024</ele>
        <time>2020-06-29T07:55:55Z</time>
      </trkpt>
      <trkpt lat="44.12807" lon="7.22918">
        <ele>2354.024</ele>
        <time>2020-06-29T07:56:11Z</time>
      </trkpt>
      <trkpt lat="44.12807" lon="7.22935">
        <ele>2351.538</ele>
        <time>2020-06-29T07:56:26Z</time>
      </trkpt>
      <trkpt lat="44.12815" lon="7.22941">
        <ele>2351.62</ele>
        <time>2020-06-29T07:56:42Z</time>
      </trkpt>
      <trkpt lat="44.12819" lon="7.22953">
        <ele>2349.47</ele>
        <time>2020-06-29T07:56:57Z</time>
      </trkpt>
      <trkpt lat="44.12824" lon="7.22953">
        <ele>2348.477</ele>
        <time>2020-06-29T07:57:12Z</time>
      </trkpt>
      <trkpt lat="44.12828" lon="7.22952">
        <ele>2346.824</ele>
        <time>2020-06-29T07:57:28Z</time>
      </trkpt>
      <trkpt lat="44.12836" lon="7.22968">
        <ele>2343.717</ele>
        <time>2020-06-29T07:57:43Z</time>
      </trkpt>
      <trkpt lat="44.1284" lon="7.22985">
        <ele>2341.322</ele>
        <time>2020-06-29T07:57:58Z</time>
      </trkpt>
      <trkpt lat="44.12831" lon="7.22998">
        <ele>2338.285</ele>
        <time>2020-06-29T07:58:14Z</time>
      </trkpt>
      <trkpt lat="44.12824" lon="7.23011">
        <ele>2340.512</ele>
        <time>2020-06-29T07:58:29Z</time>
      </trkpt>
      <trkpt lat="44.12815" lon="7.23016">
        <ele>2339.932</ele>
        <time>2020-06-29T07:58:45Z</time>
      </trkpt>
      <trkpt lat="44.12817" lon="7.23018">
        <ele>2339.312</ele>
        <time>2020-06-29T07:59:01Z</time>
      </trkpt>
      <trkpt lat="44.12826" lon="7.23014">
        <ele>2337.6</ele>
        <time>2020-06-29T07:59:16Z</time>
      </trkpt>
      <trkpt lat="44.12836" lon="7.23018">
        <ele>2338.256</ele>
        <time>2020-06-29T07:59:32Z</time>
      </trkpt>
      <trkpt lat="44.1284" lon="7.2302">
        <ele>2336.738</ele>
        <time>2020-06-29T07:59:48Z</time>
      </trkpt>
      <trkpt lat="44.12842" lon="7.2302">
        <ele>2336.424</ele>
        <time>2020-06-29T08:00:03Z</time>
      </trkpt>
      <trkpt lat="44.12848" lon="7.23029">
        <ele>2328.811</ele>
        <time>2020-06-29T08:00:19Z</time>
      </trkpt>
      <trkpt lat="44.12865" lon="7.23033">
        <ele>2323.156</ele>
        <time>2020-06-29T08:00:34Z</time>
      </trkpt>
      <trkpt lat="44.12867" lon="7.23034">
        <ele>2322.718</ele>
        <time>2020-06-29T08:00:49Z</time>
      </trkpt>
      <trkpt lat="44.12867" lon="7.23034">
        <ele>2322.718</ele>
        <time>2020-06-29T08:01:05Z</time>
      </trkpt>
      <trkpt lat="44.12868" lon="7.23042">
        <ele>2321.723</ele>
        <time>2020-06-29T08:01:21Z</time>
      </trkpt>
      <trkpt lat="44.12876" lon="7.23051">
        <ele>2319.402</ele>
        <time>2020-06-29T08:01:37Z</time>
      </trkpt>
      <trkpt lat="44.12873" lon="7.23066">
        <ele>2316.476</ele>
        <time>2020-06-29T08:01:52Z</time>
      </trkpt>
      <trkpt lat="44.12873" lon="7.23084">
        <ele>2317.926</ele>
        <time>2020-06-29T08:02:08Z</time>
      </trkpt>
      <trkpt lat="44.12874" lon="7.23085">
        <ele>2318.202</ele>
        <time>2020-06-29T08:02:23Z</time>
      </trkpt>
      <trkpt lat="44.12874" lon="7.23085">
        <ele>2318.202</ele>
        <time>2020-06-29T08:02:39Z</time>
      </trkpt>
      <trkpt lat="44.12874" lon="7.23085">
        <ele>2318.202</ele>
        <time>2020-06-29T08:02:55Z</time>
      </trkpt>
      <trkpt lat="44.12874" lon="7.23085">
        <ele>2318.202</ele>
        <time>2020-06-29T08:03:11Z</time>
      </trkpt>
      <trkpt lat="44.12874" lon="7.23085">
        <ele>2318.202</ele>
        <time>2020-06-29T08:03:27Z</time>
      </trkpt>
      <trkpt lat="44.12874" lon="7.23085">
        <ele>2318.202</ele>
        <time>2020-06-29T08:03:43Z</time>
      </trkpt>
      <trkpt lat="44.12874" lon="7.23085">
        <ele>2318.202</ele>
        <time>2020-06-29T08:03:58Z</time>
      </trkpt>
      <trkpt lat="44.12874" lon="7.23085">
        <ele>2318.202</ele>
        <time>2020-06-29T08:04:14Z</time>
      </trkpt>
      <trkpt lat="44.12876" lon="7.23087">
        <ele>2318.102</ele>
        <time>2020-06-29T08:04:29Z</time>
      </trkpt>
      <trkpt lat="44.12876" lon="7.23105">
        <ele>2317.802</ele>
        <time>2020-06-29T08:04:45Z</time>
      </trkpt>
      <trkpt lat="44.12883" lon="7.23105">
        <ele>2317.417</ele>
        <time>2020-06-29T08:05:00Z</time>
      </trkpt>
      <trkpt lat="44.12889" lon="7.23106">
        <ele>2316.699</ele>
        <time>2020-06-29T08:05:16Z</time>
      </trkpt>
      <trkpt lat="44.12904" lon="7.23105">
        <ele>2313.041</ele>
        <time>2020-06-29T08:05:31Z</time>
      </trkpt>
      <trkpt lat="44.12912" lon="7.23096">
        <ele>2310.077</ele>
        <time>2020-06-29T08:05:47Z</time>
      </trkpt>
      <trkpt lat="44.12918" lon="7.23109">
        <ele>2309.08</ele>
        <time>2020-06-29T08:06:03Z</time>
      </trkpt>
      <trkpt lat="44.12921" lon="7.23114">
        <ele>2305.855</ele>
        <time>2020-06-29T08:06:18Z</time>
      </trkpt>
      <trkpt lat="44.12919" lon="7.23116">
        <ele>2305.946</ele>
        <time>2020-06-29T08:06:34Z</time>
      </trkpt>
      <trkpt lat="44.1292" lon="7.23116">
        <ele>2305.844</ele>
        <time>2020-06-29T08:06:49Z</time>
      </trkpt>
      <trkpt lat="44.12922" lon="7.23114">
        <ele>2305.943</ele>
        <time>2020-06-29T08:07:05Z</time>
      </trkpt>
      <trkpt lat="44.12933" lon="7.23114">
        <ele>2302.214</ele>
        <time>2020-06-29T08:07:21Z</time>
      </trkpt>
      <trkpt lat="44.1294" lon="7.23118">
        <ele>2299.228</ele>
        <time>2020-06-29T08:07:37Z</time>
      </trkpt>
      <trkpt lat="44.12946" lon="7.23113">
        <ele>2294.812</ele>
        <time>2020-06-29T08:07:52Z</time>
      </trkpt>
      <trkpt lat="44.12952" lon="7.23127">
        <ele>2293.205</ele>
        <time>2020-06-29T08:08:08Z</time>
      </trkpt>
      <trkpt lat="44.12959" lon="7.23132">
        <ele>2293.592</ele>
        <time>2020-06-29T08:08:23Z</time>
      </trkpt>
      <trkpt lat="44.12957" lon="7.23133">
        <ele>2293.652</ele>
        <time>2020-06-29T08:08:39Z</time>
      </trkpt>
      <trkpt lat="44.12957" lon="7.23133">
        <ele>2293.652</ele>
        <time>2020-06-29T08:08:55Z</time>
      </trkpt>
      <trkpt lat="44.12967" lon="7.23134">
        <ele>2289.603</ele>
        <time>2020-06-29T08:09:10Z</time>
      </trkpt>
      <trkpt lat="44.1297" lon="7.23136">
        <ele>2288.298</ele>
        <time>2020-06-29T08:09:26Z</time>
      </trkpt>
      <trkpt lat="44.12977" lon="7.23138">
        <ele>2286.73</ele>
        <time>2020-06-29T08:09:41Z</time>
      </trkpt>
      <trkpt lat="44.12993" lon="7.23141">
        <ele>2283.18</ele>
        <time>2020-06-29T08:09:57Z</time>
      </trkpt>
      <trkpt lat="44.13002" lon="7.23143">
        <ele>2282.762</ele>
        <time>2020-06-29T08:10:13Z</time>
      </trkpt>
      <trkpt lat="44.12999" lon="7.23163">
        <ele>2278.885</ele>
        <time>2020-06-29T08:10:29Z</time>
      </trkpt>
      <trkpt lat="44.13002" lon="7.23167">
        <ele>2277.372</ele>
        <time>2020-06-29T08:10:44Z</time>
      </trkpt>
      <trkpt lat="44.1302" lon="7.2318">
        <ele>2277.616</ele>
        <time>2020-06-29T08:11:00Z</time>
      </trkpt>
      <trkpt lat="44.13032" lon="7.23194">
        <ele>2275.772</ele>
        <time>2020-06-29T08:11:16Z</time>
      </trkpt>
      <trkpt lat="44.13048" lon="7.23198">
        <ele>2272.668</ele>
        <time>2020-06-29T08:11:32Z</time>
      </trkpt>
      <trkpt lat="44.13065" lon="7.23205">
        <ele>2270.379</ele>
        <time>2020-06-29T08:11:48Z</time>
      </trkpt>
      <trkpt lat="44.13074" lon="7.23208">
        <ele>2269.752</ele>
        <time>2020-06-29T08:12:03Z</time>
      </trkpt>
      <trkpt lat="44.13077" lon="7.2321">
        <ele>2268.74</ele>
        <time>2020-06-29T08:12:18Z</time>
      </trkpt>
      <trkpt lat="44.13077" lon="7.2321">
        <ele>2268.74</ele>
        <time>2020-06-29T08:12:33Z</time>
      </trkpt>
      <trkpt lat="44.13076" lon="7.23208">
        <ele>2269.472</ele>
        <time>2020-06-29T08:12:49Z</time>
      </trkpt>
      <trkpt lat="44.13081" lon="7.23201">
        <ele>2269.066</ele>
        <time>2020-06-29T08:13:05Z</time>
      </trkpt>
      <trkpt lat="44.13086" lon="7.23192">
        <ele>2267.704</ele>
        <time>2020-06-29T08:13:20Z</time>
      </trkpt>
      <trkpt lat="44.13087" lon="7.2318">
        <ele>2268.122</ele>
        <time>2020-06-29T08:13:35Z</time>
      </trkpt>
      <trkpt lat="44.13093" lon="7.23181">
        <ele>2265.226</ele>
        <time>2020-06-29T08:13:51Z</time>
      </trkpt>
      <trkpt lat="44.13101" lon="7.23181">
        <ele>2264.354</ele>
        <time>2020-06-29T08:14:07Z</time>
      </trkpt>
      <trkpt lat="44.13111" lon="7.23177">
        <ele>2264.262</ele>
        <time>2020-06-29T08:14:22Z</time>
      </trkpt>
      <trkpt lat="44.13121" lon="7.23183">
        <ele>2258.115</ele>
        <time>2020-06-29T08:14:38Z</time>
      </trkpt>
      <trkpt lat="44.13123" lon="7.23173">
        <ele>2258.024</ele>
        <time>2020-06-29T08:14:53Z</time>
      </trkpt>
      <trkpt lat="44.13124" lon="7.23171">
        <ele>2256.995</ele>
        <time>2020-06-29T08:15:09Z</time>
      </trkpt>
      <trkpt lat="44.13135" lon="7.2316">
        <ele>2255.685</ele>
        <time>2020-06-29T08:15:24Z</time>
      </trkpt>
      <trkpt lat="44.1314" lon="7.2315">
        <ele>2253.19</ele>
        <time>2020-06-29T08:15:39Z</time>
      </trkpt>
      <trkpt lat="44.13144" lon="7.2315">
        <ele>2249.957</ele>
        <time>2020-06-29T08:15:55Z</time>
      </trkpt>
      <trkpt lat="44.13159" lon="7.23132">
        <ele>2244.473</ele>
        <time>2020-06-29T08:16:11Z</time>
      </trkpt>
      <trkpt lat="44.13173" lon="7.23127">
        <ele>2241.653</ele>
        <time>2020-06-29T08:16:26Z</time>
      </trkpt>
      <trkpt lat="44.13187" lon="7.2313">
        <ele>2237.402</ele>
        <time>2020-06-29T08:16:42Z</time>
      </trkpt>
      <trkpt lat="44.13195" lon="7.23134">
        <ele>2237.108</ele>
        <time>2020-06-29T08:16:58Z</time>
      </trkpt>
      <trkpt lat="44.13197" lon="7.23136">
        <ele>2237.176</ele>
        <time>2020-06-29T08:17:14Z</time>
      </trkpt>
      <trkpt lat="44.13214" lon="7.23143">
        <ele>2234.831</ele>
        <time>2020-06-29T08:17:29Z</time>
      </trkpt>
      <trkpt lat="44.13231" lon="7.23148">
        <ele>2232.039</ele>
        <time>2020-06-29T08:17:45Z</time>
      </trkpt>
      <trkpt lat="44.13244" lon="7.2315">
        <ele>2234.372</ele>
        <time>2020-06-29T08:18:00Z</time>
      </trkpt>
      <trkpt lat="44.13253" lon="7.23145">
        <ele>2232.26</ele>
        <time>2020-06-29T08:18:16Z</time>
      </trkpt>
      <trkpt lat="44.13253" lon="7.23146">
        <ele>2232.895</ele>
        <time>2020-06-29T08:18:32Z</time>
      </trkpt>
      <trkpt lat="44.13253" lon="7.23146">
        <ele>2232.895</ele>
        <time>2020-06-29T08:18:47Z</time>
      </trkpt>
      <trkpt lat="44.13264" lon="7.23145">
        <ele>2233.477</ele>
        <time>2020-06-29T08:19:03Z</time>
      </trkpt>
      <trkpt lat="44.1328" lon="7.2314">
        <ele>2233.526</ele>
        <time>2020-06-29T08:19:18Z</time>
      </trkpt>
      <trkpt lat="44.13297" lon="7.2314">
        <ele>2232.737</ele>
        <time>2020-06-29T08:19:34Z</time>
      </trkpt>
      <trkpt lat="44.13315" lon="7.23142">
        <ele>2235.036</ele>
        <time>2020-06-29T08:19:49Z</time>
      </trkpt>
      <trkpt lat="44.13326" lon="7.23137">
        <ele>2235.107</ele>
        <time>2020-06-29T08:20:04Z</time>
      </trkpt>
      <trkpt lat="44.13336" lon="7.23135">
        <ele>2234.663</ele>
        <time>2020-06-29T08:20:19Z</time>
      </trkpt>
      <trkpt lat="44.13351" lon="7.23133">
        <ele>2232.805</ele>
        <time>2020-06-29T08:20:35Z</time>
      </trkpt>
      <trkpt lat="44.1336" lon="7.23117">
        <ele>2231.556</ele>
        <time>2020-06-29T08:20:51Z</time>
      </trkpt>
      <trkpt lat="44.13363" lon="7.23119">
        <ele>2230.841</ele>
        <time>2020-06-29T08:21:06Z</time>
      </trkpt>
      <trkpt lat="44.13363" lon="7.23119">
        <ele>2230.841</ele>
        <time>2020-06-29T08:21:22Z</time>
      </trkpt>
      <trkpt lat="44.13363" lon="7.23118">
        <ele>2229.111</ele>
        <time>2020-06-29T08:21:37Z</time>
      </trkpt>
      <trkpt lat="44.13365" lon="7.23115">
        <ele>2230.322</ele>
        <time>2020-06-29T08:21:53Z</time>
      </trkpt>
      <trkpt lat="44.13372" lon="7.23105">
        <ele>2229.976</ele>
        <time>2020-06-29T08:22:08Z</time>
      </trkpt>
      <trkpt lat="44.13388" lon="7.23093">
        <ele>2227.917</ele>
        <time>2020-06-29T08:22:24Z</time>
      </trkpt>
      <trkpt lat="44.13403" lon="7.23082">
        <ele>2224.469</ele>
        <time>2020-06-29T08:22:40Z</time>
      </trkpt>
      <trkpt lat="44.13418" lon="7.23071">
        <ele>2221.229</ele>
        <time>2020-06-29T08:22:56Z</time>
      </trkpt>
      <trkpt lat="44.1343" lon="7.23063">
        <ele>2218.627</ele>
        <time>2020-06-29T08:23:11Z</time>
      </trkpt>
      <trkpt lat="44.13445" lon="7.23056">
        <ele>2216.929</ele>
        <time>2020-06-29T08:23:27Z</time>
      </trkpt>
      <trkpt lat="44.13456" lon="7.23045">
        <ele>2214.683</ele>
        <time>2020-06-29T08:23:43Z</time>
      </trkpt>
      <trkpt lat="44.13467" lon="7.23043">
        <ele>2212.663</ele>
        <time>2020-06-29T08:23:58Z</time>
      </trkpt>
      <trkpt lat="44.13476" lon="7.23043">
        <ele>2208.491</ele>
        <time>2020-06-29T08:24:14Z</time>
      </trkpt>
      <trkpt lat="44.1349" lon="7.23033">
        <ele>2208.135</ele>
        <time>2020-06-29T08:24:30Z</time>
      </trkpt>
      <trkpt lat="44.13504" lon="7.23024">
        <ele>2205.724</ele>
        <time>2020-06-29T08:24:45Z</time>
      </trkpt>
      <trkpt lat="44.13517" lon="7.23013">
        <ele>2202.358</ele>
        <time>2020-06-29T08:25:01Z</time>
      </trkpt>
      <trkpt lat="44.13524" lon="7.23004">
        <ele>2200.688</ele>
        <time>2020-06-29T08:25:17Z</time>
      </trkpt>
      <trkpt lat="44.13529" lon="7.22996">
        <ele>2199.928</ele>
        <time>2020-06-29T08:25:32Z</time>
      </trkpt>
      <trkpt lat="44.13545" lon="7.22994">
        <ele>2198.999</ele>
        <time>2020-06-29T08:25:47Z</time>
      </trkpt>
      <trkpt lat="44.13553" lon="7.2299">
        <ele>2198.322</ele>
        <time>2020-06-29T08:26:03Z</time>
      </trkpt>
      <trkpt lat="44.13562" lon="7.22986">
        <ele>2198.505</ele>
        <time>2020-06-29T08:26:19Z</time>
      </trkpt>
      <trkpt lat="44.13574" lon="7.22992">
        <ele>2194.79</ele>
        <time>2020-06-29T08:26:35Z</time>
      </trkpt>
      <trkpt lat="44.13586" lon="7.22997">
        <ele>2189.15</ele>
        <time>2020-06-29T08:26:51Z</time>
      </trkpt>
      <trkpt lat="44.13591" lon="7.23002">
        <ele>2187.93</ele>
        <time>2020-06-29T08:27:06Z</time>
      </trkpt>
      <trkpt lat="44.13594" lon="7.23">
        <ele>2187.639</ele>
        <time>2020-06-29T08:27:22Z</time>
      </trkpt>
      <trkpt lat="44.13594" lon="7.22999">
        <ele>2187.326</ele>
        <time>2020-06-29T08:27:38Z</time>
      </trkpt>
      <trkpt lat="44.13596" lon="7.23001">
        <ele>2187.206</ele>
        <time>2020-06-29T08:27:53Z</time>
      </trkpt>
      <trkpt lat="44.13604" lon="7.23003">
        <ele>2186.615</ele>
        <time>2020-06-29T08:28:08Z</time>
      </trkpt>
      <trkpt lat="44.13604" lon="7.23001">
        <ele>2185.573</ele>
        <time>2020-06-29T08:28:24Z</time>
      </trkpt>
      <trkpt lat="44.136" lon="7.23">
        <ele>2185.098</ele>
        <time>2020-06-29T08:28:39Z</time>
      </trkpt>
      <trkpt lat="44.13605" lon="7.22998">
        <ele>2184.337</ele>
        <time>2020-06-29T08:28:55Z</time>
      </trkpt>
      <trkpt lat="44.13616" lon="7.23002">
        <ele>2183.933</ele>
        <time>2020-06-29T08:29:11Z</time>
      </trkpt>
      <trkpt lat="44.13635" lon="7.23012">
        <ele>2182.177</ele>
        <time>2020-06-29T08:29:27Z</time>
      </trkpt>
      <trkpt lat="44.1365" lon="7.23021">
        <ele>2178.056</ele>
        <time>2020-06-29T08:29:42Z</time>
      </trkpt>
      <trkpt lat="44.13661" lon="7.23031">
        <ele>2175.031</ele>
        <time>2020-06-29T08:29:57Z</time>
      </trkpt>
      <trkpt lat="44.13669" lon="7.23043">
        <ele>2173.622</ele>
        <time>2020-06-29T08:30:13Z</time>
      </trkpt>
      <trkpt lat="44.13677" lon="7.23052">
        <ele>2169.201</ele>
        <time>2020-06-29T08:30:29Z</time>
      </trkpt>
      <trkpt lat="44.13682" lon="7.23058">
        <ele>2164.102</ele>
        <time>2020-06-29T08:30:45Z</time>
      </trkpt>
      <trkpt lat="44.13682" lon="7.23058">
        <ele>2164.102</ele>
        <time>2020-06-29T08:31:01Z</time>
      </trkpt>
      <trkpt lat="44.13687" lon="7.23057">
        <ele>2163.413</ele>
        <time>2020-06-29T08:31:17Z</time>
      </trkpt>
      <trkpt lat="44.13697" lon="7.23055">
        <ele>2163.065</ele>
        <time>2020-06-29T08:31:33Z</time>
      </trkpt>
      <trkpt lat="44.13706" lon="7.23056">
        <ele>2161.173</ele>
        <time>2020-06-29T08:31:49Z</time>
      </trkpt>
      <trkpt lat="44.13703" lon="7.23071">
        <ele>2153.929</ele>
        <time>2020-06-29T08:32:04Z</time>
      </trkpt>
      <trkpt lat="44.13705" lon="7.23081">
        <ele>2155.654</ele>
        <time>2020-06-29T08:32:20Z</time>
      </trkpt>
      <trkpt lat="44.13718" lon="7.23073">
        <ele>2151.952</ele>
        <time>2020-06-29T08:32:36Z</time>
      </trkpt>
      <trkpt lat="44.13725" lon="7.23079">
        <ele>2147.82</ele>
        <time>2020-06-29T08:32:52Z</time>
      </trkpt>
      <trkpt lat="44.13718" lon="7.23089">
        <ele>2144.17</ele>
        <time>2020-06-29T08:33:07Z</time>
      </trkpt>
      <trkpt lat="44.13715" lon="7.23098">
        <ele>2143.394</ele>
        <time>2020-06-29T08:33:23Z</time>
      </trkpt>
      <trkpt lat="44.13708" lon="7.23107">
        <ele>2142.174</ele>
        <time>2020-06-29T08:33:38Z</time>
      </trkpt>
      <trkpt lat="44.13699" lon="7.23121">
        <ele>2137.844</ele>
        <time>2020-06-29T08:33:54Z</time>
      </trkpt>
      <trkpt lat="44.13686" lon="7.23134">
        <ele>2135.913</ele>
        <time>2020-06-29T08:34:10Z</time>
      </trkpt>
      <trkpt lat="44.13689" lon="7.23153">
        <ele>2134.027</ele>
        <time>2020-06-29T08:34:26Z</time>
      </trkpt>
      <trkpt lat="44.13698" lon="7.23167">
        <ele>2129.659</ele>
        <time>2020-06-29T08:34:42Z</time>
      </trkpt>
      <trkpt lat="44.13704" lon="7.23183">
        <ele>2126.715</ele>
        <time>2020-06-29T08:34:58Z</time>
      </trkpt>
      <trkpt lat="44.13712" lon="7.23207">
        <ele>2123.585</ele>
        <time>2020-06-29T08:35:13Z</time>
      </trkpt>
      <trkpt lat="44.13719" lon="7.23224">
        <ele>2120.327</ele>
        <time>2020-06-29T08:35:28Z</time>
      </trkpt>
      <trkpt lat="44.13729" lon="7.23243">
        <ele>2117.355</ele>
        <time>2020-06-29T08:35:44Z</time>
      </trkpt>
      <trkpt lat="44.13738" lon="7.23256">
        <ele>2117.505</ele>
        <time>2020-06-29T08:35:59Z</time>
      </trkpt>
      <trkpt lat="44.13735" lon="7.23264">
        <ele>2118.612</ele>
        <time>2020-06-29T08:36:15Z</time>
      </trkpt>
      <trkpt lat="44.1374" lon="7.23272">
        <ele>2116.144</ele>
        <time>2020-06-29T08:36:30Z</time>
      </trkpt>
      <trkpt lat="44.13741" lon="7.23273">
        <ele>2115.814</ele>
        <time>2020-06-29T08:36:46Z</time>
      </trkpt>
      <trkpt lat="44.13741" lon="7.23273">
        <ele>2115.814</ele>
        <time>2020-06-29T08:37:02Z</time>
      </trkpt>
      <trkpt lat="44.13741" lon="7.23273">
        <ele>2115.814</ele>
        <time>2020-06-29T08:37:17Z</time>
      </trkpt>
      <trkpt lat="44.13745" lon="7.23282">
        <ele>2116.59</ele>
        <time>2020-06-29T08:37:33Z</time>
      </trkpt>
      <trkpt lat="44.13747" lon="7.23289">
        <ele>2114.223</ele>
        <time>2020-06-29T08:37:48Z</time>
      </trkpt>
      <trkpt lat="44.13757" lon="7.23319">
        <ele>2103.249</ele>
        <time>2020-06-29T08:38:03Z</time>
      </trkpt>
      <trkpt lat="44.13762" lon="7.23347">
        <ele>2097.531</ele>
        <time>2020-06-29T08:38:19Z</time>
      </trkpt>
      <trkpt lat="44.13765" lon="7.23366">
        <ele>2092.269</ele>
        <time>2020-06-29T08:38:34Z</time>
      </trkpt>
      <trkpt lat="44.13768" lon="7.23386">
        <ele>2090.709</ele>
        <time>2020-06-29T08:38:50Z</time>
      </trkpt>
      <trkpt lat="44.13763" lon="7.23407">
        <ele>2092.503</ele>
        <time>2020-06-29T08:39:05Z</time>
      </trkpt>
      <trkpt lat="44.13766" lon="7.23423">
        <ele>2091.092</ele>
        <time>2020-06-29T08:39:20Z</time>
      </trkpt>
      <trkpt lat="44.1377" lon="7.23444">
        <ele>2093.418</ele>
        <time>2020-06-29T08:39:36Z</time>
      </trkpt>
      <trkpt lat="44.13773" lon="7.23466">
        <ele>2086.218</ele>
        <time>2020-06-29T08:39:52Z</time>
      </trkpt>
      <trkpt lat="44.13782" lon="7.23481">
        <ele>2083.167</ele>
        <time>2020-06-29T08:40:07Z</time>
      </trkpt>
      <trkpt lat="44.13785" lon="7.23497">
        <ele>2082.228</ele>
        <time>2020-06-29T08:40:23Z</time>
      </trkpt>
      <trkpt lat="44.13776" lon="7.23533">
        <ele>2081.332</ele>
        <time>2020-06-29T08:40:39Z</time>
      </trkpt>
      <trkpt lat="44.13768" lon="7.23555">
        <ele>2083.35</ele>
        <time>2020-06-29T08:40:54Z</time>
      </trkpt>
      <trkpt lat="44.13761" lon="7.23561">
        <ele>2085.248</ele>
        <time>2020-06-29T08:41:10Z</time>
      </trkpt>
      <trkpt lat="44.13772" lon="7.23564">
        <ele>2080.082</ele>
        <time>2020-06-29T08:41:25Z</time>
      </trkpt>
      <trkpt lat="44.13772" lon="7.23564">
        <ele>2080.082</ele>
        <time>2020-06-29T08:41:41Z</time>
      </trkpt>
      <trkpt lat="44.13772" lon="7.23564">
        <ele>2080.082</ele>
        <time>2020-06-29T08:41:56Z</time>
      </trkpt>
      <trkpt lat="44.13782" lon="7.23569">
        <ele>2082.828</ele>
        <time>2020-06-29T08:42:11Z</time>
      </trkpt>
      <trkpt lat="44.13783" lon="7.23571">
        <ele>2082.426</ele>
        <time>2020-06-29T08:42:27Z</time>
      </trkpt>
      <trkpt lat="44.13783" lon="7.23571">
        <ele>2082.426</ele>
        <time>2020-06-29T08:42:42Z</time>
      </trkpt>
      <trkpt lat="44.1378" lon="7.23571">
        <ele>2085.019</ele>
        <time>2020-06-29T08:42:57Z</time>
      </trkpt>
      <trkpt lat="44.1378" lon="7.23575">
        <ele>2084.463</ele>
        <time>2020-06-29T08:43:13Z</time>
      </trkpt>
      <trkpt lat="44.1378" lon="7.23575">
        <ele>2084.463</ele>
        <time>2020-06-29T08:43:29Z</time>
      </trkpt>
      <trkpt lat="44.1378" lon="7.23575">
        <ele>2084.463</ele>
        <time>2020-06-29T08:43:45Z</time>
      </trkpt>
      <trkpt lat="44.1378" lon="7.23575">
        <ele>2084.463</ele>
        <time>2020-06-29T08:44:01Z</time>
      </trkpt>
      <trkpt lat="44.1378" lon="7.23575">
        <ele>2084.463</ele>
        <time>2020-06-29T08:44:17Z</time>
      </trkpt>
      <trkpt lat="44.1378" lon="7.23566">
        <ele>2081.13</ele>
        <time>2020-06-29T08:44:33Z</time>
      </trkpt>
      <trkpt lat="44.13782" lon="7.23562">
        <ele>2084.203</ele>
        <time>2020-06-29T08:44:49Z</time>
      </trkpt>
      <trkpt lat="44.13795" lon="7.23547">
        <ele>2086.701</ele>
        <time>2020-06-29T08:45:05Z</time>
      </trkpt>
      <trkpt lat="44.13804" lon="7.23535">
        <ele>2085.857</ele>
        <time>2020-06-29T08:45:21Z</time>
      </trkpt>
      <trkpt lat="44.13822" lon="7.23516">
        <ele>2081.373</ele>
        <time>2020-06-29T08:45:37Z</time>
      </trkpt>
      <trkpt lat="44.13834" lon="7.235">
        <ele>2076.118</ele>
        <time>2020-06-29T08:45:53Z</time>
      </trkpt>
      <trkpt lat="44.13841" lon="7.23482">
        <ele>2073.471</ele>
        <time>2020-06-29T08:46:08Z</time>
      </trkpt>
      <trkpt lat="44.13842" lon="7.23461">
        <ele>2069.881</ele>
        <time>2020-06-29T08:46:24Z</time>
      </trkpt>
      <trkpt lat="44.13853" lon="7.23441">
        <ele>2066.719</ele>
        <time>2020-06-29T08:46:40Z</time>
      </trkpt>
      <trkpt lat="44.13861" lon="7.23419">
        <ele>2067.933</ele>
        <time>2020-06-29T08:46:55Z</time>
      </trkpt>
      <trkpt lat="44.13867" lon="7.23394">
        <ele>2064.327</ele>
        <time>2020-06-29T08:47:11Z</time>
      </trkpt>
      <trkpt lat="44.13867" lon="7.23376">
        <ele>2063.08</ele>
        <time>2020-06-29T08:47:26Z</time>
      </trkpt>
      <trkpt lat="44.13873" lon="7.23353">
        <ele>2058.236</ele>
        <time>2020-06-29T08:47:41Z</time>
      </trkpt>
      <trkpt lat="44.13879" lon="7.23327">
        <ele>2052.232</ele>
        <time>2020-06-29T08:47:57Z</time>
      </trkpt>
      <trkpt lat="44.13879" lon="7.23302">
        <ele>2052.442</ele>
        <time>2020-06-29T08:48:12Z</time>
      </trkpt>
      <trkpt lat="44.13883" lon="7.23292">
        <ele>2053.022</ele>
        <time>2020-06-29T08:48:28Z</time>
      </trkpt>
      <trkpt lat="44.139" lon="7.23292">
        <ele>2053.201</ele>
        <time>2020-06-29T08:48:43Z</time>
      </trkpt>
      <trkpt lat="44.13915" lon="7.23286">
        <ele>2053.743</ele>
        <time>2020-06-29T08:48:59Z</time>
      </trkpt>
      <trkpt lat="44.13923" lon="7.23282">
        <ele>2052.389</ele>
        <time>2020-06-29T08:49:15Z</time>
      </trkpt>
      <trkpt lat="44.13936" lon="7.23265">
        <ele>2052.184</ele>
        <time>2020-06-29T08:49:31Z</time>
      </trkpt>
      <trkpt lat="44.13945" lon="7.23251">
        <ele>2054.845</ele>
        <time>2020-06-29T08:49:46Z</time>
      </trkpt>
      <trkpt lat="44.13958" lon="7.23239">
        <ele>2051.125</ele>
        <time>2020-06-29T08:50:02Z</time>
      </trkpt>
      <trkpt lat="44.13973" lon="7.23217">
        <ele>2048.906</ele>
        <time>2020-06-29T08:50:18Z</time>
      </trkpt>
      <trkpt lat="44.13989" lon="7.23206">
        <ele>2043.607</ele>
        <time>2020-06-29T08:50:34Z</time>
      </trkpt>
      <trkpt lat="44.1399" lon="7.23205">
        <ele>2043.04</ele>
        <time>2020-06-29T08:50:50Z</time>
      </trkpt>
      <trkpt lat="44.1399" lon="7.23205">
        <ele>2043.04</ele>
        <time>2020-06-29T08:51:05Z</time>
      </trkpt>
      <trkpt lat="44.1399" lon="7.23205">
        <ele>2043.04</ele>
        <time>2020-06-29T08:51:20Z</time>
      </trkpt>
      <trkpt lat="44.13993" lon="7.23199">
        <ele>2044.084</ele>
        <time>2020-06-29T08:51:36Z</time>
      </trkpt>
      <trkpt lat="44.14005" lon="7.23186">
        <ele>2040.447</ele>
        <time>2020-06-29T08:51:52Z</time>
      </trkpt>
      <trkpt lat="44.14021" lon="7.2316">
        <ele>2044.103</ele>
        <time>2020-06-29T08:52:08Z</time>
      </trkpt>
      <trkpt lat="44.14034" lon="7.23153">
        <ele>2046.601</ele>
        <time>2020-06-29T08:52:24Z</time>
      </trkpt>
      <trkpt lat="44.14049" lon="7.23136">
        <ele>2038.263</ele>
        <time>2020-06-29T08:52:39Z</time>
      </trkpt>
      <trkpt lat="44.14069" lon="7.2312">
        <ele>2036.219</ele>
        <time>2020-06-29T08:52:55Z</time>
      </trkpt>
      <trkpt lat="44.14085" lon="7.23107">
        <ele>2036.143</ele>
        <time>2020-06-29T08:53:11Z</time>
      </trkpt>
      <trkpt lat="44.14094" lon="7.23092">
        <ele>2029.168</ele>
        <time>2020-06-29T08:53:26Z</time>
      </trkpt>
      <trkpt lat="44.14106" lon="7.23076">
        <ele>2027.763</ele>
        <time>2020-06-29T08:53:42Z</time>
      </trkpt>
      <trkpt lat="44.14117" lon="7.23058">
        <ele>2025.751</ele>
        <time>2020-06-29T08:53:57Z</time>
      </trkpt>
      <trkpt lat="44.14128" lon="7.23041">
        <ele>2016.167</ele>
        <time>2020-06-29T08:54:13Z</time>
      </trkpt>
      <trkpt lat="44.1413" lon="7.23019">
        <ele>2014.581</ele>
        <time>2020-06-29T08:54:29Z</time>
      </trkpt>
      <trkpt lat="44.1413" lon="7.2301">
        <ele>2011.257</ele>
        <time>2020-06-29T08:54:45Z</time>
      </trkpt>
      <trkpt lat="44.1413" lon="7.23009">
        <ele>2011.412</ele>
        <time>2020-06-29T08:55:01Z</time>
      </trkpt>
      <trkpt lat="44.14126" lon="7.22993">
        <ele>2010.248</ele>
        <time>2020-06-29T08:55:17Z</time>
      </trkpt>
      <trkpt lat="44.14118" lon="7.22972">
        <ele>2005.723</ele>
        <time>2020-06-29T08:55:32Z</time>
      </trkpt>
      <trkpt lat="44.14116" lon="7.22964">
        <ele>2006.706</ele>
        <time>2020-06-29T08:55:47Z</time>
      </trkpt>
      <trkpt lat="44.14116" lon="7.22964">
        <ele>2006.706</ele>
        <time>2020-06-29T08:56:03Z</time>
      </trkpt>
      <trkpt lat="44.14114" lon="7.2296">
        <ele>2005.746</ele>
        <time>2020-06-29T08:56:19Z</time>
      </trkpt>
      <trkpt lat="44.14115" lon="7.22958">
        <ele>2005.451</ele>
        <time>2020-06-29T08:56:35Z</time>
      </trkpt>
      <trkpt lat="44.14115" lon="7.22955">
        <ele>2005.735</ele>
        <time>2020-06-29T08:56:50Z</time>
      </trkpt>
      <trkpt lat="44.14115" lon="7.22949">
        <ele>2005.712</ele>
        <time>2020-06-29T08:57:06Z</time>
      </trkpt>
      <trkpt lat="44.14113" lon="7.22925">
        <ele>2002.717</ele>
        <time>2020-06-29T08:57:22Z</time>
      </trkpt>
      <trkpt lat="44.14101" lon="7.22922">
        <ele>2006.626</ele>
        <time>2020-06-29T08:57:38Z</time>
      </trkpt>
      <trkpt lat="44.14092" lon="7.22904">
        <ele>2015.502</ele>
        <time>2020-06-29T08:57:53Z</time>
      </trkpt>
      <trkpt lat="44.14085" lon="7.22877">
        <ele>2012.97</ele>
        <time>2020-06-29T08:58:09Z</time>
      </trkpt>
      <trkpt lat="44.14077" lon="7.2285">
        <ele>2009.337</ele>
        <time>2020-06-29T08:58:25Z</time>
      </trkpt>
      <trkpt lat="44.14066" lon="7.22827">
        <ele>2007.491</ele>
        <time>2020-06-29T08:58:41Z</time>
      </trkpt>
      <trkpt lat="44.14058" lon="7.22806">
        <ele>2012.956</ele>
        <time>2020-06-29T08:58:57Z</time>
      </trkpt>
      <trkpt lat="44.14053" lon="7.22779">
        <ele>2014.054</ele>
        <time>2020-06-29T08:59:13Z</time>
      </trkpt>
      <trkpt lat="44.1406" lon="7.22746">
        <ele>2008.884</ele>
        <time>2020-06-29T08:59:28Z</time>
      </trkpt>
      <trkpt lat="44.14064" lon="7.22716">
        <ele>2003.268</ele>
        <time>2020-06-29T08:59:44Z</time>
      </trkpt>
      <trkpt lat="44.14068" lon="7.22692">
        <ele>2000.189</ele>
        <time>2020-06-29T09:00:00Z</time>
      </trkpt>
      <trkpt lat="44.14064" lon="7.22663">
        <ele>1995.964</ele>
        <time>2020-06-29T09:00:16Z</time>
      </trkpt>
      <trkpt lat="44.14063" lon="7.22642">
        <ele>1996.57</ele>
        <time>2020-06-29T09:00:32Z</time>
      </trkpt>
      <trkpt lat="44.14063" lon="7.22615">
        <ele>1996.963</ele>
        <time>2020-06-29T09:00:48Z</time>
      </trkpt>
      <trkpt lat="44.14067" lon="7.22585">
        <ele>1992.148</ele>
        <time>2020-06-29T09:01:04Z</time>
      </trkpt>
      <trkpt lat="44.14068" lon="7.22557">
        <ele>1973.495</ele>
        <time>2020-06-29T09:01:20Z</time>
      </trkpt>
      <trkpt lat="44.14069" lon="7.22539">
        <ele>1971.488</ele>
        <time>2020-06-29T09:01:35Z</time>
      </trkpt>
      <trkpt lat="44.14078" lon="7.22525">
        <ele>1972.468</ele>
        <time>2020-06-29T09:01:51Z</time>
      </trkpt>
      <trkpt lat="44.14081" lon="7.22498">
        <ele>1970.385</ele>
        <time>2020-06-29T09:02:06Z</time>
      </trkpt>
      <trkpt lat="44.14092" lon="7.22473">
        <ele>1968.015</ele>
        <time>2020-06-29T09:02:22Z</time>
      </trkpt>
      <trkpt lat="44.14096" lon="7.22451">
        <ele>1969.394</ele>
        <time>2020-06-29T09:02:38Z</time>
      </trkpt>
      <trkpt lat="44.14092" lon="7.2243">
        <ele>1970.561</ele>
        <time>2020-06-29T09:02:53Z</time>
      </trkpt>
      <trkpt lat="44.14083" lon="7.22407">
        <ele>1973.694</ele>
        <time>2020-06-29T09:03:09Z</time>
      </trkpt>
      <trkpt lat="44.14073" lon="7.22382">
        <ele>1976.313</ele>
        <time>2020-06-29T09:03:25Z</time>
      </trkpt>
      <trkpt lat="44.14061" lon="7.2236">
        <ele>1979.551</ele>
        <time>2020-06-29T09:03:41Z</time>
      </trkpt>
      <trkpt lat="44.14049" lon="7.22343">
        <ele>1984.305</ele>
        <time>2020-06-29T09:03:56Z</time>
      </trkpt>
      <trkpt lat="44.14034" lon="7.22325">
        <ele>1990.382</ele>
        <time>2020-06-29T09:04:12Z</time>
      </trkpt>
      <trkpt lat="44.14025" lon="7.22305">
        <ele>1999.924</ele>
        <time>2020-06-29T09:04:27Z</time>
      </trkpt>
      <trkpt lat="44.14018" lon="7.22284">
        <ele>2004.719</ele>
        <time>2020-06-29T09:04:43Z</time>
      </trkpt>
      <trkpt lat="44.14007" lon="7.22258">
        <ele>1999.931</ele>
        <time>2020-06-29T09:04:58Z</time>
      </trkpt>
      <trkpt lat="44.14011" lon="7.22218">
        <ele>1978.671</ele>
        <time>2020-06-29T09:05:14Z</time>
      </trkpt>
      <trkpt lat="44.14014" lon="7.22191">
        <ele>1960.489</ele>
        <time>2020-06-29T09:05:30Z</time>
      </trkpt>
      <trkpt lat="44.14025" lon="7.22169">
        <ele>1957.482</ele>
        <time>2020-06-29T09:05:45Z</time>
      </trkpt>
      <trkpt lat="44.14035" lon="7.22148">
        <ele>1954.208</ele>
        <time>2020-06-29T09:06:00Z</time>
      </trkpt>
      <trkpt lat="44.14042" lon="7.22125">
        <ele>1945.877</ele>
        <time>2020-06-29T09:06:16Z</time>
      </trkpt>
      <trkpt lat="44.14048" lon="7.221">
        <ele>1939.898</ele>
        <time>2020-06-29T09:06:31Z</time>
      </trkpt>
      <trkpt lat="44.14049" lon="7.22078">
        <ele>1934.972</ele>
        <time>2020-06-29T09:06:47Z</time>
      </trkpt>
      <trkpt lat="44.14044" lon="7.22056">
        <ele>1935.005</ele>
        <time>2020-06-29T09:07:02Z</time>
      </trkpt>
      <trkpt lat="44.14043" lon="7.22027">
        <ele>1932.086</ele>
        <time>2020-06-29T09:07:18Z</time>
      </trkpt>
      <trkpt lat="44.14047" lon="7.21992">
        <ele>1934.604</ele>
        <time>2020-06-29T09:07:34Z</time>
      </trkpt>
      <trkpt lat="44.14051" lon="7.21965">
        <ele>1932.575</ele>
        <time>2020-06-29T09:07:50Z</time>
      </trkpt>
      <trkpt lat="44.1406" lon="7.21941">
        <ele>1934.022</ele>
        <time>2020-06-29T09:08:06Z</time>
      </trkpt>
      <trkpt lat="44.14069" lon="7.21912">
        <ele>1933.194</ele>
        <time>2020-06-29T09:08:21Z</time>
      </trkpt>
      <trkpt lat="44.1408" lon="7.2189">
        <ele>1934.094</ele>
        <time>2020-06-29T09:08:37Z</time>
      </trkpt>
      <trkpt lat="44.14092" lon="7.21866">
        <ele>1930.01</ele>
        <time>2020-06-29T09:08:53Z</time>
      </trkpt>
      <trkpt lat="44.14096" lon="7.21839">
        <ele>1927.549</ele>
        <time>2020-06-29T09:09:08Z</time>
      </trkpt>
      <trkpt lat="44.14101" lon="7.21814">
        <ele>1926.789</ele>
        <time>2020-06-29T09:09:23Z</time>
      </trkpt>
      <trkpt lat="44.14102" lon="7.21784">
        <ele>1928.167</ele>
        <time>2020-06-29T09:09:39Z</time>
      </trkpt>
      <trkpt lat="44.14107" lon="7.2176">
        <ele>1928.455</ele>
        <time>2020-06-29T09:09:54Z</time>
      </trkpt>
      <trkpt lat="44.14107" lon="7.21736">
        <ele>1927.055</ele>
        <time>2020-06-29T09:10:10Z</time>
      </trkpt>
      <trkpt lat="44.14103" lon="7.21714">
        <ele>1924.321</ele>
        <time>2020-06-29T09:10:25Z</time>
      </trkpt>
      <trkpt lat="44.14107" lon="7.21714">
        <ele>1923.7</ele>
        <time>2020-06-29T09:10:41Z</time>
      </trkpt>
      <trkpt lat="44.14107" lon="7.21714">
        <ele>1923.7</ele>
        <time>2020-06-29T09:10:57Z</time>
      </trkpt>
      <trkpt lat="44.14108" lon="7.21701">
        <ele>1924.819</ele>
        <time>2020-06-29T09:11:13Z</time>
      </trkpt>
      <trkpt lat="44.14114" lon="7.21686">
        <ele>1916.281</ele>
        <time>2020-06-29T09:11:28Z</time>
      </trkpt>
      <trkpt lat="44.14121" lon="7.21662">
        <ele>1915.5</ele>
        <time>2020-06-29T09:11:43Z</time>
      </trkpt>
      <trkpt lat="44.1413" lon="7.21643">
        <ele>1912.209</ele>
        <time>2020-06-29T09:11:59Z</time>
      </trkpt>
      <trkpt lat="44.14132" lon="7.2162">
        <ele>1910.428</ele>
        <time>2020-06-29T09:12:15Z</time>
      </trkpt>
      <trkpt lat="44.14128" lon="7.2161">
        <ele>1908.335</ele>
        <time>2020-06-29T09:12:30Z</time>
      </trkpt>
      <trkpt lat="44.14131" lon="7.21589">
        <ele>1901.561</ele>
        <time>2020-06-29T09:12:46Z</time>
      </trkpt>
      <trkpt lat="44.1414" lon="7.21568">
        <ele>1909.082</ele>
        <time>2020-06-29T09:13:01Z</time>
      </trkpt>
      <trkpt lat="44.14137" lon="7.21549">
        <ele>1910.492</ele>
        <time>2020-06-29T09:13:17Z</time>
      </trkpt>
      <trkpt lat="44.14134" lon="7.21532">
        <ele>1912.069</ele>
        <time>2020-06-29T09:13:33Z</time>
      </trkpt>
      <trkpt lat="44.14126" lon="7.21505">
        <ele>1917.163</ele>
        <time>2020-06-29T09:13:48Z</time>
      </trkpt>
      <trkpt lat="44.14138" lon="7.2148">
        <ele>1913.302</ele>
        <time>2020-06-29T09:14:04Z</time>
      </trkpt>
      <trkpt lat="44.14141" lon="7.21452">
        <ele>1908.754</ele>
        <time>2020-06-29T09:14:20Z</time>
      </trkpt>
      <trkpt lat="44.14155" lon="7.21432">
        <ele>1906.484</ele>
        <time>2020-06-29T09:14:36Z</time>
      </trkpt>
      <trkpt lat="44.14169" lon="7.21406">
        <ele>1904.954</ele>
        <time>2020-06-29T09:14:52Z</time>
      </trkpt>
      <trkpt lat="44.14176" lon="7.21381">
        <ele>1900.689</ele>
        <time>2020-06-29T09:15:08Z</time>
      </trkpt>
      <trkpt lat="44.1418" lon="7.21363">
        <ele>1896.454</ele>
        <time>2020-06-29T09:15:23Z</time>
      </trkpt>
      <trkpt lat="44.14178" lon="7.21332">
        <ele>1894.911</ele>
        <time>2020-06-29T09:15:39Z</time>
      </trkpt>
      <trkpt lat="44.1418" lon="7.21309">
        <ele>1895.926</ele>
        <time>2020-06-29T09:15:55Z</time>
      </trkpt>
      <trkpt lat="44.14182" lon="7.21284">
        <ele>1891.994</ele>
        <time>2020-06-29T09:16:11Z</time>
      </trkpt>
      <trkpt lat="44.14181" lon="7.21278">
        <ele>1891.563</ele>
        <time>2020-06-29T09:16:26Z</time>
      </trkpt>
      <trkpt lat="44.14181" lon="7.21278">
        <ele>1892.085</ele>
        <time>2020-06-29T09:16:42Z</time>
      </trkpt>
      <trkpt lat="44.14181" lon="7.21278">
        <ele>1892.085</ele>
        <time>2020-06-29T09:16:57Z</time>
      </trkpt>
      <trkpt lat="44.14177" lon="7.21273">
        <ele>1890.557</ele>
        <time>2020-06-29T09:17:12Z</time>
      </trkpt>
      <trkpt lat="44.14169" lon="7.21252">
        <ele>1892.295</ele>
        <time>2020-06-29T09:17:28Z</time>
      </trkpt>
      <trkpt lat="44.14163" lon="7.21229">
        <ele>1896.92</ele>
        <time>2020-06-29T09:17:44Z</time>
      </trkpt>
      <trkpt lat="44.1417" lon="7.21211">
        <ele>1895.216</ele>
        <time>2020-06-29T09:18:00Z</time>
      </trkpt>
      <trkpt lat="44.14182" lon="7.21193">
        <ele>1894.856</ele>
        <time>2020-06-29T09:18:15Z</time>
      </trkpt>
      <trkpt lat="44.14197" lon="7.21182">
        <ele>1897.136</ele>
        <time>2020-06-29T09:18:30Z</time>
      </trkpt>
      <trkpt lat="44.14215" lon="7.21174">
        <ele>1895.802</ele>
        <time>2020-06-29T09:18:46Z</time>
      </trkpt>
      <trkpt lat="44.14228" lon="7.21163">
        <ele>1897.338</ele>
        <time>2020-06-29T09:19:01Z</time>
      </trkpt>
      <trkpt lat="44.14236" lon="7.21147">
        <ele>1895.196</ele>
        <time>2020-06-29T09:19:16Z</time>
      </trkpt>
      <trkpt lat="44.14232" lon="7.21132">
        <ele>1894.765</ele>
        <time>2020-06-29T09:19:32Z</time>
      </trkpt>
      <trkpt lat="44.14226" lon="7.21134">
        <ele>1896.157</ele>
        <time>2020-06-29T09:19:48Z</time>
      </trkpt>
      <trkpt lat="44.14219" lon="7.21128">
        <ele>1897.997</ele>
        <time>2020-06-29T09:20:03Z</time>
      </trkpt>
      <trkpt lat="44.14219" lon="7.21127">
        <ele>1897.79</ele>
        <time>2020-06-29T09:20:18Z</time>
      </trkpt>
      <trkpt lat="44.14218" lon="7.21125">
        <ele>1898.618</ele>
        <time>2020-06-29T09:20:34Z</time>
      </trkpt>
      <trkpt lat="44.14218" lon="7.21125">
        <ele>1898.618</ele>
        <time>2020-06-29T09:20:50Z</time>
      </trkpt>
      <trkpt lat="44.14218" lon="7.21125">
        <ele>1898.618</ele>
        <time>2020-06-29T09:21:05Z</time>
      </trkpt>
      <trkpt lat="44.14218" lon="7.21125">
        <ele>1898.618</ele>
        <time>2020-06-29T09:21:21Z</time>
      </trkpt>
      <trkpt lat="44.14218" lon="7.21125">
        <ele>1898.618</ele>
        <time>2020-06-29T09:21:37Z</time>
      </trkpt>
      <trkpt lat="44.14218" lon="7.21125">
        <ele>1898.618</ele>
        <time>2020-06-29T09:21:52Z</time>
      </trkpt>
      <trkpt lat="44.14218" lon="7.21125">
        <ele>1898.618</ele>
        <time>2020-06-29T09:22:08Z</time>
      </trkpt>
      <trkpt lat="44.14218" lon="7.21125">
        <ele>1898.618</ele>
        <time>2020-06-29T09:22:24Z</time>
      </trkpt>
      <trkpt lat="44.14218" lon="7.21125">
        <ele>1898.618</ele>
        <time>2020-06-29T09:22:40Z</time>
      </trkpt>
      <trkpt lat="44.14218" lon="7.21125">
        <ele>1898.618</ele>
        <time>2020-06-29T09:22:55Z</time>
      </trkpt>
      <trkpt lat="44.14218" lon="7.21125">
        <ele>1898.618</ele>
        <time>2020-06-29T09:23:11Z</time>
      </trkpt>
      <trkpt lat="44.14218" lon="7.21125">
        <ele>1898.618</ele>
        <time>2020-06-29T09:23:27Z</time>
      </trkpt>
      <trkpt lat="44.14218" lon="7.21125">
        <ele>1898.618</ele>
        <time>2020-06-29T09:23:43Z</time>
      </trkpt>
      <trkpt lat="44.14218" lon="7.21125">
        <ele>1898.618</ele>
        <time>2020-06-29T09:23:59Z</time>
      </trkpt>
      <trkpt lat="44.14218" lon="7.21125">
        <ele>1898.618</ele>
        <time>2020-06-29T09:24:15Z</time>
      </trkpt>
      <trkpt lat="44.14218" lon="7.21125">
        <ele>1898.618</ele>
        <time>2020-06-29T09:24:31Z</time>
      </trkpt>
      <trkpt lat="44.14218" lon="7.21125">
        <ele>1898.618</ele>
        <time>2020-06-29T09:24:46Z</time>
      </trkpt>
      <trkpt lat="44.14217" lon="7.21125">
        <ele>1900.015</ele>
        <time>2020-06-29T09:25:02Z</time>
      </trkpt>
      <trkpt lat="44.14217" lon="7.21125">
        <ele>1900.015</ele>
        <time>2020-06-29T09:25:18Z</time>
      </trkpt>
      <trkpt lat="44.14217" lon="7.21125">
        <ele>1900.015</ele>
        <time>2020-06-29T09:25:33Z</time>
      </trkpt>
      <trkpt lat="44.14217" lon="7.21125">
        <ele>1900.015</ele>
        <time>2020-06-29T09:25:49Z</time>
      </trkpt>
      <trkpt lat="44.14217" lon="7.21125">
        <ele>1900.015</ele>
        <time>2020-06-29T09:26:04Z</time>
      </trkpt>
      <trkpt lat="44.14217" lon="7.21125">
        <ele>1900.015</ele>
        <time>2020-06-29T09:26:19Z</time>
      </trkpt>
      <trkpt lat="44.14217" lon="7.21125">
        <ele>1900.015</ele>
        <time>2020-06-29T09:26:35Z</time>
      </trkpt>
      <trkpt lat="44.14217" lon="7.21125">
        <ele>1899.847</ele>
        <time>2020-06-29T09:26:50Z</time>
      </trkpt>
      <trkpt lat="44.14219" lon="7.21125">
        <ele>1900.802</ele>
        <time>2020-06-29T09:27:06Z</time>
      </trkpt>
      <trkpt lat="44.14219" lon="7.21125">
        <ele>1900.802</ele>
        <time>2020-06-29T09:27:21Z</time>
      </trkpt>
      <trkpt lat="44.14219" lon="7.21125">
        <ele>1900.802</ele>
        <time>2020-06-29T09:27:37Z</time>
      </trkpt>
      <trkpt lat="44.14219" lon="7.21125">
        <ele>1900.802</ele>
        <time>2020-06-29T09:27:53Z</time>
      </trkpt>
      <trkpt lat="44.14219" lon="7.21125">
        <ele>1900.802</ele>
        <time>2020-06-29T09:28:08Z</time>
      </trkpt>
      <trkpt lat="44.14228" lon="7.21126">
        <ele>1900.676</ele>
        <time>2020-06-29T09:28:24Z</time>
      </trkpt>
      <trkpt lat="44.14228" lon="7.2115">
        <ele>1901.438</ele>
        <time>2020-06-29T09:28:40Z</time>
      </trkpt>
      <trkpt lat="44.1422" lon="7.21167">
        <ele>1905.497</ele>
        <time>2020-06-29T09:28:56Z</time>
      </trkpt>
      <trkpt lat="44.14219" lon="7.21168">
        <ele>1904.808</ele>
        <time>2020-06-29T09:29:12Z</time>
      </trkpt>
      <trkpt lat="44.14213" lon="7.21176">
        <ele>1904.319</ele>
        <time>2020-06-29T09:29:28Z</time>
      </trkpt>
      <trkpt lat="44.14196" lon="7.2119">
        <ele>1902.88</ele>
        <time>2020-06-29T09:29:44Z</time>
      </trkpt>
      <trkpt lat="44.14179" lon="7.21199">
        <ele>1901.764</ele>
        <time>2020-06-29T09:30:00Z</time>
      </trkpt>
      <trkpt lat="44.1417" lon="7.21212">
        <ele>1899.34</ele>
        <time>2020-06-29T09:30:15Z</time>
      </trkpt>
      <trkpt lat="44.1416" lon="7.21213">
        <ele>1896.941</ele>
        <time>2020-06-29T09:30:31Z</time>
      </trkpt>
      <trkpt lat="44.14147" lon="7.21199">
        <ele>1897.13</ele>
        <time>2020-06-29T09:30:46Z</time>
      </trkpt>
      <trkpt lat="44.14141" lon="7.21182">
        <ele>1901.015</ele>
        <time>2020-06-29T09:31:02Z</time>
      </trkpt>
      <trkpt lat="44.1414" lon="7.21173">
        <ele>1903.165</ele>
        <time>2020-06-29T09:31:17Z</time>
      </trkpt>
      <trkpt lat="44.14136" lon="7.21167">
        <ele>1901.705</ele>
        <time>2020-06-29T09:31:33Z</time>
      </trkpt>
      <trkpt lat="44.14131" lon="7.21162">
        <ele>1903.611</ele>
        <time>2020-06-29T09:31:49Z</time>
      </trkpt>
      <trkpt lat="44.1412" lon="7.21156">
        <ele>1905.973</ele>
        <time>2020-06-29T09:32:05Z</time>
      </trkpt>
      <trkpt lat="44.14115" lon="7.21139">
        <ele>1908.912</ele>
        <time>2020-06-29T09:32:21Z</time>
      </trkpt>
      <trkpt lat="44.14114" lon="7.21138">
        <ele>1909.421</ele>
        <time>2020-06-29T09:32:36Z</time>
      </trkpt>
      <trkpt lat="44.14108" lon="7.21113">
        <ele>1914.58</ele>
        <time>2020-06-29T09:32:52Z</time>
      </trkpt>
      <trkpt lat="44.14102" lon="7.21099">
        <ele>1919.636</ele>
        <time>2020-06-29T09:33:07Z</time>
      </trkpt>
      <trkpt lat="44.14097" lon="7.21083">
        <ele>1927.792</ele>
        <time>2020-06-29T09:33:23Z</time>
      </trkpt>
      <trkpt lat="44.14093" lon="7.2108">
        <ele>1928.928</ele>
        <time>2020-06-29T09:33:38Z</time>
      </trkpt>
      <trkpt lat="44.14092" lon="7.21076">
        <ele>1929.903</ele>
        <time>2020-06-29T09:33:53Z</time>
      </trkpt>
      <trkpt lat="44.14083" lon="7.21051">
        <ele>1937.355</ele>
        <time>2020-06-29T09:34:08Z</time>
      </trkpt>
      <trkpt lat="44.14076" lon="7.21042">
        <ele>1938.048</ele>
        <time>2020-06-29T09:34:24Z</time>
      </trkpt>
      <trkpt lat="44.1407" lon="7.21037">
        <ele>1940.788</ele>
        <time>2020-06-29T09:34:39Z</time>
      </trkpt>
      <trkpt lat="44.14058" lon="7.2102">
        <ele>1945.156</ele>
        <time>2020-06-29T09:34:55Z</time>
      </trkpt>
      <trkpt lat="44.14048" lon="7.2101">
        <ele>1945.576</ele>
        <time>2020-06-29T09:35:11Z</time>
      </trkpt>
      <trkpt lat="44.14039" lon="7.21003">
        <ele>1950.53</ele>
        <time>2020-06-29T09:35:26Z</time>
      </trkpt>
      <trkpt lat="44.14035" lon="7.20995">
        <ele>1956.634</ele>
        <time>2020-06-29T09:35:42Z</time>
      </trkpt>
      <trkpt lat="44.14038" lon="7.21001">
        <ele>1958.887</ele>
        <time>2020-06-29T09:35:57Z</time>
      </trkpt>
      <trkpt lat="44.14026" lon="7.21014">
        <ele>1958.133</ele>
        <time>2020-06-29T09:36:13Z</time>
      </trkpt>
      <trkpt lat="44.14018" lon="7.21006">
        <ele>1953.794</ele>
        <time>2020-06-29T09:36:29Z</time>
      </trkpt>
      <trkpt lat="44.1401" lon="7.21005">
        <ele>1955.191</ele>
        <time>2020-06-29T09:36:44Z</time>
      </trkpt>
      <trkpt lat="44.14" lon="7.20999">
        <ele>1963.014</ele>
        <time>2020-06-29T09:36:59Z</time>
      </trkpt>
      <trkpt lat="44.13999" lon="7.2098">
        <ele>1964.345</ele>
        <time>2020-06-29T09:37:15Z</time>
      </trkpt>
      <trkpt lat="44.13994" lon="7.20979">
        <ele>1965.852</ele>
        <time>2020-06-29T09:37:31Z</time>
      </trkpt>
      <trkpt lat="44.13978" lon="7.20981">
        <ele>1967.635</ele>
        <time>2020-06-29T09:37:47Z</time>
      </trkpt>
      <trkpt lat="44.13966" lon="7.20964">
        <ele>1971.52</ele>
        <time>2020-06-29T09:38:03Z</time>
      </trkpt>
      <trkpt lat="44.13957" lon="7.2096">
        <ele>1972.996</ele>
        <time>2020-06-29T09:38:18Z</time>
      </trkpt>
      <trkpt lat="44.13957" lon="7.20959">
        <ele>1972.651</ele>
        <time>2020-06-29T09:38:33Z</time>
      </trkpt>
      <trkpt lat="44.13968" lon="7.20954">
        <ele>1973.713</ele>
        <time>2020-06-29T09:38:49Z</time>
      </trkpt>
      <trkpt lat="44.13959" lon="7.20947">
        <ele>1966.605</ele>
        <time>2020-06-29T09:39:05Z</time>
      </trkpt>
      <trkpt lat="44.1395" lon="7.20938">
        <ele>1964.775</ele>
        <time>2020-06-29T09:39:20Z</time>
      </trkpt>
      <trkpt lat="44.13936" lon="7.20932">
        <ele>1966.675</ele>
        <time>2020-06-29T09:39:35Z</time>
      </trkpt>
      <trkpt lat="44.1393" lon="7.20924">
        <ele>1971.424</ele>
        <time>2020-06-29T09:39:51Z</time>
      </trkpt>
      <trkpt lat="44.13918" lon="7.2091">
        <ele>1978.534</ele>
        <time>2020-06-29T09:40:07Z</time>
      </trkpt>
      <trkpt lat="44.13914" lon="7.20895">
        <ele>1982.758</ele>
        <time>2020-06-29T09:40:23Z</time>
      </trkpt>
      <trkpt lat="44.13911" lon="7.20883">
        <ele>1981.042</ele>
        <time>2020-06-29T09:40:38Z</time>
      </trkpt>
      <trkpt lat="44.13908" lon="7.20874">
        <ele>1981.631</ele>
        <time>2020-06-29T09:40:54Z</time>
      </trkpt>
      <trkpt lat="44.13905" lon="7.20862">
        <ele>1981.86</ele>
        <time>2020-06-29T09:41:10Z</time>
      </trkpt>
      <trkpt lat="44.1389" lon="7.20841">
        <ele>1983.162</ele>
        <time>2020-06-29T09:41:25Z</time>
      </trkpt>
      <trkpt lat="44.13882" lon="7.20831">
        <ele>1982.958</ele>
        <time>2020-06-29T09:41:40Z</time>
      </trkpt>
      <trkpt lat="44.1387" lon="7.20818">
        <ele>1981.294</ele>
        <time>2020-06-29T09:41:56Z</time>
      </trkpt>
      <trkpt lat="44.13863" lon="7.20798">
        <ele>1983.169</ele>
        <time>2020-06-29T09:42:12Z</time>
      </trkpt>
      <trkpt lat="44.13867" lon="7.20807">
        <ele>1982.793</ele>
        <time>2020-06-29T09:42:28Z</time>
      </trkpt>
      <trkpt lat="44.13867" lon="7.20811">
        <ele>1982.68</ele>
        <time>2020-06-29T09:42:43Z</time>
      </trkpt>
      <trkpt lat="44.13864" lon="7.20809">
        <ele>1982.908</ele>
        <time>2020-06-29T09:42:58Z</time>
      </trkpt>
      <trkpt lat="44.13851" lon="7.20803">
        <ele>1985.672</ele>
        <time>2020-06-29T09:43:14Z</time>
      </trkpt>
      <trkpt lat="44.13837" lon="7.20802">
        <ele>1991.341</ele>
        <time>2020-06-29T09:43:29Z</time>
      </trkpt>
      <trkpt lat="44.13825" lon="7.20793">
        <ele>1997.474</ele>
        <time>2020-06-29T09:43:45Z</time>
      </trkpt>
      <trkpt lat="44.13813" lon="7.20782">
        <ele>1998.734</ele>
        <time>2020-06-29T09:44:01Z</time>
      </trkpt>
      <trkpt lat="44.13802" lon="7.20776">
        <ele>1997.403</ele>
        <time>2020-06-29T09:44:16Z</time>
      </trkpt>
      <trkpt lat="44.13795" lon="7.20774">
        <ele>1996.323</ele>
        <time>2020-06-29T09:44:32Z</time>
      </trkpt>
      <trkpt lat="44.13795" lon="7.20774">
        <ele>1996.323</ele>
        <time>2020-06-29T09:44:48Z</time>
      </trkpt>
      <trkpt lat="44.13795" lon="7.20774">
        <ele>1996.323</ele>
        <time>2020-06-29T09:45:03Z</time>
      </trkpt>
      <trkpt lat="44.13795" lon="7.20774">
        <ele>1996.323</ele>
        <time>2020-06-29T09:45:19Z</time>
      </trkpt>
      <trkpt lat="44.13777" lon="7.20766">
        <ele>1997.213</ele>
        <time>2020-06-29T09:45:35Z</time>
      </trkpt>
      <trkpt lat="44.13765" lon="7.20758">
        <ele>1995.677</ele>
        <time>2020-06-29T09:45:51Z</time>
      </trkpt>
      <trkpt lat="44.13762" lon="7.2075">
        <ele>1995.858</ele>
        <time>2020-06-29T09:46:06Z</time>
      </trkpt>
      <trkpt lat="44.13759" lon="7.20749">
        <ele>1995.461</ele>
        <time>2020-06-29T09:46:21Z</time>
      </trkpt>
      <trkpt lat="44.13759" lon="7.20748">
        <ele>1996.605</ele>
        <time>2020-06-29T09:46:37Z</time>
      </trkpt>
      <trkpt lat="44.13759" lon="7.20746">
        <ele>1996.286</ele>
        <time>2020-06-29T09:46:53Z</time>
      </trkpt>
      <trkpt lat="44.13765" lon="7.20737">
        <ele>1995.49</ele>
        <time>2020-06-29T09:47:08Z</time>
      </trkpt>
      <trkpt lat="44.13765" lon="7.20734">
        <ele>1996.068</ele>
        <time>2020-06-29T09:47:23Z</time>
      </trkpt>
      <trkpt lat="44.13765" lon="7.20734">
        <ele>1996.068</ele>
        <time>2020-06-29T09:47:39Z</time>
      </trkpt>
      <trkpt lat="44.13765" lon="7.20716">
        <ele>1997.998</ele>
        <time>2020-06-29T09:47:54Z</time>
      </trkpt>
      <trkpt lat="44.13765" lon="7.20716">
        <ele>1997.998</ele>
        <time>2020-06-29T09:48:10Z</time>
      </trkpt>
      <trkpt lat="44.13752" lon="7.20712">
        <ele>2002.5</ele>
        <time>2020-06-29T09:48:26Z</time>
      </trkpt>
      <trkpt lat="44.13743" lon="7.20702">
        <ele>2004.565</ele>
        <time>2020-06-29T09:48:42Z</time>
      </trkpt>
      <trkpt lat="44.13734" lon="7.20695">
        <ele>2006.302</ele>
        <time>2020-06-29T09:48:57Z</time>
      </trkpt>
      <trkpt lat="44.13722" lon="7.20703">
        <ele>2006.388</ele>
        <time>2020-06-29T09:49:13Z</time>
      </trkpt>
      <trkpt lat="44.13711" lon="7.20704">
        <ele>2006.445</ele>
        <time>2020-06-29T09:49:28Z</time>
      </trkpt>
      <trkpt lat="44.13705" lon="7.20697">
        <ele>2008.089</ele>
        <time>2020-06-29T09:49:44Z</time>
      </trkpt>
      <trkpt lat="44.13691" lon="7.20688">
        <ele>2012.641</ele>
        <time>2020-06-29T09:50:00Z</time>
      </trkpt>
      <trkpt lat="44.13681" lon="7.20686">
        <ele>2013.615</ele>
        <time>2020-06-29T09:50:16Z</time>
      </trkpt>
      <trkpt lat="44.13672" lon="7.20687">
        <ele>2015.263</ele>
        <time>2020-06-29T09:50:32Z</time>
      </trkpt>
      <trkpt lat="44.13664" lon="7.20682">
        <ele>2016.345</ele>
        <time>2020-06-29T09:50:47Z</time>
      </trkpt>
      <trkpt lat="44.13654" lon="7.20675">
        <ele>2018.82</ele>
        <time>2020-06-29T09:51:03Z</time>
      </trkpt>
      <trkpt lat="44.13642" lon="7.20661">
        <ele>2019.918</ele>
        <time>2020-06-29T09:51:19Z</time>
      </trkpt>
      <trkpt lat="44.13636" lon="7.20657">
        <ele>2021.719</ele>
        <time>2020-06-29T09:51:34Z</time>
      </trkpt>
      <trkpt lat="44.13624" lon="7.20644">
        <ele>2026.536</ele>
        <time>2020-06-29T09:51:49Z</time>
      </trkpt>
      <trkpt lat="44.13618" lon="7.20638">
        <ele>2027.39</ele>
        <time>2020-06-29T09:52:05Z</time>
      </trkpt>
      <trkpt lat="44.13609" lon="7.20633">
        <ele>2027.703</ele>
        <time>2020-06-29T09:52:20Z</time>
      </trkpt>
      <trkpt lat="44.13591" lon="7.20627">
        <ele>2028.971</ele>
        <time>2020-06-29T09:52:35Z</time>
      </trkpt>
      <trkpt lat="44.1358" lon="7.20616">
        <ele>2032.905</ele>
        <time>2020-06-29T09:52:51Z</time>
      </trkpt>
      <trkpt lat="44.1358" lon="7.20615">
        <ele>2033.013</ele>
        <time>2020-06-29T09:53:06Z</time>
      </trkpt>
      <trkpt lat="44.13558" lon="7.20595">
        <ele>2038.851</ele>
        <time>2020-06-29T09:53:21Z</time>
      </trkpt>
      <trkpt lat="44.13547" lon="7.20576">
        <ele>2037.868</ele>
        <time>2020-06-29T09:53:37Z</time>
      </trkpt>
      <trkpt lat="44.13532" lon="7.20565">
        <ele>2042.16</ele>
        <time>2020-06-29T09:53:53Z</time>
      </trkpt>
      <trkpt lat="44.13518" lon="7.20558">
        <ele>2042.439</ele>
        <time>2020-06-29T09:54:08Z</time>
      </trkpt>
      <trkpt lat="44.13502" lon="7.20563">
        <ele>2040.833</ele>
        <time>2020-06-29T09:54:24Z</time>
      </trkpt>
      <trkpt lat="44.13485" lon="7.20564">
        <ele>2036.465</ele>
        <time>2020-06-29T09:54:40Z</time>
      </trkpt>
      <trkpt lat="44.13469" lon="7.20562">
        <ele>2039.368</ele>
        <time>2020-06-29T09:54:55Z</time>
      </trkpt>
      <trkpt lat="44.13461" lon="7.20555">
        <ele>2037.892</ele>
        <time>2020-06-29T09:55:10Z</time>
      </trkpt>
      <trkpt lat="44.13452" lon="7.20552">
        <ele>2035.549</ele>
        <time>2020-06-29T09:55:25Z</time>
      </trkpt>
      <trkpt lat="44.13437" lon="7.20538">
        <ele>2034.311</ele>
        <time>2020-06-29T09:55:41Z</time>
      </trkpt>
      <trkpt lat="44.13425" lon="7.20531">
        <ele>2035.574</ele>
        <time>2020-06-29T09:55:56Z</time>
      </trkpt>
      <trkpt lat="44.13413" lon="7.20524">
        <ele>2032.587</ele>
        <time>2020-06-29T09:56:11Z</time>
      </trkpt>
      <trkpt lat="44.13407" lon="7.20519">
        <ele>2031.923</ele>
        <time>2020-06-29T09:56:26Z</time>
      </trkpt>
      <trkpt lat="44.13388" lon="7.20519">
        <ele>2030.891</ele>
        <time>2020-06-29T09:56:42Z</time>
      </trkpt>
      <trkpt lat="44.13379" lon="7.20514">
        <ele>2031.317</ele>
        <time>2020-06-29T09:56:58Z</time>
      </trkpt>
      <trkpt lat="44.13362" lon="7.20501">
        <ele>2035.214</ele>
        <time>2020-06-29T09:57:14Z</time>
      </trkpt>
      <trkpt lat="44.13354" lon="7.20496">
        <ele>2037.489</ele>
        <time>2020-06-29T09:57:30Z</time>
      </trkpt>
      <trkpt lat="44.13349" lon="7.20492">
        <ele>2039.265</ele>
        <time>2020-06-29T09:57:45Z</time>
      </trkpt>
      <trkpt lat="44.13342" lon="7.20491">
        <ele>2043.59</ele>
        <time>2020-06-29T09:58:01Z</time>
      </trkpt>
      <trkpt lat="44.13333" lon="7.20492">
        <ele>2043.906</ele>
        <time>2020-06-29T09:58:17Z</time>
      </trkpt>
      <trkpt lat="44.1332" lon="7.2049">
        <ele>2048.209</ele>
        <time>2020-06-29T09:58:32Z</time>
      </trkpt>
      <trkpt lat="44.13313" lon="7.20489">
        <ele>2047.576</ele>
        <time>2020-06-29T09:58:48Z</time>
      </trkpt>
      <trkpt lat="44.13297" lon="7.205">
        <ele>2050.29</ele>
        <time>2020-06-29T09:59:03Z</time>
      </trkpt>
      <trkpt lat="44.1329" lon="7.20503">
        <ele>2049.922</ele>
        <time>2020-06-29T09:59:19Z</time>
      </trkpt>
      <trkpt lat="44.13278" lon="7.20503">
        <ele>2052.138</ele>
        <time>2020-06-29T09:59:34Z</time>
      </trkpt>
      <trkpt lat="44.1327" lon="7.20505">
        <ele>2054.079</ele>
        <time>2020-06-29T09:59:50Z</time>
      </trkpt>
      <trkpt lat="44.13255" lon="7.20504">
        <ele>2055.532</ele>
        <time>2020-06-29T10:00:05Z</time>
      </trkpt>
      <trkpt lat="44.13241" lon="7.20517">
        <ele>2057.081</ele>
        <time>2020-06-29T10:00:21Z</time>
      </trkpt>
      <trkpt lat="44.13233" lon="7.20512">
        <ele>2058.986</ele>
        <time>2020-06-29T10:00:36Z</time>
      </trkpt>
      <trkpt lat="44.13221" lon="7.20512">
        <ele>2056.984</ele>
        <time>2020-06-29T10:00:52Z</time>
      </trkpt>
      <trkpt lat="44.1321" lon="7.20517">
        <ele>2058.572</ele>
        <time>2020-06-29T10:01:08Z</time>
      </trkpt>
      <trkpt lat="44.13198" lon="7.20504">
        <ele>2060.041</ele>
        <time>2020-06-29T10:01:23Z</time>
      </trkpt>
      <trkpt lat="44.13182" lon="7.20497">
        <ele>2066.981</ele>
        <time>2020-06-29T10:01:38Z</time>
      </trkpt>
      <trkpt lat="44.13175" lon="7.20497">
        <ele>2070.068</ele>
        <time>2020-06-29T10:01:54Z</time>
      </trkpt>
      <trkpt lat="44.13175" lon="7.20497">
        <ele>2070.068</ele>
        <time>2020-06-29T10:02:09Z</time>
      </trkpt>
      <trkpt lat="44.13173" lon="7.20496">
        <ele>2070.613</ele>
        <time>2020-06-29T10:02:25Z</time>
      </trkpt>
      <trkpt lat="44.13168" lon="7.20498">
        <ele>2072.694</ele>
        <time>2020-06-29T10:02:41Z</time>
      </trkpt>
      <trkpt lat="44.13168" lon="7.20498">
        <ele>2072.694</ele>
        <time>2020-06-29T10:02:56Z</time>
      </trkpt>
      <trkpt lat="44.13168" lon="7.20498">
        <ele>2072.694</ele>
        <time>2020-06-29T10:03:12Z</time>
      </trkpt>
      <trkpt lat="44.13165" lon="7.20502">
        <ele>2073.594</ele>
        <time>2020-06-29T10:03:27Z</time>
      </trkpt>
      <trkpt lat="44.13154" lon="7.205">
        <ele>2071.578</ele>
        <time>2020-06-29T10:03:43Z</time>
      </trkpt>
      <trkpt lat="44.13144" lon="7.20499">
        <ele>2073.988</ele>
        <time>2020-06-29T10:03:59Z</time>
      </trkpt>
      <trkpt lat="44.13144" lon="7.205">
        <ele>2074.072</ele>
        <time>2020-06-29T10:04:15Z</time>
      </trkpt>
      <trkpt lat="44.1314" lon="7.20507">
        <ele>2075.167</ele>
        <time>2020-06-29T10:04:30Z</time>
      </trkpt>
      <trkpt lat="44.13115" lon="7.20503">
        <ele>2076.216</ele>
        <time>2020-06-29T10:04:45Z</time>
      </trkpt>
      <trkpt lat="44.13105" lon="7.20501">
        <ele>2078.195</ele>
        <time>2020-06-29T10:05:01Z</time>
      </trkpt>
      <trkpt lat="44.13096" lon="7.20498">
        <ele>2084.716</ele>
        <time>2020-06-29T10:05:16Z</time>
      </trkpt>
      <trkpt lat="44.13088" lon="7.205">
        <ele>2085.248</ele>
        <time>2020-06-29T10:05:32Z</time>
      </trkpt>
      <trkpt lat="44.13083" lon="7.20505">
        <ele>2085.813</ele>
        <time>2020-06-29T10:05:48Z</time>
      </trkpt>
      <trkpt lat="44.13078" lon="7.20511">
        <ele>2086.822</ele>
        <time>2020-06-29T10:06:04Z</time>
      </trkpt>
      <trkpt lat="44.13054" lon="7.20522">
        <ele>2088.163</ele>
        <time>2020-06-29T10:06:19Z</time>
      </trkpt>
      <trkpt lat="44.13049" lon="7.20522">
        <ele>2091.57</ele>
        <time>2020-06-29T10:06:35Z</time>
      </trkpt>
      <trkpt lat="44.13038" lon="7.20509">
        <ele>2095.104</ele>
        <time>2020-06-29T10:06:51Z</time>
      </trkpt>
      <trkpt lat="44.13028" lon="7.2051">
        <ele>2096.57</ele>
        <time>2020-06-29T10:07:06Z</time>
      </trkpt>
      <trkpt lat="44.13018" lon="7.20509">
        <ele>2097.552</ele>
        <time>2020-06-29T10:07:22Z</time>
      </trkpt>
      <trkpt lat="44.1301" lon="7.20511">
        <ele>2098.602</ele>
        <time>2020-06-29T10:07:38Z</time>
      </trkpt>
      <trkpt lat="44.13004" lon="7.20511">
        <ele>2099.87</ele>
        <time>2020-06-29T10:07:54Z</time>
      </trkpt>
      <trkpt lat="44.12989" lon="7.20509">
        <ele>2100.395</ele>
        <time>2020-06-29T10:08:10Z</time>
      </trkpt>
      <trkpt lat="44.12975" lon="7.20496">
        <ele>2101.851</ele>
        <time>2020-06-29T10:08:26Z</time>
      </trkpt>
      <trkpt lat="44.12964" lon="7.20495">
        <ele>2106.599</ele>
        <time>2020-06-29T10:08:41Z</time>
      </trkpt>
      <trkpt lat="44.12961" lon="7.20492">
        <ele>2107.549</ele>
        <time>2020-06-29T10:08:57Z</time>
      </trkpt>
      <trkpt lat="44.1295" lon="7.20486">
        <ele>2111.114</ele>
        <time>2020-06-29T10:09:13Z</time>
      </trkpt>
      <trkpt lat="44.1294" lon="7.20478">
        <ele>2113.384</ele>
        <time>2020-06-29T10:09:29Z</time>
      </trkpt>
      <trkpt lat="44.12936" lon="7.20481">
        <ele>2114.437</ele>
        <time>2020-06-29T10:09:44Z</time>
      </trkpt>
      <trkpt lat="44.12929" lon="7.20483">
        <ele>2114.621</ele>
        <time>2020-06-29T10:10:00Z</time>
      </trkpt>
      <trkpt lat="44.12913" lon="7.20488">
        <ele>2119.331</ele>
        <time>2020-06-29T10:10:15Z</time>
      </trkpt>
      <trkpt lat="44.12901" lon="7.20487">
        <ele>2124.137</ele>
        <time>2020-06-29T10:10:31Z</time>
      </trkpt>
      <trkpt lat="44.12891" lon="7.20486">
        <ele>2121.694</ele>
        <time>2020-06-29T10:10:47Z</time>
      </trkpt>
      <trkpt lat="44.12885" lon="7.2049">
        <ele>2123.093</ele>
        <time>2020-06-29T10:11:03Z</time>
      </trkpt>
      <trkpt lat="44.12875" lon="7.20492">
        <ele>2124.547</ele>
        <time>2020-06-29T10:11:19Z</time>
      </trkpt>
      <trkpt lat="44.12853" lon="7.20504">
        <ele>2127.089</ele>
        <time>2020-06-29T10:11:35Z</time>
      </trkpt>
      <trkpt lat="44.12846" lon="7.20507">
        <ele>2123.499</ele>
        <time>2020-06-29T10:11:51Z</time>
      </trkpt>
      <trkpt lat="44.12835" lon="7.20507">
        <ele>2122.597</ele>
        <time>2020-06-29T10:12:07Z</time>
      </trkpt>
      <trkpt lat="44.12816" lon="7.20503">
        <ele>2122.115</ele>
        <time>2020-06-29T10:12:23Z</time>
      </trkpt>
      <trkpt lat="44.12804" lon="7.20511">
        <ele>2123.779</ele>
        <time>2020-06-29T10:12:38Z</time>
      </trkpt>
      <trkpt lat="44.12791" lon="7.20513">
        <ele>2124.024</ele>
        <time>2020-06-29T10:12:54Z</time>
      </trkpt>
      <trkpt lat="44.12775" lon="7.20509">
        <ele>2124.809</ele>
        <time>2020-06-29T10:13:10Z</time>
      </trkpt>
      <trkpt lat="44.12764" lon="7.20509">
        <ele>2125.882</ele>
        <time>2020-06-29T10:13:25Z</time>
      </trkpt>
      <trkpt lat="44.12758" lon="7.20512">
        <ele>2127.673</ele>
        <time>2020-06-29T10:13:41Z</time>
      </trkpt>
      <trkpt lat="44.12747" lon="7.20512">
        <ele>2127.582</ele>
        <time>2020-06-29T10:13:57Z</time>
      </trkpt>
      <trkpt lat="44.12747" lon="7.20512">
        <ele>2127.582</ele>
        <time>2020-06-29T10:14:12Z</time>
      </trkpt>
      <trkpt lat="44.12747" lon="7.20512">
        <ele>2127.582</ele>
        <time>2020-06-29T10:14:28Z</time>
      </trkpt>
      <trkpt lat="44.12742" lon="7.2051">
        <ele>2126.942</ele>
        <time>2020-06-29T10:14:43Z</time>
      </trkpt>
      <trkpt lat="44.12737" lon="7.20511">
        <ele>2125.84</ele>
        <time>2020-06-29T10:14:59Z</time>
      </trkpt>
      <trkpt lat="44.1273" lon="7.20509">
        <ele>2124.654</ele>
        <time>2020-06-29T10:15:14Z</time>
      </trkpt>
      <trkpt lat="44.1273" lon="7.20504">
        <ele>2125.712</ele>
        <time>2020-06-29T10:15:30Z</time>
      </trkpt>
      <trkpt lat="44.1273" lon="7.20504">
        <ele>2125.712</ele>
        <time>2020-06-29T10:15:46Z</time>
      </trkpt>
      <trkpt lat="44.12731" lon="7.20502">
        <ele>2124.452</ele>
        <time>2020-06-29T10:16:01Z</time>
      </trkpt>
      <trkpt lat="44.12731" lon="7.20502">
        <ele>2124.452</ele>
        <time>2020-06-29T10:16:17Z</time>
      </trkpt>
      <trkpt lat="44.12731" lon="7.20502">
        <ele>2124.452</ele>
        <time>2020-06-29T10:16:32Z</time>
      </trkpt>
      <trkpt lat="44.12731" lon="7.20502">
        <ele>2124.452</ele>
        <time>2020-06-29T10:16:48Z</time>
      </trkpt>
      <trkpt lat="44.12731" lon="7.20502">
        <ele>2124.452</ele>
        <time>2020-06-29T10:17:03Z</time>
      </trkpt>
      <trkpt lat="44.12731" lon="7.20502">
        <ele>2124.452</ele>
        <time>2020-06-29T10:17:19Z</time>
      </trkpt>
      <trkpt lat="44.12731" lon="7.20502">
        <ele>2124.452</ele>
        <time>2020-06-29T10:17:35Z</time>
      </trkpt>
      <trkpt lat="44.12731" lon="7.20502">
        <ele>2124.452</ele>
        <time>2020-06-29T10:17:51Z</time>
      </trkpt>
      <trkpt lat="44.12731" lon="7.20502">
        <ele>2124.452</ele>
        <time>2020-06-29T10:18:07Z</time>
      </trkpt>
      <trkpt lat="44.12731" lon="7.20502">
        <ele>2124.452</ele>
        <time>2020-06-29T10:18:22Z</time>
      </trkpt>
      <trkpt lat="44.12731" lon="7.20502">
        <ele>2124.452</ele>
        <time>2020-06-29T10:18:38Z</time>
      </trkpt>
      <trkpt lat="44.12731" lon="7.20502">
        <ele>2124.452</ele>
        <time>2020-06-29T10:18:54Z</time>
      </trkpt>
      <trkpt lat="44.12731" lon="7.20502">
        <ele>2124.452</ele>
        <time>2020-06-29T10:19:10Z</time>
      </trkpt>
      <trkpt lat="44.12731" lon="7.20502">
        <ele>2124.452</ele>
        <time>2020-06-29T10:19:26Z</time>
      </trkpt>
      <trkpt lat="44.12731" lon="7.20502">
        <ele>2124.452</ele>
        <time>2020-06-29T10:19:42Z</time>
      </trkpt>
      <trkpt lat="44.12731" lon="7.20502">
        <ele>2124.452</ele>
        <time>2020-06-29T10:19:57Z</time>
      </trkpt>
      <trkpt lat="44.12731" lon="7.20502">
        <ele>2124.452</ele>
        <time>2020-06-29T10:20:13Z</time>
      </trkpt>
      <trkpt lat="44.12731" lon="7.20502">
        <ele>2124.452</ele>
        <time>2020-06-29T10:20:28Z</time>
      </trkpt>
      <trkpt lat="44.12731" lon="7.20502">
        <ele>2124.452</ele>
        <time>2020-06-29T10:20:44Z</time>
      </trkpt>
      <trkpt lat="44.12731" lon="7.20502">
        <ele>2124.452</ele>
        <time>2020-06-29T10:21:00Z</time>
      </trkpt>
      <trkpt lat="44.12731" lon="7.20502">
        <ele>2124.452</ele>
        <time>2020-06-29T10:21:15Z</time>
      </trkpt>
      <trkpt lat="44.12731" lon="7.20502">
        <ele>2124.452</ele>
        <time>2020-06-29T10:21:31Z</time>
      </trkpt>
      <trkpt lat="44.12731" lon="7.20502">
        <ele>2124.452</ele>
        <time>2020-06-29T10:21:47Z</time>
      </trkpt>
      <trkpt lat="44.12731" lon="7.20502">
        <ele>2124.452</ele>
        <time>2020-06-29T10:22:03Z</time>
      </trkpt>
      <trkpt lat="44.12731" lon="7.20502">
        <ele>2124.452</ele>
        <time>2020-06-29T10:22:19Z</time>
      </trkpt>
      <trkpt lat="44.12731" lon="7.20502">
        <ele>2124.452</ele>
        <time>2020-06-29T10:22:35Z</time>
      </trkpt>
      <trkpt lat="44.12731" lon="7.20502">
        <ele>2124.452</ele>
        <time>2020-06-29T10:22:51Z</time>
      </trkpt>
      <trkpt lat="44.12731" lon="7.20502">
        <ele>2124.452</ele>
        <time>2020-06-29T10:23:06Z</time>
      </trkpt>
      <trkpt lat="44.12731" lon="7.20502">
        <ele>2124.452</ele>
        <time>2020-06-29T10:23:22Z</time>
      </trkpt>
      <trkpt lat="44.12731" lon="7.20502">
        <ele>2124.452</ele>
        <time>2020-06-29T10:23:38Z</time>
      </trkpt>
      <trkpt lat="44.12731" lon="7.20502">
        <ele>2124.452</ele>
        <time>2020-06-29T10:23:54Z</time>
      </trkpt>
      <trkpt lat="44.12731" lon="7.20502">
        <ele>2124.452</ele>
        <time>2020-06-29T10:24:09Z</time>
      </trkpt>
      <trkpt lat="44.12731" lon="7.20502">
        <ele>2124.452</ele>
        <time>2020-06-29T10:24:25Z</time>
      </trkpt>
      <trkpt lat="44.12731" lon="7.20502">
        <ele>2124.452</ele>
        <time>2020-06-29T10:24:41Z</time>
      </trkpt>
      <trkpt lat="44.12731" lon="7.20502">
        <ele>2124.452</ele>
        <time>2020-06-29T10:24:57Z</time>
      </trkpt>
      <trkpt lat="44.12731" lon="7.20502">
        <ele>2124.452</ele>
        <time>2020-06-29T10:25:12Z</time>
      </trkpt>
      <trkpt lat="44.1273" lon="7.20505">
        <ele>2127.257</ele>
        <time>2020-06-29T10:25:28Z</time>
      </trkpt>
      <trkpt lat="44.1273" lon="7.20505">
        <ele>2127.257</ele>
        <time>2020-06-29T10:25:43Z</time>
      </trkpt>
      <trkpt lat="44.1273" lon="7.20505">
        <ele>2127.257</ele>
        <time>2020-06-29T10:25:58Z</time>
      </trkpt>
      <trkpt lat="44.12731" lon="7.20506">
        <ele>2129.157</ele>
        <time>2020-06-29T10:26:13Z</time>
      </trkpt>
      <trkpt lat="44.12731" lon="7.20506">
        <ele>2129.157</ele>
        <time>2020-06-29T10:26:28Z</time>
      </trkpt>
      <trkpt lat="44.12731" lon="7.20506">
        <ele>2129.157</ele>
        <time>2020-06-29T10:26:44Z</time>
      </trkpt>
      <trkpt lat="44.12731" lon="7.20506">
        <ele>2129.157</ele>
        <time>2020-06-29T10:27:00Z</time>
      </trkpt>
      <trkpt lat="44.12731" lon="7.20506">
        <ele>2129.157</ele>
        <time>2020-06-29T10:27:15Z</time>
      </trkpt>
      <trkpt lat="44.12731" lon="7.20506">
        <ele>2129.157</ele>
        <time>2020-06-29T10:27:30Z</time>
      </trkpt>
      <trkpt lat="44.12731" lon="7.20506">
        <ele>2129.157</ele>
        <time>2020-06-29T10:27:46Z</time>
      </trkpt>
      <trkpt lat="44.12731" lon="7.20506">
        <ele>2129.157</ele>
        <time>2020-06-29T10:28:01Z</time>
      </trkpt>
      <trkpt lat="44.12731" lon="7.20506">
        <ele>2129.157</ele>
        <time>2020-06-29T10:28:17Z</time>
      </trkpt>
      <trkpt lat="44.12731" lon="7.20506">
        <ele>2129.157</ele>
        <time>2020-06-29T10:28:33Z</time>
      </trkpt>
      <trkpt lat="44.12731" lon="7.20506">
        <ele>2129.157</ele>
        <time>2020-06-29T10:28:49Z</time>
      </trkpt>
      <trkpt lat="44.12731" lon="7.20506">
        <ele>2129.157</ele>
        <time>2020-06-29T10:29:05Z</time>
      </trkpt>
      <trkpt lat="44.12731" lon="7.20506">
        <ele>2129.157</ele>
        <time>2020-06-29T10:29:20Z</time>
      </trkpt>
      <trkpt lat="44.12731" lon="7.20506">
        <ele>2129.157</ele>
        <time>2020-06-29T10:29:36Z</time>
      </trkpt>
      <trkpt lat="44.12731" lon="7.20506">
        <ele>2129.157</ele>
        <time>2020-06-29T10:29:51Z</time>
      </trkpt>
      <trkpt lat="44.12731" lon="7.20506">
        <ele>2129.157</ele>
        <time>2020-06-29T10:30:07Z</time>
      </trkpt>
      <trkpt lat="44.12731" lon="7.20506">
        <ele>2129.157</ele>
        <time>2020-06-29T10:30:22Z</time>
      </trkpt>
      <trkpt lat="44.12731" lon="7.20506">
        <ele>2129.157</ele>
        <time>2020-06-29T10:30:38Z</time>
      </trkpt>
      <trkpt lat="44.12731" lon="7.20506">
        <ele>2129.157</ele>
        <time>2020-06-29T10:30:54Z</time>
      </trkpt>
      <trkpt lat="44.12731" lon="7.20506">
        <ele>2129.157</ele>
        <time>2020-06-29T10:31:10Z</time>
      </trkpt>
      <trkpt lat="44.12731" lon="7.20506">
        <ele>2129.157</ele>
        <time>2020-06-29T10:31:26Z</time>
      </trkpt>
      <trkpt lat="44.12731" lon="7.20506">
        <ele>2129.157</ele>
        <time>2020-06-29T10:31:41Z</time>
      </trkpt>
      <trkpt lat="44.12731" lon="7.20506">
        <ele>2129.157</ele>
        <time>2020-06-29T10:31:57Z</time>
      </trkpt>
      <trkpt lat="44.12731" lon="7.20506">
        <ele>2129.157</ele>
        <time>2020-06-29T10:32:12Z</time>
      </trkpt>
      <trkpt lat="44.12731" lon="7.20506">
        <ele>2129.157</ele>
        <time>2020-06-29T10:32:28Z</time>
      </trkpt>
      <trkpt lat="44.12731" lon="7.20506">
        <ele>2129.157</ele>
        <time>2020-06-29T10:32:43Z</time>
      </trkpt>
      <trkpt lat="44.12732" lon="7.20506">
        <ele>2128.522</ele>
        <time>2020-06-29T10:32:59Z</time>
      </trkpt>
      <trkpt lat="44.12732" lon="7.20506">
        <ele>2128.522</ele>
        <time>2020-06-29T10:33:15Z</time>
      </trkpt>
      <trkpt lat="44.12733" lon="7.20502">
        <ele>2129.405</ele>
        <time>2020-06-29T10:33:31Z</time>
      </trkpt>
      <trkpt lat="44.12732" lon="7.20502">
        <ele>2135.562</ele>
        <time>2020-06-29T10:33:47Z</time>
      </trkpt>
      <trkpt lat="44.12731" lon="7.20503">
        <ele>2136.308</ele>
        <time>2020-06-29T10:34:02Z</time>
      </trkpt>
      <trkpt lat="44.12731" lon="7.20503">
        <ele>2136.699</ele>
        <time>2020-06-29T10:34:18Z</time>
      </trkpt>
      <trkpt lat="44.12731" lon="7.20503">
        <ele>2136.699</ele>
        <time>2020-06-29T10:34:33Z</time>
      </trkpt>
      <trkpt lat="44.12731" lon="7.20503">
        <ele>2136.699</ele>
        <time>2020-06-29T10:34:48Z</time>
      </trkpt>
      <trkpt lat="44.12731" lon="7.20503">
        <ele>2136.699</ele>
        <time>2020-06-29T10:35:03Z</time>
      </trkpt>
      <trkpt lat="44.12731" lon="7.20503">
        <ele>2136.699</ele>
        <time>2020-06-29T10:35:19Z</time>
      </trkpt>
      <trkpt lat="44.12731" lon="7.20503">
        <ele>2136.699</ele>
        <time>2020-06-29T10:35:34Z</time>
      </trkpt>
      <trkpt lat="44.12731" lon="7.20503">
        <ele>2136.699</ele>
        <time>2020-06-29T10:35:50Z</time>
      </trkpt>
      <trkpt lat="44.12731" lon="7.20503">
        <ele>2136.699</ele>
        <time>2020-06-29T10:36:05Z</time>
      </trkpt>
      <trkpt lat="44.12731" lon="7.20503">
        <ele>2136.699</ele>
        <time>2020-06-29T10:36:21Z</time>
      </trkpt>
      <trkpt lat="44.12728" lon="7.20501">
        <ele>2137.142</ele>
        <time>2020-06-29T10:36:36Z</time>
      </trkpt>
      <trkpt lat="44.12724" lon="7.20501">
        <ele>2139.925</ele>
        <time>2020-06-29T10:36:51Z</time>
      </trkpt>
      <trkpt lat="44.12725" lon="7.20504">
        <ele>2143.658</ele>
        <time>2020-06-29T10:37:07Z</time>
      </trkpt>
      <trkpt lat="44.12724" lon="7.20505">
        <ele>2144.64</ele>
        <time>2020-06-29T10:37:22Z</time>
      </trkpt>
      <trkpt lat="44.12724" lon="7.20505">
        <ele>2144.64</ele>
        <time>2020-06-29T10:37:38Z</time>
      </trkpt>
      <trkpt lat="44.12724" lon="7.20505">
        <ele>2144.64</ele>
        <time>2020-06-29T10:37:53Z</time>
      </trkpt>
      <trkpt lat="44.12724" lon="7.20505">
        <ele>2144.64</ele>
        <time>2020-06-29T10:38:08Z</time>
      </trkpt>
      <trkpt lat="44.12724" lon="7.20505">
        <ele>2144.64</ele>
        <time>2020-06-29T10:38:24Z</time>
      </trkpt>
      <trkpt lat="44.12724" lon="7.20505">
        <ele>2144.64</ele>
        <time>2020-06-29T10:38:40Z</time>
      </trkpt>
      <trkpt lat="44.12728" lon="7.20502">
        <ele>2151.556</ele>
        <time>2020-06-29T10:38:55Z</time>
      </trkpt>
      <trkpt lat="44.12739" lon="7.20507">
        <ele>2154.467</ele>
        <time>2020-06-29T10:39:11Z</time>
      </trkpt>
      <trkpt lat="44.12743" lon="7.20497">
        <ele>2157.319</ele>
        <time>2020-06-29T10:39:26Z</time>
      </trkpt>
      <trkpt lat="44.1274" lon="7.20501">
        <ele>2157.131</ele>
        <time>2020-06-29T10:39:42Z</time>
      </trkpt>
      <trkpt lat="44.12741" lon="7.20504">
        <ele>2158.376</ele>
        <time>2020-06-29T10:39:57Z</time>
      </trkpt>
      <trkpt lat="44.12741" lon="7.20504">
        <ele>2158.376</ele>
        <time>2020-06-29T10:40:13Z</time>
      </trkpt>
      <trkpt lat="44.12741" lon="7.20504">
        <ele>2158.376</ele>
        <time>2020-06-29T10:40:29Z</time>
      </trkpt>
      <trkpt lat="44.12741" lon="7.20504">
        <ele>2158.376</ele>
        <time>2020-06-29T10:40:44Z</time>
      </trkpt>
      <trkpt lat="44.12741" lon="7.20504">
        <ele>2158.376</ele>
        <time>2020-06-29T10:41:00Z</time>
      </trkpt>
      <trkpt lat="44.12741" lon="7.20504">
        <ele>2158.376</ele>
        <time>2020-06-29T10:41:15Z</time>
      </trkpt>
      <trkpt lat="44.12741" lon="7.20504">
        <ele>2158.376</ele>
        <time>2020-06-29T10:41:31Z</time>
      </trkpt>
      <trkpt lat="44.12741" lon="7.20504">
        <ele>2158.376</ele>
        <time>2020-06-29T10:41:46Z</time>
      </trkpt>
      <trkpt lat="44.12741" lon="7.20504">
        <ele>2158.376</ele>
        <time>2020-06-29T10:42:01Z</time>
      </trkpt>
      <trkpt lat="44.12741" lon="7.20504">
        <ele>2158.376</ele>
        <time>2020-06-29T10:42:17Z</time>
      </trkpt>
      <trkpt lat="44.12741" lon="7.20504">
        <ele>2158.376</ele>
        <time>2020-06-29T10:42:32Z</time>
      </trkpt>
      <trkpt lat="44.12741" lon="7.20504">
        <ele>2158.376</ele>
        <time>2020-06-29T10:42:48Z</time>
      </trkpt>
      <trkpt lat="44.12741" lon="7.20504">
        <ele>2158.376</ele>
        <time>2020-06-29T10:43:03Z</time>
      </trkpt>
      <trkpt lat="44.12738" lon="7.20505">
        <ele>2157.507</ele>
        <time>2020-06-29T10:43:18Z</time>
      </trkpt>
      <trkpt lat="44.12738" lon="7.20505">
        <ele>2157.507</ele>
        <time>2020-06-29T10:43:34Z</time>
      </trkpt>
      <trkpt lat="44.12738" lon="7.20505">
        <ele>2157.507</ele>
        <time>2020-06-29T10:43:50Z</time>
      </trkpt>
      <trkpt lat="44.12738" lon="7.20505">
        <ele>2157.507</ele>
        <time>2020-06-29T10:44:06Z</time>
      </trkpt>
      <trkpt lat="44.12738" lon="7.20505">
        <ele>2157.507</ele>
        <time>2020-06-29T10:44:21Z</time>
      </trkpt>
      <trkpt lat="44.12738" lon="7.20505">
        <ele>2157.507</ele>
        <time>2020-06-29T10:44:37Z</time>
      </trkpt>
      <trkpt lat="44.12738" lon="7.20505">
        <ele>2157.507</ele>
        <time>2020-06-29T10:44:53Z</time>
      </trkpt>
      <trkpt lat="44.12738" lon="7.20505">
        <ele>2157.507</ele>
        <time>2020-06-29T10:45:09Z</time>
      </trkpt>
      <trkpt lat="44.12738" lon="7.20505">
        <ele>2157.507</ele>
        <time>2020-06-29T10:45:24Z</time>
      </trkpt>
      <trkpt lat="44.12738" lon="7.20505">
        <ele>2157.507</ele>
        <time>2020-06-29T10:45:40Z</time>
      </trkpt>
      <trkpt lat="44.12738" lon="7.20505">
        <ele>2157.507</ele>
        <time>2020-06-29T10:45:56Z</time>
      </trkpt>
      <trkpt lat="44.12738" lon="7.20505">
        <ele>2157.507</ele>
        <time>2020-06-29T10:46:11Z</time>
      </trkpt>
      <trkpt lat="44.12738" lon="7.20505">
        <ele>2157.507</ele>
        <time>2020-06-29T10:46:27Z</time>
      </trkpt>
      <trkpt lat="44.12738" lon="7.20505">
        <ele>2157.507</ele>
        <time>2020-06-29T10:46:42Z</time>
      </trkpt>
      <trkpt lat="44.12738" lon="7.20505">
        <ele>2157.507</ele>
        <time>2020-06-29T10:46:57Z</time>
      </trkpt>
      <trkpt lat="44.12738" lon="7.20505">
        <ele>2157.507</ele>
        <time>2020-06-29T10:47:13Z</time>
      </trkpt>
      <trkpt lat="44.12738" lon="7.20505">
        <ele>2157.507</ele>
        <time>2020-06-29T10:47:28Z</time>
      </trkpt>
      <trkpt lat="44.12738" lon="7.20505">
        <ele>2157.507</ele>
        <time>2020-06-29T10:47:44Z</time>
      </trkpt>
      <trkpt lat="44.12738" lon="7.20505">
        <ele>2157.507</ele>
        <time>2020-06-29T10:48:00Z</time>
      </trkpt>
      <trkpt lat="44.12738" lon="7.20505">
        <ele>2157.507</ele>
        <time>2020-06-29T10:48:16Z</time>
      </trkpt>
      <trkpt lat="44.12738" lon="7.20505">
        <ele>2157.507</ele>
        <time>2020-06-29T10:48:32Z</time>
      </trkpt>
      <trkpt lat="44.12738" lon="7.20505">
        <ele>2157.507</ele>
        <time>2020-06-29T10:48:48Z</time>
      </trkpt>
      <trkpt lat="44.1274" lon="7.20503">
        <ele>2155.808</ele>
        <time>2020-06-29T10:49:03Z</time>
      </trkpt>
      <trkpt lat="44.1274" lon="7.20503">
        <ele>2155.808</ele>
        <time>2020-06-29T10:49:19Z</time>
      </trkpt>
      <trkpt lat="44.1274" lon="7.20503">
        <ele>2155.808</ele>
        <time>2020-06-29T10:49:35Z</time>
      </trkpt>
      <trkpt lat="44.1274" lon="7.20503">
        <ele>2155.808</ele>
        <time>2020-06-29T10:49:51Z</time>
      </trkpt>
      <trkpt lat="44.1274" lon="7.20503">
        <ele>2155.808</ele>
        <time>2020-06-29T10:50:07Z</time>
      </trkpt>
      <trkpt lat="44.1274" lon="7.20503">
        <ele>2155.808</ele>
        <time>2020-06-29T10:50:23Z</time>
      </trkpt>
      <trkpt lat="44.1274" lon="7.20503">
        <ele>2155.808</ele>
        <time>2020-06-29T10:50:38Z</time>
      </trkpt>
      <trkpt lat="44.1274" lon="7.20503">
        <ele>2155.808</ele>
        <time>2020-06-29T10:50:54Z</time>
      </trkpt>
      <trkpt lat="44.1274" lon="7.20503">
        <ele>2155.808</ele>
        <time>2020-06-29T10:51:09Z</time>
      </trkpt>
      <trkpt lat="44.1274" lon="7.20503">
        <ele>2155.808</ele>
        <time>2020-06-29T10:51:25Z</time>
      </trkpt>
      <trkpt lat="44.1274" lon="7.20503">
        <ele>2155.808</ele>
        <time>2020-06-29T10:51:41Z</time>
      </trkpt>
      <trkpt lat="44.1274" lon="7.20503">
        <ele>2155.808</ele>
        <time>2020-06-29T10:51:56Z</time>
      </trkpt>
      <trkpt lat="44.1274" lon="7.20503">
        <ele>2155.808</ele>
        <time>2020-06-29T10:52:12Z</time>
      </trkpt>
      <trkpt lat="44.1274" lon="7.20503">
        <ele>2155.808</ele>
        <time>2020-06-29T10:52:28Z</time>
      </trkpt>
      <trkpt lat="44.1274" lon="7.20503">
        <ele>2155.808</ele>
        <time>2020-06-29T10:52:43Z</time>
      </trkpt>
      <trkpt lat="44.1274" lon="7.20503">
        <ele>2155.808</ele>
        <time>2020-06-29T10:52:58Z</time>
      </trkpt>
      <trkpt lat="44.1274" lon="7.20503">
        <ele>2155.808</ele>
        <time>2020-06-29T10:53:14Z</time>
      </trkpt>
      <trkpt lat="44.1274" lon="7.20503">
        <ele>2155.808</ele>
        <time>2020-06-29T10:53:29Z</time>
      </trkpt>
      <trkpt lat="44.12742" lon="7.20502">
        <ele>2154.282</ele>
        <time>2020-06-29T10:53:45Z</time>
      </trkpt>
      <trkpt lat="44.12742" lon="7.20502">
        <ele>2154.282</ele>
        <time>2020-06-29T10:54:00Z</time>
      </trkpt>
      <trkpt lat="44.12742" lon="7.20502">
        <ele>2154.282</ele>
        <time>2020-06-29T10:54:16Z</time>
      </trkpt>
      <trkpt lat="44.12742" lon="7.20502">
        <ele>2154.282</ele>
        <time>2020-06-29T10:54:31Z</time>
      </trkpt>
      <trkpt lat="44.12742" lon="7.20502">
        <ele>2154.282</ele>
        <time>2020-06-29T10:54:46Z</time>
      </trkpt>
      <trkpt lat="44.12742" lon="7.20502">
        <ele>2154.282</ele>
        <time>2020-06-29T10:55:02Z</time>
      </trkpt>
      <trkpt lat="44.12741" lon="7.20503">
        <ele>2154.042</ele>
        <time>2020-06-29T10:55:17Z</time>
      </trkpt>
      <trkpt lat="44.12741" lon="7.20503">
        <ele>2154.042</ele>
        <time>2020-06-29T10:55:32Z</time>
      </trkpt>
      <trkpt lat="44.12741" lon="7.20503">
        <ele>2154.042</ele>
        <time>2020-06-29T10:55:48Z</time>
      </trkpt>
      <trkpt lat="44.12741" lon="7.20503">
        <ele>2154.042</ele>
        <time>2020-06-29T10:56:03Z</time>
      </trkpt>
      <trkpt lat="44.12741" lon="7.20503">
        <ele>2154.042</ele>
        <time>2020-06-29T10:56:19Z</time>
      </trkpt>
      <trkpt lat="44.12741" lon="7.20503">
        <ele>2154.042</ele>
        <time>2020-06-29T10:56:35Z</time>
      </trkpt>
      <trkpt lat="44.12741" lon="7.20503">
        <ele>2154.042</ele>
        <time>2020-06-29T10:56:51Z</time>
      </trkpt>
      <trkpt lat="44.12741" lon="7.20503">
        <ele>2154.042</ele>
        <time>2020-06-29T10:57:06Z</time>
      </trkpt>
      <trkpt lat="44.12741" lon="7.20503">
        <ele>2154.042</ele>
        <time>2020-06-29T10:57:22Z</time>
      </trkpt>
      <trkpt lat="44.12741" lon="7.20503">
        <ele>2154.042</ele>
        <time>2020-06-29T10:57:37Z</time>
      </trkpt>
      <trkpt lat="44.12744" lon="7.20506">
        <ele>2154.407</ele>
        <time>2020-06-29T10:57:53Z</time>
      </trkpt>
      <trkpt lat="44.12747" lon="7.20505">
        <ele>2153.188</ele>
        <time>2020-06-29T10:58:09Z</time>
      </trkpt>
      <trkpt lat="44.12747" lon="7.20505">
        <ele>2153.188</ele>
        <time>2020-06-29T10:58:24Z</time>
      </trkpt>
      <trkpt lat="44.12745" lon="7.20502">
        <ele>2149.793</ele>
        <time>2020-06-29T10:58:39Z</time>
      </trkpt>
      <trkpt lat="44.12745" lon="7.20502">
        <ele>2149.793</ele>
        <time>2020-06-29T10:58:55Z</time>
      </trkpt>
      <trkpt lat="44.12745" lon="7.20502">
        <ele>2149.793</ele>
        <time>2020-06-29T10:59:11Z</time>
      </trkpt>
      <trkpt lat="44.12745" lon="7.20502">
        <ele>2149.793</ele>
        <time>2020-06-29T10:59:27Z</time>
      </trkpt>
      <trkpt lat="44.12745" lon="7.20502">
        <ele>2149.793</ele>
        <time>2020-06-29T10:59:43Z</time>
      </trkpt>
      <trkpt lat="44.12745" lon="7.20502">
        <ele>2149.793</ele>
        <time>2020-06-29T10:59:59Z</time>
      </trkpt>
      <trkpt lat="44.12745" lon="7.20502">
        <ele>2149.793</ele>
        <time>2020-06-29T11:00:14Z</time>
      </trkpt>
      <trkpt lat="44.12745" lon="7.20502">
        <ele>2149.793</ele>
        <time>2020-06-29T11:00:30Z</time>
      </trkpt>
      <trkpt lat="44.12745" lon="7.20503">
        <ele>2148.424</ele>
        <time>2020-06-29T11:00:45Z</time>
      </trkpt>
      <trkpt lat="44.12745" lon="7.20503">
        <ele>2148.424</ele>
        <time>2020-06-29T11:01:01Z</time>
      </trkpt>
      <trkpt lat="44.12745" lon="7.20503">
        <ele>2148.424</ele>
        <time>2020-06-29T11:01:16Z</time>
      </trkpt>
      <trkpt lat="44.12745" lon="7.20503">
        <ele>2148.424</ele>
        <time>2020-06-29T11:01:31Z</time>
      </trkpt>
      <trkpt lat="44.12745" lon="7.20505">
        <ele>2147.493</ele>
        <time>2020-06-29T11:01:47Z</time>
      </trkpt>
      <trkpt lat="44.12742" lon="7.20503">
        <ele>2141.059</ele>
        <time>2020-06-29T11:02:03Z</time>
      </trkpt>
      <trkpt lat="44.12741" lon="7.20506">
        <ele>2140.235</ele>
        <time>2020-06-29T11:02:19Z</time>
      </trkpt>
      <trkpt lat="44.1274" lon="7.20506">
        <ele>2138.535</ele>
        <time>2020-06-29T11:02:35Z</time>
      </trkpt>
      <trkpt lat="44.1274" lon="7.20506">
        <ele>2138.535</ele>
        <time>2020-06-29T11:02:51Z</time>
      </trkpt>
      <trkpt lat="44.1274" lon="7.20506">
        <ele>2138.535</ele>
        <time>2020-06-29T11:03:07Z</time>
      </trkpt>
      <trkpt lat="44.1274" lon="7.20506">
        <ele>2138.535</ele>
        <time>2020-06-29T11:03:23Z</time>
      </trkpt>
      <trkpt lat="44.1274" lon="7.20506">
        <ele>2138.535</ele>
        <time>2020-06-29T11:03:38Z</time>
      </trkpt>
      <trkpt lat="44.1274" lon="7.20506">
        <ele>2138.535</ele>
        <time>2020-06-29T11:03:54Z</time>
      </trkpt>
      <trkpt lat="44.1274" lon="7.20506">
        <ele>2138.535</ele>
        <time>2020-06-29T11:04:10Z</time>
      </trkpt>
      <trkpt lat="44.1274" lon="7.20506">
        <ele>2138.535</ele>
        <time>2020-06-29T11:04:25Z</time>
      </trkpt>
      <trkpt lat="44.1274" lon="7.20506">
        <ele>2138.535</ele>
        <time>2020-06-29T11:04:41Z</time>
      </trkpt>
      <trkpt lat="44.1274" lon="7.20506">
        <ele>2138.535</ele>
        <time>2020-06-29T11:04:57Z</time>
      </trkpt>
      <trkpt lat="44.1274" lon="7.20506">
        <ele>2138.535</ele>
        <time>2020-06-29T11:05:13Z</time>
      </trkpt>
      <trkpt lat="44.1274" lon="7.20506">
        <ele>2138.535</ele>
        <time>2020-06-29T11:05:28Z</time>
      </trkpt>
      <trkpt lat="44.1274" lon="7.20506">
        <ele>2138.535</ele>
        <time>2020-06-29T11:05:44Z</time>
      </trkpt>
      <trkpt lat="44.1274" lon="7.20506">
        <ele>2138.535</ele>
        <time>2020-06-29T11:06:00Z</time>
      </trkpt>
      <trkpt lat="44.1274" lon="7.20506">
        <ele>2138.535</ele>
        <time>2020-06-29T11:06:16Z</time>
      </trkpt>
      <trkpt lat="44.1274" lon="7.20506">
        <ele>2138.535</ele>
        <time>2020-06-29T11:06:32Z</time>
      </trkpt>
      <trkpt lat="44.1274" lon="7.20506">
        <ele>2138.535</ele>
        <time>2020-06-29T11:06:48Z</time>
      </trkpt>
      <trkpt lat="44.1274" lon="7.20506">
        <ele>2138.535</ele>
        <time>2020-06-29T11:07:03Z</time>
      </trkpt>
      <trkpt lat="44.1274" lon="7.20506">
        <ele>2138.535</ele>
        <time>2020-06-29T11:07:19Z</time>
      </trkpt>
      <trkpt lat="44.1274" lon="7.20506">
        <ele>2138.535</ele>
        <time>2020-06-29T11:07:34Z</time>
      </trkpt>
      <trkpt lat="44.1274" lon="7.20506">
        <ele>2138.535</ele>
        <time>2020-06-29T11:07:49Z</time>
      </trkpt>
      <trkpt lat="44.1274" lon="7.20506">
        <ele>2138.535</ele>
        <time>2020-06-29T11:08:05Z</time>
      </trkpt>
      <trkpt lat="44.1274" lon="7.20506">
        <ele>2138.535</ele>
        <time>2020-06-29T11:08:21Z</time>
      </trkpt>
      <trkpt lat="44.1274" lon="7.20506">
        <ele>2138.535</ele>
        <time>2020-06-29T11:08:37Z</time>
      </trkpt>
      <trkpt lat="44.1274" lon="7.20506">
        <ele>2138.535</ele>
        <time>2020-06-29T11:08:53Z</time>
      </trkpt>
      <trkpt lat="44.1274" lon="7.20506">
        <ele>2138.535</ele>
        <time>2020-06-29T11:09:09Z</time>
      </trkpt>
      <trkpt lat="44.1274" lon="7.20509">
        <ele>2137.989</ele>
        <time>2020-06-29T11:09:25Z</time>
      </trkpt>
      <trkpt lat="44.12741" lon="7.2051">
        <ele>2138.015</ele>
        <time>2020-06-29T11:09:41Z</time>
      </trkpt>
      <trkpt lat="44.12741" lon="7.2051">
        <ele>2138.015</ele>
        <time>2020-06-29T11:09:57Z</time>
      </trkpt>
      <trkpt lat="44.12741" lon="7.2051">
        <ele>2138.015</ele>
        <time>2020-06-29T11:10:12Z</time>
      </trkpt>
      <trkpt lat="44.12739" lon="7.20508">
        <ele>2138.847</ele>
        <time>2020-06-29T11:10:27Z</time>
      </trkpt>
      <trkpt lat="44.1274" lon="7.20506">
        <ele>2137.564</ele>
        <time>2020-06-29T11:10:43Z</time>
      </trkpt>
      <trkpt lat="44.1274" lon="7.20506">
        <ele>2137.564</ele>
        <time>2020-06-29T11:10:59Z</time>
      </trkpt>
      <trkpt lat="44.12735" lon="7.20505">
        <ele>2137.108</ele>
        <time>2020-06-29T11:11:14Z</time>
      </trkpt>
      <trkpt lat="44.12735" lon="7.20503">
        <ele>2136.412</ele>
        <time>2020-06-29T11:11:30Z</time>
      </trkpt>
      <trkpt lat="44.12735" lon="7.20503">
        <ele>2136.412</ele>
        <time>2020-06-29T11:11:45Z</time>
      </trkpt>
      <trkpt lat="44.12737" lon="7.20503">
        <ele>2136.743</ele>
        <time>2020-06-29T11:12:01Z</time>
      </trkpt>
      <trkpt lat="44.12737" lon="7.20503">
        <ele>2139.413</ele>
        <time>2020-06-29T11:12:17Z</time>
      </trkpt>
      <trkpt lat="44.12746" lon="7.20506">
        <ele>2139.062</ele>
        <time>2020-06-29T11:12:33Z</time>
      </trkpt>
      <trkpt lat="44.12752" lon="7.20505">
        <ele>2137.472</ele>
        <time>2020-06-29T11:12:49Z</time>
      </trkpt>
      <trkpt lat="44.12729" lon="7.20513">
        <ele>2136.825</ele>
        <time>2020-06-29T11:13:04Z</time>
      </trkpt>
      <trkpt lat="44.12718" lon="7.20513">
        <ele>2139.143</ele>
        <time>2020-06-29T11:13:20Z</time>
      </trkpt>
      <trkpt lat="44.12706" lon="7.20514">
        <ele>2137.476</ele>
        <time>2020-06-29T11:13:35Z</time>
      </trkpt>
      <trkpt lat="44.12698" lon="7.20525">
        <ele>2134.741</ele>
        <time>2020-06-29T11:13:51Z</time>
      </trkpt>
      <trkpt lat="44.12688" lon="7.20532">
        <ele>2140.441</ele>
        <time>2020-06-29T11:14:06Z</time>
      </trkpt>
      <trkpt lat="44.12684" lon="7.20537">
        <ele>2139.131</ele>
        <time>2020-06-29T11:14:22Z</time>
      </trkpt>
      <trkpt lat="44.12682" lon="7.20539">
        <ele>2139.468</ele>
        <time>2020-06-29T11:14:38Z</time>
      </trkpt>
      <trkpt lat="44.12672" lon="7.20544">
        <ele>2143.305</ele>
        <time>2020-06-29T11:14:53Z</time>
      </trkpt>
      <trkpt lat="44.12661" lon="7.20554">
        <ele>2144.448</ele>
        <time>2020-06-29T11:15:09Z</time>
      </trkpt>
      <trkpt lat="44.12655" lon="7.20566">
        <ele>2144.162</ele>
        <time>2020-06-29T11:15:25Z</time>
      </trkpt>
      <trkpt lat="44.12649" lon="7.20579">
        <ele>2145.007</ele>
        <time>2020-06-29T11:15:40Z</time>
      </trkpt>
      <trkpt lat="44.12643" lon="7.20592">
        <ele>2146.1</ele>
        <time>2020-06-29T11:15:56Z</time>
      </trkpt>
      <trkpt lat="44.12639" lon="7.20605">
        <ele>2145.356</ele>
        <time>2020-06-29T11:16:11Z</time>
      </trkpt>
      <trkpt lat="44.1262" lon="7.20603">
        <ele>2141.383</ele>
        <time>2020-06-29T11:16:27Z</time>
      </trkpt>
      <trkpt lat="44.12612" lon="7.20615">
        <ele>2145.283</ele>
        <time>2020-06-29T11:16:42Z</time>
      </trkpt>
      <trkpt lat="44.12615" lon="7.20627">
        <ele>2147.616</ele>
        <time>2020-06-29T11:16:58Z</time>
      </trkpt>
      <trkpt lat="44.12614" lon="7.2063">
        <ele>2148.121</ele>
        <time>2020-06-29T11:17:13Z</time>
      </trkpt>
      <trkpt lat="44.12619" lon="7.20634">
        <ele>2151.68</ele>
        <time>2020-06-29T11:17:29Z</time>
      </trkpt>
      <trkpt lat="44.12623" lon="7.20642">
        <ele>2156.284</ele>
        <time>2020-06-29T11:17:45Z</time>
      </trkpt>
      <trkpt lat="44.12622" lon="7.20651">
        <ele>2166.067</ele>
        <time>2020-06-29T11:18:00Z</time>
      </trkpt>
      <trkpt lat="44.12608" lon="7.20652">
        <ele>2168.309</ele>
        <time>2020-06-29T11:18:16Z</time>
      </trkpt>
      <trkpt lat="44.12604" lon="7.20652">
        <ele>2169.207</ele>
        <time>2020-06-29T11:18:32Z</time>
      </trkpt>
      <trkpt lat="44.12593" lon="7.2065">
        <ele>2171.754</ele>
        <time>2020-06-29T11:18:48Z</time>
      </trkpt>
      <trkpt lat="44.12588" lon="7.20652">
        <ele>2172.636</ele>
        <time>2020-06-29T11:19:03Z</time>
      </trkpt>
      <trkpt lat="44.12594" lon="7.20661">
        <ele>2170.567</ele>
        <time>2020-06-29T11:19:19Z</time>
      </trkpt>
      <trkpt lat="44.12612" lon="7.20669">
        <ele>2172.383</ele>
        <time>2020-06-29T11:19:34Z</time>
      </trkpt>
      <trkpt lat="44.12604" lon="7.20674">
        <ele>2173.178</ele>
        <time>2020-06-29T11:19:50Z</time>
      </trkpt>
      <trkpt lat="44.12597" lon="7.20672">
        <ele>2174.783</ele>
        <time>2020-06-29T11:20:05Z</time>
      </trkpt>
      <trkpt lat="44.12585" lon="7.20671">
        <ele>2176.442</ele>
        <time>2020-06-29T11:20:20Z</time>
      </trkpt>
      <trkpt lat="44.12577" lon="7.20667">
        <ele>2181.512</ele>
        <time>2020-06-29T11:20:35Z</time>
      </trkpt>
      <trkpt lat="44.12575" lon="7.20667">
        <ele>2180.689</ele>
        <time>2020-06-29T11:20:51Z</time>
      </trkpt>
      <trkpt lat="44.12573" lon="7.20667">
        <ele>2182.206</ele>
        <time>2020-06-29T11:21:07Z</time>
      </trkpt>
      <trkpt lat="44.12567" lon="7.20664">
        <ele>2183.167</ele>
        <time>2020-06-29T11:21:22Z</time>
      </trkpt>
      <trkpt lat="44.12554" lon="7.20664">
        <ele>2184.302</ele>
        <time>2020-06-29T11:21:38Z</time>
      </trkpt>
      <trkpt lat="44.12544" lon="7.20669">
        <ele>2184.412</ele>
        <time>2020-06-29T11:21:54Z</time>
      </trkpt>
      <trkpt lat="44.12528" lon="7.20669">
        <ele>2189.476</ele>
        <time>2020-06-29T11:22:10Z</time>
      </trkpt>
      <trkpt lat="44.12529" lon="7.20674">
        <ele>2189.885</ele>
        <time>2020-06-29T11:22:25Z</time>
      </trkpt>
      <trkpt lat="44.1252" lon="7.20674">
        <ele>2188.141</ele>
        <time>2020-06-29T11:22:41Z</time>
      </trkpt>
      <trkpt lat="44.12496" lon="7.20675">
        <ele>2185.152</ele>
        <time>2020-06-29T11:22:56Z</time>
      </trkpt>
      <trkpt lat="44.1248" lon="7.20687">
        <ele>2186.225</ele>
        <time>2020-06-29T11:23:12Z</time>
      </trkpt>
      <trkpt lat="44.1247" lon="7.20691">
        <ele>2189.334</ele>
        <time>2020-06-29T11:23:28Z</time>
      </trkpt>
      <trkpt lat="44.12461" lon="7.20705">
        <ele>2196.619</ele>
        <time>2020-06-29T11:23:43Z</time>
      </trkpt>
      <trkpt lat="44.12454" lon="7.20715">
        <ele>2195.25</ele>
        <time>2020-06-29T11:23:59Z</time>
      </trkpt>
      <trkpt lat="44.1244" lon="7.20718">
        <ele>2195.81</ele>
        <time>2020-06-29T11:24:15Z</time>
      </trkpt>
      <trkpt lat="44.12427" lon="7.20724">
        <ele>2198.833</ele>
        <time>2020-06-29T11:24:31Z</time>
      </trkpt>
      <trkpt lat="44.12418" lon="7.20738">
        <ele>2197.551</ele>
        <time>2020-06-29T11:24:47Z</time>
      </trkpt>
      <trkpt lat="44.12406" lon="7.20747">
        <ele>2196.225</ele>
        <time>2020-06-29T11:25:02Z</time>
      </trkpt>
      <trkpt lat="44.12399" lon="7.2076">
        <ele>2200.618</ele>
        <time>2020-06-29T11:25:18Z</time>
      </trkpt>
      <trkpt lat="44.12391" lon="7.20766">
        <ele>2204.37</ele>
        <time>2020-06-29T11:25:34Z</time>
      </trkpt>
      <trkpt lat="44.12386" lon="7.20768">
        <ele>2206.074</ele>
        <time>2020-06-29T11:25:49Z</time>
      </trkpt>
      <trkpt lat="44.12384" lon="7.20783">
        <ele>2211.608</ele>
        <time>2020-06-29T11:26:04Z</time>
      </trkpt>
      <trkpt lat="44.12381" lon="7.20787">
        <ele>2211.373</ele>
        <time>2020-06-29T11:26:19Z</time>
      </trkpt>
      <trkpt lat="44.12378" lon="7.20788">
        <ele>2212.919</ele>
        <time>2020-06-29T11:26:35Z</time>
      </trkpt>
      <trkpt lat="44.12376" lon="7.20784">
        <ele>2214.218</ele>
        <time>2020-06-29T11:26:51Z</time>
      </trkpt>
      <trkpt lat="44.12372" lon="7.20787">
        <ele>2214.619</ele>
        <time>2020-06-29T11:27:07Z</time>
      </trkpt>
      <trkpt lat="44.1234" lon="7.20781">
        <ele>2220.308</ele>
        <time>2020-06-29T11:27:22Z</time>
      </trkpt>
      <trkpt lat="44.1233" lon="7.20771">
        <ele>2219.57</ele>
        <time>2020-06-29T11:27:38Z</time>
      </trkpt>
      <trkpt lat="44.12333" lon="7.20755">
        <ele>2216.429</ele>
        <time>2020-06-29T11:27:53Z</time>
      </trkpt>
      <trkpt lat="44.12337" lon="7.20739">
        <ele>2218.576</ele>
        <time>2020-06-29T11:28:09Z</time>
      </trkpt>
      <trkpt lat="44.12341" lon="7.20729">
        <ele>2222.099</ele>
        <time>2020-06-29T11:28:25Z</time>
      </trkpt>
      <trkpt lat="44.12349" lon="7.2072">
        <ele>2225.915</ele>
        <time>2020-06-29T11:28:40Z</time>
      </trkpt>
      <trkpt lat="44.12356" lon="7.20705">
        <ele>2226.541</ele>
        <time>2020-06-29T11:28:56Z</time>
      </trkpt>
      <trkpt lat="44.12367" lon="7.20691">
        <ele>2227.463</ele>
        <time>2020-06-29T11:29:11Z</time>
      </trkpt>
      <trkpt lat="44.12359" lon="7.20678">
        <ele>2229.324</ele>
        <time>2020-06-29T11:29:27Z</time>
      </trkpt>
      <trkpt lat="44.12355" lon="7.20673">
        <ele>2230.047</ele>
        <time>2020-06-29T11:29:43Z</time>
      </trkpt>
      <trkpt lat="44.12352" lon="7.20669">
        <ele>2230.875</ele>
        <time>2020-06-29T11:29:58Z</time>
      </trkpt>
      <trkpt lat="44.12341" lon="7.20666">
        <ele>2232.608</ele>
        <time>2020-06-29T11:30:14Z</time>
      </trkpt>
      <trkpt lat="44.12332" lon="7.2067">
        <ele>2233.972</ele>
        <time>2020-06-29T11:30:30Z</time>
      </trkpt>
      <trkpt lat="44.12325" lon="7.20677">
        <ele>2234.591</ele>
        <time>2020-06-29T11:30:46Z</time>
      </trkpt>
      <trkpt lat="44.12321" lon="7.20678">
        <ele>2236.586</ele>
        <time>2020-06-29T11:31:02Z</time>
      </trkpt>
      <trkpt lat="44.12317" lon="7.20679">
        <ele>2237.561</ele>
        <time>2020-06-29T11:31:18Z</time>
      </trkpt>
      <trkpt lat="44.12316" lon="7.20684">
        <ele>2240.014</ele>
        <time>2020-06-29T11:31:33Z</time>
      </trkpt>
      <trkpt lat="44.12316" lon="7.20684">
        <ele>2240.014</ele>
        <time>2020-06-29T11:31:49Z</time>
      </trkpt>
      <trkpt lat="44.12316" lon="7.20684">
        <ele>2240.014</ele>
        <time>2020-06-29T11:32:04Z</time>
      </trkpt>
      <trkpt lat="44.12316" lon="7.20684">
        <ele>2240.014</ele>
        <time>2020-06-29T11:32:20Z</time>
      </trkpt>
      <trkpt lat="44.12317" lon="7.20686">
        <ele>2240.336</ele>
        <time>2020-06-29T11:32:36Z</time>
      </trkpt>
      <trkpt lat="44.12317" lon="7.20686">
        <ele>2240.336</ele>
        <time>2020-06-29T11:32:51Z</time>
      </trkpt>
      <trkpt lat="44.12317" lon="7.20686">
        <ele>2240.336</ele>
        <time>2020-06-29T11:33:06Z</time>
      </trkpt>
      <trkpt lat="44.1231" lon="7.2067">
        <ele>2241.531</ele>
        <time>2020-06-29T11:33:22Z</time>
      </trkpt>
      <trkpt lat="44.12307" lon="7.20651">
        <ele>2245.17</ele>
        <time>2020-06-29T11:33:37Z</time>
      </trkpt>
      <trkpt lat="44.12301" lon="7.2065">
        <ele>2247.826</ele>
        <time>2020-06-29T11:33:53Z</time>
      </trkpt>
      <trkpt lat="44.12298" lon="7.20643">
        <ele>2250.505</ele>
        <time>2020-06-29T11:34:09Z</time>
      </trkpt>
      <trkpt lat="44.12297" lon="7.20643">
        <ele>2250.659</ele>
        <time>2020-06-29T11:34:25Z</time>
      </trkpt>
      <trkpt lat="44.12294" lon="7.20646">
        <ele>2254.64</ele>
        <time>2020-06-29T11:34:41Z</time>
      </trkpt>
      <trkpt lat="44.12288" lon="7.2066">
        <ele>2261.517</ele>
        <time>2020-06-29T11:34:57Z</time>
      </trkpt>
      <trkpt lat="44.12278" lon="7.20668">
        <ele>2262.114</ele>
        <time>2020-06-29T11:35:13Z</time>
      </trkpt>
      <trkpt lat="44.12265" lon="7.20679">
        <ele>2264.606</ele>
        <time>2020-06-29T11:35:29Z</time>
      </trkpt>
      <trkpt lat="44.12252" lon="7.20688">
        <ele>2266.658</ele>
        <time>2020-06-29T11:35:45Z</time>
      </trkpt>
      <trkpt lat="44.12239" lon="7.20695">
        <ele>2265.891</ele>
        <time>2020-06-29T11:36:00Z</time>
      </trkpt>
      <trkpt lat="44.12231" lon="7.20697">
        <ele>2266.745</ele>
        <time>2020-06-29T11:36:16Z</time>
      </trkpt>
      <trkpt lat="44.12224" lon="7.20689">
        <ele>2268.835</ele>
        <time>2020-06-29T11:36:31Z</time>
      </trkpt>
      <trkpt lat="44.12219" lon="7.20673">
        <ele>2272.508</ele>
        <time>2020-06-29T11:36:47Z</time>
      </trkpt>
      <trkpt lat="44.12217" lon="7.2067">
        <ele>2273.193</ele>
        <time>2020-06-29T11:37:03Z</time>
      </trkpt>
      <trkpt lat="44.12217" lon="7.2067">
        <ele>2273.193</ele>
        <time>2020-06-29T11:37:19Z</time>
      </trkpt>
      <trkpt lat="44.12217" lon="7.2067">
        <ele>2273.667</ele>
        <time>2020-06-29T11:37:34Z</time>
      </trkpt>
      <trkpt lat="44.12218" lon="7.2067">
        <ele>2274.266</ele>
        <time>2020-06-29T11:37:49Z</time>
      </trkpt>
      <trkpt lat="44.1222" lon="7.20671">
        <ele>2273.061</ele>
        <time>2020-06-29T11:38:05Z</time>
      </trkpt>
      <trkpt lat="44.12209" lon="7.2066">
        <ele>2277.284</ele>
        <time>2020-06-29T11:38:21Z</time>
      </trkpt>
      <trkpt lat="44.12215" lon="7.2065">
        <ele>2278.999</ele>
        <time>2020-06-29T11:38:37Z</time>
      </trkpt>
      <trkpt lat="44.12214" lon="7.20652">
        <ele>2278.031</ele>
        <time>2020-06-29T11:38:53Z</time>
      </trkpt>
      <trkpt lat="44.12214" lon="7.20652">
        <ele>2278.031</ele>
        <time>2020-06-29T11:39:08Z</time>
      </trkpt>
      <trkpt lat="44.12214" lon="7.20652">
        <ele>2278.031</ele>
        <time>2020-06-29T11:39:24Z</time>
      </trkpt>
      <trkpt lat="44.12214" lon="7.20652">
        <ele>2278.031</ele>
        <time>2020-06-29T11:39:39Z</time>
      </trkpt>
      <trkpt lat="44.12214" lon="7.20652">
        <ele>2278.031</ele>
        <time>2020-06-29T11:39:55Z</time>
      </trkpt>
      <trkpt lat="44.12214" lon="7.20652">
        <ele>2278.031</ele>
        <time>2020-06-29T11:40:11Z</time>
      </trkpt>
      <trkpt lat="44.12214" lon="7.20652">
        <ele>2278.031</ele>
        <time>2020-06-29T11:40:26Z</time>
      </trkpt>
      <trkpt lat="44.12214" lon="7.20652">
        <ele>2278.031</ele>
        <time>2020-06-29T11:40:42Z</time>
      </trkpt>
      <trkpt lat="44.12214" lon="7.20652">
        <ele>2278.031</ele>
        <time>2020-06-29T11:40:58Z</time>
      </trkpt>
      <trkpt lat="44.12214" lon="7.20652">
        <ele>2278.031</ele>
        <time>2020-06-29T11:41:13Z</time>
      </trkpt>
      <trkpt lat="44.12214" lon="7.20652">
        <ele>2278.031</ele>
        <time>2020-06-29T11:41:29Z</time>
      </trkpt>
      <trkpt lat="44.12214" lon="7.20652">
        <ele>2278.031</ele>
        <time>2020-06-29T11:41:45Z</time>
      </trkpt>
      <trkpt lat="44.12214" lon="7.20652">
        <ele>2278.031</ele>
        <time>2020-06-29T11:42:01Z</time>
      </trkpt>
      <trkpt lat="44.12214" lon="7.20652">
        <ele>2278.031</ele>
        <time>2020-06-29T11:42:16Z</time>
      </trkpt>
      <trkpt lat="44.12214" lon="7.20652">
        <ele>2278.031</ele>
        <time>2020-06-29T11:42:32Z</time>
      </trkpt>
      <trkpt lat="44.12214" lon="7.20652">
        <ele>2278.031</ele>
        <time>2020-06-29T11:42:48Z</time>
      </trkpt>
      <trkpt lat="44.12214" lon="7.20652">
        <ele>2278.031</ele>
        <time>2020-06-29T11:43:04Z</time>
      </trkpt>
      <trkpt lat="44.12215" lon="7.20651">
        <ele>2278.342</ele>
        <time>2020-06-29T11:43:20Z</time>
      </trkpt>
      <trkpt lat="44.12215" lon="7.20651">
        <ele>2278.342</ele>
        <time>2020-06-29T11:43:36Z</time>
      </trkpt>
      <trkpt lat="44.12216" lon="7.20653">
        <ele>2278.149</ele>
        <time>2020-06-29T11:43:52Z</time>
      </trkpt>
      <trkpt lat="44.12217" lon="7.20652">
        <ele>2278.58</ele>
        <time>2020-06-29T11:44:08Z</time>
      </trkpt>
      <trkpt lat="44.12217" lon="7.20652">
        <ele>2278.58</ele>
        <time>2020-06-29T11:44:24Z</time>
      </trkpt>
      <trkpt lat="44.12217" lon="7.20652">
        <ele>2278.58</ele>
        <time>2020-06-29T11:44:39Z</time>
      </trkpt>
      <trkpt lat="44.12217" lon="7.20652">
        <ele>2278.58</ele>
        <time>2020-06-29T11:44:55Z</time>
      </trkpt>
      <trkpt lat="44.12217" lon="7.20652">
        <ele>2278.58</ele>
        <time>2020-06-29T11:45:11Z</time>
      </trkpt>
      <trkpt lat="44.12216" lon="7.20651">
        <ele>2278.375</ele>
        <time>2020-06-29T11:45:26Z</time>
      </trkpt>
      <trkpt lat="44.12211" lon="7.20659">
        <ele>2279.718</ele>
        <time>2020-06-29T11:45:42Z</time>
      </trkpt>
      <trkpt lat="44.12211" lon="7.20659">
        <ele>2279.718</ele>
        <time>2020-06-29T11:45:57Z</time>
      </trkpt>
      <trkpt lat="44.12205" lon="7.2066">
        <ele>2278.598</ele>
        <time>2020-06-29T11:46:12Z</time>
      </trkpt>
      <trkpt lat="44.12193" lon="7.20663">
        <ele>2275.142</ele>
        <time>2020-06-29T11:46:28Z</time>
      </trkpt>
      <trkpt lat="44.12186" lon="7.20664">
        <ele>2273.213</ele>
        <time>2020-06-29T11:46:43Z</time>
      </trkpt>
      <trkpt lat="44.12174" lon="7.20652">
        <ele>2268.746</ele>
        <time>2020-06-29T11:46:59Z</time>
      </trkpt>
      <trkpt lat="44.12168" lon="7.20636">
        <ele>2268.459</ele>
        <time>2020-06-29T11:47:14Z</time>
      </trkpt>
      <trkpt lat="44.12168" lon="7.20636">
        <ele>2268.459</ele>
        <time>2020-06-29T11:47:30Z</time>
      </trkpt>
      <trkpt lat="44.12156" lon="7.2062">
        <ele>2273.173</ele>
        <time>2020-06-29T11:47:46Z</time>
      </trkpt>
      <trkpt lat="44.12147" lon="7.20609">
        <ele>2277.46</ele>
        <time>2020-06-29T11:48:02Z</time>
      </trkpt>
      <trkpt lat="44.12135" lon="7.20614">
        <ele>2285.42</ele>
        <time>2020-06-29T11:48:18Z</time>
      </trkpt>
      <trkpt lat="44.12123" lon="7.20621">
        <ele>2289.291</ele>
        <time>2020-06-29T11:48:34Z</time>
      </trkpt>
      <trkpt lat="44.12115" lon="7.20627">
        <ele>2291.922</ele>
        <time>2020-06-29T11:48:50Z</time>
      </trkpt>
      <trkpt lat="44.12109" lon="7.2063">
        <ele>2292.759</ele>
        <time>2020-06-29T11:49:05Z</time>
      </trkpt>
      <trkpt lat="44.12095" lon="7.2063">
        <ele>2291.213</ele>
        <time>2020-06-29T11:49:21Z</time>
      </trkpt>
      <trkpt lat="44.12081" lon="7.20628">
        <ele>2288.634</ele>
        <time>2020-06-29T11:49:37Z</time>
      </trkpt>
      <trkpt lat="44.1209" lon="7.20619">
        <ele>2293.799</ele>
        <time>2020-06-29T11:49:53Z</time>
      </trkpt>
      <trkpt lat="44.12092" lon="7.20614">
        <ele>2296.45</ele>
        <time>2020-06-29T11:50:09Z</time>
      </trkpt>
      <trkpt lat="44.12089" lon="7.20612">
        <ele>2296.252</ele>
        <time>2020-06-29T11:50:25Z</time>
      </trkpt>
      <trkpt lat="44.1209" lon="7.20609">
        <ele>2296.513</ele>
        <time>2020-06-29T11:50:40Z</time>
      </trkpt>
      <trkpt lat="44.12079" lon="7.20603">
        <ele>2300.751</ele>
        <time>2020-06-29T11:50:55Z</time>
      </trkpt>
      <trkpt lat="44.12064" lon="7.206">
        <ele>2298.832</ele>
        <time>2020-06-29T11:51:11Z</time>
      </trkpt>
      <trkpt lat="44.12064" lon="7.20591">
        <ele>2299.409</ele>
        <time>2020-06-29T11:51:27Z</time>
      </trkpt>
      <trkpt lat="44.12074" lon="7.20577">
        <ele>2304.662</ele>
        <time>2020-06-29T11:51:42Z</time>
      </trkpt>
      <trkpt lat="44.12076" lon="7.20565">
        <ele>2306.968</ele>
        <time>2020-06-29T11:51:58Z</time>
      </trkpt>
      <trkpt lat="44.12065" lon="7.20557">
        <ele>2307.69</ele>
        <time>2020-06-29T11:52:13Z</time>
      </trkpt>
      <trkpt lat="44.12057" lon="7.20557">
        <ele>2310.611</ele>
        <time>2020-06-29T11:52:29Z</time>
      </trkpt>
      <trkpt lat="44.12048" lon="7.20557">
        <ele>2309.989</ele>
        <time>2020-06-29T11:52:44Z</time>
      </trkpt>
      <trkpt lat="44.12048" lon="7.20557">
        <ele>2309.989</ele>
        <time>2020-06-29T11:52:59Z</time>
      </trkpt>
      <trkpt lat="44.12039" lon="7.2055">
        <ele>2312.078</ele>
        <time>2020-06-29T11:53:15Z</time>
      </trkpt>
      <trkpt lat="44.12032" lon="7.20547">
        <ele>2310.841</ele>
        <time>2020-06-29T11:53:30Z</time>
      </trkpt>
      <trkpt lat="44.12022" lon="7.20543">
        <ele>2311.667</ele>
        <time>2020-06-29T11:53:46Z</time>
      </trkpt>
      <trkpt lat="44.12013" lon="7.20538">
        <ele>2313.127</ele>
        <time>2020-06-29T11:54:02Z</time>
      </trkpt>
      <trkpt lat="44.11999" lon="7.20538">
        <ele>2314.803</ele>
        <time>2020-06-29T11:54:18Z</time>
      </trkpt>
      <trkpt lat="44.11993" lon="7.20543">
        <ele>2316.207</ele>
        <time>2020-06-29T11:54:33Z</time>
      </trkpt>
      <trkpt lat="44.11985" lon="7.20543">
        <ele>2323.946</ele>
        <time>2020-06-29T11:54:49Z</time>
      </trkpt>
      <trkpt lat="44.11973" lon="7.20543">
        <ele>2326.841</ele>
        <time>2020-06-29T11:55:04Z</time>
      </trkpt>
      <trkpt lat="44.11964" lon="7.2054">
        <ele>2326.908</ele>
        <time>2020-06-29T11:55:20Z</time>
      </trkpt>
      <trkpt lat="44.1196" lon="7.20533">
        <ele>2328.479</ele>
        <time>2020-06-29T11:55:35Z</time>
      </trkpt>
      <trkpt lat="44.11952" lon="7.20518">
        <ele>2333.077</ele>
        <time>2020-06-29T11:55:51Z</time>
      </trkpt>
      <trkpt lat="44.11958" lon="7.20507">
        <ele>2331.598</ele>
        <time>2020-06-29T11:56:06Z</time>
      </trkpt>
      <trkpt lat="44.11958" lon="7.20494">
        <ele>2333.465</ele>
        <time>2020-06-29T11:56:22Z</time>
      </trkpt>
      <trkpt lat="44.11954" lon="7.2049">
        <ele>2331.349</ele>
        <time>2020-06-29T11:56:38Z</time>
      </trkpt>
      <trkpt lat="44.11946" lon="7.20479">
        <ele>2330.076</ele>
        <time>2020-06-29T11:56:54Z</time>
      </trkpt>
      <trkpt lat="44.11936" lon="7.20463">
        <ele>2326.591</ele>
        <time>2020-06-29T11:57:10Z</time>
      </trkpt>
      <trkpt lat="44.1194" lon="7.20448">
        <ele>2318.091</ele>
        <time>2020-06-29T11:57:26Z</time>
      </trkpt>
      <trkpt lat="44.11938" lon="7.20441">
        <ele>2319.369</ele>
        <time>2020-06-29T11:57:42Z</time>
      </trkpt>
      <trkpt lat="44.11935" lon="7.20434">
        <ele>2319.718</ele>
        <time>2020-06-29T11:57:58Z</time>
      </trkpt>
      <trkpt lat="44.11929" lon="7.20435">
        <ele>2318.328</ele>
        <time>2020-06-29T11:58:13Z</time>
      </trkpt>
      <trkpt lat="44.11919" lon="7.20432">
        <ele>2317.522</ele>
        <time>2020-06-29T11:58:29Z</time>
      </trkpt>
      <trkpt lat="44.11917" lon="7.20429">
        <ele>2318.174</ele>
        <time>2020-06-29T11:58:44Z</time>
      </trkpt>
      <trkpt lat="44.11918" lon="7.2042">
        <ele>2320.779</ele>
        <time>2020-06-29T11:59:00Z</time>
      </trkpt>
      <trkpt lat="44.11921" lon="7.20408">
        <ele>2322.204</ele>
        <time>2020-06-29T11:59:15Z</time>
      </trkpt>
      <trkpt lat="44.11931" lon="7.20395">
        <ele>2318.996</ele>
        <time>2020-06-29T11:59:31Z</time>
      </trkpt>
      <trkpt lat="44.11924" lon="7.20392">
        <ele>2323.831</ele>
        <time>2020-06-29T11:59:47Z</time>
      </trkpt>
      <trkpt lat="44.11926" lon="7.20388">
        <ele>2325.385</ele>
        <time>2020-06-29T12:00:02Z</time>
      </trkpt>
      <trkpt lat="44.11926" lon="7.20388">
        <ele>2325.385</ele>
        <time>2020-06-29T12:00:18Z</time>
      </trkpt>
      <trkpt lat="44.1192" lon="7.20386">
        <ele>2326.618</ele>
        <time>2020-06-29T12:00:33Z</time>
      </trkpt>
      <trkpt lat="44.11914" lon="7.20383">
        <ele>2329.579</ele>
        <time>2020-06-29T12:00:49Z</time>
      </trkpt>
      <trkpt lat="44.11914" lon="7.20383">
        <ele>2329.579</ele>
        <time>2020-06-29T12:01:05Z</time>
      </trkpt>
      <trkpt lat="44.11895" lon="7.20381">
        <ele>2331.099</ele>
        <time>2020-06-29T12:01:21Z</time>
      </trkpt>
      <trkpt lat="44.11882" lon="7.20375">
        <ele>2338.673</ele>
        <time>2020-06-29T12:01:36Z</time>
      </trkpt>
      <trkpt lat="44.11877" lon="7.20361">
        <ele>2341.153</ele>
        <time>2020-06-29T12:01:52Z</time>
      </trkpt>
      <trkpt lat="44.11873" lon="7.20354">
        <ele>2344.271</ele>
        <time>2020-06-29T12:02:08Z</time>
      </trkpt>
      <trkpt lat="44.11863" lon="7.20346">
        <ele>2344.276</ele>
        <time>2020-06-29T12:02:23Z</time>
      </trkpt>
      <trkpt lat="44.11857" lon="7.20335">
        <ele>2341.253</ele>
        <time>2020-06-29T12:02:38Z</time>
      </trkpt>
      <trkpt lat="44.11854" lon="7.20331">
        <ele>2343.204</ele>
        <time>2020-06-29T12:02:54Z</time>
      </trkpt>
      <trkpt lat="44.11851" lon="7.20327">
        <ele>2343.055</ele>
        <time>2020-06-29T12:03:10Z</time>
      </trkpt>
      <trkpt lat="44.11851" lon="7.20327">
        <ele>2343.055</ele>
        <time>2020-06-29T12:03:25Z</time>
      </trkpt>
      <trkpt lat="44.11851" lon="7.20327">
        <ele>2343.055</ele>
        <time>2020-06-29T12:03:41Z</time>
      </trkpt>
      <trkpt lat="44.11842" lon="7.20317">
        <ele>2344.686</ele>
        <time>2020-06-29T12:03:57Z</time>
      </trkpt>
      <trkpt lat="44.11829" lon="7.20306">
        <ele>2349.568</ele>
        <time>2020-06-29T12:04:13Z</time>
      </trkpt>
      <trkpt lat="44.11819" lon="7.203">
        <ele>2354.823</ele>
        <time>2020-06-29T12:04:29Z</time>
      </trkpt>
      <trkpt lat="44.11812" lon="7.20296">
        <ele>2352.929</ele>
        <time>2020-06-29T12:04:44Z</time>
      </trkpt>
      <trkpt lat="44.11805" lon="7.20289">
        <ele>2353.778</ele>
        <time>2020-06-29T12:04:59Z</time>
      </trkpt>
      <trkpt lat="44.11808" lon="7.20282">
        <ele>2351.038</ele>
        <time>2020-06-29T12:05:15Z</time>
      </trkpt>
      <trkpt lat="44.11814" lon="7.20272">
        <ele>2355.502</ele>
        <time>2020-06-29T12:05:30Z</time>
      </trkpt>
      <trkpt lat="44.1182" lon="7.20261">
        <ele>2364.935</ele>
        <time>2020-06-29T12:05:46Z</time>
      </trkpt>
      <trkpt lat="44.11825" lon="7.20264">
        <ele>2371.317</ele>
        <time>2020-06-29T12:06:01Z</time>
      </trkpt>
      <trkpt lat="44.11833" lon="7.20258">
        <ele>2376.023</ele>
        <time>2020-06-29T12:06:17Z</time>
      </trkpt>
      <trkpt lat="44.11825" lon="7.20255">
        <ele>2390.746</ele>
        <time>2020-06-29T12:06:32Z</time>
      </trkpt>
      <trkpt lat="44.1182" lon="7.20256">
        <ele>2394.704</ele>
        <time>2020-06-29T12:06:48Z</time>
      </trkpt>
      <trkpt lat="44.11816" lon="7.20253">
        <ele>2402.305</ele>
        <time>2020-06-29T12:07:03Z</time>
      </trkpt>
      <trkpt lat="44.11808" lon="7.20248">
        <ele>2406.774</ele>
        <time>2020-06-29T12:07:19Z</time>
      </trkpt>
      <trkpt lat="44.11804" lon="7.20247">
        <ele>2410.296</ele>
        <time>2020-06-29T12:07:34Z</time>
      </trkpt>
      <trkpt lat="44.11795" lon="7.20249">
        <ele>2413.341</ele>
        <time>2020-06-29T12:07:49Z</time>
      </trkpt>
      <trkpt lat="44.11783" lon="7.20243">
        <ele>2418.755</ele>
        <time>2020-06-29T12:08:04Z</time>
      </trkpt>
      <trkpt lat="44.11775" lon="7.20237">
        <ele>2422.736</ele>
        <time>2020-06-29T12:08:20Z</time>
      </trkpt>
      <trkpt lat="44.11768" lon="7.2023">
        <ele>2427.989</ele>
        <time>2020-06-29T12:08:36Z</time>
      </trkpt>
      <trkpt lat="44.11762" lon="7.20229">
        <ele>2430.483</ele>
        <time>2020-06-29T12:08:52Z</time>
      </trkpt>
      <trkpt lat="44.11762" lon="7.20229">
        <ele>2430.483</ele>
        <time>2020-06-29T12:09:08Z</time>
      </trkpt>
      <trkpt lat="44.11762" lon="7.20224">
        <ele>2430.463</ele>
        <time>2020-06-29T12:09:24Z</time>
      </trkpt>
      <trkpt lat="44.11762" lon="7.20219">
        <ele>2429.965</ele>
        <time>2020-06-29T12:09:40Z</time>
      </trkpt>
      <trkpt lat="44.11765" lon="7.20212">
        <ele>2429.653</ele>
        <time>2020-06-29T12:09:56Z</time>
      </trkpt>
      <trkpt lat="44.11764" lon="7.20209">
        <ele>2431.951</ele>
        <time>2020-06-29T12:10:12Z</time>
      </trkpt>
      <trkpt lat="44.11759" lon="7.20202">
        <ele>2435.359</ele>
        <time>2020-06-29T12:10:28Z</time>
      </trkpt>
      <trkpt lat="44.1176" lon="7.20199">
        <ele>2434.393</ele>
        <time>2020-06-29T12:10:43Z</time>
      </trkpt>
      <trkpt lat="44.11772" lon="7.20187">
        <ele>2433.482</ele>
        <time>2020-06-29T12:10:59Z</time>
      </trkpt>
      <trkpt lat="44.11773" lon="7.20182">
        <ele>2436.474</ele>
        <time>2020-06-29T12:11:15Z</time>
      </trkpt>
      <trkpt lat="44.11773" lon="7.20181">
        <ele>2437.639</ele>
        <time>2020-06-29T12:11:31Z</time>
      </trkpt>
      <trkpt lat="44.1178" lon="7.20177">
        <ele>2437.987</ele>
        <time>2020-06-29T12:11:47Z</time>
      </trkpt>
      <trkpt lat="44.1178" lon="7.20174">
        <ele>2439.807</ele>
        <time>2020-06-29T12:12:02Z</time>
      </trkpt>
      <trkpt lat="44.11773" lon="7.20173">
        <ele>2445.505</ele>
        <time>2020-06-29T12:12:17Z</time>
      </trkpt>
      <trkpt lat="44.11768" lon="7.20173">
        <ele>2448.464</ele>
        <time>2020-06-29T12:12:32Z</time>
      </trkpt>
      <trkpt lat="44.1176" lon="7.20175">
        <ele>2452.369</ele>
        <time>2020-06-29T12:12:48Z</time>
      </trkpt>
      <trkpt lat="44.11758" lon="7.20171">
        <ele>2452.862</ele>
        <time>2020-06-29T12:13:04Z</time>
      </trkpt>
      <trkpt lat="44.11755" lon="7.20168">
        <ele>2454.299</ele>
        <time>2020-06-29T12:13:20Z</time>
      </trkpt>
      <trkpt lat="44.11752" lon="7.20167">
        <ele>2458.934</ele>
        <time>2020-06-29T12:13:35Z</time>
      </trkpt>
      <trkpt lat="44.11755" lon="7.20161">
        <ele>2459.039</ele>
        <time>2020-06-29T12:13:51Z</time>
      </trkpt>
      <trkpt lat="44.11759" lon="7.20154">
        <ele>2458.873</ele>
        <time>2020-06-29T12:14:06Z</time>
      </trkpt>
      <trkpt lat="44.11753" lon="7.20149">
        <ele>2464.928</ele>
        <time>2020-06-29T12:14:21Z</time>
      </trkpt>
      <trkpt lat="44.11744" lon="7.20156">
        <ele>2469.852</ele>
        <time>2020-06-29T12:14:37Z</time>
      </trkpt>
      <trkpt lat="44.11736" lon="7.20159">
        <ele>2472.188</ele>
        <time>2020-06-29T12:14:53Z</time>
      </trkpt>
      <trkpt lat="44.1173" lon="7.20164">
        <ele>2472.757</ele>
        <time>2020-06-29T12:15:09Z</time>
      </trkpt>
      <trkpt lat="44.11723" lon="7.20172">
        <ele>2475.092</ele>
        <time>2020-06-29T12:15:24Z</time>
      </trkpt>
      <trkpt lat="44.11718" lon="7.20175">
        <ele>2475.493</ele>
        <time>2020-06-29T12:15:40Z</time>
      </trkpt>
      <trkpt lat="44.11716" lon="7.20175">
        <ele>2475.447</ele>
        <time>2020-06-29T12:15:56Z</time>
      </trkpt>
      <trkpt lat="44.11714" lon="7.20177">
        <ele>2475.87</ele>
        <time>2020-06-29T12:16:11Z</time>
      </trkpt>
      <trkpt lat="44.11714" lon="7.20176">
        <ele>2475.913</ele>
        <time>2020-06-29T12:16:27Z</time>
      </trkpt>
      <trkpt lat="44.11706" lon="7.20172">
        <ele>2481.563</ele>
        <time>2020-06-29T12:16:42Z</time>
      </trkpt>
      <trkpt lat="44.11705" lon="7.20175">
        <ele>2482.679</ele>
        <time>2020-06-29T12:16:58Z</time>
      </trkpt>
      <trkpt lat="44.11701" lon="7.20181">
        <ele>2485.015</ele>
        <time>2020-06-29T12:17:13Z</time>
      </trkpt>
      <trkpt lat="44.11697" lon="7.20175">
        <ele>2485.822</ele>
        <time>2020-06-29T12:17:29Z</time>
      </trkpt>
      <trkpt lat="44.11695" lon="7.20165">
        <ele>2486.312</ele>
        <time>2020-06-29T12:17:45Z</time>
      </trkpt>
      <trkpt lat="44.117" lon="7.20152">
        <ele>2487.535</ele>
        <time>2020-06-29T12:18:01Z</time>
      </trkpt>
      <trkpt lat="44.11702" lon="7.20141">
        <ele>2490.591</ele>
        <time>2020-06-29T12:18:17Z</time>
      </trkpt>
      <trkpt lat="44.11706" lon="7.20125">
        <ele>2494.397</ele>
        <time>2020-06-29T12:18:32Z</time>
      </trkpt>
      <trkpt lat="44.11708" lon="7.20121">
        <ele>2494.477</ele>
        <time>2020-06-29T12:18:47Z</time>
      </trkpt>
      <trkpt lat="44.11708" lon="7.20121">
        <ele>2494.477</ele>
        <time>2020-06-29T12:19:03Z</time>
      </trkpt>
      <trkpt lat="44.11708" lon="7.20121">
        <ele>2494.477</ele>
        <time>2020-06-29T12:19:18Z</time>
      </trkpt>
      <trkpt lat="44.11708" lon="7.20121">
        <ele>2494.477</ele>
        <time>2020-06-29T12:19:34Z</time>
      </trkpt>
      <trkpt lat="44.11708" lon="7.20121">
        <ele>2494.477</ele>
        <time>2020-06-29T12:19:50Z</time>
      </trkpt>
      <trkpt lat="44.11708" lon="7.20121">
        <ele>2494.477</ele>
        <time>2020-06-29T12:20:06Z</time>
      </trkpt>
      <trkpt lat="44.11709" lon="7.2012">
        <ele>2494.36</ele>
        <time>2020-06-29T12:20:22Z</time>
      </trkpt>
      <trkpt lat="44.11709" lon="7.2012">
        <ele>2494.36</ele>
        <time>2020-06-29T12:20:38Z</time>
      </trkpt>
      <trkpt lat="44.1171" lon="7.20119">
        <ele>2494.208</ele>
        <time>2020-06-29T12:20:54Z</time>
      </trkpt>
      <trkpt lat="44.1171" lon="7.20118">
        <ele>2494.319</ele>
        <time>2020-06-29T12:21:09Z</time>
      </trkpt>
      <trkpt lat="44.11709" lon="7.20118">
        <ele>2494.709</ele>
        <time>2020-06-29T12:21:25Z</time>
      </trkpt>
      <trkpt lat="44.11709" lon="7.20118">
        <ele>2494.709</ele>
        <time>2020-06-29T12:21:42Z</time>
      </trkpt>
      <trkpt lat="44.11709" lon="7.20118">
        <ele>2494.857</ele>
        <time>2020-06-29T12:21:58Z</time>
      </trkpt>
      <trkpt lat="44.11709" lon="7.20118">
        <ele>2494.857</ele>
        <time>2020-06-29T12:22:13Z</time>
      </trkpt>
      <trkpt lat="44.11713" lon="7.20115">
        <ele>2495.392</ele>
        <time>2020-06-29T12:22:28Z</time>
      </trkpt>
      <trkpt lat="44.11714" lon="7.20112">
        <ele>2496.042</ele>
        <time>2020-06-29T12:22:44Z</time>
      </trkpt>
      <trkpt lat="44.11714" lon="7.20112">
        <ele>2496.042</ele>
        <time>2020-06-29T12:22:59Z</time>
      </trkpt>
      <trkpt lat="44.11714" lon="7.20112">
        <ele>2496.042</ele>
        <time>2020-06-29T12:23:14Z</time>
      </trkpt>
      <trkpt lat="44.11714" lon="7.20112">
        <ele>2496.042</ele>
        <time>2020-06-29T12:23:30Z</time>
      </trkpt>
      <trkpt lat="44.11714" lon="7.20112">
        <ele>2496.042</ele>
        <time>2020-06-29T12:23:46Z</time>
      </trkpt>
      <trkpt lat="44.11714" lon="7.2011">
        <ele>2496.205</ele>
        <time>2020-06-29T12:24:01Z</time>
      </trkpt>
      <trkpt lat="44.11714" lon="7.2011">
        <ele>2496.205</ele>
        <time>2020-06-29T12:24:16Z</time>
      </trkpt>
      <trkpt lat="44.11715" lon="7.2011">
        <ele>2496.453</ele>
        <time>2020-06-29T12:24:32Z</time>
      </trkpt>
      <trkpt lat="44.11715" lon="7.2011">
        <ele>2496.453</ele>
        <time>2020-06-29T12:24:48Z</time>
      </trkpt>
      <trkpt lat="44.1172" lon="7.201">
        <ele>2496.102</ele>
        <time>2020-06-29T12:25:03Z</time>
      </trkpt>
      <trkpt lat="44.11726" lon="7.20081">
        <ele>2496.967</ele>
        <time>2020-06-29T12:25:18Z</time>
      </trkpt>
      <trkpt lat="44.11733" lon="7.20059">
        <ele>2499.158</ele>
        <time>2020-06-29T12:25:34Z</time>
      </trkpt>
      <trkpt lat="44.11734" lon="7.20037">
        <ele>2502.266</ele>
        <time>2020-06-29T12:25:49Z</time>
      </trkpt>
      <trkpt lat="44.11744" lon="7.20018">
        <ele>2500.376</ele>
        <time>2020-06-29T12:26:05Z</time>
      </trkpt>
      <trkpt lat="44.11751" lon="7.19998">
        <ele>2500.165</ele>
        <time>2020-06-29T12:26:21Z</time>
      </trkpt>
      <trkpt lat="44.11752" lon="7.19993">
        <ele>2501.081</ele>
        <time>2020-06-29T12:26:36Z</time>
      </trkpt>
      <trkpt lat="44.11752" lon="7.19994">
        <ele>2501.361</ele>
        <time>2020-06-29T12:26:52Z</time>
      </trkpt>
      <trkpt lat="44.11753" lon="7.19993">
        <ele>2501.765</ele>
        <time>2020-06-29T12:27:08Z</time>
      </trkpt>
      <trkpt lat="44.1176" lon="7.19979">
        <ele>2500.992</ele>
        <time>2020-06-29T12:27:23Z</time>
      </trkpt>
      <trkpt lat="44.11767" lon="7.19965">
        <ele>2500.353</ele>
        <time>2020-06-29T12:27:39Z</time>
      </trkpt>
      <trkpt lat="44.1177" lon="7.19959">
        <ele>2501.038</ele>
        <time>2020-06-29T12:27:55Z</time>
      </trkpt>
      <trkpt lat="44.11766" lon="7.1996">
        <ele>2501.168</ele>
        <time>2020-06-29T12:28:11Z</time>
      </trkpt>
      <trkpt lat="44.11764" lon="7.19952">
        <ele>2498.565</ele>
        <time>2020-06-29T12:28:26Z</time>
      </trkpt>
      <trkpt lat="44.11764" lon="7.19939">
        <ele>2497.176</ele>
        <time>2020-06-29T12:28:42Z</time>
      </trkpt>
      <trkpt lat="44.11769" lon="7.19923">
        <ele>2493.367</ele>
        <time>2020-06-29T12:28:58Z</time>
      </trkpt>
      <trkpt lat="44.11776" lon="7.19909">
        <ele>2486.97</ele>
        <time>2020-06-29T12:29:14Z</time>
      </trkpt>
      <trkpt lat="44.11774" lon="7.19884">
        <ele>2485.774</ele>
        <time>2020-06-29T12:29:30Z</time>
      </trkpt>
      <trkpt lat="44.11784" lon="7.19863">
        <ele>2487.14</ele>
        <time>2020-06-29T12:29:46Z</time>
      </trkpt>
      <trkpt lat="44.1179" lon="7.19849">
        <ele>2484.34</ele>
        <time>2020-06-29T12:30:02Z</time>
      </trkpt>
      <trkpt lat="44.11792" lon="7.19835">
        <ele>2480.706</ele>
        <time>2020-06-29T12:30:17Z</time>
      </trkpt>
      <trkpt lat="44.11792" lon="7.19831">
        <ele>2480.88</ele>
        <time>2020-06-29T12:30:33Z</time>
      </trkpt>
      <trkpt lat="44.1179" lon="7.19833">
        <ele>2480.486</ele>
        <time>2020-06-29T12:30:48Z</time>
      </trkpt>
      <trkpt lat="44.11792" lon="7.19824">
        <ele>2476.169</ele>
        <time>2020-06-29T12:31:03Z</time>
      </trkpt>
      <trkpt lat="44.11794" lon="7.19807">
        <ele>2478.467</ele>
        <time>2020-06-29T12:31:18Z</time>
      </trkpt>
      <trkpt lat="44.11793" lon="7.19788">
        <ele>2477.619</ele>
        <time>2020-06-29T12:31:33Z</time>
      </trkpt>
      <trkpt lat="44.118" lon="7.19767">
        <ele>2478.854</ele>
        <time>2020-06-29T12:31:49Z</time>
      </trkpt>
      <trkpt lat="44.118" lon="7.19758">
        <ele>2476.423</ele>
        <time>2020-06-29T12:32:04Z</time>
      </trkpt>
      <trkpt lat="44.11796" lon="7.19759">
        <ele>2475.828</ele>
        <time>2020-06-29T12:32:20Z</time>
      </trkpt>
      <trkpt lat="44.11794" lon="7.19765">
        <ele>2473.275</ele>
        <time>2020-06-29T12:32:35Z</time>
      </trkpt>
      <trkpt lat="44.11793" lon="7.19766">
        <ele>2473.09</ele>
        <time>2020-06-29T12:32:50Z</time>
      </trkpt>
      <trkpt lat="44.11791" lon="7.19753">
        <ele>2469.035</ele>
        <time>2020-06-29T12:33:05Z</time>
      </trkpt>
      <trkpt lat="44.11791" lon="7.19731">
        <ele>2463.541</ele>
        <time>2020-06-29T12:33:20Z</time>
      </trkpt>
      <trkpt lat="44.11788" lon="7.19713">
        <ele>2461.154</ele>
        <time>2020-06-29T12:33:36Z</time>
      </trkpt>
      <trkpt lat="44.11788" lon="7.19694">
        <ele>2457.126</ele>
        <time>2020-06-29T12:33:51Z</time>
      </trkpt>
      <trkpt lat="44.11783" lon="7.19678">
        <ele>2455.462</ele>
        <time>2020-06-29T12:34:06Z</time>
      </trkpt>
      <trkpt lat="44.11779" lon="7.19661">
        <ele>2452.819</ele>
        <time>2020-06-29T12:34:21Z</time>
      </trkpt>
      <trkpt lat="44.11769" lon="7.19645">
        <ele>2449.841</ele>
        <time>2020-06-29T12:34:37Z</time>
      </trkpt>
      <trkpt lat="44.11766" lon="7.1964">
        <ele>2447.766</ele>
        <time>2020-06-29T12:34:53Z</time>
      </trkpt>
      <trkpt lat="44.11766" lon="7.1964">
        <ele>2447.766</ele>
        <time>2020-06-29T12:35:09Z</time>
      </trkpt>
      <trkpt lat="44.11763" lon="7.19635">
        <ele>2448.32</ele>
        <time>2020-06-29T12:35:24Z</time>
      </trkpt>
      <trkpt lat="44.11753" lon="7.19625">
        <ele>2450.205</ele>
        <time>2020-06-29T12:35:40Z</time>
      </trkpt>
      <trkpt lat="44.11739" lon="7.19617">
        <ele>2445.113</ele>
        <time>2020-06-29T12:35:55Z</time>
      </trkpt>
      <trkpt lat="44.11726" lon="7.1962">
        <ele>2429.881</ele>
        <time>2020-06-29T12:36:11Z</time>
      </trkpt>
      <trkpt lat="44.11716" lon="7.19615">
        <ele>2422.356</ele>
        <time>2020-06-29T12:36:27Z</time>
      </trkpt>
      <trkpt lat="44.11715" lon="7.196">
        <ele>2418.795</ele>
        <time>2020-06-29T12:36:43Z</time>
      </trkpt>
      <trkpt lat="44.11717" lon="7.19584">
        <ele>2421.621</ele>
        <time>2020-06-29T12:36:59Z</time>
      </trkpt>
      <trkpt lat="44.1172" lon="7.1956">
        <ele>2425.689</ele>
        <time>2020-06-29T12:37:14Z</time>
      </trkpt>
      <trkpt lat="44.11719" lon="7.19541">
        <ele>2427.748</ele>
        <time>2020-06-29T12:37:30Z</time>
      </trkpt>
      <trkpt lat="44.11718" lon="7.19521">
        <ele>2430.345</ele>
        <time>2020-06-29T12:37:46Z</time>
      </trkpt>
      <trkpt lat="44.11718" lon="7.19515">
        <ele>2430.294</ele>
        <time>2020-06-29T12:38:01Z</time>
      </trkpt>
      <trkpt lat="44.11717" lon="7.19515">
        <ele>2430.627</ele>
        <time>2020-06-29T12:38:17Z</time>
      </trkpt>
      <trkpt lat="44.11717" lon="7.19515">
        <ele>2430.627</ele>
        <time>2020-06-29T12:38:32Z</time>
      </trkpt>
      <trkpt lat="44.11717" lon="7.19504">
        <ele>2429.281</ele>
        <time>2020-06-29T12:38:48Z</time>
      </trkpt>
      <trkpt lat="44.11711" lon="7.19499">
        <ele>2428.595</ele>
        <time>2020-06-29T12:39:03Z</time>
      </trkpt>
      <trkpt lat="44.11708" lon="7.19498">
        <ele>2426.878</ele>
        <time>2020-06-29T12:39:18Z</time>
      </trkpt>
      <trkpt lat="44.11706" lon="7.19497">
        <ele>2426.959</ele>
        <time>2020-06-29T12:39:34Z</time>
      </trkpt>
      <trkpt lat="44.11697" lon="7.19496">
        <ele>2427.942</ele>
        <time>2020-06-29T12:39:49Z</time>
      </trkpt>
      <trkpt lat="44.11683" lon="7.19492">
        <ele>2428.224</ele>
        <time>2020-06-29T12:40:05Z</time>
      </trkpt>
      <trkpt lat="44.11674" lon="7.19492">
        <ele>2423.575</ele>
        <time>2020-06-29T12:40:20Z</time>
      </trkpt>
      <trkpt lat="44.11666" lon="7.19488">
        <ele>2421.106</ele>
        <time>2020-06-29T12:40:36Z</time>
      </trkpt>
      <trkpt lat="44.11658" lon="7.19485">
        <ele>2416.339</ele>
        <time>2020-06-29T12:40:52Z</time>
      </trkpt>
      <trkpt lat="44.11644" lon="7.19485">
        <ele>2415.678</ele>
        <time>2020-06-29T12:41:08Z</time>
      </trkpt>
      <trkpt lat="44.11636" lon="7.19484">
        <ele>2414.373</ele>
        <time>2020-06-29T12:41:23Z</time>
      </trkpt>
      <trkpt lat="44.11627" lon="7.19481">
        <ele>2413.126</ele>
        <time>2020-06-29T12:41:39Z</time>
      </trkpt>
      <trkpt lat="44.11612" lon="7.19478">
        <ele>2409.781</ele>
        <time>2020-06-29T12:41:54Z</time>
      </trkpt>
      <trkpt lat="44.11597" lon="7.19471">
        <ele>2406.152</ele>
        <time>2020-06-29T12:42:09Z</time>
      </trkpt>
      <trkpt lat="44.11579" lon="7.19463">
        <ele>2401.68</ele>
        <time>2020-06-29T12:42:25Z</time>
      </trkpt>
      <trkpt lat="44.11567" lon="7.19452">
        <ele>2398.339</ele>
        <time>2020-06-29T12:42:41Z</time>
      </trkpt>
      <trkpt lat="44.11555" lon="7.19436">
        <ele>2399.704</ele>
        <time>2020-06-29T12:42:57Z</time>
      </trkpt>
      <trkpt lat="44.11542" lon="7.19423">
        <ele>2398.491</ele>
        <time>2020-06-29T12:43:13Z</time>
      </trkpt>
      <trkpt lat="44.11525" lon="7.19423">
        <ele>2393.724</ele>
        <time>2020-06-29T12:43:29Z</time>
      </trkpt>
      <trkpt lat="44.11508" lon="7.19426">
        <ele>2387.28</ele>
        <time>2020-06-29T12:43:44Z</time>
      </trkpt>
      <trkpt lat="44.11497" lon="7.19425">
        <ele>2390.65</ele>
        <time>2020-06-29T12:43:59Z</time>
      </trkpt>
      <trkpt lat="44.11487" lon="7.19427">
        <ele>2393.698</ele>
        <time>2020-06-29T12:44:15Z</time>
      </trkpt>
      <trkpt lat="44.11481" lon="7.19435">
        <ele>2389.372</ele>
        <time>2020-06-29T12:44:31Z</time>
      </trkpt>
      <trkpt lat="44.11476" lon="7.19432">
        <ele>2378.489</ele>
        <time>2020-06-29T12:44:47Z</time>
      </trkpt>
      <trkpt lat="44.11465" lon="7.19444">
        <ele>2371.337</ele>
        <time>2020-06-29T12:45:02Z</time>
      </trkpt>
      <trkpt lat="44.11464" lon="7.19444">
        <ele>2370.992</ele>
        <time>2020-06-29T12:45:17Z</time>
      </trkpt>
      <trkpt lat="44.11464" lon="7.19444">
        <ele>2370.992</ele>
        <time>2020-06-29T12:45:33Z</time>
      </trkpt>
      <trkpt lat="44.11464" lon="7.19444">
        <ele>2370.992</ele>
        <time>2020-06-29T12:45:49Z</time>
      </trkpt>
      <trkpt lat="44.11464" lon="7.19444">
        <ele>2370.992</ele>
        <time>2020-06-29T12:46:04Z</time>
      </trkpt>
      <trkpt lat="44.11463" lon="7.19442">
        <ele>2372.143</ele>
        <time>2020-06-29T12:46:19Z</time>
      </trkpt>
      <trkpt lat="44.11463" lon="7.19442">
        <ele>2372.143</ele>
        <time>2020-06-29T12:46:35Z</time>
      </trkpt>
      <trkpt lat="44.11463" lon="7.19442">
        <ele>2372.143</ele>
        <time>2020-06-29T12:46:51Z</time>
      </trkpt>
      <trkpt lat="44.11448" lon="7.1944">
        <ele>2377.745</ele>
        <time>2020-06-29T12:47:07Z</time>
      </trkpt>
      <trkpt lat="44.11436" lon="7.19447">
        <ele>2379.155</ele>
        <time>2020-06-29T12:47:22Z</time>
      </trkpt>
      <trkpt lat="44.11427" lon="7.19453">
        <ele>2376.981</ele>
        <time>2020-06-29T12:47:38Z</time>
      </trkpt>
      <trkpt lat="44.11413" lon="7.19451">
        <ele>2378.106</ele>
        <time>2020-06-29T12:47:54Z</time>
      </trkpt>
      <trkpt lat="44.11402" lon="7.19451">
        <ele>2380.988</ele>
        <time>2020-06-29T12:48:09Z</time>
      </trkpt>
      <trkpt lat="44.11391" lon="7.19456">
        <ele>2379.222</ele>
        <time>2020-06-29T12:48:25Z</time>
      </trkpt>
      <trkpt lat="44.11378" lon="7.19454">
        <ele>2374.901</ele>
        <time>2020-06-29T12:48:40Z</time>
      </trkpt>
      <trkpt lat="44.11369" lon="7.19448">
        <ele>2372.769</ele>
        <time>2020-06-29T12:48:55Z</time>
      </trkpt>
      <trkpt lat="44.11369" lon="7.19447">
        <ele>2370.574</ele>
        <time>2020-06-29T12:49:11Z</time>
      </trkpt>
      <trkpt lat="44.11364" lon="7.19439">
        <ele>2371.276</ele>
        <time>2020-06-29T12:49:27Z</time>
      </trkpt>
      <trkpt lat="44.11364" lon="7.19439">
        <ele>2371.276</ele>
        <time>2020-06-29T12:49:42Z</time>
      </trkpt>
      <trkpt lat="44.11361" lon="7.19433">
        <ele>2371.47</ele>
        <time>2020-06-29T12:49:58Z</time>
      </trkpt>
      <trkpt lat="44.11361" lon="7.19417">
        <ele>2368.965</ele>
        <time>2020-06-29T12:50:13Z</time>
      </trkpt>
      <trkpt lat="44.11361" lon="7.19409">
        <ele>2366.569</ele>
        <time>2020-06-29T12:50:28Z</time>
      </trkpt>
      <trkpt lat="44.11356" lon="7.19392">
        <ele>2370.581</ele>
        <time>2020-06-29T12:50:43Z</time>
      </trkpt>
      <trkpt lat="44.11366" lon="7.19374">
        <ele>2371.89</ele>
        <time>2020-06-29T12:50:59Z</time>
      </trkpt>
      <trkpt lat="44.1138" lon="7.19372">
        <ele>2367.482</ele>
        <time>2020-06-29T12:51:14Z</time>
      </trkpt>
      <trkpt lat="44.11386" lon="7.19368">
        <ele>2365.235</ele>
        <time>2020-06-29T12:51:30Z</time>
      </trkpt>
      <trkpt lat="44.114" lon="7.19366">
        <ele>2366.202</ele>
        <time>2020-06-29T12:51:45Z</time>
      </trkpt>
      <trkpt lat="44.11404" lon="7.19351">
        <ele>2367.031</ele>
        <time>2020-06-29T12:52:01Z</time>
      </trkpt>
      <trkpt lat="44.11406" lon="7.19342">
        <ele>2367.988</ele>
        <time>2020-06-29T12:52:17Z</time>
      </trkpt>
      <trkpt lat="44.11404" lon="7.19329">
        <ele>2366.575</ele>
        <time>2020-06-29T12:52:33Z</time>
      </trkpt>
      <trkpt lat="44.11404" lon="7.19321">
        <ele>2364.755</ele>
        <time>2020-06-29T12:52:49Z</time>
      </trkpt>
      <trkpt lat="44.11402" lon="7.19306">
        <ele>2363.678</ele>
        <time>2020-06-29T12:53:05Z</time>
      </trkpt>
      <trkpt lat="44.11395" lon="7.19303">
        <ele>2356.524</ele>
        <time>2020-06-29T12:53:21Z</time>
      </trkpt>
      <trkpt lat="44.11394" lon="7.19302">
        <ele>2355.542</ele>
        <time>2020-06-29T12:53:37Z</time>
      </trkpt>
      <trkpt lat="44.11393" lon="7.19302">
        <ele>2355.396</ele>
        <time>2020-06-29T12:53:52Z</time>
      </trkpt>
      <trkpt lat="44.11393" lon="7.19302">
        <ele>2355.396</ele>
        <time>2020-06-29T12:54:07Z</time>
      </trkpt>
      <trkpt lat="44.11393" lon="7.19302">
        <ele>2355.396</ele>
        <time>2020-06-29T12:54:23Z</time>
      </trkpt>
      <trkpt lat="44.11393" lon="7.19302">
        <ele>2355.396</ele>
        <time>2020-06-29T12:54:38Z</time>
      </trkpt>
      <trkpt lat="44.11393" lon="7.19302">
        <ele>2355.396</ele>
        <time>2020-06-29T12:54:53Z</time>
      </trkpt>
      <trkpt lat="44.11393" lon="7.19302">
        <ele>2355.396</ele>
        <time>2020-06-29T12:55:09Z</time>
      </trkpt>
      <trkpt lat="44.11393" lon="7.19302">
        <ele>2355.396</ele>
        <time>2020-06-29T12:55:24Z</time>
      </trkpt>
      <trkpt lat="44.11393" lon="7.19302">
        <ele>2355.396</ele>
        <time>2020-06-29T12:55:39Z</time>
      </trkpt>
      <trkpt lat="44.11393" lon="7.19302">
        <ele>2355.396</ele>
        <time>2020-06-29T12:55:55Z</time>
      </trkpt>
      <trkpt lat="44.11393" lon="7.19302">
        <ele>2355.396</ele>
        <time>2020-06-29T12:56:11Z</time>
      </trkpt>
      <trkpt lat="44.11393" lon="7.19302">
        <ele>2355.396</ele>
        <time>2020-06-29T12:56:26Z</time>
      </trkpt>
      <trkpt lat="44.11393" lon="7.19302">
        <ele>2355.396</ele>
        <time>2020-06-29T12:56:42Z</time>
      </trkpt>
      <trkpt lat="44.11393" lon="7.19302">
        <ele>2355.396</ele>
        <time>2020-06-29T12:56:57Z</time>
      </trkpt>
      <trkpt lat="44.11393" lon="7.19302">
        <ele>2355.396</ele>
        <time>2020-06-29T12:57:13Z</time>
      </trkpt>
      <trkpt lat="44.11393" lon="7.19302">
        <ele>2355.396</ele>
        <time>2020-06-29T12:57:29Z</time>
      </trkpt>
      <trkpt lat="44.11393" lon="7.19302">
        <ele>2355.396</ele>
        <time>2020-06-29T12:57:44Z</time>
      </trkpt>
      <trkpt lat="44.11393" lon="7.19302">
        <ele>2355.396</ele>
        <time>2020-06-29T12:58:00Z</time>
      </trkpt>
      <trkpt lat="44.11393" lon="7.19302">
        <ele>2355.396</ele>
        <time>2020-06-29T12:58:15Z</time>
      </trkpt>
      <trkpt lat="44.11393" lon="7.19302">
        <ele>2355.396</ele>
        <time>2020-06-29T12:58:31Z</time>
      </trkpt>
      <trkpt lat="44.11393" lon="7.19302">
        <ele>2355.396</ele>
        <time>2020-06-29T12:58:47Z</time>
      </trkpt>
      <trkpt lat="44.11393" lon="7.19302">
        <ele>2355.396</ele>
        <time>2020-06-29T12:59:03Z</time>
      </trkpt>
      <trkpt lat="44.11393" lon="7.19302">
        <ele>2355.396</ele>
        <time>2020-06-29T12:59:19Z</time>
      </trkpt>
      <trkpt lat="44.11393" lon="7.19302">
        <ele>2355.396</ele>
        <time>2020-06-29T12:59:35Z</time>
      </trkpt>
      <trkpt lat="44.11393" lon="7.19302">
        <ele>2355.396</ele>
        <time>2020-06-29T12:59:50Z</time>
      </trkpt>
      <trkpt lat="44.11393" lon="7.19302">
        <ele>2355.396</ele>
        <time>2020-06-29T13:00:06Z</time>
      </trkpt>
      <trkpt lat="44.11393" lon="7.19302">
        <ele>2355.396</ele>
        <time>2020-06-29T13:00:21Z</time>
      </trkpt>
      <trkpt lat="44.11393" lon="7.19302">
        <ele>2355.396</ele>
        <time>2020-06-29T13:00:37Z</time>
      </trkpt>
      <trkpt lat="44.11393" lon="7.19302">
        <ele>2355.396</ele>
        <time>2020-06-29T13:00:52Z</time>
      </trkpt>
      <trkpt lat="44.11393" lon="7.19302">
        <ele>2355.396</ele>
        <time>2020-06-29T13:01:08Z</time>
      </trkpt>
      <trkpt lat="44.11393" lon="7.193">
        <ele>2355.46</ele>
        <time>2020-06-29T13:01:24Z</time>
      </trkpt>
      <trkpt lat="44.11393" lon="7.193">
        <ele>2355.46</ele>
        <time>2020-06-29T13:01:40Z</time>
      </trkpt>
      <trkpt lat="44.11393" lon="7.193">
        <ele>2355.46</ele>
        <time>2020-06-29T13:01:56Z</time>
      </trkpt>
      <trkpt lat="44.11392" lon="7.19299">
        <ele>2357.471</ele>
        <time>2020-06-29T13:02:12Z</time>
      </trkpt>
      <trkpt lat="44.11391" lon="7.193">
        <ele>2358.82</ele>
        <time>2020-06-29T13:02:28Z</time>
      </trkpt>
      <trkpt lat="44.11391" lon="7.193">
        <ele>2358.82</ele>
        <time>2020-06-29T13:02:44Z</time>
      </trkpt>
      <trkpt lat="44.11391" lon="7.19299">
        <ele>2358.966</ele>
        <time>2020-06-29T13:03:00Z</time>
      </trkpt>
      <trkpt lat="44.11391" lon="7.19299">
        <ele>2358.966</ele>
        <time>2020-06-29T13:03:15Z</time>
      </trkpt>
      <trkpt lat="44.11391" lon="7.19299">
        <ele>2358.966</ele>
        <time>2020-06-29T13:03:31Z</time>
      </trkpt>
      <trkpt lat="44.11391" lon="7.19299">
        <ele>2358.966</ele>
        <time>2020-06-29T13:03:47Z</time>
      </trkpt>
      <trkpt lat="44.11391" lon="7.19299">
        <ele>2358.966</ele>
        <time>2020-06-29T13:04:02Z</time>
      </trkpt>
      <trkpt lat="44.11391" lon="7.19299">
        <ele>2358.966</ele>
        <time>2020-06-29T13:04:18Z</time>
      </trkpt>
      <trkpt lat="44.11391" lon="7.19299">
        <ele>2358.966</ele>
        <time>2020-06-29T13:04:34Z</time>
      </trkpt>
      <trkpt lat="44.11391" lon="7.19299">
        <ele>2358.966</ele>
        <time>2020-06-29T13:04:49Z</time>
      </trkpt>
      <trkpt lat="44.11391" lon="7.19299">
        <ele>2358.966</ele>
        <time>2020-06-29T13:05:05Z</time>
      </trkpt>
      <trkpt lat="44.11391" lon="7.19299">
        <ele>2358.966</ele>
        <time>2020-06-29T13:05:20Z</time>
      </trkpt>
      <trkpt lat="44.11391" lon="7.19299">
        <ele>2358.966</ele>
        <time>2020-06-29T13:05:36Z</time>
      </trkpt>
      <trkpt lat="44.11391" lon="7.19299">
        <ele>2358.966</ele>
        <time>2020-06-29T13:05:51Z</time>
      </trkpt>
      <trkpt lat="44.11391" lon="7.19299">
        <ele>2358.966</ele>
        <time>2020-06-29T13:06:07Z</time>
      </trkpt>
      <trkpt lat="44.11391" lon="7.19299">
        <ele>2358.966</ele>
        <time>2020-06-29T13:06:22Z</time>
      </trkpt>
      <trkpt lat="44.11391" lon="7.19299">
        <ele>2358.966</ele>
        <time>2020-06-29T13:06:38Z</time>
      </trkpt>
      <trkpt lat="44.11391" lon="7.19299">
        <ele>2358.966</ele>
        <time>2020-06-29T13:06:54Z</time>
      </trkpt>
      <trkpt lat="44.11392" lon="7.19299">
        <ele>2358.718</ele>
        <time>2020-06-29T13:07:10Z</time>
      </trkpt>
      <trkpt lat="44.11394" lon="7.19298">
        <ele>2358.362</ele>
        <time>2020-06-29T13:07:25Z</time>
      </trkpt>
      <trkpt lat="44.11394" lon="7.19298">
        <ele>2358.362</ele>
        <time>2020-06-29T13:07:41Z</time>
      </trkpt>
      <trkpt lat="44.11394" lon="7.19299">
        <ele>2358.823</ele>
        <time>2020-06-29T13:07:57Z</time>
      </trkpt>
      <trkpt lat="44.11394" lon="7.19299">
        <ele>2358.823</ele>
        <time>2020-06-29T13:08:12Z</time>
      </trkpt>
      <trkpt lat="44.11394" lon="7.19299">
        <ele>2358.823</ele>
        <time>2020-06-29T13:08:28Z</time>
      </trkpt>
      <trkpt lat="44.11394" lon="7.19299">
        <ele>2358.823</ele>
        <time>2020-06-29T13:08:43Z</time>
      </trkpt>
      <trkpt lat="44.11394" lon="7.19299">
        <ele>2358.823</ele>
        <time>2020-06-29T13:08:58Z</time>
      </trkpt>
      <trkpt lat="44.11394" lon="7.19299">
        <ele>2358.823</ele>
        <time>2020-06-29T13:09:14Z</time>
      </trkpt>
      <trkpt lat="44.11394" lon="7.19299">
        <ele>2358.823</ele>
        <time>2020-06-29T13:09:29Z</time>
      </trkpt>
      <trkpt lat="44.11394" lon="7.19299">
        <ele>2358.823</ele>
        <time>2020-06-29T13:09:45Z</time>
      </trkpt>
      <trkpt lat="44.11394" lon="7.19299">
        <ele>2358.823</ele>
        <time>2020-06-29T13:10:01Z</time>
      </trkpt>
      <trkpt lat="44.11394" lon="7.19297">
        <ele>2358.993</ele>
        <time>2020-06-29T13:10:17Z</time>
      </trkpt>
      <trkpt lat="44.11394" lon="7.19297">
        <ele>2358.993</ele>
        <time>2020-06-29T13:10:33Z</time>
      </trkpt>
      <trkpt lat="44.11395" lon="7.19297">
        <ele>2358.62</ele>
        <time>2020-06-29T13:10:49Z</time>
      </trkpt>
      <trkpt lat="44.11395" lon="7.19297">
        <ele>2358.62</ele>
        <time>2020-06-29T13:11:04Z</time>
      </trkpt>
      <trkpt lat="44.11395" lon="7.19295">
        <ele>2358.253</ele>
        <time>2020-06-29T13:11:19Z</time>
      </trkpt>
      <trkpt lat="44.11395" lon="7.19298">
        <ele>2356.906</ele>
        <time>2020-06-29T13:11:34Z</time>
      </trkpt>
      <trkpt lat="44.11395" lon="7.19298">
        <ele>2356.906</ele>
        <time>2020-06-29T13:11:50Z</time>
      </trkpt>
      <trkpt lat="44.11395" lon="7.19298">
        <ele>2356.906</ele>
        <time>2020-06-29T13:12:06Z</time>
      </trkpt>
      <trkpt lat="44.11395" lon="7.19298">
        <ele>2356.906</ele>
        <time>2020-06-29T13:12:21Z</time>
      </trkpt>
      <trkpt lat="44.11395" lon="7.19298">
        <ele>2356.906</ele>
        <time>2020-06-29T13:12:37Z</time>
      </trkpt>
      <trkpt lat="44.11395" lon="7.19298">
        <ele>2356.906</ele>
        <time>2020-06-29T13:12:53Z</time>
      </trkpt>
      <trkpt lat="44.11395" lon="7.19298">
        <ele>2356.906</ele>
        <time>2020-06-29T13:13:08Z</time>
      </trkpt>
      <trkpt lat="44.11395" lon="7.19298">
        <ele>2356.906</ele>
        <time>2020-06-29T13:13:23Z</time>
      </trkpt>
      <trkpt lat="44.11395" lon="7.19298">
        <ele>2356.906</ele>
        <time>2020-06-29T13:13:38Z</time>
      </trkpt>
      <trkpt lat="44.11395" lon="7.19298">
        <ele>2356.906</ele>
        <time>2020-06-29T13:13:54Z</time>
      </trkpt>
      <trkpt lat="44.11395" lon="7.19298">
        <ele>2356.906</ele>
        <time>2020-06-29T13:14:09Z</time>
      </trkpt>
      <trkpt lat="44.11395" lon="7.19298">
        <ele>2356.906</ele>
        <time>2020-06-29T13:14:25Z</time>
      </trkpt>
      <trkpt lat="44.11395" lon="7.19298">
        <ele>2356.906</ele>
        <time>2020-06-29T13:14:40Z</time>
      </trkpt>
      <trkpt lat="44.11395" lon="7.19298">
        <ele>2356.906</ele>
        <time>2020-06-29T13:14:56Z</time>
      </trkpt>
      <trkpt lat="44.11395" lon="7.19298">
        <ele>2356.906</ele>
        <time>2020-06-29T13:15:11Z</time>
      </trkpt>
      <trkpt lat="44.11395" lon="7.19298">
        <ele>2356.906</ele>
        <time>2020-06-29T13:15:27Z</time>
      </trkpt>
      <trkpt lat="44.11395" lon="7.19298">
        <ele>2356.906</ele>
        <time>2020-06-29T13:15:42Z</time>
      </trkpt>
      <trkpt lat="44.11395" lon="7.19298">
        <ele>2356.906</ele>
        <time>2020-06-29T13:15:58Z</time>
      </trkpt>
      <trkpt lat="44.11396" lon="7.19297">
        <ele>2357.107</ele>
        <time>2020-06-29T13:16:14Z</time>
      </trkpt>
      <trkpt lat="44.11396" lon="7.19297">
        <ele>2357.107</ele>
        <time>2020-06-29T13:16:29Z</time>
      </trkpt>
      <trkpt lat="44.11396" lon="7.19297">
        <ele>2357.107</ele>
        <time>2020-06-29T13:16:44Z</time>
      </trkpt>
      <trkpt lat="44.11396" lon="7.19297">
        <ele>2357.107</ele>
        <time>2020-06-29T13:17:00Z</time>
      </trkpt>
      <trkpt lat="44.11395" lon="7.19298">
        <ele>2358.182</ele>
        <time>2020-06-29T13:17:15Z</time>
      </trkpt>
      <trkpt lat="44.11395" lon="7.19298">
        <ele>2358.182</ele>
        <time>2020-06-29T13:17:31Z</time>
      </trkpt>
      <trkpt lat="44.11395" lon="7.19298">
        <ele>2358.182</ele>
        <time>2020-06-29T13:17:46Z</time>
      </trkpt>
      <trkpt lat="44.11395" lon="7.19298">
        <ele>2358.182</ele>
        <time>2020-06-29T13:18:01Z</time>
      </trkpt>
      <trkpt lat="44.11395" lon="7.19298">
        <ele>2358.182</ele>
        <time>2020-06-29T13:18:17Z</time>
      </trkpt>
      <trkpt lat="44.11395" lon="7.19298">
        <ele>2358.418</ele>
        <time>2020-06-29T13:18:32Z</time>
      </trkpt>
      <trkpt lat="44.11395" lon="7.19298">
        <ele>2358.418</ele>
        <time>2020-06-29T13:18:47Z</time>
      </trkpt>
      <trkpt lat="44.11399" lon="7.19292">
        <ele>2360.227</ele>
        <time>2020-06-29T13:19:03Z</time>
      </trkpt>
      <trkpt lat="44.1141" lon="7.19289">
        <ele>2361.542</ele>
        <time>2020-06-29T13:19:19Z</time>
      </trkpt>
      <trkpt lat="44.11411" lon="7.1928">
        <ele>2365.652</ele>
        <time>2020-06-29T13:19:35Z</time>
      </trkpt>
      <trkpt lat="44.11416" lon="7.19263">
        <ele>2367.11</ele>
        <time>2020-06-29T13:19:51Z</time>
      </trkpt>
      <trkpt lat="44.11432" lon="7.19254">
        <ele>2369.151</ele>
        <time>2020-06-29T13:20:07Z</time>
      </trkpt>
      <trkpt lat="44.11446" lon="7.19247">
        <ele>2365.787</ele>
        <time>2020-06-29T13:20:22Z</time>
      </trkpt>
      <trkpt lat="44.11454" lon="7.19243">
        <ele>2365.439</ele>
        <time>2020-06-29T13:20:38Z</time>
      </trkpt>
      <trkpt lat="44.11463" lon="7.19222">
        <ele>2361.38</ele>
        <time>2020-06-29T13:20:53Z</time>
      </trkpt>
      <trkpt lat="44.11472" lon="7.19202">
        <ele>2364.578</ele>
        <time>2020-06-29T13:21:08Z</time>
      </trkpt>
      <trkpt lat="44.11481" lon="7.1918">
        <ele>2365.702</ele>
        <time>2020-06-29T13:21:24Z</time>
      </trkpt>
      <trkpt lat="44.11488" lon="7.19161">
        <ele>2365.606</ele>
        <time>2020-06-29T13:21:40Z</time>
      </trkpt>
      <trkpt lat="44.11492" lon="7.19149">
        <ele>2361.841</ele>
        <time>2020-06-29T13:21:55Z</time>
      </trkpt>
      <trkpt lat="44.11492" lon="7.19147">
        <ele>2362.581</ele>
        <time>2020-06-29T13:22:11Z</time>
      </trkpt>
      <trkpt lat="44.11494" lon="7.19147">
        <ele>2361.824</ele>
        <time>2020-06-29T13:22:27Z</time>
      </trkpt>
      <trkpt lat="44.11493" lon="7.19147">
        <ele>2361.909</ele>
        <time>2020-06-29T13:22:43Z</time>
      </trkpt>
      <trkpt lat="44.11486" lon="7.1914">
        <ele>2361.962</ele>
        <time>2020-06-29T13:22:58Z</time>
      </trkpt>
      <trkpt lat="44.11471" lon="7.19134">
        <ele>2362.806</ele>
        <time>2020-06-29T13:23:13Z</time>
      </trkpt>
      <trkpt lat="44.11458" lon="7.19115">
        <ele>2361.284</ele>
        <time>2020-06-29T13:23:29Z</time>
      </trkpt>
      <trkpt lat="44.11457" lon="7.19093">
        <ele>2358.916</ele>
        <time>2020-06-29T13:23:45Z</time>
      </trkpt>
      <trkpt lat="44.11459" lon="7.19092">
        <ele>2358.363</ele>
        <time>2020-06-29T13:24:00Z</time>
      </trkpt>
      <trkpt lat="44.11455" lon="7.19076">
        <ele>2358.879</ele>
        <time>2020-06-29T13:24:15Z</time>
      </trkpt>
      <trkpt lat="44.11455" lon="7.19076">
        <ele>2358.879</ele>
        <time>2020-06-29T13:24:31Z</time>
      </trkpt>
      <trkpt lat="44.11455" lon="7.19076">
        <ele>2358.879</ele>
        <time>2020-06-29T13:24:47Z</time>
      </trkpt>
      <trkpt lat="44.11456" lon="7.19073">
        <ele>2357.698</ele>
        <time>2020-06-29T13:25:02Z</time>
      </trkpt>
      <trkpt lat="44.11456" lon="7.19073">
        <ele>2357.698</ele>
        <time>2020-06-29T13:25:17Z</time>
      </trkpt>
      <trkpt lat="44.11457" lon="7.19072">
        <ele>2357.392</ele>
        <time>2020-06-29T13:25:32Z</time>
      </trkpt>
      <trkpt lat="44.11457" lon="7.19065">
        <ele>2355.31</ele>
        <time>2020-06-29T13:25:48Z</time>
      </trkpt>
      <trkpt lat="44.11458" lon="7.1906">
        <ele>2354.377</ele>
        <time>2020-06-29T13:26:04Z</time>
      </trkpt>
      <trkpt lat="44.11454" lon="7.19056">
        <ele>2354.431</ele>
        <time>2020-06-29T13:26:20Z</time>
      </trkpt>
      <trkpt lat="44.11448" lon="7.19046">
        <ele>2353.321</ele>
        <time>2020-06-29T13:26:35Z</time>
      </trkpt>
      <trkpt lat="44.11449" lon="7.19034">
        <ele>2348.573</ele>
        <time>2020-06-29T13:26:51Z</time>
      </trkpt>
      <trkpt lat="44.11449" lon="7.19026">
        <ele>2344.462</ele>
        <time>2020-06-29T13:27:06Z</time>
      </trkpt>
      <trkpt lat="44.11448" lon="7.19024">
        <ele>2342.651</ele>
        <time>2020-06-29T13:27:22Z</time>
      </trkpt>
      <trkpt lat="44.11443" lon="7.19024">
        <ele>2339.216</ele>
        <time>2020-06-29T13:27:37Z</time>
      </trkpt>
      <trkpt lat="44.1144" lon="7.19017">
        <ele>2336.893</ele>
        <time>2020-06-29T13:27:52Z</time>
      </trkpt>
      <trkpt lat="44.11437" lon="7.19014">
        <ele>2336.457</ele>
        <time>2020-06-29T13:28:07Z</time>
      </trkpt>
      <trkpt lat="44.11435" lon="7.1901">
        <ele>2335.463</ele>
        <time>2020-06-29T13:28:23Z</time>
      </trkpt>
      <trkpt lat="44.11432" lon="7.19001">
        <ele>2332.434</ele>
        <time>2020-06-29T13:28:38Z</time>
      </trkpt>
      <trkpt lat="44.1143" lon="7.18989">
        <ele>2327.727</ele>
        <time>2020-06-29T13:28:54Z</time>
      </trkpt>
      <trkpt lat="44.11425" lon="7.1897">
        <ele>2322.832</ele>
        <time>2020-06-29T13:29:10Z</time>
      </trkpt>
      <trkpt lat="44.1142" lon="7.18952">
        <ele>2319.07</ele>
        <time>2020-06-29T13:29:26Z</time>
      </trkpt>
      <trkpt lat="44.11415" lon="7.18939">
        <ele>2320.439</ele>
        <time>2020-06-29T13:29:41Z</time>
      </trkpt>
      <trkpt lat="44.11415" lon="7.18934">
        <ele>2319.797</ele>
        <time>2020-06-29T13:29:57Z</time>
      </trkpt>
      <trkpt lat="44.11424" lon="7.18921">
        <ele>2317.036</ele>
        <time>2020-06-29T13:30:13Z</time>
      </trkpt>
      <trkpt lat="44.11427" lon="7.18902">
        <ele>2310.059</ele>
        <time>2020-06-29T13:30:28Z</time>
      </trkpt>
      <trkpt lat="44.11427" lon="7.18886">
        <ele>2306.38</ele>
        <time>2020-06-29T13:30:44Z</time>
      </trkpt>
      <trkpt lat="44.11426" lon="7.18865">
        <ele>2304.966</ele>
        <time>2020-06-29T13:30:59Z</time>
      </trkpt>
      <trkpt lat="44.11421" lon="7.18842">
        <ele>2303.348</ele>
        <time>2020-06-29T13:31:15Z</time>
      </trkpt>
      <trkpt lat="44.11415" lon="7.18829">
        <ele>2302.941</ele>
        <time>2020-06-29T13:31:30Z</time>
      </trkpt>
      <trkpt lat="44.11405" lon="7.18811">
        <ele>2301.816</ele>
        <time>2020-06-29T13:31:45Z</time>
      </trkpt>
      <trkpt lat="44.11395" lon="7.188">
        <ele>2300.69</ele>
        <time>2020-06-29T13:32:01Z</time>
      </trkpt>
      <trkpt lat="44.11383" lon="7.18793">
        <ele>2300.266</ele>
        <time>2020-06-29T13:32:17Z</time>
      </trkpt>
      <trkpt lat="44.1137" lon="7.18786">
        <ele>2295.41</ele>
        <time>2020-06-29T13:32:33Z</time>
      </trkpt>
      <trkpt lat="44.11354" lon="7.18782">
        <ele>2291.664</ele>
        <time>2020-06-29T13:32:49Z</time>
      </trkpt>
      <trkpt lat="44.11336" lon="7.18786">
        <ele>2287.481</ele>
        <time>2020-06-29T13:33:05Z</time>
      </trkpt>
      <trkpt lat="44.11324" lon="7.18788">
        <ele>2284.783</ele>
        <time>2020-06-29T13:33:21Z</time>
      </trkpt>
      <trkpt lat="44.1131" lon="7.18795">
        <ele>2282.372</ele>
        <time>2020-06-29T13:33:36Z</time>
      </trkpt>
      <trkpt lat="44.11293" lon="7.18801">
        <ele>2279.372</ele>
        <time>2020-06-29T13:33:52Z</time>
      </trkpt>
      <trkpt lat="44.11278" lon="7.18813">
        <ele>2280.911</ele>
        <time>2020-06-29T13:34:08Z</time>
      </trkpt>
      <trkpt lat="44.11268" lon="7.18836">
        <ele>2281.758</ele>
        <time>2020-06-29T13:34:24Z</time>
      </trkpt>
      <trkpt lat="44.11257" lon="7.18845">
        <ele>2278.935</ele>
        <time>2020-06-29T13:34:40Z</time>
      </trkpt>
      <trkpt lat="44.11245" lon="7.18852">
        <ele>2279.279</ele>
        <time>2020-06-29T13:34:56Z</time>
      </trkpt>
      <trkpt lat="44.11241" lon="7.1885">
        <ele>2279.507</ele>
        <time>2020-06-29T13:35:11Z</time>
      </trkpt>
      <trkpt lat="44.11241" lon="7.1885">
        <ele>2279.507</ele>
        <time>2020-06-29T13:35:27Z</time>
      </trkpt>
      <trkpt lat="44.11241" lon="7.1885">
        <ele>2279.507</ele>
        <time>2020-06-29T13:35:42Z</time>
      </trkpt>
      <trkpt lat="44.11241" lon="7.1885">
        <ele>2279.507</ele>
        <time>2020-06-29T13:35:57Z</time>
      </trkpt>
      <trkpt lat="44.11241" lon="7.18851">
        <ele>2279.11</ele>
        <time>2020-06-29T13:36:12Z</time>
      </trkpt>
      <trkpt lat="44.11241" lon="7.18851">
        <ele>2278.851</ele>
        <time>2020-06-29T13:36:27Z</time>
      </trkpt>
      <trkpt lat="44.11241" lon="7.18851">
        <ele>2278.851</ele>
        <time>2020-06-29T13:36:43Z</time>
      </trkpt>
      <trkpt lat="44.11242" lon="7.18851">
        <ele>2279.208</ele>
        <time>2020-06-29T13:36:59Z</time>
      </trkpt>
      <trkpt lat="44.11237" lon="7.18856">
        <ele>2279.503</ele>
        <time>2020-06-29T13:37:15Z</time>
      </trkpt>
      <trkpt lat="44.11232" lon="7.18869">
        <ele>2280.094</ele>
        <time>2020-06-29T13:37:31Z</time>
      </trkpt>
      <trkpt lat="44.11226" lon="7.1888">
        <ele>2282.122</ele>
        <time>2020-06-29T13:37:46Z</time>
      </trkpt>
      <trkpt lat="44.11212" lon="7.18866">
        <ele>2280.518</ele>
        <time>2020-06-29T13:38:02Z</time>
      </trkpt>
      <trkpt lat="44.11196" lon="7.18866">
        <ele>2278.193</ele>
        <time>2020-06-29T13:38:17Z</time>
      </trkpt>
      <trkpt lat="44.11178" lon="7.18863">
        <ele>2277.862</ele>
        <time>2020-06-29T13:38:33Z</time>
      </trkpt>
      <trkpt lat="44.11164" lon="7.18861">
        <ele>2277.784</ele>
        <time>2020-06-29T13:38:48Z</time>
      </trkpt>
      <trkpt lat="44.11152" lon="7.18867">
        <ele>2277.219</ele>
        <time>2020-06-29T13:39:04Z</time>
      </trkpt>
      <trkpt lat="44.1114" lon="7.18873">
        <ele>2274.202</ele>
        <time>2020-06-29T13:39:19Z</time>
      </trkpt>
      <trkpt lat="44.11128" lon="7.18878">
        <ele>2271.546</ele>
        <time>2020-06-29T13:39:35Z</time>
      </trkpt>
      <trkpt lat="44.11116" lon="7.18885">
        <ele>2269.121</ele>
        <time>2020-06-29T13:39:51Z</time>
      </trkpt>
      <trkpt lat="44.11111" lon="7.18887">
        <ele>2267.449</ele>
        <time>2020-06-29T13:40:06Z</time>
      </trkpt>
      <trkpt lat="44.11093" lon="7.189">
        <ele>2262.418</ele>
        <time>2020-06-29T13:40:22Z</time>
      </trkpt>
      <trkpt lat="44.11078" lon="7.18917">
        <ele>2260.528</ele>
        <time>2020-06-29T13:40:38Z</time>
      </trkpt>
      <trkpt lat="44.11065" lon="7.18928">
        <ele>2256.271</ele>
        <time>2020-06-29T13:40:53Z</time>
      </trkpt>
      <trkpt lat="44.11055" lon="7.18932">
        <ele>2254.953</ele>
        <time>2020-06-29T13:41:08Z</time>
      </trkpt>
      <trkpt lat="44.11043" lon="7.18937">
        <ele>2251.148</ele>
        <time>2020-06-29T13:41:24Z</time>
      </trkpt>
      <trkpt lat="44.11026" lon="7.18939">
        <ele>2246.538</ele>
        <time>2020-06-29T13:41:39Z</time>
      </trkpt>
      <trkpt lat="44.11011" lon="7.18936">
        <ele>2245.101</ele>
        <time>2020-06-29T13:41:54Z</time>
      </trkpt>
      <trkpt lat="44.11001" lon="7.18938">
        <ele>2243.154</ele>
        <time>2020-06-29T13:42:10Z</time>
      </trkpt>
      <trkpt lat="44.1099" lon="7.18937">
        <ele>2241.323</ele>
        <time>2020-06-29T13:42:25Z</time>
      </trkpt>
      <trkpt lat="44.10984" lon="7.18934">
        <ele>2238.94</ele>
        <time>2020-06-29T13:42:41Z</time>
      </trkpt>
      <trkpt lat="44.10969" lon="7.18927">
        <ele>2237.582</ele>
        <time>2020-06-29T13:42:56Z</time>
      </trkpt>
      <trkpt lat="44.10956" lon="7.18925">
        <ele>2235.818</ele>
        <time>2020-06-29T13:43:11Z</time>
      </trkpt>
      <trkpt lat="44.10943" lon="7.1892">
        <ele>2234.424</ele>
        <time>2020-06-29T13:43:27Z</time>
      </trkpt>
      <trkpt lat="44.10925" lon="7.18909">
        <ele>2234.393</ele>
        <time>2020-06-29T13:43:43Z</time>
      </trkpt>
      <trkpt lat="44.10908" lon="7.18905">
        <ele>2234.984</ele>
        <time>2020-06-29T13:43:59Z</time>
      </trkpt>
      <trkpt lat="44.10893" lon="7.18907">
        <ele>2234.835</ele>
        <time>2020-06-29T13:44:14Z</time>
      </trkpt>
      <trkpt lat="44.1088" lon="7.18906">
        <ele>2237.092</ele>
        <time>2020-06-29T13:44:30Z</time>
      </trkpt>
      <trkpt lat="44.10866" lon="7.18904">
        <ele>2239.111</ele>
        <time>2020-06-29T13:44:46Z</time>
      </trkpt>
      <trkpt lat="44.1085" lon="7.18893">
        <ele>2239.599</ele>
        <time>2020-06-29T13:45:01Z</time>
      </trkpt>
      <trkpt lat="44.10836" lon="7.18893">
        <ele>2239.434</ele>
        <time>2020-06-29T13:45:16Z</time>
      </trkpt>
      <trkpt lat="44.10822" lon="7.18888">
        <ele>2240.056</ele>
        <time>2020-06-29T13:45:31Z</time>
      </trkpt>
      <trkpt lat="44.10804" lon="7.18887">
        <ele>2239.211</ele>
        <time>2020-06-29T13:45:47Z</time>
      </trkpt>
      <trkpt lat="44.10785" lon="7.1888">
        <ele>2240.16</ele>
        <time>2020-06-29T13:46:03Z</time>
      </trkpt>
      <trkpt lat="44.10768" lon="7.18877">
        <ele>2241.496</ele>
        <time>2020-06-29T13:46:19Z</time>
      </trkpt>
      <trkpt lat="44.10751" lon="7.18881">
        <ele>2240.06</ele>
        <time>2020-06-29T13:46:34Z</time>
      </trkpt>
      <trkpt lat="44.10735" lon="7.18891">
        <ele>2238.779</ele>
        <time>2020-06-29T13:46:50Z</time>
      </trkpt>
      <trkpt lat="44.10718" lon="7.18898">
        <ele>2234.466</ele>
        <time>2020-06-29T13:47:05Z</time>
      </trkpt>
      <trkpt lat="44.10702" lon="7.18907">
        <ele>2233.471</ele>
        <time>2020-06-29T13:47:21Z</time>
      </trkpt>
      <trkpt lat="44.10687" lon="7.18912">
        <ele>2231.77</ele>
        <time>2020-06-29T13:47:37Z</time>
      </trkpt>
      <trkpt lat="44.10671" lon="7.18913">
        <ele>2231.307</ele>
        <time>2020-06-29T13:47:53Z</time>
      </trkpt>
      <trkpt lat="44.10654" lon="7.18909">
        <ele>2232.382</ele>
        <time>2020-06-29T13:48:09Z</time>
      </trkpt>
      <trkpt lat="44.1064" lon="7.18907">
        <ele>2232.909</ele>
        <time>2020-06-29T13:48:24Z</time>
      </trkpt>
      <trkpt lat="44.10628" lon="7.18907">
        <ele>2233.557</ele>
        <time>2020-06-29T13:48:40Z</time>
      </trkpt>
      <trkpt lat="44.10618" lon="7.18907">
        <ele>2235.467</ele>
        <time>2020-06-29T13:48:56Z</time>
      </trkpt>
      <trkpt lat="44.10604" lon="7.18909">
        <ele>2239.233</ele>
        <time>2020-06-29T13:49:12Z</time>
      </trkpt>
      <trkpt lat="44.1059" lon="7.18912">
        <ele>2239.873</ele>
        <time>2020-06-29T13:49:28Z</time>
      </trkpt>
      <trkpt lat="44.1058" lon="7.18912">
        <ele>2240.97</ele>
        <time>2020-06-29T13:49:44Z</time>
      </trkpt>
      <trkpt lat="44.10569" lon="7.18916">
        <ele>2240.981</ele>
        <time>2020-06-29T13:49:59Z</time>
      </trkpt>
      <trkpt lat="44.10551" lon="7.18909">
        <ele>2240.637</ele>
        <time>2020-06-29T13:50:15Z</time>
      </trkpt>
      <trkpt lat="44.10534" lon="7.18896">
        <ele>2239.628</ele>
        <time>2020-06-29T13:50:31Z</time>
      </trkpt>
      <trkpt lat="44.10521" lon="7.18884">
        <ele>2237.145</ele>
        <time>2020-06-29T13:50:46Z</time>
      </trkpt>
      <trkpt lat="44.10507" lon="7.18867">
        <ele>2237.254</ele>
        <time>2020-06-29T13:51:02Z</time>
      </trkpt>
      <trkpt lat="44.1049" lon="7.18853">
        <ele>2235.024</ele>
        <time>2020-06-29T13:51:17Z</time>
      </trkpt>
      <trkpt lat="44.10475" lon="7.18843">
        <ele>2234.371</ele>
        <time>2020-06-29T13:51:33Z</time>
      </trkpt>
      <trkpt lat="44.10465" lon="7.18839">
        <ele>2235.425</ele>
        <time>2020-06-29T13:51:49Z</time>
      </trkpt>
      <trkpt lat="44.10451" lon="7.18836">
        <ele>2237.706</ele>
        <time>2020-06-29T13:52:04Z</time>
      </trkpt>
      <trkpt lat="44.10437" lon="7.1883">
        <ele>2239.52</ele>
        <time>2020-06-29T13:52:20Z</time>
      </trkpt>
      <trkpt lat="44.10424" lon="7.18824">
        <ele>2242.496</ele>
        <time>2020-06-29T13:52:36Z</time>
      </trkpt>
      <trkpt lat="44.10414" lon="7.18822">
        <ele>2243.309</ele>
        <time>2020-06-29T13:52:51Z</time>
      </trkpt>
      <trkpt lat="44.10399" lon="7.18821">
        <ele>2245.022</ele>
        <time>2020-06-29T13:53:07Z</time>
      </trkpt>
      <trkpt lat="44.10393" lon="7.18822">
        <ele>2245.268</ele>
        <time>2020-06-29T13:53:22Z</time>
      </trkpt>
      <trkpt lat="44.10391" lon="7.18822">
        <ele>2245.013</ele>
        <time>2020-06-29T13:53:38Z</time>
      </trkpt>
      <trkpt lat="44.10391" lon="7.18822">
        <ele>2245.013</ele>
        <time>2020-06-29T13:53:53Z</time>
      </trkpt>
      <trkpt lat="44.10391" lon="7.18822">
        <ele>2245.013</ele>
        <time>2020-06-29T13:54:09Z</time>
      </trkpt>
      <trkpt lat="44.10391" lon="7.18822">
        <ele>2245.013</ele>
        <time>2020-06-29T13:54:25Z</time>
      </trkpt>
      <trkpt lat="44.10391" lon="7.18822">
        <ele>2245.013</ele>
        <time>2020-06-29T13:54:41Z</time>
      </trkpt>
      <trkpt lat="44.10391" lon="7.18822">
        <ele>2245.013</ele>
        <time>2020-06-29T13:54:57Z</time>
      </trkpt>
      <trkpt lat="44.10391" lon="7.18822">
        <ele>2245.013</ele>
        <time>2020-06-29T13:55:12Z</time>
      </trkpt>
      <trkpt lat="44.10391" lon="7.18822">
        <ele>2245.013</ele>
        <time>2020-06-29T13:55:28Z</time>
      </trkpt>
      <trkpt lat="44.10389" lon="7.18826">
        <ele>2245.753</ele>
        <time>2020-06-29T13:55:43Z</time>
      </trkpt>
      <trkpt lat="44.10385" lon="7.18828">
        <ele>2244.85</ele>
        <time>2020-06-29T13:55:59Z</time>
      </trkpt>
      <trkpt lat="44.10379" lon="7.18833">
        <ele>2243.741</ele>
        <time>2020-06-29T13:56:15Z</time>
      </trkpt>
      <trkpt lat="44.1037" lon="7.18832">
        <ele>2243.268</ele>
        <time>2020-06-29T13:56:30Z</time>
      </trkpt>
      <trkpt lat="44.10359" lon="7.18836">
        <ele>2240.264</ele>
        <time>2020-06-29T13:56:46Z</time>
      </trkpt>
      <trkpt lat="44.1035" lon="7.18836">
        <ele>2237.973</ele>
        <time>2020-06-29T13:57:01Z</time>
      </trkpt>
      <trkpt lat="44.10348" lon="7.18838">
        <ele>2236.493</ele>
        <time>2020-06-29T13:57:17Z</time>
      </trkpt>
      <trkpt lat="44.10349" lon="7.18846">
        <ele>2237.809</ele>
        <time>2020-06-29T13:57:33Z</time>
      </trkpt>
      <trkpt lat="44.10353" lon="7.1885">
        <ele>2237.196</ele>
        <time>2020-06-29T13:57:49Z</time>
      </trkpt>
      <trkpt lat="44.10348" lon="7.18859">
        <ele>2233.94</ele>
        <time>2020-06-29T13:58:04Z</time>
      </trkpt>
      <trkpt lat="44.10341" lon="7.18863">
        <ele>2231.515</ele>
        <time>2020-06-29T13:58:20Z</time>
      </trkpt>
      <trkpt lat="44.10333" lon="7.18868">
        <ele>2225.804</ele>
        <time>2020-06-29T13:58:35Z</time>
      </trkpt>
      <trkpt lat="44.10324" lon="7.18874">
        <ele>2224.58</ele>
        <time>2020-06-29T13:58:50Z</time>
      </trkpt>
      <trkpt lat="44.10322" lon="7.18876">
        <ele>2223.32</ele>
        <time>2020-06-29T13:59:06Z</time>
      </trkpt>
      <trkpt lat="44.10311" lon="7.18886">
        <ele>2223.808</ele>
        <time>2020-06-29T13:59:22Z</time>
      </trkpt>
      <trkpt lat="44.103" lon="7.18896">
        <ele>2222.177</ele>
        <time>2020-06-29T13:59:38Z</time>
      </trkpt>
      <trkpt lat="44.10289" lon="7.18894">
        <ele>2211.215</ele>
        <time>2020-06-29T13:59:54Z</time>
      </trkpt>
      <trkpt lat="44.10281" lon="7.18898">
        <ele>2209.115</ele>
        <time>2020-06-29T14:00:09Z</time>
      </trkpt>
      <trkpt lat="44.10274" lon="7.18903">
        <ele>2203.962</ele>
        <time>2020-06-29T14:00:24Z</time>
      </trkpt>
      <trkpt lat="44.1026" lon="7.18899">
        <ele>2198.245</ele>
        <time>2020-06-29T14:00:40Z</time>
      </trkpt>
      <trkpt lat="44.1026" lon="7.189">
        <ele>2199.642</ele>
        <time>2020-06-29T14:00:56Z</time>
      </trkpt>
      <trkpt lat="44.10261" lon="7.18909">
        <ele>2201.637</ele>
        <time>2020-06-29T14:01:11Z</time>
      </trkpt>
      <trkpt lat="44.10266" lon="7.18926">
        <ele>2198.332</ele>
        <time>2020-06-29T14:01:27Z</time>
      </trkpt>
      <trkpt lat="44.10261" lon="7.18923">
        <ele>2192.228</ele>
        <time>2020-06-29T14:01:42Z</time>
      </trkpt>
      <trkpt lat="44.10258" lon="7.1893">
        <ele>2192.841</ele>
        <time>2020-06-29T14:01:58Z</time>
      </trkpt>
      <trkpt lat="44.10249" lon="7.18934">
        <ele>2189.03</ele>
        <time>2020-06-29T14:02:13Z</time>
      </trkpt>
      <trkpt lat="44.10238" lon="7.1893">
        <ele>2180.976</ele>
        <time>2020-06-29T14:02:29Z</time>
      </trkpt>
      <trkpt lat="44.10229" lon="7.1893">
        <ele>2179.282</ele>
        <time>2020-06-29T14:02:44Z</time>
      </trkpt>
      <trkpt lat="44.10227" lon="7.18928">
        <ele>2178.22</ele>
        <time>2020-06-29T14:02:59Z</time>
      </trkpt>
      <trkpt lat="44.1022" lon="7.18928">
        <ele>2175.08</ele>
        <time>2020-06-29T14:03:15Z</time>
      </trkpt>
      <trkpt lat="44.10214" lon="7.18928">
        <ele>2169.022</ele>
        <time>2020-06-29T14:03:31Z</time>
      </trkpt>
      <trkpt lat="44.10199" lon="7.18928">
        <ele>2163.419</ele>
        <time>2020-06-29T14:03:46Z</time>
      </trkpt>
      <trkpt lat="44.10194" lon="7.18933">
        <ele>2161.86</ele>
        <time>2020-06-29T14:04:03Z</time>
      </trkpt>
      <trkpt lat="44.10194" lon="7.18933">
        <ele>2161.86</ele>
        <time>2020-06-29T14:04:19Z</time>
      </trkpt>
      <trkpt lat="44.10194" lon="7.18933">
        <ele>2160.858</ele>
        <time>2020-06-29T14:04:34Z</time>
      </trkpt>
      <trkpt lat="44.10189" lon="7.18935">
        <ele>2160.495</ele>
        <time>2020-06-29T14:04:50Z</time>
      </trkpt>
      <trkpt lat="44.10171" lon="7.18939">
        <ele>2158.213</ele>
        <time>2020-06-29T14:05:05Z</time>
      </trkpt>
      <trkpt lat="44.10153" lon="7.18938">
        <ele>2157.83</ele>
        <time>2020-06-29T14:05:21Z</time>
      </trkpt>
      <trkpt lat="44.10145" lon="7.18937">
        <ele>2155.228</ele>
        <time>2020-06-29T14:05:37Z</time>
      </trkpt>
      <trkpt lat="44.1014" lon="7.18939">
        <ele>2155.956</ele>
        <time>2020-06-29T14:05:53Z</time>
      </trkpt>
      <trkpt lat="44.10129" lon="7.18932">
        <ele>2158.005</ele>
        <time>2020-06-29T14:06:08Z</time>
      </trkpt>
      <trkpt lat="44.10116" lon="7.18929">
        <ele>2156.634</ele>
        <time>2020-06-29T14:06:24Z</time>
      </trkpt>
      <trkpt lat="44.10104" lon="7.18922">
        <ele>2155.778</ele>
        <time>2020-06-29T14:06:40Z</time>
      </trkpt>
      <trkpt lat="44.10089" lon="7.18924">
        <ele>2153.599</ele>
        <time>2020-06-29T14:06:55Z</time>
      </trkpt>
      <trkpt lat="44.10078" lon="7.18928">
        <ele>2152.608</ele>
        <time>2020-06-29T14:07:10Z</time>
      </trkpt>
      <trkpt lat="44.10064" lon="7.18926">
        <ele>2149.299</ele>
        <time>2020-06-29T14:07:26Z</time>
      </trkpt>
      <trkpt lat="44.10049" lon="7.18919">
        <ele>2145.459</ele>
        <time>2020-06-29T14:07:42Z</time>
      </trkpt>
      <trkpt lat="44.10038" lon="7.18923">
        <ele>2143.231</ele>
        <time>2020-06-29T14:07:58Z</time>
      </trkpt>
      <trkpt lat="44.1002" lon="7.18928">
        <ele>2141.329</ele>
        <time>2020-06-29T14:08:14Z</time>
      </trkpt>
      <trkpt lat="44.10003" lon="7.18928">
        <ele>2135.851</ele>
        <time>2020-06-29T14:08:30Z</time>
      </trkpt>
      <trkpt lat="44.09987" lon="7.18931">
        <ele>2131.575</ele>
        <time>2020-06-29T14:08:45Z</time>
      </trkpt>
      <trkpt lat="44.09978" lon="7.1893">
        <ele>2131.567</ele>
        <time>2020-06-29T14:09:00Z</time>
      </trkpt>
      <trkpt lat="44.09963" lon="7.18939">
        <ele>2132.1</ele>
        <time>2020-06-29T14:09:16Z</time>
      </trkpt>
      <trkpt lat="44.09945" lon="7.18943">
        <ele>2130.368</ele>
        <time>2020-06-29T14:09:31Z</time>
      </trkpt>
      <trkpt lat="44.09931" lon="7.18947">
        <ele>2128.869</ele>
        <time>2020-06-29T14:09:47Z</time>
      </trkpt>
      <trkpt lat="44.09919" lon="7.1895">
        <ele>2129.05</ele>
        <time>2020-06-29T14:10:02Z</time>
      </trkpt>
      <trkpt lat="44.09902" lon="7.18947">
        <ele>2128.92</ele>
        <time>2020-06-29T14:10:18Z</time>
      </trkpt>
      <trkpt lat="44.0989" lon="7.18934">
        <ele>2123.815</ele>
        <time>2020-06-29T14:10:34Z</time>
      </trkpt>
      <trkpt lat="44.0988" lon="7.18922">
        <ele>2118.162</ele>
        <time>2020-06-29T14:10:50Z</time>
      </trkpt>
      <trkpt lat="44.0987" lon="7.18913">
        <ele>2116.11</ele>
        <time>2020-06-29T14:11:05Z</time>
      </trkpt>
      <trkpt lat="44.09867" lon="7.18911">
        <ele>2114.735</ele>
        <time>2020-06-29T14:11:21Z</time>
      </trkpt>
      <trkpt lat="44.09857" lon="7.18914">
        <ele>2107.91</ele>
        <time>2020-06-29T14:11:36Z</time>
      </trkpt>
      <trkpt lat="44.09841" lon="7.18905">
        <ele>2103.974</ele>
        <time>2020-06-29T14:11:52Z</time>
      </trkpt>
      <trkpt lat="44.09833" lon="7.18882">
        <ele>2098.195</ele>
        <time>2020-06-29T14:12:08Z</time>
      </trkpt>
      <trkpt lat="44.09819" lon="7.18874">
        <ele>2090.249</ele>
        <time>2020-06-29T14:12:24Z</time>
      </trkpt>
      <trkpt lat="44.09811" lon="7.18876">
        <ele>2087.597</ele>
        <time>2020-06-29T14:12:40Z</time>
      </trkpt>
      <trkpt lat="44.09803" lon="7.18858">
        <ele>2084.687</ele>
        <time>2020-06-29T14:12:56Z</time>
      </trkpt>
      <trkpt lat="44.09798" lon="7.18852">
        <ele>2082.594</ele>
        <time>2020-06-29T14:13:11Z</time>
      </trkpt>
      <trkpt lat="44.09794" lon="7.18838">
        <ele>2081.421</ele>
        <time>2020-06-29T14:13:27Z</time>
      </trkpt>
      <trkpt lat="44.09789" lon="7.18823">
        <ele>2080.89</ele>
        <time>2020-06-29T14:13:43Z</time>
      </trkpt>
      <trkpt lat="44.09789" lon="7.18823">
        <ele>2080.89</ele>
        <time>2020-06-29T14:13:59Z</time>
      </trkpt>
      <trkpt lat="44.09789" lon="7.18823">
        <ele>2080.89</ele>
        <time>2020-06-29T14:14:14Z</time>
      </trkpt>
      <trkpt lat="44.09789" lon="7.18823">
        <ele>2080.89</ele>
        <time>2020-06-29T14:14:30Z</time>
      </trkpt>
      <trkpt lat="44.09789" lon="7.18823">
        <ele>2080.89</ele>
        <time>2020-06-29T14:14:45Z</time>
      </trkpt>
      <trkpt lat="44.09789" lon="7.18823">
        <ele>2080.89</ele>
        <time>2020-06-29T14:15:01Z</time>
      </trkpt>
      <trkpt lat="44.09789" lon="7.18823">
        <ele>2080.89</ele>
        <time>2020-06-29T14:15:17Z</time>
      </trkpt>
      <trkpt lat="44.09789" lon="7.18823">
        <ele>2080.89</ele>
        <time>2020-06-29T14:15:32Z</time>
      </trkpt>
      <trkpt lat="44.09789" lon="7.18823">
        <ele>2080.89</ele>
        <time>2020-06-29T14:15:48Z</time>
      </trkpt>
      <trkpt lat="44.09789" lon="7.18823">
        <ele>2080.89</ele>
        <time>2020-06-29T14:16:03Z</time>
      </trkpt>
      <trkpt lat="44.09789" lon="7.18823">
        <ele>2080.89</ele>
        <time>2020-06-29T14:16:19Z</time>
      </trkpt>
      <trkpt lat="44.09789" lon="7.18823">
        <ele>2080.89</ele>
        <time>2020-06-29T14:16:35Z</time>
      </trkpt>
      <trkpt lat="44.09789" lon="7.18823">
        <ele>2080.89</ele>
        <time>2020-06-29T14:16:51Z</time>
      </trkpt>
      <trkpt lat="44.09789" lon="7.18823">
        <ele>2080.89</ele>
        <time>2020-06-29T14:17:07Z</time>
      </trkpt>
      <trkpt lat="44.09789" lon="7.18823">
        <ele>2080.89</ele>
        <time>2020-06-29T14:17:23Z</time>
      </trkpt>
      <trkpt lat="44.09789" lon="7.18823">
        <ele>2080.89</ele>
        <time>2020-06-29T14:17:38Z</time>
      </trkpt>
      <trkpt lat="44.09789" lon="7.18823">
        <ele>2080.89</ele>
        <time>2020-06-29T14:17:54Z</time>
      </trkpt>
      <trkpt lat="44.09789" lon="7.18823">
        <ele>2080.89</ele>
        <time>2020-06-29T14:18:10Z</time>
      </trkpt>
      <trkpt lat="44.09789" lon="7.18823">
        <ele>2080.89</ele>
        <time>2020-06-29T14:18:25Z</time>
      </trkpt>
      <trkpt lat="44.09789" lon="7.18823">
        <ele>2080.89</ele>
        <time>2020-06-29T14:18:41Z</time>
      </trkpt>
      <trkpt lat="44.09789" lon="7.18823">
        <ele>2080.89</ele>
        <time>2020-06-29T14:18:56Z</time>
      </trkpt>
      <trkpt lat="44.09789" lon="7.18823">
        <ele>2080.89</ele>
        <time>2020-06-29T14:19:12Z</time>
      </trkpt>
      <trkpt lat="44.09787" lon="7.18823">
        <ele>2082.303</ele>
        <time>2020-06-29T14:19:28Z</time>
      </trkpt>
      <trkpt lat="44.09787" lon="7.18823">
        <ele>2082.303</ele>
        <time>2020-06-29T14:19:43Z</time>
      </trkpt>
      <trkpt lat="44.09787" lon="7.18823">
        <ele>2082.303</ele>
        <time>2020-06-29T14:19:59Z</time>
      </trkpt>
      <trkpt lat="44.09784" lon="7.18811">
        <ele>2080.774</ele>
        <time>2020-06-29T14:20:15Z</time>
      </trkpt>
      <trkpt lat="44.09786" lon="7.18796">
        <ele>2077.403</ele>
        <time>2020-06-29T14:20:31Z</time>
      </trkpt>
      <trkpt lat="44.09796" lon="7.18783">
        <ele>2074.591</ele>
        <time>2020-06-29T14:20:46Z</time>
      </trkpt>
      <trkpt lat="44.0979" lon="7.18778">
        <ele>2073.945</ele>
        <time>2020-06-29T14:21:01Z</time>
      </trkpt>
      <trkpt lat="44.09782" lon="7.18763">
        <ele>2069.949</ele>
        <time>2020-06-29T14:21:17Z</time>
      </trkpt>
      <trkpt lat="44.09778" lon="7.18749">
        <ele>2067.281</ele>
        <time>2020-06-29T14:21:33Z</time>
      </trkpt>
      <trkpt lat="44.09776" lon="7.18737">
        <ele>2066.177</ele>
        <time>2020-06-29T14:21:49Z</time>
      </trkpt>
      <trkpt lat="44.0978" lon="7.18719">
        <ele>2063.182</ele>
        <time>2020-06-29T14:22:05Z</time>
      </trkpt>
      <trkpt lat="44.09776" lon="7.18709">
        <ele>2058.902</ele>
        <time>2020-06-29T14:22:21Z</time>
      </trkpt>
      <trkpt lat="44.09765" lon="7.18695">
        <ele>2056.492</ele>
        <time>2020-06-29T14:22:37Z</time>
      </trkpt>
      <trkpt lat="44.09763" lon="7.18693">
        <ele>2054.866</ele>
        <time>2020-06-29T14:22:53Z</time>
      </trkpt>
      <trkpt lat="44.09752" lon="7.18681">
        <ele>2050.388</ele>
        <time>2020-06-29T14:23:08Z</time>
      </trkpt>
      <trkpt lat="44.09743" lon="7.18672">
        <ele>2047.442</ele>
        <time>2020-06-29T14:23:24Z</time>
      </trkpt>
      <trkpt lat="44.09733" lon="7.18669">
        <ele>2045.944</ele>
        <time>2020-06-29T14:23:40Z</time>
      </trkpt>
      <trkpt lat="44.09723" lon="7.18671">
        <ele>2044.601</ele>
        <time>2020-06-29T14:23:55Z</time>
      </trkpt>
      <trkpt lat="44.09709" lon="7.18665">
        <ele>2039.678</ele>
        <time>2020-06-29T14:24:11Z</time>
      </trkpt>
      <trkpt lat="44.09699" lon="7.18659">
        <ele>2036.69</ele>
        <time>2020-06-29T14:24:27Z</time>
      </trkpt>
      <trkpt lat="44.09692" lon="7.18654">
        <ele>2031.688</ele>
        <time>2020-06-29T14:24:42Z</time>
      </trkpt>
      <trkpt lat="44.0969" lon="7.18669">
        <ele>2029.158</ele>
        <time>2020-06-29T14:24:58Z</time>
      </trkpt>
      <trkpt lat="44.09695" lon="7.18685">
        <ele>2024.465</ele>
        <time>2020-06-29T14:25:14Z</time>
      </trkpt>
      <trkpt lat="44.09689" lon="7.18692">
        <ele>2020.388</ele>
        <time>2020-06-29T14:25:30Z</time>
      </trkpt>
      <trkpt lat="44.09683" lon="7.18704">
        <ele>2020.781</ele>
        <time>2020-06-29T14:25:45Z</time>
      </trkpt>
      <trkpt lat="44.09681" lon="7.18717">
        <ele>2017.69</ele>
        <time>2020-06-29T14:26:01Z</time>
      </trkpt>
      <trkpt lat="44.09672" lon="7.18734">
        <ele>2016.67</ele>
        <time>2020-06-29T14:26:17Z</time>
      </trkpt>
      <trkpt lat="44.09666" lon="7.18752">
        <ele>2013.231</ele>
        <time>2020-06-29T14:26:33Z</time>
      </trkpt>
      <trkpt lat="44.09654" lon="7.18773">
        <ele>2011.274</ele>
        <time>2020-06-29T14:26:49Z</time>
      </trkpt>
      <trkpt lat="44.09647" lon="7.18785">
        <ele>2009.804</ele>
        <time>2020-06-29T14:27:04Z</time>
      </trkpt>
      <trkpt lat="44.09647" lon="7.18785">
        <ele>2009.804</ele>
        <time>2020-06-29T14:27:19Z</time>
      </trkpt>
      <trkpt lat="44.09648" lon="7.18784">
        <ele>2009.821</ele>
        <time>2020-06-29T14:27:35Z</time>
      </trkpt>
      <trkpt lat="44.0965" lon="7.18792">
        <ele>2008.583</ele>
        <time>2020-06-29T14:27:50Z</time>
      </trkpt>
      <trkpt lat="44.09649" lon="7.18806">
        <ele>2006.489</ele>
        <time>2020-06-29T14:28:06Z</time>
      </trkpt>
      <trkpt lat="44.09641" lon="7.18817">
        <ele>2006.164</ele>
        <time>2020-06-29T14:28:22Z</time>
      </trkpt>
      <trkpt lat="44.09627" lon="7.18829">
        <ele>2007.893</ele>
        <time>2020-06-29T14:28:38Z</time>
      </trkpt>
      <trkpt lat="44.09613" lon="7.18839">
        <ele>2009.003</ele>
        <time>2020-06-29T14:28:54Z</time>
      </trkpt>
      <trkpt lat="44.09607" lon="7.18845">
        <ele>2006.712</ele>
        <time>2020-06-29T14:29:10Z</time>
      </trkpt>
      <trkpt lat="44.09597" lon="7.18857">
        <ele>2005.205</ele>
        <time>2020-06-29T14:29:26Z</time>
      </trkpt>
      <trkpt lat="44.09584" lon="7.18868">
        <ele>2006.691</ele>
        <time>2020-06-29T14:29:41Z</time>
      </trkpt>
      <trkpt lat="44.09575" lon="7.18885">
        <ele>2010.662</ele>
        <time>2020-06-29T14:29:56Z</time>
      </trkpt>
      <trkpt lat="44.09561" lon="7.18895">
        <ele>2012.707</ele>
        <time>2020-06-29T14:30:12Z</time>
      </trkpt>
      <trkpt lat="44.09546" lon="7.18903">
        <ele>2013.372</ele>
        <time>2020-06-29T14:30:28Z</time>
      </trkpt>
      <trkpt lat="44.09531" lon="7.18913">
        <ele>2014.891</ele>
        <time>2020-06-29T14:30:43Z</time>
      </trkpt>
      <trkpt lat="44.0952" lon="7.18929">
        <ele>2012.883</ele>
        <time>2020-06-29T14:30:58Z</time>
      </trkpt>
      <trkpt lat="44.09511" lon="7.18943">
        <ele>2008.521</ele>
        <time>2020-06-29T14:31:14Z</time>
      </trkpt>
      <trkpt lat="44.09501" lon="7.18944">
        <ele>2007.456</ele>
        <time>2020-06-29T14:31:29Z</time>
      </trkpt>
      <trkpt lat="44.095" lon="7.18944">
        <ele>2007.638</ele>
        <time>2020-06-29T14:31:45Z</time>
      </trkpt>
      <trkpt lat="44.09495" lon="7.18948">
        <ele>2008.123</ele>
        <time>2020-06-29T14:32:01Z</time>
      </trkpt>
      <trkpt lat="44.09483" lon="7.18958">
        <ele>2005.401</ele>
        <time>2020-06-29T14:32:16Z</time>
      </trkpt>
      <trkpt lat="44.09465" lon="7.18965">
        <ele>2001.834</ele>
        <time>2020-06-29T14:32:32Z</time>
      </trkpt>
      <trkpt lat="44.09453" lon="7.18979">
        <ele>2000.125</ele>
        <time>2020-06-29T14:32:48Z</time>
      </trkpt>
      <trkpt lat="44.09439" lon="7.18991">
        <ele>1998.886</ele>
        <time>2020-06-29T14:33:03Z</time>
      </trkpt>
      <trkpt lat="44.09425" lon="7.18999">
        <ele>1998.572</ele>
        <time>2020-06-29T14:33:19Z</time>
      </trkpt>
      <trkpt lat="44.09412" lon="7.18999">
        <ele>1998.028</ele>
        <time>2020-06-29T14:33:34Z</time>
      </trkpt>
      <trkpt lat="44.09404" lon="7.19008">
        <ele>2001.413</ele>
        <time>2020-06-29T14:33:50Z</time>
      </trkpt>
      <trkpt lat="44.0939" lon="7.19013">
        <ele>2000.769</ele>
        <time>2020-06-29T14:34:06Z</time>
      </trkpt>
      <trkpt lat="44.09381" lon="7.19022">
        <ele>1997.711</ele>
        <time>2020-06-29T14:34:21Z</time>
      </trkpt>
      <trkpt lat="44.09368" lon="7.1904">
        <ele>1997.128</ele>
        <time>2020-06-29T14:34:37Z</time>
      </trkpt>
      <trkpt lat="44.09359" lon="7.19054">
        <ele>1995.165</ele>
        <time>2020-06-29T14:34:52Z</time>
      </trkpt>
      <trkpt lat="44.09349" lon="7.1907">
        <ele>1996.494</ele>
        <time>2020-06-29T14:35:08Z</time>
      </trkpt>
      <trkpt lat="44.09332" lon="7.1908">
        <ele>1999.423</ele>
        <time>2020-06-29T14:35:23Z</time>
      </trkpt>
      <trkpt lat="44.09323" lon="7.19091">
        <ele>1996.137</ele>
        <time>2020-06-29T14:35:39Z</time>
      </trkpt>
      <trkpt lat="44.09317" lon="7.19098">
        <ele>1998.386</ele>
        <time>2020-06-29T14:35:54Z</time>
      </trkpt>
      <trkpt lat="44.09318" lon="7.19103">
        <ele>1996.753</ele>
        <time>2020-06-29T14:36:10Z</time>
      </trkpt>
      <trkpt lat="44.09317" lon="7.19107">
        <ele>1997.648</ele>
        <time>2020-06-29T14:36:27Z</time>
      </trkpt>
      <trkpt lat="44.09317" lon="7.19107">
        <ele>1997.648</ele>
        <time>2020-06-29T14:36:42Z</time>
      </trkpt>
      <trkpt lat="44.09316" lon="7.19109">
        <ele>1997.163</ele>
        <time>2020-06-29T14:36:58Z</time>
      </trkpt>
      <trkpt lat="44.09322" lon="7.19118">
        <ele>1999.221</ele>
        <time>2020-06-29T14:37:13Z</time>
      </trkpt>
      <trkpt lat="44.09324" lon="7.19134">
        <ele>2000.342</ele>
        <time>2020-06-29T14:37:28Z</time>
      </trkpt>
      <trkpt lat="44.09319" lon="7.19131">
        <ele>1999.219</ele>
        <time>2020-06-29T14:37:43Z</time>
      </trkpt>
      <trkpt lat="44.09305" lon="7.1913">
        <ele>1996.528</ele>
        <time>2020-06-29T14:37:59Z</time>
      </trkpt>
      <trkpt lat="44.09303" lon="7.19132">
        <ele>1999.591</ele>
        <time>2020-06-29T14:38:15Z</time>
      </trkpt>
      <trkpt lat="44.09295" lon="7.19141">
        <ele>1995.124</ele>
        <time>2020-06-29T14:38:31Z</time>
      </trkpt>
      <trkpt lat="44.09284" lon="7.19144">
        <ele>1990.184</ele>
        <time>2020-06-29T14:38:47Z</time>
      </trkpt>
      <trkpt lat="44.09272" lon="7.19146">
        <ele>1988.929</ele>
        <time>2020-06-29T14:39:02Z</time>
      </trkpt>
      <trkpt lat="44.09261" lon="7.19151">
        <ele>1987.349</ele>
        <time>2020-06-29T14:39:18Z</time>
      </trkpt>
      <trkpt lat="44.09251" lon="7.19154">
        <ele>1984.671</ele>
        <time>2020-06-29T14:39:33Z</time>
      </trkpt>
      <trkpt lat="44.0924" lon="7.19158">
        <ele>1981.969</ele>
        <time>2020-06-29T14:39:49Z</time>
      </trkpt>
      <trkpt lat="44.09224" lon="7.19164">
        <ele>1975.59</ele>
        <time>2020-06-29T14:40:04Z</time>
      </trkpt>
      <trkpt lat="44.09217" lon="7.1917">
        <ele>1972.669</ele>
        <time>2020-06-29T14:40:20Z</time>
      </trkpt>
      <trkpt lat="44.09209" lon="7.19177">
        <ele>1969.648</ele>
        <time>2020-06-29T14:40:35Z</time>
      </trkpt>
      <trkpt lat="44.09201" lon="7.19189">
        <ele>1966.756</ele>
        <time>2020-06-29T14:40:51Z</time>
      </trkpt>
      <trkpt lat="44.09192" lon="7.19201">
        <ele>1963.498</ele>
        <time>2020-06-29T14:41:07Z</time>
      </trkpt>
      <trkpt lat="44.09179" lon="7.19212">
        <ele>1960.198</ele>
        <time>2020-06-29T14:41:22Z</time>
      </trkpt>
      <trkpt lat="44.09167" lon="7.19223">
        <ele>1956.861</ele>
        <time>2020-06-29T14:41:38Z</time>
      </trkpt>
      <trkpt lat="44.09161" lon="7.19231">
        <ele>1953.303</ele>
        <time>2020-06-29T14:41:54Z</time>
      </trkpt>
      <trkpt lat="44.0914" lon="7.19238">
        <ele>1947.964</ele>
        <time>2020-06-29T14:42:09Z</time>
      </trkpt>
      <trkpt lat="44.09137" lon="7.19241">
        <ele>1946.389</ele>
        <time>2020-06-29T14:42:25Z</time>
      </trkpt>
      <trkpt lat="44.09129" lon="7.19248">
        <ele>1943.701</ele>
        <time>2020-06-29T14:42:41Z</time>
      </trkpt>
      <trkpt lat="44.09113" lon="7.19259">
        <ele>1937.476</ele>
        <time>2020-06-29T14:42:57Z</time>
      </trkpt>
      <trkpt lat="44.09107" lon="7.19265">
        <ele>1936.748</ele>
        <time>2020-06-29T14:43:13Z</time>
      </trkpt>
      <trkpt lat="44.0909" lon="7.19273">
        <ele>1932.847</ele>
        <time>2020-06-29T14:43:28Z</time>
      </trkpt>
      <trkpt lat="44.09079" lon="7.19289">
        <ele>1929.598</ele>
        <time>2020-06-29T14:43:43Z</time>
      </trkpt>
      <trkpt lat="44.09077" lon="7.1929">
        <ele>1928.943</ele>
        <time>2020-06-29T14:43:58Z</time>
      </trkpt>
      <trkpt lat="44.09066" lon="7.193">
        <ele>1924.821</ele>
        <time>2020-06-29T14:44:14Z</time>
      </trkpt>
      <trkpt lat="44.09052" lon="7.19312">
        <ele>1921.192</ele>
        <time>2020-06-29T14:44:29Z</time>
      </trkpt>
      <trkpt lat="44.09046" lon="7.1932">
        <ele>1918.88</ele>
        <time>2020-06-29T14:44:45Z</time>
      </trkpt>
      <trkpt lat="44.09046" lon="7.1933">
        <ele>1917.176</ele>
        <time>2020-06-29T14:45:01Z</time>
      </trkpt>
      <trkpt lat="44.09055" lon="7.19339">
        <ele>1914.995</ele>
        <time>2020-06-29T14:45:17Z</time>
      </trkpt>
      <trkpt lat="44.0906" lon="7.19358">
        <ele>1909.311</ele>
        <time>2020-06-29T14:45:32Z</time>
      </trkpt>
      <trkpt lat="44.09054" lon="7.19386">
        <ele>1907.529</ele>
        <time>2020-06-29T14:45:48Z</time>
      </trkpt>
      <trkpt lat="44.09051" lon="7.1941">
        <ele>1905.35</ele>
        <time>2020-06-29T14:46:03Z</time>
      </trkpt>
      <trkpt lat="44.09049" lon="7.19435">
        <ele>1904.124</ele>
        <time>2020-06-29T14:46:19Z</time>
      </trkpt>
      <trkpt lat="44.09047" lon="7.19452">
        <ele>1898.899</ele>
        <time>2020-06-29T14:46:34Z</time>
      </trkpt>
      <trkpt lat="44.09046" lon="7.19462">
        <ele>1898.282</ele>
        <time>2020-06-29T14:46:49Z</time>
      </trkpt>
      <trkpt lat="44.09045" lon="7.19477">
        <ele>1901.477</ele>
        <time>2020-06-29T14:47:05Z</time>
      </trkpt>
      <trkpt lat="44.09035" lon="7.19506">
        <ele>1902.868</ele>
        <time>2020-06-29T14:47:21Z</time>
      </trkpt>
      <trkpt lat="44.0902" lon="7.19526">
        <ele>1895.73</ele>
        <time>2020-06-29T14:47:37Z</time>
      </trkpt>
      <trkpt lat="44.09007" lon="7.19547">
        <ele>1893.014</ele>
        <time>2020-06-29T14:47:53Z</time>
      </trkpt>
      <trkpt lat="44.09" lon="7.19571">
        <ele>1889.22</ele>
        <time>2020-06-29T14:48:09Z</time>
      </trkpt>
      <trkpt lat="44.08989" lon="7.1959">
        <ele>1886.181</ele>
        <time>2020-06-29T14:48:24Z</time>
      </trkpt>
      <trkpt lat="44.08975" lon="7.19611">
        <ele>1882.854</ele>
        <time>2020-06-29T14:48:40Z</time>
      </trkpt>
      <trkpt lat="44.08961" lon="7.1962">
        <ele>1881.652</ele>
        <time>2020-06-29T14:48:55Z</time>
      </trkpt>
      <trkpt lat="44.08953" lon="7.19644">
        <ele>1881.31</ele>
        <time>2020-06-29T14:49:10Z</time>
      </trkpt>
      <trkpt lat="44.08947" lon="7.19663">
        <ele>1876.713</ele>
        <time>2020-06-29T14:49:25Z</time>
      </trkpt>
      <trkpt lat="44.08943" lon="7.19683">
        <ele>1872.161</ele>
        <time>2020-06-29T14:49:40Z</time>
      </trkpt>
      <trkpt lat="44.08944" lon="7.19697">
        <ele>1872.574</ele>
        <time>2020-06-29T14:49:56Z</time>
      </trkpt>
      <trkpt lat="44.08936" lon="7.19712">
        <ele>1875.508</ele>
        <time>2020-06-29T14:50:12Z</time>
      </trkpt>
      <trkpt lat="44.08935" lon="7.19714">
        <ele>1875.184</ele>
        <time>2020-06-29T14:50:27Z</time>
      </trkpt>
      <trkpt lat="44.08931" lon="7.19718">
        <ele>1876.057</ele>
        <time>2020-06-29T14:50:43Z</time>
      </trkpt>
      <trkpt lat="44.0892" lon="7.19725">
        <ele>1876.009</ele>
        <time>2020-06-29T14:50:58Z</time>
      </trkpt>
      <trkpt lat="44.08908" lon="7.19731">
        <ele>1875.921</ele>
        <time>2020-06-29T14:51:13Z</time>
      </trkpt>
      <trkpt lat="44.08894" lon="7.19736">
        <ele>1872.403</ele>
        <time>2020-06-29T14:51:29Z</time>
      </trkpt>
      <trkpt lat="44.08883" lon="7.19741">
        <ele>1870.489</ele>
        <time>2020-06-29T14:51:45Z</time>
      </trkpt>
      <trkpt lat="44.0887" lon="7.19755">
        <ele>1868.51</ele>
        <time>2020-06-29T14:52:01Z</time>
      </trkpt>
      <trkpt lat="44.08862" lon="7.19767">
        <ele>1864.211</ele>
        <time>2020-06-29T14:52:17Z</time>
      </trkpt>
      <trkpt lat="44.08853" lon="7.19783">
        <ele>1859.904</ele>
        <time>2020-06-29T14:52:32Z</time>
      </trkpt>
      <trkpt lat="44.08839" lon="7.19798">
        <ele>1850.646</ele>
        <time>2020-06-29T14:52:48Z</time>
      </trkpt>
      <trkpt lat="44.08828" lon="7.19806">
        <ele>1847.622</ele>
        <time>2020-06-29T14:53:04Z</time>
      </trkpt>
      <trkpt lat="44.08819" lon="7.19787">
        <ele>1842.429</ele>
        <time>2020-06-29T14:53:19Z</time>
      </trkpt>
      <trkpt lat="44.08809" lon="7.19767">
        <ele>1837.494</ele>
        <time>2020-06-29T14:53:35Z</time>
      </trkpt>
      <trkpt lat="44.08799" lon="7.19768">
        <ele>1831.272</ele>
        <time>2020-06-29T14:53:51Z</time>
      </trkpt>
      <trkpt lat="44.08791" lon="7.19781">
        <ele>1825.319</ele>
        <time>2020-06-29T14:54:07Z</time>
      </trkpt>
      <trkpt lat="44.08783" lon="7.198">
        <ele>1824.803</ele>
        <time>2020-06-29T14:54:22Z</time>
      </trkpt>
      <trkpt lat="44.0877" lon="7.19804">
        <ele>1820.444</ele>
        <time>2020-06-29T14:54:37Z</time>
      </trkpt>
      <trkpt lat="44.08761" lon="7.1979">
        <ele>1818.372</ele>
        <time>2020-06-29T14:54:53Z</time>
      </trkpt>
      <trkpt lat="44.08748" lon="7.19781">
        <ele>1815.709</ele>
        <time>2020-06-29T14:55:09Z</time>
      </trkpt>
      <trkpt lat="44.08742" lon="7.19788">
        <ele>1813.689</ele>
        <time>2020-06-29T14:55:24Z</time>
      </trkpt>
      <trkpt lat="44.08736" lon="7.19797">
        <ele>1810.793</ele>
        <time>2020-06-29T14:55:40Z</time>
      </trkpt>
      <trkpt lat="44.08729" lon="7.19803">
        <ele>1809.067</ele>
        <time>2020-06-29T14:55:55Z</time>
      </trkpt>
      <trkpt lat="44.08718" lon="7.19823">
        <ele>1804.962</ele>
        <time>2020-06-29T14:56:11Z</time>
      </trkpt>
      <trkpt lat="44.08705" lon="7.19845">
        <ele>1803.184</ele>
        <time>2020-06-29T14:56:27Z</time>
      </trkpt>
      <trkpt lat="44.08697" lon="7.19861">
        <ele>1802.783</ele>
        <time>2020-06-29T14:56:42Z</time>
      </trkpt>
      <trkpt lat="44.08686" lon="7.19849">
        <ele>1798.161</ele>
        <time>2020-06-29T14:56:58Z</time>
      </trkpt>
      <trkpt lat="44.08682" lon="7.19826">
        <ele>1793.156</ele>
        <time>2020-06-29T14:57:13Z</time>
      </trkpt>
      <trkpt lat="44.08674" lon="7.19819">
        <ele>1790.417</ele>
        <time>2020-06-29T14:57:29Z</time>
      </trkpt>
      <trkpt lat="44.0867" lon="7.19821">
        <ele>1787.275</ele>
        <time>2020-06-29T14:57:45Z</time>
      </trkpt>
      <trkpt lat="44.08662" lon="7.19829">
        <ele>1786.925</ele>
        <time>2020-06-29T14:58:01Z</time>
      </trkpt>
      <trkpt lat="44.08659" lon="7.19833">
        <ele>1787.479</ele>
        <time>2020-06-29T14:58:17Z</time>
      </trkpt>
      <trkpt lat="44.08653" lon="7.19833">
        <ele>1785.538</ele>
        <time>2020-06-29T14:58:32Z</time>
      </trkpt>
      <trkpt lat="44.08653" lon="7.19833">
        <ele>1785.538</ele>
        <time>2020-06-29T14:58:47Z</time>
      </trkpt>
      <trkpt lat="44.08651" lon="7.19834">
        <ele>1784.527</ele>
        <time>2020-06-29T14:59:03Z</time>
      </trkpt>
      <trkpt lat="44.08651" lon="7.19834">
        <ele>1784.527</ele>
        <time>2020-06-29T14:59:19Z</time>
      </trkpt>
      <trkpt lat="44.08651" lon="7.19834">
        <ele>1784.527</ele>
        <time>2020-06-29T14:59:35Z</time>
      </trkpt>
      <trkpt lat="44.08652" lon="7.19834">
        <ele>1785.3</ele>
        <time>2020-06-29T14:59:51Z</time>
      </trkpt>
      <trkpt lat="44.08652" lon="7.19834">
        <ele>1785.3</ele>
        <time>2020-06-29T15:00:07Z</time>
      </trkpt>
      <trkpt lat="44.08648" lon="7.19834">
        <ele>1783.54</ele>
        <time>2020-06-29T15:00:22Z</time>
      </trkpt>
      <trkpt lat="44.08632" lon="7.1983">
        <ele>1776.911</ele>
        <time>2020-06-29T15:00:37Z</time>
      </trkpt>
      <trkpt lat="44.0862" lon="7.1983">
        <ele>1772.53</ele>
        <time>2020-06-29T15:00:53Z</time>
      </trkpt>
      <trkpt lat="44.08616" lon="7.19825">
        <ele>1772.524</ele>
        <time>2020-06-29T15:01:09Z</time>
      </trkpt>
      <trkpt lat="44.08608" lon="7.19819">
        <ele>1769.465</ele>
        <time>2020-06-29T15:01:25Z</time>
      </trkpt>
      <trkpt lat="44.08589" lon="7.19818">
        <ele>1766.11</ele>
        <time>2020-06-29T15:01:41Z</time>
      </trkpt>
      <trkpt lat="44.08573" lon="7.1981">
        <ele>1761.62</ele>
        <time>2020-06-29T15:01:57Z</time>
      </trkpt>
      <trkpt lat="44.08564" lon="7.19817">
        <ele>1762.077</ele>
        <time>2020-06-29T15:02:12Z</time>
      </trkpt>
      <trkpt lat="44.08552" lon="7.19815">
        <ele>1760.957</ele>
        <time>2020-06-29T15:02:28Z</time>
      </trkpt>
      <trkpt lat="44.08541" lon="7.1981">
        <ele>1755.779</ele>
        <time>2020-06-29T15:02:44Z</time>
      </trkpt>
      <trkpt lat="44.08529" lon="7.19798">
        <ele>1746.105</ele>
        <time>2020-06-29T15:03:00Z</time>
      </trkpt>
      <trkpt lat="44.08522" lon="7.19795">
        <ele>1742.939</ele>
        <time>2020-06-29T15:03:15Z</time>
      </trkpt>
      <trkpt lat="44.08511" lon="7.19803">
        <ele>1740.024</ele>
        <time>2020-06-29T15:03:31Z</time>
      </trkpt>
      <trkpt lat="44.08499" lon="7.19807">
        <ele>1740.115</ele>
        <time>2020-06-29T15:03:47Z</time>
      </trkpt>
      <trkpt lat="44.08492" lon="7.19823">
        <ele>1740.133</ele>
        <time>2020-06-29T15:04:02Z</time>
      </trkpt>
      <trkpt lat="44.08488" lon="7.19834">
        <ele>1740.397</ele>
        <time>2020-06-29T15:04:18Z</time>
      </trkpt>
      <trkpt lat="44.08483" lon="7.19841">
        <ele>1739.221</ele>
        <time>2020-06-29T15:04:34Z</time>
      </trkpt>
      <trkpt lat="44.08473" lon="7.19848">
        <ele>1738.791</ele>
        <time>2020-06-29T15:04:50Z</time>
      </trkpt>
      <trkpt lat="44.0846" lon="7.19855">
        <ele>1735.168</ele>
        <time>2020-06-29T15:05:05Z</time>
      </trkpt>
      <trkpt lat="44.08456" lon="7.19859">
        <ele>1735.942</ele>
        <time>2020-06-29T15:05:21Z</time>
      </trkpt>
      <trkpt lat="44.08453" lon="7.19858">
        <ele>1734.918</ele>
        <time>2020-06-29T15:05:37Z</time>
      </trkpt>
      <trkpt lat="44.08433" lon="7.19881">
        <ele>1730.985</ele>
        <time>2020-06-29T15:05:53Z</time>
      </trkpt>
      <trkpt lat="44.08422" lon="7.199">
        <ele>1727.327</ele>
        <time>2020-06-29T15:06:08Z</time>
      </trkpt>
      <trkpt lat="44.08421" lon="7.19915">
        <ele>1725.686</ele>
        <time>2020-06-29T15:06:23Z</time>
      </trkpt>
      <trkpt lat="44.08421" lon="7.1993">
        <ele>1724.321</ele>
        <time>2020-06-29T15:06:39Z</time>
      </trkpt>
      <trkpt lat="44.08417" lon="7.19935">
        <ele>1724.122</ele>
        <time>2020-06-29T15:06:55Z</time>
      </trkpt>
      <trkpt lat="44.08413" lon="7.19942">
        <ele>1721.15</ele>
        <time>2020-06-29T15:07:10Z</time>
      </trkpt>
      <trkpt lat="44.08413" lon="7.19943">
        <ele>1720.522</ele>
        <time>2020-06-29T15:07:26Z</time>
      </trkpt>
      <trkpt lat="44.08399" lon="7.19965">
        <ele>1708.746</ele>
        <time>2020-06-29T15:07:42Z</time>
      </trkpt>
      <trkpt lat="44.08392" lon="7.19976">
        <ele>1707.317</ele>
        <time>2020-06-29T15:07:57Z</time>
      </trkpt>
      <trkpt lat="44.08392" lon="7.19976">
        <ele>1707.317</ele>
        <time>2020-06-29T15:08:13Z</time>
      </trkpt>
      <trkpt lat="44.08392" lon="7.19976">
        <ele>1707.317</ele>
        <time>2020-06-29T15:08:29Z</time>
      </trkpt>
      <trkpt lat="44.08392" lon="7.19976">
        <ele>1707.317</ele>
        <time>2020-06-29T15:08:44Z</time>
      </trkpt>
      <trkpt lat="44.08391" lon="7.19978">
        <ele>1708.326</ele>
        <time>2020-06-29T15:09:00Z</time>
      </trkpt>
      <trkpt lat="44.08387" lon="7.19982">
        <ele>1709.373</ele>
        <time>2020-06-29T15:09:16Z</time>
      </trkpt>
      <trkpt lat="44.08383" lon="7.19984">
        <ele>1711.53</ele>
        <time>2020-06-29T15:09:32Z</time>
      </trkpt>
      <trkpt lat="44.08382" lon="7.19988">
        <ele>1712.257</ele>
        <time>2020-06-29T15:09:48Z</time>
      </trkpt>
      <trkpt lat="44.08376" lon="7.20001">
        <ele>1710.472</ele>
        <time>2020-06-29T15:10:03Z</time>
      </trkpt>
      <trkpt lat="44.08367" lon="7.20019">
        <ele>1705.449</ele>
        <time>2020-06-29T15:10:19Z</time>
      </trkpt>
      <trkpt lat="44.08355" lon="7.20024">
        <ele>1697.383</ele>
        <time>2020-06-29T15:10:35Z</time>
      </trkpt>
      <trkpt lat="44.08341" lon="7.20026">
        <ele>1687.367</ele>
        <time>2020-06-29T15:10:51Z</time>
      </trkpt>
      <trkpt lat="44.08339" lon="7.20028">
        <ele>1685.5</ele>
        <time>2020-06-29T15:11:06Z</time>
      </trkpt>
      <trkpt lat="44.08339" lon="7.20028">
        <ele>1685.5</ele>
        <time>2020-06-29T15:11:21Z</time>
      </trkpt>
      <trkpt lat="44.08338" lon="7.20028">
        <ele>1685.311</ele>
        <time>2020-06-29T15:11:37Z</time>
      </trkpt>
      <trkpt lat="44.08329" lon="7.20023">
        <ele>1681.296</ele>
        <time>2020-06-29T15:11:53Z</time>
      </trkpt>
      <trkpt lat="44.08317" lon="7.20016">
        <ele>1679.835</ele>
        <time>2020-06-29T15:12:09Z</time>
      </trkpt>
      <trkpt lat="44.08308" lon="7.20019">
        <ele>1679.403</ele>
        <time>2020-06-29T15:12:24Z</time>
      </trkpt>
      <trkpt lat="44.08294" lon="7.20033">
        <ele>1679.39</ele>
        <time>2020-06-29T15:12:40Z</time>
      </trkpt>
      <trkpt lat="44.08274" lon="7.20046">
        <ele>1676.41</ele>
        <time>2020-06-29T15:12:56Z</time>
      </trkpt>
      <trkpt lat="44.08262" lon="7.20044">
        <ele>1674.518</ele>
        <time>2020-06-29T15:13:12Z</time>
      </trkpt>
      <trkpt lat="44.08247" lon="7.20052">
        <ele>1672.274</ele>
        <time>2020-06-29T15:13:28Z</time>
      </trkpt>
      <trkpt lat="44.08236" lon="7.20064">
        <ele>1668.311</ele>
        <time>2020-06-29T15:13:43Z</time>
      </trkpt>
      <trkpt lat="44.08235" lon="7.20086">
        <ele>1665.839</ele>
        <time>2020-06-29T15:13:59Z</time>
      </trkpt>
      <trkpt lat="44.08225" lon="7.2011">
        <ele>1665.115</ele>
        <time>2020-06-29T15:14:14Z</time>
      </trkpt>
      <trkpt lat="44.08221" lon="7.20133">
        <ele>1660.364</ele>
        <time>2020-06-29T15:14:30Z</time>
      </trkpt>
      <trkpt lat="44.08206" lon="7.20156">
        <ele>1652.277</ele>
        <time>2020-06-29T15:14:45Z</time>
      </trkpt>
      <trkpt lat="44.08192" lon="7.20164">
        <ele>1649.05</ele>
        <time>2020-06-29T15:15:01Z</time>
      </trkpt>
      <trkpt lat="44.08184" lon="7.20169">
        <ele>1651.014</ele>
        <time>2020-06-29T15:15:16Z</time>
      </trkpt>
      <trkpt lat="44.08183" lon="7.20171">
        <ele>1654.378</ele>
        <time>2020-06-29T15:15:32Z</time>
      </trkpt>
      <trkpt lat="44.08167" lon="7.20174">
        <ele>1655.899</ele>
        <time>2020-06-29T15:15:48Z</time>
      </trkpt>
      <trkpt lat="44.0815" lon="7.20169">
        <ele>1657.287</ele>
        <time>2020-06-29T15:16:03Z</time>
      </trkpt>
      <trkpt lat="44.08134" lon="7.20172">
        <ele>1656.832</ele>
        <time>2020-06-29T15:16:19Z</time>
      </trkpt>
      <trkpt lat="44.08124" lon="7.20171">
        <ele>1650.324</ele>
        <time>2020-06-29T15:16:34Z</time>
      </trkpt>
      <trkpt lat="44.08108" lon="7.20171">
        <ele>1643.957</ele>
        <time>2020-06-29T15:16:50Z</time>
      </trkpt>
      <trkpt lat="44.08095" lon="7.20164">
        <ele>1633.001</ele>
        <time>2020-06-29T15:17:05Z</time>
      </trkpt>
      <trkpt lat="44.08081" lon="7.20157">
        <ele>1631.275</ele>
        <time>2020-06-29T15:17:20Z</time>
      </trkpt>
      <trkpt lat="44.08071" lon="7.20162">
        <ele>1631.098</ele>
        <time>2020-06-29T15:17:36Z</time>
      </trkpt>
      <trkpt lat="44.08065" lon="7.20169">
        <ele>1629.364</ele>
        <time>2020-06-29T15:17:52Z</time>
      </trkpt>
      <trkpt lat="44.08061" lon="7.20189">
        <ele>1624.3</ele>
        <time>2020-06-29T15:18:07Z</time>
      </trkpt>
      <trkpt lat="44.08058" lon="7.20204">
        <ele>1624</ele>
        <time>2020-06-29T15:18:22Z</time>
      </trkpt>
      <trkpt lat="44.08054" lon="7.20229">
        <ele>1623.559</ele>
        <time>2020-06-29T15:18:38Z</time>
      </trkpt>
      <trkpt lat="44.08046" lon="7.20242">
        <ele>1624.798</ele>
        <time>2020-06-29T15:18:53Z</time>
      </trkpt>
      <trkpt lat="44.08029" lon="7.20269">
        <ele>1621.04</ele>
        <time>2020-06-29T15:19:09Z</time>
      </trkpt>
      <trkpt lat="44.08017" lon="7.20283">
        <ele>1612.866</ele>
        <time>2020-06-29T15:19:24Z</time>
      </trkpt>
      <trkpt lat="44.08007" lon="7.20297">
        <ele>1612.121</ele>
        <time>2020-06-29T15:19:40Z</time>
      </trkpt>
      <trkpt lat="44.07995" lon="7.20307">
        <ele>1613.458</ele>
        <time>2020-06-29T15:19:56Z</time>
      </trkpt>
      <trkpt lat="44.07983" lon="7.2031">
        <ele>1610.912</ele>
        <time>2020-06-29T15:20:11Z</time>
      </trkpt>
      <trkpt lat="44.07973" lon="7.20302">
        <ele>1609.455</ele>
        <time>2020-06-29T15:20:26Z</time>
      </trkpt>
      <trkpt lat="44.07971" lon="7.20302">
        <ele>1608.102</ele>
        <time>2020-06-29T15:20:42Z</time>
      </trkpt>
      <trkpt lat="44.0796" lon="7.20293">
        <ele>1603.668</ele>
        <time>2020-06-29T15:20:58Z</time>
      </trkpt>
      <trkpt lat="44.07942" lon="7.20283">
        <ele>1599.003</ele>
        <time>2020-06-29T15:21:14Z</time>
      </trkpt>
      <trkpt lat="44.07931" lon="7.20278">
        <ele>1595.74</ele>
        <time>2020-06-29T15:21:29Z</time>
      </trkpt>
      <trkpt lat="44.07917" lon="7.20276">
        <ele>1590.701</ele>
        <time>2020-06-29T15:21:45Z</time>
      </trkpt>
      <trkpt lat="44.07899" lon="7.20275">
        <ele>1588.758</ele>
        <time>2020-06-29T15:22:01Z</time>
      </trkpt>
      <trkpt lat="44.07892" lon="7.20274">
        <ele>1587.449</ele>
        <time>2020-06-29T15:22:16Z</time>
      </trkpt>
      <trkpt lat="44.07888" lon="7.20273">
        <ele>1585.142</ele>
        <time>2020-06-29T15:22:32Z</time>
      </trkpt>
      <trkpt lat="44.07875" lon="7.20269">
        <ele>1579.624</ele>
        <time>2020-06-29T15:22:48Z</time>
      </trkpt>
      <trkpt lat="44.07861" lon="7.20266">
        <ele>1574.56</ele>
        <time>2020-06-29T15:23:03Z</time>
      </trkpt>
      <trkpt lat="44.0785" lon="7.20272">
        <ele>1574.455</ele>
        <time>2020-06-29T15:23:18Z</time>
      </trkpt>
      <trkpt lat="44.0784" lon="7.20278">
        <ele>1571.123</ele>
        <time>2020-06-29T15:23:33Z</time>
      </trkpt>
      <trkpt lat="44.07826" lon="7.20278">
        <ele>1567.045</ele>
        <time>2020-06-29T15:23:49Z</time>
      </trkpt>
      <trkpt lat="44.07815" lon="7.20268">
        <ele>1565.696</ele>
        <time>2020-06-29T15:24:04Z</time>
      </trkpt>
      <trkpt lat="44.07807" lon="7.20261">
        <ele>1560.002</ele>
        <time>2020-06-29T15:24:19Z</time>
      </trkpt>
      <trkpt lat="44.07795" lon="7.20251">
        <ele>1552.376</ele>
        <time>2020-06-29T15:24:35Z</time>
      </trkpt>
      <trkpt lat="44.07784" lon="7.20245">
        <ele>1548.879</ele>
        <time>2020-06-29T15:24:51Z</time>
      </trkpt>
      <trkpt lat="44.07776" lon="7.20255">
        <ele>1547.251</ele>
        <time>2020-06-29T15:25:07Z</time>
      </trkpt>
      <trkpt lat="44.07781" lon="7.20265">
        <ele>1544.288</ele>
        <time>2020-06-29T15:25:23Z</time>
      </trkpt>
      <trkpt lat="44.07764" lon="7.20264">
        <ele>1544.178</ele>
        <time>2020-06-29T15:25:38Z</time>
      </trkpt>
      <trkpt lat="44.07749" lon="7.20256">
        <ele>1538.63</ele>
        <time>2020-06-29T15:25:54Z</time>
      </trkpt>
      <trkpt lat="44.07742" lon="7.20223">
        <ele>1533.808</ele>
        <time>2020-06-29T15:26:09Z</time>
      </trkpt>
      <trkpt lat="44.07742" lon="7.20209">
        <ele>1529.234</ele>
        <time>2020-06-29T15:26:24Z</time>
      </trkpt>
      <trkpt lat="44.07741" lon="7.20199">
        <ele>1529.44</ele>
        <time>2020-06-29T15:26:40Z</time>
      </trkpt>
      <trkpt lat="44.07722" lon="7.20212">
        <ele>1529.175</ele>
        <time>2020-06-29T15:26:55Z</time>
      </trkpt>
      <trkpt lat="44.07703" lon="7.20222">
        <ele>1533.87</ele>
        <time>2020-06-29T15:27:10Z</time>
      </trkpt>
      <trkpt lat="44.07685" lon="7.20227">
        <ele>1530.58</ele>
        <time>2020-06-29T15:27:25Z</time>
      </trkpt>
      <trkpt lat="44.07668" lon="7.20239">
        <ele>1534.849</ele>
        <time>2020-06-29T15:27:41Z</time>
      </trkpt>
      <trkpt lat="44.07658" lon="7.20236">
        <ele>1533.279</ele>
        <time>2020-06-29T15:27:57Z</time>
      </trkpt>
      <trkpt lat="44.07648" lon="7.20231">
        <ele>1534.755</ele>
        <time>2020-06-29T15:28:13Z</time>
      </trkpt>
      <trkpt lat="44.07638" lon="7.20226">
        <ele>1532.088</ele>
        <time>2020-06-29T15:28:28Z</time>
      </trkpt>
      <trkpt lat="44.07617" lon="7.20224">
        <ele>1528.222</ele>
        <time>2020-06-29T15:28:44Z</time>
      </trkpt>
      <trkpt lat="44.07602" lon="7.20214">
        <ele>1520.146</ele>
        <time>2020-06-29T15:28:59Z</time>
      </trkpt>
      <trkpt lat="44.07586" lon="7.20211">
        <ele>1513.523</ele>
        <time>2020-06-29T15:29:14Z</time>
      </trkpt>
      <trkpt lat="44.0757" lon="7.20202">
        <ele>1509.344</ele>
        <time>2020-06-29T15:29:30Z</time>
      </trkpt>
      <trkpt lat="44.07551" lon="7.20202">
        <ele>1503.093</ele>
        <time>2020-06-29T15:29:46Z</time>
      </trkpt>
      <trkpt lat="44.07533" lon="7.20206">
        <ele>1502.942</ele>
        <time>2020-06-29T15:30:01Z</time>
      </trkpt>
      <trkpt lat="44.07522" lon="7.20197">
        <ele>1493.646</ele>
        <time>2020-06-29T15:30:16Z</time>
      </trkpt>
      <trkpt lat="44.07512" lon="7.20196">
        <ele>1492.732</ele>
        <time>2020-06-29T15:30:31Z</time>
      </trkpt>
      <trkpt lat="44.07499" lon="7.20198">
        <ele>1485.309</ele>
        <time>2020-06-29T15:30:47Z</time>
      </trkpt>
      <trkpt lat="44.07485" lon="7.20205">
        <ele>1479.754</ele>
        <time>2020-06-29T15:31:03Z</time>
      </trkpt>
      <trkpt lat="44.07472" lon="7.20211">
        <ele>1480.753</ele>
        <time>2020-06-29T15:31:18Z</time>
      </trkpt>
      <trkpt lat="44.0746" lon="7.20212">
        <ele>1476.465</ele>
        <time>2020-06-29T15:31:34Z</time>
      </trkpt>
      <trkpt lat="44.07451" lon="7.20213">
        <ele>1474.17</ele>
        <time>2020-06-29T15:31:49Z</time>
      </trkpt>
      <trkpt lat="44.07451" lon="7.20213">
        <ele>1474.17</ele>
        <time>2020-06-29T15:32:05Z</time>
      </trkpt>
      <trkpt lat="44.0744" lon="7.20208">
        <ele>1467.186</ele>
        <time>2020-06-29T15:32:20Z</time>
      </trkpt>
      <trkpt lat="44.07423" lon="7.20209">
        <ele>1462.083</ele>
        <time>2020-06-29T15:32:36Z</time>
      </trkpt>
      <trkpt lat="44.07404" lon="7.2021">
        <ele>1460.859</ele>
        <time>2020-06-29T15:32:51Z</time>
      </trkpt>
      <trkpt lat="44.0739" lon="7.20211">
        <ele>1456.706</ele>
        <time>2020-06-29T15:33:06Z</time>
      </trkpt>
      <trkpt lat="44.07374" lon="7.20205">
        <ele>1453.179</ele>
        <time>2020-06-29T15:33:22Z</time>
      </trkpt>
      <trkpt lat="44.07358" lon="7.20205">
        <ele>1449.641</ele>
        <time>2020-06-29T15:33:38Z</time>
      </trkpt>
      <trkpt lat="44.07343" lon="7.20206">
        <ele>1448.18</ele>
        <time>2020-06-29T15:33:53Z</time>
      </trkpt>
      <trkpt lat="44.07345" lon="7.20211">
        <ele>1447.774</ele>
        <time>2020-06-29T15:34:09Z</time>
      </trkpt>
      <trkpt lat="44.07333" lon="7.20213">
        <ele>1444.944</ele>
        <time>2020-06-29T15:34:24Z</time>
      </trkpt>
      <trkpt lat="44.07319" lon="7.20221">
        <ele>1442.116</ele>
        <time>2020-06-29T15:34:40Z</time>
      </trkpt>
      <trkpt lat="44.07302" lon="7.20221">
        <ele>1440.491</ele>
        <time>2020-06-29T15:34:55Z</time>
      </trkpt>
      <trkpt lat="44.07283" lon="7.20223">
        <ele>1439.998</ele>
        <time>2020-06-29T15:35:11Z</time>
      </trkpt>
      <trkpt lat="44.07264" lon="7.20238">
        <ele>1444.536</ele>
        <time>2020-06-29T15:35:27Z</time>
      </trkpt>
      <trkpt lat="44.0726" lon="7.20235">
        <ele>1442.839</ele>
        <time>2020-06-29T15:35:42Z</time>
      </trkpt>
      <trkpt lat="44.07259" lon="7.20235">
        <ele>1443.16</ele>
        <time>2020-06-29T15:35:58Z</time>
      </trkpt>
      <trkpt lat="44.07259" lon="7.20235">
        <ele>1443.16</ele>
        <time>2020-06-29T15:36:14Z</time>
      </trkpt>
      <trkpt lat="44.07259" lon="7.20235">
        <ele>1443.16</ele>
        <time>2020-06-29T15:36:29Z</time>
      </trkpt>
      <trkpt lat="44.07259" lon="7.20236">
        <ele>1442.823</ele>
        <time>2020-06-29T15:36:44Z</time>
      </trkpt>
      <trkpt lat="44.07259" lon="7.20234">
        <ele>1443.167</ele>
        <time>2020-06-29T15:37:00Z</time>
      </trkpt>
      <trkpt lat="44.07259" lon="7.20234">
        <ele>1443.363</ele>
        <time>2020-06-29T15:37:16Z</time>
      </trkpt>
      <trkpt lat="44.07259" lon="7.20234">
        <ele>1443.363</ele>
        <time>2020-06-29T15:37:32Z</time>
      </trkpt>
      <trkpt lat="44.07259" lon="7.20234">
        <ele>1443.363</ele>
        <time>2020-06-29T15:37:48Z</time>
      </trkpt>
      <trkpt lat="44.07259" lon="7.20234">
        <ele>1443.363</ele>
        <time>2020-06-29T15:38:04Z</time>
      </trkpt>
      <trkpt lat="44.07259" lon="7.20234">
        <ele>1443.363</ele>
        <time>2020-06-29T15:38:20Z</time>
      </trkpt>
      <trkpt lat="44.07259" lon="7.20234">
        <ele>1443.363</ele>
        <time>2020-06-29T15:38:35Z</time>
      </trkpt>
      <trkpt lat="44.07259" lon="7.20234">
        <ele>1443.363</ele>
        <time>2020-06-29T15:38:50Z</time>
      </trkpt>
      <trkpt lat="44.07259" lon="7.20234">
        <ele>1443.363</ele>
        <time>2020-06-29T15:39:06Z</time>
      </trkpt>
      <trkpt lat="44.07259" lon="7.20234">
        <ele>1443.363</ele>
        <time>2020-06-29T15:39:21Z</time>
      </trkpt>
      <trkpt lat="44.07259" lon="7.20234">
        <ele>1443.363</ele>
        <time>2020-06-29T15:39:37Z</time>
      </trkpt>
      <trkpt lat="44.07259" lon="7.20234">
        <ele>1443.363</ele>
        <time>2020-06-29T15:39:53Z</time>
      </trkpt>
      <trkpt lat="44.07259" lon="7.20234">
        <ele>1443.363</ele>
        <time>2020-06-29T15:40:08Z</time>
      </trkpt>
      <trkpt lat="44.07259" lon="7.20234">
        <ele>1443.363</ele>
        <time>2020-06-29T15:40:23Z</time>
      </trkpt>
      <trkpt lat="44.07259" lon="7.20234">
        <ele>1443.363</ele>
        <time>2020-06-29T15:40:39Z</time>
      </trkpt>
      <trkpt lat="44.07259" lon="7.20234">
        <ele>1443.363</ele>
        <time>2020-06-29T15:40:55Z</time>
      </trkpt>
      <trkpt lat="44.07259" lon="7.20234">
        <ele>1443.363</ele>
        <time>2020-06-29T15:41:11Z</time>
      </trkpt>
      <trkpt lat="44.07259" lon="7.20234">
        <ele>1443.363</ele>
        <time>2020-06-29T15:41:27Z</time>
      </trkpt>
      <trkpt lat="44.07262" lon="7.20232">
        <ele>1443.389</ele>
        <time>2020-06-29T15:41:43Z</time>
      </trkpt>
      <trkpt lat="44.07262" lon="7.20232">
        <ele>1443.389</ele>
        <time>2020-06-29T15:41:59Z</time>
      </trkpt>
      <trkpt lat="44.07262" lon="7.20232">
        <ele>1443.389</ele>
        <time>2020-06-29T15:42:15Z</time>
      </trkpt>
      <trkpt lat="44.07262" lon="7.20232">
        <ele>1443.389</ele>
        <time>2020-06-29T15:42:30Z</time>
      </trkpt>
      <trkpt lat="44.07255" lon="7.20238">
        <ele>1441.843</ele>
        <time>2020-06-29T15:42:46Z</time>
      </trkpt>
      <trkpt lat="44.07239" lon="7.20229">
        <ele>1439.707</ele>
        <time>2020-06-29T15:43:01Z</time>
      </trkpt>
      <trkpt lat="44.07222" lon="7.20241">
        <ele>1437.163</ele>
        <time>2020-06-29T15:43:16Z</time>
      </trkpt>
      <trkpt lat="44.07208" lon="7.20257">
        <ele>1434.149</ele>
        <time>2020-06-29T15:43:32Z</time>
      </trkpt>
      <trkpt lat="44.07188" lon="7.20261">
        <ele>1429.233</ele>
        <time>2020-06-29T15:43:47Z</time>
      </trkpt>
      <trkpt lat="44.0717" lon="7.20266">
        <ele>1426.536</ele>
        <time>2020-06-29T15:44:03Z</time>
      </trkpt>
      <trkpt lat="44.07154" lon="7.20278">
        <ele>1420.128</ele>
        <time>2020-06-29T15:44:19Z</time>
      </trkpt>
      <trkpt lat="44.07139" lon="7.20291">
        <ele>1417.605</ele>
        <time>2020-06-29T15:44:35Z</time>
      </trkpt>
      <trkpt lat="44.0712" lon="7.20294">
        <ele>1414.266</ele>
        <time>2020-06-29T15:44:50Z</time>
      </trkpt>
      <trkpt lat="44.07101" lon="7.20292">
        <ele>1410.67</ele>
        <time>2020-06-29T15:45:06Z</time>
      </trkpt>
      <trkpt lat="44.07083" lon="7.20293">
        <ele>1409.549</ele>
        <time>2020-06-29T15:45:22Z</time>
      </trkpt>
      <trkpt lat="44.07068" lon="7.20289">
        <ele>1408.952</ele>
        <time>2020-06-29T15:45:38Z</time>
      </trkpt>
      <trkpt lat="44.07055" lon="7.2028">
        <ele>1401.915</ele>
        <time>2020-06-29T15:45:53Z</time>
      </trkpt>
      <trkpt lat="44.07038" lon="7.20279">
        <ele>1395.991</ele>
        <time>2020-06-29T15:46:08Z</time>
      </trkpt>
      <trkpt lat="44.07024" lon="7.20276">
        <ele>1389.643</ele>
        <time>2020-06-29T15:46:23Z</time>
      </trkpt>
      <trkpt lat="44.07005" lon="7.20276">
        <ele>1388.087</ele>
        <time>2020-06-29T15:46:39Z</time>
      </trkpt>
      <trkpt lat="44.06987" lon="7.20279">
        <ele>1385.414</ele>
        <time>2020-06-29T15:46:54Z</time>
      </trkpt>
      <trkpt lat="44.06971" lon="7.20289">
        <ele>1382.804</ele>
        <time>2020-06-29T15:47:10Z</time>
      </trkpt>
      <trkpt lat="44.06956" lon="7.20305">
        <ele>1379.567</ele>
        <time>2020-06-29T15:47:26Z</time>
      </trkpt>
      <trkpt lat="44.06943" lon="7.20317">
        <ele>1374.904</ele>
        <time>2020-06-29T15:47:42Z</time>
      </trkpt>
      <trkpt lat="44.06924" lon="7.20327">
        <ele>1375.929</ele>
        <time>2020-06-29T15:47:57Z</time>
      </trkpt>
      <trkpt lat="44.06904" lon="7.20332">
        <ele>1377.058</ele>
        <time>2020-06-29T15:48:12Z</time>
      </trkpt>
      <trkpt lat="44.06887" lon="7.20329">
        <ele>1370.974</ele>
        <time>2020-06-29T15:48:28Z</time>
      </trkpt>
      <trkpt lat="44.06872" lon="7.20334">
        <ele>1369.798</ele>
        <time>2020-06-29T15:48:44Z</time>
      </trkpt>
      <trkpt lat="44.06855" lon="7.2034">
        <ele>1369.21</ele>
        <time>2020-06-29T15:49:00Z</time>
      </trkpt>
      <trkpt lat="44.06836" lon="7.20347">
        <ele>1366.815</ele>
        <time>2020-06-29T15:49:15Z</time>
      </trkpt>
      <trkpt lat="44.06819" lon="7.20339">
        <ele>1366.01</ele>
        <time>2020-06-29T15:49:31Z</time>
      </trkpt>
      <trkpt lat="44.06802" lon="7.20335">
        <ele>1364.106</ele>
        <time>2020-06-29T15:49:46Z</time>
      </trkpt>
      <trkpt lat="44.06786" lon="7.2033">
        <ele>1363.346</ele>
        <time>2020-06-29T15:50:01Z</time>
      </trkpt>
      <trkpt lat="44.06772" lon="7.20325">
        <ele>1361.227</ele>
        <time>2020-06-29T15:50:17Z</time>
      </trkpt>
      <trkpt lat="44.06751" lon="7.20317">
        <ele>1363.299</ele>
        <time>2020-06-29T15:50:33Z</time>
      </trkpt>
      <trkpt lat="44.06735" lon="7.20306">
        <ele>1365.133</ele>
        <time>2020-06-29T15:50:48Z</time>
      </trkpt>
      <trkpt lat="44.06721" lon="7.20292">
        <ele>1361.475</ele>
        <time>2020-06-29T15:51:04Z</time>
      </trkpt>
      <trkpt lat="44.06702" lon="7.20298">
        <ele>1362.557</ele>
        <time>2020-06-29T15:51:20Z</time>
      </trkpt>
      <trkpt lat="44.06685" lon="7.20295">
        <ele>1359.634</ele>
        <time>2020-06-29T15:51:35Z</time>
      </trkpt>
      <trkpt lat="44.06664" lon="7.20285">
        <ele>1354.502</ele>
        <time>2020-06-29T15:51:51Z</time>
      </trkpt>
      <trkpt lat="44.06649" lon="7.20278">
        <ele>1352.446</ele>
        <time>2020-06-29T15:52:06Z</time>
      </trkpt>
      <trkpt lat="44.06643" lon="7.20266">
        <ele>1348.149</ele>
        <time>2020-06-29T15:52:21Z</time>
      </trkpt>
      <trkpt lat="44.06643" lon="7.20264">
        <ele>1346.2</ele>
        <time>2020-06-29T15:52:37Z</time>
      </trkpt>
      <trkpt lat="44.06641" lon="7.20262">
        <ele>1346.25</ele>
        <time>2020-06-29T15:52:52Z</time>
      </trkpt>
      <trkpt lat="44.06493" lon="7.20264">
        <ele>1348.099</ele>
        <time>2020-06-29T15:53:26Z</time>
      </trkpt>
      <trkpt lat="44.06632" lon="7.20275">
        <ele>1352.067</ele>
        <time>2020-06-29T15:53:41Z</time>
      </trkpt>
      <trkpt lat="44.06629" lon="7.20276">
        <ele>1351.252</ele>
        <time>2020-06-29T15:53:57Z</time>
      </trkpt>
      <trkpt lat="44.06633" lon="7.20277">
        <ele>1350.52</ele>
        <time>2020-06-29T15:54:13Z</time>
      </trkpt>
      <trkpt lat="44.06638" lon="7.20276">
        <ele>1346.918</ele>
        <time>2020-06-29T15:54:29Z</time>
      </trkpt>
      <trkpt lat="44.06638" lon="7.20274">
        <ele>1348.859</ele>
        <time>2020-06-29T15:54:44Z</time>
      </trkpt>
      <trkpt lat="44.06638" lon="7.20274">
        <ele>1348.859</ele>
        <time>2020-06-29T15:55:00Z</time>
      </trkpt>
      <trkpt lat="44.06638" lon="7.20274">
        <ele>1348.859</ele>
        <time>2020-06-29T15:55:16Z</time>
      </trkpt>
      <trkpt lat="44.06638" lon="7.20274">
        <ele>1348.859</ele>
        <time>2020-06-29T15:55:31Z</time>
      </trkpt>
      <trkpt lat="44.06638" lon="7.20274">
        <ele>1348.859</ele>
        <time>2020-06-29T15:55:46Z</time>
      </trkpt>
    </trkseg>
  </trk>
  <trk>
    <name><![CDATA[GR52 / GR5 par Menton_7]]></name>
    <trkseg>
      <trkpt lat="44.07196" lon="7.16761">
        <ele>1012.444</ele>
        <time>2020-06-30T07:47:31Z</time>
      </trkpt>
      <trkpt lat="44.07201" lon="7.16781">
        <ele>1092.799</ele>
        <time>2020-06-30T07:47:46Z</time>
      </trkpt>
      <trkpt lat="44.07188" lon="7.16787">
        <ele>1082.848</ele>
        <time>2020-06-30T07:48:02Z</time>
      </trkpt>
      <trkpt lat="44.07172" lon="7.16775">
        <ele>1074.133</ele>
        <time>2020-06-30T07:48:18Z</time>
      </trkpt>
      <trkpt lat="44.07158" lon="7.16764">
        <ele>1070.62</ele>
        <time>2020-06-30T07:48:33Z</time>
      </trkpt>
      <trkpt lat="44.07151" lon="7.16762">
        <ele>1071.59</ele>
        <time>2020-06-30T07:48:49Z</time>
      </trkpt>
      <trkpt lat="44.07148" lon="7.16762">
        <ele>1072.646</ele>
        <time>2020-06-30T07:49:05Z</time>
      </trkpt>
      <trkpt lat="44.07127" lon="7.16779">
        <ele>1075.892</ele>
        <time>2020-06-30T07:49:21Z</time>
      </trkpt>
      <trkpt lat="44.07111" lon="7.16779">
        <ele>1074.047</ele>
        <time>2020-06-30T07:49:37Z</time>
      </trkpt>
      <trkpt lat="44.0709" lon="7.16782">
        <ele>1075.478</ele>
        <time>2020-06-30T07:49:53Z</time>
      </trkpt>
      <trkpt lat="44.0707" lon="7.1678">
        <ele>1073.203</ele>
        <time>2020-06-30T07:50:09Z</time>
      </trkpt>
      <trkpt lat="44.07051" lon="7.16781">
        <ele>1071.52</ele>
        <time>2020-06-30T07:50:25Z</time>
      </trkpt>
      <trkpt lat="44.07032" lon="7.16777">
        <ele>1073.244</ele>
        <time>2020-06-30T07:50:41Z</time>
      </trkpt>
      <trkpt lat="44.07028" lon="7.16754">
        <ele>1069.449</ele>
        <time>2020-06-30T07:50:56Z</time>
      </trkpt>
      <trkpt lat="44.07038" lon="7.16731">
        <ele>1065.455</ele>
        <time>2020-06-30T07:51:12Z</time>
      </trkpt>
      <trkpt lat="44.0705" lon="7.16711">
        <ele>1058.269</ele>
        <time>2020-06-30T07:51:27Z</time>
      </trkpt>
      <trkpt lat="44.07066" lon="7.1669">
        <ele>1055.537</ele>
        <time>2020-06-30T07:51:43Z</time>
      </trkpt>
      <trkpt lat="44.07078" lon="7.16679">
        <ele>1058.484</ele>
        <time>2020-06-30T07:51:58Z</time>
      </trkpt>
      <trkpt lat="44.07093" lon="7.16673">
        <ele>1059.231</ele>
        <time>2020-06-30T07:52:13Z</time>
      </trkpt>
      <trkpt lat="44.07111" lon="7.16663">
        <ele>1054.792</ele>
        <time>2020-06-30T07:52:28Z</time>
      </trkpt>
      <trkpt lat="44.07129" lon="7.16654">
        <ele>1052.508</ele>
        <time>2020-06-30T07:52:43Z</time>
      </trkpt>
      <trkpt lat="44.07134" lon="7.16649">
        <ele>1054.582</ele>
        <time>2020-06-30T07:52:59Z</time>
      </trkpt>
      <trkpt lat="44.07113" lon="7.16648">
        <ele>1056.634</ele>
        <time>2020-06-30T07:53:15Z</time>
      </trkpt>
      <trkpt lat="44.07095" lon="7.1664">
        <ele>1055.036</ele>
        <time>2020-06-30T07:53:30Z</time>
      </trkpt>
      <trkpt lat="44.07076" lon="7.16633">
        <ele>1054.052</ele>
        <time>2020-06-30T07:53:46Z</time>
      </trkpt>
      <trkpt lat="44.07055" lon="7.1663">
        <ele>1052.701</ele>
        <time>2020-06-30T07:54:02Z</time>
      </trkpt>
      <trkpt lat="44.07037" lon="7.16627">
        <ele>1052.52</ele>
        <time>2020-06-30T07:54:17Z</time>
      </trkpt>
      <trkpt lat="44.07014" lon="7.16619">
        <ele>1052.907</ele>
        <time>2020-06-30T07:54:33Z</time>
      </trkpt>
      <trkpt lat="44.06994" lon="7.16616">
        <ele>1055.37</ele>
        <time>2020-06-30T07:54:48Z</time>
      </trkpt>
      <trkpt lat="44.06974" lon="7.16615">
        <ele>1052.405</ele>
        <time>2020-06-30T07:55:04Z</time>
      </trkpt>
      <trkpt lat="44.06953" lon="7.16613">
        <ele>1054.951</ele>
        <time>2020-06-30T07:55:19Z</time>
      </trkpt>
      <trkpt lat="44.06935" lon="7.1661">
        <ele>1058.957</ele>
        <time>2020-06-30T07:55:34Z</time>
      </trkpt>
      <trkpt lat="44.06919" lon="7.16601">
        <ele>1061.563</ele>
        <time>2020-06-30T07:55:50Z</time>
      </trkpt>
      <trkpt lat="44.06915" lon="7.16578">
        <ele>1055.773</ele>
        <time>2020-06-30T07:56:06Z</time>
      </trkpt>
      <trkpt lat="44.0691" lon="7.16556">
        <ele>1052.797</ele>
        <time>2020-06-30T07:56:21Z</time>
      </trkpt>
      <trkpt lat="44.06909" lon="7.1653">
        <ele>1048.272</ele>
        <time>2020-06-30T07:56:37Z</time>
      </trkpt>
      <trkpt lat="44.06896" lon="7.16511">
        <ele>1046.809</ele>
        <time>2020-06-30T07:56:53Z</time>
      </trkpt>
      <trkpt lat="44.06891" lon="7.16487">
        <ele>1041.086</ele>
        <time>2020-06-30T07:57:09Z</time>
      </trkpt>
      <trkpt lat="44.06894" lon="7.16462">
        <ele>1037.643</ele>
        <time>2020-06-30T07:57:24Z</time>
      </trkpt>
      <trkpt lat="44.06893" lon="7.16435">
        <ele>1035.445</ele>
        <time>2020-06-30T07:57:40Z</time>
      </trkpt>
      <trkpt lat="44.06896" lon="7.16407">
        <ele>1033.939</ele>
        <time>2020-06-30T07:57:55Z</time>
      </trkpt>
      <trkpt lat="44.06899" lon="7.16382">
        <ele>1033.461</ele>
        <time>2020-06-30T07:58:10Z</time>
      </trkpt>
      <trkpt lat="44.069" lon="7.16353">
        <ele>1034.244</ele>
        <time>2020-06-30T07:58:26Z</time>
      </trkpt>
      <trkpt lat="44.06898" lon="7.16325">
        <ele>1033.698</ele>
        <time>2020-06-30T07:58:42Z</time>
      </trkpt>
      <trkpt lat="44.06902" lon="7.163">
        <ele>1031.304</ele>
        <time>2020-06-30T07:58:58Z</time>
      </trkpt>
      <trkpt lat="44.0691" lon="7.16274">
        <ele>1027.1</ele>
        <time>2020-06-30T07:59:14Z</time>
      </trkpt>
      <trkpt lat="44.06913" lon="7.16252">
        <ele>1024.518</ele>
        <time>2020-06-30T07:59:30Z</time>
      </trkpt>
      <trkpt lat="44.0692" lon="7.16225">
        <ele>1021.727</ele>
        <time>2020-06-30T07:59:46Z</time>
      </trkpt>
      <trkpt lat="44.06922" lon="7.16199">
        <ele>1020.739</ele>
        <time>2020-06-30T08:00:01Z</time>
      </trkpt>
      <trkpt lat="44.06924" lon="7.16173">
        <ele>1019.656</ele>
        <time>2020-06-30T08:00:17Z</time>
      </trkpt>
      <trkpt lat="44.06924" lon="7.16146">
        <ele>1016.821</ele>
        <time>2020-06-30T08:00:33Z</time>
      </trkpt>
      <trkpt lat="44.06925" lon="7.16121">
        <ele>1014.52</ele>
        <time>2020-06-30T08:00:48Z</time>
      </trkpt>
      <trkpt lat="44.06922" lon="7.16092">
        <ele>1016.061</ele>
        <time>2020-06-30T08:01:04Z</time>
      </trkpt>
      <trkpt lat="44.06925" lon="7.16062">
        <ele>1017.204</ele>
        <time>2020-06-30T08:01:20Z</time>
      </trkpt>
      <trkpt lat="44.06926" lon="7.16038">
        <ele>1016.285</ele>
        <time>2020-06-30T08:01:36Z</time>
      </trkpt>
      <trkpt lat="44.06927" lon="7.16013">
        <ele>1013.49</ele>
        <time>2020-06-30T08:01:51Z</time>
      </trkpt>
      <trkpt lat="44.06921" lon="7.15993">
        <ele>1012.437</ele>
        <time>2020-06-30T08:02:06Z</time>
      </trkpt>
      <trkpt lat="44.06916" lon="7.15968">
        <ele>1008.871</ele>
        <time>2020-06-30T08:02:22Z</time>
      </trkpt>
      <trkpt lat="44.06914" lon="7.15941">
        <ele>1002.879</ele>
        <time>2020-06-30T08:02:38Z</time>
      </trkpt>
      <trkpt lat="44.06906" lon="7.15915">
        <ele>1001.867</ele>
        <time>2020-06-30T08:02:54Z</time>
      </trkpt>
      <trkpt lat="44.069" lon="7.15887">
        <ele>1001.492</ele>
        <time>2020-06-30T08:03:10Z</time>
      </trkpt>
      <trkpt lat="44.06897" lon="7.15864">
        <ele>1001.024</ele>
        <time>2020-06-30T08:03:25Z</time>
      </trkpt>
      <trkpt lat="44.06898" lon="7.1584">
        <ele>1000.044</ele>
        <time>2020-06-30T08:03:41Z</time>
      </trkpt>
      <trkpt lat="44.06899" lon="7.15827">
        <ele>999.312</ele>
        <time>2020-06-30T08:03:56Z</time>
      </trkpt>
      <trkpt lat="44.06899" lon="7.15827">
        <ele>999.312</ele>
        <time>2020-06-30T08:04:12Z</time>
      </trkpt>
      <trkpt lat="44.06906" lon="7.15808">
        <ele>997.97</ele>
        <time>2020-06-30T08:04:27Z</time>
      </trkpt>
      <trkpt lat="44.06913" lon="7.15795">
        <ele>996.547</ele>
        <time>2020-06-30T08:04:42Z</time>
      </trkpt>
      <trkpt lat="44.06921" lon="7.15777">
        <ele>992.099</ele>
        <time>2020-06-30T08:04:58Z</time>
      </trkpt>
      <trkpt lat="44.06929" lon="7.15755">
        <ele>987.171</ele>
        <time>2020-06-30T08:05:14Z</time>
      </trkpt>
      <trkpt lat="44.06929" lon="7.15737">
        <ele>983.033</ele>
        <time>2020-06-30T08:05:29Z</time>
      </trkpt>
      <trkpt lat="44.06929" lon="7.15715">
        <ele>981.766</ele>
        <time>2020-06-30T08:05:45Z</time>
      </trkpt>
      <trkpt lat="44.06921" lon="7.15696">
        <ele>980.337</ele>
        <time>2020-06-30T08:06:01Z</time>
      </trkpt>
      <trkpt lat="44.06927" lon="7.15678">
        <ele>976.478</ele>
        <time>2020-06-30T08:06:16Z</time>
      </trkpt>
      <trkpt lat="44.06933" lon="7.15655">
        <ele>974.865</ele>
        <time>2020-06-30T08:06:32Z</time>
      </trkpt>
      <trkpt lat="44.06934" lon="7.15638">
        <ele>973.58</ele>
        <time>2020-06-30T08:06:48Z</time>
      </trkpt>
      <trkpt lat="44.06939" lon="7.15611">
        <ele>970.053</ele>
        <time>2020-06-30T08:07:04Z</time>
      </trkpt>
      <trkpt lat="44.06938" lon="7.15603">
        <ele>970.514</ele>
        <time>2020-06-30T08:07:20Z</time>
      </trkpt>
      <trkpt lat="44.0694" lon="7.15581">
        <ele>970.543</ele>
        <time>2020-06-30T08:07:36Z</time>
      </trkpt>
      <trkpt lat="44.0695" lon="7.15562">
        <ele>966.93</ele>
        <time>2020-06-30T08:07:51Z</time>
      </trkpt>
      <trkpt lat="44.06953" lon="7.15539">
        <ele>962.881</ele>
        <time>2020-06-30T08:08:06Z</time>
      </trkpt>
      <trkpt lat="44.06967" lon="7.15519">
        <ele>959.765</ele>
        <time>2020-06-30T08:08:22Z</time>
      </trkpt>
      <trkpt lat="44.06968" lon="7.15493">
        <ele>953.067</ele>
        <time>2020-06-30T08:08:37Z</time>
      </trkpt>
      <trkpt lat="44.06981" lon="7.15467">
        <ele>951.312</ele>
        <time>2020-06-30T08:08:53Z</time>
      </trkpt>
      <trkpt lat="44.06991" lon="7.15455">
        <ele>948.447</ele>
        <time>2020-06-30T08:09:09Z</time>
      </trkpt>
      <trkpt lat="44.07008" lon="7.15442">
        <ele>948.159</ele>
        <time>2020-06-30T08:09:24Z</time>
      </trkpt>
      <trkpt lat="44.07004" lon="7.15431">
        <ele>945.285</ele>
        <time>2020-06-30T08:09:40Z</time>
      </trkpt>
      <trkpt lat="44.07004" lon="7.15431">
        <ele>945.285</ele>
        <time>2020-06-30T08:09:55Z</time>
      </trkpt>
      <trkpt lat="44.07002" lon="7.15432">
        <ele>945.297</ele>
        <time>2020-06-30T08:10:11Z</time>
      </trkpt>
      <trkpt lat="44.07002" lon="7.15432">
        <ele>945.297</ele>
        <time>2020-06-30T08:10:27Z</time>
      </trkpt>
      <trkpt lat="44.07002" lon="7.15432">
        <ele>945.297</ele>
        <time>2020-06-30T08:10:42Z</time>
      </trkpt>
      <trkpt lat="44.07002" lon="7.15432">
        <ele>945.297</ele>
        <time>2020-06-30T08:10:58Z</time>
      </trkpt>
      <trkpt lat="44.07002" lon="7.15432">
        <ele>945.297</ele>
        <time>2020-06-30T08:11:14Z</time>
      </trkpt>
      <trkpt lat="44.07003" lon="7.15433">
        <ele>942.677</ele>
        <time>2020-06-30T08:11:30Z</time>
      </trkpt>
      <trkpt lat="44.07001" lon="7.15432">
        <ele>941.751</ele>
        <time>2020-06-30T08:11:46Z</time>
      </trkpt>
      <trkpt lat="44.06997" lon="7.15416">
        <ele>940.043</ele>
        <time>2020-06-30T08:12:01Z</time>
      </trkpt>
      <trkpt lat="44.06984" lon="7.15399">
        <ele>939.174</ele>
        <time>2020-06-30T08:12:17Z</time>
      </trkpt>
      <trkpt lat="44.06985" lon="7.15377">
        <ele>937.912</ele>
        <time>2020-06-30T08:12:33Z</time>
      </trkpt>
      <trkpt lat="44.06979" lon="7.15362">
        <ele>935.922</ele>
        <time>2020-06-30T08:12:49Z</time>
      </trkpt>
      <trkpt lat="44.06966" lon="7.15342">
        <ele>936.855</ele>
        <time>2020-06-30T08:13:05Z</time>
      </trkpt>
      <trkpt lat="44.06966" lon="7.1532">
        <ele>932.826</ele>
        <time>2020-06-30T08:13:20Z</time>
      </trkpt>
      <trkpt lat="44.06961" lon="7.15305">
        <ele>928.231</ele>
        <time>2020-06-30T08:13:35Z</time>
      </trkpt>
      <trkpt lat="44.0695" lon="7.15294">
        <ele>920.54</ele>
        <time>2020-06-30T08:13:50Z</time>
      </trkpt>
      <trkpt lat="44.0694" lon="7.15286">
        <ele>916.282</ele>
        <time>2020-06-30T08:14:06Z</time>
      </trkpt>
      <trkpt lat="44.0693" lon="7.15274">
        <ele>910.49</ele>
        <time>2020-06-30T08:14:21Z</time>
      </trkpt>
      <trkpt lat="44.06921" lon="7.15255">
        <ele>907.978</ele>
        <time>2020-06-30T08:14:37Z</time>
      </trkpt>
      <trkpt lat="44.0691" lon="7.15239">
        <ele>906.255</ele>
        <time>2020-06-30T08:14:52Z</time>
      </trkpt>
      <trkpt lat="44.06901" lon="7.15237">
        <ele>907.636</ele>
        <time>2020-06-30T08:15:08Z</time>
      </trkpt>
      <trkpt lat="44.06896" lon="7.15232">
        <ele>906.886</ele>
        <time>2020-06-30T08:15:23Z</time>
      </trkpt>
      <trkpt lat="44.06907" lon="7.15216">
        <ele>898.558</ele>
        <time>2020-06-30T08:15:38Z</time>
      </trkpt>
      <trkpt lat="44.06922" lon="7.15207">
        <ele>893.694</ele>
        <time>2020-06-30T08:15:53Z</time>
      </trkpt>
      <trkpt lat="44.06929" lon="7.15203">
        <ele>890.632</ele>
        <time>2020-06-30T08:16:09Z</time>
      </trkpt>
      <trkpt lat="44.06937" lon="7.15202">
        <ele>885.986</ele>
        <time>2020-06-30T08:16:25Z</time>
      </trkpt>
      <trkpt lat="44.06943" lon="7.15191">
        <ele>885.186</ele>
        <time>2020-06-30T08:16:40Z</time>
      </trkpt>
      <trkpt lat="44.06955" lon="7.15164">
        <ele>884.14</ele>
        <time>2020-06-30T08:16:56Z</time>
      </trkpt>
      <trkpt lat="44.06961" lon="7.1515">
        <ele>883.255</ele>
        <time>2020-06-30T08:17:12Z</time>
      </trkpt>
      <trkpt lat="44.06951" lon="7.15141">
        <ele>888.937</ele>
        <time>2020-06-30T08:17:27Z</time>
      </trkpt>
      <trkpt lat="44.06943" lon="7.15145">
        <ele>887.102</ele>
        <time>2020-06-30T08:17:42Z</time>
      </trkpt>
      <trkpt lat="44.06936" lon="7.15145">
        <ele>879.443</ele>
        <time>2020-06-30T08:17:58Z</time>
      </trkpt>
      <trkpt lat="44.06926" lon="7.15124">
        <ele>880.15</ele>
        <time>2020-06-30T08:18:14Z</time>
      </trkpt>
      <trkpt lat="44.06904" lon="7.15102">
        <ele>885.083</ele>
        <time>2020-06-30T08:18:30Z</time>
      </trkpt>
      <trkpt lat="44.06896" lon="7.15082">
        <ele>879.641</ele>
        <time>2020-06-30T08:18:46Z</time>
      </trkpt>
      <trkpt lat="44.06895" lon="7.15065">
        <ele>876.062</ele>
        <time>2020-06-30T08:19:01Z</time>
      </trkpt>
      <trkpt lat="44.06895" lon="7.15046">
        <ele>877.864</ele>
        <time>2020-06-30T08:19:17Z</time>
      </trkpt>
      <trkpt lat="44.06893" lon="7.1503">
        <ele>881.033</ele>
        <time>2020-06-30T08:19:32Z</time>
      </trkpt>
      <trkpt lat="44.06882" lon="7.1502">
        <ele>878.236</ele>
        <time>2020-06-30T08:19:47Z</time>
      </trkpt>
      <trkpt lat="44.06871" lon="7.15004">
        <ele>878.259</ele>
        <time>2020-06-30T08:20:03Z</time>
      </trkpt>
      <trkpt lat="44.0687" lon="7.14992">
        <ele>877.252</ele>
        <time>2020-06-30T08:20:18Z</time>
      </trkpt>
      <trkpt lat="44.06871" lon="7.14969">
        <ele>877.372</ele>
        <time>2020-06-30T08:20:34Z</time>
      </trkpt>
      <trkpt lat="44.0688" lon="7.14952">
        <ele>874.665</ele>
        <time>2020-06-30T08:20:50Z</time>
      </trkpt>
      <trkpt lat="44.06889" lon="7.14935">
        <ele>876.538</ele>
        <time>2020-06-30T08:21:05Z</time>
      </trkpt>
      <trkpt lat="44.06892" lon="7.14927">
        <ele>875.851</ele>
        <time>2020-06-30T08:21:21Z</time>
      </trkpt>
      <trkpt lat="44.06876" lon="7.14917">
        <ele>875.736</ele>
        <time>2020-06-30T08:21:36Z</time>
      </trkpt>
      <trkpt lat="44.06867" lon="7.14897">
        <ele>878.65</ele>
        <time>2020-06-30T08:21:52Z</time>
      </trkpt>
      <trkpt lat="44.06865" lon="7.14877">
        <ele>879.516</ele>
        <time>2020-06-30T08:22:07Z</time>
      </trkpt>
      <trkpt lat="44.06864" lon="7.14854">
        <ele>880.639</ele>
        <time>2020-06-30T08:22:23Z</time>
      </trkpt>
      <trkpt lat="44.06857" lon="7.14834">
        <ele>881.431</ele>
        <time>2020-06-30T08:22:38Z</time>
      </trkpt>
      <trkpt lat="44.06851" lon="7.14812">
        <ele>882.154</ele>
        <time>2020-06-30T08:22:54Z</time>
      </trkpt>
      <trkpt lat="44.06842" lon="7.14804">
        <ele>883.174</ele>
        <time>2020-06-30T08:23:10Z</time>
      </trkpt>
      <trkpt lat="44.06842" lon="7.14804">
        <ele>883.174</ele>
        <time>2020-06-30T08:23:25Z</time>
      </trkpt>
      <trkpt lat="44.06842" lon="7.14804">
        <ele>883.174</ele>
        <time>2020-06-30T08:23:40Z</time>
      </trkpt>
      <trkpt lat="44.06833" lon="7.14781">
        <ele>884.155</ele>
        <time>2020-06-30T08:23:55Z</time>
      </trkpt>
      <trkpt lat="44.06822" lon="7.14762">
        <ele>884.714</ele>
        <time>2020-06-30T08:24:10Z</time>
      </trkpt>
      <trkpt lat="44.06814" lon="7.1474">
        <ele>882.385</ele>
        <time>2020-06-30T08:24:26Z</time>
      </trkpt>
      <trkpt lat="44.06805" lon="7.14719">
        <ele>883.55</ele>
        <time>2020-06-30T08:24:42Z</time>
      </trkpt>
      <trkpt lat="44.06796" lon="7.14696">
        <ele>884.158</ele>
        <time>2020-06-30T08:24:58Z</time>
      </trkpt>
      <trkpt lat="44.06794" lon="7.14673">
        <ele>884.361</ele>
        <time>2020-06-30T08:25:13Z</time>
      </trkpt>
      <trkpt lat="44.06795" lon="7.14651">
        <ele>886.204</ele>
        <time>2020-06-30T08:25:28Z</time>
      </trkpt>
      <trkpt lat="44.06793" lon="7.14627">
        <ele>887.278</ele>
        <time>2020-06-30T08:25:44Z</time>
      </trkpt>
      <trkpt lat="44.06792" lon="7.146">
        <ele>890.053</ele>
        <time>2020-06-30T08:26:00Z</time>
      </trkpt>
      <trkpt lat="44.06794" lon="7.14577">
        <ele>893.01</ele>
        <time>2020-06-30T08:26:16Z</time>
      </trkpt>
      <trkpt lat="44.06809" lon="7.14568">
        <ele>891.443</ele>
        <time>2020-06-30T08:26:32Z</time>
      </trkpt>
      <trkpt lat="44.06814" lon="7.14548">
        <ele>889.707</ele>
        <time>2020-06-30T08:26:48Z</time>
      </trkpt>
      <trkpt lat="44.06825" lon="7.14535">
        <ele>891.205</ele>
        <time>2020-06-30T08:27:04Z</time>
      </trkpt>
      <trkpt lat="44.06836" lon="7.14516">
        <ele>893.75</ele>
        <time>2020-06-30T08:27:20Z</time>
      </trkpt>
      <trkpt lat="44.0684" lon="7.14502">
        <ele>897.076</ele>
        <time>2020-06-30T08:27:36Z</time>
      </trkpt>
      <trkpt lat="44.06837" lon="7.145">
        <ele>897.953</ele>
        <time>2020-06-30T08:27:52Z</time>
      </trkpt>
      <trkpt lat="44.0683" lon="7.14501">
        <ele>898.417</ele>
        <time>2020-06-30T08:28:07Z</time>
      </trkpt>
      <trkpt lat="44.06815" lon="7.14496">
        <ele>900.93</ele>
        <time>2020-06-30T08:28:22Z</time>
      </trkpt>
      <trkpt lat="44.068" lon="7.14489">
        <ele>898.301</ele>
        <time>2020-06-30T08:28:38Z</time>
      </trkpt>
      <trkpt lat="44.06788" lon="7.14491">
        <ele>897.764</ele>
        <time>2020-06-30T08:28:54Z</time>
      </trkpt>
      <trkpt lat="44.06773" lon="7.14502">
        <ele>899.598</ele>
        <time>2020-06-30T08:29:10Z</time>
      </trkpt>
      <trkpt lat="44.06765" lon="7.14507">
        <ele>901.172</ele>
        <time>2020-06-30T08:29:26Z</time>
      </trkpt>
      <trkpt lat="44.06759" lon="7.14504">
        <ele>902.992</ele>
        <time>2020-06-30T08:29:42Z</time>
      </trkpt>
      <trkpt lat="44.06743" lon="7.14495">
        <ele>902.917</ele>
        <time>2020-06-30T08:29:57Z</time>
      </trkpt>
      <trkpt lat="44.06735" lon="7.14489">
        <ele>907.292</ele>
        <time>2020-06-30T08:30:13Z</time>
      </trkpt>
      <trkpt lat="44.06728" lon="7.14481">
        <ele>905.422</ele>
        <time>2020-06-30T08:30:29Z</time>
      </trkpt>
      <trkpt lat="44.06721" lon="7.14478">
        <ele>907.75</ele>
        <time>2020-06-30T08:30:45Z</time>
      </trkpt>
      <trkpt lat="44.06706" lon="7.14465">
        <ele>911.044</ele>
        <time>2020-06-30T08:31:01Z</time>
      </trkpt>
      <trkpt lat="44.06702" lon="7.14456">
        <ele>912.231</ele>
        <time>2020-06-30T08:31:16Z</time>
      </trkpt>
      <trkpt lat="44.06701" lon="7.14454">
        <ele>913.296</ele>
        <time>2020-06-30T08:31:31Z</time>
      </trkpt>
      <trkpt lat="44.06711" lon="7.14449">
        <ele>913.384</ele>
        <time>2020-06-30T08:31:46Z</time>
      </trkpt>
      <trkpt lat="44.06729" lon="7.14446">
        <ele>914</ele>
        <time>2020-06-30T08:32:01Z</time>
      </trkpt>
      <trkpt lat="44.06737" lon="7.14443">
        <ele>916.78</ele>
        <time>2020-06-30T08:32:17Z</time>
      </trkpt>
      <trkpt lat="44.06748" lon="7.14437">
        <ele>917.38</ele>
        <time>2020-06-30T08:32:33Z</time>
      </trkpt>
      <trkpt lat="44.06758" lon="7.14426">
        <ele>922.646</ele>
        <time>2020-06-30T08:32:48Z</time>
      </trkpt>
      <trkpt lat="44.06768" lon="7.14416">
        <ele>925.728</ele>
        <time>2020-06-30T08:33:04Z</time>
      </trkpt>
      <trkpt lat="44.06776" lon="7.1441">
        <ele>928.129</ele>
        <time>2020-06-30T08:33:20Z</time>
      </trkpt>
      <trkpt lat="44.06786" lon="7.14394">
        <ele>931.099</ele>
        <time>2020-06-30T08:33:35Z</time>
      </trkpt>
      <trkpt lat="44.06794" lon="7.14377">
        <ele>932.909</ele>
        <time>2020-06-30T08:33:50Z</time>
      </trkpt>
      <trkpt lat="44.06796" lon="7.14363">
        <ele>933.672</ele>
        <time>2020-06-30T08:34:06Z</time>
      </trkpt>
      <trkpt lat="44.06794" lon="7.14347">
        <ele>936.384</ele>
        <time>2020-06-30T08:34:22Z</time>
      </trkpt>
      <trkpt lat="44.0679" lon="7.14326">
        <ele>939.077</ele>
        <time>2020-06-30T08:34:38Z</time>
      </trkpt>
      <trkpt lat="44.06782" lon="7.14313">
        <ele>940.955</ele>
        <time>2020-06-30T08:34:54Z</time>
      </trkpt>
      <trkpt lat="44.06773" lon="7.14304">
        <ele>943.3</ele>
        <time>2020-06-30T08:35:09Z</time>
      </trkpt>
      <trkpt lat="44.06762" lon="7.14295">
        <ele>945.077</ele>
        <time>2020-06-30T08:35:25Z</time>
      </trkpt>
      <trkpt lat="44.06751" lon="7.14282">
        <ele>947.88</ele>
        <time>2020-06-30T08:35:41Z</time>
      </trkpt>
      <trkpt lat="44.06744" lon="7.14268">
        <ele>948.543</ele>
        <time>2020-06-30T08:35:57Z</time>
      </trkpt>
      <trkpt lat="44.06736" lon="7.1426">
        <ele>950.176</ele>
        <time>2020-06-30T08:36:12Z</time>
      </trkpt>
      <trkpt lat="44.06728" lon="7.14247">
        <ele>952.266</ele>
        <time>2020-06-30T08:36:28Z</time>
      </trkpt>
      <trkpt lat="44.06724" lon="7.14236">
        <ele>953.922</ele>
        <time>2020-06-30T08:36:43Z</time>
      </trkpt>
      <trkpt lat="44.06723" lon="7.14221">
        <ele>956.85</ele>
        <time>2020-06-30T08:36:59Z</time>
      </trkpt>
      <trkpt lat="44.06721" lon="7.14216">
        <ele>958.312</ele>
        <time>2020-06-30T08:37:14Z</time>
      </trkpt>
      <trkpt lat="44.06724" lon="7.14206">
        <ele>957.681</ele>
        <time>2020-06-30T08:37:30Z</time>
      </trkpt>
      <trkpt lat="44.06719" lon="7.14192">
        <ele>963.273</ele>
        <time>2020-06-30T08:37:45Z</time>
      </trkpt>
      <trkpt lat="44.0671" lon="7.14183">
        <ele>968.829</ele>
        <time>2020-06-30T08:38:01Z</time>
      </trkpt>
      <trkpt lat="44.06708" lon="7.14171">
        <ele>970.964</ele>
        <time>2020-06-30T08:38:16Z</time>
      </trkpt>
      <trkpt lat="44.06713" lon="7.14162">
        <ele>971.647</ele>
        <time>2020-06-30T08:38:32Z</time>
      </trkpt>
      <trkpt lat="44.06708" lon="7.14148">
        <ele>972.682</ele>
        <time>2020-06-30T08:38:48Z</time>
      </trkpt>
      <trkpt lat="44.06708" lon="7.1414">
        <ele>975.836</ele>
        <time>2020-06-30T08:39:03Z</time>
      </trkpt>
      <trkpt lat="44.0671" lon="7.14123">
        <ele>975.189</ele>
        <time>2020-06-30T08:39:18Z</time>
      </trkpt>
      <trkpt lat="44.0671" lon="7.141">
        <ele>977.257</ele>
        <time>2020-06-30T08:39:34Z</time>
      </trkpt>
      <trkpt lat="44.0671" lon="7.14077">
        <ele>978.013</ele>
        <time>2020-06-30T08:39:50Z</time>
      </trkpt>
      <trkpt lat="44.06711" lon="7.1406">
        <ele>980.988</ele>
        <time>2020-06-30T08:40:06Z</time>
      </trkpt>
      <trkpt lat="44.06711" lon="7.14042">
        <ele>983.6</ele>
        <time>2020-06-30T08:40:21Z</time>
      </trkpt>
      <trkpt lat="44.06712" lon="7.14025">
        <ele>984.983</ele>
        <time>2020-06-30T08:40:37Z</time>
      </trkpt>
      <trkpt lat="44.06709" lon="7.14007">
        <ele>988.686</ele>
        <time>2020-06-30T08:40:53Z</time>
      </trkpt>
      <trkpt lat="44.06708" lon="7.13989">
        <ele>991.515</ele>
        <time>2020-06-30T08:41:08Z</time>
      </trkpt>
      <trkpt lat="44.0671" lon="7.13978">
        <ele>990.913</ele>
        <time>2020-06-30T08:41:24Z</time>
      </trkpt>
      <trkpt lat="44.0671" lon="7.13978">
        <ele>990.913</ele>
        <time>2020-06-30T08:41:40Z</time>
      </trkpt>
      <trkpt lat="44.06708" lon="7.13976">
        <ele>990.805</ele>
        <time>2020-06-30T08:41:55Z</time>
      </trkpt>
      <trkpt lat="44.06702" lon="7.13958">
        <ele>989.117</ele>
        <time>2020-06-30T08:42:10Z</time>
      </trkpt>
      <trkpt lat="44.06698" lon="7.13932">
        <ele>985.904</ele>
        <time>2020-06-30T08:42:26Z</time>
      </trkpt>
      <trkpt lat="44.06694" lon="7.1391">
        <ele>984.72</ele>
        <time>2020-06-30T08:42:41Z</time>
      </trkpt>
      <trkpt lat="44.06693" lon="7.13885">
        <ele>983.507</ele>
        <time>2020-06-30T08:42:56Z</time>
      </trkpt>
      <trkpt lat="44.06697" lon="7.13863">
        <ele>982.649</ele>
        <time>2020-06-30T08:43:12Z</time>
      </trkpt>
      <trkpt lat="44.06703" lon="7.1385">
        <ele>983.375</ele>
        <time>2020-06-30T08:43:27Z</time>
      </trkpt>
      <trkpt lat="44.06707" lon="7.13836">
        <ele>984.471</ele>
        <time>2020-06-30T08:43:43Z</time>
      </trkpt>
      <trkpt lat="44.06708" lon="7.13812">
        <ele>990.07</ele>
        <time>2020-06-30T08:43:59Z</time>
      </trkpt>
      <trkpt lat="44.06704" lon="7.13806">
        <ele>991.655</ele>
        <time>2020-06-30T08:44:14Z</time>
      </trkpt>
      <trkpt lat="44.06692" lon="7.13815">
        <ele>996.155</ele>
        <time>2020-06-30T08:44:30Z</time>
      </trkpt>
      <trkpt lat="44.06675" lon="7.13801">
        <ele>993.74</ele>
        <time>2020-06-30T08:44:45Z</time>
      </trkpt>
      <trkpt lat="44.06665" lon="7.1378">
        <ele>992.352</ele>
        <time>2020-06-30T08:45:01Z</time>
      </trkpt>
      <trkpt lat="44.06655" lon="7.13762">
        <ele>991.785</ele>
        <time>2020-06-30T08:45:17Z</time>
      </trkpt>
      <trkpt lat="44.06649" lon="7.13747">
        <ele>993.785</ele>
        <time>2020-06-30T08:45:32Z</time>
      </trkpt>
      <trkpt lat="44.06638" lon="7.13732">
        <ele>995.274</ele>
        <time>2020-06-30T08:45:48Z</time>
      </trkpt>
      <trkpt lat="44.06626" lon="7.13721">
        <ele>998.695</ele>
        <time>2020-06-30T08:46:04Z</time>
      </trkpt>
      <trkpt lat="44.06616" lon="7.13709">
        <ele>1000.749</ele>
        <time>2020-06-30T08:46:19Z</time>
      </trkpt>
      <trkpt lat="44.06607" lon="7.13694">
        <ele>1001.812</ele>
        <time>2020-06-30T08:46:35Z</time>
      </trkpt>
      <trkpt lat="44.06599" lon="7.13679">
        <ele>1004.62</ele>
        <time>2020-06-30T08:46:50Z</time>
      </trkpt>
      <trkpt lat="44.06588" lon="7.13668">
        <ele>1006.712</ele>
        <time>2020-06-30T08:47:06Z</time>
      </trkpt>
      <trkpt lat="44.06581" lon="7.13654">
        <ele>1007.092</ele>
        <time>2020-06-30T08:47:21Z</time>
      </trkpt>
      <trkpt lat="44.06571" lon="7.13644">
        <ele>1010.431</ele>
        <time>2020-06-30T08:47:37Z</time>
      </trkpt>
      <trkpt lat="44.06559" lon="7.13636">
        <ele>1011.399</ele>
        <time>2020-06-30T08:47:52Z</time>
      </trkpt>
      <trkpt lat="44.06548" lon="7.13629">
        <ele>1013.283</ele>
        <time>2020-06-30T08:48:07Z</time>
      </trkpt>
      <trkpt lat="44.06535" lon="7.13621">
        <ele>1018.015</ele>
        <time>2020-06-30T08:48:23Z</time>
      </trkpt>
      <trkpt lat="44.06523" lon="7.13611">
        <ele>1018.563</ele>
        <time>2020-06-30T08:48:38Z</time>
      </trkpt>
      <trkpt lat="44.06511" lon="7.13599">
        <ele>1019.802</ele>
        <time>2020-06-30T08:48:54Z</time>
      </trkpt>
      <trkpt lat="44.06509" lon="7.13599">
        <ele>1019.464</ele>
        <time>2020-06-30T08:49:10Z</time>
      </trkpt>
      <trkpt lat="44.06509" lon="7.13601">
        <ele>1019.286</ele>
        <time>2020-06-30T08:49:26Z</time>
      </trkpt>
      <trkpt lat="44.06509" lon="7.13601">
        <ele>1019.286</ele>
        <time>2020-06-30T08:49:41Z</time>
      </trkpt>
      <trkpt lat="44.06509" lon="7.13601">
        <ele>1019.286</ele>
        <time>2020-06-30T08:49:56Z</time>
      </trkpt>
      <trkpt lat="44.06509" lon="7.13601">
        <ele>1019.286</ele>
        <time>2020-06-30T08:50:12Z</time>
      </trkpt>
      <trkpt lat="44.06508" lon="7.13603">
        <ele>1020.466</ele>
        <time>2020-06-30T08:50:27Z</time>
      </trkpt>
      <trkpt lat="44.06508" lon="7.13603">
        <ele>1020.466</ele>
        <time>2020-06-30T08:50:42Z</time>
      </trkpt>
      <trkpt lat="44.06503" lon="7.13594">
        <ele>1019.755</ele>
        <time>2020-06-30T08:50:57Z</time>
      </trkpt>
      <trkpt lat="44.06492" lon="7.13573">
        <ele>1021.833</ele>
        <time>2020-06-30T08:51:13Z</time>
      </trkpt>
      <trkpt lat="44.06493" lon="7.13558">
        <ele>1025.165</ele>
        <time>2020-06-30T08:51:28Z</time>
      </trkpt>
      <trkpt lat="44.06488" lon="7.1354">
        <ele>1028.451</ele>
        <time>2020-06-30T08:51:44Z</time>
      </trkpt>
      <trkpt lat="44.06484" lon="7.13515">
        <ele>1032.072</ele>
        <time>2020-06-30T08:52:00Z</time>
      </trkpt>
      <trkpt lat="44.06481" lon="7.13499">
        <ele>1035.353</ele>
        <time>2020-06-30T08:52:15Z</time>
      </trkpt>
      <trkpt lat="44.06478" lon="7.13478">
        <ele>1037.028</ele>
        <time>2020-06-30T08:52:31Z</time>
      </trkpt>
      <trkpt lat="44.06474" lon="7.13461">
        <ele>1039.14</ele>
        <time>2020-06-30T08:52:47Z</time>
      </trkpt>
      <trkpt lat="44.06474" lon="7.13442">
        <ele>1039.829</ele>
        <time>2020-06-30T08:53:02Z</time>
      </trkpt>
      <trkpt lat="44.06472" lon="7.13423">
        <ele>1040.05</ele>
        <time>2020-06-30T08:53:18Z</time>
      </trkpt>
      <trkpt lat="44.0647" lon="7.13405">
        <ele>1041.205</ele>
        <time>2020-06-30T08:53:34Z</time>
      </trkpt>
      <trkpt lat="44.06465" lon="7.13391">
        <ele>1044.116</ele>
        <time>2020-06-30T08:53:50Z</time>
      </trkpt>
      <trkpt lat="44.06458" lon="7.1338">
        <ele>1047.618</ele>
        <time>2020-06-30T08:54:06Z</time>
      </trkpt>
      <trkpt lat="44.0645" lon="7.13372">
        <ele>1047.818</ele>
        <time>2020-06-30T08:54:21Z</time>
      </trkpt>
      <trkpt lat="44.06444" lon="7.13357">
        <ele>1050.552</ele>
        <time>2020-06-30T08:54:37Z</time>
      </trkpt>
      <trkpt lat="44.06438" lon="7.1335">
        <ele>1054.2</ele>
        <time>2020-06-30T08:54:52Z</time>
      </trkpt>
      <trkpt lat="44.06431" lon="7.13334">
        <ele>1055.858</ele>
        <time>2020-06-30T08:55:08Z</time>
      </trkpt>
      <trkpt lat="44.06423" lon="7.13323">
        <ele>1058.798</ele>
        <time>2020-06-30T08:55:24Z</time>
      </trkpt>
      <trkpt lat="44.06422" lon="7.13314">
        <ele>1061.851</ele>
        <time>2020-06-30T08:55:40Z</time>
      </trkpt>
      <trkpt lat="44.06418" lon="7.13298">
        <ele>1065.311</ele>
        <time>2020-06-30T08:55:56Z</time>
      </trkpt>
      <trkpt lat="44.06417" lon="7.13292">
        <ele>1065.458</ele>
        <time>2020-06-30T08:56:12Z</time>
      </trkpt>
      <trkpt lat="44.06412" lon="7.13282">
        <ele>1068.587</ele>
        <time>2020-06-30T08:56:28Z</time>
      </trkpt>
      <trkpt lat="44.06404" lon="7.13257">
        <ele>1072.197</ele>
        <time>2020-06-30T08:56:44Z</time>
      </trkpt>
      <trkpt lat="44.06403" lon="7.13243">
        <ele>1072.843</ele>
        <time>2020-06-30T08:57:00Z</time>
      </trkpt>
      <trkpt lat="44.06403" lon="7.13243">
        <ele>1072.843</ele>
        <time>2020-06-30T08:57:15Z</time>
      </trkpt>
      <trkpt lat="44.06403" lon="7.13243">
        <ele>1072.843</ele>
        <time>2020-06-30T08:57:31Z</time>
      </trkpt>
      <trkpt lat="44.06403" lon="7.13243">
        <ele>1072.843</ele>
        <time>2020-06-30T08:57:46Z</time>
      </trkpt>
      <trkpt lat="44.06403" lon="7.13243">
        <ele>1072.843</ele>
        <time>2020-06-30T08:58:01Z</time>
      </trkpt>
      <trkpt lat="44.06403" lon="7.13243">
        <ele>1072.843</ele>
        <time>2020-06-30T08:58:17Z</time>
      </trkpt>
      <trkpt lat="44.064" lon="7.13223">
        <ele>1072.841</ele>
        <time>2020-06-30T08:58:33Z</time>
      </trkpt>
      <trkpt lat="44.06398" lon="7.13212">
        <ele>1075.589</ele>
        <time>2020-06-30T08:58:48Z</time>
      </trkpt>
      <trkpt lat="44.06398" lon="7.13212">
        <ele>1075.589</ele>
        <time>2020-06-30T08:59:03Z</time>
      </trkpt>
      <trkpt lat="44.06397" lon="7.1321">
        <ele>1076.369</ele>
        <time>2020-06-30T08:59:19Z</time>
      </trkpt>
      <trkpt lat="44.06391" lon="7.13187">
        <ele>1080.881</ele>
        <time>2020-06-30T08:59:34Z</time>
      </trkpt>
      <trkpt lat="44.06385" lon="7.13164">
        <ele>1083.085</ele>
        <time>2020-06-30T08:59:50Z</time>
      </trkpt>
      <trkpt lat="44.06383" lon="7.13163">
        <ele>1085.426</ele>
        <time>2020-06-30T09:00:06Z</time>
      </trkpt>
      <trkpt lat="44.06383" lon="7.13159">
        <ele>1084.606</ele>
        <time>2020-06-30T09:00:21Z</time>
      </trkpt>
      <trkpt lat="44.06398" lon="7.13148">
        <ele>1080.342</ele>
        <time>2020-06-30T09:00:36Z</time>
      </trkpt>
      <trkpt lat="44.06405" lon="7.1314">
        <ele>1083.127</ele>
        <time>2020-06-30T09:00:52Z</time>
      </trkpt>
      <trkpt lat="44.06419" lon="7.1313">
        <ele>1083.639</ele>
        <time>2020-06-30T09:01:08Z</time>
      </trkpt>
      <trkpt lat="44.0642" lon="7.13131">
        <ele>1083.247</ele>
        <time>2020-06-30T09:01:24Z</time>
      </trkpt>
      <trkpt lat="44.06422" lon="7.13131">
        <ele>1083.004</ele>
        <time>2020-06-30T09:01:40Z</time>
      </trkpt>
      <trkpt lat="44.06426" lon="7.13129">
        <ele>1083.701</ele>
        <time>2020-06-30T09:01:56Z</time>
      </trkpt>
      <trkpt lat="44.06425" lon="7.13126">
        <ele>1082.885</ele>
        <time>2020-06-30T09:02:12Z</time>
      </trkpt>
      <trkpt lat="44.06433" lon="7.13113">
        <ele>1084.038</ele>
        <time>2020-06-30T09:02:27Z</time>
      </trkpt>
      <trkpt lat="44.06429" lon="7.13114">
        <ele>1087.892</ele>
        <time>2020-06-30T09:02:43Z</time>
      </trkpt>
      <trkpt lat="44.06414" lon="7.13129">
        <ele>1091.918</ele>
        <time>2020-06-30T09:02:58Z</time>
      </trkpt>
      <trkpt lat="44.06414" lon="7.1313">
        <ele>1090.07</ele>
        <time>2020-06-30T09:03:13Z</time>
      </trkpt>
      <trkpt lat="44.06414" lon="7.1313">
        <ele>1090.07</ele>
        <time>2020-06-30T09:03:28Z</time>
      </trkpt>
      <trkpt lat="44.06414" lon="7.1313">
        <ele>1090.07</ele>
        <time>2020-06-30T09:03:44Z</time>
      </trkpt>
      <trkpt lat="44.06413" lon="7.13128">
        <ele>1091.064</ele>
        <time>2020-06-30T09:03:59Z</time>
      </trkpt>
      <trkpt lat="44.06413" lon="7.13128">
        <ele>1091.064</ele>
        <time>2020-06-30T09:04:15Z</time>
      </trkpt>
      <trkpt lat="44.06413" lon="7.13128">
        <ele>1091.064</ele>
        <time>2020-06-30T09:04:30Z</time>
      </trkpt>
      <trkpt lat="44.06413" lon="7.13128">
        <ele>1091.064</ele>
        <time>2020-06-30T09:04:46Z</time>
      </trkpt>
      <trkpt lat="44.06413" lon="7.13128">
        <ele>1091.064</ele>
        <time>2020-06-30T09:05:01Z</time>
      </trkpt>
      <trkpt lat="44.06413" lon="7.13128">
        <ele>1091.064</ele>
        <time>2020-06-30T09:05:17Z</time>
      </trkpt>
      <trkpt lat="44.06414" lon="7.13129">
        <ele>1088.663</ele>
        <time>2020-06-30T09:05:32Z</time>
      </trkpt>
      <trkpt lat="44.06414" lon="7.13129">
        <ele>1088.663</ele>
        <time>2020-06-30T09:05:48Z</time>
      </trkpt>
      <trkpt lat="44.06414" lon="7.13129">
        <ele>1088.663</ele>
        <time>2020-06-30T09:06:03Z</time>
      </trkpt>
      <trkpt lat="44.06414" lon="7.13131">
        <ele>1086.803</ele>
        <time>2020-06-30T09:06:19Z</time>
      </trkpt>
      <trkpt lat="44.06414" lon="7.13131">
        <ele>1086.803</ele>
        <time>2020-06-30T09:06:35Z</time>
      </trkpt>
      <trkpt lat="44.06414" lon="7.13131">
        <ele>1086.803</ele>
        <time>2020-06-30T09:06:50Z</time>
      </trkpt>
      <trkpt lat="44.06414" lon="7.13131">
        <ele>1086.803</ele>
        <time>2020-06-30T09:07:06Z</time>
      </trkpt>
      <trkpt lat="44.06414" lon="7.13131">
        <ele>1086.803</ele>
        <time>2020-06-30T09:07:21Z</time>
      </trkpt>
      <trkpt lat="44.06414" lon="7.13131">
        <ele>1086.803</ele>
        <time>2020-06-30T09:07:37Z</time>
      </trkpt>
      <trkpt lat="44.06413" lon="7.13128">
        <ele>1085.588</ele>
        <time>2020-06-30T09:07:52Z</time>
      </trkpt>
      <trkpt lat="44.06415" lon="7.13133">
        <ele>1084.069</ele>
        <time>2020-06-30T09:08:07Z</time>
      </trkpt>
      <trkpt lat="44.06415" lon="7.13133">
        <ele>1084.069</ele>
        <time>2020-06-30T09:08:22Z</time>
      </trkpt>
      <trkpt lat="44.06415" lon="7.13132">
        <ele>1082.386</ele>
        <time>2020-06-30T09:08:38Z</time>
      </trkpt>
      <trkpt lat="44.06418" lon="7.13131">
        <ele>1079.628</ele>
        <time>2020-06-30T09:08:54Z</time>
      </trkpt>
      <trkpt lat="44.0641" lon="7.13128">
        <ele>1081.667</ele>
        <time>2020-06-30T09:09:10Z</time>
      </trkpt>
      <trkpt lat="44.06393" lon="7.13134">
        <ele>1080.688</ele>
        <time>2020-06-30T09:09:26Z</time>
      </trkpt>
      <trkpt lat="44.06382" lon="7.13136">
        <ele>1075.622</ele>
        <time>2020-06-30T09:09:42Z</time>
      </trkpt>
      <trkpt lat="44.06383" lon="7.13136">
        <ele>1076.423</ele>
        <time>2020-06-30T09:09:57Z</time>
      </trkpt>
      <trkpt lat="44.06383" lon="7.13135">
        <ele>1076.108</ele>
        <time>2020-06-30T09:10:12Z</time>
      </trkpt>
      <trkpt lat="44.06388" lon="7.13147">
        <ele>1075.091</ele>
        <time>2020-06-30T09:10:28Z</time>
      </trkpt>
      <trkpt lat="44.06388" lon="7.13169">
        <ele>1076.531</ele>
        <time>2020-06-30T09:10:43Z</time>
      </trkpt>
      <trkpt lat="44.06392" lon="7.13196">
        <ele>1078.778</ele>
        <time>2020-06-30T09:10:59Z</time>
      </trkpt>
      <trkpt lat="44.06391" lon="7.13219">
        <ele>1072.932</ele>
        <time>2020-06-30T09:11:15Z</time>
      </trkpt>
      <trkpt lat="44.06379" lon="7.13197">
        <ele>1071.202</ele>
        <time>2020-06-30T09:11:30Z</time>
      </trkpt>
      <trkpt lat="44.06379" lon="7.13197">
        <ele>1071.718</ele>
        <time>2020-06-30T09:11:46Z</time>
      </trkpt>
      <trkpt lat="44.06379" lon="7.13197">
        <ele>1071.718</ele>
        <time>2020-06-30T09:12:02Z</time>
      </trkpt>
      <trkpt lat="44.06379" lon="7.13197">
        <ele>1071.718</ele>
        <time>2020-06-30T09:12:18Z</time>
      </trkpt>
      <trkpt lat="44.06379" lon="7.13197">
        <ele>1071.718</ele>
        <time>2020-06-30T09:12:34Z</time>
      </trkpt>
      <trkpt lat="44.06379" lon="7.13197">
        <ele>1071.718</ele>
        <time>2020-06-30T09:12:49Z</time>
      </trkpt>
      <trkpt lat="44.06379" lon="7.13197">
        <ele>1071.718</ele>
        <time>2020-06-30T09:13:05Z</time>
      </trkpt>
      <trkpt lat="44.06379" lon="7.13197">
        <ele>1071.718</ele>
        <time>2020-06-30T09:13:20Z</time>
      </trkpt>
      <trkpt lat="44.06379" lon="7.13197">
        <ele>1071.718</ele>
        <time>2020-06-30T09:13:35Z</time>
      </trkpt>
      <trkpt lat="44.06376" lon="7.132">
        <ele>1073.392</ele>
        <time>2020-06-30T09:13:51Z</time>
      </trkpt>
      <trkpt lat="44.06376" lon="7.132">
        <ele>1073.392</ele>
        <time>2020-06-30T09:14:06Z</time>
      </trkpt>
      <trkpt lat="44.06376" lon="7.132">
        <ele>1073.392</ele>
        <time>2020-06-30T09:14:22Z</time>
      </trkpt>
      <trkpt lat="44.06371" lon="7.13203">
        <ele>1075.211</ele>
        <time>2020-06-30T09:14:37Z</time>
      </trkpt>
      <trkpt lat="44.06379" lon="7.13211">
        <ele>1077.02</ele>
        <time>2020-06-30T09:14:52Z</time>
      </trkpt>
      <trkpt lat="44.06381" lon="7.13205">
        <ele>1085.172</ele>
        <time>2020-06-30T09:15:07Z</time>
      </trkpt>
      <trkpt lat="44.06379" lon="7.13195">
        <ele>1087.471</ele>
        <time>2020-06-30T09:15:23Z</time>
      </trkpt>
      <trkpt lat="44.06378" lon="7.13185">
        <ele>1088.272</ele>
        <time>2020-06-30T09:15:38Z</time>
      </trkpt>
      <trkpt lat="44.06369" lon="7.13166">
        <ele>1081.69</ele>
        <time>2020-06-30T09:15:54Z</time>
      </trkpt>
      <trkpt lat="44.06358" lon="7.13148">
        <ele>1081.366</ele>
        <time>2020-06-30T09:16:09Z</time>
      </trkpt>
      <trkpt lat="44.06343" lon="7.13134">
        <ele>1088.846</ele>
        <time>2020-06-30T09:16:25Z</time>
      </trkpt>
      <trkpt lat="44.06338" lon="7.13115">
        <ele>1086.379</ele>
        <time>2020-06-30T09:16:41Z</time>
      </trkpt>
      <trkpt lat="44.06341" lon="7.13088">
        <ele>1080.637</ele>
        <time>2020-06-30T09:16:56Z</time>
      </trkpt>
      <trkpt lat="44.06345" lon="7.13065">
        <ele>1069.421</ele>
        <time>2020-06-30T09:17:12Z</time>
      </trkpt>
      <trkpt lat="44.06354" lon="7.1306">
        <ele>1068.064</ele>
        <time>2020-06-30T09:17:28Z</time>
      </trkpt>
      <trkpt lat="44.06354" lon="7.13059">
        <ele>1067.593</ele>
        <time>2020-06-30T09:17:43Z</time>
      </trkpt>
      <trkpt lat="44.06355" lon="7.13061">
        <ele>1067.187</ele>
        <time>2020-06-30T09:17:59Z</time>
      </trkpt>
      <trkpt lat="44.06366" lon="7.13071">
        <ele>1068.397</ele>
        <time>2020-06-30T09:18:15Z</time>
      </trkpt>
      <trkpt lat="44.06378" lon="7.1308">
        <ele>1066.811</ele>
        <time>2020-06-30T09:18:30Z</time>
      </trkpt>
      <trkpt lat="44.06396" lon="7.1308">
        <ele>1065.145</ele>
        <time>2020-06-30T09:18:46Z</time>
      </trkpt>
      <trkpt lat="44.06415" lon="7.13078">
        <ele>1058.373</ele>
        <time>2020-06-30T09:19:02Z</time>
      </trkpt>
      <trkpt lat="44.06427" lon="7.13068">
        <ele>1051.673</ele>
        <time>2020-06-30T09:19:17Z</time>
      </trkpt>
      <trkpt lat="44.06437" lon="7.13052">
        <ele>1052.736</ele>
        <time>2020-06-30T09:19:33Z</time>
      </trkpt>
      <trkpt lat="44.06447" lon="7.13036">
        <ele>1050.848</ele>
        <time>2020-06-30T09:19:48Z</time>
      </trkpt>
      <trkpt lat="44.06464" lon="7.13022">
        <ele>1049.494</ele>
        <time>2020-06-30T09:20:03Z</time>
      </trkpt>
      <trkpt lat="44.06475" lon="7.13014">
        <ele>1048.292</ele>
        <time>2020-06-30T09:20:18Z</time>
      </trkpt>
      <trkpt lat="44.06477" lon="7.13013">
        <ele>1048.406</ele>
        <time>2020-06-30T09:20:34Z</time>
      </trkpt>
      <trkpt lat="44.06477" lon="7.13013">
        <ele>1048.406</ele>
        <time>2020-06-30T09:20:50Z</time>
      </trkpt>
      <trkpt lat="44.06477" lon="7.13013">
        <ele>1048.406</ele>
        <time>2020-06-30T09:21:05Z</time>
      </trkpt>
      <trkpt lat="44.06477" lon="7.13013">
        <ele>1048.406</ele>
        <time>2020-06-30T09:21:21Z</time>
      </trkpt>
      <trkpt lat="44.06477" lon="7.13013">
        <ele>1048.236</ele>
        <time>2020-06-30T09:21:37Z</time>
      </trkpt>
      <trkpt lat="44.0649" lon="7.13017">
        <ele>1045.606</ele>
        <time>2020-06-30T09:21:52Z</time>
      </trkpt>
      <trkpt lat="44.06505" lon="7.1302">
        <ele>1042.462</ele>
        <time>2020-06-30T09:22:07Z</time>
      </trkpt>
      <trkpt lat="44.06522" lon="7.13021">
        <ele>1043.064</ele>
        <time>2020-06-30T09:22:23Z</time>
      </trkpt>
      <trkpt lat="44.06539" lon="7.13016">
        <ele>1043.725</ele>
        <time>2020-06-30T09:22:39Z</time>
      </trkpt>
      <trkpt lat="44.06551" lon="7.13024">
        <ele>1041.443</ele>
        <time>2020-06-30T09:22:54Z</time>
      </trkpt>
      <trkpt lat="44.06564" lon="7.13033">
        <ele>1040.861</ele>
        <time>2020-06-30T09:23:10Z</time>
      </trkpt>
      <trkpt lat="44.0658" lon="7.13053">
        <ele>1038.603</ele>
        <time>2020-06-30T09:23:26Z</time>
      </trkpt>
      <trkpt lat="44.06598" lon="7.1307">
        <ele>1033.707</ele>
        <time>2020-06-30T09:23:42Z</time>
      </trkpt>
      <trkpt lat="44.06612" lon="7.13081">
        <ele>1031.294</ele>
        <time>2020-06-30T09:23:57Z</time>
      </trkpt>
      <trkpt lat="44.06634" lon="7.13097">
        <ele>1029.949</ele>
        <time>2020-06-30T09:24:13Z</time>
      </trkpt>
      <trkpt lat="44.06648" lon="7.13103">
        <ele>1026.98</ele>
        <time>2020-06-30T09:24:28Z</time>
      </trkpt>
      <trkpt lat="44.06661" lon="7.1312">
        <ele>1027.505</ele>
        <time>2020-06-30T09:24:44Z</time>
      </trkpt>
      <trkpt lat="44.06671" lon="7.13135">
        <ele>1028.62</ele>
        <time>2020-06-30T09:25:00Z</time>
      </trkpt>
      <trkpt lat="44.06693" lon="7.13144">
        <ele>1028.302</ele>
        <time>2020-06-30T09:25:16Z</time>
      </trkpt>
      <trkpt lat="44.06707" lon="7.13147">
        <ele>1022.182</ele>
        <time>2020-06-30T09:25:31Z</time>
      </trkpt>
      <trkpt lat="44.06722" lon="7.13158">
        <ele>1015.238</ele>
        <time>2020-06-30T09:25:47Z</time>
      </trkpt>
      <trkpt lat="44.06738" lon="7.13162">
        <ele>1011.508</ele>
        <time>2020-06-30T09:26:02Z</time>
      </trkpt>
      <trkpt lat="44.06754" lon="7.13161">
        <ele>1010.773</ele>
        <time>2020-06-30T09:26:17Z</time>
      </trkpt>
      <trkpt lat="44.06772" lon="7.13153">
        <ele>1009.695</ele>
        <time>2020-06-30T09:26:33Z</time>
      </trkpt>
      <trkpt lat="44.06778" lon="7.13157">
        <ele>1007.557</ele>
        <time>2020-06-30T09:26:48Z</time>
      </trkpt>
      <trkpt lat="44.0677" lon="7.13143">
        <ele>1000.001</ele>
        <time>2020-06-30T09:27:04Z</time>
      </trkpt>
      <trkpt lat="44.06783" lon="7.13132">
        <ele>990.188</ele>
        <time>2020-06-30T09:27:20Z</time>
      </trkpt>
      <trkpt lat="44.06797" lon="7.13115">
        <ele>975.38</ele>
        <time>2020-06-30T09:27:35Z</time>
      </trkpt>
      <trkpt lat="44.06811" lon="7.131">
        <ele>979.237</ele>
        <time>2020-06-30T09:27:51Z</time>
      </trkpt>
      <trkpt lat="44.06823" lon="7.13083">
        <ele>978.04</ele>
        <time>2020-06-30T09:28:06Z</time>
      </trkpt>
      <trkpt lat="44.06829" lon="7.13056">
        <ele>976.162</ele>
        <time>2020-06-30T09:28:22Z</time>
      </trkpt>
      <trkpt lat="44.06837" lon="7.13034">
        <ele>976.577</ele>
        <time>2020-06-30T09:28:37Z</time>
      </trkpt>
      <trkpt lat="44.06847" lon="7.13011">
        <ele>979.689</ele>
        <time>2020-06-30T09:28:53Z</time>
      </trkpt>
      <trkpt lat="44.0686" lon="7.12991">
        <ele>980.543</ele>
        <time>2020-06-30T09:29:08Z</time>
      </trkpt>
      <trkpt lat="44.06874" lon="7.12972">
        <ele>981.278</ele>
        <time>2020-06-30T09:29:24Z</time>
      </trkpt>
      <trkpt lat="44.06892" lon="7.12966">
        <ele>983.754</ele>
        <time>2020-06-30T09:29:40Z</time>
      </trkpt>
      <trkpt lat="44.06914" lon="7.12965">
        <ele>983.95</ele>
        <time>2020-06-30T09:29:56Z</time>
      </trkpt>
      <trkpt lat="44.06925" lon="7.12949">
        <ele>985.573</ele>
        <time>2020-06-30T09:30:11Z</time>
      </trkpt>
      <trkpt lat="44.06929" lon="7.12959">
        <ele>980.652</ele>
        <time>2020-06-30T09:30:26Z</time>
      </trkpt>
      <trkpt lat="44.06941" lon="7.12971">
        <ele>979.197</ele>
        <time>2020-06-30T09:30:42Z</time>
      </trkpt>
      <trkpt lat="44.06939" lon="7.12956">
        <ele>975.548</ele>
        <time>2020-06-30T09:30:57Z</time>
      </trkpt>
      <trkpt lat="44.06936" lon="7.12934">
        <ele>968.162</ele>
        <time>2020-06-30T09:31:13Z</time>
      </trkpt>
      <trkpt lat="44.0695" lon="7.12913">
        <ele>961.561</ele>
        <time>2020-06-30T09:31:28Z</time>
      </trkpt>
      <trkpt lat="44.0695" lon="7.12886">
        <ele>962.505</ele>
        <time>2020-06-30T09:31:44Z</time>
      </trkpt>
      <trkpt lat="44.06952" lon="7.12858">
        <ele>963.673</ele>
        <time>2020-06-30T09:32:00Z</time>
      </trkpt>
      <trkpt lat="44.06943" lon="7.12825">
        <ele>975.295</ele>
        <time>2020-06-30T09:32:16Z</time>
      </trkpt>
      <trkpt lat="44.06935" lon="7.12805">
        <ele>983.995</ele>
        <time>2020-06-30T09:32:31Z</time>
      </trkpt>
      <trkpt lat="44.0691" lon="7.1278">
        <ele>998.401</ele>
        <time>2020-06-30T09:32:46Z</time>
      </trkpt>
      <trkpt lat="44.06903" lon="7.1275">
        <ele>1011.132</ele>
        <time>2020-06-30T09:33:02Z</time>
      </trkpt>
      <trkpt lat="44.06922" lon="7.12718">
        <ele>1006.565</ele>
        <time>2020-06-30T09:33:17Z</time>
      </trkpt>
      <trkpt lat="44.06939" lon="7.12699">
        <ele>997.684</ele>
        <time>2020-06-30T09:33:32Z</time>
      </trkpt>
      <trkpt lat="44.06953" lon="7.1268">
        <ele>990.476</ele>
        <time>2020-06-30T09:33:48Z</time>
      </trkpt>
      <trkpt lat="44.06968" lon="7.12661">
        <ele>985.699</ele>
        <time>2020-06-30T09:34:04Z</time>
      </trkpt>
      <trkpt lat="44.06988" lon="7.12647">
        <ele>976.485</ele>
        <time>2020-06-30T09:34:20Z</time>
      </trkpt>
      <trkpt lat="44.07006" lon="7.12633">
        <ele>967.712</ele>
        <time>2020-06-30T09:34:36Z</time>
      </trkpt>
      <trkpt lat="44.07018" lon="7.12621">
        <ele>966.493</ele>
        <time>2020-06-30T09:34:51Z</time>
      </trkpt>
      <trkpt lat="44.07011" lon="7.12597">
        <ele>969.189</ele>
        <time>2020-06-30T09:35:07Z</time>
      </trkpt>
      <trkpt lat="44.06998" lon="7.12564">
        <ele>976.242</ele>
        <time>2020-06-30T09:35:23Z</time>
      </trkpt>
      <trkpt lat="44.06989" lon="7.1254">
        <ele>985.928</ele>
        <time>2020-06-30T09:35:38Z</time>
      </trkpt>
      <trkpt lat="44.0699" lon="7.1251">
        <ele>989.037</ele>
        <time>2020-06-30T09:35:54Z</time>
      </trkpt>
      <trkpt lat="44.06973" lon="7.12487">
        <ele>996.79</ele>
        <time>2020-06-30T09:36:09Z</time>
      </trkpt>
      <trkpt lat="44.06957" lon="7.12465">
        <ele>999.406</ele>
        <time>2020-06-30T09:36:25Z</time>
      </trkpt>
      <trkpt lat="44.06945" lon="7.12443">
        <ele>1001.202</ele>
        <time>2020-06-30T09:36:40Z</time>
      </trkpt>
      <trkpt lat="44.06942" lon="7.12416">
        <ele>1000.754</ele>
        <time>2020-06-30T09:36:56Z</time>
      </trkpt>
      <trkpt lat="44.06951" lon="7.1239">
        <ele>998.133</ele>
        <time>2020-06-30T09:37:12Z</time>
      </trkpt>
      <trkpt lat="44.06962" lon="7.12367">
        <ele>989.079</ele>
        <time>2020-06-30T09:37:27Z</time>
      </trkpt>
      <trkpt lat="44.06962" lon="7.12345">
        <ele>988.601</ele>
        <time>2020-06-30T09:37:43Z</time>
      </trkpt>
      <trkpt lat="44.06965" lon="7.12324">
        <ele>984.111</ele>
        <time>2020-06-30T09:37:58Z</time>
      </trkpt>
      <trkpt lat="44.06976" lon="7.12301">
        <ele>977.458</ele>
        <time>2020-06-30T09:38:14Z</time>
      </trkpt>
      <trkpt lat="44.0699" lon="7.12272">
        <ele>970.599</ele>
        <time>2020-06-30T09:38:29Z</time>
      </trkpt>
      <trkpt lat="44.06995" lon="7.12244">
        <ele>965.969</ele>
        <time>2020-06-30T09:38:45Z</time>
      </trkpt>
      <trkpt lat="44.06997" lon="7.12214">
        <ele>962.948</ele>
        <time>2020-06-30T09:39:00Z</time>
      </trkpt>
      <trkpt lat="44.06996" lon="7.12181">
        <ele>960.814</ele>
        <time>2020-06-30T09:39:16Z</time>
      </trkpt>
      <trkpt lat="44.07003" lon="7.12153">
        <ele>949.596</ele>
        <time>2020-06-30T09:39:32Z</time>
      </trkpt>
      <trkpt lat="44.07003" lon="7.12123">
        <ele>936.98</ele>
        <time>2020-06-30T09:39:48Z</time>
      </trkpt>
      <trkpt lat="44.07002" lon="7.12095">
        <ele>928.391</ele>
        <time>2020-06-30T09:40:03Z</time>
      </trkpt>
      <trkpt lat="44.06999" lon="7.12074">
        <ele>927.004</ele>
        <time>2020-06-30T09:40:19Z</time>
      </trkpt>
      <trkpt lat="44.06995" lon="7.12049">
        <ele>924.679</ele>
        <time>2020-06-30T09:40:34Z</time>
      </trkpt>
      <trkpt lat="44.06997" lon="7.12022">
        <ele>915.526</ele>
        <time>2020-06-30T09:40:49Z</time>
      </trkpt>
      <trkpt lat="44.07016" lon="7.12007">
        <ele>910.285</ele>
        <time>2020-06-30T09:41:05Z</time>
      </trkpt>
      <trkpt lat="44.07032" lon="7.11992">
        <ele>909.887</ele>
        <time>2020-06-30T09:41:20Z</time>
      </trkpt>
      <trkpt lat="44.07049" lon="7.11984">
        <ele>907.43</ele>
        <time>2020-06-30T09:41:36Z</time>
      </trkpt>
      <trkpt lat="44.07059" lon="7.1196">
        <ele>906.925</ele>
        <time>2020-06-30T09:41:52Z</time>
      </trkpt>
      <trkpt lat="44.07076" lon="7.11948">
        <ele>904.854</ele>
        <time>2020-06-30T09:42:07Z</time>
      </trkpt>
      <trkpt lat="44.07091" lon="7.11937">
        <ele>905.065</ele>
        <time>2020-06-30T09:42:23Z</time>
      </trkpt>
      <trkpt lat="44.07095" lon="7.11917">
        <ele>906.199</ele>
        <time>2020-06-30T09:42:39Z</time>
      </trkpt>
      <trkpt lat="44.07095" lon="7.11887">
        <ele>906.729</ele>
        <time>2020-06-30T09:42:55Z</time>
      </trkpt>
      <trkpt lat="44.07104" lon="7.1186">
        <ele>904.053</ele>
        <time>2020-06-30T09:43:11Z</time>
      </trkpt>
      <trkpt lat="44.07118" lon="7.11835">
        <ele>900.228</ele>
        <time>2020-06-30T09:43:29Z</time>
      </trkpt>
      <trkpt lat="44.07138" lon="7.11825">
        <ele>893.18</ele>
        <time>2020-06-30T09:43:45Z</time>
      </trkpt>
      <trkpt lat="44.07154" lon="7.11807">
        <ele>891.94</ele>
        <time>2020-06-30T09:44:01Z</time>
      </trkpt>
      <trkpt lat="44.07166" lon="7.11782">
        <ele>892.119</ele>
        <time>2020-06-30T09:44:17Z</time>
      </trkpt>
      <trkpt lat="44.07175" lon="7.11758">
        <ele>889.06</ele>
        <time>2020-06-30T09:44:32Z</time>
      </trkpt>
      <trkpt lat="44.0719" lon="7.11745">
        <ele>886.592</ele>
        <time>2020-06-30T09:44:47Z</time>
      </trkpt>
      <trkpt lat="44.0721" lon="7.11745">
        <ele>885.37</ele>
        <time>2020-06-30T09:45:03Z</time>
      </trkpt>
      <trkpt lat="44.07228" lon="7.1175">
        <ele>883.428</ele>
        <time>2020-06-30T09:45:19Z</time>
      </trkpt>
      <trkpt lat="44.07248" lon="7.11757">
        <ele>886.552</ele>
        <time>2020-06-30T09:45:35Z</time>
      </trkpt>
      <trkpt lat="44.07264" lon="7.11766">
        <ele>883.779</ele>
        <time>2020-06-30T09:45:51Z</time>
      </trkpt>
      <trkpt lat="44.07282" lon="7.11774">
        <ele>884.924</ele>
        <time>2020-06-30T09:46:06Z</time>
      </trkpt>
      <trkpt lat="44.07299" lon="7.1179">
        <ele>882.953</ele>
        <time>2020-06-30T09:46:21Z</time>
      </trkpt>
      <trkpt lat="44.07317" lon="7.11807">
        <ele>878.861</ele>
        <time>2020-06-30T09:46:36Z</time>
      </trkpt>
      <trkpt lat="44.07332" lon="7.11827">
        <ele>877.443</ele>
        <time>2020-06-30T09:46:52Z</time>
      </trkpt>
      <trkpt lat="44.07346" lon="7.11853">
        <ele>876.68</ele>
        <time>2020-06-30T09:47:08Z</time>
      </trkpt>
      <trkpt lat="44.0736" lon="7.11871">
        <ele>873.96</ele>
        <time>2020-06-30T09:47:23Z</time>
      </trkpt>
      <trkpt lat="44.07367" lon="7.11892">
        <ele>873.692</ele>
        <time>2020-06-30T09:47:38Z</time>
      </trkpt>
      <trkpt lat="44.07375" lon="7.11919">
        <ele>873.616</ele>
        <time>2020-06-30T09:47:54Z</time>
      </trkpt>
      <trkpt lat="44.07391" lon="7.11937">
        <ele>875.507</ele>
        <time>2020-06-30T09:48:09Z</time>
      </trkpt>
      <trkpt lat="44.07402" lon="7.11951">
        <ele>871.397</ele>
        <time>2020-06-30T09:48:25Z</time>
      </trkpt>
      <trkpt lat="44.07416" lon="7.11965">
        <ele>866.302</ele>
        <time>2020-06-30T09:48:41Z</time>
      </trkpt>
      <trkpt lat="44.07429" lon="7.11975">
        <ele>864.957</ele>
        <time>2020-06-30T09:48:56Z</time>
      </trkpt>
      <trkpt lat="44.07446" lon="7.11995">
        <ele>860.983</ele>
        <time>2020-06-30T09:49:11Z</time>
      </trkpt>
      <trkpt lat="44.07465" lon="7.12008">
        <ele>858.501</ele>
        <time>2020-06-30T09:49:27Z</time>
      </trkpt>
      <trkpt lat="44.07472" lon="7.12005">
        <ele>855.907</ele>
        <time>2020-06-30T09:49:42Z</time>
      </trkpt>
      <trkpt lat="44.07463" lon="7.11985">
        <ele>855.349</ele>
        <time>2020-06-30T09:49:57Z</time>
      </trkpt>
      <trkpt lat="44.07473" lon="7.11961">
        <ele>854.942</ele>
        <time>2020-06-30T09:50:13Z</time>
      </trkpt>
      <trkpt lat="44.07491" lon="7.11955">
        <ele>850.755</ele>
        <time>2020-06-30T09:50:28Z</time>
      </trkpt>
      <trkpt lat="44.07496" lon="7.11955">
        <ele>849.532</ele>
        <time>2020-06-30T09:50:44Z</time>
      </trkpt>
      <trkpt lat="44.07512" lon="7.11942">
        <ele>847.537</ele>
        <time>2020-06-30T09:51:00Z</time>
      </trkpt>
      <trkpt lat="44.07501" lon="7.11924">
        <ele>851.5</ele>
        <time>2020-06-30T09:51:16Z</time>
      </trkpt>
      <trkpt lat="44.07503" lon="7.11901">
        <ele>846.457</ele>
        <time>2020-06-30T09:51:32Z</time>
      </trkpt>
      <trkpt lat="44.07517" lon="7.11876">
        <ele>847.487</ele>
        <time>2020-06-30T09:51:47Z</time>
      </trkpt>
      <trkpt lat="44.07523" lon="7.11848">
        <ele>849.263</ele>
        <time>2020-06-30T09:52:03Z</time>
      </trkpt>
      <trkpt lat="44.07528" lon="7.11832">
        <ele>848.963</ele>
        <time>2020-06-30T09:52:18Z</time>
      </trkpt>
      <trkpt lat="44.07535" lon="7.11816">
        <ele>849.745</ele>
        <time>2020-06-30T09:52:33Z</time>
      </trkpt>
      <trkpt lat="44.07538" lon="7.11799">
        <ele>851.573</ele>
        <time>2020-06-30T09:52:48Z</time>
      </trkpt>
      <trkpt lat="44.07538" lon="7.11788">
        <ele>851.048</ele>
        <time>2020-06-30T09:53:04Z</time>
      </trkpt>
      <trkpt lat="44.07538" lon="7.11753">
        <ele>849.68</ele>
        <time>2020-06-30T09:53:20Z</time>
      </trkpt>
      <trkpt lat="44.07547" lon="7.11735">
        <ele>834.7</ele>
        <time>2020-06-30T09:53:36Z</time>
      </trkpt>
      <trkpt lat="44.07556" lon="7.11711">
        <ele>830.049</ele>
        <time>2020-06-30T09:53:52Z</time>
      </trkpt>
      <trkpt lat="44.07557" lon="7.11679">
        <ele>830.246</ele>
        <time>2020-06-30T09:54:08Z</time>
      </trkpt>
      <trkpt lat="44.07559" lon="7.11651">
        <ele>831.214</ele>
        <time>2020-06-30T09:54:24Z</time>
      </trkpt>
      <trkpt lat="44.07555" lon="7.1163">
        <ele>832.39</ele>
        <time>2020-06-30T09:54:40Z</time>
      </trkpt>
      <trkpt lat="44.07553" lon="7.11603">
        <ele>830.394</ele>
        <time>2020-06-30T09:54:56Z</time>
      </trkpt>
      <trkpt lat="44.0756" lon="7.11585">
        <ele>826.447</ele>
        <time>2020-06-30T09:55:11Z</time>
      </trkpt>
      <trkpt lat="44.07558" lon="7.11557">
        <ele>824.88</ele>
        <time>2020-06-30T09:55:26Z</time>
      </trkpt>
      <trkpt lat="44.07559" lon="7.11533">
        <ele>825.437</ele>
        <time>2020-06-30T09:55:42Z</time>
      </trkpt>
      <trkpt lat="44.07566" lon="7.11512">
        <ele>818.09</ele>
        <time>2020-06-30T09:55:58Z</time>
      </trkpt>
      <trkpt lat="44.07572" lon="7.11488">
        <ele>813.462</ele>
        <time>2020-06-30T09:56:14Z</time>
      </trkpt>
      <trkpt lat="44.07583" lon="7.11465">
        <ele>806.943</ele>
        <time>2020-06-30T09:56:30Z</time>
      </trkpt>
      <trkpt lat="44.07587" lon="7.11448">
        <ele>807.112</ele>
        <time>2020-06-30T09:56:46Z</time>
      </trkpt>
      <trkpt lat="44.07591" lon="7.11444">
        <ele>805.488</ele>
        <time>2020-06-30T09:57:01Z</time>
      </trkpt>
      <trkpt lat="44.07603" lon="7.11423">
        <ele>803.183</ele>
        <time>2020-06-30T09:57:17Z</time>
      </trkpt>
      <trkpt lat="44.07619" lon="7.11407">
        <ele>797.244</ele>
        <time>2020-06-30T09:57:32Z</time>
      </trkpt>
      <trkpt lat="44.0763" lon="7.11389">
        <ele>795.802</ele>
        <time>2020-06-30T09:57:48Z</time>
      </trkpt>
      <trkpt lat="44.07642" lon="7.11361">
        <ele>791.871</ele>
        <time>2020-06-30T09:58:04Z</time>
      </trkpt>
      <trkpt lat="44.07646" lon="7.11343">
        <ele>787.227</ele>
        <time>2020-06-30T09:58:20Z</time>
      </trkpt>
      <trkpt lat="44.07654" lon="7.11323">
        <ele>779.836</ele>
        <time>2020-06-30T09:58:35Z</time>
      </trkpt>
      <trkpt lat="44.0766" lon="7.11308">
        <ele>779.218</ele>
        <time>2020-06-30T09:58:51Z</time>
      </trkpt>
      <trkpt lat="44.07668" lon="7.11283">
        <ele>780.827</ele>
        <time>2020-06-30T09:59:07Z</time>
      </trkpt>
      <trkpt lat="44.07666" lon="7.11264">
        <ele>778.666</ele>
        <time>2020-06-30T09:59:22Z</time>
      </trkpt>
      <trkpt lat="44.0766" lon="7.11275">
        <ele>771.714</ele>
        <time>2020-06-30T09:59:38Z</time>
      </trkpt>
      <trkpt lat="44.0766" lon="7.11276">
        <ele>771.703</ele>
        <time>2020-06-30T09:59:54Z</time>
      </trkpt>
      <trkpt lat="44.07658" lon="7.11283">
        <ele>770.218</ele>
        <time>2020-06-30T10:00:10Z</time>
      </trkpt>
      <trkpt lat="44.07644" lon="7.11293">
        <ele>763.77</ele>
        <time>2020-06-30T10:00:25Z</time>
      </trkpt>
      <trkpt lat="44.07622" lon="7.11287">
        <ele>760.597</ele>
        <time>2020-06-30T10:00:41Z</time>
      </trkpt>
      <trkpt lat="44.07599" lon="7.11287">
        <ele>760.196</ele>
        <time>2020-06-30T10:00:56Z</time>
      </trkpt>
      <trkpt lat="44.07586" lon="7.11294">
        <ele>757.515</ele>
        <time>2020-06-30T10:01:11Z</time>
      </trkpt>
      <trkpt lat="44.07572" lon="7.11303">
        <ele>752.452</ele>
        <time>2020-06-30T10:01:27Z</time>
      </trkpt>
      <trkpt lat="44.0756" lon="7.11316">
        <ele>747.383</ele>
        <time>2020-06-30T10:01:43Z</time>
      </trkpt>
      <trkpt lat="44.07567" lon="7.11344">
        <ele>741.283</ele>
        <time>2020-06-30T10:01:59Z</time>
      </trkpt>
      <trkpt lat="44.07559" lon="7.1135">
        <ele>738.363</ele>
        <time>2020-06-30T10:02:14Z</time>
      </trkpt>
      <trkpt lat="44.07554" lon="7.11329">
        <ele>738.447</ele>
        <time>2020-06-30T10:02:30Z</time>
      </trkpt>
      <trkpt lat="44.07557" lon="7.11313">
        <ele>739.991</ele>
        <time>2020-06-30T10:02:45Z</time>
      </trkpt>
      <trkpt lat="44.07561" lon="7.11296">
        <ele>740.161</ele>
        <time>2020-06-30T10:03:01Z</time>
      </trkpt>
      <trkpt lat="44.07562" lon="7.11283">
        <ele>739.755</ele>
        <time>2020-06-30T10:03:17Z</time>
      </trkpt>
      <trkpt lat="44.07565" lon="7.11256">
        <ele>738.675</ele>
        <time>2020-06-30T10:03:33Z</time>
      </trkpt>
      <trkpt lat="44.07574" lon="7.11234">
        <ele>731.66</ele>
        <time>2020-06-30T10:03:49Z</time>
      </trkpt>
      <trkpt lat="44.07589" lon="7.11211">
        <ele>726.792</ele>
        <time>2020-06-30T10:04:05Z</time>
      </trkpt>
      <trkpt lat="44.07597" lon="7.11191">
        <ele>723.029</ele>
        <time>2020-06-30T10:04:21Z</time>
      </trkpt>
      <trkpt lat="44.07605" lon="7.11169">
        <ele>720.445</ele>
        <time>2020-06-30T10:04:37Z</time>
      </trkpt>
      <trkpt lat="44.07619" lon="7.11164">
        <ele>717.099</ele>
        <time>2020-06-30T10:04:53Z</time>
      </trkpt>
      <trkpt lat="44.07632" lon="7.11152">
        <ele>718.771</ele>
        <time>2020-06-30T10:05:08Z</time>
      </trkpt>
      <trkpt lat="44.0763" lon="7.11131">
        <ele>716.485</ele>
        <time>2020-06-30T10:05:24Z</time>
      </trkpt>
      <trkpt lat="44.07631" lon="7.11106">
        <ele>711.733</ele>
        <time>2020-06-30T10:05:39Z</time>
      </trkpt>
      <trkpt lat="44.07635" lon="7.11075">
        <ele>708.38</ele>
        <time>2020-06-30T10:05:55Z</time>
      </trkpt>
      <trkpt lat="44.07635" lon="7.11058">
        <ele>701.671</ele>
        <time>2020-06-30T10:06:10Z</time>
      </trkpt>
      <trkpt lat="44.07636" lon="7.11056">
        <ele>700.789</ele>
        <time>2020-06-30T10:06:26Z</time>
      </trkpt>
      <trkpt lat="44.07637" lon="7.11057">
        <ele>699.201</ele>
        <time>2020-06-30T10:06:41Z</time>
      </trkpt>
      <trkpt lat="44.07637" lon="7.11057">
        <ele>699.201</ele>
        <time>2020-06-30T10:06:57Z</time>
      </trkpt>
      <trkpt lat="44.07645" lon="7.11053">
        <ele>694.281</ele>
        <time>2020-06-30T10:07:13Z</time>
      </trkpt>
      <trkpt lat="44.07656" lon="7.11038">
        <ele>692.842</ele>
        <time>2020-06-30T10:07:28Z</time>
      </trkpt>
      <trkpt lat="44.0767" lon="7.11025">
        <ele>690.636</ele>
        <time>2020-06-30T10:07:43Z</time>
      </trkpt>
      <trkpt lat="44.07687" lon="7.11013">
        <ele>687.896</ele>
        <time>2020-06-30T10:07:59Z</time>
      </trkpt>
      <trkpt lat="44.07705" lon="7.10998">
        <ele>684.28</ele>
        <time>2020-06-30T10:08:15Z</time>
      </trkpt>
      <trkpt lat="44.07719" lon="7.10984">
        <ele>680.879</ele>
        <time>2020-06-30T10:08:30Z</time>
      </trkpt>
      <trkpt lat="44.07734" lon="7.10981">
        <ele>679.079</ele>
        <time>2020-06-30T10:08:46Z</time>
      </trkpt>
      <trkpt lat="44.07753" lon="7.10972">
        <ele>674.405</ele>
        <time>2020-06-30T10:09:02Z</time>
      </trkpt>
      <trkpt lat="44.0777" lon="7.10964">
        <ele>669.796</ele>
        <time>2020-06-30T10:09:17Z</time>
      </trkpt>
      <trkpt lat="44.07786" lon="7.10952">
        <ele>668.686</ele>
        <time>2020-06-30T10:09:32Z</time>
      </trkpt>
      <trkpt lat="44.07807" lon="7.10956">
        <ele>664.722</ele>
        <time>2020-06-30T10:09:47Z</time>
      </trkpt>
      <trkpt lat="44.07821" lon="7.10938">
        <ele>662.849</ele>
        <time>2020-06-30T10:10:03Z</time>
      </trkpt>
      <trkpt lat="44.07838" lon="7.10921">
        <ele>661.711</ele>
        <time>2020-06-30T10:10:19Z</time>
      </trkpt>
      <trkpt lat="44.07853" lon="7.109">
        <ele>661.073</ele>
        <time>2020-06-30T10:10:35Z</time>
      </trkpt>
      <trkpt lat="44.07866" lon="7.10877">
        <ele>662.551</ele>
        <time>2020-06-30T10:10:51Z</time>
      </trkpt>
      <trkpt lat="44.07883" lon="7.10865">
        <ele>661.129</ele>
        <time>2020-06-30T10:11:06Z</time>
      </trkpt>
      <trkpt lat="44.07893" lon="7.10865">
        <ele>660.709</ele>
        <time>2020-06-30T10:11:21Z</time>
      </trkpt>
      <trkpt lat="44.07905" lon="7.10865">
        <ele>655.886</ele>
        <time>2020-06-30T10:11:37Z</time>
      </trkpt>
      <trkpt lat="44.0792" lon="7.10857">
        <ele>657.07</ele>
        <time>2020-06-30T10:11:53Z</time>
      </trkpt>
      <trkpt lat="44.07923" lon="7.10835">
        <ele>657.896</ele>
        <time>2020-06-30T10:12:08Z</time>
      </trkpt>
      <trkpt lat="44.07931" lon="7.10813">
        <ele>660.257</ele>
        <time>2020-06-30T10:12:23Z</time>
      </trkpt>
      <trkpt lat="44.07937" lon="7.10786">
        <ele>660.224</ele>
        <time>2020-06-30T10:12:39Z</time>
      </trkpt>
      <trkpt lat="44.07951" lon="7.1076">
        <ele>660.721</ele>
        <time>2020-06-30T10:12:55Z</time>
      </trkpt>
      <trkpt lat="44.07961" lon="7.10737">
        <ele>659.351</ele>
        <time>2020-06-30T10:13:11Z</time>
      </trkpt>
      <trkpt lat="44.07967" lon="7.10728">
        <ele>660.162</ele>
        <time>2020-06-30T10:13:27Z</time>
      </trkpt>
      <trkpt lat="44.07966" lon="7.10747">
        <ele>658.384</ele>
        <time>2020-06-30T10:13:42Z</time>
      </trkpt>
      <trkpt lat="44.07961" lon="7.10769">
        <ele>656.223</ele>
        <time>2020-06-30T10:13:58Z</time>
      </trkpt>
      <trkpt lat="44.0797" lon="7.10789">
        <ele>656.929</ele>
        <time>2020-06-30T10:14:14Z</time>
      </trkpt>
      <trkpt lat="44.07963" lon="7.1078">
        <ele>658.217</ele>
        <time>2020-06-30T10:14:30Z</time>
      </trkpt>
      <trkpt lat="44.07969" lon="7.10769">
        <ele>661.811</ele>
        <time>2020-06-30T10:14:46Z</time>
      </trkpt>
      <trkpt lat="44.07982" lon="7.10761">
        <ele>661.279</ele>
        <time>2020-06-30T10:15:02Z</time>
      </trkpt>
      <trkpt lat="44.0799" lon="7.10749">
        <ele>658.012</ele>
        <time>2020-06-30T10:15:18Z</time>
      </trkpt>
      <trkpt lat="44.07993" lon="7.10741">
        <ele>654</ele>
        <time>2020-06-30T10:15:34Z</time>
      </trkpt>
      <trkpt lat="44.07995" lon="7.1074">
        <ele>654.166</ele>
        <time>2020-06-30T10:15:49Z</time>
      </trkpt>
      <trkpt lat="44.07998" lon="7.10738">
        <ele>654.263</ele>
        <time>2020-06-30T10:16:05Z</time>
      </trkpt>
      <trkpt lat="44.08" lon="7.10736">
        <ele>653.054</ele>
        <time>2020-06-30T10:16:21Z</time>
      </trkpt>
      <trkpt lat="44.08" lon="7.10736">
        <ele>653.054</ele>
        <time>2020-06-30T10:16:37Z</time>
      </trkpt>
      <trkpt lat="44.08001" lon="7.10735">
        <ele>652.789</ele>
        <time>2020-06-30T10:16:52Z</time>
      </trkpt>
      <trkpt lat="44.08023" lon="7.1073">
        <ele>641.872</ele>
        <time>2020-06-30T10:17:08Z</time>
      </trkpt>
      <trkpt lat="44.08023" lon="7.10731">
        <ele>639.273</ele>
        <time>2020-06-30T10:17:23Z</time>
      </trkpt>
      <trkpt lat="44.08023" lon="7.10731">
        <ele>639.273</ele>
        <time>2020-06-30T10:17:39Z</time>
      </trkpt>
      <trkpt lat="44.08023" lon="7.10731">
        <ele>639.273</ele>
        <time>2020-06-30T10:17:54Z</time>
      </trkpt>
      <trkpt lat="44.08023" lon="7.10731">
        <ele>639.273</ele>
        <time>2020-06-30T10:18:10Z</time>
      </trkpt>
      <trkpt lat="44.0802" lon="7.10731">
        <ele>635.717</ele>
        <time>2020-06-30T10:18:25Z</time>
      </trkpt>
      <trkpt lat="44.08018" lon="7.10726">
        <ele>636.072</ele>
        <time>2020-06-30T10:18:42Z</time>
      </trkpt>
      <trkpt lat="44.08018" lon="7.10728">
        <ele>633.952</ele>
        <time>2020-06-30T10:18:57Z</time>
      </trkpt>
      <trkpt lat="44.08029" lon="7.10734">
        <ele>629.849</ele>
        <time>2020-06-30T10:19:12Z</time>
      </trkpt>
      <trkpt lat="44.08029" lon="7.10731">
        <ele>621.774</ele>
        <time>2020-06-30T10:19:27Z</time>
      </trkpt>
      <trkpt lat="44.08036" lon="7.10731">
        <ele>616.894</ele>
        <time>2020-06-30T10:19:43Z</time>
      </trkpt>
      <trkpt lat="44.08039" lon="7.1073">
        <ele>608.724</ele>
        <time>2020-06-30T10:19:59Z</time>
      </trkpt>
      <trkpt lat="44.08043" lon="7.10736">
        <ele>606.058</ele>
        <time>2020-06-30T10:20:15Z</time>
      </trkpt>
      <trkpt lat="44.08043" lon="7.1074">
        <ele>606.948</ele>
        <time>2020-06-30T10:20:30Z</time>
      </trkpt>
      <trkpt lat="44.08048" lon="7.10756">
        <ele>608.418</ele>
        <time>2020-06-30T10:20:46Z</time>
      </trkpt>
      <trkpt lat="44.08047" lon="7.10755">
        <ele>606.644</ele>
        <time>2020-06-30T10:21:01Z</time>
      </trkpt>
      <trkpt lat="44.08048" lon="7.10756">
        <ele>605.857</ele>
        <time>2020-06-30T10:21:16Z</time>
      </trkpt>
      <trkpt lat="44.0805" lon="7.10755">
        <ele>602.874</ele>
        <time>2020-06-30T10:21:32Z</time>
      </trkpt>
      <trkpt lat="44.0805" lon="7.10755">
        <ele>602.874</ele>
        <time>2020-06-30T10:21:47Z</time>
      </trkpt>
      <trkpt lat="44.08074" lon="7.10748">
        <ele>590.161</ele>
        <time>2020-06-30T10:22:03Z</time>
      </trkpt>
      <trkpt lat="44.08082" lon="7.10742">
        <ele>581.153</ele>
        <time>2020-06-30T10:22:18Z</time>
      </trkpt>
      <trkpt lat="44.08094" lon="7.10739">
        <ele>557.442</ele>
        <time>2020-06-30T10:22:34Z</time>
      </trkpt>
      <trkpt lat="44.08097" lon="7.10739">
        <ele>554.986</ele>
        <time>2020-06-30T10:22:50Z</time>
      </trkpt>
      <trkpt lat="44.08087" lon="7.10731">
        <ele>554.219</ele>
        <time>2020-06-30T10:23:05Z</time>
      </trkpt>
      <trkpt lat="44.08094" lon="7.10714">
        <ele>550.012</ele>
        <time>2020-06-30T10:23:21Z</time>
      </trkpt>
      <trkpt lat="44.08109" lon="7.10718">
        <ele>541.689</ele>
        <time>2020-06-30T10:23:36Z</time>
      </trkpt>
      <trkpt lat="44.08129" lon="7.10722">
        <ele>527.496</ele>
        <time>2020-06-30T10:23:52Z</time>
      </trkpt>
      <trkpt lat="44.0815" lon="7.10724">
        <ele>513.057</ele>
        <time>2020-06-30T10:24:07Z</time>
      </trkpt>
      <trkpt lat="44.08171" lon="7.10717">
        <ele>505.252</ele>
        <time>2020-06-30T10:24:23Z</time>
      </trkpt>
      <trkpt lat="44.08186" lon="7.1071">
        <ele>499.905</ele>
        <time>2020-06-30T10:24:38Z</time>
      </trkpt>
      <trkpt lat="44.08201" lon="7.10689">
        <ele>505.333</ele>
        <time>2020-06-30T10:24:54Z</time>
      </trkpt>
      <trkpt lat="44.08211" lon="7.10674">
        <ele>509.443</ele>
        <time>2020-06-30T10:25:09Z</time>
      </trkpt>
      <trkpt lat="44.08228" lon="7.10665">
        <ele>512.763</ele>
        <time>2020-06-30T10:25:25Z</time>
      </trkpt>
      <trkpt lat="44.08246" lon="7.1066">
        <ele>514.635</ele>
        <time>2020-06-30T10:25:41Z</time>
      </trkpt>
      <trkpt lat="44.08263" lon="7.10653">
        <ele>520.585</ele>
        <time>2020-06-30T10:25:57Z</time>
      </trkpt>
      <trkpt lat="44.08278" lon="7.10642">
        <ele>517.515</ele>
        <time>2020-06-30T10:26:12Z</time>
      </trkpt>
      <trkpt lat="44.08292" lon="7.10637">
        <ele>508.511</ele>
        <time>2020-06-30T10:26:27Z</time>
      </trkpt>
      <trkpt lat="44.08297" lon="7.10633">
        <ele>509.679</ele>
        <time>2020-06-30T10:26:43Z</time>
      </trkpt>
      <trkpt lat="44.08297" lon="7.10633">
        <ele>509.679</ele>
        <time>2020-06-30T10:26:59Z</time>
      </trkpt>
      <trkpt lat="44.08297" lon="7.10633">
        <ele>509.679</ele>
        <time>2020-06-30T10:27:15Z</time>
      </trkpt>
      <trkpt lat="44.08297" lon="7.10633">
        <ele>509.679</ele>
        <time>2020-06-30T10:27:30Z</time>
      </trkpt>
      <trkpt lat="44.083" lon="7.10627">
        <ele>511.038</ele>
        <time>2020-06-30T10:27:45Z</time>
      </trkpt>
      <trkpt lat="44.083" lon="7.10627">
        <ele>511.038</ele>
        <time>2020-06-30T10:28:01Z</time>
      </trkpt>
      <trkpt lat="44.083" lon="7.10627">
        <ele>511.038</ele>
        <time>2020-06-30T10:28:16Z</time>
      </trkpt>
      <trkpt lat="44.083" lon="7.10627">
        <ele>511.038</ele>
        <time>2020-06-30T10:28:31Z</time>
      </trkpt>
      <trkpt lat="44.083" lon="7.10627">
        <ele>511.038</ele>
        <time>2020-06-30T10:28:47Z</time>
      </trkpt>
      <trkpt lat="44.083" lon="7.10627">
        <ele>511.038</ele>
        <time>2020-06-30T10:29:03Z</time>
      </trkpt>
      <trkpt lat="44.083" lon="7.10627">
        <ele>511.038</ele>
        <time>2020-06-30T10:29:18Z</time>
      </trkpt>
      <trkpt lat="44.083" lon="7.10627">
        <ele>511.038</ele>
        <time>2020-06-30T10:29:34Z</time>
      </trkpt>
      <trkpt lat="44.08299" lon="7.10596">
        <ele>522.464</ele>
        <time>2020-06-30T10:29:49Z</time>
      </trkpt>
      <trkpt lat="44.08305" lon="7.10579">
        <ele>533.991</ele>
        <time>2020-06-30T10:30:04Z</time>
      </trkpt>
      <trkpt lat="44.08329" lon="7.10559">
        <ele>541.135</ele>
        <time>2020-06-30T10:30:19Z</time>
      </trkpt>
      <trkpt lat="44.0835" lon="7.10547">
        <ele>540.662</ele>
        <time>2020-06-30T10:30:35Z</time>
      </trkpt>
      <trkpt lat="44.08366" lon="7.10554">
        <ele>542.603</ele>
        <time>2020-06-30T10:30:51Z</time>
      </trkpt>
      <trkpt lat="44.08363" lon="7.10543">
        <ele>545.594</ele>
        <time>2020-06-30T10:31:07Z</time>
      </trkpt>
      <trkpt lat="44.08362" lon="7.1052">
        <ele>538.666</ele>
        <time>2020-06-30T10:31:22Z</time>
      </trkpt>
      <trkpt lat="44.08369" lon="7.10519">
        <ele>537.952</ele>
        <time>2020-06-30T10:31:37Z</time>
      </trkpt>
      <trkpt lat="44.08366" lon="7.10505">
        <ele>544.479</ele>
        <time>2020-06-30T10:31:53Z</time>
      </trkpt>
      <trkpt lat="44.08366" lon="7.10505">
        <ele>544.479</ele>
        <time>2020-06-30T10:32:08Z</time>
      </trkpt>
      <trkpt lat="44.08366" lon="7.10505">
        <ele>544.479</ele>
        <time>2020-06-30T10:32:24Z</time>
      </trkpt>
      <trkpt lat="44.08366" lon="7.10506">
        <ele>547.282</ele>
        <time>2020-06-30T10:32:40Z</time>
      </trkpt>
      <trkpt lat="44.08365" lon="7.10501">
        <ele>548.279</ele>
        <time>2020-06-30T10:32:56Z</time>
      </trkpt>
      <trkpt lat="44.08363" lon="7.10494">
        <ele>549.811</ele>
        <time>2020-06-30T10:33:12Z</time>
      </trkpt>
      <trkpt lat="44.08363" lon="7.10496">
        <ele>549.938</ele>
        <time>2020-06-30T10:33:28Z</time>
      </trkpt>
      <trkpt lat="44.08363" lon="7.10496">
        <ele>549.938</ele>
        <time>2020-06-30T10:33:43Z</time>
      </trkpt>
      <trkpt lat="44.08363" lon="7.10496">
        <ele>549.938</ele>
        <time>2020-06-30T10:33:59Z</time>
      </trkpt>
      <trkpt lat="44.08363" lon="7.10496">
        <ele>549.938</ele>
        <time>2020-06-30T10:34:15Z</time>
      </trkpt>
      <trkpt lat="44.08363" lon="7.10496">
        <ele>549.938</ele>
        <time>2020-06-30T10:34:31Z</time>
      </trkpt>
      <trkpt lat="44.08363" lon="7.10496">
        <ele>549.938</ele>
        <time>2020-06-30T10:34:47Z</time>
      </trkpt>
      <trkpt lat="44.08363" lon="7.10496">
        <ele>549.938</ele>
        <time>2020-06-30T10:35:02Z</time>
      </trkpt>
      <trkpt lat="44.08363" lon="7.10496">
        <ele>549.938</ele>
        <time>2020-06-30T10:35:18Z</time>
      </trkpt>
      <trkpt lat="44.08363" lon="7.10496">
        <ele>549.938</ele>
        <time>2020-06-30T10:35:34Z</time>
      </trkpt>
      <trkpt lat="44.08363" lon="7.10496">
        <ele>549.938</ele>
        <time>2020-06-30T10:35:49Z</time>
      </trkpt>
      <trkpt lat="44.08363" lon="7.10496">
        <ele>549.938</ele>
        <time>2020-06-30T10:36:04Z</time>
      </trkpt>
      <trkpt lat="44.08363" lon="7.10496">
        <ele>549.938</ele>
        <time>2020-06-30T10:36:20Z</time>
      </trkpt>
      <trkpt lat="44.08368" lon="7.105">
        <ele>547.268</ele>
        <time>2020-06-30T10:36:35Z</time>
      </trkpt>
      <trkpt lat="44.08382" lon="7.10515">
        <ele>543.33</ele>
        <time>2020-06-30T10:36:51Z</time>
      </trkpt>
      <trkpt lat="44.08366" lon="7.1053">
        <ele>542.459</ele>
        <time>2020-06-30T10:37:07Z</time>
      </trkpt>
      <trkpt lat="44.08355" lon="7.10533">
        <ele>544.494</ele>
        <time>2020-06-30T10:37:22Z</time>
      </trkpt>
      <trkpt lat="44.08347" lon="7.10548">
        <ele>549.314</ele>
        <time>2020-06-30T10:37:37Z</time>
      </trkpt>
      <trkpt lat="44.08321" lon="7.10556">
        <ele>552.902</ele>
        <time>2020-06-30T10:37:53Z</time>
      </trkpt>
      <trkpt lat="44.08299" lon="7.10577">
        <ele>543.376</ele>
        <time>2020-06-30T10:38:08Z</time>
      </trkpt>
      <trkpt lat="44.08281" lon="7.10594">
        <ele>541.5</ele>
        <time>2020-06-30T10:38:24Z</time>
      </trkpt>
      <trkpt lat="44.08263" lon="7.10597">
        <ele>544.81</ele>
        <time>2020-06-30T10:38:40Z</time>
      </trkpt>
      <trkpt lat="44.08244" lon="7.1061">
        <ele>547.205</ele>
        <time>2020-06-30T10:38:56Z</time>
      </trkpt>
      <trkpt lat="44.08231" lon="7.10616">
        <ele>553.685</ele>
        <time>2020-06-30T10:39:12Z</time>
      </trkpt>
      <trkpt lat="44.08215" lon="7.10627">
        <ele>556.12</ele>
        <time>2020-06-30T10:39:27Z</time>
      </trkpt>
      <trkpt lat="44.08203" lon="7.10648">
        <ele>549.497</ele>
        <time>2020-06-30T10:39:43Z</time>
      </trkpt>
      <trkpt lat="44.082" lon="7.1065">
        <ele>551.824</ele>
        <time>2020-06-30T10:39:58Z</time>
      </trkpt>
      <trkpt lat="44.08199" lon="7.10653">
        <ele>551.875</ele>
        <time>2020-06-30T10:40:14Z</time>
      </trkpt>
      <trkpt lat="44.08203" lon="7.10675">
        <ele>550.363</ele>
        <time>2020-06-30T10:41:44Z</time>
      </trkpt>
      <trkpt lat="44.08197" lon="7.1067">
        <ele>552.461</ele>
        <time>2020-06-30T10:42:00Z</time>
      </trkpt>
      <trkpt lat="44.08183" lon="7.10547">
        <ele>690.406</ele>
        <time>2020-06-30T10:42:15Z</time>
      </trkpt>
      <trkpt lat="44.08186" lon="7.10528">
        <ele>714.495</ele>
        <time>2020-06-30T10:42:30Z</time>
      </trkpt>
      <trkpt lat="44.0819" lon="7.10531">
        <ele>711.114</ele>
        <time>2020-06-30T10:42:46Z</time>
      </trkpt>
      <trkpt lat="44.08194" lon="7.10537">
        <ele>706.22</ele>
        <time>2020-06-30T10:43:02Z</time>
      </trkpt>
      <trkpt lat="44.082" lon="7.10571">
        <ele>670.721</ele>
        <time>2020-06-30T10:43:18Z</time>
      </trkpt>
      <trkpt lat="44.08206" lon="7.10592">
        <ele>656.438</ele>
        <time>2020-06-30T10:43:33Z</time>
      </trkpt>
      <trkpt lat="44.08206" lon="7.10592">
        <ele>656.438</ele>
        <time>2020-06-30T10:43:48Z</time>
      </trkpt>
      <trkpt lat="44.08206" lon="7.10592">
        <ele>656.438</ele>
        <time>2020-06-30T10:44:04Z</time>
      </trkpt>
      <trkpt lat="44.08206" lon="7.10592">
        <ele>656.438</ele>
        <time>2020-06-30T10:44:19Z</time>
      </trkpt>
      <trkpt lat="44.08206" lon="7.10592">
        <ele>656.438</ele>
        <time>2020-06-30T10:44:35Z</time>
      </trkpt>
      <trkpt lat="44.08206" lon="7.10592">
        <ele>656.438</ele>
        <time>2020-06-30T10:44:51Z</time>
      </trkpt>
      <trkpt lat="44.08211" lon="7.106">
        <ele>645.167</ele>
        <time>2020-06-30T10:45:06Z</time>
      </trkpt>
      <trkpt lat="44.08211" lon="7.106">
        <ele>645.167</ele>
        <time>2020-06-30T10:45:22Z</time>
      </trkpt>
      <trkpt lat="44.08211" lon="7.106">
        <ele>645.167</ele>
        <time>2020-06-30T10:45:38Z</time>
      </trkpt>
      <trkpt lat="44.08211" lon="7.106">
        <ele>645.167</ele>
        <time>2020-06-30T10:45:54Z</time>
      </trkpt>
      <trkpt lat="44.08211" lon="7.106">
        <ele>644.921</ele>
        <time>2020-06-30T10:46:10Z</time>
      </trkpt>
      <trkpt lat="44.08213" lon="7.10602">
        <ele>643.379</ele>
        <time>2020-06-30T10:46:26Z</time>
      </trkpt>
      <trkpt lat="44.08213" lon="7.10602">
        <ele>643.379</ele>
        <time>2020-06-30T10:46:41Z</time>
      </trkpt>
      <trkpt lat="44.08207" lon="7.10595">
        <ele>648.371</ele>
        <time>2020-06-30T10:46:57Z</time>
      </trkpt>
      <trkpt lat="44.08199" lon="7.10587">
        <ele>653.812</ele>
        <time>2020-06-30T10:47:13Z</time>
      </trkpt>
      <trkpt lat="44.08193" lon="7.10581">
        <ele>654.961</ele>
        <time>2020-06-30T10:47:28Z</time>
      </trkpt>
      <trkpt lat="44.08193" lon="7.10584">
        <ele>653.481</ele>
        <time>2020-06-30T10:47:44Z</time>
      </trkpt>
      <trkpt lat="44.08193" lon="7.10584">
        <ele>653.481</ele>
        <time>2020-06-30T10:47:59Z</time>
      </trkpt>
      <trkpt lat="44.08188" lon="7.10576">
        <ele>660.112</ele>
        <time>2020-06-30T10:48:15Z</time>
      </trkpt>
      <trkpt lat="44.08188" lon="7.10572">
        <ele>666.787</ele>
        <time>2020-06-30T10:48:30Z</time>
      </trkpt>
      <trkpt lat="44.08183" lon="7.10554">
        <ele>682.891</ele>
        <time>2020-06-30T10:48:46Z</time>
      </trkpt>
      <trkpt lat="44.08168" lon="7.10523">
        <ele>687.354</ele>
        <time>2020-06-30T10:49:15Z</time>
      </trkpt>
      <trkpt lat="44.08176" lon="7.10554">
        <ele>675.677</ele>
        <time>2020-06-30T10:49:31Z</time>
      </trkpt>
      <trkpt lat="44.08178" lon="7.10563">
        <ele>673.331</ele>
        <time>2020-06-30T10:49:47Z</time>
      </trkpt>
      <trkpt lat="44.08177" lon="7.1056">
        <ele>679.759</ele>
        <time>2020-06-30T10:50:02Z</time>
      </trkpt>
      <trkpt lat="44.08171" lon="7.1055">
        <ele>681.789</ele>
        <time>2020-06-30T10:50:18Z</time>
      </trkpt>
      <trkpt lat="44.08171" lon="7.1055">
        <ele>681.789</ele>
        <time>2020-06-30T10:50:34Z</time>
      </trkpt>
      <trkpt lat="44.08171" lon="7.1055">
        <ele>681.789</ele>
        <time>2020-06-30T10:50:49Z</time>
      </trkpt>
      <trkpt lat="44.08169" lon="7.10547">
        <ele>684.75</ele>
        <time>2020-06-30T10:51:05Z</time>
      </trkpt>
      <trkpt lat="44.0817" lon="7.10549">
        <ele>683.965</ele>
        <time>2020-06-30T10:51:20Z</time>
      </trkpt>
      <trkpt lat="44.0817" lon="7.10549">
        <ele>683.965</ele>
        <time>2020-06-30T10:51:36Z</time>
      </trkpt>
      <trkpt lat="44.0817" lon="7.10549">
        <ele>683.965</ele>
        <time>2020-06-30T10:51:51Z</time>
      </trkpt>
      <trkpt lat="44.0817" lon="7.10549">
        <ele>683.965</ele>
        <time>2020-06-30T10:52:07Z</time>
      </trkpt>
      <trkpt lat="44.08168" lon="7.10541">
        <ele>692.386</ele>
        <time>2020-06-30T10:52:22Z</time>
      </trkpt>
      <trkpt lat="44.08168" lon="7.10541">
        <ele>691.768</ele>
        <time>2020-06-30T10:52:38Z</time>
      </trkpt>
      <trkpt lat="44.08163" lon="7.10517">
        <ele>710.392</ele>
        <time>2020-06-30T10:52:54Z</time>
      </trkpt>
      <trkpt lat="44.08165" lon="7.10533">
        <ele>696.972</ele>
        <time>2020-06-30T10:53:09Z</time>
      </trkpt>
      <trkpt lat="44.08161" lon="7.10523">
        <ele>707.493</ele>
        <time>2020-06-30T10:53:25Z</time>
      </trkpt>
      <trkpt lat="44.08162" lon="7.10535">
        <ele>691.986</ele>
        <time>2020-06-30T10:53:40Z</time>
      </trkpt>
      <trkpt lat="44.08157" lon="7.1052">
        <ele>708.93</ele>
        <time>2020-06-30T10:53:55Z</time>
      </trkpt>
      <trkpt lat="44.08151" lon="7.10519">
        <ele>705.929</ele>
        <time>2020-06-30T10:54:11Z</time>
      </trkpt>
      <trkpt lat="44.08154" lon="7.10515">
        <ele>710.967</ele>
        <time>2020-06-30T10:54:26Z</time>
      </trkpt>
      <trkpt lat="44.08154" lon="7.10515">
        <ele>710.967</ele>
        <time>2020-06-30T10:54:42Z</time>
      </trkpt>
      <trkpt lat="44.08164" lon="7.1053">
        <ele>707.251</ele>
        <time>2020-06-30T10:54:58Z</time>
      </trkpt>
      <trkpt lat="44.08164" lon="7.10529">
        <ele>705.779</ele>
        <time>2020-06-30T10:55:14Z</time>
      </trkpt>
      <trkpt lat="44.0816" lon="7.10531">
        <ele>695.512</ele>
        <time>2020-06-30T10:55:30Z</time>
      </trkpt>
      <trkpt lat="44.08159" lon="7.10528">
        <ele>690.705</ele>
        <time>2020-06-30T10:55:45Z</time>
      </trkpt>
      <trkpt lat="44.08163" lon="7.10527">
        <ele>701.941</ele>
        <time>2020-06-30T10:56:00Z</time>
      </trkpt>
      <trkpt lat="44.08162" lon="7.10525">
        <ele>702.782</ele>
        <time>2020-06-30T10:56:16Z</time>
      </trkpt>
      <trkpt lat="44.08162" lon="7.10525">
        <ele>702.782</ele>
        <time>2020-06-30T10:56:31Z</time>
      </trkpt>
      <trkpt lat="44.0816" lon="7.10523">
        <ele>700.144</ele>
        <time>2020-06-30T10:56:47Z</time>
      </trkpt>
      <trkpt lat="44.0816" lon="7.10523">
        <ele>700.144</ele>
        <time>2020-06-30T10:57:02Z</time>
      </trkpt>
      <trkpt lat="44.08158" lon="7.10526">
        <ele>700.368</ele>
        <time>2020-06-30T10:57:18Z</time>
      </trkpt>
      <trkpt lat="44.08162" lon="7.10539">
        <ele>691.031</ele>
        <time>2020-06-30T10:57:41Z</time>
      </trkpt>
      <trkpt lat="44.08163" lon="7.10554">
        <ele>670.539</ele>
        <time>2020-06-30T10:57:56Z</time>
      </trkpt>
      <trkpt lat="44.08159" lon="7.10547">
        <ele>673.724</ele>
        <time>2020-06-30T10:58:12Z</time>
      </trkpt>
      <trkpt lat="44.08159" lon="7.10547">
        <ele>673.724</ele>
        <time>2020-06-30T10:58:27Z</time>
      </trkpt>
      <trkpt lat="44.08158" lon="7.10547">
        <ele>673.897</ele>
        <time>2020-06-30T10:58:43Z</time>
      </trkpt>
      <trkpt lat="44.0815" lon="7.10544">
        <ele>676.449</ele>
        <time>2020-06-30T10:58:59Z</time>
      </trkpt>
      <trkpt lat="44.08153" lon="7.10539">
        <ele>676.348</ele>
        <time>2020-06-30T10:59:14Z</time>
      </trkpt>
      <trkpt lat="44.08153" lon="7.10539">
        <ele>676.348</ele>
        <time>2020-06-30T10:59:30Z</time>
      </trkpt>
      <trkpt lat="44.08153" lon="7.10539">
        <ele>676.348</ele>
        <time>2020-06-30T10:59:45Z</time>
      </trkpt>
      <trkpt lat="44.08153" lon="7.10539">
        <ele>676.348</ele>
        <time>2020-06-30T11:00:01Z</time>
      </trkpt>
      <trkpt lat="44.08153" lon="7.10539">
        <ele>676.348</ele>
        <time>2020-06-30T11:00:17Z</time>
      </trkpt>
      <trkpt lat="44.08153" lon="7.10539">
        <ele>676.348</ele>
        <time>2020-06-30T11:00:32Z</time>
      </trkpt>
      <trkpt lat="44.08153" lon="7.10539">
        <ele>676.348</ele>
        <time>2020-06-30T11:00:48Z</time>
      </trkpt>
      <trkpt lat="44.08152" lon="7.10537">
        <ele>676.46</ele>
        <time>2020-06-30T11:01:04Z</time>
      </trkpt>
      <trkpt lat="44.08152" lon="7.10537">
        <ele>676.46</ele>
        <time>2020-06-30T11:01:19Z</time>
      </trkpt>
      <trkpt lat="44.08152" lon="7.10537">
        <ele>676.46</ele>
        <time>2020-06-30T11:01:35Z</time>
      </trkpt>
      <trkpt lat="44.08152" lon="7.10537">
        <ele>676.46</ele>
        <time>2020-06-30T11:01:50Z</time>
      </trkpt>
      <trkpt lat="44.08152" lon="7.10537">
        <ele>676.46</ele>
        <time>2020-06-30T11:02:06Z</time>
      </trkpt>
      <trkpt lat="44.08152" lon="7.10537">
        <ele>676.46</ele>
        <time>2020-06-30T11:02:22Z</time>
      </trkpt>
      <trkpt lat="44.08152" lon="7.10537">
        <ele>676.46</ele>
        <time>2020-06-30T11:02:38Z</time>
      </trkpt>
      <trkpt lat="44.08152" lon="7.10537">
        <ele>676.46</ele>
        <time>2020-06-30T11:02:53Z</time>
      </trkpt>
      <trkpt lat="44.08152" lon="7.10537">
        <ele>676.46</ele>
        <time>2020-06-30T11:03:08Z</time>
      </trkpt>
      <trkpt lat="44.08152" lon="7.10539">
        <ele>674.011</ele>
        <time>2020-06-30T11:03:24Z</time>
      </trkpt>
      <trkpt lat="44.08151" lon="7.10542">
        <ele>672.255</ele>
        <time>2020-06-30T11:03:39Z</time>
      </trkpt>
      <trkpt lat="44.08155" lon="7.10547">
        <ele>668.512</ele>
        <time>2020-06-30T11:03:55Z</time>
      </trkpt>
      <trkpt lat="44.08156" lon="7.10547">
        <ele>667.4</ele>
        <time>2020-06-30T11:04:10Z</time>
      </trkpt>
      <trkpt lat="44.08155" lon="7.10548">
        <ele>665.206</ele>
        <time>2020-06-30T11:04:26Z</time>
      </trkpt>
      <trkpt lat="44.08152" lon="7.10554">
        <ele>657.245</ele>
        <time>2020-06-30T11:04:42Z</time>
      </trkpt>
      <trkpt lat="44.08152" lon="7.10554">
        <ele>653.725</ele>
        <time>2020-06-30T11:04:57Z</time>
      </trkpt>
      <trkpt lat="44.08155" lon="7.10561">
        <ele>652.243</ele>
        <time>2020-06-30T11:05:13Z</time>
      </trkpt>
      <trkpt lat="44.08155" lon="7.10561">
        <ele>652.243</ele>
        <time>2020-06-30T11:05:28Z</time>
      </trkpt>
      <trkpt lat="44.08155" lon="7.10561">
        <ele>652.243</ele>
        <time>2020-06-30T11:05:44Z</time>
      </trkpt>
      <trkpt lat="44.08155" lon="7.10561">
        <ele>652.243</ele>
        <time>2020-06-30T11:05:59Z</time>
      </trkpt>
      <trkpt lat="44.08155" lon="7.10561">
        <ele>652.243</ele>
        <time>2020-06-30T11:06:15Z</time>
      </trkpt>
      <trkpt lat="44.08155" lon="7.10561">
        <ele>652.243</ele>
        <time>2020-06-30T11:06:31Z</time>
      </trkpt>
      <trkpt lat="44.08155" lon="7.10561">
        <ele>652.243</ele>
        <time>2020-06-30T11:06:47Z</time>
      </trkpt>
      <trkpt lat="44.08155" lon="7.10561">
        <ele>652.243</ele>
        <time>2020-06-30T11:07:03Z</time>
      </trkpt>
      <trkpt lat="44.08155" lon="7.10561">
        <ele>652.243</ele>
        <time>2020-06-30T11:07:19Z</time>
      </trkpt>
      <trkpt lat="44.08155" lon="7.10561">
        <ele>652.243</ele>
        <time>2020-06-30T11:07:34Z</time>
      </trkpt>
      <trkpt lat="44.08155" lon="7.10561">
        <ele>652.243</ele>
        <time>2020-06-30T11:07:49Z</time>
      </trkpt>
      <trkpt lat="44.08155" lon="7.10561">
        <ele>652.243</ele>
        <time>2020-06-30T11:08:05Z</time>
      </trkpt>
      <trkpt lat="44.08151" lon="7.1056">
        <ele>650.928</ele>
        <time>2020-06-30T11:08:21Z</time>
      </trkpt>
      <trkpt lat="44.08151" lon="7.1056">
        <ele>650.928</ele>
        <time>2020-06-30T11:08:37Z</time>
      </trkpt>
      <trkpt lat="44.08154" lon="7.10568">
        <ele>651.217</ele>
        <time>2020-06-30T11:08:52Z</time>
      </trkpt>
      <trkpt lat="44.08153" lon="7.10569">
        <ele>649.542</ele>
        <time>2020-06-30T11:09:08Z</time>
      </trkpt>
      <trkpt lat="44.08153" lon="7.10575">
        <ele>645.088</ele>
        <time>2020-06-30T11:09:23Z</time>
      </trkpt>
      <trkpt lat="44.08153" lon="7.10575">
        <ele>645.088</ele>
        <time>2020-06-30T11:09:39Z</time>
      </trkpt>
      <trkpt lat="44.08149" lon="7.10575">
        <ele>640.792</ele>
        <time>2020-06-30T11:09:54Z</time>
      </trkpt>
      <trkpt lat="44.08149" lon="7.10575">
        <ele>640.792</ele>
        <time>2020-06-30T11:10:09Z</time>
      </trkpt>
      <trkpt lat="44.08152" lon="7.10579">
        <ele>639.021</ele>
        <time>2020-06-30T11:10:25Z</time>
      </trkpt>
      <trkpt lat="44.08152" lon="7.10579">
        <ele>639.021</ele>
        <time>2020-06-30T11:10:40Z</time>
      </trkpt>
      <trkpt lat="44.08152" lon="7.10579">
        <ele>639.021</ele>
        <time>2020-06-30T11:10:56Z</time>
      </trkpt>
      <trkpt lat="44.08152" lon="7.10579">
        <ele>639.021</ele>
        <time>2020-06-30T11:11:11Z</time>
      </trkpt>
      <trkpt lat="44.08152" lon="7.10579">
        <ele>639.021</ele>
        <time>2020-06-30T11:11:27Z</time>
      </trkpt>
      <trkpt lat="44.08152" lon="7.10579">
        <ele>639.021</ele>
        <time>2020-06-30T11:11:43Z</time>
      </trkpt>
      <trkpt lat="44.08151" lon="7.10584">
        <ele>630.621</ele>
        <time>2020-06-30T11:11:59Z</time>
      </trkpt>
      <trkpt lat="44.08167" lon="7.10603">
        <ele>625.747</ele>
        <time>2020-06-30T11:12:14Z</time>
      </trkpt>
      <trkpt lat="44.08167" lon="7.10603">
        <ele>625.747</ele>
        <time>2020-06-30T11:12:30Z</time>
      </trkpt>
      <trkpt lat="44.0817" lon="7.10605">
        <ele>616.14</ele>
        <time>2020-06-30T11:12:46Z</time>
      </trkpt>
      <trkpt lat="44.08169" lon="7.10609">
        <ele>610.682</ele>
        <time>2020-06-30T11:13:02Z</time>
      </trkpt>
      <trkpt lat="44.08178" lon="7.10628">
        <ele>602.718</ele>
        <time>2020-06-30T11:13:17Z</time>
      </trkpt>
      <trkpt lat="44.08167" lon="7.10611">
        <ele>600.425</ele>
        <time>2020-06-30T11:13:32Z</time>
      </trkpt>
      <trkpt lat="44.0816" lon="7.10603">
        <ele>598.563</ele>
        <time>2020-06-30T11:13:47Z</time>
      </trkpt>
      <trkpt lat="44.0816" lon="7.10603">
        <ele>598.563</ele>
        <time>2020-06-30T11:14:03Z</time>
      </trkpt>
      <trkpt lat="44.0816" lon="7.10603">
        <ele>598.563</ele>
        <time>2020-06-30T11:14:19Z</time>
      </trkpt>
      <trkpt lat="44.0816" lon="7.10603">
        <ele>598.563</ele>
        <time>2020-06-30T11:14:34Z</time>
      </trkpt>
      <trkpt lat="44.0816" lon="7.10603">
        <ele>598.563</ele>
        <time>2020-06-30T11:14:49Z</time>
      </trkpt>
      <trkpt lat="44.0816" lon="7.10603">
        <ele>598.563</ele>
        <time>2020-06-30T11:15:05Z</time>
      </trkpt>
      <trkpt lat="44.08163" lon="7.10609">
        <ele>598.59</ele>
        <time>2020-06-30T11:15:20Z</time>
      </trkpt>
      <trkpt lat="44.08178" lon="7.10632">
        <ele>596.424</ele>
        <time>2020-06-30T11:15:36Z</time>
      </trkpt>
      <trkpt lat="44.08184" lon="7.10646">
        <ele>595.94</ele>
        <time>2020-06-30T11:15:51Z</time>
      </trkpt>
      <trkpt lat="44.08184" lon="7.10639">
        <ele>594.324</ele>
        <time>2020-06-30T11:16:07Z</time>
      </trkpt>
      <trkpt lat="44.08184" lon="7.10639">
        <ele>594.324</ele>
        <time>2020-06-30T11:16:22Z</time>
      </trkpt>
      <trkpt lat="44.08186" lon="7.10652">
        <ele>588.376</ele>
        <time>2020-06-30T11:16:37Z</time>
      </trkpt>
      <trkpt lat="44.08186" lon="7.10652">
        <ele>588.376</ele>
        <time>2020-06-30T11:16:52Z</time>
      </trkpt>
      <trkpt lat="44.08188" lon="7.10658">
        <ele>588.284</ele>
        <time>2020-06-30T11:17:07Z</time>
      </trkpt>
      <trkpt lat="44.08188" lon="7.10658">
        <ele>588.284</ele>
        <time>2020-06-30T11:17:23Z</time>
      </trkpt>
      <trkpt lat="44.08185" lon="7.10651">
        <ele>587.263</ele>
        <time>2020-06-30T11:17:38Z</time>
      </trkpt>
      <trkpt lat="44.08175" lon="7.10634">
        <ele>585.176</ele>
        <time>2020-06-30T11:17:54Z</time>
      </trkpt>
      <trkpt lat="44.08175" lon="7.10634">
        <ele>585.176</ele>
        <time>2020-06-30T11:18:09Z</time>
      </trkpt>
      <trkpt lat="44.08185" lon="7.10643">
        <ele>584.753</ele>
        <time>2020-06-30T11:18:25Z</time>
      </trkpt>
      <trkpt lat="44.08188" lon="7.10646">
        <ele>585.522</ele>
        <time>2020-06-30T11:18:41Z</time>
      </trkpt>
      <trkpt lat="44.08188" lon="7.10646">
        <ele>585.522</ele>
        <time>2020-06-30T11:18:56Z</time>
      </trkpt>
      <trkpt lat="44.08188" lon="7.10646">
        <ele>585.522</ele>
        <time>2020-06-30T11:19:12Z</time>
      </trkpt>
      <trkpt lat="44.08188" lon="7.10646">
        <ele>585.522</ele>
        <time>2020-06-30T11:19:27Z</time>
      </trkpt>
      <trkpt lat="44.08188" lon="7.10646">
        <ele>585.522</ele>
        <time>2020-06-30T11:19:43Z</time>
      </trkpt>
      <trkpt lat="44.08188" lon="7.10646">
        <ele>585.522</ele>
        <time>2020-06-30T11:19:58Z</time>
      </trkpt>
      <trkpt lat="44.08188" lon="7.10646">
        <ele>585.522</ele>
        <time>2020-06-30T11:20:14Z</time>
      </trkpt>
      <trkpt lat="44.08188" lon="7.10646">
        <ele>585.522</ele>
        <time>2020-06-30T11:20:30Z</time>
      </trkpt>
      <trkpt lat="44.08188" lon="7.10646">
        <ele>585.522</ele>
        <time>2020-06-30T11:20:46Z</time>
      </trkpt>
      <trkpt lat="44.08175" lon="7.10635">
        <ele>582.707</ele>
        <time>2020-06-30T11:21:01Z</time>
      </trkpt>
      <trkpt lat="44.08182" lon="7.1063">
        <ele>581.172</ele>
        <time>2020-06-30T11:21:17Z</time>
      </trkpt>
      <trkpt lat="44.08184" lon="7.10631">
        <ele>581.911</ele>
        <time>2020-06-30T11:21:33Z</time>
      </trkpt>
      <trkpt lat="44.08184" lon="7.10631">
        <ele>581.911</ele>
        <time>2020-06-30T11:21:49Z</time>
      </trkpt>
      <trkpt lat="44.08184" lon="7.10631">
        <ele>581.911</ele>
        <time>2020-06-30T11:22:05Z</time>
      </trkpt>
      <trkpt lat="44.08184" lon="7.10631">
        <ele>581.911</ele>
        <time>2020-06-30T11:22:20Z</time>
      </trkpt>
      <trkpt lat="44.08184" lon="7.10631">
        <ele>581.911</ele>
        <time>2020-06-30T11:22:36Z</time>
      </trkpt>
      <trkpt lat="44.08184" lon="7.10631">
        <ele>581.911</ele>
        <time>2020-06-30T11:22:51Z</time>
      </trkpt>
      <trkpt lat="44.08184" lon="7.10631">
        <ele>581.911</ele>
        <time>2020-06-30T11:23:07Z</time>
      </trkpt>
      <trkpt lat="44.08184" lon="7.10631">
        <ele>581.911</ele>
        <time>2020-06-30T11:23:22Z</time>
      </trkpt>
      <trkpt lat="44.08184" lon="7.10631">
        <ele>581.911</ele>
        <time>2020-06-30T11:23:38Z</time>
      </trkpt>
      <trkpt lat="44.08184" lon="7.10631">
        <ele>581.911</ele>
        <time>2020-06-30T11:23:53Z</time>
      </trkpt>
      <trkpt lat="44.08184" lon="7.10631">
        <ele>581.911</ele>
        <time>2020-06-30T11:24:09Z</time>
      </trkpt>
      <trkpt lat="44.08184" lon="7.10631">
        <ele>581.911</ele>
        <time>2020-06-30T11:24:25Z</time>
      </trkpt>
      <trkpt lat="44.08184" lon="7.10631">
        <ele>581.911</ele>
        <time>2020-06-30T11:24:41Z</time>
      </trkpt>
      <trkpt lat="44.08184" lon="7.10631">
        <ele>581.911</ele>
        <time>2020-06-30T11:24:56Z</time>
      </trkpt>
      <trkpt lat="44.08184" lon="7.10631">
        <ele>581.911</ele>
        <time>2020-06-30T11:25:11Z</time>
      </trkpt>
      <trkpt lat="44.08184" lon="7.10631">
        <ele>581.911</ele>
        <time>2020-06-30T11:25:27Z</time>
      </trkpt>
      <trkpt lat="44.08184" lon="7.10631">
        <ele>581.911</ele>
        <time>2020-06-30T11:25:42Z</time>
      </trkpt>
      <trkpt lat="44.08184" lon="7.10634">
        <ele>579.415</ele>
        <time>2020-06-30T11:25:58Z</time>
      </trkpt>
      <trkpt lat="44.08182" lon="7.10636">
        <ele>578.069</ele>
        <time>2020-06-30T11:26:14Z</time>
      </trkpt>
      <trkpt lat="44.08182" lon="7.10636">
        <ele>578.069</ele>
        <time>2020-06-30T11:26:30Z</time>
      </trkpt>
      <trkpt lat="44.08182" lon="7.10636">
        <ele>578.069</ele>
        <time>2020-06-30T11:26:45Z</time>
      </trkpt>
      <trkpt lat="44.08184" lon="7.10639">
        <ele>577.782</ele>
        <time>2020-06-30T11:27:01Z</time>
      </trkpt>
      <trkpt lat="44.08184" lon="7.10639">
        <ele>577.782</ele>
        <time>2020-06-30T11:27:16Z</time>
      </trkpt>
      <trkpt lat="44.08186" lon="7.1064">
        <ele>576.87</ele>
        <time>2020-06-30T11:27:32Z</time>
      </trkpt>
      <trkpt lat="44.08186" lon="7.1064">
        <ele>576.87</ele>
        <time>2020-06-30T11:27:48Z</time>
      </trkpt>
      <trkpt lat="44.08184" lon="7.10643">
        <ele>575.874</ele>
        <time>2020-06-30T11:28:04Z</time>
      </trkpt>
      <trkpt lat="44.08184" lon="7.10643">
        <ele>575.874</ele>
        <time>2020-06-30T11:28:20Z</time>
      </trkpt>
      <trkpt lat="44.08184" lon="7.10643">
        <ele>575.874</ele>
        <time>2020-06-30T11:28:36Z</time>
      </trkpt>
      <trkpt lat="44.08184" lon="7.10643">
        <ele>575.874</ele>
        <time>2020-06-30T11:28:52Z</time>
      </trkpt>
      <trkpt lat="44.08184" lon="7.10643">
        <ele>575.874</ele>
        <time>2020-06-30T11:29:07Z</time>
      </trkpt>
      <trkpt lat="44.08184" lon="7.10643">
        <ele>575.874</ele>
        <time>2020-06-30T11:29:23Z</time>
      </trkpt>
      <trkpt lat="44.08184" lon="7.10642">
        <ele>576.467</ele>
        <time>2020-06-30T11:29:39Z</time>
      </trkpt>
      <trkpt lat="44.08184" lon="7.10642">
        <ele>576.467</ele>
        <time>2020-06-30T11:29:55Z</time>
      </trkpt>
      <trkpt lat="44.08184" lon="7.10642">
        <ele>576.467</ele>
        <time>2020-06-30T11:30:10Z</time>
      </trkpt>
      <trkpt lat="44.08184" lon="7.10642">
        <ele>576.467</ele>
        <time>2020-06-30T11:30:25Z</time>
      </trkpt>
      <trkpt lat="44.08184" lon="7.10642">
        <ele>576.467</ele>
        <time>2020-06-30T11:30:41Z</time>
      </trkpt>
      <trkpt lat="44.08184" lon="7.10642">
        <ele>576.467</ele>
        <time>2020-06-30T11:30:56Z</time>
      </trkpt>
      <trkpt lat="44.08184" lon="7.10642">
        <ele>576.467</ele>
        <time>2020-06-30T11:31:12Z</time>
      </trkpt>
      <trkpt lat="44.08184" lon="7.10642">
        <ele>576.467</ele>
        <time>2020-06-30T11:31:27Z</time>
      </trkpt>
      <trkpt lat="44.08184" lon="7.10642">
        <ele>576.467</ele>
        <time>2020-06-30T11:31:43Z</time>
      </trkpt>
      <trkpt lat="44.08184" lon="7.10642">
        <ele>576.467</ele>
        <time>2020-06-30T11:31:59Z</time>
      </trkpt>
      <trkpt lat="44.08182" lon="7.10636">
        <ele>576.211</ele>
        <time>2020-06-30T11:32:14Z</time>
      </trkpt>
      <trkpt lat="44.08182" lon="7.10636">
        <ele>576.211</ele>
        <time>2020-06-30T11:32:30Z</time>
      </trkpt>
      <trkpt lat="44.08182" lon="7.10636">
        <ele>576.211</ele>
        <time>2020-06-30T11:32:45Z</time>
      </trkpt>
      <trkpt lat="44.08182" lon="7.10636">
        <ele>576.211</ele>
        <time>2020-06-30T11:33:00Z</time>
      </trkpt>
      <trkpt lat="44.08182" lon="7.10636">
        <ele>576.211</ele>
        <time>2020-06-30T11:33:16Z</time>
      </trkpt>
      <trkpt lat="44.08181" lon="7.10637">
        <ele>576.69</ele>
        <time>2020-06-30T11:33:32Z</time>
      </trkpt>
      <trkpt lat="44.08181" lon="7.10637">
        <ele>576.69</ele>
        <time>2020-06-30T11:33:47Z</time>
      </trkpt>
      <trkpt lat="44.08181" lon="7.10637">
        <ele>576.69</ele>
        <time>2020-06-30T11:34:03Z</time>
      </trkpt>
      <trkpt lat="44.08181" lon="7.10637">
        <ele>576.69</ele>
        <time>2020-06-30T11:34:18Z</time>
      </trkpt>
      <trkpt lat="44.08178" lon="7.10631">
        <ele>575.552</ele>
        <time>2020-06-30T11:34:34Z</time>
      </trkpt>
      <trkpt lat="44.08181" lon="7.10635">
        <ele>573.398</ele>
        <time>2020-06-30T11:34:50Z</time>
      </trkpt>
      <trkpt lat="44.08181" lon="7.10635">
        <ele>573.398</ele>
        <time>2020-06-30T11:35:05Z</time>
      </trkpt>
      <trkpt lat="44.08181" lon="7.10635">
        <ele>573.398</ele>
        <time>2020-06-30T11:35:21Z</time>
      </trkpt>
      <trkpt lat="44.08181" lon="7.10636">
        <ele>573.594</ele>
        <time>2020-06-30T11:35:36Z</time>
      </trkpt>
      <trkpt lat="44.08182" lon="7.10639">
        <ele>573.208</ele>
        <time>2020-06-30T11:35:52Z</time>
      </trkpt>
      <trkpt lat="44.08182" lon="7.10639">
        <ele>573.208</ele>
        <time>2020-06-30T11:36:08Z</time>
      </trkpt>
      <trkpt lat="44.08182" lon="7.10639">
        <ele>573.208</ele>
        <time>2020-06-30T11:36:23Z</time>
      </trkpt>
      <trkpt lat="44.08185" lon="7.1064">
        <ele>574.173</ele>
        <time>2020-06-30T11:36:39Z</time>
      </trkpt>
      <trkpt lat="44.08185" lon="7.1064">
        <ele>574.173</ele>
        <time>2020-06-30T11:36:54Z</time>
      </trkpt>
      <trkpt lat="44.08185" lon="7.1064">
        <ele>574.173</ele>
        <time>2020-06-30T11:37:10Z</time>
      </trkpt>
      <trkpt lat="44.08185" lon="7.1064">
        <ele>574.173</ele>
        <time>2020-06-30T11:37:26Z</time>
      </trkpt>
      <trkpt lat="44.08185" lon="7.1064">
        <ele>574.173</ele>
        <time>2020-06-30T11:37:41Z</time>
      </trkpt>
      <trkpt lat="44.08185" lon="7.1064">
        <ele>574.173</ele>
        <time>2020-06-30T11:37:57Z</time>
      </trkpt>
      <trkpt lat="44.08185" lon="7.1064">
        <ele>574.173</ele>
        <time>2020-06-30T11:38:12Z</time>
      </trkpt>
      <trkpt lat="44.08185" lon="7.1064">
        <ele>574.173</ele>
        <time>2020-06-30T11:38:27Z</time>
      </trkpt>
      <trkpt lat="44.08185" lon="7.1064">
        <ele>574.173</ele>
        <time>2020-06-30T11:38:43Z</time>
      </trkpt>
      <trkpt lat="44.08185" lon="7.1064">
        <ele>574.173</ele>
        <time>2020-06-30T11:38:58Z</time>
      </trkpt>
      <trkpt lat="44.08184" lon="7.10639">
        <ele>573.759</ele>
        <time>2020-06-30T11:39:14Z</time>
      </trkpt>
      <trkpt lat="44.08184" lon="7.10639">
        <ele>573.759</ele>
        <time>2020-06-30T11:39:30Z</time>
      </trkpt>
      <trkpt lat="44.08184" lon="7.10639">
        <ele>573.759</ele>
        <time>2020-06-30T11:39:46Z</time>
      </trkpt>
      <trkpt lat="44.08184" lon="7.10639">
        <ele>573.759</ele>
        <time>2020-06-30T11:40:02Z</time>
      </trkpt>
      <trkpt lat="44.08188" lon="7.10644">
        <ele>571.516</ele>
        <time>2020-06-30T11:40:17Z</time>
      </trkpt>
      <trkpt lat="44.08188" lon="7.10644">
        <ele>571.516</ele>
        <time>2020-06-30T11:40:32Z</time>
      </trkpt>
      <trkpt lat="44.08188" lon="7.10644">
        <ele>571.516</ele>
        <time>2020-06-30T11:40:47Z</time>
      </trkpt>
      <trkpt lat="44.08188" lon="7.10644">
        <ele>571.516</ele>
        <time>2020-06-30T11:41:03Z</time>
      </trkpt>
      <trkpt lat="44.08188" lon="7.10644">
        <ele>571.516</ele>
        <time>2020-06-30T11:41:18Z</time>
      </trkpt>
      <trkpt lat="44.08182" lon="7.10644">
        <ele>571.526</ele>
        <time>2020-06-30T11:41:34Z</time>
      </trkpt>
      <trkpt lat="44.08182" lon="7.10644">
        <ele>571.526</ele>
        <time>2020-06-30T11:41:50Z</time>
      </trkpt>
      <trkpt lat="44.08182" lon="7.10647">
        <ele>570.833</ele>
        <time>2020-06-30T11:42:06Z</time>
      </trkpt>
      <trkpt lat="44.08182" lon="7.10647">
        <ele>570.833</ele>
        <time>2020-06-30T11:42:21Z</time>
      </trkpt>
      <trkpt lat="44.08182" lon="7.10647">
        <ele>570.833</ele>
        <time>2020-06-30T11:42:36Z</time>
      </trkpt>
      <trkpt lat="44.08182" lon="7.10647">
        <ele>570.833</ele>
        <time>2020-06-30T11:42:52Z</time>
      </trkpt>
      <trkpt lat="44.08181" lon="7.10644">
        <ele>570.699</ele>
        <time>2020-06-30T11:43:08Z</time>
      </trkpt>
      <trkpt lat="44.08181" lon="7.10643">
        <ele>570.083</ele>
        <time>2020-06-30T11:43:24Z</time>
      </trkpt>
      <trkpt lat="44.08181" lon="7.10643">
        <ele>570.083</ele>
        <time>2020-06-30T11:43:39Z</time>
      </trkpt>
      <trkpt lat="44.08181" lon="7.10643">
        <ele>570.083</ele>
        <time>2020-06-30T11:43:55Z</time>
      </trkpt>
      <trkpt lat="44.08181" lon="7.10643">
        <ele>570.083</ele>
        <time>2020-06-30T11:44:10Z</time>
      </trkpt>
      <trkpt lat="44.08181" lon="7.10643">
        <ele>570.083</ele>
        <time>2020-06-30T11:44:25Z</time>
      </trkpt>
      <trkpt lat="44.08181" lon="7.10642">
        <ele>569.858</ele>
        <time>2020-06-30T11:44:41Z</time>
      </trkpt>
      <trkpt lat="44.08182" lon="7.10643">
        <ele>569.351</ele>
        <time>2020-06-30T11:44:57Z</time>
      </trkpt>
      <trkpt lat="44.08182" lon="7.10643">
        <ele>569.351</ele>
        <time>2020-06-30T11:45:13Z</time>
      </trkpt>
      <trkpt lat="44.08182" lon="7.10643">
        <ele>569.351</ele>
        <time>2020-06-30T11:45:28Z</time>
      </trkpt>
      <trkpt lat="44.08182" lon="7.10643">
        <ele>569.351</ele>
        <time>2020-06-30T11:45:44Z</time>
      </trkpt>
      <trkpt lat="44.08182" lon="7.10643">
        <ele>569.351</ele>
        <time>2020-06-30T11:46:00Z</time>
      </trkpt>
      <trkpt lat="44.08182" lon="7.10643">
        <ele>569.351</ele>
        <time>2020-06-30T11:46:16Z</time>
      </trkpt>
      <trkpt lat="44.08182" lon="7.10643">
        <ele>569.351</ele>
        <time>2020-06-30T11:46:31Z</time>
      </trkpt>
      <trkpt lat="44.08185" lon="7.10646">
        <ele>568.614</ele>
        <time>2020-06-30T11:46:47Z</time>
      </trkpt>
      <trkpt lat="44.08185" lon="7.10646">
        <ele>568.614</ele>
        <time>2020-06-30T11:47:02Z</time>
      </trkpt>
      <trkpt lat="44.08185" lon="7.10646">
        <ele>568.614</ele>
        <time>2020-06-30T11:47:17Z</time>
      </trkpt>
      <trkpt lat="44.08185" lon="7.10646">
        <ele>568.614</ele>
        <time>2020-06-30T11:47:32Z</time>
      </trkpt>
      <trkpt lat="44.08185" lon="7.10646">
        <ele>568.614</ele>
        <time>2020-06-30T11:47:48Z</time>
      </trkpt>
      <trkpt lat="44.08185" lon="7.10646">
        <ele>568.614</ele>
        <time>2020-06-30T11:48:04Z</time>
      </trkpt>
      <trkpt lat="44.08187" lon="7.10647">
        <ele>568.157</ele>
        <time>2020-06-30T11:48:19Z</time>
      </trkpt>
      <trkpt lat="44.08187" lon="7.10647">
        <ele>568.157</ele>
        <time>2020-06-30T11:48:35Z</time>
      </trkpt>
      <trkpt lat="44.08187" lon="7.10647">
        <ele>568.157</ele>
        <time>2020-06-30T11:48:50Z</time>
      </trkpt>
      <trkpt lat="44.08187" lon="7.10647">
        <ele>568.157</ele>
        <time>2020-06-30T11:49:05Z</time>
      </trkpt>
      <trkpt lat="44.08187" lon="7.10647">
        <ele>568.157</ele>
        <time>2020-06-30T11:49:21Z</time>
      </trkpt>
      <trkpt lat="44.08187" lon="7.10647">
        <ele>568.157</ele>
        <time>2020-06-30T11:49:36Z</time>
      </trkpt>
      <trkpt lat="44.08185" lon="7.10647">
        <ele>566.803</ele>
        <time>2020-06-30T11:49:52Z</time>
      </trkpt>
      <trkpt lat="44.08185" lon="7.10647">
        <ele>566.803</ele>
        <time>2020-06-30T11:50:08Z</time>
      </trkpt>
      <trkpt lat="44.08185" lon="7.10647">
        <ele>566.803</ele>
        <time>2020-06-30T11:50:24Z</time>
      </trkpt>
      <trkpt lat="44.08185" lon="7.10647">
        <ele>566.803</ele>
        <time>2020-06-30T11:50:39Z</time>
      </trkpt>
      <trkpt lat="44.08185" lon="7.10647">
        <ele>566.803</ele>
        <time>2020-06-30T11:50:55Z</time>
      </trkpt>
      <trkpt lat="44.08185" lon="7.10647">
        <ele>566.803</ele>
        <time>2020-06-30T11:51:11Z</time>
      </trkpt>
      <trkpt lat="44.08185" lon="7.10647">
        <ele>566.803</ele>
        <time>2020-06-30T11:51:26Z</time>
      </trkpt>
      <trkpt lat="44.08185" lon="7.10647">
        <ele>566.803</ele>
        <time>2020-06-30T11:51:41Z</time>
      </trkpt>
      <trkpt lat="44.08185" lon="7.10647">
        <ele>566.803</ele>
        <time>2020-06-30T11:51:57Z</time>
      </trkpt>
      <trkpt lat="44.08185" lon="7.10647">
        <ele>566.803</ele>
        <time>2020-06-30T11:52:13Z</time>
      </trkpt>
      <trkpt lat="44.08185" lon="7.10647">
        <ele>566.803</ele>
        <time>2020-06-30T11:52:29Z</time>
      </trkpt>
      <trkpt lat="44.08185" lon="7.10647">
        <ele>566.803</ele>
        <time>2020-06-30T11:52:45Z</time>
      </trkpt>
      <trkpt lat="44.08185" lon="7.10647">
        <ele>566.803</ele>
        <time>2020-06-30T11:53:00Z</time>
      </trkpt>
      <trkpt lat="44.08185" lon="7.10647">
        <ele>566.803</ele>
        <time>2020-06-30T11:53:16Z</time>
      </trkpt>
      <trkpt lat="44.08185" lon="7.10647">
        <ele>566.803</ele>
        <time>2020-06-30T11:53:32Z</time>
      </trkpt>
      <trkpt lat="44.08185" lon="7.10647">
        <ele>566.803</ele>
        <time>2020-06-30T11:53:47Z</time>
      </trkpt>
      <trkpt lat="44.08185" lon="7.10647">
        <ele>566.803</ele>
        <time>2020-06-30T11:54:03Z</time>
      </trkpt>
      <trkpt lat="44.08185" lon="7.10647">
        <ele>566.803</ele>
        <time>2020-06-30T11:54:19Z</time>
      </trkpt>
      <trkpt lat="44.08185" lon="7.10647">
        <ele>566.803</ele>
        <time>2020-06-30T11:54:34Z</time>
      </trkpt>
      <trkpt lat="44.08185" lon="7.10647">
        <ele>566.803</ele>
        <time>2020-06-30T11:54:49Z</time>
      </trkpt>
      <trkpt lat="44.08184" lon="7.10647">
        <ele>566.955</ele>
        <time>2020-06-30T11:55:04Z</time>
      </trkpt>
      <trkpt lat="44.08187" lon="7.10645">
        <ele>567.096</ele>
        <time>2020-06-30T11:55:20Z</time>
      </trkpt>
      <trkpt lat="44.08189" lon="7.10643">
        <ele>567.528</ele>
        <time>2020-06-30T11:55:36Z</time>
      </trkpt>
      <trkpt lat="44.08186" lon="7.10642">
        <ele>568.512</ele>
        <time>2020-06-30T11:55:51Z</time>
      </trkpt>
      <trkpt lat="44.08186" lon="7.10642">
        <ele>568.512</ele>
        <time>2020-06-30T11:56:06Z</time>
      </trkpt>
      <trkpt lat="44.08186" lon="7.10642">
        <ele>568.512</ele>
        <time>2020-06-30T11:56:22Z</time>
      </trkpt>
      <trkpt lat="44.08186" lon="7.10642">
        <ele>568.512</ele>
        <time>2020-06-30T11:56:37Z</time>
      </trkpt>
      <trkpt lat="44.08186" lon="7.10642">
        <ele>568.512</ele>
        <time>2020-06-30T11:56:53Z</time>
      </trkpt>
      <trkpt lat="44.08186" lon="7.10642">
        <ele>568.512</ele>
        <time>2020-06-30T11:57:09Z</time>
      </trkpt>
      <trkpt lat="44.08186" lon="7.10642">
        <ele>568.512</ele>
        <time>2020-06-30T11:57:24Z</time>
      </trkpt>
      <trkpt lat="44.08187" lon="7.10641">
        <ele>568.154</ele>
        <time>2020-06-30T11:57:40Z</time>
      </trkpt>
      <trkpt lat="44.08187" lon="7.10641">
        <ele>568.154</ele>
        <time>2020-06-30T11:57:55Z</time>
      </trkpt>
      <trkpt lat="44.08187" lon="7.10641">
        <ele>568.154</ele>
        <time>2020-06-30T11:58:10Z</time>
      </trkpt>
      <trkpt lat="44.08187" lon="7.10641">
        <ele>568.154</ele>
        <time>2020-06-30T11:58:26Z</time>
      </trkpt>
      <trkpt lat="44.08186" lon="7.10642">
        <ele>567.323</ele>
        <time>2020-06-30T11:58:42Z</time>
      </trkpt>
      <trkpt lat="44.08187" lon="7.10643">
        <ele>567.176</ele>
        <time>2020-06-30T11:58:57Z</time>
      </trkpt>
      <trkpt lat="44.08187" lon="7.10643">
        <ele>567.176</ele>
        <time>2020-06-30T11:59:13Z</time>
      </trkpt>
      <trkpt lat="44.08187" lon="7.10646">
        <ele>566.219</ele>
        <time>2020-06-30T11:59:28Z</time>
      </trkpt>
      <trkpt lat="44.08187" lon="7.10646">
        <ele>566.219</ele>
        <time>2020-06-30T11:59:44Z</time>
      </trkpt>
      <trkpt lat="44.08187" lon="7.10646">
        <ele>566.219</ele>
        <time>2020-06-30T12:00:00Z</time>
      </trkpt>
      <trkpt lat="44.08188" lon="7.10645">
        <ele>565.793</ele>
        <time>2020-06-30T12:00:16Z</time>
      </trkpt>
      <trkpt lat="44.08187" lon="7.10644">
        <ele>564.853</ele>
        <time>2020-06-30T12:00:31Z</time>
      </trkpt>
      <trkpt lat="44.08187" lon="7.10644">
        <ele>564.853</ele>
        <time>2020-06-30T12:00:46Z</time>
      </trkpt>
      <trkpt lat="44.08187" lon="7.10644">
        <ele>564.853</ele>
        <time>2020-06-30T12:01:02Z</time>
      </trkpt>
      <trkpt lat="44.08187" lon="7.10644">
        <ele>564.853</ele>
        <time>2020-06-30T12:01:17Z</time>
      </trkpt>
      <trkpt lat="44.08187" lon="7.10644">
        <ele>564.853</ele>
        <time>2020-06-30T12:01:33Z</time>
      </trkpt>
      <trkpt lat="44.08187" lon="7.10644">
        <ele>564.435</ele>
        <time>2020-06-30T12:01:49Z</time>
      </trkpt>
      <trkpt lat="44.08188" lon="7.10645">
        <ele>565.205</ele>
        <time>2020-06-30T12:02:04Z</time>
      </trkpt>
      <trkpt lat="44.08188" lon="7.10645">
        <ele>565.205</ele>
        <time>2020-06-30T12:02:20Z</time>
      </trkpt>
      <trkpt lat="44.08188" lon="7.10645">
        <ele>565.205</ele>
        <time>2020-06-30T12:02:35Z</time>
      </trkpt>
      <trkpt lat="44.08188" lon="7.10645">
        <ele>565.205</ele>
        <time>2020-06-30T12:02:50Z</time>
      </trkpt>
      <trkpt lat="44.08185" lon="7.10646">
        <ele>565.428</ele>
        <time>2020-06-30T12:03:05Z</time>
      </trkpt>
      <trkpt lat="44.08186" lon="7.10647">
        <ele>564.286</ele>
        <time>2020-06-30T12:03:21Z</time>
      </trkpt>
      <trkpt lat="44.08187" lon="7.10649">
        <ele>564.353</ele>
        <time>2020-06-30T12:03:37Z</time>
      </trkpt>
      <trkpt lat="44.08187" lon="7.10649">
        <ele>564.353</ele>
        <time>2020-06-30T12:03:53Z</time>
      </trkpt>
      <trkpt lat="44.08188" lon="7.10649">
        <ele>563.874</ele>
        <time>2020-06-30T12:04:09Z</time>
      </trkpt>
      <trkpt lat="44.08199" lon="7.10665">
        <ele>561.303</ele>
        <time>2020-06-30T12:04:25Z</time>
      </trkpt>
      <trkpt lat="44.08197" lon="7.10665">
        <ele>561.24</ele>
        <time>2020-06-30T12:04:41Z</time>
      </trkpt>
      <trkpt lat="44.08196" lon="7.10664">
        <ele>561.661</ele>
        <time>2020-06-30T12:04:57Z</time>
      </trkpt>
      <trkpt lat="44.08196" lon="7.10664">
        <ele>561.661</ele>
        <time>2020-06-30T12:05:12Z</time>
      </trkpt>
      <trkpt lat="44.08196" lon="7.10664">
        <ele>561.661</ele>
        <time>2020-06-30T12:05:27Z</time>
      </trkpt>
      <trkpt lat="44.08196" lon="7.10664">
        <ele>561.661</ele>
        <time>2020-06-30T12:05:43Z</time>
      </trkpt>
      <trkpt lat="44.08196" lon="7.10664">
        <ele>561.661</ele>
        <time>2020-06-30T12:05:58Z</time>
      </trkpt>
      <trkpt lat="44.08191" lon="7.10663">
        <ele>561.278</ele>
        <time>2020-06-30T12:06:14Z</time>
      </trkpt>
      <trkpt lat="44.08191" lon="7.10663">
        <ele>561.278</ele>
        <time>2020-06-30T12:06:29Z</time>
      </trkpt>
      <trkpt lat="44.08191" lon="7.10663">
        <ele>561.278</ele>
        <time>2020-06-30T12:06:45Z</time>
      </trkpt>
      <trkpt lat="44.08191" lon="7.10663">
        <ele>561.278</ele>
        <time>2020-06-30T12:07:00Z</time>
      </trkpt>
      <trkpt lat="44.08192" lon="7.1066">
        <ele>561.903</ele>
        <time>2020-06-30T12:07:16Z</time>
      </trkpt>
      <trkpt lat="44.08192" lon="7.1066">
        <ele>561.903</ele>
        <time>2020-06-30T12:07:32Z</time>
      </trkpt>
      <trkpt lat="44.08192" lon="7.1066">
        <ele>561.903</ele>
        <time>2020-06-30T12:07:47Z</time>
      </trkpt>
      <trkpt lat="44.08192" lon="7.1066">
        <ele>561.903</ele>
        <time>2020-06-30T12:08:03Z</time>
      </trkpt>
      <trkpt lat="44.08192" lon="7.1066">
        <ele>561.903</ele>
        <time>2020-06-30T12:08:18Z</time>
      </trkpt>
      <trkpt lat="44.08192" lon="7.1066">
        <ele>561.903</ele>
        <time>2020-06-30T12:08:33Z</time>
      </trkpt>
      <trkpt lat="44.08192" lon="7.1066">
        <ele>561.903</ele>
        <time>2020-06-30T12:08:49Z</time>
      </trkpt>
      <trkpt lat="44.08192" lon="7.1066">
        <ele>561.903</ele>
        <time>2020-06-30T12:09:05Z</time>
      </trkpt>
      <trkpt lat="44.08192" lon="7.1066">
        <ele>561.903</ele>
        <time>2020-06-30T12:09:21Z</time>
      </trkpt>
      <trkpt lat="44.08192" lon="7.1066">
        <ele>561.903</ele>
        <time>2020-06-30T12:09:37Z</time>
      </trkpt>
      <trkpt lat="44.08192" lon="7.1066">
        <ele>561.903</ele>
        <time>2020-06-30T12:09:52Z</time>
      </trkpt>
      <trkpt lat="44.08192" lon="7.1066">
        <ele>561.903</ele>
        <time>2020-06-30T12:10:07Z</time>
      </trkpt>
      <trkpt lat="44.08189" lon="7.10662">
        <ele>559.697</ele>
        <time>2020-06-30T12:10:23Z</time>
      </trkpt>
      <trkpt lat="44.08189" lon="7.10662">
        <ele>560.509</ele>
        <time>2020-06-30T12:10:38Z</time>
      </trkpt>
      <trkpt lat="44.08188" lon="7.10662">
        <ele>557.491</ele>
        <time>2020-06-30T12:10:54Z</time>
      </trkpt>
      <trkpt lat="44.08188" lon="7.10662">
        <ele>557.491</ele>
        <time>2020-06-30T12:11:10Z</time>
      </trkpt>
      <trkpt lat="44.08188" lon="7.10662">
        <ele>557.491</ele>
        <time>2020-06-30T12:11:26Z</time>
      </trkpt>
      <trkpt lat="44.08189" lon="7.1066">
        <ele>558.096</ele>
        <time>2020-06-30T12:11:41Z</time>
      </trkpt>
      <trkpt lat="44.08189" lon="7.1066">
        <ele>558.096</ele>
        <time>2020-06-30T12:11:57Z</time>
      </trkpt>
      <trkpt lat="44.08189" lon="7.1066">
        <ele>558.096</ele>
        <time>2020-06-30T12:12:12Z</time>
      </trkpt>
      <trkpt lat="44.08188" lon="7.10663">
        <ele>559.041</ele>
        <time>2020-06-30T12:12:28Z</time>
      </trkpt>
      <trkpt lat="44.08188" lon="7.10664">
        <ele>559.391</ele>
        <time>2020-06-30T12:12:44Z</time>
      </trkpt>
      <trkpt lat="44.08188" lon="7.10664">
        <ele>559.391</ele>
        <time>2020-06-30T12:12:59Z</time>
      </trkpt>
      <trkpt lat="44.08188" lon="7.10664">
        <ele>559.391</ele>
        <time>2020-06-30T12:13:15Z</time>
      </trkpt>
      <trkpt lat="44.08188" lon="7.10664">
        <ele>559.391</ele>
        <time>2020-06-30T12:13:31Z</time>
      </trkpt>
      <trkpt lat="44.08188" lon="7.10664">
        <ele>559.391</ele>
        <time>2020-06-30T12:13:46Z</time>
      </trkpt>
      <trkpt lat="44.08188" lon="7.10664">
        <ele>559.391</ele>
        <time>2020-06-30T12:14:02Z</time>
      </trkpt>
      <trkpt lat="44.08187" lon="7.10662">
        <ele>559.549</ele>
        <time>2020-06-30T12:14:17Z</time>
      </trkpt>
      <trkpt lat="44.08186" lon="7.1066">
        <ele>560.377</ele>
        <time>2020-06-30T12:14:33Z</time>
      </trkpt>
      <trkpt lat="44.08186" lon="7.1066">
        <ele>560.377</ele>
        <time>2020-06-30T12:14:48Z</time>
      </trkpt>
      <trkpt lat="44.08186" lon="7.1066">
        <ele>560.377</ele>
        <time>2020-06-30T12:15:04Z</time>
      </trkpt>
      <trkpt lat="44.08181" lon="7.10655">
        <ele>560.964</ele>
        <time>2020-06-30T12:15:20Z</time>
      </trkpt>
      <trkpt lat="44.08181" lon="7.10655">
        <ele>560.964</ele>
        <time>2020-06-30T12:15:35Z</time>
      </trkpt>
      <trkpt lat="44.08186" lon="7.10664">
        <ele>561.125</ele>
        <time>2020-06-30T12:15:51Z</time>
      </trkpt>
      <trkpt lat="44.08186" lon="7.10664">
        <ele>561.125</ele>
        <time>2020-06-30T12:16:07Z</time>
      </trkpt>
      <trkpt lat="44.08193" lon="7.10695">
        <ele>561.642</ele>
        <time>2020-06-30T12:16:22Z</time>
      </trkpt>
      <trkpt lat="44.08193" lon="7.10695">
        <ele>561.642</ele>
        <time>2020-06-30T12:16:38Z</time>
      </trkpt>
      <trkpt lat="44.08193" lon="7.10695">
        <ele>561.642</ele>
        <time>2020-06-30T12:16:53Z</time>
      </trkpt>
      <trkpt lat="44.08193" lon="7.10695">
        <ele>561.642</ele>
        <time>2020-06-30T12:17:08Z</time>
      </trkpt>
      <trkpt lat="44.08191" lon="7.10682">
        <ele>566.898</ele>
        <time>2020-06-30T12:17:24Z</time>
      </trkpt>
      <trkpt lat="44.08191" lon="7.10682">
        <ele>566.898</ele>
        <time>2020-06-30T12:17:40Z</time>
      </trkpt>
      <trkpt lat="44.08191" lon="7.10682">
        <ele>566.898</ele>
        <time>2020-06-30T12:17:55Z</time>
      </trkpt>
      <trkpt lat="44.08191" lon="7.10682">
        <ele>566.898</ele>
        <time>2020-06-30T12:18:11Z</time>
      </trkpt>
      <trkpt lat="44.0818" lon="7.1066">
        <ele>555.646</ele>
        <time>2020-06-30T12:18:26Z</time>
      </trkpt>
      <trkpt lat="44.0818" lon="7.1066">
        <ele>555.646</ele>
        <time>2020-06-30T12:18:42Z</time>
      </trkpt>
      <trkpt lat="44.0818" lon="7.1066">
        <ele>555.646</ele>
        <time>2020-06-30T12:18:58Z</time>
      </trkpt>
      <trkpt lat="44.08181" lon="7.10662">
        <ele>555.214</ele>
        <time>2020-06-30T12:19:13Z</time>
      </trkpt>
      <trkpt lat="44.08182" lon="7.10663">
        <ele>555.522</ele>
        <time>2020-06-30T12:19:28Z</time>
      </trkpt>
      <trkpt lat="44.08182" lon="7.10663">
        <ele>555.522</ele>
        <time>2020-06-30T12:19:43Z</time>
      </trkpt>
      <trkpt lat="44.08182" lon="7.10663">
        <ele>555.522</ele>
        <time>2020-06-30T12:19:59Z</time>
      </trkpt>
      <trkpt lat="44.08182" lon="7.10663">
        <ele>555.522</ele>
        <time>2020-06-30T12:20:15Z</time>
      </trkpt>
      <trkpt lat="44.08182" lon="7.10663">
        <ele>555.522</ele>
        <time>2020-06-30T12:20:31Z</time>
      </trkpt>
      <trkpt lat="44.08182" lon="7.10663">
        <ele>555.522</ele>
        <time>2020-06-30T12:20:46Z</time>
      </trkpt>
      <trkpt lat="44.08182" lon="7.10663">
        <ele>555.522</ele>
        <time>2020-06-30T12:21:02Z</time>
      </trkpt>
      <trkpt lat="44.08182" lon="7.10663">
        <ele>555.522</ele>
        <time>2020-06-30T12:21:18Z</time>
      </trkpt>
      <trkpt lat="44.08182" lon="7.10663">
        <ele>555.522</ele>
        <time>2020-06-30T12:21:34Z</time>
      </trkpt>
      <trkpt lat="44.08182" lon="7.10663">
        <ele>555.522</ele>
        <time>2020-06-30T12:21:49Z</time>
      </trkpt>
      <trkpt lat="44.08182" lon="7.10663">
        <ele>555.522</ele>
        <time>2020-06-30T12:22:04Z</time>
      </trkpt>
      <trkpt lat="44.08182" lon="7.10663">
        <ele>555.522</ele>
        <time>2020-06-30T12:22:20Z</time>
      </trkpt>
      <trkpt lat="44.08182" lon="7.10663">
        <ele>555.522</ele>
        <time>2020-06-30T12:22:36Z</time>
      </trkpt>
      <trkpt lat="44.08182" lon="7.10663">
        <ele>555.522</ele>
        <time>2020-06-30T12:22:51Z</time>
      </trkpt>
      <trkpt lat="44.08182" lon="7.10663">
        <ele>555.522</ele>
        <time>2020-06-30T12:23:07Z</time>
      </trkpt>
      <trkpt lat="44.08182" lon="7.10663">
        <ele>555.522</ele>
        <time>2020-06-30T12:23:23Z</time>
      </trkpt>
      <trkpt lat="44.08182" lon="7.10663">
        <ele>555.522</ele>
        <time>2020-06-30T12:23:38Z</time>
      </trkpt>
      <trkpt lat="44.08182" lon="7.10663">
        <ele>555.522</ele>
        <time>2020-06-30T12:23:53Z</time>
      </trkpt>
      <trkpt lat="44.08184" lon="7.10661">
        <ele>557.345</ele>
        <time>2020-06-30T12:24:09Z</time>
      </trkpt>
      <trkpt lat="44.08185" lon="7.10664">
        <ele>556.237</ele>
        <time>2020-06-30T12:24:24Z</time>
      </trkpt>
      <trkpt lat="44.08185" lon="7.10664">
        <ele>556.237</ele>
        <time>2020-06-30T12:24:40Z</time>
      </trkpt>
      <trkpt lat="44.08185" lon="7.10664">
        <ele>556.237</ele>
        <time>2020-06-30T12:24:56Z</time>
      </trkpt>
      <trkpt lat="44.08185" lon="7.10664">
        <ele>556.237</ele>
        <time>2020-06-30T12:25:11Z</time>
      </trkpt>
      <trkpt lat="44.08185" lon="7.10664">
        <ele>556.237</ele>
        <time>2020-06-30T12:25:27Z</time>
      </trkpt>
      <trkpt lat="44.08185" lon="7.10664">
        <ele>556.237</ele>
        <time>2020-06-30T12:25:43Z</time>
      </trkpt>
      <trkpt lat="44.08185" lon="7.10664">
        <ele>556.237</ele>
        <time>2020-06-30T12:25:59Z</time>
      </trkpt>
      <trkpt lat="44.08185" lon="7.10664">
        <ele>556.237</ele>
        <time>2020-06-30T12:26:15Z</time>
      </trkpt>
      <trkpt lat="44.08185" lon="7.10664">
        <ele>556.237</ele>
        <time>2020-06-30T12:26:30Z</time>
      </trkpt>
      <trkpt lat="44.08185" lon="7.10664">
        <ele>556.237</ele>
        <time>2020-06-30T12:26:45Z</time>
      </trkpt>
      <trkpt lat="44.08184" lon="7.10665">
        <ele>554.54</ele>
        <time>2020-06-30T12:27:00Z</time>
      </trkpt>
      <trkpt lat="44.08182" lon="7.10665">
        <ele>551.813</ele>
        <time>2020-06-30T12:27:15Z</time>
      </trkpt>
      <trkpt lat="44.08181" lon="7.10662">
        <ele>549.445</ele>
        <time>2020-06-30T12:27:31Z</time>
      </trkpt>
      <trkpt lat="44.08181" lon="7.10662">
        <ele>549.445</ele>
        <time>2020-06-30T12:27:46Z</time>
      </trkpt>
      <trkpt lat="44.08181" lon="7.10662">
        <ele>549.445</ele>
        <time>2020-06-30T12:28:02Z</time>
      </trkpt>
      <trkpt lat="44.08172" lon="7.10644">
        <ele>549.564</ele>
        <time>2020-06-30T12:29:35Z</time>
      </trkpt>
      <trkpt lat="44.08186" lon="7.10656">
        <ele>601.596</ele>
        <time>2020-06-30T12:29:51Z</time>
      </trkpt>
      <trkpt lat="44.08186" lon="7.10656">
        <ele>601.596</ele>
        <time>2020-06-30T12:30:06Z</time>
      </trkpt>
      <trkpt lat="44.08188" lon="7.10655">
        <ele>594.105</ele>
        <time>2020-06-30T12:30:22Z</time>
      </trkpt>
      <trkpt lat="44.08188" lon="7.10655">
        <ele>594.105</ele>
        <time>2020-06-30T12:30:37Z</time>
      </trkpt>
      <trkpt lat="44.08188" lon="7.10655">
        <ele>594.105</ele>
        <time>2020-06-30T12:30:53Z</time>
      </trkpt>
      <trkpt lat="44.08188" lon="7.10655">
        <ele>594.105</ele>
        <time>2020-06-30T12:31:09Z</time>
      </trkpt>
      <trkpt lat="44.08188" lon="7.10655">
        <ele>594.105</ele>
        <time>2020-06-30T12:31:24Z</time>
      </trkpt>
      <trkpt lat="44.08188" lon="7.10655">
        <ele>594.105</ele>
        <time>2020-06-30T12:31:40Z</time>
      </trkpt>
      <trkpt lat="44.08188" lon="7.10655">
        <ele>594.105</ele>
        <time>2020-06-30T12:31:56Z</time>
      </trkpt>
      <trkpt lat="44.08188" lon="7.10655">
        <ele>594.105</ele>
        <time>2020-06-30T12:32:12Z</time>
      </trkpt>
      <trkpt lat="44.08187" lon="7.10655">
        <ele>589.756</ele>
        <time>2020-06-30T12:32:28Z</time>
      </trkpt>
      <trkpt lat="44.08187" lon="7.10655">
        <ele>589.756</ele>
        <time>2020-06-30T12:32:44Z</time>
      </trkpt>
      <trkpt lat="44.08187" lon="7.10655">
        <ele>589.756</ele>
        <time>2020-06-30T12:32:59Z</time>
      </trkpt>
      <trkpt lat="44.08187" lon="7.10655">
        <ele>589.756</ele>
        <time>2020-06-30T12:33:15Z</time>
      </trkpt>
      <trkpt lat="44.08186" lon="7.10646">
        <ele>580.034</ele>
        <time>2020-06-30T12:33:31Z</time>
      </trkpt>
      <trkpt lat="44.08186" lon="7.10646">
        <ele>579.558</ele>
        <time>2020-06-30T12:33:47Z</time>
      </trkpt>
      <trkpt lat="44.08186" lon="7.10647">
        <ele>578.934</ele>
        <time>2020-06-30T12:34:03Z</time>
      </trkpt>
      <trkpt lat="44.08187" lon="7.1065">
        <ele>578.735</ele>
        <time>2020-06-30T12:34:19Z</time>
      </trkpt>
      <trkpt lat="44.08194" lon="7.1063">
        <ele>564.16</ele>
        <time>2020-06-30T12:34:35Z</time>
      </trkpt>
      <trkpt lat="44.08212" lon="7.10619">
        <ele>552.628</ele>
        <time>2020-06-30T12:34:50Z</time>
      </trkpt>
      <trkpt lat="44.0823" lon="7.10608">
        <ele>545.394</ele>
        <time>2020-06-30T12:35:06Z</time>
      </trkpt>
      <trkpt lat="44.08245" lon="7.10598">
        <ele>539.951</ele>
        <time>2020-06-30T12:35:21Z</time>
      </trkpt>
      <trkpt lat="44.08259" lon="7.10582">
        <ele>540.948</ele>
        <time>2020-06-30T12:35:37Z</time>
      </trkpt>
      <trkpt lat="44.08271" lon="7.10565">
        <ele>542.401</ele>
        <time>2020-06-30T12:35:53Z</time>
      </trkpt>
      <trkpt lat="44.08283" lon="7.10553">
        <ele>543.701</ele>
        <time>2020-06-30T12:36:08Z</time>
      </trkpt>
      <trkpt lat="44.08303" lon="7.10542">
        <ele>544.07</ele>
        <time>2020-06-30T12:36:24Z</time>
      </trkpt>
      <trkpt lat="44.08319" lon="7.10532">
        <ele>545.524</ele>
        <time>2020-06-30T12:36:39Z</time>
      </trkpt>
      <trkpt lat="44.08333" lon="7.10527">
        <ele>547.847</ele>
        <time>2020-06-30T12:36:55Z</time>
      </trkpt>
      <trkpt lat="44.08345" lon="7.10534">
        <ele>552.684</ele>
        <time>2020-06-30T12:37:11Z</time>
      </trkpt>
      <trkpt lat="44.08352" lon="7.10537">
        <ele>554.307</ele>
        <time>2020-06-30T12:37:26Z</time>
      </trkpt>
      <trkpt lat="44.08355" lon="7.10537">
        <ele>554.477</ele>
        <time>2020-06-30T12:37:42Z</time>
      </trkpt>
      <trkpt lat="44.08355" lon="7.10537">
        <ele>554.477</ele>
        <time>2020-06-30T12:37:58Z</time>
      </trkpt>
      <trkpt lat="44.0835" lon="7.10539">
        <ele>557.579</ele>
        <time>2020-06-30T12:38:14Z</time>
      </trkpt>
      <trkpt lat="44.08323" lon="7.10552">
        <ele>548.302</ele>
        <time>2020-06-30T12:38:46Z</time>
      </trkpt>
      <trkpt lat="44.08354" lon="7.1055">
        <ele>552.395</ele>
        <time>2020-06-30T12:39:02Z</time>
      </trkpt>
      <trkpt lat="44.08355" lon="7.10549">
        <ele>557.893</ele>
        <time>2020-06-30T12:39:18Z</time>
      </trkpt>
      <trkpt lat="44.08356" lon="7.10555">
        <ele>562.327</ele>
        <time>2020-06-30T12:39:34Z</time>
      </trkpt>
      <trkpt lat="44.08362" lon="7.10562">
        <ele>565.672</ele>
        <time>2020-06-30T12:39:49Z</time>
      </trkpt>
      <trkpt lat="44.0837" lon="7.10563">
        <ele>561.841</ele>
        <time>2020-06-30T12:40:04Z</time>
      </trkpt>
      <trkpt lat="44.0837" lon="7.10563">
        <ele>561.841</ele>
        <time>2020-06-30T12:40:20Z</time>
      </trkpt>
      <trkpt lat="44.0837" lon="7.10563">
        <ele>561.841</ele>
        <time>2020-06-30T12:40:35Z</time>
      </trkpt>
      <trkpt lat="44.08374" lon="7.10563">
        <ele>561.559</ele>
        <time>2020-06-30T12:40:51Z</time>
      </trkpt>
      <trkpt lat="44.08374" lon="7.10563">
        <ele>561.559</ele>
        <time>2020-06-30T12:41:06Z</time>
      </trkpt>
      <trkpt lat="44.08374" lon="7.10563">
        <ele>561.559</ele>
        <time>2020-06-30T12:41:22Z</time>
      </trkpt>
      <trkpt lat="44.08371" lon="7.10554">
        <ele>560.095</ele>
        <time>2020-06-30T12:41:37Z</time>
      </trkpt>
      <trkpt lat="44.08372" lon="7.10552">
        <ele>557.94</ele>
        <time>2020-06-30T12:41:53Z</time>
      </trkpt>
      <trkpt lat="44.0835" lon="7.10559">
        <ele>558.464</ele>
        <time>2020-06-30T12:42:09Z</time>
      </trkpt>
      <trkpt lat="44.08351" lon="7.10556">
        <ele>558.006</ele>
        <time>2020-06-30T12:42:24Z</time>
      </trkpt>
      <trkpt lat="44.08351" lon="7.10556">
        <ele>558.006</ele>
        <time>2020-06-30T12:42:40Z</time>
      </trkpt>
      <trkpt lat="44.08356" lon="7.10562">
        <ele>558.018</ele>
        <time>2020-06-30T12:42:55Z</time>
      </trkpt>
      <trkpt lat="44.08361" lon="7.10561">
        <ele>557.626</ele>
        <time>2020-06-30T12:43:10Z</time>
      </trkpt>
      <trkpt lat="44.08355" lon="7.10541">
        <ele>554.587</ele>
        <time>2020-06-30T12:43:25Z</time>
      </trkpt>
      <trkpt lat="44.08355" lon="7.10541">
        <ele>554.587</ele>
        <time>2020-06-30T12:43:41Z</time>
      </trkpt>
      <trkpt lat="44.08355" lon="7.10541">
        <ele>554.587</ele>
        <time>2020-06-30T12:43:57Z</time>
      </trkpt>
      <trkpt lat="44.08356" lon="7.10556">
        <ele>554.895</ele>
        <time>2020-06-30T12:44:13Z</time>
      </trkpt>
      <trkpt lat="44.08365" lon="7.10545">
        <ele>554.84</ele>
        <time>2020-06-30T12:44:29Z</time>
      </trkpt>
      <trkpt lat="44.08353" lon="7.10548">
        <ele>552.987</ele>
        <time>2020-06-30T12:44:45Z</time>
      </trkpt>
      <trkpt lat="44.08353" lon="7.10548">
        <ele>552.987</ele>
        <time>2020-06-30T12:45:00Z</time>
      </trkpt>
      <trkpt lat="44.08353" lon="7.10548">
        <ele>552.987</ele>
        <time>2020-06-30T12:45:15Z</time>
      </trkpt>
      <trkpt lat="44.08353" lon="7.10548">
        <ele>552.987</ele>
        <time>2020-06-30T12:45:31Z</time>
      </trkpt>
      <trkpt lat="44.08353" lon="7.10548">
        <ele>552.987</ele>
        <time>2020-06-30T12:45:47Z</time>
      </trkpt>
      <trkpt lat="44.08353" lon="7.10548">
        <ele>552.987</ele>
        <time>2020-06-30T12:46:02Z</time>
      </trkpt>
      <trkpt lat="44.08354" lon="7.10541">
        <ele>554.891</ele>
        <time>2020-06-30T12:46:17Z</time>
      </trkpt>
      <trkpt lat="44.08354" lon="7.10541">
        <ele>554.891</ele>
        <time>2020-06-30T12:46:32Z</time>
      </trkpt>
      <trkpt lat="44.08354" lon="7.10541">
        <ele>554.891</ele>
        <time>2020-06-30T12:46:48Z</time>
      </trkpt>
      <trkpt lat="44.08354" lon="7.10541">
        <ele>554.891</ele>
        <time>2020-06-30T12:47:03Z</time>
      </trkpt>
      <trkpt lat="44.08354" lon="7.10541">
        <ele>554.891</ele>
        <time>2020-06-30T12:47:19Z</time>
      </trkpt>
      <trkpt lat="44.08354" lon="7.10541">
        <ele>554.891</ele>
        <time>2020-06-30T12:47:35Z</time>
      </trkpt>
      <trkpt lat="44.08354" lon="7.10541">
        <ele>554.891</ele>
        <time>2020-06-30T12:47:50Z</time>
      </trkpt>
      <trkpt lat="44.08354" lon="7.10541">
        <ele>554.891</ele>
        <time>2020-06-30T12:48:06Z</time>
      </trkpt>
      <trkpt lat="44.08418" lon="7.10575">
        <ele>545.454</ele>
        <time>2020-06-30T12:54:28Z</time>
      </trkpt>
      <trkpt lat="44.08371" lon="7.10557">
        <ele>555.987</ele>
        <time>2020-06-30T12:54:44Z</time>
      </trkpt>
      <trkpt lat="44.08367" lon="7.10562">
        <ele>542.64</ele>
        <time>2020-06-30T12:54:59Z</time>
      </trkpt>
      <trkpt lat="44.08354" lon="7.10549">
        <ele>534.349</ele>
        <time>2020-06-30T12:55:15Z</time>
      </trkpt>
      <trkpt lat="44.08351" lon="7.1055">
        <ele>536.655</ele>
        <time>2020-06-30T12:55:30Z</time>
      </trkpt>
      <trkpt lat="44.08366" lon="7.10551">
        <ele>543.135</ele>
        <time>2020-06-30T12:55:46Z</time>
      </trkpt>
      <trkpt lat="44.08366" lon="7.10551">
        <ele>543.135</ele>
        <time>2020-06-30T12:56:01Z</time>
      </trkpt>
      <trkpt lat="44.08366" lon="7.10551">
        <ele>543.135</ele>
        <time>2020-06-30T12:56:17Z</time>
      </trkpt>
      <trkpt lat="44.08366" lon="7.10551">
        <ele>543.135</ele>
        <time>2020-06-30T12:56:33Z</time>
      </trkpt>
      <trkpt lat="44.08366" lon="7.10551">
        <ele>543.135</ele>
        <time>2020-06-30T12:56:48Z</time>
      </trkpt>
      <trkpt lat="44.08366" lon="7.10551">
        <ele>543.135</ele>
        <time>2020-06-30T12:57:04Z</time>
      </trkpt>
      <trkpt lat="44.08366" lon="7.10551">
        <ele>543.135</ele>
        <time>2020-06-30T12:57:20Z</time>
      </trkpt>
      <trkpt lat="44.08366" lon="7.10551">
        <ele>543.135</ele>
        <time>2020-06-30T12:57:36Z</time>
      </trkpt>
      <trkpt lat="44.08366" lon="7.10551">
        <ele>543.135</ele>
        <time>2020-06-30T12:57:52Z</time>
      </trkpt>
      <trkpt lat="44.08366" lon="7.10551">
        <ele>543.135</ele>
        <time>2020-06-30T12:58:07Z</time>
      </trkpt>
      <trkpt lat="44.08366" lon="7.10551">
        <ele>543.135</ele>
        <time>2020-06-30T12:58:22Z</time>
      </trkpt>
      <trkpt lat="44.0836" lon="7.10558">
        <ele>543.433</ele>
        <time>2020-06-30T12:58:38Z</time>
      </trkpt>
      <trkpt lat="44.0836" lon="7.10558">
        <ele>543.433</ele>
        <time>2020-06-30T12:58:53Z</time>
      </trkpt>
      <trkpt lat="44.08357" lon="7.10556">
        <ele>545.71</ele>
        <time>2020-06-30T12:59:09Z</time>
      </trkpt>
      <trkpt lat="44.08357" lon="7.10556">
        <ele>545.71</ele>
        <time>2020-06-30T12:59:25Z</time>
      </trkpt>
      <trkpt lat="44.08357" lon="7.10556">
        <ele>545.71</ele>
        <time>2020-06-30T12:59:41Z</time>
      </trkpt>
      <trkpt lat="44.08357" lon="7.10556">
        <ele>545.71</ele>
        <time>2020-06-30T12:59:57Z</time>
      </trkpt>
      <trkpt lat="44.08357" lon="7.10556">
        <ele>545.71</ele>
        <time>2020-06-30T13:00:12Z</time>
      </trkpt>
      <trkpt lat="44.08357" lon="7.10556">
        <ele>545.71</ele>
        <time>2020-06-30T13:00:27Z</time>
      </trkpt>
      <trkpt lat="44.08357" lon="7.10556">
        <ele>545.71</ele>
        <time>2020-06-30T13:00:43Z</time>
      </trkpt>
      <trkpt lat="44.08357" lon="7.10556">
        <ele>545.71</ele>
        <time>2020-06-30T13:00:59Z</time>
      </trkpt>
      <trkpt lat="44.08357" lon="7.10556">
        <ele>545.71</ele>
        <time>2020-06-30T13:01:15Z</time>
      </trkpt>
      <trkpt lat="44.08357" lon="7.10556">
        <ele>545.71</ele>
        <time>2020-06-30T13:01:31Z</time>
      </trkpt>
      <trkpt lat="44.08357" lon="7.10556">
        <ele>545.71</ele>
        <time>2020-06-30T13:01:46Z</time>
      </trkpt>
      <trkpt lat="44.08358" lon="7.10557">
        <ele>546.037</ele>
        <time>2020-06-30T13:02:02Z</time>
      </trkpt>
      <trkpt lat="44.08375" lon="7.10546">
        <ele>547.804</ele>
        <time>2020-06-30T13:02:17Z</time>
      </trkpt>
      <trkpt lat="44.08387" lon="7.10528">
        <ele>551.701</ele>
        <time>2020-06-30T13:02:32Z</time>
      </trkpt>
      <trkpt lat="44.08398" lon="7.1051">
        <ele>552.213</ele>
        <time>2020-06-30T13:02:48Z</time>
      </trkpt>
      <trkpt lat="44.08373" lon="7.10554">
        <ele>552.544</ele>
        <time>2020-06-30T13:03:03Z</time>
      </trkpt>
      <trkpt lat="44.08354" lon="7.10564">
        <ele>554.131</ele>
        <time>2020-06-30T13:03:19Z</time>
      </trkpt>
      <trkpt lat="44.08347" lon="7.10576">
        <ele>555.405</ele>
        <time>2020-06-30T13:03:34Z</time>
      </trkpt>
      <trkpt lat="44.08363" lon="7.10553">
        <ele>557.661</ele>
        <time>2020-06-30T13:03:50Z</time>
      </trkpt>
      <trkpt lat="44.08369" lon="7.10557">
        <ele>558.155</ele>
        <time>2020-06-30T13:04:05Z</time>
      </trkpt>
      <trkpt lat="44.08375" lon="7.10553">
        <ele>558.839</ele>
        <time>2020-06-30T13:04:21Z</time>
      </trkpt>
      <trkpt lat="44.08358" lon="7.10561">
        <ele>560.563</ele>
        <time>2020-06-30T13:04:37Z</time>
      </trkpt>
      <trkpt lat="44.08365" lon="7.10556">
        <ele>560.825</ele>
        <time>2020-06-30T13:04:52Z</time>
      </trkpt>
      <trkpt lat="44.08365" lon="7.10556">
        <ele>560.825</ele>
        <time>2020-06-30T13:05:08Z</time>
      </trkpt>
      <trkpt lat="44.08363" lon="7.1055">
        <ele>556.759</ele>
        <time>2020-06-30T13:05:24Z</time>
      </trkpt>
      <trkpt lat="44.08358" lon="7.10546">
        <ele>556.646</ele>
        <time>2020-06-30T13:05:40Z</time>
      </trkpt>
      <trkpt lat="44.08348" lon="7.10548">
        <ele>556.666</ele>
        <time>2020-06-30T13:05:56Z</time>
      </trkpt>
      <trkpt lat="44.08351" lon="7.10553">
        <ele>557.441</ele>
        <time>2020-06-30T13:06:11Z</time>
      </trkpt>
      <trkpt lat="44.08351" lon="7.10553">
        <ele>557.441</ele>
        <time>2020-06-30T13:06:27Z</time>
      </trkpt>
      <trkpt lat="44.08351" lon="7.10553">
        <ele>557.441</ele>
        <time>2020-06-30T13:06:43Z</time>
      </trkpt>
      <trkpt lat="44.08351" lon="7.10553">
        <ele>557.441</ele>
        <time>2020-06-30T13:06:58Z</time>
      </trkpt>
      <trkpt lat="44.08367" lon="7.1054">
        <ele>556.673</ele>
        <time>2020-06-30T13:07:14Z</time>
      </trkpt>
      <trkpt lat="44.08365" lon="7.10543">
        <ele>557.074</ele>
        <time>2020-06-30T13:07:30Z</time>
      </trkpt>
      <trkpt lat="44.08363" lon="7.10548">
        <ele>559.26</ele>
        <time>2020-06-30T13:07:45Z</time>
      </trkpt>
      <trkpt lat="44.08364" lon="7.10536">
        <ele>559.49</ele>
        <time>2020-06-30T13:08:01Z</time>
      </trkpt>
      <trkpt lat="44.08364" lon="7.10539">
        <ele>559.777</ele>
        <time>2020-06-30T13:08:17Z</time>
      </trkpt>
      <trkpt lat="44.08364" lon="7.10543">
        <ele>560.197</ele>
        <time>2020-06-30T13:08:33Z</time>
      </trkpt>
      <trkpt lat="44.08365" lon="7.10563">
        <ele>560.526</ele>
        <time>2020-06-30T13:08:54Z</time>
      </trkpt>
      <trkpt lat="44.08363" lon="7.10547">
        <ele>566.985</ele>
        <time>2020-06-30T13:09:09Z</time>
      </trkpt>
      <trkpt lat="44.08397" lon="7.10542">
        <ele>564.945</ele>
        <time>2020-06-30T13:09:25Z</time>
      </trkpt>
      <trkpt lat="44.08363" lon="7.10541">
        <ele>554.006</ele>
        <time>2020-06-30T13:09:40Z</time>
      </trkpt>
      <trkpt lat="44.08364" lon="7.10563">
        <ele>551.77</ele>
        <time>2020-06-30T13:09:55Z</time>
      </trkpt>
      <trkpt lat="44.08348" lon="7.1057">
        <ele>550.99</ele>
        <time>2020-06-30T13:10:10Z</time>
      </trkpt>
      <trkpt lat="44.08345" lon="7.10552">
        <ele>555.606</ele>
        <time>2020-06-30T13:10:26Z</time>
      </trkpt>
      <trkpt lat="44.08341" lon="7.10541">
        <ele>554.311</ele>
        <time>2020-06-30T13:10:41Z</time>
      </trkpt>
      <trkpt lat="44.08349" lon="7.10538">
        <ele>554.26</ele>
        <time>2020-06-30T13:10:56Z</time>
      </trkpt>
      <trkpt lat="44.08373" lon="7.10566">
        <ele>553.151</ele>
        <time>2020-06-30T13:11:12Z</time>
      </trkpt>
      <trkpt lat="44.0836" lon="7.10566">
        <ele>558.049</ele>
        <time>2020-06-30T13:11:27Z</time>
      </trkpt>
      <trkpt lat="44.08355" lon="7.10559">
        <ele>551.778</ele>
        <time>2020-06-30T13:11:43Z</time>
      </trkpt>
      <trkpt lat="44.08364" lon="7.10556">
        <ele>553.809</ele>
        <time>2020-06-30T13:11:58Z</time>
      </trkpt>
      <trkpt lat="44.08375" lon="7.10539">
        <ele>552.663</ele>
        <time>2020-06-30T13:12:14Z</time>
      </trkpt>
      <trkpt lat="44.08376" lon="7.10552">
        <ele>550.333</ele>
        <time>2020-06-30T13:12:30Z</time>
      </trkpt>
      <trkpt lat="44.08369" lon="7.1054">
        <ele>549.753</ele>
        <time>2020-06-30T13:12:46Z</time>
      </trkpt>
      <trkpt lat="44.08367" lon="7.10566">
        <ele>547.302</ele>
        <time>2020-06-30T13:13:01Z</time>
      </trkpt>
      <trkpt lat="44.0836" lon="7.10571">
        <ele>542.368</ele>
        <time>2020-06-30T13:13:17Z</time>
      </trkpt>
      <trkpt lat="44.08344" lon="7.1056">
        <ele>545.629</ele>
        <time>2020-06-30T13:13:32Z</time>
      </trkpt>
      <trkpt lat="44.08346" lon="7.10553">
        <ele>550.625</ele>
        <time>2020-06-30T13:13:47Z</time>
      </trkpt>
      <trkpt lat="44.08332" lon="7.10558">
        <ele>551.655</ele>
        <time>2020-06-30T13:14:03Z</time>
      </trkpt>
      <trkpt lat="44.08322" lon="7.10575">
        <ele>558.893</ele>
        <time>2020-06-30T13:14:19Z</time>
      </trkpt>
      <trkpt lat="44.08322" lon="7.10569">
        <ele>561.499</ele>
        <time>2020-06-30T13:14:35Z</time>
      </trkpt>
      <trkpt lat="44.08322" lon="7.10567">
        <ele>565.852</ele>
        <time>2020-06-30T13:14:50Z</time>
      </trkpt>
      <trkpt lat="44.08313" lon="7.10576">
        <ele>571.222</ele>
        <time>2020-06-30T13:15:06Z</time>
      </trkpt>
      <trkpt lat="44.08312" lon="7.10589">
        <ele>565.438</ele>
        <time>2020-06-30T13:15:21Z</time>
      </trkpt>
      <trkpt lat="44.08293" lon="7.10584">
        <ele>562.227</ele>
        <time>2020-06-30T13:15:37Z</time>
      </trkpt>
      <trkpt lat="44.08297" lon="7.10569">
        <ele>560.034</ele>
        <time>2020-06-30T13:15:52Z</time>
      </trkpt>
      <trkpt lat="44.08277" lon="7.10563">
        <ele>558.973</ele>
        <time>2020-06-30T13:16:08Z</time>
      </trkpt>
      <trkpt lat="44.08274" lon="7.10565">
        <ele>559.787</ele>
        <time>2020-06-30T13:16:24Z</time>
      </trkpt>
      <trkpt lat="44.08274" lon="7.10565">
        <ele>559.787</ele>
        <time>2020-06-30T13:16:40Z</time>
      </trkpt>
      <trkpt lat="44.08264" lon="7.10568">
        <ele>565.114</ele>
        <time>2020-06-30T13:16:55Z</time>
      </trkpt>
      <trkpt lat="44.08258" lon="7.10584">
        <ele>570.09</ele>
        <time>2020-06-30T13:17:11Z</time>
      </trkpt>
      <trkpt lat="44.08255" lon="7.10593">
        <ele>569.013</ele>
        <time>2020-06-30T13:17:27Z</time>
      </trkpt>
      <trkpt lat="44.08234" lon="7.10609">
        <ele>567.568</ele>
        <time>2020-06-30T13:17:42Z</time>
      </trkpt>
      <trkpt lat="44.08208" lon="7.10618">
        <ele>563.151</ele>
        <time>2020-06-30T13:17:57Z</time>
      </trkpt>
      <trkpt lat="44.08206" lon="7.1062">
        <ele>561.981</ele>
        <time>2020-06-30T13:18:13Z</time>
      </trkpt>
      <trkpt lat="44.08189" lon="7.10629">
        <ele>566.67</ele>
        <time>2020-06-30T13:18:28Z</time>
      </trkpt>
      <trkpt lat="44.08183" lon="7.10647">
        <ele>566.702</ele>
        <time>2020-06-30T13:18:44Z</time>
      </trkpt>
      <trkpt lat="44.08184" lon="7.10645">
        <ele>566.611</ele>
        <time>2020-06-30T13:19:00Z</time>
      </trkpt>
      <trkpt lat="44.08174" lon="7.10646">
        <ele>566.822</ele>
        <time>2020-06-30T13:19:15Z</time>
      </trkpt>
      <trkpt lat="44.08179" lon="7.10647">
        <ele>567.486</ele>
        <time>2020-06-30T13:19:31Z</time>
      </trkpt>
      <trkpt lat="44.08179" lon="7.10651">
        <ele>567.638</ele>
        <time>2020-06-30T13:19:47Z</time>
      </trkpt>
      <trkpt lat="44.0818" lon="7.10645">
        <ele>564.617</ele>
        <time>2020-06-30T13:20:03Z</time>
      </trkpt>
      <trkpt lat="44.08175" lon="7.10642">
        <ele>567.533</ele>
        <time>2020-06-30T13:20:19Z</time>
      </trkpt>
      <trkpt lat="44.08184" lon="7.10651">
        <ele>567.689</ele>
        <time>2020-06-30T13:20:34Z</time>
      </trkpt>
      <trkpt lat="44.08183" lon="7.10654">
        <ele>569.68</ele>
        <time>2020-06-30T13:20:50Z</time>
      </trkpt>
      <trkpt lat="44.08162" lon="7.10595">
        <ele>562.702</ele>
        <time>2020-06-30T13:22:47Z</time>
      </trkpt>
      <trkpt lat="44.08139" lon="7.10602">
        <ele>636.367</ele>
        <time>2020-06-30T13:23:03Z</time>
      </trkpt>
      <trkpt lat="44.08134" lon="7.10595">
        <ele>673.527</ele>
        <time>2020-06-30T13:23:18Z</time>
      </trkpt>
      <trkpt lat="44.08157" lon="7.10616">
        <ele>643.156</ele>
        <time>2020-06-30T13:23:34Z</time>
      </trkpt>
      <trkpt lat="44.08184" lon="7.10666">
        <ele>555.337</ele>
        <time>2020-06-30T13:23:49Z</time>
      </trkpt>
      <trkpt lat="44.08171" lon="7.10651">
        <ele>558.248</ele>
        <time>2020-06-30T13:24:04Z</time>
      </trkpt>
      <trkpt lat="44.08169" lon="7.10627">
        <ele>591.457</ele>
        <time>2020-06-30T13:24:20Z</time>
      </trkpt>
      <trkpt lat="44.08168" lon="7.10627">
        <ele>593.663</ele>
        <time>2020-06-30T13:24:35Z</time>
      </trkpt>
      <trkpt lat="44.08173" lon="7.10624">
        <ele>597.3</ele>
        <time>2020-06-30T13:24:51Z</time>
      </trkpt>
      <trkpt lat="44.08174" lon="7.10627">
        <ele>590.787</ele>
        <time>2020-06-30T13:25:07Z</time>
      </trkpt>
      <trkpt lat="44.08179" lon="7.10635">
        <ele>588.521</ele>
        <time>2020-06-30T13:25:23Z</time>
      </trkpt>
      <trkpt lat="44.08187" lon="7.10648">
        <ele>575.265</ele>
        <time>2020-06-30T13:25:39Z</time>
      </trkpt>
      <trkpt lat="44.08187" lon="7.10646">
        <ele>565.461</ele>
        <time>2020-06-30T13:25:55Z</time>
      </trkpt>
      <trkpt lat="44.08187" lon="7.10646">
        <ele>570.259</ele>
        <time>2020-06-30T13:26:10Z</time>
      </trkpt>
      <trkpt lat="44.08186" lon="7.10646">
        <ele>565.882</ele>
        <time>2020-06-30T13:26:25Z</time>
      </trkpt>
      <trkpt lat="44.08183" lon="7.10648">
        <ele>568.425</ele>
        <time>2020-06-30T13:26:41Z</time>
      </trkpt>
      <trkpt lat="44.08183" lon="7.1064">
        <ele>570.618</ele>
        <time>2020-06-30T13:26:57Z</time>
      </trkpt>
      <trkpt lat="44.08183" lon="7.10641">
        <ele>568.003</ele>
        <time>2020-06-30T13:27:13Z</time>
      </trkpt>
      <trkpt lat="44.08182" lon="7.10639">
        <ele>570.967</ele>
        <time>2020-06-30T13:27:29Z</time>
      </trkpt>
      <trkpt lat="44.08179" lon="7.10633">
        <ele>574.092</ele>
        <time>2020-06-30T13:27:44Z</time>
      </trkpt>
      <trkpt lat="44.0818" lon="7.10642">
        <ele>575.526</ele>
        <time>2020-06-30T13:28:00Z</time>
      </trkpt>
      <trkpt lat="44.0818" lon="7.10639">
        <ele>577.187</ele>
        <time>2020-06-30T13:28:15Z</time>
      </trkpt>
      <trkpt lat="44.0818" lon="7.10639">
        <ele>577.187</ele>
        <time>2020-06-30T13:28:30Z</time>
      </trkpt>
      <trkpt lat="44.0818" lon="7.10639">
        <ele>577.187</ele>
        <time>2020-06-30T13:28:46Z</time>
      </trkpt>
      <trkpt lat="44.0818" lon="7.10639">
        <ele>577.187</ele>
        <time>2020-06-30T13:29:01Z</time>
      </trkpt>
      <trkpt lat="44.0818" lon="7.10639">
        <ele>577.187</ele>
        <time>2020-06-30T13:29:17Z</time>
      </trkpt>
      <trkpt lat="44.0818" lon="7.10639">
        <ele>577.187</ele>
        <time>2020-06-30T13:29:32Z</time>
      </trkpt>
      <trkpt lat="44.0818" lon="7.10639">
        <ele>577.187</ele>
        <time>2020-06-30T13:29:47Z</time>
      </trkpt>
      <trkpt lat="44.0818" lon="7.10639">
        <ele>577.187</ele>
        <time>2020-06-30T13:30:03Z</time>
      </trkpt>
      <trkpt lat="44.0817" lon="7.10635">
        <ele>579.527</ele>
        <time>2020-06-30T13:30:19Z</time>
      </trkpt>
      <trkpt lat="44.08165" lon="7.10632">
        <ele>581.816</ele>
        <time>2020-06-30T13:30:35Z</time>
      </trkpt>
      <trkpt lat="44.08162" lon="7.10635">
        <ele>583.56</ele>
        <time>2020-06-30T13:30:50Z</time>
      </trkpt>
      <trkpt lat="44.08162" lon="7.10635">
        <ele>583.56</ele>
        <time>2020-06-30T13:31:05Z</time>
      </trkpt>
      <trkpt lat="44.08162" lon="7.10635">
        <ele>583.56</ele>
        <time>2020-06-30T13:31:21Z</time>
      </trkpt>
      <trkpt lat="44.08162" lon="7.10635">
        <ele>583.56</ele>
        <time>2020-06-30T13:31:36Z</time>
      </trkpt>
      <trkpt lat="44.08162" lon="7.10635">
        <ele>583.56</ele>
        <time>2020-06-30T13:31:52Z</time>
      </trkpt>
      <trkpt lat="44.08162" lon="7.10635">
        <ele>583.56</ele>
        <time>2020-06-30T13:32:07Z</time>
      </trkpt>
      <trkpt lat="44.08162" lon="7.10635">
        <ele>583.56</ele>
        <time>2020-06-30T13:32:23Z</time>
      </trkpt>
      <trkpt lat="44.08162" lon="7.10635">
        <ele>583.56</ele>
        <time>2020-06-30T13:32:39Z</time>
      </trkpt>
      <trkpt lat="44.08162" lon="7.10635">
        <ele>583.56</ele>
        <time>2020-06-30T13:32:55Z</time>
      </trkpt>
      <trkpt lat="44.08162" lon="7.10635">
        <ele>583.56</ele>
        <time>2020-06-30T13:33:11Z</time>
      </trkpt>
    </trkseg>
  </trk>
</gpx>